<?xml version='1.0' encoding='UTF-8'?><gpx version="1.1" creator="JPX - https://github.com/jenetics/jpx" xmlns="http://www.topografix.com/GPX/1/1"><trk><trkseg><trkpt lat="45.836476762864734" lon="9.065920970750417"><ele>209.00000000000003</ele><time>2026-05-03T06:16:43.003Z</time></trkpt><trkpt lat="45.836484147208225" lon="9.066022626910394"><ele>209.0</ele><time>2026-05-03T06:19:49.004Z</time></trkpt><trkpt lat="45.83654195891974" lon="9.066065163796672"><ele>209.0</ele><time>2026-05-03T06:19:52.004Z</time></trkpt><trkpt lat="45.836518436406976" lon="9.066242311537906"><ele>209.0</ele><time>2026-05-03T06:19:54.004Z</time></trkpt><trkpt lat="45.83652841246936" lon="9.066353242784531"><ele>209.00000000000003</ele><time>2026-05-03T06:19:55.004Z</time></trkpt><trkpt lat="45.83647624465093" lon="9.06644710778023"><ele>209.0</ele><time>2026-05-03T06:19:56.004Z</time></trkpt><trkpt lat="45.83644322268008" lon="9.066564012921114"><ele>208.6</ele><time>2026-05-03T06:19:57.004Z</time></trkpt><trkpt lat="45.836419617027545" lon="9.066654113590587"><ele>208.2</ele><time>2026-05-03T06:19:58.004Z</time></trkpt><trkpt lat="45.83636949771322" lon="9.066807677345647"><ele>207.79999999999998</ele><time>2026-05-03T06:20:00.004Z</time></trkpt><trkpt lat="45.83631459050066" lon="9.066976893571063"><ele>207.39999999999998</ele><time>2026-05-03T06:20:02.004Z</time></trkpt><trkpt lat="45.8362364122392" lon="9.06701597889805"><ele>207.0</ele><time>2026-05-03T06:20:03.004Z</time></trkpt><trkpt lat="45.836180185547406" lon="9.067093169817591"><ele>207.0</ele><time>2026-05-03T06:20:04.004Z</time></trkpt><trkpt lat="45.83614324819516" lon="9.067234465151417"><ele>207.0</ele><time>2026-05-03T06:20:05.004Z</time></trkpt><trkpt lat="45.836163242045316" lon="9.067382529272056"><ele>207.0</ele><time>2026-05-03T06:20:06.004Z</time></trkpt><trkpt lat="45.83622515065714" lon="9.067495913502333"><ele>207.0</ele><time>2026-05-03T06:20:07.004Z</time></trkpt><trkpt lat="45.8363073124716" lon="9.067560576189038"><ele>207.0</ele><time>2026-05-03T06:20:08.004Z</time></trkpt><trkpt lat="45.83639096651768" lon="9.067577427025599"><ele>207.0</ele><time>2026-05-03T06:20:09.004Z</time></trkpt><trkpt lat="45.83649082661304" lon="9.067570437591847"><ele>207.0</ele><time>2026-05-03T06:20:10.004Z</time></trkpt><trkpt lat="45.83657985672218" lon="9.067595758429036"><ele>207.0</ele><time>2026-05-03T06:20:11.004Z</time></trkpt><trkpt lat="45.83666635448548" lon="9.067644575073986"><ele>207.0</ele><time>2026-05-03T06:20:12.004Z</time></trkpt><trkpt lat="45.83677102028591" lon="9.06768380666692"><ele>207.0</ele><time>2026-05-03T06:20:13.004Z</time></trkpt><trkpt lat="45.83690466340255" lon="9.067694624551484"><ele>207.0</ele><time>2026-05-03T06:20:14.004Z</time></trkpt><trkpt lat="45.83704957672416" lon="9.067697402025468"><ele>207.0</ele><time>2026-05-03T06:20:15.004Z</time></trkpt><trkpt lat="45.837192292159095" lon="9.06769218319934"><ele>207.0</ele><time>2026-05-03T06:20:16.004Z</time></trkpt><trkpt lat="45.83734674365265" lon="9.067660755120269"><ele>207.0</ele><time>2026-05-03T06:20:17.004Z</time></trkpt><trkpt lat="45.837502636603496" lon="9.067630182889644"><ele>207.33333333333331</ele><time>2026-05-03T06:20:18.004Z</time></trkpt><trkpt lat="45.83767234523277" lon="9.067621473084635"><ele>207.66666666666666</ele><time>2026-05-03T06:20:19.004Z</time></trkpt><trkpt lat="45.83783422472923" lon="9.06760541102699"><ele>208.0</ele><time>2026-05-03T06:20:20.004Z</time></trkpt><trkpt lat="45.837993975591736" lon="9.067596170121597"><ele>208.0</ele><time>2026-05-03T06:20:21.004Z</time></trkpt><trkpt lat="45.83815692782677" lon="9.067588825624464"><ele>208.0</ele><time>2026-05-03T06:20:22.004Z</time></trkpt><trkpt lat="45.83831740278195" lon="9.067579568801547"><ele>208.0</ele><time>2026-05-03T06:20:23.004Z</time></trkpt><trkpt lat="45.83847976125127" lon="9.067601228037391"><ele>219.0</ele><time>2026-05-03T06:20:24.004Z</time></trkpt><trkpt lat="45.83865985161022" lon="9.067613177062368"><ele>230.0</ele><time>2026-05-03T06:20:25.004Z</time></trkpt><trkpt lat="45.83884256250909" lon="9.06763521203817"><ele>241.0</ele><time>2026-05-03T06:20:26.004Z</time></trkpt><trkpt lat="45.83902880725016" lon="9.067664772013742"><ele>241.0</ele><time>2026-05-03T06:20:27.004Z</time></trkpt><trkpt lat="45.83921392105895" lon="9.067696168283334"><ele>241.0</ele><time>2026-05-03T06:20:28.004Z</time></trkpt><trkpt lat="45.839398599818864" lon="9.06772608247382"><ele>241.0</ele><time>2026-05-03T06:20:29.004Z</time></trkpt><trkpt lat="45.83957777700027" lon="9.067790117358777"><ele>255.66666666666666</ele><time>2026-05-03T06:20:30.004Z</time></trkpt><trkpt lat="45.83976164313498" lon="9.06784957581259"><ele>270.3333333333333</ele><time>2026-05-03T06:20:31.004Z</time></trkpt><trkpt lat="45.83994808611532" lon="9.067924840675428"><ele>285.0</ele><time>2026-05-03T06:20:32.004Z</time></trkpt><trkpt lat="45.840128241894156" lon="9.068005405404735"><ele>290.6666666666667</ele><time>2026-05-03T06:20:33.004Z</time></trkpt><trkpt lat="45.84032259779164" lon="9.06810654134181"><ele>296.33333333333337</ele><time>2026-05-03T06:20:34.142Z</time></trkpt><trkpt lat="45.84049387566865" lon="9.068206811706784"><ele>302.0</ele><time>2026-05-03T06:20:35.142Z</time></trkpt><trkpt lat="45.842160831605106" lon="9.069810071984955"><ele>304.0</ele><time>2026-05-03T06:20:38.448Z</time></trkpt><trkpt lat="45.84263377785545" lon="9.070405416651674"><ele>304.0</ele><time>2026-05-03T06:20:39.448Z</time></trkpt><trkpt lat="45.842738" lon="9.0705343"><ele>304.0</ele><time>2026-05-03T06:20:40.452Z</time></trkpt><trkpt lat="45.853381024988366" lon="9.089638616443906"><ele>292.0</ele><time>2026-05-03T06:21:56.005Z</time></trkpt><trkpt lat="45.85376525593011" lon="9.090107750706565"><ele>292.0</ele><time>2026-05-03T06:21:57.005Z</time></trkpt><trkpt lat="45.8539519491856" lon="9.090242396950028"><ele>292.0</ele><time>2026-05-03T06:21:58.005Z</time></trkpt><trkpt lat="45.854164398279174" lon="9.090438482092713"><ele>289.0</ele><time>2026-05-03T06:21:59.005Z</time></trkpt><trkpt lat="45.854417103619035" lon="9.090626217611414"><ele>286.0</ele><time>2026-05-03T06:22:00.005Z</time></trkpt><trkpt lat="45.854681671891015" lon="9.090768462232488"><ele>286.0</ele><time>2026-05-03T06:22:01.005Z</time></trkpt><trkpt lat="45.85492992288702" lon="9.090930256010628"><ele>286.0</ele><time>2026-05-03T06:22:02.005Z</time></trkpt><trkpt lat="45.85516284799846" lon="9.091078682792524"><ele>302.5</ele><time>2026-05-03T06:22:03.005Z</time></trkpt><trkpt lat="45.855388061087595" lon="9.091229649518889"><ele>319.0</ele><time>2026-05-03T06:22:04.005Z</time></trkpt><trkpt lat="45.85561117794818" lon="9.091382166581289"><ele>319.0</ele><time>2026-05-03T06:22:05.005Z</time></trkpt><trkpt lat="45.85582614291715" lon="9.09153203765968"><ele>319.0</ele><time>2026-05-03T06:22:06.005Z</time></trkpt><trkpt lat="45.85608701214055" lon="9.091584658244356"><ele>314.5</ele><time>2026-05-03T06:22:07.005Z</time></trkpt><trkpt lat="45.856331763173735" lon="9.091709474231966"><ele>310.0</ele><time>2026-05-03T06:22:08.005Z</time></trkpt><trkpt lat="45.856572137680935" lon="9.091842483841521"><ele>324.5</ele><time>2026-05-03T06:22:09.005Z</time></trkpt><trkpt lat="45.85681766893932" lon="9.091982668335715"><ele>339.0</ele><time>2026-05-03T06:22:10.005Z</time></trkpt><trkpt lat="45.857061556294354" lon="9.092122706647443"><ele>339.0</ele><time>2026-05-03T06:22:11.005Z</time></trkpt><trkpt lat="45.85730669736953" lon="9.092258541981765"><ele>339.0</ele><time>2026-05-03T06:22:12.005Z</time></trkpt><trkpt lat="45.85755520170439" lon="9.092393179057254"><ele>339.6666666666667</ele><time>2026-05-03T06:22:13.005Z</time></trkpt><trkpt lat="45.8577423095547" lon="9.09247656719561"><ele>340.33333333333337</ele><time>2026-05-03T06:22:14.005Z</time></trkpt><trkpt lat="45.85791705092926" lon="9.0926387900809"><ele>341.0</ele><time>2026-05-03T06:22:15.005Z</time></trkpt><trkpt lat="45.858067669187875" lon="9.092852027100445"><ele>341.0</ele><time>2026-05-03T06:22:16.005Z</time></trkpt><trkpt lat="45.85821370579601" lon="9.093086901837745"><ele>341.0</ele><time>2026-05-03T06:22:17.005Z</time></trkpt><trkpt lat="45.85831962150181" lon="9.093352052188052"><ele>341.0</ele><time>2026-05-03T06:22:18.005Z</time></trkpt><trkpt lat="45.858414258328345" lon="9.09362814278369"><ele>347.5</ele><time>2026-05-03T06:22:19.005Z</time></trkpt><trkpt lat="45.858518529521184" lon="9.093925945193208"><ele>354.0</ele><time>2026-05-03T06:22:20.005Z</time></trkpt><trkpt lat="45.858638213096754" lon="9.09422904481753"><ele>335.5</ele><time>2026-05-03T06:22:21.005Z</time></trkpt><trkpt lat="45.858757769023406" lon="9.094519353106959"><ele>317.0</ele><time>2026-05-03T06:22:22.005Z</time></trkpt><trkpt lat="45.85887587939054" lon="9.094799020459646"><ele>320.6666666666667</ele><time>2026-05-03T06:22:23.005Z</time></trkpt><trkpt lat="45.859011776351444" lon="9.09505325106022"><ele>324.3333333333333</ele><time>2026-05-03T06:22:24.005Z</time></trkpt><trkpt lat="45.859175006907115" lon="9.09526976946531"><ele>328.0</ele><time>2026-05-03T06:22:25.005Z</time></trkpt><trkpt lat="45.85935770223336" lon="9.095454465245005"><ele>328.0</ele><time>2026-05-03T06:22:26.005Z</time></trkpt><trkpt lat="45.85955817046409" lon="9.095631110771233"><ele>328.0</ele><time>2026-05-03T06:22:27.005Z</time></trkpt><trkpt lat="45.8597540788758" lon="9.095817255315879"><ele>329.0</ele><time>2026-05-03T06:22:28.005Z</time></trkpt><trkpt lat="45.859944201947194" lon="9.096010426320598"><ele>330.0</ele><time>2026-05-03T06:22:29.005Z</time></trkpt><trkpt lat="45.86013122736268" lon="9.096203624830231"><ele>330.0</ele><time>2026-05-03T06:22:30.005Z</time></trkpt><trkpt lat="45.86030339160237" lon="9.096385518446727"><ele>330.0</ele><time>2026-05-03T06:22:31.005Z</time></trkpt><trkpt lat="45.860462716515315" lon="9.096585010184297"><ele>330.0</ele><time>2026-05-03T06:22:32.005Z</time></trkpt><trkpt lat="45.8605979131456" lon="9.096820276416837"><ele>319.0</ele><time>2026-05-03T06:22:33.005Z</time></trkpt><trkpt lat="45.86071077431333" lon="9.097098454566789"><ele>308.0</ele><time>2026-05-03T06:22:34.005Z</time></trkpt><trkpt lat="45.86081699946284" lon="9.09737539406724"><ele>297.0</ele><time>2026-05-03T06:22:35.005Z</time></trkpt><trkpt lat="45.86094509134732" lon="9.097628039003308"><ele>297.3333333333333</ele><time>2026-05-03T06:22:36.005Z</time></trkpt><trkpt lat="45.86109633842074" lon="9.097821699983005"><ele>297.66666666666663</ele><time>2026-05-03T06:22:37.005Z</time></trkpt><trkpt lat="45.861282485467214" lon="9.097946625464786"><ele>298.0</ele><time>2026-05-03T06:22:38.005Z</time></trkpt><trkpt lat="45.86148322022459" lon="9.098009193693732"><ele>298.0</ele><time>2026-05-03T06:22:39.005Z</time></trkpt><trkpt lat="45.86169142220981" lon="9.098016978857226"><ele>298.0</ele><time>2026-05-03T06:22:40.005Z</time></trkpt><trkpt lat="45.86190346123972" lon="9.098004260279689"><ele>298.0</ele><time>2026-05-03T06:22:41.005Z</time></trkpt><trkpt lat="45.86211943022727" lon="9.098024383043516"><ele>300.0</ele><time>2026-05-03T06:22:42.005Z</time></trkpt><trkpt lat="45.862322529549616" lon="9.098049716811069"><ele>302.0</ele><time>2026-05-03T06:22:43.005Z</time></trkpt><trkpt lat="45.86250716449216" lon="9.098072155446417"><ele>304.0</ele><time>2026-05-03T06:22:44.005Z</time></trkpt><trkpt lat="45.862657270149526" lon="9.098168789903244"><ele>302.75</ele><time>2026-05-03T06:22:45.005Z</time></trkpt><trkpt lat="45.86279479035021" lon="9.098279787689762"><ele>301.5</ele><time>2026-05-03T06:22:46.005Z</time></trkpt><trkpt lat="45.86290397935626" lon="9.098422889659126"><ele>300.25</ele><time>2026-05-03T06:22:47.005Z</time></trkpt><trkpt lat="45.86299031996193" lon="9.09857751250148"><ele>299.0</ele><time>2026-05-03T06:22:48.005Z</time></trkpt><trkpt lat="45.86306221870772" lon="9.09875718708433"><ele>299.0</ele><time>2026-05-03T06:22:49.005Z</time></trkpt><trkpt lat="45.86311439006362" lon="9.098968212263712"><ele>299.0</ele><time>2026-05-03T06:22:50.005Z</time></trkpt><trkpt lat="45.86313604882723" lon="9.099195746346728"><ele>299.0</ele><time>2026-05-03T06:22:51.005Z</time></trkpt><trkpt lat="45.863132577094106" lon="9.099418811907936"><ele>297.33333333333337</ele><time>2026-05-03T06:22:52.005Z</time></trkpt><trkpt lat="45.863125012474924" lon="9.099645778666725"><ele>295.6666666666667</ele><time>2026-05-03T06:22:53.005Z</time></trkpt><trkpt lat="45.863132405752175" lon="9.099864500350463"><ele>294.0</ele><time>2026-05-03T06:22:54.005Z</time></trkpt><trkpt lat="45.86311333832057" lon="9.1000869523598"><ele>294.0</ele><time>2026-05-03T06:22:55.005Z</time></trkpt><trkpt lat="45.86310930729469" lon="9.100314565681705"><ele>294.0</ele><time>2026-05-03T06:22:56.005Z</time></trkpt><trkpt lat="45.863101877869106" lon="9.100544365447467"><ele>294.0</ele><time>2026-05-03T06:22:57.005Z</time></trkpt><trkpt lat="45.86308984336481" lon="9.10078204890864"><ele>294.0</ele><time>2026-05-03T06:22:58.005Z</time></trkpt><trkpt lat="45.863084453233526" lon="9.101025980103515"><ele>294.0</ele><time>2026-05-03T06:22:59.005Z</time></trkpt><trkpt lat="45.86307320601982" lon="9.101270227015107"><ele>294.0</ele><time>2026-05-03T06:23:00.005Z</time></trkpt><trkpt lat="45.86306800248919" lon="9.101516176652996"><ele>295.6666666666667</ele><time>2026-05-03T06:23:01.005Z</time></trkpt><trkpt lat="45.86306443671186" lon="9.101771557012936"><ele>297.33333333333337</ele><time>2026-05-03T06:23:02.005Z</time></trkpt><trkpt lat="45.863058072278136" lon="9.102027073106163"><ele>299.0</ele><time>2026-05-03T06:23:03.005Z</time></trkpt><trkpt lat="45.86305343153389" lon="9.102272169741084"><ele>297.0</ele><time>2026-05-03T06:23:04.005Z</time></trkpt><trkpt lat="45.86305440941065" lon="9.102519788600304"><ele>295.0</ele><time>2026-05-03T06:23:05.005Z</time></trkpt><trkpt lat="45.86309708191047" lon="9.10274664980793"><ele>293.0</ele><time>2026-05-03T06:23:06.005Z</time></trkpt><trkpt lat="45.863146778449625" lon="9.102968673093502"><ele>293.0</ele><time>2026-05-03T06:23:07.005Z</time></trkpt><trkpt lat="45.8632123646082" lon="9.103183097802175"><ele>293.0</ele><time>2026-05-03T06:23:08.005Z</time></trkpt><trkpt lat="45.86330420144431" lon="9.103375015845982"><ele>293.0</ele><time>2026-05-03T06:23:09.005Z</time></trkpt><trkpt lat="45.863412117870965" lon="9.103574606550655"><ele>295.33333333333337</ele><time>2026-05-03T06:23:10.005Z</time></trkpt><trkpt lat="45.86354045533855" lon="9.103785481094498"><ele>297.6666666666667</ele><time>2026-05-03T06:23:11.005Z</time></trkpt><trkpt lat="45.86365870735461" lon="9.104014976033497"><ele>300.0</ele><time>2026-05-03T06:23:12.005Z</time></trkpt><trkpt lat="45.863785009980255" lon="9.104271923443447"><ele>300.0</ele><time>2026-05-03T06:23:13.005Z</time></trkpt><trkpt lat="45.86392139330023" lon="9.104541557258882"><ele>300.0</ele><time>2026-05-03T06:23:14.005Z</time></trkpt><trkpt lat="45.86405581330839" lon="9.10480351011613"><ele>295.0</ele><time>2026-05-03T06:23:15.005Z</time></trkpt><trkpt lat="45.86418346649186" lon="9.105058125850965"><ele>290.0</ele><time>2026-05-03T06:23:16.005Z</time></trkpt><trkpt lat="45.86431875355859" lon="9.105321751894294"><ele>285.0</ele><time>2026-05-03T06:23:17.005Z</time></trkpt><trkpt lat="45.864457952143525" lon="9.105595103434705"><ele>294.5</ele><time>2026-05-03T06:23:18.005Z</time></trkpt><trkpt lat="45.86458595308275" lon="9.105880681364756"><ele>304.0</ele><time>2026-05-03T06:23:19.005Z</time></trkpt><trkpt lat="45.86475703495017" lon="9.106126637976892"><ele>304.0</ele><time>2026-05-03T06:23:20.005Z</time></trkpt><trkpt lat="45.86493389059597" lon="9.106351169176525"><ele>304.0</ele><time>2026-05-03T06:23:21.005Z</time></trkpt><trkpt lat="45.86512325473468" lon="9.106561483135208"><ele>314.0</ele><time>2026-05-03T06:23:22.005Z</time></trkpt><trkpt lat="45.86531138618337" lon="9.10678640792184"><ele>324.0</ele><time>2026-05-03T06:23:23.005Z</time></trkpt><trkpt lat="45.865477882845695" lon="9.107044269383746"><ele>324.0</ele><time>2026-05-03T06:23:24.005Z</time></trkpt><trkpt lat="45.8656380668943" lon="9.107309219798278"><ele>324.0</ele><time>2026-05-03T06:23:25.005Z</time></trkpt><trkpt lat="45.86581269797196" lon="9.107568050570926"><ele>332.5</ele><time>2026-05-03T06:23:26.005Z</time></trkpt><trkpt lat="45.86597386769578" lon="9.107838671738582"><ele>341.0</ele><time>2026-05-03T06:23:27.005Z</time></trkpt><trkpt lat="45.866126796672546" lon="9.10813104458129"><ele>330.0</ele><time>2026-05-03T06:23:28.005Z</time></trkpt><trkpt lat="45.866291525706885" lon="9.10840763632669"><ele>319.0</ele><time>2026-05-03T06:23:29.005Z</time></trkpt><trkpt lat="45.86645989423892" lon="9.108659827458814"><ele>319.0</ele><time>2026-05-03T06:23:30.005Z</time></trkpt><trkpt lat="45.86660135882949" lon="9.10891620050599"><ele>319.0</ele><time>2026-05-03T06:23:31.005Z</time></trkpt><trkpt lat="45.86670927662753" lon="9.109186036423479"><ele>319.0</ele><time>2026-05-03T06:23:32.005Z</time></trkpt><trkpt lat="45.86679486262" lon="9.10946253894835"><ele>323.0</ele><time>2026-05-03T06:23:33.005Z</time></trkpt><trkpt lat="45.86687057326821" lon="9.1097203754436"><ele>327.0</ele><time>2026-05-03T06:23:34.005Z</time></trkpt><trkpt lat="45.866942602252486" lon="9.109955958003919"><ele>331.0</ele><time>2026-05-03T06:23:35.005Z</time></trkpt><trkpt lat="45.86702092285313" lon="9.110175737358633"><ele>331.0</ele><time>2026-05-03T06:23:36.005Z</time></trkpt><trkpt lat="45.867116542204656" lon="9.110384755232687"><ele>331.0</ele><time>2026-05-03T06:23:37.005Z</time></trkpt><trkpt lat="45.867240117743656" lon="9.11060694322114"><ele>331.0</ele><time>2026-05-03T06:23:38.005Z</time></trkpt><trkpt lat="45.86739489168586" lon="9.110815747181922"><ele>338.0</ele><time>2026-05-03T06:23:39.005Z</time></trkpt><trkpt lat="45.86755380099191" lon="9.110995770722273"><ele>345.0</ele><time>2026-05-03T06:23:40.005Z</time></trkpt><trkpt lat="45.86768235489293" lon="9.111188820616556"><ele>352.0</ele><time>2026-05-03T06:23:41.005Z</time></trkpt><trkpt lat="45.86778623938689" lon="9.111425789669987"><ele>345.66666666666663</ele><time>2026-05-03T06:23:42.005Z</time></trkpt><trkpt lat="45.86788379821418" lon="9.11168850079624"><ele>339.3333333333333</ele><time>2026-05-03T06:23:43.005Z</time></trkpt><trkpt lat="45.86798259577791" lon="9.111975285530553"><ele>333.0</ele><time>2026-05-03T06:23:44.005Z</time></trkpt><trkpt lat="45.86809655843495" lon="9.112269903908718"><ele>320.0</ele><time>2026-05-03T06:23:45.005Z</time></trkpt><trkpt lat="45.86819780561149" lon="9.11258252110061"><ele>307.0</ele><time>2026-05-03T06:23:46.005Z</time></trkpt><trkpt lat="45.86829900707031" lon="9.112887125135249"><ele>307.0</ele><time>2026-05-03T06:23:47.005Z</time></trkpt><trkpt lat="45.86840672523692" lon="9.113186785719913"><ele>307.0</ele><time>2026-05-03T06:23:48.005Z</time></trkpt><trkpt lat="45.868532111675115" lon="9.113464300165747"><ele>309.66666666666663</ele><time>2026-05-03T06:23:49.005Z</time></trkpt><trkpt lat="45.868692367541406" lon="9.113688326311582"><ele>312.3333333333333</ele><time>2026-05-03T06:23:50.005Z</time></trkpt><trkpt lat="45.868879369205295" lon="9.113847085245757"><ele>315.0</ele><time>2026-05-03T06:23:51.005Z</time></trkpt><trkpt lat="45.869085525431366" lon="9.113955762659602"><ele>311.0</ele><time>2026-05-03T06:23:52.005Z</time></trkpt><trkpt lat="45.86930413501254" lon="9.11402647199553"><ele>307.0</ele><time>2026-05-03T06:23:53.005Z</time></trkpt><trkpt lat="45.86951796336266" lon="9.11409663725588"><ele>303.0</ele><time>2026-05-03T06:23:54.005Z</time></trkpt><trkpt lat="45.869711986729435" lon="9.114165978108876"><ele>303.0</ele><time>2026-05-03T06:23:55.005Z</time></trkpt><trkpt lat="45.869882031626915" lon="9.11429132603545"><ele>303.0</ele><time>2026-05-03T06:23:56.005Z</time></trkpt><trkpt lat="45.87002880498803" lon="9.114438206665609"><ele>303.0</ele><time>2026-05-03T06:23:57.005Z</time></trkpt><trkpt lat="45.87015052999572" lon="9.114599956360552"><ele>306.25</ele><time>2026-05-03T06:23:58.005Z</time></trkpt><trkpt lat="45.870274527020115" lon="9.114761305626754"><ele>309.5</ele><time>2026-05-03T06:23:59.005Z</time></trkpt><trkpt lat="45.8703320461568" lon="9.114980010526676"><ele>312.75</ele><time>2026-05-03T06:24:00.005Z</time></trkpt><trkpt lat="45.87041618924505" lon="9.115089895189152"><ele>316.0</ele><time>2026-05-03T06:24:01.005Z</time></trkpt><trkpt lat="45.870337070135804" lon="9.115401977433084"><ele>316.75</ele><time>2026-05-03T06:24:02.005Z</time></trkpt><trkpt lat="45.87031820735874" lon="9.115602246173102"><ele>317.5</ele><time>2026-05-03T06:24:03.005Z</time></trkpt><trkpt lat="45.870286696442975" lon="9.115794964090348"><ele>318.25</ele><time>2026-05-03T06:24:04.005Z</time></trkpt><trkpt lat="45.87026300895724" lon="9.115972211251115"><ele>319.0</ele><time>2026-05-03T06:24:05.005Z</time></trkpt><trkpt lat="45.870244817003424" lon="9.116152389884384"><ele>319.5</ele><time>2026-05-03T06:24:06.005Z</time></trkpt><trkpt lat="45.87022889954077" lon="9.116342990035099"><ele>320.0</ele><time>2026-05-03T06:24:07.005Z</time></trkpt><trkpt lat="45.87023818256456" lon="9.116534056804593"><ele>320.5</ele><time>2026-05-03T06:24:08.005Z</time></trkpt><trkpt lat="45.87026219060789" lon="9.116723163081929"><ele>321.0</ele><time>2026-05-03T06:24:09.005Z</time></trkpt><trkpt lat="45.87031262531177" lon="9.11690512163801"><ele>319.5</ele><time>2026-05-03T06:24:10.005Z</time></trkpt><trkpt lat="45.87037983096862" lon="9.117085221635696"><ele>318.0</ele><time>2026-05-03T06:24:11.005Z</time></trkpt><trkpt lat="45.87045207843306" lon="9.117240817817041"><ele>316.5</ele><time>2026-05-03T06:24:12.005Z</time></trkpt><trkpt lat="45.87052545632626" lon="9.11738431769189"><ele>315.0</ele><time>2026-05-03T06:24:13.005Z</time></trkpt><trkpt lat="45.870605532399736" lon="9.117539516893867"><ele>312.75</ele><time>2026-05-03T06:24:14.005Z</time></trkpt><trkpt lat="45.87068704178873" lon="9.117698106837114"><ele>310.5</ele><time>2026-05-03T06:24:15.005Z</time></trkpt><trkpt lat="45.87077031330263" lon="9.117858902596335"><ele>308.25</ele><time>2026-05-03T06:24:16.005Z</time></trkpt><trkpt lat="45.87085874585047" lon="9.118024374721104"><ele>306.0</ele><time>2026-05-03T06:24:17.005Z</time></trkpt><trkpt lat="45.8709395889495" lon="9.118184843014564"><ele>310.6</ele><time>2026-05-03T06:24:18.005Z</time></trkpt><trkpt lat="45.87099533991176" lon="9.118332045140349"><ele>315.20000000000005</ele><time>2026-05-03T06:24:19.005Z</time></trkpt><trkpt lat="45.87104141977954" lon="9.118454706776916"><ele>319.79999999999995</ele><time>2026-05-03T06:24:20.005Z</time></trkpt><trkpt lat="45.871078949582945" lon="9.118569999721766"><ele>324.4</ele><time>2026-05-03T06:24:21.005Z</time></trkpt><trkpt lat="45.87110488639286" lon="9.118703683624082"><ele>329.0</ele><time>2026-05-03T06:24:22.005Z</time></trkpt><trkpt lat="45.871120697707816" lon="9.11885007007603"><ele>329.0</ele><time>2026-05-03T06:24:23.005Z</time></trkpt><trkpt lat="45.87112161438348" lon="9.119003866717891"><ele>329.0</ele><time>2026-05-03T06:24:24.005Z</time></trkpt><trkpt lat="45.871113541566324" lon="9.119161497572724"><ele>329.0</ele><time>2026-05-03T06:24:25.005Z</time></trkpt><trkpt lat="45.87110838331521" lon="9.119315577601842"><ele>329.0</ele><time>2026-05-03T06:24:26.005Z</time></trkpt><trkpt lat="45.87110987435441" lon="9.11946896857029"><ele>329.0</ele><time>2026-05-03T06:24:27.005Z</time></trkpt><trkpt lat="45.871114567062634" lon="9.119625678129452"><ele>326.25</ele><time>2026-05-03T06:24:28.005Z</time></trkpt><trkpt lat="45.871129117915714" lon="9.11978601054636"><ele>323.5</ele><time>2026-05-03T06:24:29.005Z</time></trkpt><trkpt lat="45.87115870322001" lon="9.11995219794441"><ele>320.75</ele><time>2026-05-03T06:24:30.005Z</time></trkpt><trkpt lat="45.871209940517446" lon="9.120107024370542"><ele>318.0</ele><time>2026-05-03T06:24:31.005Z</time></trkpt><trkpt lat="45.87128197164405" lon="9.120263115714812"><ele>314.6666666666667</ele><time>2026-05-03T06:24:32.005Z</time></trkpt><trkpt lat="45.871380443384304" lon="9.120427633503787"><ele>311.33333333333337</ele><time>2026-05-03T06:24:33.005Z</time></trkpt><trkpt lat="45.87150249427602" lon="9.120595581939812"><ele>308.0</ele><time>2026-05-03T06:24:34.005Z</time></trkpt><trkpt lat="45.87163188245581" lon="9.120788279203738"><ele>304.33333333333337</ele><time>2026-05-03T06:24:35.005Z</time></trkpt><trkpt lat="45.87175656387" lon="9.120996540032738"><ele>300.6666666666667</ele><time>2026-05-03T06:24:36.005Z</time></trkpt><trkpt lat="45.87187410040895" lon="9.121213227542851"><ele>297.0</ele><time>2026-05-03T06:24:37.005Z</time></trkpt><trkpt lat="45.871995073267925" lon="9.121447565658249"><ele>305.0</ele><time>2026-05-03T06:24:38.005Z</time></trkpt><trkpt lat="45.87210522581315" lon="9.12169334001375"><ele>313.0</ele><time>2026-05-03T06:24:39.005Z</time></trkpt><trkpt lat="45.872217328238335" lon="9.121943548212794"><ele>321.0</ele><time>2026-05-03T06:24:40.005Z</time></trkpt><trkpt lat="45.872332248406494" lon="9.122192565230831"><ele>315.0</ele><time>2026-05-03T06:24:41.005Z</time></trkpt><trkpt lat="45.87245346217879" lon="9.122439436762141"><ele>309.0</ele><time>2026-05-03T06:24:42.005Z</time></trkpt><trkpt lat="45.87258506897481" lon="9.122683333123986"><ele>303.0</ele><time>2026-05-03T06:24:43.005Z</time></trkpt><trkpt lat="45.872724061391935" lon="9.122926149736129"><ele>308.0</ele><time>2026-05-03T06:24:44.005Z</time></trkpt><trkpt lat="45.87286491831049" lon="9.123157525354051"><ele>313.0</ele><time>2026-05-03T06:24:45.005Z</time></trkpt><trkpt lat="45.87302183140416" lon="9.123382192549665"><ele>318.0</ele><time>2026-05-03T06:24:46.005Z</time></trkpt><trkpt lat="45.873177524261386" lon="9.123615001345232"><ele>318.0</ele><time>2026-05-03T06:24:47.005Z</time></trkpt><trkpt lat="45.87333252753903" lon="9.123851330249376"><ele>318.0</ele><time>2026-05-03T06:24:48.005Z</time></trkpt><trkpt lat="45.87347921230064" lon="9.124087466225928"><ele>318.0</ele><time>2026-05-03T06:24:49.005Z</time></trkpt><trkpt lat="45.87362365049508" lon="9.124312749931061"><ele>314.0</ele><time>2026-05-03T06:24:50.005Z</time></trkpt><trkpt lat="45.873753976068585" lon="9.12453821325981"><ele>310.0</ele><time>2026-05-03T06:24:51.005Z</time></trkpt><trkpt lat="45.87387445593616" lon="9.12476943689936"><ele>306.0</ele><time>2026-05-03T06:24:52.005Z</time></trkpt><trkpt lat="45.873978474209025" lon="9.125026703827961"><ele>306.0</ele><time>2026-05-03T06:24:53.005Z</time></trkpt><trkpt lat="45.87408148462847" lon="9.125302768294269"><ele>306.0</ele><time>2026-05-03T06:24:54.005Z</time></trkpt><trkpt lat="45.874180045208014" lon="9.12561035622082"><ele>320.5</ele><time>2026-05-03T06:24:55.005Z</time></trkpt><trkpt lat="45.87429785053063" lon="9.125911153532218"><ele>335.0</ele><time>2026-05-03T06:24:56.005Z</time></trkpt><trkpt lat="45.874425744506176" lon="9.126218005688399"><ele>335.0</ele><time>2026-05-03T06:24:57.005Z</time></trkpt><trkpt lat="45.87454463043692" lon="9.126540991670687"><ele>335.0</ele><time>2026-05-03T06:24:58.005Z</time></trkpt><trkpt lat="45.874665720678394" lon="9.126864718378927"><ele>321.0</ele><time>2026-05-03T06:24:59.005Z</time></trkpt><trkpt lat="45.8748011601109" lon="9.127189302688668"><ele>307.0</ele><time>2026-05-03T06:25:00.005Z</time></trkpt><trkpt lat="45.87492970953937" lon="9.127519884321918"><ele>319.5</ele><time>2026-05-03T06:25:01.005Z</time></trkpt><trkpt lat="45.87505737999323" lon="9.12785924998594"><ele>332.0</ele><time>2026-05-03T06:25:02.005Z</time></trkpt><trkpt lat="45.87517703430355" lon="9.128204168343535"><ele>312.0</ele><time>2026-05-03T06:25:03.005Z</time></trkpt><trkpt lat="45.875408962085594" lon="9.128867655918565"><ele>297.5</ele><time>2026-05-03T06:25:05.005Z</time></trkpt><trkpt lat="45.875532715695144" lon="9.129174421205178"><ele>283.0</ele><time>2026-05-03T06:25:06.005Z</time></trkpt><trkpt lat="45.875677603647404" lon="9.129458600584377"><ele>283.0</ele><time>2026-05-03T06:25:07.005Z</time></trkpt><trkpt lat="45.87583824602461" lon="9.129738687520753"><ele>283.0</ele><time>2026-05-03T06:25:08.005Z</time></trkpt><trkpt lat="45.87600511581423" lon="9.130005796820079"><ele>285.5</ele><time>2026-05-03T06:25:09.005Z</time></trkpt><trkpt lat="45.876169731183296" lon="9.130279367698167"><ele>288.0</ele><time>2026-05-03T06:25:10.005Z</time></trkpt><trkpt lat="45.87633579687344" lon="9.130553952314694"><ele>279.5</ele><time>2026-05-03T06:25:11.005Z</time></trkpt><trkpt lat="45.876500518418815" lon="9.130825238750514"><ele>271.0</ele><time>2026-05-03T06:25:12.005Z</time></trkpt><trkpt lat="45.8766653115658" lon="9.13109642339079"><ele>276.5</ele><time>2026-05-03T06:25:13.005Z</time></trkpt><trkpt lat="45.876822233560425" lon="9.13136907584218"><ele>282.0</ele><time>2026-05-03T06:25:14.005Z</time></trkpt><trkpt lat="45.87697493063624" lon="9.131647813210034"><ele>282.0</ele><time>2026-05-03T06:25:15.005Z</time></trkpt><trkpt lat="45.87712777760866" lon="9.131927015575158"><ele>282.0</ele><time>2026-05-03T06:25:16.005Z</time></trkpt><trkpt lat="45.87727779368141" lon="9.13220541258791"><ele>274.5</ele><time>2026-05-03T06:25:17.005Z</time></trkpt><trkpt lat="45.87743148622423" lon="9.132491535036978"><ele>267.0</ele><time>2026-05-03T06:25:18.005Z</time></trkpt><trkpt lat="45.87758667420448" lon="9.132780164175532"><ele>278.0</ele><time>2026-05-03T06:25:19.005Z</time></trkpt><trkpt lat="45.87773978850028" lon="9.133064770982882"><ele>289.0</ele><time>2026-05-03T06:25:20.005Z</time></trkpt><trkpt lat="45.87790617499078" lon="9.133334916130986"><ele>289.0</ele><time>2026-05-03T06:25:21.005Z</time></trkpt><trkpt lat="45.87804420983232" lon="9.133630221325053"><ele>289.0</ele><time>2026-05-03T06:25:22.005Z</time></trkpt><trkpt lat="45.87821327527569" lon="9.133908529707208"><ele>292.5</ele><time>2026-05-03T06:25:23.005Z</time></trkpt><trkpt lat="45.87836740370494" lon="9.13419188615713"><ele>296.0</ele><time>2026-05-03T06:25:24.005Z</time></trkpt><trkpt lat="45.87850589144521" lon="9.134488568338426"><ele>296.0</ele><time>2026-05-03T06:25:25.005Z</time></trkpt><trkpt lat="45.878655422106554" lon="9.134765786041378"><ele>296.0</ele><time>2026-05-03T06:25:26.005Z</time></trkpt><trkpt lat="45.87880659342674" lon="9.135015996202513"><ele>286.33333333333337</ele><time>2026-05-03T06:25:27.005Z</time></trkpt><trkpt lat="45.878939495322356" lon="9.135254563258725"><ele>276.6666666666667</ele><time>2026-05-03T06:25:28.005Z</time></trkpt><trkpt lat="45.87906976990026" lon="9.135469954453368"><ele>267.0</ele><time>2026-05-03T06:25:29.005Z</time></trkpt><trkpt lat="45.879222123914005" lon="9.135614671541362"><ele>266.3333333333333</ele><time>2026-05-03T06:25:30.005Z</time></trkpt><trkpt lat="45.879397415979305" lon="9.135731761940452"><ele>265.66666666666663</ele><time>2026-05-03T06:25:31.005Z</time></trkpt><trkpt lat="45.87959238951483" lon="9.135830614834122"><ele>265.0</ele><time>2026-05-03T06:25:32.005Z</time></trkpt><trkpt lat="45.87979848552018" lon="9.135921830926046"><ele>265.0</ele><time>2026-05-03T06:25:33.005Z</time></trkpt><trkpt lat="45.88000603313081" lon="9.136023736178807"><ele>265.0</ele><time>2026-05-03T06:25:34.005Z</time></trkpt><trkpt lat="45.88022152876249" lon="9.136136297541322"><ele>265.0</ele><time>2026-05-03T06:25:35.005Z</time></trkpt><trkpt lat="45.88044047508824" lon="9.136246328440878"><ele>265.66666666666663</ele><time>2026-05-03T06:25:36.005Z</time></trkpt><trkpt lat="45.88064645088316" lon="9.136366813492343"><ele>266.3333333333333</ele><time>2026-05-03T06:25:37.005Z</time></trkpt><trkpt lat="45.880849659394734" lon="9.136467972491394"><ele>267.0</ele><time>2026-05-03T06:25:38.005Z</time></trkpt><trkpt lat="45.88104685623281" lon="9.136571577794358"><ele>267.0</ele><time>2026-05-03T06:25:39.006Z</time></trkpt><trkpt lat="45.88124340950056" lon="9.136717039198423"><ele>267.0</ele><time>2026-05-03T06:25:40.006Z</time></trkpt><trkpt lat="45.881453821431926" lon="9.136828217376314"><ele>267.0</ele><time>2026-05-03T06:25:41.006Z</time></trkpt><trkpt lat="45.88166546748461" lon="9.136944767213683"><ele>272.5</ele><time>2026-05-03T06:25:42.006Z</time></trkpt><trkpt lat="45.88188192071943" lon="9.137063535370087"><ele>278.0</ele><time>2026-05-03T06:25:43.006Z</time></trkpt><trkpt lat="45.882098069472015" lon="9.137177387310734"><ele>278.0</ele><time>2026-05-03T06:25:44.006Z</time></trkpt><trkpt lat="45.88231436920463" lon="9.13729344551228"><ele>278.0</ele><time>2026-05-03T06:25:45.006Z</time></trkpt><trkpt lat="45.882526629624444" lon="9.137422804114276"><ele>277.5</ele><time>2026-05-03T06:25:46.006Z</time></trkpt><trkpt lat="45.88273760856055" lon="9.13755439317158"><ele>277.0</ele><time>2026-05-03T06:25:47.006Z</time></trkpt><trkpt lat="45.88291041193861" lon="9.137776026870814"><ele>277.0</ele><time>2026-05-03T06:25:48.006Z</time></trkpt><trkpt lat="45.8830899381558" lon="9.137992442136124"><ele>277.0</ele><time>2026-05-03T06:25:49.006Z</time></trkpt><trkpt lat="45.883288516861654" lon="9.138205633854218"><ele>284.0</ele><time>2026-05-03T06:25:50.006Z</time></trkpt><trkpt lat="45.88347703187282" lon="9.138432544045237"><ele>291.0</ele><time>2026-05-03T06:25:51.006Z</time></trkpt><trkpt lat="45.88365569382065" lon="9.13867969856771"><ele>291.0</ele><time>2026-05-03T06:25:52.006Z</time></trkpt><trkpt lat="45.88384829960319" lon="9.138911299970017"><ele>291.0</ele><time>2026-05-03T06:25:53.006Z</time></trkpt><trkpt lat="45.884047419711685" lon="9.139127533075534"><ele>285.0</ele><time>2026-05-03T06:25:54.006Z</time></trkpt><trkpt lat="45.88423528678346" lon="9.139356973399527"><ele>279.0</ele><time>2026-05-03T06:25:55.006Z</time></trkpt><trkpt lat="45.88441697244347" lon="9.139584235421298"><ele>279.0</ele><time>2026-05-03T06:25:56.006Z</time></trkpt><trkpt lat="45.88460107103072" lon="9.139805854610493"><ele>279.0</ele><time>2026-05-03T06:25:57.006Z</time></trkpt><trkpt lat="45.88478747997793" lon="9.140024964611413"><ele>275.0</ele><time>2026-05-03T06:25:58.006Z</time></trkpt><trkpt lat="45.88496527633878" lon="9.140242876496258"><ele>271.0</ele><time>2026-05-03T06:25:59.006Z</time></trkpt><trkpt lat="45.88513188492131" lon="9.14044910699025"><ele>271.0</ele><time>2026-05-03T06:26:00.006Z</time></trkpt><trkpt lat="45.88529553410952" lon="9.14063178377819"><ele>271.0</ele><time>2026-05-03T06:26:01.006Z</time></trkpt><trkpt lat="45.88547015411646" lon="9.140768303303128"><ele>271.0</ele><time>2026-05-03T06:26:02.006Z</time></trkpt><trkpt lat="45.88566781525041" lon="9.140852763130855"><ele>261.3333333333333</ele><time>2026-05-03T06:26:03.006Z</time></trkpt><trkpt lat="45.885879077436506" lon="9.14088637998212"><ele>251.66666666666669</ele><time>2026-05-03T06:26:04.006Z</time></trkpt><trkpt lat="45.88609288681273" lon="9.140849220814724"><ele>242.0</ele><time>2026-05-03T06:26:05.006Z</time></trkpt><trkpt lat="45.886299612734874" lon="9.14078708607947"><ele>240.33333333333334</ele><time>2026-05-03T06:26:06.006Z</time></trkpt><trkpt lat="45.88649717000442" lon="9.140742575452675"><ele>238.66666666666669</ele><time>2026-05-03T06:26:07.006Z</time></trkpt><trkpt lat="45.88668461510084" lon="9.140740336391087"><ele>237.0</ele><time>2026-05-03T06:26:08.006Z</time></trkpt><trkpt lat="45.88685447407244" lon="9.140732993044132"><ele>244.0</ele><time>2026-05-03T06:26:09.006Z</time></trkpt><trkpt lat="45.88702230292781" lon="9.140752651089514"><ele>251.0</ele><time>2026-05-03T06:26:10.006Z</time></trkpt><trkpt lat="45.8871877357394" lon="9.140796228911134"><ele>258.0</ele><time>2026-05-03T06:26:11.006Z</time></trkpt><trkpt lat="45.887337364310326" lon="9.140920253603644"><ele>258.0</ele><time>2026-05-03T06:26:12.006Z</time></trkpt><trkpt lat="45.88748536622219" lon="9.141042642047791"><ele>258.0</ele><time>2026-05-03T06:26:13.006Z</time></trkpt><trkpt lat="45.88761532021543" lon="9.14121769021898"><ele>258.0</ele><time>2026-05-03T06:26:14.006Z</time></trkpt><trkpt lat="45.88773746242606" lon="9.141416620658465"><ele>259.6666666666667</ele><time>2026-05-03T06:26:15.006Z</time></trkpt><trkpt lat="45.887841568046824" lon="9.14159941867"><ele>261.33333333333337</ele><time>2026-05-03T06:26:16.006Z</time></trkpt><trkpt lat="45.88795520107615" lon="9.141792726443322"><ele>263.0</ele><time>2026-05-03T06:26:17.006Z</time></trkpt><trkpt lat="45.88806965841372" lon="9.141970381353145"><ele>263.0</ele><time>2026-05-03T06:26:18.006Z</time></trkpt><trkpt lat="45.888183766192576" lon="9.142140548114975"><ele>263.0</ele><time>2026-05-03T06:26:19.006Z</time></trkpt><trkpt lat="45.888288909271786" lon="9.142343785842103"><ele>263.0</ele><time>2026-05-03T06:26:20.006Z</time></trkpt><trkpt lat="45.88839716385677" lon="9.142517257412331"><ele>255.66666666666669</ele><time>2026-05-03T06:26:21.006Z</time></trkpt><trkpt lat="45.88850523553075" lon="9.142690435871442"><ele>248.33333333333331</ele><time>2026-05-03T06:26:22.006Z</time></trkpt><trkpt lat="45.8887202359194" lon="9.142698758441398"><ele>241.0</ele><time>2026-05-03T06:26:23.006Z</time></trkpt><trkpt lat="45.88889070597308" lon="9.142725329518093"><ele>241.0</ele><time>2026-05-03T06:26:24.006Z</time></trkpt><trkpt lat="45.8890700346111" lon="9.14274791348494"><ele>241.0</ele><time>2026-05-03T06:26:25.006Z</time></trkpt><trkpt lat="45.88927563090549" lon="9.142751443296108"><ele>241.0</ele><time>2026-05-03T06:26:26.006Z</time></trkpt><trkpt lat="45.889493649459574" lon="9.142780258316186"><ele>245.0</ele><time>2026-05-03T06:26:27.006Z</time></trkpt><trkpt lat="45.88971947372402" lon="9.142828452965725"><ele>249.0</ele><time>2026-05-03T06:26:28.006Z</time></trkpt><trkpt lat="45.88995477665751" lon="9.142887990608946"><ele>253.5</ele><time>2026-05-03T06:26:29.006Z</time></trkpt><trkpt lat="45.89018669911056" lon="9.14300348640682"><ele>258.0</ele><time>2026-05-03T06:26:30.006Z</time></trkpt><trkpt lat="45.890397626395284" lon="9.1431469506085"><ele>247.0</ele><time>2026-05-03T06:26:31.006Z</time></trkpt><trkpt lat="45.89060312615114" lon="9.143310705457127"><ele>236.0</ele><time>2026-05-03T06:26:32.006Z</time></trkpt><trkpt lat="45.89081503319535" lon="9.143463251898709"><ele>238.0</ele><time>2026-05-03T06:26:33.006Z</time></trkpt><trkpt lat="45.89102967373748" lon="9.143606790188374"><ele>240.0</ele><time>2026-05-03T06:26:34.006Z</time></trkpt><trkpt lat="45.89124000023542" lon="9.143754261112962"><ele>240.0</ele><time>2026-05-03T06:26:35.006Z</time></trkpt><trkpt lat="45.89144086498539" lon="9.143889886709893"><ele>240.0</ele><time>2026-05-03T06:26:36.006Z</time></trkpt><trkpt lat="45.89163588446503" lon="9.14397428781828"><ele>240.0</ele><time>2026-05-03T06:26:37.006Z</time></trkpt><trkpt lat="45.891834280505634" lon="9.14399624816412"><ele>237.66666666666669</ele><time>2026-05-03T06:26:38.006Z</time></trkpt><trkpt lat="45.89202824652284" lon="9.143964188059385"><ele>235.33333333333334</ele><time>2026-05-03T06:26:39.006Z</time></trkpt><trkpt lat="45.892227639924776" lon="9.143883742524586"><ele>233.0</ele><time>2026-05-03T06:26:40.006Z</time></trkpt><trkpt lat="45.8924208417311" lon="9.143751596527672"><ele>228.33333333333334</ele><time>2026-05-03T06:26:41.006Z</time></trkpt><trkpt lat="45.89260689207346" lon="9.143585289967255"><ele>223.66666666666669</ele><time>2026-05-03T06:26:42.006Z</time></trkpt><trkpt lat="45.892795375137716" lon="9.143425447155678"><ele>219.0</ele><time>2026-05-03T06:26:43.006Z</time></trkpt><trkpt lat="45.892984397262026" lon="9.143262475755112"><ele>230.5</ele><time>2026-05-03T06:26:44.006Z</time></trkpt><trkpt lat="45.893185338570824" lon="9.143104084655521"><ele>242.0</ele><time>2026-05-03T06:26:45.006Z</time></trkpt><trkpt lat="45.89339535952971" lon="9.142955223804393"><ele>234.0</ele><time>2026-05-03T06:26:46.006Z</time></trkpt><trkpt lat="45.89360747047438" lon="9.142807600808181"><ele>226.0</ele><time>2026-05-03T06:26:47.006Z</time></trkpt><trkpt lat="45.89380887584596" lon="9.142655747019843"><ele>226.0</ele><time>2026-05-03T06:26:48.006Z</time></trkpt><trkpt lat="45.89401859299293" lon="9.142514636487403"><ele>226.0</ele><time>2026-05-03T06:26:49.006Z</time></trkpt><trkpt lat="45.89424382381962" lon="9.142389552249641"><ele>228.33333333333331</ele><time>2026-05-03T06:26:50.006Z</time></trkpt><trkpt lat="45.89447092947399" lon="9.142282103899719"><ele>230.66666666666669</ele><time>2026-05-03T06:26:51.006Z</time></trkpt><trkpt lat="45.89465521821727" lon="9.142152988324113"><ele>233.0</ele><time>2026-05-03T06:26:52.006Z</time></trkpt><trkpt lat="45.89484050349199" lon="9.142024326436456"><ele>233.0</ele><time>2026-05-03T06:26:53.006Z</time></trkpt><trkpt lat="45.89501310529827" lon="9.141878651996109"><ele>233.0</ele><time>2026-05-03T06:26:54.006Z</time></trkpt><trkpt lat="45.895179342033465" lon="9.141715624504126"><ele>233.0</ele><time>2026-05-03T06:26:55.006Z</time></trkpt><trkpt lat="45.89533497993082" lon="9.141533958670976"><ele>229.66666666666669</ele><time>2026-05-03T06:26:56.006Z</time></trkpt><trkpt lat="45.89548612988514" lon="9.14133534801831"><ele>226.33333333333331</ele><time>2026-05-03T06:26:57.006Z</time></trkpt><trkpt lat="45.89562199558436" lon="9.141110662108808"><ele>223.0</ele><time>2026-05-03T06:26:58.006Z</time></trkpt><trkpt lat="45.89574966462313" lon="9.140854408203813"><ele>216.5</ele><time>2026-05-03T06:26:59.006Z</time></trkpt><trkpt lat="45.895876022708634" lon="9.140583489376805"><ele>210.0</ele><time>2026-05-03T06:27:00.006Z</time></trkpt><trkpt lat="45.89600542105127" lon="9.140318732624504"><ele>210.0</ele><time>2026-05-03T06:27:01.006Z</time></trkpt><trkpt lat="45.89613558326767" lon="9.140088216940976"><ele>210.0</ele><time>2026-05-03T06:27:02.006Z</time></trkpt><trkpt lat="45.89625112339927" lon="9.139865517131279"><ele>210.0</ele><time>2026-05-03T06:27:03.006Z</time></trkpt><trkpt lat="45.89637263090929" lon="9.139660109276075"><ele>210.33333333333331</ele><time>2026-05-03T06:27:04.006Z</time></trkpt><trkpt lat="45.89650249333785" lon="9.139466517052382"><ele>210.66666666666666</ele><time>2026-05-03T06:27:05.006Z</time></trkpt><trkpt lat="45.896633945018934" lon="9.139286296120595"><ele>211.0</ele><time>2026-05-03T06:27:06.006Z</time></trkpt><trkpt lat="45.8967681726065" lon="9.139105214261981"><ele>219.0</ele><time>2026-05-03T06:27:07.006Z</time></trkpt><trkpt lat="45.896919049078605" lon="9.138945872417997"><ele>227.0</ele><time>2026-05-03T06:27:08.006Z</time></trkpt><trkpt lat="45.89708540461487" lon="9.13881494481954"><ele>235.0</ele><time>2026-05-03T06:27:09.006Z</time></trkpt><trkpt lat="45.89726525877956" lon="9.138707725415893"><ele>235.0</ele><time>2026-05-03T06:27:10.006Z</time></trkpt><trkpt lat="45.89742281568545" lon="9.138578476811876"><ele>235.0</ele><time>2026-05-03T06:27:11.006Z</time></trkpt><trkpt lat="45.897574079014454" lon="9.138461987195093"><ele>235.0</ele><time>2026-05-03T06:27:12.006Z</time></trkpt><trkpt lat="45.897703224389296" lon="9.138330278028823"><ele>233.5</ele><time>2026-05-03T06:27:13.006Z</time></trkpt><trkpt lat="45.89781943300826" lon="9.138202929652785"><ele>232.0</ele><time>2026-05-03T06:27:14.006Z</time></trkpt><trkpt lat="45.89792684505939" lon="9.13806522442548"><ele>230.5</ele><time>2026-05-03T06:27:15.006Z</time></trkpt><trkpt lat="45.89802292410733" lon="9.137930717993466"><ele>229.0</ele><time>2026-05-03T06:27:16.006Z</time></trkpt><trkpt lat="45.898119250168115" lon="9.137798923463862"><ele>229.0</ele><time>2026-05-03T06:27:17.006Z</time></trkpt><trkpt lat="45.898222916185496" lon="9.137673816283673"><ele>229.0</ele><time>2026-05-03T06:27:18.006Z</time></trkpt><trkpt lat="45.89832770001327" lon="9.137541082061938"><ele>229.0</ele><time>2026-05-03T06:27:19.006Z</time></trkpt><trkpt lat="45.89844877621361" lon="9.137437510540062"><ele>229.0</ele><time>2026-05-03T06:27:20.006Z</time></trkpt><trkpt lat="45.89856848031824" lon="9.137341259714736"><ele>230.25</ele><time>2026-05-03T06:27:21.006Z</time></trkpt><trkpt lat="45.89869054908721" lon="9.137256213185621"><ele>231.5</ele><time>2026-05-03T06:27:22.006Z</time></trkpt><trkpt lat="45.89882239550688" lon="9.137179806281374"><ele>232.75</ele><time>2026-05-03T06:27:23.006Z</time></trkpt><trkpt lat="45.8989518824321" lon="9.137103963408672"><ele>234.0</ele><time>2026-05-03T06:27:24.006Z</time></trkpt><trkpt lat="45.899081697298094" lon="9.137032895231995"><ele>234.0</ele><time>2026-05-03T06:27:25.006Z</time></trkpt><trkpt lat="45.89921720686134" lon="9.136987243079908"><ele>234.0</ele><time>2026-05-03T06:27:26.006Z</time></trkpt><trkpt lat="45.89935210060929" lon="9.136955396670558"><ele>234.0</ele><time>2026-05-03T06:27:27.006Z</time></trkpt><trkpt lat="45.8994916976545" lon="9.136967347717308"><ele>234.0</ele><time>2026-05-03T06:27:28.006Z</time></trkpt><trkpt lat="45.89962358454146" lon="9.136935137907711"><ele>231.25</ele><time>2026-05-03T06:27:29.006Z</time></trkpt><trkpt lat="45.899751933719614" lon="9.13690332024693"><ele>228.5</ele><time>2026-05-03T06:27:30.006Z</time></trkpt><trkpt lat="45.89988284095218" lon="9.136847523601558"><ele>225.75</ele><time>2026-05-03T06:27:31.006Z</time></trkpt><trkpt lat="45.900006792346986" lon="9.136761297569025"><ele>223.0</ele><time>2026-05-03T06:27:32.006Z</time></trkpt><trkpt lat="45.90024598310759" lon="9.136571282785875"><ele>225.5</ele><time>2026-05-03T06:27:34.006Z</time></trkpt><trkpt lat="45.900368585611915" lon="9.136473251193745"><ele>228.0</ele><time>2026-05-03T06:27:35.006Z</time></trkpt><trkpt lat="45.9004961006146" lon="9.136371362908571"><ele>230.5</ele><time>2026-05-03T06:27:36.006Z</time></trkpt><trkpt lat="45.90063056682233" lon="9.136264369042113"><ele>233.0</ele><time>2026-05-03T06:27:37.006Z</time></trkpt><trkpt lat="45.900763716807894" lon="9.136158638481973"><ele>233.0</ele><time>2026-05-03T06:27:38.006Z</time></trkpt><trkpt lat="45.900909900985894" lon="9.136042651176558"><ele>233.0</ele><time>2026-05-03T06:27:39.006Z</time></trkpt><trkpt lat="45.90106055353504" lon="9.135923118520605"><ele>233.0</ele><time>2026-05-03T06:27:40.006Z</time></trkpt><trkpt lat="45.90123372871125" lon="9.135784742353842"><ele>235.5</ele><time>2026-05-03T06:27:41.006Z</time></trkpt><trkpt lat="45.90143414735623" lon="9.135624290753812"><ele>238.0</ele><time>2026-05-03T06:27:42.006Z</time></trkpt><trkpt lat="45.9016520064786" lon="9.135420575756665"><ele>224.5</ele><time>2026-05-03T06:27:43.006Z</time></trkpt><trkpt lat="45.90190309026167" lon="9.135244882591472"><ele>211.0</ele><time>2026-05-03T06:27:44.006Z</time></trkpt><trkpt lat="45.902157486747186" lon="9.135043892498594"><ele>217.0</ele><time>2026-05-03T06:27:45.006Z</time></trkpt><trkpt lat="45.90239324235248" lon="9.13483048361384"><ele>223.0</ele><time>2026-05-03T06:27:46.006Z</time></trkpt><trkpt lat="45.90263477770638" lon="9.1346607001472"><ele>223.0</ele><time>2026-05-03T06:27:47.006Z</time></trkpt><trkpt lat="45.902860440744675" lon="9.134454655332958"><ele>223.0</ele><time>2026-05-03T06:27:48.006Z</time></trkpt><trkpt lat="45.90308644441367" lon="9.134290432641073"><ele>223.0</ele><time>2026-05-03T06:27:49.006Z</time></trkpt><trkpt lat="45.903310694987645" lon="9.134166412978788"><ele>223.0</ele><time>2026-05-03T06:27:50.006Z</time></trkpt><trkpt lat="45.903540340224524" lon="9.134054270720197"><ele>228.5</ele><time>2026-05-03T06:27:51.006Z</time></trkpt><trkpt lat="45.90375763262301" lon="9.13390915284398"><ele>234.0</ele><time>2026-05-03T06:27:52.006Z</time></trkpt><trkpt lat="45.903955328752254" lon="9.133729254009822"><ele>234.0</ele><time>2026-05-03T06:27:53.006Z</time></trkpt><trkpt lat="45.904145619486314" lon="9.133509325298062"><ele>234.0</ele><time>2026-05-03T06:27:54.006Z</time></trkpt><trkpt lat="45.904343740247946" lon="9.133310564272277"><ele>236.0</ele><time>2026-05-03T06:27:55.006Z</time></trkpt><trkpt lat="45.90454318543199" lon="9.133118154814017"><ele>238.0</ele><time>2026-05-03T06:27:56.006Z</time></trkpt><trkpt lat="45.904750287342374" lon="9.13298063699733"><ele>238.0</ele><time>2026-05-03T06:27:57.006Z</time></trkpt><trkpt lat="45.90495935272025" lon="9.13284094976221"><ele>238.0</ele><time>2026-05-03T06:27:58.006Z</time></trkpt><trkpt lat="45.9051537431935" lon="9.13267282605187"><ele>233.0</ele><time>2026-05-03T06:27:59.006Z</time></trkpt><trkpt lat="45.905330798823826" lon="9.132461172763037"><ele>228.0</ele><time>2026-05-03T06:28:00.006Z</time></trkpt><trkpt lat="45.90551121688445" lon="9.132239731272726"><ele>228.0</ele><time>2026-05-03T06:28:01.006Z</time></trkpt><trkpt lat="45.905689713825275" lon="9.132055419536611"><ele>228.0</ele><time>2026-05-03T06:28:02.006Z</time></trkpt><trkpt lat="45.905851284253814" lon="9.131887225487004"><ele>228.0</ele><time>2026-05-03T06:28:03.006Z</time></trkpt><trkpt lat="45.9060232446731" lon="9.131769067812108"><ele>224.0</ele><time>2026-05-03T06:28:04.006Z</time></trkpt><trkpt lat="45.906216282433014" lon="9.131694240690296"><ele>220.0</ele><time>2026-05-03T06:28:05.006Z</time></trkpt><trkpt lat="45.90644187724538" lon="9.131609252636538"><ele>216.0</ele><time>2026-05-03T06:28:06.006Z</time></trkpt><trkpt lat="45.906655816019345" lon="9.13152865574358"><ele>233.5</ele><time>2026-05-03T06:28:07.006Z</time></trkpt><trkpt lat="45.90688338333983" lon="9.131449794234182"><ele>251.0</ele><time>2026-05-03T06:28:08.006Z</time></trkpt><trkpt lat="45.90710488738642" lon="9.131376489635137"><ele>251.0</ele><time>2026-05-03T06:28:09.006Z</time></trkpt><trkpt lat="45.90733325243037" lon="9.131304766615218"><ele>251.0</ele><time>2026-05-03T06:28:10.006Z</time></trkpt><trkpt lat="45.9075508592512" lon="9.131256831615483"><ele>249.66666666666669</ele><time>2026-05-03T06:28:11.006Z</time></trkpt><trkpt lat="45.90774369859602" lon="9.131204514173817"><ele>248.33333333333331</ele><time>2026-05-03T06:28:12.006Z</time></trkpt><trkpt lat="45.90791940696001" lon="9.131187337275207"><ele>247.0</ele><time>2026-05-03T06:28:13.006Z</time></trkpt><trkpt lat="45.908069855303005" lon="9.131160160768442"><ele>247.0</ele><time>2026-05-03T06:28:14.006Z</time></trkpt><trkpt lat="45.9082157405653" lon="9.131135041142356"><ele>247.0</ele><time>2026-05-03T06:28:15.006Z</time></trkpt><trkpt lat="45.90835975462184" lon="9.131110155969276"><ele>247.0</ele><time>2026-05-03T06:28:16.006Z</time></trkpt><trkpt lat="45.90849424465693" lon="9.131080833219691"><ele>247.0</ele><time>2026-05-03T06:28:17.006Z</time></trkpt><trkpt lat="45.908630446302574" lon="9.131025712618525"><ele>244.5</ele><time>2026-05-03T06:28:18.006Z</time></trkpt><trkpt lat="45.90877693475198" lon="9.131001460970477"><ele>242.0</ele><time>2026-05-03T06:28:19.006Z</time></trkpt><trkpt lat="45.90891639623003" lon="9.130930096672675"><ele>239.5</ele><time>2026-05-03T06:28:20.006Z</time></trkpt><trkpt lat="45.909041551459445" lon="9.130818500470953"><ele>237.0</ele><time>2026-05-03T06:28:21.006Z</time></trkpt><trkpt lat="45.9091746591669" lon="9.130718176251863"><ele>253.0</ele><time>2026-05-03T06:28:22.006Z</time></trkpt><trkpt lat="45.909302910526776" lon="9.130598297007806"><ele>269.0</ele><time>2026-05-03T06:28:23.006Z</time></trkpt><trkpt lat="45.909436694644675" lon="9.13047585585356"><ele>285.0</ele><time>2026-05-03T06:28:24.006Z</time></trkpt><trkpt lat="45.9095687536817" lon="9.130355179150472"><ele>285.0</ele><time>2026-05-03T06:28:25.006Z</time></trkpt><trkpt lat="45.909701627621466" lon="9.130233447518187"><ele>285.0</ele><time>2026-05-03T06:28:26.006Z</time></trkpt><trkpt lat="45.90984127031324" lon="9.130152147660223"><ele>285.0</ele><time>2026-05-03T06:28:27.006Z</time></trkpt><trkpt lat="45.909991616065305" lon="9.130055021861171"><ele>285.3333333333333</ele><time>2026-05-03T06:28:28.006Z</time></trkpt><trkpt lat="45.91015325730907" lon="9.12995689403248"><ele>285.66666666666663</ele><time>2026-05-03T06:28:29.006Z</time></trkpt><trkpt lat="45.91033238867629" lon="9.129891619955426"><ele>286.0</ele><time>2026-05-03T06:28:30.143Z</time></trkpt><trkpt lat="45.91048672001701" lon="9.129843538808412"><ele>308.0</ele><time>2026-05-03T06:28:31.144Z</time></trkpt><trkpt lat="45.91248222266031" lon="9.130132588974085"><ele>324.0</ele><time>2026-05-03T06:28:34.455Z</time></trkpt><trkpt lat="45.9130986937653" lon="9.130312521456258"><ele>336.0</ele><time>2026-05-03T06:28:35.454Z</time></trkpt><trkpt lat="45.913716339942134" lon="9.130491595955446"><ele>356.0</ele><time>2026-05-03T06:28:36.454Z</time></trkpt><trkpt lat="45.914333817684884" lon="9.130670621620444"><ele>299.0</ele><time>2026-05-03T06:28:37.455Z</time></trkpt><trkpt lat="45.91495075164087" lon="9.130849489625044"><ele>302.0</ele><time>2026-05-03T06:28:38.454Z</time></trkpt><trkpt lat="45.91556836021622" lon="9.13102855322241"><ele>317.0</ele><time>2026-05-03T06:28:39.455Z</time></trkpt><trkpt lat="45.91618534066327" lon="9.13120952411357"><ele>326.0</ele><time>2026-05-03T06:28:40.455Z</time></trkpt><trkpt lat="45.91680272934041" lon="9.131387580957313"><ele>270.0</ele><time>2026-05-03T06:28:41.455Z</time></trkpt><trkpt lat="45.917417042227044" lon="9.13156475073336"><ele>259.0</ele><time>2026-05-03T06:28:42.45Z</time></trkpt><trkpt lat="45.9180375512223" lon="9.131743707486699"><ele>236.0</ele><time>2026-05-03T06:28:43.455Z</time></trkpt><trkpt lat="45.91865662086296" lon="9.131886651915986"><ele>236.0</ele><time>2026-05-03T06:28:44.451Z</time></trkpt><trkpt lat="45.9189722" lon="9.1318813"><ele>236.0</ele><time>2026-05-03T06:28:45.455Z</time></trkpt><trkpt lat="45.920006424347314" lon="9.131610554148688"><ele>246.0</ele><time>2026-05-03T06:29:11.006Z</time></trkpt><trkpt lat="45.920301967368445" lon="9.13146896637212"><ele>256.0</ele><time>2026-05-03T06:29:12.006Z</time></trkpt><trkpt lat="45.920538076284615" lon="9.13145177551534"><ele>256.0</ele><time>2026-05-03T06:29:13.007Z</time></trkpt><trkpt lat="45.92076011300983" lon="9.13146392835442"><ele>256.0</ele><time>2026-05-03T06:29:14.007Z</time></trkpt><trkpt lat="45.92099902006369" lon="9.131485970965901"><ele>254.0</ele><time>2026-05-03T06:29:15.007Z</time></trkpt><trkpt lat="45.92122981695881" lon="9.131446716787433"><ele>252.0</ele><time>2026-05-03T06:29:16.007Z</time></trkpt><trkpt lat="45.921447775834245" lon="9.131379266395205"><ele>252.0</ele><time>2026-05-03T06:29:17.007Z</time></trkpt><trkpt lat="45.92166395703211" lon="9.131254505084625"><ele>252.0</ele><time>2026-05-03T06:29:18.006Z</time></trkpt><trkpt lat="45.921880736460736" lon="9.13123044562838"><ele>254.66666666666669</ele><time>2026-05-03T06:29:19.006Z</time></trkpt><trkpt lat="45.92207743595145" lon="9.131260114960243"><ele>257.33333333333337</ele><time>2026-05-03T06:29:20.007Z</time></trkpt><trkpt lat="45.92230691056462" lon="9.131311081136515"><ele>260.0</ele><time>2026-05-03T06:29:21.006Z</time></trkpt><trkpt lat="45.92254346403077" lon="9.13136518586396"><ele>258.0</ele><time>2026-05-03T06:29:22.006Z</time></trkpt><trkpt lat="45.92277832194827" lon="9.131416277747938"><ele>256.0</ele><time>2026-05-03T06:29:23.007Z</time></trkpt><trkpt lat="45.92303152083981" lon="9.13146451955519"><ele>256.0</ele><time>2026-05-03T06:29:24.006Z</time></trkpt><trkpt lat="45.92327334873918" lon="9.131473221517993"><ele>256.0</ele><time>2026-05-03T06:29:25.006Z</time></trkpt><trkpt lat="45.9235072194" lon="9.131402160754883"><ele>253.5</ele><time>2026-05-03T06:29:26.006Z</time></trkpt><trkpt lat="45.923734009819654" lon="9.131332517522106"><ele>251.0</ele><time>2026-05-03T06:29:27.006Z</time></trkpt><trkpt lat="45.92396867400192" lon="9.13121528152843"><ele>251.0</ele><time>2026-05-03T06:29:28.006Z</time></trkpt><trkpt lat="45.9241996808029" lon="9.131096779618431"><ele>251.0</ele><time>2026-05-03T06:29:29.007Z</time></trkpt><trkpt lat="45.92441639243756" lon="9.130970335661587"><ele>245.66666666666669</ele><time>2026-05-03T06:29:30.007Z</time></trkpt><trkpt lat="45.924622078446234" lon="9.130892272085651"><ele>240.33333333333331</ele><time>2026-05-03T06:29:31.007Z</time></trkpt><trkpt lat="45.92479676898604" lon="9.13086456555317"><ele>235.0</ele><time>2026-05-03T06:29:32.007Z</time></trkpt><trkpt lat="45.92496956717227" lon="9.130910747939739"><ele>233.66666666666666</ele><time>2026-05-03T06:29:33.007Z</time></trkpt><trkpt lat="45.925171500795635" lon="9.130982115458085"><ele>232.33333333333331</ele><time>2026-05-03T06:29:34.007Z</time></trkpt><trkpt lat="45.92538853655006" lon="9.131035675505359"><ele>231.0</ele><time>2026-05-03T06:29:35.007Z</time></trkpt><trkpt lat="45.92558717151376" lon="9.13104206272934"><ele>231.0</ele><time>2026-05-03T06:29:36.007Z</time></trkpt><trkpt lat="45.9258019671579" lon="9.131010571421518"><ele>231.0</ele><time>2026-05-03T06:29:37.007Z</time></trkpt><trkpt lat="45.92602548839386" lon="9.130956745784031"><ele>231.0</ele><time>2026-05-03T06:29:38.007Z</time></trkpt><trkpt lat="45.92624984014899" lon="9.130903826234633"><ele>228.66666666666669</ele><time>2026-05-03T06:29:39.007Z</time></trkpt><trkpt lat="45.92646802450828" lon="9.130871874155877"><ele>226.33333333333334</ele><time>2026-05-03T06:29:40.007Z</time></trkpt><trkpt lat="45.92668518798287" lon="9.130845733717416"><ele>224.0</ele><time>2026-05-03T06:29:41.007Z</time></trkpt><trkpt lat="45.92690252308844" lon="9.130781057913428"><ele>237.5</ele><time>2026-05-03T06:29:42.007Z</time></trkpt><trkpt lat="45.92710790548748" lon="9.130644042783619"><ele>251.0</ele><time>2026-05-03T06:29:43.007Z</time></trkpt><trkpt lat="45.92733749892814" lon="9.130482979954015"><ele>235.5</ele><time>2026-05-03T06:29:44.007Z</time></trkpt><trkpt lat="45.92756503443419" lon="9.130349882276343"><ele>220.0</ele><time>2026-05-03T06:29:45.007Z</time></trkpt><trkpt lat="45.92781320109006" lon="9.130250655385185"><ele>220.0</ele><time>2026-05-03T06:29:46.007Z</time></trkpt><trkpt lat="45.928058292713494" lon="9.130146767367497"><ele>220.0</ele><time>2026-05-03T06:29:47.007Z</time></trkpt><trkpt lat="45.928301764751666" lon="9.130049586153914"><ele>215.5</ele><time>2026-05-03T06:29:48.007Z</time></trkpt><trkpt lat="45.92854068467307" lon="9.129950634396868"><ele>211.0</ele><time>2026-05-03T06:29:49.007Z</time></trkpt><trkpt lat="45.92875365567195" lon="9.129858412500527"><ele>212.75</ele><time>2026-05-03T06:29:50.007Z</time></trkpt><trkpt lat="45.92890669501135" lon="9.129792941272528"><ele>214.5</ele><time>2026-05-03T06:29:51.007Z</time></trkpt><trkpt lat="45.929050727709395" lon="9.12974635329736"><ele>216.25</ele><time>2026-05-03T06:29:52.007Z</time></trkpt><trkpt lat="45.92918065110999" lon="9.129669699995654"><ele>218.0</ele><time>2026-05-03T06:29:53.007Z</time></trkpt><trkpt lat="45.9293158403369" lon="9.12963682414901"><ele>218.0</ele><time>2026-05-03T06:29:54.007Z</time></trkpt><trkpt lat="45.92944914945031" lon="9.129561938824967"><ele>218.0</ele><time>2026-05-03T06:29:55.007Z</time></trkpt><trkpt lat="45.92958459612606" lon="9.12950792389649"><ele>218.0</ele><time>2026-05-03T06:29:56.007Z</time></trkpt><trkpt lat="45.92969410042824" lon="9.129417522951478"><ele>218.0</ele><time>2026-05-03T06:29:57.007Z</time></trkpt><trkpt lat="45.929798344500924" lon="9.129304046949372"><ele>218.0</ele><time>2026-05-03T06:29:58.007Z</time></trkpt><trkpt lat="45.92990822330904" lon="9.129151287394652"><ele>218.0</ele><time>2026-05-03T06:29:59.007Z</time></trkpt><trkpt lat="45.92999380210639" lon="9.128978944682467"><ele>218.0</ele><time>2026-05-03T06:30:00.007Z</time></trkpt><trkpt lat="45.93009469782177" lon="9.128813866344892"><ele>223.25</ele><time>2026-05-03T06:30:01.007Z</time></trkpt><trkpt lat="45.930209647541005" lon="9.128701201313266"><ele>228.5</ele><time>2026-05-03T06:30:02.007Z</time></trkpt><trkpt lat="45.9303329110183" lon="9.128616405661884"><ele>233.75</ele><time>2026-05-03T06:30:03.007Z</time></trkpt><trkpt lat="45.93048225699811" lon="9.128568236482218"><ele>239.0</ele><time>2026-05-03T06:30:04.007Z</time></trkpt><trkpt lat="45.93067080353469" lon="9.128523565691099"><ele>239.0</ele><time>2026-05-03T06:30:05.007Z</time></trkpt><trkpt lat="45.93086959281832" lon="9.12847593075587"><ele>239.0</ele><time>2026-05-03T06:30:06.007Z</time></trkpt><trkpt lat="45.93110304131472" lon="9.128419229966998"><ele>239.0</ele><time>2026-05-03T06:30:07.007Z</time></trkpt><trkpt lat="45.93136736560472" lon="9.128357255865776"><ele>234.0</ele><time>2026-05-03T06:30:08.007Z</time></trkpt><trkpt lat="45.93159783603121" lon="9.128319255704932"><ele>229.0</ele><time>2026-05-03T06:30:09.007Z</time></trkpt><trkpt lat="45.93181237848002" lon="9.128287525191164"><ele>224.0</ele><time>2026-05-03T06:30:10.007Z</time></trkpt><trkpt lat="45.9320276283302" lon="9.128275504182238"><ele>224.0</ele><time>2026-05-03T06:30:11.007Z</time></trkpt><trkpt lat="45.93224972011107" lon="9.128344745595413"><ele>224.0</ele><time>2026-05-03T06:30:12.007Z</time></trkpt><trkpt lat="45.93247540604109" lon="9.1284092409057"><ele>224.5</ele><time>2026-05-03T06:30:13.007Z</time></trkpt><trkpt lat="45.932699937196695" lon="9.128471115439439"><ele>225.0</ele><time>2026-05-03T06:30:14.007Z</time></trkpt><trkpt lat="45.9329294401972" lon="9.12853204238692"><ele>225.0</ele><time>2026-05-03T06:30:15.007Z</time></trkpt><trkpt lat="45.93314931170838" lon="9.128555359542213"><ele>225.0</ele><time>2026-05-03T06:30:16.007Z</time></trkpt><trkpt lat="45.93337106610499" lon="9.128536067972549"><ele>225.0</ele><time>2026-05-03T06:30:17.007Z</time></trkpt><trkpt lat="45.933604313174" lon="9.12845917862583"><ele>222.0</ele><time>2026-05-03T06:30:18.007Z</time></trkpt><trkpt lat="45.93383228743724" lon="9.128374207985098"><ele>219.0</ele><time>2026-05-03T06:30:19.007Z</time></trkpt><trkpt lat="45.93404156935463" lon="9.12830316307923"><ele>216.66666666666669</ele><time>2026-05-03T06:30:20.007Z</time></trkpt><trkpt lat="45.93423710777326" lon="9.128244896884382"><ele>214.33333333333334</ele><time>2026-05-03T06:30:21.007Z</time></trkpt><trkpt lat="45.93442087226267" lon="9.128194604425042"><ele>212.0</ele><time>2026-05-03T06:30:22.007Z</time></trkpt><trkpt lat="45.93460203851025" lon="9.128162461623196"><ele>233.66666666666669</ele><time>2026-05-03T06:30:23.007Z</time></trkpt><trkpt lat="45.93478194380319" lon="9.128137101388193"><ele>255.33333333333331</ele><time>2026-05-03T06:30:24.007Z</time></trkpt><trkpt lat="45.934972157201095" lon="9.128152430761078"><ele>277.0</ele><time>2026-05-03T06:30:25.007Z</time></trkpt><trkpt lat="45.93515126343052" lon="9.128174026910882"><ele>280.3333333333333</ele><time>2026-05-03T06:30:26.007Z</time></trkpt><trkpt lat="45.935336318778035" lon="9.128205015841798"><ele>283.6666666666667</ele><time>2026-05-03T06:30:27.007Z</time></trkpt><trkpt lat="45.93550847098888" lon="9.128235170605034"><ele>287.0</ele><time>2026-05-03T06:30:28.007Z</time></trkpt><trkpt lat="45.935689112922844" lon="9.12826834869419"><ele>269.6666666666667</ele><time>2026-05-03T06:30:29.007Z</time></trkpt><trkpt lat="45.93586789547858" lon="9.128302147532656"><ele>252.33333333333331</ele><time>2026-05-03T06:30:30.007Z</time></trkpt><trkpt lat="45.93604237633808" lon="9.12833710791362"><ele>235.0</ele><time>2026-05-03T06:30:31.007Z</time></trkpt><trkpt lat="45.93621402912919" lon="9.128369460011346"><ele>235.0</ele><time>2026-05-03T06:30:32.007Z</time></trkpt><trkpt lat="45.936374577893424" lon="9.128394804690068"><ele>235.0</ele><time>2026-05-03T06:30:33.007Z</time></trkpt><trkpt lat="45.93652569709464" lon="9.128414413930873"><ele>235.0</ele><time>2026-05-03T06:30:34.007Z</time></trkpt><trkpt lat="45.936660914562324" lon="9.128425489561911"><ele>235.0</ele><time>2026-05-03T06:30:35.007Z</time></trkpt><trkpt lat="45.93679154057888" lon="9.128420105512953"><ele>230.75</ele><time>2026-05-03T06:30:36.007Z</time></trkpt><trkpt lat="45.93691485150533" lon="9.128398096549848"><ele>226.5</ele><time>2026-05-03T06:30:37.007Z</time></trkpt><trkpt lat="45.93704126522612" lon="9.128362476072523"><ele>222.25</ele><time>2026-05-03T06:30:38.007Z</time></trkpt><trkpt lat="45.93716589973005" lon="9.128319344161367"><ele>218.0</ele><time>2026-05-03T06:30:39.007Z</time></trkpt><trkpt lat="45.93729598311454" lon="9.128269009836396"><ele>226.25</ele><time>2026-05-03T06:30:40.007Z</time></trkpt><trkpt lat="45.93741936094488" lon="9.128221270173995"><ele>234.5</ele><time>2026-05-03T06:30:41.007Z</time></trkpt><trkpt lat="45.93753757074435" lon="9.128176043789601"><ele>242.75</ele><time>2026-05-03T06:30:42.007Z</time></trkpt><trkpt lat="45.9376461893704" lon="9.128138031330433"><ele>251.0</ele><time>2026-05-03T06:30:43.007Z</time></trkpt><trkpt lat="45.937742741078374" lon="9.128092915583943"><ele>251.0</ele><time>2026-05-03T06:30:44.007Z</time></trkpt><trkpt lat="45.937842685041" lon="9.1280699553801"><ele>251.00000000000003</ele><time>2026-05-03T06:30:45.007Z</time></trkpt><trkpt lat="45.93794850776642" lon="9.128078722641252"><ele>251.00000000000003</ele><time>2026-05-03T06:30:46.008Z</time></trkpt><trkpt lat="45.93805670644261" lon="9.128071163065119"><ele>251.0</ele><time>2026-05-03T06:30:47.008Z</time></trkpt><trkpt lat="45.93815080728457" lon="9.128062538875106"><ele>251.0</ele><time>2026-05-03T06:30:48.008Z</time></trkpt><trkpt lat="45.93822750454099" lon="9.128048818207175"><ele>251.00000000000003</ele><time>2026-05-03T06:30:49.008Z</time></trkpt><trkpt lat="45.938298773843" lon="9.128041500702901"><ele>251.0</ele><time>2026-05-03T06:30:50.008Z</time></trkpt><trkpt lat="45.93836811352353" lon="9.128024061502153"><ele>251.0</ele><time>2026-05-03T06:30:51.008Z</time></trkpt><trkpt lat="45.93843747135808" lon="9.128010686783728"><ele>251.0</ele><time>2026-05-03T06:30:52.008Z</time></trkpt><trkpt lat="45.93850211507928" lon="9.128003542859796"><ele>251.00000000000003</ele><time>2026-05-03T06:30:53.008Z</time></trkpt><trkpt lat="45.93862144919898" lon="9.127980175288483"><ele>251.0</ele><time>2026-05-03T06:30:55.008Z</time></trkpt><trkpt lat="45.93869636967096" lon="9.127968551698265"><ele>252.4</ele><time>2026-05-03T06:30:56.008Z</time></trkpt><trkpt lat="45.938795496154256" lon="9.127951191388858"><ele>253.8</ele><time>2026-05-03T06:30:57.008Z</time></trkpt><trkpt lat="45.93889677066837" lon="9.12793914160084"><ele>255.20000000000002</ele><time>2026-05-03T06:30:58.008Z</time></trkpt><trkpt lat="45.93900238705764" lon="9.127925100773428"><ele>256.6</ele><time>2026-05-03T06:30:59.008Z</time></trkpt><trkpt lat="45.93910058307974" lon="9.127901898223783"><ele>258.0</ele><time>2026-05-03T06:31:00.008Z</time></trkpt><trkpt lat="45.93919298146837" lon="9.12788460414934"><ele>256.5</ele><time>2026-05-03T06:31:01.008Z</time></trkpt><trkpt lat="45.93927432610285" lon="9.127867923771547"><ele>255.0</ele><time>2026-05-03T06:31:02.008Z</time></trkpt><trkpt lat="45.939353207584574" lon="9.127868840481725"><ele>253.5</ele><time>2026-05-03T06:31:03.008Z</time></trkpt><trkpt lat="45.93942891522444" lon="9.12786885376488"><ele>252.0</ele><time>2026-05-03T06:31:04.008Z</time></trkpt><trkpt lat="45.9395097465403" lon="9.127878442821077"><ele>250.5</ele><time>2026-05-03T06:31:05.008Z</time></trkpt><trkpt lat="45.93959268966296" lon="9.12791335374849"><ele>249.0</ele><time>2026-05-03T06:31:06.008Z</time></trkpt><trkpt lat="45.9396670769855" lon="9.127982783104741"><ele>249.0</ele><time>2026-05-03T06:31:07.008Z</time></trkpt><trkpt lat="45.93973870429473" lon="9.128050004078888"><ele>249.0</ele><time>2026-05-03T06:31:08.008Z</time></trkpt><trkpt lat="45.93981660820137" lon="9.128115486762631"><ele>249.0</ele><time>2026-05-03T06:31:09.008Z</time></trkpt><trkpt lat="45.93989945625523" lon="9.128152412476686"><ele>249.0</ele><time>2026-05-03T06:31:10.008Z</time></trkpt><trkpt lat="45.93997889805568" lon="9.128174655251412"><ele>249.0</ele><time>2026-05-03T06:31:11.008Z</time></trkpt><trkpt lat="45.9400522709485" lon="9.128177588697412"><ele>249.0</ele><time>2026-05-03T06:31:12.008Z</time></trkpt><trkpt lat="45.94012004992313" lon="9.128169414786617"><ele>248.16666666666666</ele><time>2026-05-03T06:31:13.008Z</time></trkpt><trkpt lat="45.94018326336623" lon="9.12817798244296"><ele>247.33333333333331</ele><time>2026-05-03T06:31:14.008Z</time></trkpt><trkpt lat="45.940246289254276" lon="9.128177984252142"><ele>246.5</ele><time>2026-05-03T06:31:15.008Z</time></trkpt><trkpt lat="45.940306055350064" lon="9.128230375915269"><ele>245.66666666666666</ele><time>2026-05-03T06:31:16.008Z</time></trkpt><trkpt lat="45.940423108696685" lon="9.128247859742798"><ele>244.83333333333331</ele><time>2026-05-03T06:31:18.008Z</time></trkpt><trkpt lat="45.94053351731076" lon="9.128263497364598"><ele>244.0</ele><time>2026-05-03T06:31:20.008Z</time></trkpt><trkpt lat="45.94062986332086" lon="9.128274600953615"><ele>243.99999999999997</ele><time>2026-05-03T06:31:22.008Z</time></trkpt><trkpt lat="45.94069769084165" lon="9.128250798858119"><ele>244.0</ele><time>2026-05-03T06:31:23.007Z</time></trkpt><trkpt lat="45.940817180789935" lon="9.128225543327504"><ele>244.0</ele><time>2026-05-03T06:31:25.007Z</time></trkpt><trkpt lat="45.94091050246096" lon="9.128238818768157"><ele>244.0</ele><time>2026-05-03T06:31:26.007Z</time></trkpt><trkpt lat="45.94098245459299" lon="9.128221993083187"><ele>243.99999999999997</ele><time>2026-05-03T06:31:27.006Z</time></trkpt><trkpt lat="45.94105781661656" lon="9.128204069497098"><ele>244.0</ele><time>2026-05-03T06:31:28.006Z</time></trkpt><trkpt lat="45.941134671082196" lon="9.128174579644552"><ele>242.0</ele><time>2026-05-03T06:31:29.006Z</time></trkpt><trkpt lat="45.94121976380283" lon="9.128148582795776"><ele>239.99999999999997</ele><time>2026-05-03T06:31:30.007Z</time></trkpt><trkpt lat="45.94131331843114" lon="9.128127538683454"><ele>237.99999999999997</ele><time>2026-05-03T06:31:31.007Z</time></trkpt><trkpt lat="45.94141780346793" lon="9.128107847894407"><ele>236.0</ele><time>2026-05-03T06:31:32.007Z</time></trkpt><trkpt lat="45.94150722513008" lon="9.128086100839589"><ele>234.0</ele><time>2026-05-03T06:31:33.007Z</time></trkpt><trkpt lat="45.941582266521785" lon="9.12808987408861"><ele>234.0</ele><time>2026-05-03T06:31:34.007Z</time></trkpt><trkpt lat="45.94165257031737" lon="9.1281413043597"><ele>234.0</ele><time>2026-05-03T06:31:35.007Z</time></trkpt><trkpt lat="45.94172198222595" lon="9.128149275691376"><ele>234.0</ele><time>2026-05-03T06:31:36.007Z</time></trkpt><trkpt lat="45.94178791951722" lon="9.12815721828921"><ele>234.0</ele><time>2026-05-03T06:31:37.007Z</time></trkpt><trkpt lat="45.94190818998162" lon="9.128172620689678"><ele>234.0</ele><time>2026-05-03T06:31:39.007Z</time></trkpt><trkpt lat="45.94201660507727" lon="9.128177996155362"><ele>234.0</ele><time>2026-05-03T06:31:41.007Z</time></trkpt><trkpt lat="45.9421154002049" lon="9.12817939163872"><ele>232.0</ele><time>2026-05-03T06:31:43.007Z</time></trkpt><trkpt lat="45.94220012875251" lon="9.128173473959466"><ele>230.0</ele><time>2026-05-03T06:31:45.007Z</time></trkpt><trkpt lat="45.94227549740833" lon="9.128156244655605"><ele>228.0</ele><time>2026-05-03T06:31:47.007Z</time></trkpt><trkpt lat="45.94235702556609" lon="9.128141603414694"><ele>226.0</ele><time>2026-05-03T06:31:49.007Z</time></trkpt><trkpt lat="45.94242416949175" lon="9.128136436768676"><ele>224.0</ele><time>2026-05-03T06:31:51.007Z</time></trkpt><trkpt lat="45.94248840144391" lon="9.128124081441705"><ele>222.0</ele><time>2026-05-03T06:31:57.007Z</time></trkpt><trkpt lat="45.94256843916503" lon="9.128123236904369"><ele>220.39999999999998</ele><time>2026-05-03T06:31:59.007Z</time></trkpt><trkpt lat="45.94265513051847" lon="9.128101762753122"><ele>218.79999999999998</ele><time>2026-05-03T06:32:08.008Z</time></trkpt><trkpt lat="45.94278614838944" lon="9.12810662956818"><ele>217.2</ele><time>2026-05-03T06:32:10.008Z</time></trkpt><trkpt lat="45.94286910549162" lon="9.128203629778415"><ele>215.6</ele><time>2026-05-03T06:32:11.008Z</time></trkpt><trkpt lat="45.94295666933192" lon="9.128236630080131"><ele>214.0</ele><time>2026-05-03T06:32:12.008Z</time></trkpt><trkpt lat="45.94304915415584" lon="9.128279860433079"><ele>212.0</ele><time>2026-05-03T06:32:13.008Z</time></trkpt><trkpt lat="45.943154406172276" lon="9.12834345357864"><ele>210.0</ele><time>2026-05-03T06:32:14.008Z</time></trkpt><trkpt lat="45.943275193260476" lon="9.128426041871032"><ele>208.0</ele><time>2026-05-03T06:32:15.008Z</time></trkpt><trkpt lat="45.943402845694415" lon="9.128513726385698"><ele>206.0</ele><time>2026-05-03T06:32:16.008Z</time></trkpt><trkpt lat="45.943551450249515" lon="9.128533396892342"><ele>205.25</ele><time>2026-05-03T06:32:17.008Z</time></trkpt><trkpt lat="45.9436771695815" lon="9.128480192344973"><ele>204.5</ele><time>2026-05-03T06:32:18.008Z</time></trkpt><trkpt lat="45.943788882933944" lon="9.128396523231542"><ele>203.75</ele><time>2026-05-03T06:32:19.008Z</time></trkpt><trkpt lat="45.94388583713158" lon="9.128267423465944"><ele>203.0</ele><time>2026-05-03T06:32:20.008Z</time></trkpt><trkpt lat="45.94397183335145" lon="9.128119670003171"><ele>205.4</ele><time>2026-05-03T06:32:21.008Z</time></trkpt><trkpt lat="45.944057592881094" lon="9.127978212232597"><ele>207.8</ele><time>2026-05-03T06:32:22.008Z</time></trkpt><trkpt lat="45.94413439018619" lon="9.127853028831407"><ele>210.2</ele><time>2026-05-03T06:32:23.008Z</time></trkpt><trkpt lat="45.94420893891107" lon="9.127752298233773"><ele>212.6</ele><time>2026-05-03T06:32:24.008Z</time></trkpt><trkpt lat="45.944281208551665" lon="9.12768011379505"><ele>215.0</ele><time>2026-05-03T06:32:25.008Z</time></trkpt><trkpt lat="45.944364310854816" lon="9.127682355667702"><ele>218.8</ele><time>2026-05-03T06:32:26.008Z</time></trkpt><trkpt lat="45.944438009926344" lon="9.127693183090779"><ele>222.6</ele><time>2026-05-03T06:32:27.008Z</time></trkpt><trkpt lat="45.94453574292846" lon="9.127742985745481"><ele>226.39999999999998</ele><time>2026-05-03T06:32:28.008Z</time></trkpt><trkpt lat="45.944646433255016" lon="9.127817527541362"><ele>230.2</ele><time>2026-05-03T06:32:29.008Z</time></trkpt><trkpt lat="45.944781643224324" lon="9.127875262933545"><ele>234.0</ele><time>2026-05-03T06:32:30.008Z</time></trkpt><trkpt lat="45.94490304430252" lon="9.127983853456582"><ele>234.0</ele><time>2026-05-03T06:32:31.008Z</time></trkpt><trkpt lat="45.945006650261014" lon="9.128094951052347"><ele>234.0</ele><time>2026-05-03T06:32:32.008Z</time></trkpt><trkpt lat="45.945103800261094" lon="9.128174630854417"><ele>234.0</ele><time>2026-05-03T06:32:33.008Z</time></trkpt><trkpt lat="45.945212491776836" lon="9.128263943824628"><ele>234.0</ele><time>2026-05-03T06:32:34.008Z</time></trkpt><trkpt lat="45.9453257811773" lon="9.128345680914734"><ele>232.75</ele><time>2026-05-03T06:32:35.008Z</time></trkpt><trkpt lat="45.94542802245518" lon="9.128441520187126"><ele>231.5</ele><time>2026-05-03T06:32:36.008Z</time></trkpt><trkpt lat="45.94553156838394" lon="9.128558786666959"><ele>230.25</ele><time>2026-05-03T06:32:37.008Z</time></trkpt><trkpt lat="45.945635828011426" lon="9.12867579474258"><ele>229.0</ele><time>2026-05-03T06:32:38.008Z</time></trkpt><trkpt lat="45.94574704347521" lon="9.128818834932462"><ele>229.0</ele><time>2026-05-03T06:32:39.008Z</time></trkpt><trkpt lat="45.945816311227404" lon="9.129041362761981"><ele>229.0</ele><time>2026-05-03T06:32:40.008Z</time></trkpt><trkpt lat="45.94593933610913" lon="9.12923702041752"><ele>229.0</ele><time>2026-05-03T06:32:41.008Z</time></trkpt><trkpt lat="45.94609484352863" lon="9.129491133912643"><ele>226.0</ele><time>2026-05-03T06:32:42.008Z</time></trkpt><trkpt lat="45.94626472350596" lon="9.129780775550143"><ele>223.0</ele><time>2026-05-03T06:32:43.008Z</time></trkpt><trkpt lat="45.94643276634364" lon="9.130086173978698"><ele>223.0</ele><time>2026-05-03T06:32:44.008Z</time></trkpt><trkpt lat="45.94661098549598" lon="9.130409222431043"><ele>223.0</ele><time>2026-05-03T06:32:45.008Z</time></trkpt><trkpt lat="45.94678691044532" lon="9.130704805371105"><ele>245.0</ele><time>2026-05-03T06:32:46.008Z</time></trkpt><trkpt lat="45.94694056252179" lon="9.131002709175563"><ele>267.0</ele><time>2026-05-03T06:32:47.008Z</time></trkpt><trkpt lat="45.947094667477224" lon="9.13129048434521"><ele>257.0</ele><time>2026-05-03T06:32:48.008Z</time></trkpt><trkpt lat="45.94720570293408" lon="9.131590575257661"><ele>247.0</ele><time>2026-05-03T06:32:49.008Z</time></trkpt><trkpt lat="45.94727078288982" lon="9.13189366883433"><ele>247.0</ele><time>2026-05-03T06:32:50.008Z</time></trkpt><trkpt lat="45.947336347847845" lon="9.132233480815852"><ele>247.0</ele><time>2026-05-03T06:32:51.008Z</time></trkpt><trkpt lat="45.94739768475857" lon="9.132557593767434"><ele>243.0</ele><time>2026-05-03T06:32:52.008Z</time></trkpt><trkpt lat="45.94746050200747" lon="9.132885851584701"><ele>239.0</ele><time>2026-05-03T06:32:53.008Z</time></trkpt><trkpt lat="45.94754634915711" lon="9.133204741410658"><ele>265.0</ele><time>2026-05-03T06:32:54.008Z</time></trkpt><trkpt lat="45.947625125791795" lon="9.133517654742882"><ele>291.0</ele><time>2026-05-03T06:32:55.008Z</time></trkpt><trkpt lat="45.947743914461476" lon="9.133800003367572"><ele>276.5</ele><time>2026-05-03T06:32:56.008Z</time></trkpt><trkpt lat="45.947877633822905" lon="9.134080451950831"><ele>262.0</ele><time>2026-05-03T06:32:57.008Z</time></trkpt><trkpt lat="45.948005304500086" lon="9.134356347997821"><ele>262.0</ele><time>2026-05-03T06:32:58.008Z</time></trkpt><trkpt lat="45.94815241255513" lon="9.134645123584608"><ele>262.0</ele><time>2026-05-03T06:32:59.008Z</time></trkpt><trkpt lat="45.94830082666429" lon="9.134936893072801"><ele>277.5</ele><time>2026-05-03T06:33:00.008Z</time></trkpt><trkpt lat="45.94845192407518" lon="9.135232664634113"><ele>293.0</ele><time>2026-05-03T06:33:01.008Z</time></trkpt><trkpt lat="45.94860448164237" lon="9.135526019334872"><ele>283.0</ele><time>2026-05-03T06:33:02.008Z</time></trkpt><trkpt lat="45.948744243310045" lon="9.135813938321908"><ele>273.0</ele><time>2026-05-03T06:33:03.008Z</time></trkpt><trkpt lat="45.94886162799285" lon="9.136105764751411"><ele>273.0</ele><time>2026-05-03T06:33:04.008Z</time></trkpt><trkpt lat="45.948960687326114" lon="9.136378483689505"><ele>273.0</ele><time>2026-05-03T06:33:05.008Z</time></trkpt><trkpt lat="45.94906190290979" lon="9.136636442823441"><ele>273.0</ele><time>2026-05-03T06:33:06.008Z</time></trkpt><trkpt lat="45.94919284438046" lon="9.136861599453006"><ele>274.3333333333333</ele><time>2026-05-03T06:33:07.008Z</time></trkpt><trkpt lat="45.94932594594303" lon="9.1370894915816"><ele>275.66666666666663</ele><time>2026-05-03T06:33:08.008Z</time></trkpt><trkpt lat="45.94948769051455" lon="9.137311966198972"><ele>277.0</ele><time>2026-05-03T06:33:09.008Z</time></trkpt><trkpt lat="45.9496673859252" lon="9.137592934618958"><ele>277.0</ele><time>2026-05-03T06:33:10.008Z</time></trkpt><trkpt lat="45.94986347415138" lon="9.137875299556478"><ele>277.0</ele><time>2026-05-03T06:33:11.008Z</time></trkpt><trkpt lat="45.95007056643218" lon="9.138171598166805"><ele>292.0</ele><time>2026-05-03T06:33:12.008Z</time></trkpt><trkpt lat="45.95028478992167" lon="9.138453833214287"><ele>307.0</ele><time>2026-05-03T06:33:13.008Z</time></trkpt><trkpt lat="45.95046861496334" lon="9.138766898543937"><ele>275.5</ele><time>2026-05-03T06:33:14.008Z</time></trkpt><trkpt lat="45.9506746200673" lon="9.139063522100468"><ele>244.0</ele><time>2026-05-03T06:33:15.008Z</time></trkpt><trkpt lat="45.95086234187068" lon="9.139386830384922"><ele>263.5</ele><time>2026-05-03T06:33:16.008Z</time></trkpt><trkpt lat="45.95105190936803" lon="9.13970842628902"><ele>283.0</ele><time>2026-05-03T06:33:17.008Z</time></trkpt><trkpt lat="45.95124475527086" lon="9.140031271798872"><ele>283.0</ele><time>2026-05-03T06:33:18.008Z</time></trkpt><trkpt lat="45.9514378265347" lon="9.140349648173487"><ele>283.0</ele><time>2026-05-03T06:33:19.008Z</time></trkpt><trkpt lat="45.95162303206237" lon="9.140652117829505"><ele>299.5</ele><time>2026-05-03T06:33:20.008Z</time></trkpt><trkpt lat="45.951802280193824" lon="9.140940362320093"><ele>316.0</ele><time>2026-05-03T06:33:21.008Z</time></trkpt><trkpt lat="45.95196528422052" lon="9.14121827600589"><ele>316.0</ele><time>2026-05-03T06:33:22.008Z</time></trkpt><trkpt lat="45.95210776712751" lon="9.141507897357643"><ele>316.0</ele><time>2026-05-03T06:33:23.008Z</time></trkpt><trkpt lat="45.95223681485464" lon="9.141802995029453"><ele>294.5</ele><time>2026-05-03T06:33:24.008Z</time></trkpt><trkpt lat="45.95235636179805" lon="9.142128932645285"><ele>273.0</ele><time>2026-05-03T06:33:25.008Z</time></trkpt><trkpt lat="45.95247506045327" lon="9.142450408286333"><ele>290.0</ele><time>2026-05-03T06:33:26.008Z</time></trkpt><trkpt lat="45.95260108318661" lon="9.142765135233759"><ele>307.0</ele><time>2026-05-03T06:33:27.008Z</time></trkpt><trkpt lat="45.952727367178966" lon="9.143081248932159"><ele>288.5</ele><time>2026-05-03T06:33:28.008Z</time></trkpt><trkpt lat="45.95285391565288" lon="9.143383650039125"><ele>270.0</ele><time>2026-05-03T06:33:29.007Z</time></trkpt><trkpt lat="45.95297125149399" lon="9.143668680910135"><ele>270.0</ele><time>2026-05-03T06:33:30.007Z</time></trkpt><trkpt lat="45.953081402127644" lon="9.143931668023898"><ele>270.0</ele><time>2026-05-03T06:33:31.007Z</time></trkpt><trkpt lat="45.953189933647444" lon="9.144157588735057"><ele>270.0</ele><time>2026-05-03T06:33:32.007Z</time></trkpt><trkpt lat="45.953304644355676" lon="9.144383837094217"><ele>271.3333333333333</ele><time>2026-05-03T06:33:33.007Z</time></trkpt><trkpt lat="45.95342320265278" lon="9.14460493006201"><ele>272.66666666666663</ele><time>2026-05-03T06:33:34.007Z</time></trkpt><trkpt lat="45.953544066273594" lon="9.144848885775417"><ele>274.0</ele><time>2026-05-03T06:33:35.007Z</time></trkpt><trkpt lat="45.95366324825509" lon="9.145118740008483"><ele>274.0</ele><time>2026-05-03T06:33:36.007Z</time></trkpt><trkpt lat="45.953781845064846" lon="9.145388529160478"><ele>274.0</ele><time>2026-05-03T06:33:37.007Z</time></trkpt><trkpt lat="45.953927638958774" lon="9.145649334375666"><ele>287.0</ele><time>2026-05-03T06:33:38.007Z</time></trkpt><trkpt lat="45.954076569437305" lon="9.145919385668881"><ele>300.0</ele><time>2026-05-03T06:33:39.007Z</time></trkpt><trkpt lat="45.95422709860806" lon="9.146183671751228"><ele>300.0</ele><time>2026-05-03T06:33:40.007Z</time></trkpt><trkpt lat="45.95436262483902" lon="9.146458737483002"><ele>300.0</ele><time>2026-05-03T06:33:41.008Z</time></trkpt><trkpt lat="45.954471771491775" lon="9.146750031741465"><ele>287.0</ele><time>2026-05-03T06:33:42.007Z</time></trkpt><trkpt lat="45.95457060420635" lon="9.147053382517491"><ele>274.0</ele><time>2026-05-03T06:33:43.007Z</time></trkpt><trkpt lat="45.95467377819416" lon="9.147367122281967"><ele>258.0</ele><time>2026-05-03T06:33:44.007Z</time></trkpt><trkpt lat="45.95479810309461" lon="9.147668473681367"><ele>242.0</ele><time>2026-05-03T06:33:45.007Z</time></trkpt><trkpt lat="45.954934027758775" lon="9.147962551215441"><ele>257.6666666666667</ele><time>2026-05-03T06:33:46.007Z</time></trkpt><trkpt lat="45.95505005567328" lon="9.148231133816317"><ele>273.3333333333333</ele><time>2026-05-03T06:33:47.007Z</time></trkpt><trkpt lat="45.955144965441335" lon="9.14850354503057"><ele>289.0</ele><time>2026-05-03T06:33:48.007Z</time></trkpt><trkpt lat="45.95523207363378" lon="9.148756545436374"><ele>289.0</ele><time>2026-05-03T06:33:49.007Z</time></trkpt><trkpt lat="45.9553032784759" lon="9.149008251887443"><ele>289.0</ele><time>2026-05-03T06:33:50.007Z</time></trkpt><trkpt lat="45.95537954562714" lon="9.149264975831109"><ele>289.0</ele><time>2026-05-03T06:33:51.007Z</time></trkpt><trkpt lat="45.95543107863665" lon="9.149539408402303"><ele>279.66666666666663</ele><time>2026-05-03T06:33:52.007Z</time></trkpt><trkpt lat="45.95549466605404" lon="9.149764744984429"><ele>270.3333333333333</ele><time>2026-05-03T06:33:53.007Z</time></trkpt><trkpt lat="45.955605769497154" lon="9.14997853695011"><ele>261.0</ele><time>2026-05-03T06:33:54.007Z</time></trkpt><trkpt lat="45.95573584113013" lon="9.150189055602267"><ele>260.6666666666667</ele><time>2026-05-03T06:33:55.007Z</time></trkpt><trkpt lat="45.95585100165277" lon="9.150417296567065"><ele>260.33333333333337</ele><time>2026-05-03T06:33:56.007Z</time></trkpt><trkpt lat="45.95594999011747" lon="9.150636745363885"><ele>260.0</ele><time>2026-05-03T06:33:57.007Z</time></trkpt><trkpt lat="45.95604226097479" lon="9.150843183222213"><ele>260.0</ele><time>2026-05-03T06:33:58.007Z</time></trkpt><trkpt lat="45.956128675398155" lon="9.15103939561788"><ele>260.0</ele><time>2026-05-03T06:33:59.007Z</time></trkpt><trkpt lat="45.956211059598814" lon="9.151240966846743"><ele>260.0</ele><time>2026-05-03T06:34:00.007Z</time></trkpt><trkpt lat="45.95630201850827" lon="9.151442168321196"><ele>250.66666666666669</ele><time>2026-05-03T06:34:01.007Z</time></trkpt><trkpt lat="45.95640309198948" lon="9.151650138979306"><ele>241.33333333333331</ele><time>2026-05-03T06:34:02.007Z</time></trkpt><trkpt lat="45.95650522956459" lon="9.151869782483095"><ele>232.0</ele><time>2026-05-03T06:34:03.007Z</time></trkpt><trkpt lat="45.95659026746537" lon="9.152093093960888"><ele>232.0</ele><time>2026-05-03T06:34:04.007Z</time></trkpt><trkpt lat="45.95667338667987" lon="9.15229843485003"><ele>232.0</ele><time>2026-05-03T06:34:05.007Z</time></trkpt><trkpt lat="45.95675024258514" lon="9.152493382791478"><ele>232.0</ele><time>2026-05-03T06:34:06.007Z</time></trkpt><trkpt lat="45.956818568320486" lon="9.152695907818162"><ele>236.0</ele><time>2026-05-03T06:34:07.007Z</time></trkpt><trkpt lat="45.95689275533358" lon="9.152882829776685"><ele>240.0</ele><time>2026-05-03T06:34:08.007Z</time></trkpt><trkpt lat="45.956968655935576" lon="9.153101533614215"><ele>244.0</ele><time>2026-05-03T06:34:09.007Z</time></trkpt><trkpt lat="45.957042655843296" lon="9.153316509458996"><ele>244.0</ele><time>2026-05-03T06:34:10.007Z</time></trkpt><trkpt lat="45.957118978261896" lon="9.153500477495317"><ele>244.0</ele><time>2026-05-03T06:34:11.007Z</time></trkpt><trkpt lat="45.95718499858153" lon="9.153678226717703"><ele>244.0</ele><time>2026-05-03T06:34:12.007Z</time></trkpt><trkpt lat="45.95723129232343" lon="9.153827117594874"><ele>244.0</ele><time>2026-05-03T06:34:13.007Z</time></trkpt><trkpt lat="45.957278050599776" lon="9.153976766882604"><ele>240.39999999999998</ele><time>2026-05-03T06:34:14.007Z</time></trkpt><trkpt lat="45.95731392793208" lon="9.154125635049338"><ele>236.79999999999998</ele><time>2026-05-03T06:34:15.007Z</time></trkpt><trkpt lat="45.957335999986796" lon="9.154278587055966"><ele>233.20000000000002</ele><time>2026-05-03T06:34:16.007Z</time></trkpt><trkpt lat="45.95733624772832" lon="9.154410241954658"><ele>229.60000000000002</ele><time>2026-05-03T06:34:17.007Z</time></trkpt><trkpt lat="45.95734783265347" lon="9.154512677931141"><ele>226.0</ele><time>2026-05-03T06:34:18.007Z</time></trkpt><trkpt lat="45.95736727411773" lon="9.154615907078737"><ele>225.99999999999997</ele><time>2026-05-03T06:34:19.007Z</time></trkpt><trkpt lat="45.957408513250506" lon="9.154712937443518"><ele>226.0</ele><time>2026-05-03T06:34:20.007Z</time></trkpt><trkpt lat="45.957443047121075" lon="9.154804974230606"><ele>226.0</ele><time>2026-05-03T06:34:21.007Z</time></trkpt><trkpt lat="45.95749799101114" lon="9.154898770985453"><ele>226.0</ele><time>2026-05-03T06:34:22.007Z</time></trkpt><trkpt lat="45.957562629020146" lon="9.154997573164161"><ele>225.99999999999997</ele><time>2026-05-03T06:34:23.007Z</time></trkpt><trkpt lat="45.957614703623165" lon="9.155098543924728"><ele>226.0</ele><time>2026-05-03T06:34:24.007Z</time></trkpt><trkpt lat="45.95767777287588" lon="9.15517573013508"><ele>227.16666666666666</ele><time>2026-05-03T06:34:25.007Z</time></trkpt><trkpt lat="45.957740187588136" lon="9.155254480927626"><ele>228.33333333333331</ele><time>2026-05-03T06:34:26.007Z</time></trkpt><trkpt lat="45.95779490382591" lon="9.155334150077698"><ele>229.5</ele><time>2026-05-03T06:34:27.007Z</time></trkpt><trkpt lat="45.95780521325332" lon="9.155464566332405"><ele>230.66666666666669</ele><time>2026-05-03T06:34:28.007Z</time></trkpt><trkpt lat="45.9578699338147" lon="9.155564169889331"><ele>231.83333333333334</ele><time>2026-05-03T06:34:29.007Z</time></trkpt><trkpt lat="45.9579403253498" lon="9.155641748012085"><ele>233.0</ele><time>2026-05-03T06:34:30.007Z</time></trkpt><trkpt lat="45.95800492295964" lon="9.155692824251878"><ele>231.33333333333334</ele><time>2026-05-03T06:34:31.007Z</time></trkpt><trkpt lat="45.95806437337821" lon="9.155740426323165"><ele>229.66666666666669</ele><time>2026-05-03T06:34:32.007Z</time></trkpt><trkpt lat="45.95816384333851" lon="9.15583590478951"><ele>228.0</ele><time>2026-05-03T06:34:34.007Z</time></trkpt><trkpt lat="45.9582201497528" lon="9.155894396140077"><ele>226.33333333333331</ele><time>2026-05-03T06:34:35.007Z</time></trkpt><trkpt lat="45.95830185090299" lon="9.155990600648696"><ele>224.66666666666666</ele><time>2026-05-03T06:34:37.007Z</time></trkpt><trkpt lat="45.95834491629625" lon="9.156059488743496"><ele>223.0</ele><time>2026-05-03T06:34:38.007Z</time></trkpt><trkpt lat="45.95838098287095" lon="9.156146546083676"><ele>227.99999999999997</ele><time>2026-05-03T06:34:39.007Z</time></trkpt><trkpt lat="45.958396679622666" lon="9.156257696725023"><ele>233.0</ele><time>2026-05-03T06:34:40.007Z</time></trkpt><trkpt lat="45.9584109657797" lon="9.156370720046137"><ele>238.0</ele><time>2026-05-03T06:34:41.007Z</time></trkpt><trkpt lat="45.95841936929413" lon="9.156503195976747"><ele>243.0</ele><time>2026-05-03T06:34:42.007Z</time></trkpt><trkpt lat="45.958428962248206" lon="9.156628739609639"><ele>247.99999999999997</ele><time>2026-05-03T06:34:43.007Z</time></trkpt><trkpt lat="45.958436000070705" lon="9.156742824169646"><ele>253.0</ele><time>2026-05-03T06:34:44.007Z</time></trkpt><trkpt lat="45.958424235267" lon="9.156861277380553"><ele>252.99999999999997</ele><time>2026-05-03T06:34:45.007Z</time></trkpt><trkpt lat="45.95843809861835" lon="9.156974132628026"><ele>253.0</ele><time>2026-05-03T06:34:46.007Z</time></trkpt><trkpt lat="45.95846489450905" lon="9.157087198225932"><ele>253.0</ele><time>2026-05-03T06:34:47.007Z</time></trkpt><trkpt lat="45.958477305941535" lon="9.157199555489461"><ele>253.0</ele><time>2026-05-03T06:34:48.007Z</time></trkpt><trkpt lat="45.95850244553775" lon="9.157320951903104"><ele>252.99999999999997</ele><time>2026-05-03T06:34:49.007Z</time></trkpt><trkpt lat="45.958537962399916" lon="9.157432413290385"><ele>253.0</ele><time>2026-05-03T06:34:50.007Z</time></trkpt><trkpt lat="45.95859097318281" lon="9.157534360578875"><ele>249.83333333333331</ele><time>2026-05-03T06:34:51.007Z</time></trkpt><trkpt lat="45.95860472957686" lon="9.157660248784634"><ele>246.66666666666666</ele><time>2026-05-03T06:34:52.007Z</time></trkpt><trkpt lat="45.958650371921046" lon="9.157753654845997"><ele>243.5</ele><time>2026-05-03T06:34:53.007Z</time></trkpt><trkpt lat="45.95869777278803" lon="9.157848004195136"><ele>240.33333333333331</ele><time>2026-05-03T06:34:54.007Z</time></trkpt><trkpt lat="45.95873259463288" lon="9.15793971568564"><ele>237.16666666666666</ele><time>2026-05-03T06:34:55.007Z</time></trkpt><trkpt lat="45.958770638057494" lon="9.158034859022091"><ele>234.0</ele><time>2026-05-03T06:34:56.007Z</time></trkpt><trkpt lat="45.958808954365004" lon="9.158132685390681"><ele>231.6</ele><time>2026-05-03T06:34:57.007Z</time></trkpt><trkpt lat="45.958846631287855" lon="9.15823606632947"><ele>229.2</ele><time>2026-05-03T06:34:58.007Z</time></trkpt><trkpt lat="45.95887686897725" lon="9.158362521371355"><ele>226.79999999999998</ele><time>2026-05-03T06:34:59.007Z</time></trkpt><trkpt lat="45.958884614074364" lon="9.15849506333414"><ele>224.39999999999998</ele><time>2026-05-03T06:35:00.007Z</time></trkpt><trkpt lat="45.95890388116985" lon="9.158627989059722"><ele>222.0</ele><time>2026-05-03T06:35:01.007Z</time></trkpt><trkpt lat="45.958890446524975" lon="9.158779683814124"><ele>222.0</ele><time>2026-05-03T06:35:02.007Z</time></trkpt><trkpt lat="45.95890675346778" lon="9.158932082710079"><ele>222.0</ele><time>2026-05-03T06:35:03.007Z</time></trkpt><trkpt lat="45.95894392209201" lon="9.15907468988639"><ele>222.0</ele><time>2026-05-03T06:35:04.007Z</time></trkpt><trkpt lat="45.95899975794756" lon="9.159202984781057"><ele>222.0</ele><time>2026-05-03T06:35:05.007Z</time></trkpt><trkpt lat="45.95906424222791" lon="9.159327390747858"><ele>222.0</ele><time>2026-05-03T06:35:06.007Z</time></trkpt><trkpt lat="45.95912981775483" lon="9.15945283669143"><ele>223.75</ele><time>2026-05-03T06:35:07.007Z</time></trkpt><trkpt lat="45.95920361450812" lon="9.159594009852718"><ele>225.5</ele><time>2026-05-03T06:35:08.007Z</time></trkpt><trkpt lat="45.959312059903034" lon="9.159770309925857"><ele>227.25</ele><time>2026-05-03T06:35:09.007Z</time></trkpt><trkpt lat="45.95943001093246" lon="9.159914638288097"><ele>229.0</ele><time>2026-05-03T06:35:10.007Z</time></trkpt><trkpt lat="45.95956010929245" lon="9.16006689823473"><ele>229.0</ele><time>2026-05-03T06:35:11.007Z</time></trkpt><trkpt lat="45.95968499103865" lon="9.160216947994702"><ele>229.0</ele><time>2026-05-03T06:35:12.007Z</time></trkpt><trkpt lat="45.9597982637444" lon="9.160396340891534"><ele>229.0</ele><time>2026-05-03T06:35:13.007Z</time></trkpt><trkpt lat="45.959877530175994" lon="9.160616118342936"><ele>224.66666666666666</ele><time>2026-05-03T06:35:14.007Z</time></trkpt><trkpt lat="45.959958939201414" lon="9.160830125347845"><ele>220.33333333333331</ele><time>2026-05-03T06:35:15.007Z</time></trkpt><trkpt lat="45.96006269209356" lon="9.16101381982086"><ele>216.0</ele><time>2026-05-03T06:35:16.007Z</time></trkpt><trkpt lat="45.960177148467906" lon="9.161191585188481"><ele>217.0</ele><time>2026-05-03T06:35:17.007Z</time></trkpt><trkpt lat="45.96032394545317" lon="9.161346533990477"><ele>218.0</ele><time>2026-05-03T06:35:18.007Z</time></trkpt><trkpt lat="45.96047269238381" lon="9.161548394578062"><ele>219.0</ele><time>2026-05-03T06:35:19.007Z</time></trkpt><trkpt lat="45.960637033014656" lon="9.16174232680249"><ele>219.0</ele><time>2026-05-03T06:35:20.007Z</time></trkpt><trkpt lat="45.96080536029679" lon="9.161939163344563"><ele>219.0</ele><time>2026-05-03T06:35:21.007Z</time></trkpt><trkpt lat="45.96095555299009" lon="9.162122533254722"><ele>219.0</ele><time>2026-05-03T06:35:22.007Z</time></trkpt><trkpt lat="45.96110575512149" lon="9.16232327172062"><ele>220.66666666666669</ele><time>2026-05-03T06:35:23.007Z</time></trkpt><trkpt lat="45.96126028875056" lon="9.16253754764279"><ele>222.33333333333334</ele><time>2026-05-03T06:35:24.007Z</time></trkpt><trkpt lat="45.96141841358907" lon="9.162755869451283"><ele>224.0</ele><time>2026-05-03T06:35:25.007Z</time></trkpt><trkpt lat="45.96157027848319" lon="9.162977901164346"><ele>221.66666666666669</ele><time>2026-05-03T06:35:26.007Z</time></trkpt><trkpt lat="45.961693326066346" lon="9.163225729915846"><ele>219.33333333333331</ele><time>2026-05-03T06:35:27.007Z</time></trkpt><trkpt lat="45.96178615628868" lon="9.163503128019288"><ele>217.0</ele><time>2026-05-03T06:35:28.007Z</time></trkpt><trkpt lat="45.96188019546396" lon="9.163787534653094"><ele>225.33333333333331</ele><time>2026-05-03T06:35:29.007Z</time></trkpt><trkpt lat="45.96197004682964" lon="9.164083408100938"><ele>233.66666666666669</ele><time>2026-05-03T06:35:30.007Z</time></trkpt><trkpt lat="45.96204822773855" lon="9.164377167702774"><ele>242.0</ele><time>2026-05-03T06:35:31.007Z</time></trkpt><trkpt lat="45.96213926872508" lon="9.164632497859582"><ele>242.0</ele><time>2026-05-03T06:35:32.007Z</time></trkpt><trkpt lat="45.96224873372552" lon="9.164838968965812"><ele>242.0</ele><time>2026-05-03T06:35:33.007Z</time></trkpt><trkpt lat="45.962377739619434" lon="9.16502945289437"><ele>242.0</ele><time>2026-05-03T06:35:34.007Z</time></trkpt><trkpt lat="45.96254465027972" lon="9.16518066004153"><ele>241.0</ele><time>2026-05-03T06:35:35.007Z</time></trkpt><trkpt lat="45.96273074846966" lon="9.165320537111098"><ele>240.0</ele><time>2026-05-03T06:35:36.008Z</time></trkpt><trkpt lat="45.96289491483612" lon="9.1654967076503"><ele>239.0</ele><time>2026-05-03T06:35:37.008Z</time></trkpt><trkpt lat="45.963077844906785" lon="9.165642647983859"><ele>237.0</ele><time>2026-05-03T06:35:38.008Z</time></trkpt><trkpt lat="45.96323848306617" lon="9.165802860195193"><ele>235.0</ele><time>2026-05-03T06:35:39.007Z</time></trkpt><trkpt lat="45.96340307775783" lon="9.16594307049017"><ele>233.0</ele><time>2026-05-03T06:35:40.007Z</time></trkpt><trkpt lat="45.96354340475474" lon="9.166116509451637"><ele>233.0</ele><time>2026-05-03T06:35:41.007Z</time></trkpt><trkpt lat="45.963700442624486" lon="9.166266689080674"><ele>233.0</ele><time>2026-05-03T06:35:42.007Z</time></trkpt><trkpt lat="45.96384866645658" lon="9.166408439571168"><ele>233.0</ele><time>2026-05-03T06:35:43.007Z</time></trkpt><trkpt lat="45.96400506226576" lon="9.166558005199313"><ele>234.33333333333334</ele><time>2026-05-03T06:35:44.007Z</time></trkpt><trkpt lat="45.96417566327826" lon="9.166719248357118"><ele>235.66666666666669</ele><time>2026-05-03T06:35:45.007Z</time></trkpt><trkpt lat="45.96434806509995" lon="9.166888264370861"><ele>237.0</ele><time>2026-05-03T06:35:46.007Z</time></trkpt><trkpt lat="45.96452923284577" lon="9.16701714050617"><ele>237.0</ele><time>2026-05-03T06:35:47.007Z</time></trkpt><trkpt lat="45.96468695014719" lon="9.167214163480692"><ele>237.0</ele><time>2026-05-03T06:35:48.007Z</time></trkpt><trkpt lat="45.96482642326333" lon="9.167401318931674"><ele>237.0</ele><time>2026-05-03T06:35:49.007Z</time></trkpt><trkpt lat="45.964964432086624" lon="9.167587893541572"><ele>238.0</ele><time>2026-05-03T06:35:50.007Z</time></trkpt><trkpt lat="45.965083681438" lon="9.16777685294718"><ele>239.0</ele><time>2026-05-03T06:35:51.007Z</time></trkpt><trkpt lat="45.96521096874089" lon="9.167948567530512"><ele>240.0</ele><time>2026-05-03T06:35:52.007Z</time></trkpt><trkpt lat="45.965317616651326" lon="9.168111190921232"><ele>236.5</ele><time>2026-05-03T06:35:53.007Z</time></trkpt><trkpt lat="45.965401611072025" lon="9.168252686662195"><ele>233.0</ele><time>2026-05-03T06:35:54.007Z</time></trkpt><trkpt lat="45.965480989774456" lon="9.168386765442158"><ele>229.5</ele><time>2026-05-03T06:35:55.007Z</time></trkpt><trkpt lat="45.96556405154527" lon="9.168492213345548"><ele>226.0</ele><time>2026-05-03T06:35:56.007Z</time></trkpt><trkpt lat="45.9656939033504" lon="9.16857302422911"><ele>226.0</ele><time>2026-05-03T06:35:57.007Z</time></trkpt><trkpt lat="45.96581426922176" lon="9.168656726137872"><ele>226.0</ele><time>2026-05-03T06:35:58.007Z</time></trkpt><trkpt lat="45.96592135472668" lon="9.16877134514534"><ele>226.0</ele><time>2026-05-03T06:35:59.007Z</time></trkpt><trkpt lat="45.966036376923334" lon="9.168905883223973"><ele>226.0</ele><time>2026-05-03T06:36:00.007Z</time></trkpt><trkpt lat="45.96614140664489" lon="9.169058335524559"><ele>227.5</ele><time>2026-05-03T06:36:01.007Z</time></trkpt><trkpt lat="45.96623888653109" lon="9.169175228526038"><ele>229.0</ele><time>2026-05-03T06:36:02.007Z</time></trkpt><trkpt lat="45.96630558597988" lon="9.169307829079173"><ele>230.5</ele><time>2026-05-03T06:36:03.007Z</time></trkpt><trkpt lat="45.96635731445293" lon="9.169508669760132"><ele>232.0</ele><time>2026-05-03T06:36:04.007Z</time></trkpt><trkpt lat="45.96642199212305" lon="9.16972810980656"><ele>227.66666666666666</ele><time>2026-05-03T06:36:05.007Z</time></trkpt><trkpt lat="45.9664808317489" lon="9.169974876865984"><ele>223.33333333333331</ele><time>2026-05-03T06:36:06.007Z</time></trkpt><trkpt lat="45.96655336416288" lon="9.17021260894129"><ele>219.0</ele><time>2026-05-03T06:36:07.007Z</time></trkpt><trkpt lat="45.96662292967081" lon="9.170439999977798"><ele>224.66666666666669</ele><time>2026-05-03T06:36:08.007Z</time></trkpt><trkpt lat="45.966699398064605" lon="9.170671529668821"><ele>230.33333333333334</ele><time>2026-05-03T06:36:09.007Z</time></trkpt><trkpt lat="45.96678187506488" lon="9.170897374344044"><ele>236.0</ele><time>2026-05-03T06:36:10.007Z</time></trkpt><trkpt lat="45.96686704834794" lon="9.17113477785417"><ele>236.0</ele><time>2026-05-03T06:36:11.007Z</time></trkpt><trkpt lat="45.966950697785926" lon="9.171371709363596"><ele>236.0</ele><time>2026-05-03T06:36:12.007Z</time></trkpt><trkpt lat="45.967029746675706" lon="9.171588501329316"><ele>236.0</ele><time>2026-05-03T06:36:13.007Z</time></trkpt><trkpt lat="45.96710799814679" lon="9.171773882171246"><ele>240.0</ele><time>2026-05-03T06:36:14.007Z</time></trkpt><trkpt lat="45.96720555692671" lon="9.171928492912787"><ele>244.0</ele><time>2026-05-03T06:36:15.007Z</time></trkpt><trkpt lat="45.96731517820469" lon="9.172031807238875"><ele>248.0</ele><time>2026-05-03T06:36:16.007Z</time></trkpt><trkpt lat="45.96743920740651" lon="9.172131915098465"><ele>252.0</ele><time>2026-05-03T06:36:17.007Z</time></trkpt><trkpt lat="45.967559884210566" lon="9.172199941901411"><ele>252.0</ele><time>2026-05-03T06:36:18.007Z</time></trkpt><trkpt lat="45.96767552162532" lon="9.172264551533576"><ele>252.0</ele><time>2026-05-03T06:36:19.007Z</time></trkpt><trkpt lat="45.96778258763848" lon="9.172339885470091"><ele>252.0</ele><time>2026-05-03T06:36:20.007Z</time></trkpt><trkpt lat="45.96787913649407" lon="9.172408648991874"><ele>252.0</ele><time>2026-05-03T06:36:21.007Z</time></trkpt><trkpt lat="45.96795156282214" lon="9.172517711288991"><ele>245.75</ele><time>2026-05-03T06:36:22.007Z</time></trkpt><trkpt lat="45.96801569161886" lon="9.172634520824738"><ele>239.5</ele><time>2026-05-03T06:36:23.007Z</time></trkpt><trkpt lat="45.968083337209684" lon="9.172782721305234"><ele>233.25</ele><time>2026-05-03T06:36:24.007Z</time></trkpt><trkpt lat="45.968145350896584" lon="9.172939266491122"><ele>227.0</ele><time>2026-05-03T06:36:25.007Z</time></trkpt><trkpt lat="45.96820586377063" lon="9.173094366382909"><ele>224.0</ele><time>2026-05-03T06:36:26.007Z</time></trkpt><trkpt lat="45.968261344314584" lon="9.173233027825875"><ele>221.0</ele><time>2026-05-03T06:36:27.007Z</time></trkpt><trkpt lat="45.968327161710555" lon="9.173348169734975"><ele>218.0</ele><time>2026-05-03T06:36:28.007Z</time></trkpt><trkpt lat="45.96837026754096" lon="9.173481469874952"><ele>215.0</ele><time>2026-05-03T06:36:29.007Z</time></trkpt><trkpt lat="45.968421265141835" lon="9.173606978172694"><ele>212.0</ele><time>2026-05-03T06:36:30.007Z</time></trkpt><trkpt lat="45.968468484630264" lon="9.173727041823028"><ele>216.8</ele><time>2026-05-03T06:36:31.007Z</time></trkpt><trkpt lat="45.96851435307954" lon="9.173857038169942"><ele>221.6</ele><time>2026-05-03T06:36:32.007Z</time></trkpt><trkpt lat="45.96856827943731" lon="9.173990862679586"><ele>226.40000000000003</ele><time>2026-05-03T06:36:33.007Z</time></trkpt><trkpt lat="45.96862768625597" lon="9.17412919074644"><ele>231.20000000000002</ele><time>2026-05-03T06:36:34.007Z</time></trkpt><trkpt lat="45.968682377320924" lon="9.174272070005916"><ele>236.0</ele><time>2026-05-03T06:36:35.007Z</time></trkpt><trkpt lat="45.96873669779603" lon="9.174406785236549"><ele>236.0</ele><time>2026-05-03T06:36:36.007Z</time></trkpt><trkpt lat="45.96879707145434" lon="9.174539443697645"><ele>236.00000000000003</ele><time>2026-05-03T06:36:37.007Z</time></trkpt><trkpt lat="45.968871343828496" lon="9.174640283669618"><ele>236.00000000000003</ele><time>2026-05-03T06:36:38.007Z</time></trkpt><trkpt lat="45.96894244858459" lon="9.174726204908792"><ele>236.0</ele><time>2026-05-03T06:36:39.007Z</time></trkpt><trkpt lat="45.96902048473591" lon="9.174808039889816"><ele>236.0</ele><time>2026-05-03T06:36:40.007Z</time></trkpt><trkpt lat="45.96906826684933" lon="9.174918113683848"><ele>232.83333333333334</ele><time>2026-05-03T06:36:41.007Z</time></trkpt><trkpt lat="45.9691000646319" lon="9.17501803521396"><ele>229.66666666666669</ele><time>2026-05-03T06:36:42.007Z</time></trkpt><trkpt lat="45.969133190812386" lon="9.175144681940067"><ele>226.5</ele><time>2026-05-03T06:36:43.007Z</time></trkpt><trkpt lat="45.96915644977072" lon="9.17526950177079"><ele>223.33333333333331</ele><time>2026-05-03T06:36:44.007Z</time></trkpt><trkpt lat="45.9691630524044" lon="9.175391351798304"><ele>220.16666666666666</ele><time>2026-05-03T06:36:45.007Z</time></trkpt><trkpt lat="45.96915797562909" lon="9.175501402003194"><ele>217.0</ele><time>2026-05-03T06:36:46.007Z</time></trkpt><trkpt lat="45.969144383657124" lon="9.175616677293347"><ele>216.6</ele><time>2026-05-03T06:36:47.007Z</time></trkpt><trkpt lat="45.96911477731821" lon="9.175744028155158"><ele>216.2</ele><time>2026-05-03T06:36:48.007Z</time></trkpt><trkpt lat="45.969057281535385" lon="9.175868224819059"><ele>215.8</ele><time>2026-05-03T06:36:49.007Z</time></trkpt><trkpt lat="45.96901363140322" lon="9.176011503990571"><ele>215.4</ele><time>2026-05-03T06:36:50.007Z</time></trkpt><trkpt lat="45.96898425011674" lon="9.176175301325339"><ele>215.0</ele><time>2026-05-03T06:36:51.007Z</time></trkpt><trkpt lat="45.9689516997641" lon="9.176311003526166"><ele>215.0</ele><time>2026-05-03T06:36:52.007Z</time></trkpt><trkpt lat="45.96890317959576" lon="9.176446655353773"><ele>215.0</ele><time>2026-05-03T06:36:53.007Z</time></trkpt><trkpt lat="45.968840533089505" lon="9.176572393980823"><ele>215.0</ele><time>2026-05-03T06:36:54.007Z</time></trkpt><trkpt lat="45.968780538309886" lon="9.176710706233436"><ele>215.0</ele><time>2026-05-03T06:36:55.007Z</time></trkpt><trkpt lat="45.968722186403035" lon="9.176844068891564"><ele>215.0</ele><time>2026-05-03T06:36:56.007Z</time></trkpt><trkpt lat="45.96866435332861" lon="9.176985767581485"><ele>217.0</ele><time>2026-05-03T06:36:57.007Z</time></trkpt><trkpt lat="45.968608170056385" lon="9.177122278079864"><ele>219.0</ele><time>2026-05-03T06:36:58.007Z</time></trkpt><trkpt lat="45.968541044987624" lon="9.177242221138156"><ele>221.0</ele><time>2026-05-03T06:36:59.007Z</time></trkpt><trkpt lat="45.96845879899736" lon="9.17737740271836"><ele>223.0</ele><time>2026-05-03T06:37:00.007Z</time></trkpt><trkpt lat="45.96838979845165" lon="9.177504813781907"><ele>221.8</ele><time>2026-05-03T06:37:01.007Z</time></trkpt><trkpt lat="45.9683233757794" lon="9.177627265588685"><ele>220.60000000000002</ele><time>2026-05-03T06:37:02.007Z</time></trkpt><trkpt lat="45.96825820873611" lon="9.177751049060063"><ele>219.39999999999998</ele><time>2026-05-03T06:37:03.007Z</time></trkpt><trkpt lat="45.968195105227416" lon="9.177885598001232"><ele>218.2</ele><time>2026-05-03T06:37:04.007Z</time></trkpt><trkpt lat="45.968153539255" lon="9.178044719494332"><ele>217.0</ele><time>2026-05-03T06:37:05.007Z</time></trkpt><trkpt lat="45.96811465659084" lon="9.178206940140226"><ele>217.0</ele><time>2026-05-03T06:37:06.007Z</time></trkpt><trkpt lat="45.96807091220806" lon="9.178355736901525"><ele>217.0</ele><time>2026-05-03T06:37:07.007Z</time></trkpt><trkpt lat="45.968030205055335" lon="9.178515222721693"><ele>217.0</ele><time>2026-05-03T06:37:08.007Z</time></trkpt><trkpt lat="45.96799071564977" lon="9.17867473753455"><ele>217.0</ele><time>2026-05-03T06:37:09.007Z</time></trkpt><trkpt lat="45.96794882226565" lon="9.178839071348705"><ele>217.0</ele><time>2026-05-03T06:37:10.007Z</time></trkpt><trkpt lat="45.96790914774732" lon="9.178997064221576"><ele>217.0</ele><time>2026-05-03T06:37:11.007Z</time></trkpt><trkpt lat="45.967870741348335" lon="9.179156841304897"><ele>217.0</ele><time>2026-05-03T06:37:12.007Z</time></trkpt><trkpt lat="45.967840193699274" lon="9.179311268343165"><ele>217.0</ele><time>2026-05-03T06:37:13.007Z</time></trkpt><trkpt lat="45.96781448125098" lon="9.179484244399001"><ele>218.0</ele><time>2026-05-03T06:37:14.007Z</time></trkpt><trkpt lat="45.9677871964097" lon="9.1796637368391"><ele>219.0</ele><time>2026-05-03T06:37:15.007Z</time></trkpt><trkpt lat="45.96774295196476" lon="9.179840439192148"><ele>220.0</ele><time>2026-05-03T06:37:16.007Z</time></trkpt><trkpt lat="45.96772096677806" lon="9.180012158075508"><ele>221.0</ele><time>2026-05-03T06:37:17.007Z</time></trkpt><trkpt lat="45.96770525849484" lon="9.180185064084437"><ele>222.33333333333334</ele><time>2026-05-03T06:37:18.007Z</time></trkpt><trkpt lat="45.96768065523515" lon="9.180383494484522"><ele>223.66666666666669</ele><time>2026-05-03T06:37:19.007Z</time></trkpt><trkpt lat="45.96765566547241" lon="9.18061611683032"><ele>225.0</ele><time>2026-05-03T06:37:20.007Z</time></trkpt><trkpt lat="45.96763819680781" lon="9.180870672389704"><ele>225.33333333333331</ele><time>2026-05-03T06:37:21.007Z</time></trkpt><trkpt lat="45.96761261717859" lon="9.18114178000617"><ele>225.66666666666666</ele><time>2026-05-03T06:37:22.007Z</time></trkpt><trkpt lat="45.967581087132274" lon="9.18142427203513"><ele>226.0</ele><time>2026-05-03T06:37:23.007Z</time></trkpt><trkpt lat="45.96755018899498" lon="9.181703762064018"><ele>226.33333333333331</ele><time>2026-05-03T06:37:24.007Z</time></trkpt><trkpt lat="45.96753308090864" lon="9.181971248171367"><ele>226.66666666666669</ele><time>2026-05-03T06:37:25.007Z</time></trkpt><trkpt lat="45.96752230486929" lon="9.182239606320104"><ele>227.0</ele><time>2026-05-03T06:37:26.007Z</time></trkpt><trkpt lat="45.96752661119097" lon="9.182505211271746"><ele>226.66666666666669</ele><time>2026-05-03T06:37:27.007Z</time></trkpt><trkpt lat="45.967545026925514" lon="9.182755767166526"><ele>226.33333333333331</ele><time>2026-05-03T06:37:28.007Z</time></trkpt><trkpt lat="45.96756779941493" lon="9.182989676422048"><ele>226.0</ele><time>2026-05-03T06:37:29.007Z</time></trkpt><trkpt lat="45.96759194944711" lon="9.18320651335391"><ele>226.0</ele><time>2026-05-03T06:37:30.007Z</time></trkpt><trkpt lat="45.96759713182053" lon="9.183406783145127"><ele>226.0</ele><time>2026-05-03T06:37:31.007Z</time></trkpt><trkpt lat="45.96758729066629" lon="9.183596253913075"><ele>226.0</ele><time>2026-05-03T06:37:32.007Z</time></trkpt><trkpt lat="45.96755006387318" lon="9.183772423901296"><ele>226.0</ele><time>2026-05-03T06:37:33.007Z</time></trkpt><trkpt lat="45.967513396289895" lon="9.183935215638455"><ele>223.20000000000002</ele><time>2026-05-03T06:37:34.007Z</time></trkpt><trkpt lat="45.9674593741406" lon="9.18407112134288"><ele>220.40000000000003</ele><time>2026-05-03T06:37:35.007Z</time></trkpt><trkpt lat="45.9673917856065" lon="9.184187929861354"><ele>217.6</ele><time>2026-05-03T06:37:36.007Z</time></trkpt><trkpt lat="45.9673375816585" lon="9.184311861967133"><ele>214.8</ele><time>2026-05-03T06:37:37.007Z</time></trkpt><trkpt lat="45.967307217557774" lon="9.1844494562775"><ele>212.0</ele><time>2026-05-03T06:37:38.007Z</time></trkpt><trkpt lat="45.967303856465634" lon="9.184584259971839"><ele>212.0</ele><time>2026-05-03T06:37:39.007Z</time></trkpt><trkpt lat="45.96732535777638" lon="9.184727422296813"><ele>212.0</ele><time>2026-05-03T06:37:40.007Z</time></trkpt><trkpt lat="45.96738206804358" lon="9.184849852268274"><ele>212.0</ele><time>2026-05-03T06:37:41.007Z</time></trkpt><trkpt lat="45.96744743191744" lon="9.184966820931125"><ele>212.0</ele><time>2026-05-03T06:37:42.007Z</time></trkpt><trkpt lat="45.96752288060848" lon="9.18507655701217"><ele>212.0</ele><time>2026-05-03T06:37:43.007Z</time></trkpt><trkpt lat="45.96760596661429" lon="9.185175611189011"><ele>212.16666666666669</ele><time>2026-05-03T06:37:44.007Z</time></trkpt><trkpt lat="45.96768253052105" lon="9.185251444310149"><ele>212.33333333333334</ele><time>2026-05-03T06:37:45.007Z</time></trkpt><trkpt lat="45.96774603310153" lon="9.185333304226903"><ele>212.5</ele><time>2026-05-03T06:37:46.007Z</time></trkpt><trkpt lat="45.967800844891464" lon="9.185414661051583"><ele>212.66666666666669</ele><time>2026-05-03T06:37:47.007Z</time></trkpt><trkpt lat="45.96785396141536" lon="9.185504795598895"><ele>212.83333333333334</ele><time>2026-05-03T06:37:48.006Z</time></trkpt><trkpt lat="45.96789559978516" lon="9.18561673725553"><ele>213.0</ele><time>2026-05-03T06:37:49.006Z</time></trkpt><trkpt lat="45.96792286173605" lon="9.18574617039934"><ele>212.5</ele><time>2026-05-03T06:37:50.006Z</time></trkpt><trkpt lat="45.96796119795493" lon="9.185889670433609"><ele>212.0</ele><time>2026-05-03T06:37:51.007Z</time></trkpt><trkpt lat="45.96799885703508" lon="9.186051493711334"><ele>211.5</ele><time>2026-05-03T06:37:52.007Z</time></trkpt><trkpt lat="45.96803673654839" lon="9.18621768785492"><ele>211.0</ele><time>2026-05-03T06:37:53.006Z</time></trkpt><trkpt lat="45.96807886681828" lon="9.186384001127673"><ele>210.25</ele><time>2026-05-03T06:37:54.006Z</time></trkpt><trkpt lat="45.96812359643905" lon="9.1865544901657"><ele>209.5</ele><time>2026-05-03T06:37:55.006Z</time></trkpt><trkpt lat="45.9681693804741" lon="9.186729057675766"><ele>208.75</ele><time>2026-05-03T06:37:56.006Z</time></trkpt><trkpt lat="45.968213467990296" lon="9.186902366876152"><ele>208.0</ele><time>2026-05-03T06:37:57.006Z</time></trkpt><trkpt lat="45.96825717694328" lon="9.187074549246779"><ele>208.0</ele><time>2026-05-03T06:37:58.006Z</time></trkpt><trkpt lat="45.968300299373375" lon="9.187240324732908"><ele>208.0</ele><time>2026-05-03T06:37:59.006Z</time></trkpt><trkpt lat="45.9683430831263" lon="9.187401093787287"><ele>208.0</ele><time>2026-05-03T06:38:00.006Z</time></trkpt><trkpt lat="45.968384094215935" lon="9.18756270707829"><ele>208.0</ele><time>2026-05-03T06:38:01.006Z</time></trkpt><trkpt lat="45.968423323808175" lon="9.18772363596605"><ele>212.0</ele><time>2026-05-03T06:38:02.006Z</time></trkpt><trkpt lat="45.968465478708374" lon="9.187890214035436"><ele>216.0</ele><time>2026-05-03T06:38:03.006Z</time></trkpt><trkpt lat="45.96850556795271" lon="9.18805153723481"><ele>220.0</ele><time>2026-05-03T06:38:04.006Z</time></trkpt><trkpt lat="45.968544704083996" lon="9.18820232589022"><ele>224.0</ele><time>2026-05-03T06:38:05.006Z</time></trkpt><trkpt lat="45.96859179804762" lon="9.18835338964447"><ele>224.2</ele><time>2026-05-03T06:38:06.006Z</time></trkpt><trkpt lat="45.96862965525457" lon="9.188496384784468"><ele>224.39999999999998</ele><time>2026-05-03T06:38:07.006Z</time></trkpt><trkpt lat="45.968659309045506" lon="9.188613259302157"><ele>224.6</ele><time>2026-05-03T06:38:08.006Z</time></trkpt><trkpt lat="45.96869865356963" lon="9.18875639375527"><ele>224.8</ele><time>2026-05-03T06:38:10.006Z</time></trkpt><trkpt lat="45.96871343800389" lon="9.188876606827236"><ele>225.0</ele><time>2026-05-03T06:38:12.006Z</time></trkpt><trkpt lat="45.96876150933412" lon="9.189041005654031"><ele>225.0</ele><time>2026-05-03T06:38:14.006Z</time></trkpt><trkpt lat="45.96878476984766" lon="9.189132962110355"><ele>225.0</ele><time>2026-05-03T06:38:15.006Z</time></trkpt><trkpt lat="45.9688165573909" lon="9.189228009809849"><ele>225.0</ele><time>2026-05-03T06:38:16.006Z</time></trkpt><trkpt lat="45.96885784974291" lon="9.189342887913456"><ele>225.0</ele><time>2026-05-03T06:38:17.006Z</time></trkpt><trkpt lat="45.96887896802605" lon="9.18947800184731"><ele>225.0</ele><time>2026-05-03T06:38:18.007Z</time></trkpt><trkpt lat="45.96891319771981" lon="9.189608175723261"><ele>225.0</ele><time>2026-05-03T06:38:19.007Z</time></trkpt><trkpt lat="45.9689491019794" lon="9.189746225023896"><ele>224.5</ele><time>2026-05-03T06:38:20.007Z</time></trkpt><trkpt lat="45.968993784505884" lon="9.189916147680231"><ele>224.0</ele><time>2026-05-03T06:38:21.007Z</time></trkpt><trkpt lat="45.969042505464806" lon="9.19009893521008"><ele>223.5</ele><time>2026-05-03T06:38:22.007Z</time></trkpt><trkpt lat="45.969090408587775" lon="9.190295267977646"><ele>223.0</ele><time>2026-05-03T06:38:23.007Z</time></trkpt><trkpt lat="45.96913595955339" lon="9.190483002379459"><ele>223.0</ele><time>2026-05-03T06:38:24.007Z</time></trkpt><trkpt lat="45.96917976864231" lon="9.190672036139903"><ele>223.0</ele><time>2026-05-03T06:38:25.007Z</time></trkpt><trkpt lat="45.9692309288174" lon="9.19086134366221"><ele>223.0</ele><time>2026-05-03T06:38:26.007Z</time></trkpt><trkpt lat="45.96927967131818" lon="9.191045532637924"><ele>223.0</ele><time>2026-05-03T06:38:27.007Z</time></trkpt><trkpt lat="45.969327218184674" lon="9.191208717583963"><ele>223.2</ele><time>2026-05-03T06:38:28.007Z</time></trkpt><trkpt lat="45.96936611532824" lon="9.191356970113384"><ele>223.4</ele><time>2026-05-03T06:38:29.007Z</time></trkpt><trkpt lat="45.969397377459174" lon="9.19150011203503"><ele>223.59999999999997</ele><time>2026-05-03T06:38:30.007Z</time></trkpt><trkpt lat="45.96943653418061" lon="9.191647222527891"><ele>223.79999999999998</ele><time>2026-05-03T06:38:31.007Z</time></trkpt><trkpt lat="45.969475776286664" lon="9.191800909471423"><ele>224.0</ele><time>2026-05-03T06:38:32.007Z</time></trkpt><trkpt lat="45.969519356309384" lon="9.191965388750194"><ele>223.5</ele><time>2026-05-03T06:38:33.007Z</time></trkpt><trkpt lat="45.969563747053826" lon="9.192131455574827"><ele>223.0</ele><time>2026-05-03T06:38:34.007Z</time></trkpt><trkpt lat="45.96961145592235" lon="9.192294804172521"><ele>222.5</ele><time>2026-05-03T06:38:35.007Z</time></trkpt><trkpt lat="45.96967305023393" lon="9.192448217429808"><ele>222.0</ele><time>2026-05-03T06:38:36.007Z</time></trkpt><trkpt lat="45.96974595618943" lon="9.192585666794262"><ele>221.75</ele><time>2026-05-03T06:38:37.007Z</time></trkpt><trkpt lat="45.96983223837047" lon="9.192708011191229"><ele>221.5</ele><time>2026-05-03T06:38:38.007Z</time></trkpt><trkpt lat="45.969924651220374" lon="9.192814346073087"><ele>221.25</ele><time>2026-05-03T06:38:39.007Z</time></trkpt><trkpt lat="45.9700495268962" lon="9.192910590340793"><ele>221.0</ele><time>2026-05-03T06:38:40.007Z</time></trkpt><trkpt lat="45.970200129003224" lon="9.193044684982057"><ele>221.0</ele><time>2026-05-03T06:38:41.007Z</time></trkpt><trkpt lat="45.97036693801713" lon="9.193149407958439"><ele>221.0</ele><time>2026-05-03T06:38:42.007Z</time></trkpt><trkpt lat="45.97051973462599" lon="9.19328254415438"><ele>221.0</ele><time>2026-05-03T06:38:43.007Z</time></trkpt><trkpt lat="45.97066296202153" lon="9.193390065544634"><ele>220.75</ele><time>2026-05-03T06:38:44.007Z</time></trkpt><trkpt lat="45.97079221261884" lon="9.193489630084033"><ele>220.5</ele><time>2026-05-03T06:38:45.007Z</time></trkpt><trkpt lat="45.97091326981478" lon="9.193584402634556"><ele>220.25</ele><time>2026-05-03T06:38:46.007Z</time></trkpt><trkpt lat="45.97102820831581" lon="9.19366903050253"><ele>220.0</ele><time>2026-05-03T06:38:47.007Z</time></trkpt><trkpt lat="45.97113502910567" lon="9.193748391759422"><ele>220.0</ele><time>2026-05-03T06:38:48.007Z</time></trkpt><trkpt lat="45.971234291813346" lon="9.193824333330856"><ele>220.0</ele><time>2026-05-03T06:38:49.007Z</time></trkpt><trkpt lat="45.97133522084044" lon="9.193893610967146"><ele>220.0</ele><time>2026-05-03T06:38:50.007Z</time></trkpt><trkpt lat="45.97144182252756" lon="9.193963745886157"><ele>220.0</ele><time>2026-05-03T06:38:51.007Z</time></trkpt><trkpt lat="45.97154566750216" lon="9.194038722692083"><ele>219.8</ele><time>2026-05-03T06:38:52.007Z</time></trkpt><trkpt lat="45.971633568665666" lon="9.194123885242623"><ele>219.6</ele><time>2026-05-03T06:38:53.007Z</time></trkpt><trkpt lat="45.97172063682818" lon="9.194188854229367"><ele>219.39999999999998</ele><time>2026-05-03T06:38:54.007Z</time></trkpt><trkpt lat="45.97180668312399" lon="9.194253201460612"><ele>219.2</ele><time>2026-05-03T06:38:55.007Z</time></trkpt><trkpt lat="45.971896182207566" lon="9.194320129954383"><ele>219.0</ele><time>2026-05-03T06:38:56.007Z</time></trkpt><trkpt lat="45.97198964004703" lon="9.194390020674115"><ele>219.0</ele><time>2026-05-03T06:38:57.007Z</time></trkpt><trkpt lat="45.97209242114028" lon="9.19446665800831"><ele>218.99999999999997</ele><time>2026-05-03T06:38:58.007Z</time></trkpt><trkpt lat="45.97219075286834" lon="9.194539792655771"><ele>218.99999999999997</ele><time>2026-05-03T06:38:59.007Z</time></trkpt><trkpt lat="45.97228856397421" lon="9.194589985728477"><ele>219.0</ele><time>2026-05-03T06:39:00.007Z</time></trkpt><trkpt lat="45.97237550622192" lon="9.19466355248434"><ele>219.0</ele><time>2026-05-03T06:39:01.007Z</time></trkpt><trkpt lat="45.9724673456265" lon="9.194731224546162"><ele>218.79999999999998</ele><time>2026-05-03T06:39:02.007Z</time></trkpt><trkpt lat="45.972564415930876" lon="9.194793933763359"><ele>218.59999999999997</ele><time>2026-05-03T06:39:03.007Z</time></trkpt><trkpt lat="45.972665850133346" lon="9.194863867915975"><ele>218.4</ele><time>2026-05-03T06:39:04.007Z</time></trkpt><trkpt lat="45.97276644682032" lon="9.194943325942564"><ele>218.2</ele><time>2026-05-03T06:39:05.007Z</time></trkpt><trkpt lat="45.972862304855084" lon="9.195017837600915"><ele>218.0</ele><time>2026-05-03T06:39:06.007Z</time></trkpt><trkpt lat="45.972960255349705" lon="9.195095856799664"><ele>219.0</ele><time>2026-05-03T06:39:07.007Z</time></trkpt><trkpt lat="45.97308191217756" lon="9.195202047591554"><ele>220.0</ele><time>2026-05-03T06:39:08.007Z</time></trkpt><trkpt lat="45.9732187642273" lon="9.1953575438497"><ele>221.0</ele><time>2026-05-03T06:39:09.007Z</time></trkpt><trkpt lat="45.973376599392914" lon="9.195529809851477"><ele>219.33333333333334</ele><time>2026-05-03T06:39:10.007Z</time></trkpt><trkpt lat="45.973530663938725" lon="9.195703100382364"><ele>217.66666666666669</ele><time>2026-05-03T06:39:11.007Z</time></trkpt><trkpt lat="45.97368924785616" lon="9.19590263994951"><ele>216.0</ele><time>2026-05-03T06:39:12.007Z</time></trkpt><trkpt lat="45.97385367615575" lon="9.196118984192118"><ele>216.0</ele><time>2026-05-03T06:39:13.007Z</time></trkpt><trkpt lat="45.97402677637935" lon="9.196344109876803"><ele>216.0</ele><time>2026-05-03T06:39:14.007Z</time></trkpt><trkpt lat="45.97419365738503" lon="9.196561899570126"><ele>220.0</ele><time>2026-05-03T06:39:15.007Z</time></trkpt><trkpt lat="45.974367133094034" lon="9.196773495265804"><ele>224.0</ele><time>2026-05-03T06:39:16.007Z</time></trkpt><trkpt lat="45.974541442403634" lon="9.196983216138058"><ele>224.0</ele><time>2026-05-03T06:39:17.007Z</time></trkpt><trkpt lat="45.97471148844057" lon="9.197190949987073"><ele>224.0</ele><time>2026-05-03T06:39:18.007Z</time></trkpt><trkpt lat="45.97487042819932" lon="9.197384894050735"><ele>224.0</ele><time>2026-05-03T06:39:19.007Z</time></trkpt><trkpt lat="45.97500883975004" lon="9.197562861111688"><ele>224.66666666666669</ele><time>2026-05-03T06:39:20.007Z</time></trkpt><trkpt lat="45.975142655760905" lon="9.197730387894541"><ele>225.33333333333331</ele><time>2026-05-03T06:39:21.007Z</time></trkpt><trkpt lat="45.97526735454669" lon="9.197933014979762"><ele>226.0</ele><time>2026-05-03T06:39:22.007Z</time></trkpt><trkpt lat="45.9754015719898" lon="9.19814148980769"><ele>223.66666666666666</ele><time>2026-05-03T06:39:23.007Z</time></trkpt><trkpt lat="45.97553197972266" lon="9.198368731427141"><ele>221.33333333333331</ele><time>2026-05-03T06:39:24.007Z</time></trkpt><trkpt lat="45.975702894496706" lon="9.198602827580178"><ele>219.0</ele><time>2026-05-03T06:39:25.007Z</time></trkpt><trkpt lat="45.9758695484156" lon="9.198848138543442"><ele>221.0</ele><time>2026-05-03T06:39:26.007Z</time></trkpt><trkpt lat="45.976034018273616" lon="9.199088540049233"><ele>223.0</ele><time>2026-05-03T06:39:27.007Z</time></trkpt><trkpt lat="45.97620055981254" lon="9.199337287861999"><ele>223.0</ele><time>2026-05-03T06:39:28.007Z</time></trkpt><trkpt lat="45.97636061676543" lon="9.199580082045088"><ele>223.0</ele><time>2026-05-03T06:39:29.007Z</time></trkpt><trkpt lat="45.97650873392644" lon="9.199794273609486"><ele>223.0</ele><time>2026-05-03T06:39:30.007Z</time></trkpt><trkpt lat="45.97664703196094" lon="9.200012000219173"><ele>224.33333333333331</ele><time>2026-05-03T06:39:31.007Z</time></trkpt><trkpt lat="45.9767595799597" lon="9.200276635344661"><ele>225.66666666666669</ele><time>2026-05-03T06:39:32.007Z</time></trkpt><trkpt lat="45.97688184408673" lon="9.200533577825793"><ele>227.0</ele><time>2026-05-03T06:39:33.007Z</time></trkpt><trkpt lat="45.97697998185547" lon="9.200791013805022"><ele>227.0</ele><time>2026-05-03T06:39:34.007Z</time></trkpt><trkpt lat="45.97707739475038" lon="9.201030444416368"><ele>227.0</ele><time>2026-05-03T06:39:35.007Z</time></trkpt><trkpt lat="45.977185722417346" lon="9.201255428835283"><ele>227.0</ele><time>2026-05-03T06:39:36.007Z</time></trkpt><trkpt lat="45.97731930850766" lon="9.20144902814102"><ele>226.33333333333334</ele><time>2026-05-03T06:39:37.007Z</time></trkpt><trkpt lat="45.97748343974586" lon="9.201628454682794"><ele>225.66666666666669</ele><time>2026-05-03T06:39:38.007Z</time></trkpt><trkpt lat="45.97766421025687" lon="9.201824506214274"><ele>225.0</ele><time>2026-05-03T06:39:39.007Z</time></trkpt><trkpt lat="45.9778369864373" lon="9.202046406866764"><ele>225.0</ele><time>2026-05-03T06:39:40.007Z</time></trkpt><trkpt lat="45.97799809915084" lon="9.20230028282733"><ele>225.0</ele><time>2026-05-03T06:39:41.007Z</time></trkpt><trkpt lat="45.97816173429074" lon="9.20254965327088"><ele>225.0</ele><time>2026-05-03T06:39:42.007Z</time></trkpt><trkpt lat="45.97831493890866" lon="9.202793432233918"><ele>225.0</ele><time>2026-05-03T06:39:43.007Z</time></trkpt><trkpt lat="45.978455068846685" lon="9.20301919144008"><ele>225.0</ele><time>2026-05-03T06:39:44.007Z</time></trkpt><trkpt lat="45.97859384644858" lon="9.203192507161264"><ele>222.33333333333331</ele><time>2026-05-03T06:39:45.007Z</time></trkpt><trkpt lat="45.97873269566965" lon="9.20334817017224"><ele>219.66666666666666</ele><time>2026-05-03T06:39:46.007Z</time></trkpt><trkpt lat="45.97889428660831" lon="9.203463342598731"><ele>217.0</ele><time>2026-05-03T06:39:47.006Z</time></trkpt><trkpt lat="45.97906835577283" lon="9.203569676792178"><ele>218.0</ele><time>2026-05-03T06:39:48.007Z</time></trkpt><trkpt lat="45.97925367380977" lon="9.203686703922498"><ele>219.0</ele><time>2026-05-03T06:39:49.007Z</time></trkpt><trkpt lat="45.97943773224835" lon="9.203819866827624"><ele>220.0</ele><time>2026-05-03T06:39:50.006Z</time></trkpt><trkpt lat="45.97959314621523" lon="9.204009211089662"><ele>220.0</ele><time>2026-05-03T06:39:51.007Z</time></trkpt><trkpt lat="45.97973786271252" lon="9.20421053760324"><ele>220.0</ele><time>2026-05-03T06:39:52.007Z</time></trkpt><trkpt lat="45.97988899300262" lon="9.204422386871935"><ele>220.0</ele><time>2026-05-03T06:39:53.007Z</time></trkpt><trkpt lat="45.98004629273847" lon="9.204622085019519"><ele>221.0</ele><time>2026-05-03T06:39:54.007Z</time></trkpt><trkpt lat="45.9801896914513" lon="9.20484968669109"><ele>222.0</ele><time>2026-05-03T06:39:55.007Z</time></trkpt><trkpt lat="45.98032390238874" lon="9.20508164651402"><ele>223.0</ele><time>2026-05-03T06:39:56.007Z</time></trkpt><trkpt lat="45.98044522321164" lon="9.2053158537555"><ele>223.0</ele><time>2026-05-03T06:39:57.007Z</time></trkpt><trkpt lat="45.98053837367809" lon="9.205529281423097"><ele>223.0</ele><time>2026-05-03T06:39:58.007Z</time></trkpt><trkpt lat="45.980622264443795" lon="9.205711829997444"><ele>223.0</ele><time>2026-05-03T06:39:59.006Z</time></trkpt><trkpt lat="45.98067235923193" lon="9.20589689939448"><ele>221.5</ele><time>2026-05-03T06:40:00.007Z</time></trkpt><trkpt lat="45.980741368479926" lon="9.206053937553314"><ele>220.0</ele><time>2026-05-03T06:40:01.007Z</time></trkpt><trkpt lat="45.98079495045204" lon="9.206209459342777"><ele>218.5</ele><time>2026-05-03T06:40:02.007Z</time></trkpt><trkpt lat="45.98084700937728" lon="9.206346359650015"><ele>217.0</ele><time>2026-05-03T06:40:03.007Z</time></trkpt><trkpt lat="45.98091916975476" lon="9.206456491502788"><ele>217.49999999999997</ele><time>2026-05-03T06:40:04.007Z</time></trkpt><trkpt lat="45.98098460872387" lon="9.20657622866012"><ele>218.0</ele><time>2026-05-03T06:40:05.007Z</time></trkpt><trkpt lat="45.981048201386905" lon="9.2066608498506"><ele>218.5</ele><time>2026-05-03T06:40:06.007Z</time></trkpt><trkpt lat="45.98110555665468" lon="9.206747185748478"><ele>219.0</ele><time>2026-05-03T06:40:07.007Z</time></trkpt><trkpt lat="45.98116495025615" lon="9.206813815684756"><ele>219.49999999999997</ele><time>2026-05-03T06:40:08.007Z</time></trkpt><trkpt lat="45.98119096898797" lon="9.206906447898923"><ele>220.0</ele><time>2026-05-03T06:40:09.007Z</time></trkpt><trkpt lat="45.981205242591905" lon="9.206995200060828"><ele>220.0</ele><time>2026-05-03T06:40:10.007Z</time></trkpt><trkpt lat="45.98124548358302" lon="9.207155916819572"><ele>220.0</ele><time>2026-05-03T06:40:12.007Z</time></trkpt><trkpt lat="45.98128049348781" lon="9.207256528497263"><ele>220.0</ele><time>2026-05-03T06:40:13.007Z</time></trkpt><trkpt lat="45.981310740601415" lon="9.207383762112828"><ele>220.0</ele><time>2026-05-03T06:40:14.007Z</time></trkpt><trkpt lat="45.98133410439677" lon="9.207500013385737"><ele>220.0</ele><time>2026-05-03T06:40:15.007Z</time></trkpt><trkpt lat="45.98137070013979" lon="9.207598152704776"><ele>219.4</ele><time>2026-05-03T06:40:16.007Z</time></trkpt><trkpt lat="45.981395812987856" lon="9.207770235137492"><ele>218.8</ele><time>2026-05-03T06:40:18.007Z</time></trkpt><trkpt lat="45.98139416702553" lon="9.207863546154876"><ele>218.2</ele><time>2026-05-03T06:40:19.007Z</time></trkpt><trkpt lat="45.981410512671744" lon="9.207987539265172"><ele>217.6</ele><time>2026-05-03T06:40:20.007Z</time></trkpt><trkpt lat="45.98141563319687" lon="9.208146147126369"><ele>217.0</ele><time>2026-05-03T06:40:21.007Z</time></trkpt><trkpt lat="45.98140804108631" lon="9.208311600858696"><ele>216.8</ele><time>2026-05-03T06:40:22.007Z</time></trkpt><trkpt lat="45.98138505715105" lon="9.208479733107415"><ele>216.6</ele><time>2026-05-03T06:40:23.007Z</time></trkpt><trkpt lat="45.98136701930136" lon="9.208637011954698"><ele>216.40000000000003</ele><time>2026-05-03T06:40:24.007Z</time></trkpt><trkpt lat="45.98133233229246" lon="9.208785076367377"><ele>216.20000000000002</ele><time>2026-05-03T06:40:25.007Z</time></trkpt><trkpt lat="45.98128497831597" lon="9.20892831113895"><ele>216.0</ele><time>2026-05-03T06:40:26.007Z</time></trkpt><trkpt lat="45.98123755689983" lon="9.209074936126305"><ele>216.0</ele><time>2026-05-03T06:40:27.007Z</time></trkpt><trkpt lat="45.981187304235476" lon="9.209224072754056"><ele>216.0</ele><time>2026-05-03T06:40:28.007Z</time></trkpt><trkpt lat="45.981150311533966" lon="9.20938760797655"><ele>216.0</ele><time>2026-05-03T06:40:29.007Z</time></trkpt><trkpt lat="45.98113228055141" lon="9.209566334357396"><ele>216.0</ele><time>2026-05-03T06:40:30.007Z</time></trkpt><trkpt lat="45.981129902780346" lon="9.20974694857023"><ele>215.8</ele><time>2026-05-03T06:40:31.007Z</time></trkpt><trkpt lat="45.9811375206662" lon="9.20991467178793"><ele>215.60000000000002</ele><time>2026-05-03T06:40:32.007Z</time></trkpt><trkpt lat="45.98115040551702" lon="9.210071531118004"><ele>215.4</ele><time>2026-05-03T06:40:33.007Z</time></trkpt><trkpt lat="45.98115947777011" lon="9.210228754990736"><ele>215.2</ele><time>2026-05-03T06:40:34.007Z</time></trkpt><trkpt lat="45.98117598399909" lon="9.210383705086786"><ele>215.0</ele><time>2026-05-03T06:40:35.007Z</time></trkpt><trkpt lat="45.98118924256153" lon="9.210541556663596"><ele>215.25</ele><time>2026-05-03T06:40:36.007Z</time></trkpt><trkpt lat="45.98120805329639" lon="9.210703487280968"><ele>215.5</ele><time>2026-05-03T06:40:37.007Z</time></trkpt><trkpt lat="45.98120617858526" lon="9.210874988880663"><ele>215.75</ele><time>2026-05-03T06:40:38.007Z</time></trkpt><trkpt lat="45.98119319901596" lon="9.211043179651957"><ele>216.0</ele><time>2026-05-03T06:40:39.007Z</time></trkpt><trkpt lat="45.9811808041148" lon="9.211218207698447"><ele>216.0</ele><time>2026-05-03T06:40:40.007Z</time></trkpt><trkpt lat="45.981166878705444" lon="9.211380361500012"><ele>216.00000000000003</ele><time>2026-05-03T06:40:41.007Z</time></trkpt><trkpt lat="45.98115039279794" lon="9.21153913897779"><ele>216.00000000000003</ele><time>2026-05-03T06:40:42.007Z</time></trkpt><trkpt lat="45.98113614689958" lon="9.211692177850823"><ele>216.0</ele><time>2026-05-03T06:40:43.007Z</time></trkpt><trkpt lat="45.981125166966166" lon="9.211844050758847"><ele>216.0</ele><time>2026-05-03T06:40:44.007Z</time></trkpt><trkpt lat="45.98111322511127" lon="9.211998386210782"><ele>216.4</ele><time>2026-05-03T06:40:45.007Z</time></trkpt><trkpt lat="45.98111315596932" lon="9.212147144538985"><ele>216.8</ele><time>2026-05-03T06:40:46.007Z</time></trkpt><trkpt lat="45.98112637571597" lon="9.212283462573104"><ele>217.20000000000002</ele><time>2026-05-03T06:40:47.007Z</time></trkpt><trkpt lat="45.98115001544603" lon="9.212412760950409"><ele>217.60000000000002</ele><time>2026-05-03T06:40:48.007Z</time></trkpt><trkpt lat="45.981180089903326" lon="9.212542919660727"><ele>218.0</ele><time>2026-05-03T06:40:49.007Z</time></trkpt><trkpt lat="45.98121060592342" lon="9.212679813339145"><ele>217.2</ele><time>2026-05-03T06:40:50.007Z</time></trkpt><trkpt lat="45.98123695945764" lon="9.212828835227961"><ele>216.4</ele><time>2026-05-03T06:40:51.007Z</time></trkpt><trkpt lat="45.98126459599688" lon="9.212984260748257"><ele>215.59999999999997</ele><time>2026-05-03T06:40:52.007Z</time></trkpt><trkpt lat="45.981296910240275" lon="9.21312998764705"><ele>214.79999999999998</ele><time>2026-05-03T06:40:53.007Z</time></trkpt><trkpt lat="45.98133037874681" lon="9.213270871961853"><ele>214.0</ele><time>2026-05-03T06:40:54.007Z</time></trkpt><trkpt lat="45.98136914542508" lon="9.213393005398343"><ele>213.2</ele><time>2026-05-03T06:40:55.007Z</time></trkpt><trkpt lat="45.98141488448351" lon="9.213513257093219"><ele>212.39999999999998</ele><time>2026-05-03T06:40:56.007Z</time></trkpt><trkpt lat="45.981461213466666" lon="9.21363482715094"><ele>211.6</ele><time>2026-05-03T06:40:57.007Z</time></trkpt><trkpt lat="45.98152067075873" lon="9.21375694700003"><ele>210.8</ele><time>2026-05-03T06:40:58.007Z</time></trkpt><trkpt lat="45.9815857104282" lon="9.213882771639422"><ele>210.0</ele><time>2026-05-03T06:40:59.007Z</time></trkpt><trkpt lat="45.98162173701277" lon="9.21401068359076"><ele>209.16666666666666</ele><time>2026-05-03T06:41:00.007Z</time></trkpt><trkpt lat="45.98166935826725" lon="9.214122900160415"><ele>208.33333333333331</ele><time>2026-05-03T06:41:01.007Z</time></trkpt><trkpt lat="45.9817257586279" lon="9.21423402741391"><ele>207.5</ele><time>2026-05-03T06:41:02.007Z</time></trkpt><trkpt lat="45.98178941300332" lon="9.21432844557877"><ele>206.66666666666666</ele><time>2026-05-03T06:41:03.007Z</time></trkpt><trkpt lat="45.98185082734643" lon="9.214413775622257"><ele>205.83333333333331</ele><time>2026-05-03T06:41:04.007Z</time></trkpt><trkpt lat="45.98191416790775" lon="9.214496787629358"><ele>205.0</ele><time>2026-05-03T06:41:05.007Z</time></trkpt><trkpt lat="45.98197851783826" lon="9.214569963289575"><ele>205.25</ele><time>2026-05-03T06:41:06.007Z</time></trkpt><trkpt lat="45.98204548893037" lon="9.214645292318242"><ele>205.5</ele><time>2026-05-03T06:41:07.007Z</time></trkpt><trkpt lat="45.982112169178805" lon="9.214746321236277"><ele>205.75</ele><time>2026-05-03T06:41:08.007Z</time></trkpt><trkpt lat="45.98215863149498" lon="9.214904860718915"><ele>206.0</ele><time>2026-05-03T06:41:09.007Z</time></trkpt><trkpt lat="45.98222585381857" lon="9.215097289864609"><ele>206.0</ele><time>2026-05-03T06:41:10.007Z</time></trkpt><trkpt lat="45.98230640154134" lon="9.21528932464884"><ele>206.0</ele><time>2026-05-03T06:41:11.007Z</time></trkpt><trkpt lat="45.982409341609596" lon="9.215448975506922"><ele>206.0</ele><time>2026-05-03T06:41:12.007Z</time></trkpt><trkpt lat="45.98248158797463" lon="9.215613746153288"><ele>206.0</ele><time>2026-05-03T06:41:13.007Z</time></trkpt><trkpt lat="45.98253905175212" lon="9.215776773147217"><ele>210.66666666666669</ele><time>2026-05-03T06:41:14.007Z</time></trkpt><trkpt lat="45.9825708223638" lon="9.215945494677703"><ele>215.33333333333331</ele><time>2026-05-03T06:41:15.007Z</time></trkpt><trkpt lat="45.982558356494785" lon="9.216164177873882"><ele>220.0</ele><time>2026-05-03T06:41:16.007Z</time></trkpt><trkpt lat="45.98255358737719" lon="9.21642368768791"><ele>220.25</ele><time>2026-05-03T06:41:17.007Z</time></trkpt><trkpt lat="45.98255311401835" lon="9.216656641950824"><ele>220.5</ele><time>2026-05-03T06:41:18.007Z</time></trkpt><trkpt lat="45.98252031965281" lon="9.216859973972769"><ele>220.75</ele><time>2026-05-03T06:41:19.007Z</time></trkpt><trkpt lat="45.98248218485425" lon="9.21705051620866"><ele>221.0</ele><time>2026-05-03T06:41:20.007Z</time></trkpt><trkpt lat="45.98244184057313" lon="9.217289251911966"><ele>216.0</ele><time>2026-05-03T06:41:21.007Z</time></trkpt><trkpt lat="45.98239426869593" lon="9.217570780462744"><ele>211.0</ele><time>2026-05-03T06:41:22.007Z</time></trkpt><trkpt lat="45.98236327098658" lon="9.217844768657951"><ele>206.0</ele><time>2026-05-03T06:41:23.007Z</time></trkpt><trkpt lat="45.98231222136061" lon="9.218106583148032"><ele>208.0</ele><time>2026-05-03T06:41:24.007Z</time></trkpt><trkpt lat="45.982267436931735" lon="9.21838170859359"><ele>210.0</ele><time>2026-05-03T06:41:25.007Z</time></trkpt><trkpt lat="45.98221777312516" lon="9.218645919555376"><ele>212.0</ele><time>2026-05-03T06:41:26.007Z</time></trkpt><trkpt lat="45.982163721761594" lon="9.218874133262206"><ele>212.33333333333334</ele><time>2026-05-03T06:41:27.007Z</time></trkpt><trkpt lat="45.98208079033596" lon="9.219069717290967"><ele>212.66666666666669</ele><time>2026-05-03T06:41:28.007Z</time></trkpt><trkpt lat="45.98200803887772" lon="9.219266068337413"><ele>213.0</ele><time>2026-05-03T06:41:29.007Z</time></trkpt><trkpt lat="45.981930841009564" lon="9.219473363174613"><ele>213.0</ele><time>2026-05-03T06:41:30.007Z</time></trkpt><trkpt lat="45.98186108959649" lon="9.219696147003598"><ele>213.0</ele><time>2026-05-03T06:41:31.007Z</time></trkpt><trkpt lat="45.98178022358412" lon="9.219925767674065"><ele>213.0</ele><time>2026-05-03T06:41:32.007Z</time></trkpt><trkpt lat="45.9817245426091" lon="9.22017722169913"><ele>214.66666666666669</ele><time>2026-05-03T06:41:33.007Z</time></trkpt><trkpt lat="45.9816812411862" lon="9.220425790148026"><ele>216.33333333333334</ele><time>2026-05-03T06:41:34.007Z</time></trkpt><trkpt lat="45.98168227556712" lon="9.220708983840547"><ele>218.0</ele><time>2026-05-03T06:41:35.007Z</time></trkpt><trkpt lat="45.981677268255154" lon="9.220961446422454"><ele>215.0</ele><time>2026-05-03T06:41:36.007Z</time></trkpt><trkpt lat="45.981671718488776" lon="9.221205240717728"><ele>212.0</ele><time>2026-05-03T06:41:37.007Z</time></trkpt><trkpt lat="45.98165794767456" lon="9.22143364469479"><ele>209.0</ele><time>2026-05-03T06:41:38.007Z</time></trkpt><trkpt lat="45.981662131494375" lon="9.221644043147622"><ele>211.5</ele><time>2026-05-03T06:41:39.007Z</time></trkpt><trkpt lat="45.981690544151874" lon="9.221807380173495"><ele>214.0</ele><time>2026-05-03T06:41:40.007Z</time></trkpt><trkpt lat="45.981705420717425" lon="9.221952048642015"><ele>216.5</ele><time>2026-05-03T06:41:41.007Z</time></trkpt><trkpt lat="45.98175396463003" lon="9.222126259843801"><ele>219.0</ele><time>2026-05-03T06:41:42.007Z</time></trkpt><trkpt lat="45.98184437892997" lon="9.22231224452495"><ele>218.66666666666669</ele><time>2026-05-03T06:41:43.007Z</time></trkpt><trkpt lat="45.981944618759464" lon="9.222520571130985"><ele>218.33333333333334</ele><time>2026-05-03T06:41:44.007Z</time></trkpt><trkpt lat="45.982072830608246" lon="9.22270011120607"><ele>218.0</ele><time>2026-05-03T06:41:45.007Z</time></trkpt><trkpt lat="45.982219426491795" lon="9.222909481376956"><ele>218.0</ele><time>2026-05-03T06:41:46.007Z</time></trkpt><trkpt lat="45.982367181169124" lon="9.223117058683307"><ele>218.0</ele><time>2026-05-03T06:41:47.007Z</time></trkpt><trkpt lat="45.98252477241726" lon="9.223339985364305"><ele>218.0</ele><time>2026-05-03T06:41:48.007Z</time></trkpt><trkpt lat="45.98266348922817" lon="9.223558026203605"><ele>220.0</ele><time>2026-05-03T06:41:49.007Z</time></trkpt><trkpt lat="45.98276691046979" lon="9.223796035859866"><ele>222.0</ele><time>2026-05-03T06:41:50.007Z</time></trkpt><trkpt lat="45.98279457399811" lon="9.224061160802124"><ele>224.0</ele><time>2026-05-03T06:41:51.007Z</time></trkpt><trkpt lat="45.98280281066363" lon="9.22432849268778"><ele>224.0</ele><time>2026-05-03T06:41:52.007Z</time></trkpt><trkpt lat="45.982811226647485" lon="9.224601511771635"><ele>224.0</ele><time>2026-05-03T06:41:53.007Z</time></trkpt><trkpt lat="45.982834625647634" lon="9.224871561233499"><ele>224.0</ele><time>2026-05-03T06:41:54.007Z</time></trkpt><trkpt lat="45.982886289184876" lon="9.225115780472672"><ele>222.33333333333334</ele><time>2026-05-03T06:41:55.006Z</time></trkpt><trkpt lat="45.98297171505465" lon="9.225360718487988"><ele>220.66666666666669</ele><time>2026-05-03T06:41:56.007Z</time></trkpt><trkpt lat="45.983078856211975" lon="9.225604625692913"><ele>219.0</ele><time>2026-05-03T06:41:57.007Z</time></trkpt><trkpt lat="45.98320068758632" lon="9.225836208679985"><ele>220.66666666666669</ele><time>2026-05-03T06:41:58.006Z</time></trkpt><trkpt lat="45.98332113874141" lon="9.22608274051787"><ele>222.33333333333334</ele><time>2026-05-03T06:41:59.006Z</time></trkpt><trkpt lat="45.98343361837058" lon="9.226318279713732"><ele>224.0</ele><time>2026-05-03T06:42:00.006Z</time></trkpt><trkpt lat="45.98352856398333" lon="9.226563793307115"><ele>224.0</ele><time>2026-05-03T06:42:01.006Z</time></trkpt><trkpt lat="45.98363658143078" lon="9.226796371624287"><ele>224.0</ele><time>2026-05-03T06:42:02.006Z</time></trkpt><trkpt lat="45.98373056199415" lon="9.2270321926563"><ele>224.0</ele><time>2026-05-03T06:42:03.006Z</time></trkpt><trkpt lat="45.98380945131884" lon="9.227270356540044"><ele>219.66666666666669</ele><time>2026-05-03T06:42:04.006Z</time></trkpt><trkpt lat="45.9839032435099" lon="9.227501365916899"><ele>215.33333333333331</ele><time>2026-05-03T06:42:05.006Z</time></trkpt><trkpt lat="45.9840230754792" lon="9.227694348386217"><ele>211.0</ele><time>2026-05-03T06:42:06.006Z</time></trkpt><trkpt lat="45.9841510716333" lon="9.227862386175511"><ele>214.0</ele><time>2026-05-03T06:42:07.006Z</time></trkpt><trkpt lat="45.98427926033337" lon="9.228018999807729"><ele>217.0</ele><time>2026-05-03T06:42:08.006Z</time></trkpt><trkpt lat="45.98440401652968" lon="9.228174668060985"><ele>220.0</ele><time>2026-05-03T06:42:09.006Z</time></trkpt><trkpt lat="45.98453055557912" lon="9.228332470078517"><ele>220.0</ele><time>2026-05-03T06:42:10.006Z</time></trkpt><trkpt lat="45.984657553491274" lon="9.228508672232866"><ele>220.0</ele><time>2026-05-03T06:42:11.006Z</time></trkpt><trkpt lat="45.984782523204224" lon="9.228686460655602"><ele>220.0</ele><time>2026-05-03T06:42:12.006Z</time></trkpt><trkpt lat="45.98490639202056" lon="9.228877387867907"><ele>226.66666666666666</ele><time>2026-05-03T06:42:13.006Z</time></trkpt><trkpt lat="45.98502094165757" lon="9.229083191039228"><ele>233.33333333333331</ele><time>2026-05-03T06:42:14.006Z</time></trkpt><trkpt lat="45.98513343221239" lon="9.229280239922794"><ele>240.0</ele><time>2026-05-03T06:42:15.006Z</time></trkpt><trkpt lat="45.98523316349945" lon="9.229467047014237"><ele>240.0</ele><time>2026-05-03T06:42:16.006Z</time></trkpt><trkpt lat="45.98531734928601" lon="9.229635409042373"><ele>240.0</ele><time>2026-05-03T06:42:17.006Z</time></trkpt><trkpt lat="45.98539488122598" lon="9.229799384169077"><ele>240.0</ele><time>2026-05-03T06:42:18.006Z</time></trkpt><trkpt lat="45.985459004962976" lon="9.229957696135838"><ele>240.0</ele><time>2026-05-03T06:42:19.006Z</time></trkpt><trkpt lat="45.98551103477996" lon="9.23012164346359"><ele>236.5</ele><time>2026-05-03T06:42:20.006Z</time></trkpt><trkpt lat="45.98553075712786" lon="9.230324438466157"><ele>233.0</ele><time>2026-05-03T06:42:21.006Z</time></trkpt><trkpt lat="45.985567709643085" lon="9.230477064747527"><ele>229.5</ele><time>2026-05-03T06:42:22.006Z</time></trkpt><trkpt lat="45.98561183845353" lon="9.23062998377209"><ele>226.0</ele><time>2026-05-03T06:42:23.006Z</time></trkpt><trkpt lat="45.98567598736214" lon="9.230772853319978"><ele>227.5</ele><time>2026-05-03T06:42:24.006Z</time></trkpt><trkpt lat="45.98575522932662" lon="9.230908573977883"><ele>229.0</ele><time>2026-05-03T06:42:25.006Z</time></trkpt><trkpt lat="45.98583214983273" lon="9.231040923323118"><ele>230.5</ele><time>2026-05-03T06:42:26.006Z</time></trkpt><trkpt lat="45.985908154621825" lon="9.231184133212455"><ele>232.0</ele><time>2026-05-03T06:42:27.006Z</time></trkpt><trkpt lat="45.985972353469016" lon="9.231337217975021"><ele>228.75</ele><time>2026-05-03T06:42:28.006Z</time></trkpt><trkpt lat="45.98604408104523" lon="9.231482928557991"><ele>225.5</ele><time>2026-05-03T06:42:29.006Z</time></trkpt><trkpt lat="45.98615191332352" lon="9.23162654669249"><ele>222.25</ele><time>2026-05-03T06:42:30.006Z</time></trkpt><trkpt lat="45.986284492675026" lon="9.231785575300615"><ele>219.0</ele><time>2026-05-03T06:42:31.006Z</time></trkpt><trkpt lat="45.986425857416656" lon="9.23196461822887"><ele>219.0</ele><time>2026-05-03T06:42:32.006Z</time></trkpt><trkpt lat="45.986549034943764" lon="9.232160494701382"><ele>219.0</ele><time>2026-05-03T06:42:33.006Z</time></trkpt><trkpt lat="45.98666133307427" lon="9.232380296316904"><ele>219.0</ele><time>2026-05-03T06:42:34.006Z</time></trkpt><trkpt lat="45.986784085765684" lon="9.232611881825159"><ele>219.0</ele><time>2026-05-03T06:42:35.006Z</time></trkpt><trkpt lat="45.98690735722612" lon="9.232845807996734"><ele>219.0</ele><time>2026-05-03T06:42:36.006Z</time></trkpt><trkpt lat="45.98702638679704" lon="9.233047242006513"><ele>219.0</ele><time>2026-05-03T06:42:37.006Z</time></trkpt><trkpt lat="45.98713692101046" lon="9.23323145594431"><ele>219.0</ele><time>2026-05-03T06:42:38.006Z</time></trkpt><trkpt lat="45.987233575399465" lon="9.233413325003784"><ele>219.0</ele><time>2026-05-03T06:42:39.006Z</time></trkpt><trkpt lat="45.98731969141848" lon="9.233603223251924"><ele>219.0</ele><time>2026-05-03T06:42:40.006Z</time></trkpt><trkpt lat="45.987410053902245" lon="9.233799490087085"><ele>220.33333333333331</ele><time>2026-05-03T06:42:41.006Z</time></trkpt><trkpt lat="45.98750135384288" lon="9.234006759876666"><ele>221.66666666666666</ele><time>2026-05-03T06:42:42.006Z</time></trkpt><trkpt lat="45.98761860601907" lon="9.234200354559992"><ele>223.0</ele><time>2026-05-03T06:42:43.006Z</time></trkpt><trkpt lat="45.987725801881865" lon="9.234429951419981"><ele>223.0</ele><time>2026-05-03T06:42:44.006Z</time></trkpt><trkpt lat="45.98780548172751" lon="9.234664660620727"><ele>223.0</ele><time>2026-05-03T06:42:45.006Z</time></trkpt><trkpt lat="45.987889990399616" lon="9.234872237458838"><ele>223.0</ele><time>2026-05-03T06:42:46.006Z</time></trkpt><trkpt lat="45.98798013497277" lon="9.235050769231202"><ele>219.25</ele><time>2026-05-03T06:42:47.006Z</time></trkpt><trkpt lat="45.988040325875716" lon="9.235228705218287"><ele>215.5</ele><time>2026-05-03T06:42:48.006Z</time></trkpt><trkpt lat="45.988135100687224" lon="9.235369292631537"><ele>211.75</ele><time>2026-05-03T06:42:49.006Z</time></trkpt><trkpt lat="45.98823447072298" lon="9.235483664246138"><ele>208.0</ele><time>2026-05-03T06:42:50.006Z</time></trkpt><trkpt lat="45.98833758497841" lon="9.235590813029882"><ele>210.66666666666666</ele><time>2026-05-03T06:42:51.006Z</time></trkpt><trkpt lat="45.988459457491984" lon="9.235656500618251"><ele>213.33333333333331</ele><time>2026-05-03T06:42:52.006Z</time></trkpt><trkpt lat="45.98860913583298" lon="9.235794254686017"><ele>216.0</ele><time>2026-05-03T06:42:53.006Z</time></trkpt><trkpt lat="45.988777571601354" lon="9.23594451150425"><ele>216.0</ele><time>2026-05-03T06:42:54.006Z</time></trkpt><trkpt lat="45.98894094769908" lon="9.236069232231316"><ele>216.0</ele><time>2026-05-03T06:42:55.006Z</time></trkpt><trkpt lat="45.989099650270916" lon="9.236178117289867"><ele>216.0</ele><time>2026-05-03T06:42:56.006Z</time></trkpt><trkpt lat="45.98925219010255" lon="9.236281467180147"><ele>215.0</ele><time>2026-05-03T06:42:57.006Z</time></trkpt><trkpt lat="45.98939469892424" lon="9.23639960756439"><ele>214.0</ele><time>2026-05-03T06:42:58.006Z</time></trkpt><trkpt lat="45.989535691994014" lon="9.236507588981963"><ele>213.0</ele><time>2026-05-03T06:42:59.006Z</time></trkpt><trkpt lat="45.98966741272973" lon="9.23661758695426"><ele>213.0</ele><time>2026-05-03T06:43:00.006Z</time></trkpt><trkpt lat="45.98978864557146" lon="9.236709831858809"><ele>213.0</ele><time>2026-05-03T06:43:01.007Z</time></trkpt><trkpt lat="45.989898466043236" lon="9.236787896350501"><ele>213.0</ele><time>2026-05-03T06:43:02.007Z</time></trkpt><trkpt lat="45.99002042314688" lon="9.236859572503073"><ele>213.0</ele><time>2026-05-03T06:43:03.007Z</time></trkpt><trkpt lat="45.99014249147418" lon="9.236974699774178"><ele>217.0</ele><time>2026-05-03T06:43:04.007Z</time></trkpt><trkpt lat="45.990278331038255" lon="9.237042043019592"><ele>221.0</ele><time>2026-05-03T06:43:05.007Z</time></trkpt><trkpt lat="45.99041287768509" lon="9.237113073843231"><ele>225.0</ele><time>2026-05-03T06:43:06.007Z</time></trkpt><trkpt lat="45.99055150352466" lon="9.237184666046824"><ele>229.0</ele><time>2026-05-03T06:43:07.007Z</time></trkpt><trkpt lat="45.99068111786573" lon="9.237256534518767"><ele>225.25</ele><time>2026-05-03T06:43:08.007Z</time></trkpt><trkpt lat="45.99080684799161" lon="9.237331977505107"><ele>221.5</ele><time>2026-05-03T06:43:09.007Z</time></trkpt><trkpt lat="45.99093418969313" lon="9.237406141846503"><ele>217.75</ele><time>2026-05-03T06:43:10.007Z</time></trkpt><trkpt lat="45.991070532974994" lon="9.237472652530354"><ele>214.0</ele><time>2026-05-03T06:43:11.007Z</time></trkpt><trkpt lat="45.99122226132732" lon="9.237573824963034"><ele>214.0</ele><time>2026-05-03T06:43:12.007Z</time></trkpt><trkpt lat="45.99140131584647" lon="9.237677682873485"><ele>214.0</ele><time>2026-05-03T06:43:13.007Z</time></trkpt><trkpt lat="45.99159856849179" lon="9.237789577623097"><ele>214.0</ele><time>2026-05-03T06:43:14.007Z</time></trkpt><trkpt lat="45.99179204194416" lon="9.237897920465361"><ele>215.0</ele><time>2026-05-03T06:43:15.007Z</time></trkpt><trkpt lat="45.991976724015785" lon="9.238001770838704"><ele>216.0</ele><time>2026-05-03T06:43:16.007Z</time></trkpt><trkpt lat="45.99215668700335" lon="9.238107443578706"><ele>217.0</ele><time>2026-05-03T06:43:17.007Z</time></trkpt><trkpt lat="45.99233390505341" lon="9.238212684179093"><ele>214.33333333333331</ele><time>2026-05-03T06:43:18.007Z</time></trkpt><trkpt lat="45.992507318341204" lon="9.23830450848108"><ele>211.66666666666669</ele><time>2026-05-03T06:43:19.007Z</time></trkpt><trkpt lat="45.992682447356835" lon="9.238388101954524"><ele>209.0</ele><time>2026-05-03T06:43:20.007Z</time></trkpt><trkpt lat="45.99286089612727" lon="9.238470469544485"><ele>209.0</ele><time>2026-05-03T06:43:21.007Z</time></trkpt><trkpt lat="45.99304265139716" lon="9.238553911886028"><ele>209.0</ele><time>2026-05-03T06:43:22.007Z</time></trkpt><trkpt lat="45.99322196114395" lon="9.238635696217681"><ele>209.0</ele><time>2026-05-03T06:43:23.007Z</time></trkpt><trkpt lat="45.99339100222679" lon="9.238687314301174"><ele>211.0</ele><time>2026-05-03T06:43:24.007Z</time></trkpt><trkpt lat="45.99354366819732" lon="9.23875905492679"><ele>213.0</ele><time>2026-05-03T06:43:25.007Z</time></trkpt><trkpt lat="45.99369154135118" lon="9.238830704638422"><ele>215.0</ele><time>2026-05-03T06:43:26.007Z</time></trkpt><trkpt lat="45.99386230666931" lon="9.238911677557537"><ele>211.0</ele><time>2026-05-03T06:43:27.007Z</time></trkpt><trkpt lat="45.994021314055914" lon="9.23906498361684"><ele>207.0</ele><time>2026-05-03T06:43:28.007Z</time></trkpt><trkpt lat="45.994180686414246" lon="9.239127581382235"><ele>203.0</ele><time>2026-05-03T06:43:29.007Z</time></trkpt><trkpt lat="45.994319978580926" lon="9.23918048720824"><ele>203.0</ele><time>2026-05-03T06:43:30.007Z</time></trkpt><trkpt lat="45.994448012935415" lon="9.239229117065314"><ele>203.0</ele><time>2026-05-03T06:43:31.007Z</time></trkpt><trkpt lat="45.99456303254399" lon="9.239264412296409"><ele>203.0</ele><time>2026-05-03T06:43:32.007Z</time></trkpt><trkpt lat="45.99467519431302" lon="9.239259679754316"><ele>203.0</ele><time>2026-05-03T06:43:33.007Z</time></trkpt><trkpt lat="45.99478719837411" lon="9.23920811631361"><ele>203.0</ele><time>2026-05-03T06:43:34.007Z</time></trkpt><trkpt lat="45.99489922103093" lon="9.239145278531813"><ele>203.0</ele><time>2026-05-03T06:43:35.007Z</time></trkpt><trkpt lat="45.99501640788145" lon="9.239082603829074"><ele>203.0</ele><time>2026-05-03T06:43:36.007Z</time></trkpt><trkpt lat="45.99514643667075" lon="9.239012987906277"><ele>203.0</ele><time>2026-05-03T06:43:37.007Z</time></trkpt><trkpt lat="45.99527757114176" lon="9.238942591749854"><ele>205.5</ele><time>2026-05-03T06:43:38.007Z</time></trkpt><trkpt lat="45.99540891922124" lon="9.238873861220346"><ele>208.0</ele><time>2026-05-03T06:43:39.007Z</time></trkpt><trkpt lat="45.995537132831956" lon="9.23881863094285"><ele>210.5</ele><time>2026-05-03T06:43:40.007Z</time></trkpt><trkpt lat="45.995666856215635" lon="9.238756890897154"><ele>213.0</ele><time>2026-05-03T06:43:41.007Z</time></trkpt><trkpt lat="45.99581926853075" lon="9.23873818121127"><ele>212.0</ele><time>2026-05-03T06:43:42.007Z</time></trkpt><trkpt lat="45.99600079261352" lon="9.238721725082433"><ele>211.0</ele><time>2026-05-03T06:43:43.007Z</time></trkpt><trkpt lat="45.996202247785114" lon="9.238686350794367"><ele>210.0</ele><time>2026-05-03T06:43:44.007Z</time></trkpt><trkpt lat="45.99642219664312" lon="9.23864987013089"><ele>210.0</ele><time>2026-05-03T06:43:45.007Z</time></trkpt><trkpt lat="45.996638002027396" lon="9.238613586040954"><ele>210.0</ele><time>2026-05-03T06:43:46.007Z</time></trkpt><trkpt lat="45.99682879244604" lon="9.238561083075831"><ele>210.0</ele><time>2026-05-03T06:43:47.007Z</time></trkpt><trkpt lat="45.99700640807412" lon="9.238532335567607"><ele>209.66666666666669</ele><time>2026-05-03T06:43:48.007Z</time></trkpt><trkpt lat="45.99717430355613" lon="9.238497836394085"><ele>209.33333333333334</ele><time>2026-05-03T06:43:49.007Z</time></trkpt><trkpt lat="45.99733206952184" lon="9.238460257617112"><ele>209.0</ele><time>2026-05-03T06:43:50.007Z</time></trkpt><trkpt lat="45.99748372357224" lon="9.238411867062835"><ele>207.0</ele><time>2026-05-03T06:43:51.007Z</time></trkpt><trkpt lat="45.99763638035144" lon="9.238349602302241"><ele>205.0</ele><time>2026-05-03T06:43:52.007Z</time></trkpt><trkpt lat="45.99778125085478" lon="9.23826721748275"><ele>203.0</ele><time>2026-05-03T06:43:53.007Z</time></trkpt><trkpt lat="45.99792708318899" lon="9.238178781312554"><ele>201.66666666666669</ele><time>2026-05-03T06:43:54.007Z</time></trkpt><trkpt lat="45.99806684246916" lon="9.238095013019738"><ele>200.33333333333331</ele><time>2026-05-03T06:43:55.007Z</time></trkpt><trkpt lat="45.99820809256368" lon="9.237995653392057"><ele>199.0</ele><time>2026-05-03T06:43:56.007Z</time></trkpt><trkpt lat="45.99834682497113" lon="9.237885860669074"><ele>199.0</ele><time>2026-05-03T06:43:57.007Z</time></trkpt><trkpt lat="45.998481801155755" lon="9.237745916621847"><ele>199.0</ele><time>2026-05-03T06:43:58.005Z</time></trkpt><trkpt lat="45.998653948297104" lon="9.237589195658614"><ele>199.0</ele><time>2026-05-03T06:43:59.005Z</time></trkpt><trkpt lat="45.998836064504225" lon="9.237394584571518"><ele>200.33333333333331</ele><time>2026-05-03T06:44:00.005Z</time></trkpt><trkpt lat="45.99898363379488" lon="9.237214902924135"><ele>201.66666666666669</ele><time>2026-05-03T06:44:01.005Z</time></trkpt><trkpt lat="45.99910443624085" lon="9.237096357879881"><ele>203.0</ele><time>2026-05-03T06:44:02.005Z</time></trkpt><trkpt lat="45.999205682252544" lon="9.236992650151864"><ele>203.0</ele><time>2026-05-03T06:44:03.005Z</time></trkpt><trkpt lat="45.99930255140275" lon="9.23690270995721"><ele>203.0</ele><time>2026-05-03T06:44:04.006Z</time></trkpt><trkpt lat="45.99940988783626" lon="9.236820428485567"><ele>203.0</ele><time>2026-05-03T06:44:05.005Z</time></trkpt><trkpt lat="45.99951954509311" lon="9.23675374343149"><ele>203.0</ele><time>2026-05-03T06:44:06.005Z</time></trkpt><trkpt lat="45.999637999639845" lon="9.236722632711219"><ele>203.0</ele><time>2026-05-03T06:44:07.005Z</time></trkpt><trkpt lat="45.99975997100212" lon="9.236702253029684"><ele>203.0</ele><time>2026-05-03T06:44:08.006Z</time></trkpt><trkpt lat="45.99988468054687" lon="9.23669372355085"><ele>203.0</ele><time>2026-05-03T06:44:09.006Z</time></trkpt><trkpt lat="46.00001399106519" lon="9.236691525902296"><ele>203.0</ele><time>2026-05-03T06:44:10.005Z</time></trkpt><trkpt lat="46.000135233559185" lon="9.236690794146355"><ele>203.0</ele><time>2026-05-03T06:44:11.005Z</time></trkpt><trkpt lat="46.000262236611455" lon="9.236676946030386"><ele>203.0</ele><time>2026-05-03T06:44:12.005Z</time></trkpt><trkpt lat="46.000385448727485" lon="9.236656502194348"><ele>203.0</ele><time>2026-05-03T06:44:13.005Z</time></trkpt><trkpt lat="46.00050131892333" lon="9.23661167332384"><ele>203.0</ele><time>2026-05-03T06:44:14.005Z</time></trkpt><trkpt lat="46.00060165715536" lon="9.236549292150286"><ele>205.66666666666669</ele><time>2026-05-03T06:44:15.005Z</time></trkpt><trkpt lat="46.00070985982644" lon="9.236451847239527"><ele>208.33333333333331</ele><time>2026-05-03T06:44:16.005Z</time></trkpt><trkpt lat="46.00086087245599" lon="9.236348098891973"><ele>211.0</ele><time>2026-05-03T06:44:17.005Z</time></trkpt><trkpt lat="46.00101973495521" lon="9.236164113228643"><ele>211.0</ele><time>2026-05-03T06:44:18.005Z</time></trkpt><trkpt lat="46.001206734850996" lon="9.235951038229377"><ele>211.0</ele><time>2026-05-03T06:44:19.005Z</time></trkpt><trkpt lat="46.001394101896395" lon="9.235721060888089"><ele>211.5</ele><time>2026-05-03T06:44:20.005Z</time></trkpt><trkpt lat="46.001577721574606" lon="9.235508472753823"><ele>212.0</ele><time>2026-05-03T06:44:21.005Z</time></trkpt><trkpt lat="46.001760425332215" lon="9.23531079524669"><ele>212.0</ele><time>2026-05-03T06:44:22.005Z</time></trkpt><trkpt lat="46.001929965387816" lon="9.235132214509502"><ele>212.0</ele><time>2026-05-03T06:44:23.005Z</time></trkpt><trkpt lat="46.00208419572303" lon="9.234960945732277"><ele>212.0</ele><time>2026-05-03T06:44:24.005Z</time></trkpt><trkpt lat="46.002256763927996" lon="9.2348399981529"><ele>215.0</ele><time>2026-05-03T06:44:25.005Z</time></trkpt><trkpt lat="46.00245385588155" lon="9.23473841424264"><ele>218.0</ele><time>2026-05-03T06:44:26.005Z</time></trkpt><trkpt lat="46.00267671896939" lon="9.23463254958205"><ele>221.0</ele><time>2026-05-03T06:44:27.005Z</time></trkpt><trkpt lat="46.00288193261332" lon="9.234535817507087"><ele>221.0</ele><time>2026-05-03T06:44:28.005Z</time></trkpt><trkpt lat="46.0030531234155" lon="9.23446302609288"><ele>221.0</ele><time>2026-05-03T06:44:29.005Z</time></trkpt><trkpt lat="46.00321584363858" lon="9.234445082048396"><ele>221.0</ele><time>2026-05-03T06:44:30.005Z</time></trkpt><trkpt lat="46.00338407517002" lon="9.234495753601125"><ele>222.33333333333334</ele><time>2026-05-03T06:44:31.005Z</time></trkpt><trkpt lat="46.003592115374026" lon="9.234520123523595"><ele>223.66666666666669</ele><time>2026-05-03T06:44:32.005Z</time></trkpt><trkpt lat="46.0038097586578" lon="9.23459084182129"><ele>225.0</ele><time>2026-05-03T06:44:33.005Z</time></trkpt><trkpt lat="46.00402316691078" lon="9.234618963155423"><ele>225.0</ele><time>2026-05-03T06:44:34.005Z</time></trkpt><trkpt lat="46.0042164101434" lon="9.23458882924287"><ele>225.0</ele><time>2026-05-03T06:44:35.005Z</time></trkpt><trkpt lat="46.0043982302605" lon="9.234576696866297"><ele>225.0</ele><time>2026-05-03T06:44:36.005Z</time></trkpt><trkpt lat="46.004590037371976" lon="9.234491628405422"><ele>225.0</ele><time>2026-05-03T06:44:37.005Z</time></trkpt><trkpt lat="46.00480118106289" lon="9.2344270872521"><ele>225.0</ele><time>2026-05-03T06:44:38.005Z</time></trkpt><trkpt lat="46.00505212567009" lon="9.23438034858345"><ele>215.5</ele><time>2026-05-03T06:44:39.005Z</time></trkpt><trkpt lat="46.005306895933785" lon="9.234304946373143"><ele>206.0</ele><time>2026-05-03T06:44:40.005Z</time></trkpt><trkpt lat="46.00557399665764" lon="9.234218571662264"><ele>205.0</ele><time>2026-05-03T06:44:41.005Z</time></trkpt><trkpt lat="46.00583354185876" lon="9.234096837166206"><ele>204.0</ele><time>2026-05-03T06:44:42.005Z</time></trkpt><trkpt lat="46.00608889029894" lon="9.2339336024441"><ele>224.5</ele><time>2026-05-03T06:44:43.005Z</time></trkpt><trkpt lat="46.00634735402097" lon="9.233786464418055"><ele>245.0</ele><time>2026-05-03T06:44:44.005Z</time></trkpt><trkpt lat="46.006605407040745" lon="9.23363774415068"><ele>250.5</ele><time>2026-05-03T06:44:45.005Z</time></trkpt><trkpt lat="46.00686419556547" lon="9.233494235868818"><ele>256.0</ele><time>2026-05-03T06:44:46.005Z</time></trkpt><trkpt lat="46.0071204897997" lon="9.233299772097633"><ele>314.5</ele><time>2026-05-03T06:44:47.005Z</time></trkpt><trkpt lat="46.007373333562455" lon="9.233118864291118"><ele>373.0</ele><time>2026-05-03T06:44:48.005Z</time></trkpt><trkpt lat="46.007623673365586" lon="9.232939748080117"><ele>363.5</ele><time>2026-05-03T06:44:49.005Z</time></trkpt><trkpt lat="46.00785159360513" lon="9.232776904786594"><ele>354.0</ele><time>2026-05-03T06:44:50.005Z</time></trkpt><trkpt lat="46.009951598521994" lon="9.231331312338332"><ele>405.0</ele><time>2026-05-03T06:44:54.459Z</time></trkpt><trkpt lat="46.01057239858956" lon="9.231190963820488"><ele>448.0</ele><time>2026-05-03T06:44:55.458Z</time></trkpt><trkpt lat="46.01120285938044" lon="9.231174228537643"><ele>465.0</ele><time>2026-05-03T06:44:56.46Z</time></trkpt><trkpt lat="46.01182603218397" lon="9.231283768064383"><ele>465.0</ele><time>2026-05-03T06:44:57.457Z</time></trkpt><trkpt lat="46.0122238" lon="9.2314222"><ele>465.0</ele><time>2026-05-03T06:44:58.459Z</time></trkpt><trkpt lat="46.022032345968285" lon="9.233620863326532"><ele>364.5</ele><time>2026-05-03T06:45:39.005Z</time></trkpt><trkpt lat="46.022114514818604" lon="9.234223028678176"><ele>264.0</ele><time>2026-05-03T06:45:42.005Z</time></trkpt><trkpt lat="46.022044404289204" lon="9.234373676729687"><ele>264.0</ele><time>2026-05-03T06:45:43.005Z</time></trkpt><trkpt lat="46.02194671539307" lon="9.234473406547131"><ele>264.0</ele><time>2026-05-03T06:45:44.005Z</time></trkpt><trkpt lat="46.021842803264484" lon="9.234547855794105"><ele>264.0</ele><time>2026-05-03T06:45:45.005Z</time></trkpt><trkpt lat="46.02173875205982" lon="9.234534872979708"><ele>264.0</ele><time>2026-05-03T06:45:46.005Z</time></trkpt><trkpt lat="46.02164749851883" lon="9.234503807191569"><ele>264.0</ele><time>2026-05-03T06:45:47.005Z</time></trkpt><trkpt lat="46.02157969215054" lon="9.23444700851741"><ele>264.8</ele><time>2026-05-03T06:45:48.005Z</time></trkpt><trkpt lat="46.021516169689384" lon="9.234381207961414"><ele>265.59999999999997</ele><time>2026-05-03T06:45:49.005Z</time></trkpt><trkpt lat="46.021423683084244" lon="9.234268573502565"><ele>266.4</ele><time>2026-05-03T06:45:51.005Z</time></trkpt><trkpt lat="46.02128405169201" lon="9.234340272325403"><ele>267.2</ele><time>2026-05-03T06:45:53.005Z</time></trkpt><trkpt lat="46.02120892000487" lon="9.234396727206587"><ele>268.0</ele><time>2026-05-03T06:45:54.005Z</time></trkpt><trkpt lat="46.02110638125544" lon="9.234472617579028"><ele>268.0</ele><time>2026-05-03T06:45:55.005Z</time></trkpt><trkpt lat="46.02097397501446" lon="9.234599588666796"><ele>268.0</ele><time>2026-05-03T06:45:56.005Z</time></trkpt><trkpt lat="46.02088387249102" lon="9.234710463199319"><ele>268.0</ele><time>2026-05-03T06:45:57.005Z</time></trkpt><trkpt lat="46.02083914749861" lon="9.234826177122281"><ele>268.0</ele><time>2026-05-03T06:45:58.005Z</time></trkpt><trkpt lat="46.02084544160718" lon="9.234963023956217"><ele>266.6</ele><time>2026-05-03T06:45:59.005Z</time></trkpt><trkpt lat="46.0208575290814" lon="9.235058480334194"><ele>265.20000000000005</ele><time>2026-05-03T06:46:00.005Z</time></trkpt><trkpt lat="46.020881017680615" lon="9.23516898002633"><ele>263.8</ele><time>2026-05-03T06:46:01.005Z</time></trkpt><trkpt lat="46.02094535606127" lon="9.235270307042983"><ele>262.40000000000003</ele><time>2026-05-03T06:46:03.005Z</time></trkpt><trkpt lat="46.021027691351826" lon="9.23516645285251"><ele>261.0</ele><time>2026-05-03T06:46:05.005Z</time></trkpt><trkpt lat="46.02096701579487" lon="9.235049261326822"><ele>261.0</ele><time>2026-05-03T06:46:07.005Z</time></trkpt><trkpt lat="46.0209002036416" lon="9.234897468146833"><ele>261.0</ele><time>2026-05-03T06:46:09.005Z</time></trkpt><trkpt lat="46.020924404183994" lon="9.234763023736312"><ele>261.0</ele><time>2026-05-03T06:46:10.005Z</time></trkpt><trkpt lat="46.020987949508864" lon="9.23463138207607"><ele>261.0</ele><time>2026-05-03T06:46:11.005Z</time></trkpt><trkpt lat="46.02109737778874" lon="9.234577666867159"><ele>261.0</ele><time>2026-05-03T06:46:12.005Z</time></trkpt><trkpt lat="46.02119250072912" lon="9.234494582759103"><ele>268.0</ele><time>2026-05-03T06:46:13.005Z</time></trkpt><trkpt lat="46.021282205783834" lon="9.234432188162819"><ele>268.0</ele><time>2026-05-03T06:46:14.005Z</time></trkpt><trkpt lat="46.02138681661503" lon="9.234417256454446"><ele>268.0</ele><time>2026-05-03T06:46:16.005Z</time></trkpt><trkpt lat="46.02145237864962" lon="9.23446196223951"><ele>268.0</ele><time>2026-05-03T06:46:17.005Z</time></trkpt><trkpt lat="46.02150384113671" lon="9.234519867231837"><ele>268.0</ele><time>2026-05-03T06:46:18.005Z</time></trkpt><trkpt lat="46.02157039479239" lon="9.23456967904054"><ele>268.0</ele><time>2026-05-03T06:46:20.005Z</time></trkpt></trkseg><trkseg><trkpt lat="46.02177586563131" lon="9.234640202284798"><ele>264.0</ele><time>2026-05-03T07:09:12.008Z</time></trkpt><trkpt lat="46.02187413377516" lon="9.234681535271822"><ele>264.0</ele><time>2026-05-03T07:09:13.009Z</time></trkpt><trkpt lat="46.02198521343259" lon="9.23467714819452"><ele>264.0</ele><time>2026-05-03T07:09:14.009Z</time></trkpt><trkpt lat="46.02209745074536" lon="9.234630271610802"><ele>264.0</ele><time>2026-05-03T07:09:15.008Z</time></trkpt><trkpt lat="46.02222019932707" lon="9.234506990081748"><ele>264.0</ele><time>2026-05-03T07:09:16.009Z</time></trkpt><trkpt lat="46.02231889812295" lon="9.234333593738512"><ele>264.0</ele><time>2026-05-03T07:09:17.009Z</time></trkpt><trkpt lat="46.022399113977166" lon="9.234122131939777"><ele>264.0</ele><time>2026-05-03T07:09:18.009Z</time></trkpt><trkpt lat="46.022483353496604" lon="9.233929104540861"><ele>262.6666666666667</ele><time>2026-05-03T07:09:19.008Z</time></trkpt><trkpt lat="46.02258137260514" lon="9.233762973716622"><ele>261.33333333333337</ele><time>2026-05-03T07:09:20.008Z</time></trkpt><trkpt lat="46.022704300789165" lon="9.233628079212076"><ele>260.0</ele><time>2026-05-03T07:09:21.009Z</time></trkpt><trkpt lat="46.022834412121945" lon="9.233536305220284"><ele>260.0</ele><time>2026-05-03T07:09:22.008Z</time></trkpt><trkpt lat="46.02300047784281" lon="9.2334905801395"><ele>260.0</ele><time>2026-05-03T07:09:23.008Z</time></trkpt><trkpt lat="46.02318028467103" lon="9.233481519097738"><ele>260.0</ele><time>2026-05-03T07:09:24.008Z</time></trkpt><trkpt lat="46.023361156188" lon="9.233461919120334"><ele>261.33333333333337</ele><time>2026-05-03T07:09:25.008Z</time></trkpt><trkpt lat="46.023561663520574" lon="9.233446744942345"><ele>262.6666666666667</ele><time>2026-05-03T07:09:26.008Z</time></trkpt><trkpt lat="46.02376706470402" lon="9.233437821669698"><ele>264.0</ele><time>2026-05-03T07:09:27.008Z</time></trkpt><trkpt lat="46.02396328304011" lon="9.233412513748327"><ele>269.6666666666667</ele><time>2026-05-03T07:09:28.008Z</time></trkpt><trkpt lat="46.0241649870016" lon="9.233391933261172"><ele>275.33333333333337</ele><time>2026-05-03T07:09:29.008Z</time></trkpt><trkpt lat="46.0243891347026" lon="9.233374003292488"><ele>281.0</ele><time>2026-05-03T07:09:30.008Z</time></trkpt><trkpt lat="46.024615572269596" lon="9.233354932950379"><ele>281.0</ele><time>2026-05-03T07:09:31.008Z</time></trkpt><trkpt lat="46.024822520715304" lon="9.233342911805133"><ele>281.0</ele><time>2026-05-03T07:09:32.008Z</time></trkpt><trkpt lat="46.02502268347551" lon="9.233327591030543"><ele>281.0</ele><time>2026-05-03T07:09:33.008Z</time></trkpt><trkpt lat="46.02526374548558" lon="9.233430017166809"><ele>311.0</ele><time>2026-05-03T07:09:34.15Z</time></trkpt><trkpt lat="46.02727579301591" lon="9.233549774518602"><ele>321.0</ele><time>2026-05-03T07:09:37.463Z</time></trkpt><trkpt lat="46.02790351365074" lon="9.233632499202848"><ele>332.0</ele><time>2026-05-03T07:09:38.464Z</time></trkpt><trkpt lat="46.02853333473005" lon="9.233709336933877"><ele>351.0</ele><time>2026-05-03T07:09:39.467Z</time></trkpt><trkpt lat="46.02915795891129" lon="9.233791279896526"><ele>351.0</ele><time>2026-05-03T07:09:40.463Z</time></trkpt><trkpt lat="46.0293965" lon="9.233823"><ele>351.0</ele><time>2026-05-03T07:09:41.467Z</time></trkpt><trkpt lat="46.03812178605124" lon="9.24053645397906"><ele>319.25</ele><time>2026-05-03T07:10:29.009Z</time></trkpt><trkpt lat="46.03818820061008" lon="9.240667094626533"><ele>287.5</ele><time>2026-05-03T07:10:31.009Z</time></trkpt><trkpt lat="46.03829730900182" lon="9.240821235823908"><ele>255.75</ele><time>2026-05-03T07:10:32.009Z</time></trkpt><trkpt lat="46.0383982334767" lon="9.241014551104481"><ele>224.0</ele><time>2026-05-03T07:10:33.009Z</time></trkpt><trkpt lat="46.038511879378476" lon="9.241161494877618"><ele>224.0</ele><time>2026-05-03T07:10:34.009Z</time></trkpt><trkpt lat="46.038624774061134" lon="9.241334626440734"><ele>224.0</ele><time>2026-05-03T07:10:35.009Z</time></trkpt><trkpt lat="46.03874277960103" lon="9.241509086395176"><ele>224.0</ele><time>2026-05-03T07:10:36.009Z</time></trkpt><trkpt lat="46.038847782694575" lon="9.24169153979151"><ele>215.33333333333334</ele><time>2026-05-03T07:10:37.009Z</time></trkpt><trkpt lat="46.038957093270206" lon="9.241872103454403"><ele>206.66666666666669</ele><time>2026-05-03T07:10:38.009Z</time></trkpt><trkpt lat="46.03907331941391" lon="9.242050325974208"><ele>198.0</ele><time>2026-05-03T07:10:39.009Z</time></trkpt><trkpt lat="46.03919330013125" lon="9.242231184143892"><ele>198.0</ele><time>2026-05-03T07:10:40.009Z</time></trkpt><trkpt lat="46.03928596156329" lon="9.242455629382127"><ele>198.0</ele><time>2026-05-03T07:10:41.009Z</time></trkpt><trkpt lat="46.03936895580709" lon="9.242678844164873"><ele>198.0</ele><time>2026-05-03T07:10:42.009Z</time></trkpt><trkpt lat="46.039448836932536" lon="9.242907228703183"><ele>198.0</ele><time>2026-05-03T07:10:43.145Z</time></trkpt><trkpt lat="46.040310307354915" lon="9.245526828637173"><ele>198.0</ele><time>2026-05-03T07:10:46.467Z</time></trkpt><trkpt lat="46.04037040416762" lon="9.24642147650072"><ele>223.0</ele><time>2026-05-03T07:10:47.465Z</time></trkpt><trkpt lat="46.04029977682022" lon="9.247320146393802"><ele>219.0</ele><time>2026-05-03T07:10:48.466Z</time></trkpt><trkpt lat="46.04020887079141" lon="9.248216572026081"><ele>219.0</ele><time>2026-05-03T07:10:49.468Z</time></trkpt><trkpt lat="46.040193" lon="9.2483758"><ele>219.0</ele><time>2026-05-03T07:10:50.467Z</time></trkpt><trkpt lat="46.04052749001628" lon="9.248725370963431"><ele>219.0</ele><time>2026-05-03T07:11:04.009Z</time></trkpt><trkpt lat="46.04042611961909" lon="9.248932457191676"><ele>219.0</ele><time>2026-05-03T07:11:05.009Z</time></trkpt><trkpt lat="46.04022212019091" lon="9.249651709066196"><ele>216.66666666666669</ele><time>2026-05-03T07:11:07.009Z</time></trkpt><trkpt lat="46.040285817339736" lon="9.249852616509731"><ele>214.33333333333334</ele><time>2026-05-03T07:11:08.009Z</time></trkpt><trkpt lat="46.04033996669857" lon="9.250078799632306"><ele>212.0</ele><time>2026-05-03T07:11:09.009Z</time></trkpt><trkpt lat="46.040520903195734" lon="9.250271651735847"><ele>212.0</ele><time>2026-05-03T07:11:10.009Z</time></trkpt><trkpt lat="46.04067210852602" lon="9.250477144567018"><ele>212.0</ele><time>2026-05-03T07:11:11.009Z</time></trkpt><trkpt lat="46.04082656667337" lon="9.250658666718355"><ele>212.0</ele><time>2026-05-03T07:11:12.009Z</time></trkpt><trkpt lat="46.04100517519893" lon="9.25082858348829"><ele>225.0</ele><time>2026-05-03T07:11:13.009Z</time></trkpt><trkpt lat="46.0412244712585" lon="9.250933745097841"><ele>238.0</ele><time>2026-05-03T07:11:14.009Z</time></trkpt><trkpt lat="46.04148317214488" lon="9.251038114961604"><ele>249.0</ele><time>2026-05-03T07:11:15.009Z</time></trkpt><trkpt lat="46.04171677890656" lon="9.251135489025769"><ele>260.0</ele><time>2026-05-03T07:11:16.008Z</time></trkpt><trkpt lat="46.04205983194886" lon="9.251281424337044"><ele>247.66666666666669</ele><time>2026-05-03T07:11:17.008Z</time></trkpt><trkpt lat="46.042006539302406" lon="9.251630881481157"><ele>235.33333333333331</ele><time>2026-05-03T07:11:18.009Z</time></trkpt><trkpt lat="46.04188084310619" lon="9.251713989498386"><ele>223.0</ele><time>2026-05-03T07:11:19.145Z</time></trkpt><trkpt lat="46.04669054517022" lon="9.254114765843443"><ele>219.5</ele><time>2026-05-03T07:11:37.008Z</time></trkpt><trkpt lat="46.04699688033391" lon="9.254203093946906"><ele>216.0</ele><time>2026-05-03T07:11:38.008Z</time></trkpt><trkpt lat="46.047275533502095" lon="9.254285652550388"><ele>233.5</ele><time>2026-05-03T07:11:39.008Z</time></trkpt><trkpt lat="46.04754403107254" lon="9.25436368669878"><ele>251.0</ele><time>2026-05-03T07:11:40.008Z</time></trkpt><trkpt lat="46.0478121517526" lon="9.254441250898738"><ele>251.0</ele><time>2026-05-03T07:11:41.008Z</time></trkpt><trkpt lat="46.0480825753985" lon="9.254520430151986"><ele>251.0</ele><time>2026-05-03T07:11:42.008Z</time></trkpt><trkpt lat="46.04834681612258" lon="9.254610226109794"><ele>247.0</ele><time>2026-05-03T07:11:43.008Z</time></trkpt><trkpt lat="46.04859130604943" lon="9.254740634174974"><ele>243.0</ele><time>2026-05-03T07:11:44.008Z</time></trkpt><trkpt lat="46.048804588487904" lon="9.254893703354165"><ele>243.0</ele><time>2026-05-03T07:11:45.008Z</time></trkpt><trkpt lat="46.04898879824545" lon="9.255063130396188"><ele>243.0</ele><time>2026-05-03T07:11:46.008Z</time></trkpt><trkpt lat="46.04918576457777" lon="9.255281202540193"><ele>236.66666666666669</ele><time>2026-05-03T07:11:47.146Z</time></trkpt><trkpt lat="46.049327942868864" lon="9.255479800041035"><ele>230.33333333333334</ele><time>2026-05-03T07:11:48.147Z</time></trkpt><trkpt lat="46.049460508911935" lon="9.255687603887493"><ele>224.0</ele><time>2026-05-03T07:11:49.146Z</time></trkpt><trkpt lat="46.0500286529232" lon="9.256851645893532"><ele>224.0</ele><time>2026-05-03T07:11:58.009Z</time></trkpt><trkpt lat="46.05029886154165" lon="9.257114492165444"><ele>224.0</ele><time>2026-05-03T07:12:00.009Z</time></trkpt><trkpt lat="46.0504865931946" lon="9.25723130437618"><ele>221.0</ele><time>2026-05-03T07:12:01.009Z</time></trkpt><trkpt lat="46.0507417271876" lon="9.257377973061883"><ele>218.0</ele><time>2026-05-03T07:12:02.009Z</time></trkpt><trkpt lat="46.05095213574516" lon="9.257499736972576"><ele>218.0</ele><time>2026-05-03T07:12:03.009Z</time></trkpt><trkpt lat="46.05114992135151" lon="9.257589844928066"><ele>218.0</ele><time>2026-05-03T07:12:04.009Z</time></trkpt><trkpt lat="46.05134258867145" lon="9.257726443809586"><ele>218.0</ele><time>2026-05-03T07:12:05.009Z</time></trkpt><trkpt lat="46.0515263743987" lon="9.257838355690911"><ele>216.66666666666669</ele><time>2026-05-03T07:12:06.009Z</time></trkpt><trkpt lat="46.05168455489185" lon="9.25802509141396"><ele>215.33333333333331</ele><time>2026-05-03T07:12:07.008Z</time></trkpt><trkpt lat="46.05181894484395" lon="9.25822928098932"><ele>214.0</ele><time>2026-05-03T07:12:08.008Z</time></trkpt><trkpt lat="46.05197892008695" lon="9.25838434865036"><ele>214.0</ele><time>2026-05-03T07:12:09.007Z</time></trkpt><trkpt lat="46.0521099716051" lon="9.25857609787196"><ele>214.0</ele><time>2026-05-03T07:12:10.007Z</time></trkpt><trkpt lat="46.05224777375237" lon="9.258715675885671"><ele>214.0</ele><time>2026-05-03T07:12:11.006Z</time></trkpt><trkpt lat="46.05239562139219" lon="9.258832762430195"><ele>215.33333333333331</ele><time>2026-05-03T07:12:12.006Z</time></trkpt><trkpt lat="46.052565628547555" lon="9.258893700022234"><ele>216.66666666666669</ele><time>2026-05-03T07:12:13.006Z</time></trkpt><trkpt lat="46.05275281145147" lon="9.25894291183205"><ele>218.0</ele><time>2026-05-03T07:12:14.005Z</time></trkpt><trkpt lat="46.05293136660838" lon="9.258973026028842"><ele>218.0</ele><time>2026-05-03T07:12:15.005Z</time></trkpt><trkpt lat="46.053101747257344" lon="9.2589841617997"><ele>218.0</ele><time>2026-05-03T07:12:16.005Z</time></trkpt><trkpt lat="46.05326181439624" lon="9.25900066624329"><ele>218.0</ele><time>2026-05-03T07:12:17.004Z</time></trkpt><trkpt lat="46.05342243688681" lon="9.258958622193104"><ele>219.25</ele><time>2026-05-03T07:12:18.004Z</time></trkpt><trkpt lat="46.053568290038456" lon="9.2589421932659"><ele>220.5</ele><time>2026-05-03T07:12:19.004Z</time></trkpt><trkpt lat="46.053701221997734" lon="9.258955022379888"><ele>221.75</ele><time>2026-05-03T07:12:20.004Z</time></trkpt><trkpt lat="46.05383053194984" lon="9.258981293140355"><ele>223.0</ele><time>2026-05-03T07:12:21.003Z</time></trkpt><trkpt lat="46.053940197631235" lon="9.259000521511183"><ele>222.99999999999997</ele><time>2026-05-03T07:12:22.003Z</time></trkpt><trkpt lat="46.054006126959095" lon="9.259012454484797"><ele>223.0</ele><time>2026-05-03T07:12:23.003Z</time></trkpt><trkpt lat="46.05407212199839" lon="9.259018632066116"><ele>223.0</ele><time>2026-05-03T07:12:33.002Z</time></trkpt><trkpt lat="46.05414060991811" lon="9.259025042980646"><ele>223.0</ele><time>2026-05-03T07:12:34.002Z</time></trkpt><trkpt lat="46.05424791964912" lon="9.259008524365806"><ele>222.99999999999997</ele><time>2026-05-03T07:12:35.001Z</time></trkpt><trkpt lat="46.05438382651928" lon="9.258989847302736"><ele>223.0</ele><time>2026-05-03T07:12:36.001Z</time></trkpt><trkpt lat="46.054525890672224" lon="9.258965783412226"><ele>224.33333333333331</ele><time>2026-05-03T07:12:37.001Z</time></trkpt><trkpt lat="46.05468249260914" lon="9.258939687856918"><ele>225.66666666666669</ele><time>2026-05-03T07:12:38.001Z</time></trkpt><trkpt lat="46.0548407536453" lon="9.25891331583305"><ele>227.0</ele><time>2026-05-03T07:12:39.001Z</time></trkpt><trkpt lat="46.05501499746787" lon="9.25888428050832"><ele>227.0</ele><time>2026-05-03T07:12:40.001Z</time></trkpt><trkpt lat="46.05520690489747" lon="9.258846564974926"><ele>227.0</ele><time>2026-05-03T07:12:41.001Z</time></trkpt><trkpt lat="46.0553871470592" lon="9.258792005497563"><ele>227.0</ele><time>2026-05-03T07:12:42.001Z</time></trkpt><trkpt lat="46.05556632497325" lon="9.258746917190289"><ele>227.0</ele><time>2026-05-03T07:12:43.001Z</time></trkpt><trkpt lat="46.055742370084545" lon="9.258726443866431"><ele>227.0</ele><time>2026-05-03T07:12:44.001Z</time></trkpt><trkpt lat="46.05589673046268" lon="9.25875270181466"><ele>227.0</ele><time>2026-05-03T07:12:45.001Z</time></trkpt><trkpt lat="46.0560641638531" lon="9.25885363789512"><ele>219.5</ele><time>2026-05-03T07:12:46.001Z</time></trkpt><trkpt lat="46.05624298618349" lon="9.259024817227765"><ele>212.0</ele><time>2026-05-03T07:12:47.001Z</time></trkpt><trkpt lat="46.05643769780746" lon="9.259221849737688"><ele>215.5</ele><time>2026-05-03T07:12:48.001Z</time></trkpt><trkpt lat="46.056634844522726" lon="9.259427579802114"><ele>219.0</ele><time>2026-05-03T07:12:49.001Z</time></trkpt><trkpt lat="46.05679966810914" lon="9.25963142338871"><ele>215.33333333333331</ele><time>2026-05-03T07:12:50.001Z</time></trkpt><trkpt lat="46.056952328817296" lon="9.259834146584906"><ele>211.66666666666666</ele><time>2026-05-03T07:12:51.001Z</time></trkpt><trkpt lat="46.05712250627235" lon="9.260000359622548"><ele>208.0</ele><time>2026-05-03T07:12:52.001Z</time></trkpt><trkpt lat="46.05730069645442" lon="9.260105043389666"><ele>211.66666666666666</ele><time>2026-05-03T07:12:53.001Z</time></trkpt><trkpt lat="46.057465091363824" lon="9.260233878814875"><ele>215.33333333333331</ele><time>2026-05-03T07:12:54.001Z</time></trkpt><trkpt lat="46.05761034401301" lon="9.260356637240191"><ele>219.0</ele><time>2026-05-03T07:12:55.001Z</time></trkpt><trkpt lat="46.05773486166462" lon="9.260520662037862"><ele>215.66666666666669</ele><time>2026-05-03T07:12:56.001Z</time></trkpt><trkpt lat="46.057862386803876" lon="9.260702842985753"><ele>212.33333333333334</ele><time>2026-05-03T07:12:57.001Z</time></trkpt><trkpt lat="46.05799031848611" lon="9.26084274849176"><ele>209.0</ele><time>2026-05-03T07:12:58Z</time></trkpt><trkpt lat="46.058136130074864" lon="9.260925605475366"><ele>209.0</ele><time>2026-05-03T07:12:59Z</time></trkpt><trkpt lat="46.058276451519454" lon="9.261000723816883"><ele>209.0</ele><time>2026-05-03T07:13:00Z</time></trkpt><trkpt lat="46.05840001740336" lon="9.261091791245903"><ele>209.0</ele><time>2026-05-03T07:13:01Z</time></trkpt><trkpt lat="46.058518460257254" lon="9.261167789438804"><ele>209.0</ele><time>2026-05-03T07:13:02Z</time></trkpt><trkpt lat="46.05862762323991" lon="9.261264086110641"><ele>207.66666666666669</ele><time>2026-05-03T07:13:03Z</time></trkpt><trkpt lat="46.05874307088227" lon="9.261394737380359"><ele>206.33333333333331</ele><time>2026-05-03T07:13:04Z</time></trkpt><trkpt lat="46.058863553547845" lon="9.261583584736268"><ele>205.0</ele><time>2026-05-03T07:13:05Z</time></trkpt><trkpt lat="46.059004518403384" lon="9.261818384868846"><ele>206.5</ele><time>2026-05-03T07:13:06Z</time></trkpt><trkpt lat="46.05917599969372" lon="9.26210848682783"><ele>208.0</ele><time>2026-05-03T07:13:07Z</time></trkpt><trkpt lat="46.05935901667993" lon="9.262408384305308"><ele>208.0</ele><time>2026-05-03T07:13:08Z</time></trkpt><trkpt lat="46.059561360276085" lon="9.262686423542359"><ele>208.0</ele><time>2026-05-03T07:13:09Z</time></trkpt><trkpt lat="46.05971890692957" lon="9.262998461457407"><ele>209.5</ele><time>2026-05-03T07:13:10Z</time></trkpt><trkpt lat="46.059891307211" lon="9.263247411553644"><ele>211.0</ele><time>2026-05-03T07:13:11Z</time></trkpt><trkpt lat="46.060035980570646" lon="9.263486520629051"><ele>211.0</ele><time>2026-05-03T07:13:12Z</time></trkpt><trkpt lat="46.06017120818337" lon="9.263707065868429"><ele>211.0</ele><time>2026-05-03T07:13:13Z</time></trkpt><trkpt lat="46.060274276786174" lon="9.263936187984802"><ele>211.0</ele><time>2026-05-03T07:13:14Z</time></trkpt><trkpt lat="46.060352607752755" lon="9.26419792737944"><ele>209.0</ele><time>2026-05-03T07:13:15Z</time></trkpt><trkpt lat="46.060465727919656" lon="9.264447880038581"><ele>207.0</ele><time>2026-05-03T07:13:16Z</time></trkpt><trkpt lat="46.06059825528427" lon="9.264696702125965"><ele>205.0</ele><time>2026-05-03T07:13:17Z</time></trkpt><trkpt lat="46.060799196298944" lon="9.26492311878222"><ele>205.0</ele><time>2026-05-03T07:13:18Z</time></trkpt><trkpt lat="46.060987804685226" lon="9.265147036680375"><ele>205.0</ele><time>2026-05-03T07:13:19Z</time></trkpt><trkpt lat="46.06114982614774" lon="9.265379893287683"><ele>203.0</ele><time>2026-05-03T07:13:20Z</time></trkpt><trkpt lat="46.06128980884807" lon="9.265612242709922"><ele>201.0</ele><time>2026-05-03T07:13:21Z</time></trkpt><trkpt lat="46.06140340229681" lon="9.26588086026737"><ele>199.0</ele><time>2026-05-03T07:13:22Z</time></trkpt><trkpt lat="46.06147415229469" lon="9.266188918250137"><ele>198.66666666666666</ele><time>2026-05-03T07:13:23Z</time></trkpt><trkpt lat="46.06152992131456" lon="9.266476994924401"><ele>198.33333333333331</ele><time>2026-05-03T07:13:24Z</time></trkpt><trkpt lat="46.061610680356175" lon="9.266722773481039"><ele>198.0</ele><time>2026-05-03T07:13:25Z</time></trkpt><trkpt lat="46.06172326445532" lon="9.26692723840418"><ele>198.33333333333331</ele><time>2026-05-03T07:13:26Z</time></trkpt><trkpt lat="46.061893961743586" lon="9.26708570391492"><ele>198.66666666666666</ele><time>2026-05-03T07:13:27Z</time></trkpt><trkpt lat="46.06202853522456" lon="9.267301816029086"><ele>199.0</ele><time>2026-05-03T07:13:28Z</time></trkpt><trkpt lat="46.0621144760018" lon="9.267561702496481"><ele>199.0</ele><time>2026-05-03T07:13:29Z</time></trkpt><trkpt lat="46.062209460775776" lon="9.267857283834902"><ele>199.0</ele><time>2026-05-03T07:13:29.999Z</time></trkpt><trkpt lat="46.06230985802015" lon="9.268131633443177"><ele>199.0</ele><time>2026-05-03T07:13:31Z</time></trkpt><trkpt lat="46.062399157826114" lon="9.268388290471721"><ele>200.0</ele><time>2026-05-03T07:13:32Z</time></trkpt><trkpt lat="46.06251255585443" lon="9.2686182992291"><ele>201.0</ele><time>2026-05-03T07:13:33Z</time></trkpt><trkpt lat="46.062660864269645" lon="9.26879750297258"><ele>202.0</ele><time>2026-05-03T07:13:34Z</time></trkpt><trkpt lat="46.062835455120705" lon="9.268942231767396"><ele>201.33333333333331</ele><time>2026-05-03T07:13:35Z</time></trkpt><trkpt lat="46.06304028028508" lon="9.269033648695615"><ele>200.66666666666669</ele><time>2026-05-03T07:13:36Z</time></trkpt><trkpt lat="46.06325550819966" lon="9.269087772311911"><ele>200.0</ele><time>2026-05-03T07:13:37Z</time></trkpt><trkpt lat="46.06347127125107" lon="9.269132177578749"><ele>201.33333333333334</ele><time>2026-05-03T07:13:38Z</time></trkpt><trkpt lat="46.06367842552829" lon="9.269141959298627"><ele>202.66666666666669</ele><time>2026-05-03T07:13:39Z</time></trkpt><trkpt lat="46.063863386797024" lon="9.269159426407327"><ele>204.0</ele><time>2026-05-03T07:13:40Z</time></trkpt><trkpt lat="46.06404474109664" lon="9.26919225034282"><ele>203.66666666666669</ele><time>2026-05-03T07:13:41Z</time></trkpt><trkpt lat="46.06422572697327" lon="9.269227151318576"><ele>203.33333333333334</ele><time>2026-05-03T07:13:42Z</time></trkpt><trkpt lat="46.06441115642197" lon="9.269257795621039"><ele>203.0</ele><time>2026-05-03T07:13:43Z</time></trkpt><trkpt lat="46.06459858799741" lon="9.269284083902965"><ele>203.0</ele><time>2026-05-03T07:13:44Z</time></trkpt><trkpt lat="46.06481669504987" lon="9.26931504437271"><ele>203.0</ele><time>2026-05-03T07:13:45Z</time></trkpt><trkpt lat="46.06504141526779" lon="9.269354574347533"><ele>203.0</ele><time>2026-05-03T07:13:46Z</time></trkpt><trkpt lat="46.06523880986377" lon="9.269425297405816"><ele>203.0</ele><time>2026-05-03T07:13:47Z</time></trkpt><trkpt lat="46.06540581486005" lon="9.269528680123518"><ele>203.0</ele><time>2026-05-03T07:13:48Z</time></trkpt><trkpt lat="46.06554038475523" lon="9.269667182587064"><ele>203.0</ele><time>2026-05-03T07:13:49Z</time></trkpt><trkpt lat="46.0656438187059" lon="9.26979824673968"><ele>203.0</ele><time>2026-05-03T07:13:50Z</time></trkpt><trkpt lat="46.06573661781016" lon="9.26994617816241"><ele>203.0</ele><time>2026-05-03T07:13:51Z</time></trkpt><trkpt lat="46.065842594236365" lon="9.270127598543409"><ele>203.0</ele><time>2026-05-03T07:13:52Z</time></trkpt><trkpt lat="46.06595249297936" lon="9.270368801172177"><ele>202.0</ele><time>2026-05-03T07:13:53Z</time></trkpt><trkpt lat="46.06605050324232" lon="9.270665254836278"><ele>201.0</ele><time>2026-05-03T07:13:54Z</time></trkpt><trkpt lat="46.06615053659085" lon="9.270973213675223"><ele>201.0</ele><time>2026-05-03T07:13:55Z</time></trkpt><trkpt lat="46.06625909509994" lon="9.271272501136302"><ele>201.0</ele><time>2026-05-03T07:13:56Z</time></trkpt><trkpt lat="46.06636992862694" lon="9.271532611588203"><ele>201.0</ele><time>2026-05-03T07:13:57Z</time></trkpt><trkpt lat="46.06650050082633" lon="9.271761758071623"><ele>201.66666666666669</ele><time>2026-05-03T07:13:58Z</time></trkpt><trkpt lat="46.06665788659192" lon="9.271977398379176"><ele>202.33333333333334</ele><time>2026-05-03T07:13:59Z</time></trkpt><trkpt lat="46.06684018937903" lon="9.27216786892716"><ele>203.0</ele><time>2026-05-03T07:14:00Z</time></trkpt><trkpt lat="46.06704556823927" lon="9.272317889490019"><ele>203.5</ele><time>2026-05-03T07:14:01Z</time></trkpt><trkpt lat="46.06727584631638" lon="9.272430822241567"><ele>204.0</ele><time>2026-05-03T07:14:02Z</time></trkpt><trkpt lat="46.067529896665754" lon="9.2724965166819"><ele>204.0</ele><time>2026-05-03T07:14:03Z</time></trkpt><trkpt lat="46.06778708800894" lon="9.272542193316912"><ele>204.0</ele><time>2026-05-03T07:14:04Z</time></trkpt><trkpt lat="46.06802728082909" lon="9.272613249565746"><ele>204.0</ele><time>2026-05-03T07:14:05Z</time></trkpt><trkpt lat="46.068253240633105" lon="9.272741223309936"><ele>204.0</ele><time>2026-05-03T07:14:06Z</time></trkpt><trkpt lat="46.06847034632155" lon="9.272910566259648"><ele>211.0</ele><time>2026-05-03T07:14:07Z</time></trkpt><trkpt lat="46.06869291558298" lon="9.27307232982939"><ele>218.0</ele><time>2026-05-03T07:14:08Z</time></trkpt><trkpt lat="46.06891501458744" lon="9.273232783836972"><ele>235.5</ele><time>2026-05-03T07:14:09Z</time></trkpt><trkpt lat="46.069141290907986" lon="9.273403065547537"><ele>253.0</ele><time>2026-05-03T07:14:10Z</time></trkpt><trkpt lat="46.06935815833147" lon="9.27357553646361"><ele>253.0</ele><time>2026-05-03T07:14:11Z</time></trkpt><trkpt lat="46.06958151741123" lon="9.273735381625505"><ele>253.0</ele><time>2026-05-03T07:14:12Z</time></trkpt><trkpt lat="46.06981479043733" lon="9.2739051835654"><ele>260.0</ele><time>2026-05-03T07:14:13Z</time></trkpt><trkpt lat="46.07007456512896" lon="9.27409405099837"><ele>267.0</ele><time>2026-05-03T07:14:14.137Z</time></trkpt><trkpt lat="46.0715914823618" lon="9.275663998199597"><ele>251.0</ele><time>2026-05-03T07:14:21Z</time></trkpt><trkpt lat="46.07173127999667" lon="9.27604638207774"><ele>235.0</ele><time>2026-05-03T07:14:22Z</time></trkpt><trkpt lat="46.071946669932025" lon="9.276277712889305"><ele>227.5</ele><time>2026-05-03T07:14:23Z</time></trkpt><trkpt lat="46.07214775333257" lon="9.276472990647706"><ele>220.0</ele><time>2026-05-03T07:14:24Z</time></trkpt><trkpt lat="46.07235446813091" lon="9.276655324615627"><ele>238.5</ele><time>2026-05-03T07:14:25Z</time></trkpt><trkpt lat="46.072568121860435" lon="9.276826407270203"><ele>257.0</ele><time>2026-05-03T07:14:26Z</time></trkpt><trkpt lat="46.072788896508094" lon="9.276996654721227"><ele>257.0</ele><time>2026-05-03T07:14:27Z</time></trkpt><trkpt lat="46.073014266024416" lon="9.2771707107392"><ele>257.0</ele><time>2026-05-03T07:14:28Z</time></trkpt><trkpt lat="46.07323636605121" lon="9.277338247409144"><ele>262.0</ele><time>2026-05-03T07:14:29Z</time></trkpt><trkpt lat="46.073460029830265" lon="9.27750448838391"><ele>267.0</ele><time>2026-05-03T07:14:30Z</time></trkpt><trkpt lat="46.073683084430535" lon="9.277666603219242"><ele>267.0</ele><time>2026-05-03T07:14:31Z</time></trkpt><trkpt lat="46.0738991767654" lon="9.277828214659595"><ele>267.0</ele><time>2026-05-03T07:14:32Z</time></trkpt><trkpt lat="46.07410774298561" lon="9.277989819261593"><ele>255.5</ele><time>2026-05-03T07:14:33Z</time></trkpt><trkpt lat="46.07435066022831" lon="9.278180083355114"><ele>244.0</ele><time>2026-05-03T07:14:34.137Z</time></trkpt><trkpt lat="46.08155684520171" lon="9.276674044399162"><ele>214.0</ele><time>2026-05-03T07:15:07.517Z</time></trkpt><trkpt lat="46.082055975509675" lon="9.276533709602917"><ele>215.0</ele><time>2026-05-03T07:15:08Z</time></trkpt><trkpt lat="46.08265132120953" lon="9.276821199993304"><ele>215.0</ele><time>2026-05-03T07:15:10Z</time></trkpt><trkpt lat="46.08289742246494" lon="9.276855286531227"><ele>215.0</ele><time>2026-05-03T07:15:11Z</time></trkpt><trkpt lat="46.08312960369053" lon="9.276901462225648"><ele>222.5</ele><time>2026-05-03T07:15:12Z</time></trkpt><trkpt lat="46.083354848893784" lon="9.276972235815464"><ele>230.0</ele><time>2026-05-03T07:15:13Z</time></trkpt><trkpt lat="46.08355459709277" lon="9.277185644840078"><ele>219.0</ele><time>2026-05-03T07:15:14Z</time></trkpt><trkpt lat="46.08376688561094" lon="9.277404618483642"><ele>208.0</ele><time>2026-05-03T07:15:15Z</time></trkpt><trkpt lat="46.08399202887952" lon="9.277616345449543"><ele>216.5</ele><time>2026-05-03T07:15:16Z</time></trkpt><trkpt lat="46.08419831131533" lon="9.27780507948364"><ele>225.0</ele><time>2026-05-03T07:15:17Z</time></trkpt><trkpt lat="46.084406062353324" lon="9.277929541169293"><ele>225.0</ele><time>2026-05-03T07:15:18Z</time></trkpt><trkpt lat="46.08461569131301" lon="9.277966493427444"><ele>225.0</ele><time>2026-05-03T07:15:19Z</time></trkpt><trkpt lat="46.08483753734167" lon="9.27794917280025"><ele>225.0</ele><time>2026-05-03T07:15:20Z</time></trkpt><trkpt lat="46.085091220923005" lon="9.277903631604929"><ele>230.0</ele><time>2026-05-03T07:15:21Z</time></trkpt><trkpt lat="46.0853700144737" lon="9.277754159452572"><ele>235.0</ele><time>2026-05-03T07:15:22Z</time></trkpt><trkpt lat="46.085627703459046" lon="9.27767239526771"><ele>229.0</ele><time>2026-05-03T07:15:23Z</time></trkpt><trkpt lat="46.08588700159735" lon="9.277547696944527"><ele>223.0</ele><time>2026-05-03T07:15:24Z</time></trkpt><trkpt lat="46.08613528965408" lon="9.27739028535751"><ele>237.5</ele><time>2026-05-03T07:15:25Z</time></trkpt><trkpt lat="46.0863628873719" lon="9.277227479334679"><ele>252.0</ele><time>2026-05-03T07:15:26Z</time></trkpt><trkpt lat="46.086575056260685" lon="9.277098117917697"><ele>243.5</ele><time>2026-05-03T07:15:27Z</time></trkpt><trkpt lat="46.08679478593455" lon="9.277056328144416"><ele>235.0</ele><time>2026-05-03T07:15:28Z</time></trkpt><trkpt lat="46.0870301792795" lon="9.277108939735648"><ele>235.0</ele><time>2026-05-03T07:15:29Z</time></trkpt><trkpt lat="46.087276442595744" lon="9.277167359323869"><ele>235.0</ele><time>2026-05-03T07:15:29.999Z</time></trkpt><trkpt lat="46.087539614624205" lon="9.277226018533844"><ele>223.0</ele><time>2026-05-03T07:15:31Z</time></trkpt><trkpt lat="46.087791493535285" lon="9.277290290723048"><ele>211.0</ele><time>2026-05-03T07:15:32Z</time></trkpt><trkpt lat="46.08802538768977" lon="9.277343366096195"><ele>211.0</ele><time>2026-05-03T07:15:33Z</time></trkpt><trkpt lat="46.08824909309111" lon="9.277426439009727"><ele>211.0</ele><time>2026-05-03T07:15:33.999Z</time></trkpt><trkpt lat="46.08844816774382" lon="9.277565832035545"><ele>213.0</ele><time>2026-05-03T07:15:34.999Z</time></trkpt><trkpt lat="46.08864707622018" lon="9.277772882921855"><ele>215.0</ele><time>2026-05-03T07:15:36Z</time></trkpt><trkpt lat="46.08883159560583" lon="9.27800666359754"><ele>215.5</ele><time>2026-05-03T07:15:37Z</time></trkpt><trkpt lat="46.0890053806994" lon="9.278248426477019"><ele>216.0</ele><time>2026-05-03T07:15:38Z</time></trkpt><trkpt lat="46.08919828681318" lon="9.27845901416818"><ele>216.0</ele><time>2026-05-03T07:15:38.999Z</time></trkpt><trkpt lat="46.08942005826726" lon="9.278599489571423"><ele>216.0</ele><time>2026-05-03T07:15:40Z</time></trkpt><trkpt lat="46.08965539764272" lon="9.278703704186668"><ele>216.0</ele><time>2026-05-03T07:15:41Z</time></trkpt><trkpt lat="46.08991144101541" lon="9.278804500872436"><ele>216.0</ele><time>2026-05-03T07:15:42Z</time></trkpt><trkpt lat="46.09013217256415" lon="9.278964808517083"><ele>215.5</ele><time>2026-05-03T07:15:43Z</time></trkpt><trkpt lat="46.09034559973053" lon="9.279095705079575"><ele>215.0</ele><time>2026-05-03T07:15:44Z</time></trkpt><trkpt lat="46.090574138543396" lon="9.279185697307412"><ele>214.5</ele><time>2026-05-03T07:15:45Z</time></trkpt><trkpt lat="46.090831723790195" lon="9.279199239933408"><ele>214.0</ele><time>2026-05-03T07:15:46Z</time></trkpt><trkpt lat="46.091111062215724" lon="9.279143405654393"><ele>214.0</ele><time>2026-05-03T07:15:47Z</time></trkpt><trkpt lat="46.09140348948168" lon="9.279021363034282"><ele>214.0</ele><time>2026-05-03T07:15:48Z</time></trkpt><trkpt lat="46.091659507923985" lon="9.278924361635818"><ele>228.0</ele><time>2026-05-03T07:15:49Z</time></trkpt><trkpt lat="46.09188944178812" lon="9.27885137784366"><ele>242.0</ele><time>2026-05-03T07:15:50Z</time></trkpt><trkpt lat="46.092098208689436" lon="9.278761577945547"><ele>242.0</ele><time>2026-05-03T07:15:51Z</time></trkpt><trkpt lat="46.092309839112374" lon="9.278675263993074"><ele>242.0</ele><time>2026-05-03T07:15:52Z</time></trkpt><trkpt lat="46.09249951878373" lon="9.278522036775795"><ele>242.0</ele><time>2026-05-03T07:15:53Z</time></trkpt><trkpt lat="46.09268024014587" lon="9.278373133312524"><ele>243.0</ele><time>2026-05-03T07:15:54Z</time></trkpt><trkpt lat="46.09284596554089" lon="9.27821241683103"><ele>244.0</ele><time>2026-05-03T07:15:55Z</time></trkpt><trkpt lat="46.09301255642482" lon="9.27804312065026"><ele>245.0</ele><time>2026-05-03T07:15:56Z</time></trkpt><trkpt lat="46.09318707568095" lon="9.27786177195476"><ele>253.33333333333334</ele><time>2026-05-03T07:15:57Z</time></trkpt><trkpt lat="46.09336475574428" lon="9.277672385827843"><ele>261.6666666666667</ele><time>2026-05-03T07:15:58Z</time></trkpt><trkpt lat="46.09353618450394" lon="9.277489765362695"><ele>270.0</ele><time>2026-05-03T07:15:59Z</time></trkpt><trkpt lat="46.094085194851914" lon="9.276851048719022"><ele>277.3333333333333</ele><time>2026-05-03T07:16:03.46Z</time></trkpt><trkpt lat="46.094249015778466" lon="9.27667837832913"><ele>284.66666666666663</ele><time>2026-05-03T07:16:04.457Z</time></trkpt><trkpt lat="46.094413506005644" lon="9.276504757306894"><ele>292.0</ele><time>2026-05-03T07:16:05.458Z</time></trkpt><trkpt lat="46.09458757969251" lon="9.276348952048668"><ele>293.3333333333333</ele><time>2026-05-03T07:16:06.46Z</time></trkpt><trkpt lat="46.09475075965813" lon="9.276174977166674"><ele>294.6666666666667</ele><time>2026-05-03T07:16:07.457Z</time></trkpt><trkpt lat="46.094914788407856" lon="9.276000097383998"><ele>296.0</ele><time>2026-05-03T07:16:08.459Z</time></trkpt><trkpt lat="46.09507901302788" lon="9.275826882790467"><ele>296.0</ele><time>2026-05-03T07:16:09.458Z</time></trkpt><trkpt lat="46.095243107787326" lon="9.275654072275975"><ele>296.0</ele><time>2026-05-03T07:16:10.456Z</time></trkpt><trkpt lat="46.09540817432573" lon="9.275480238247003"><ele>296.0</ele><time>2026-05-03T07:16:11.46Z</time></trkpt><trkpt lat="46.0955623417736" lon="9.27528822718488"><ele>296.0</ele><time>2026-05-03T07:16:12.458Z</time></trkpt><trkpt lat="46.09572641856118" lon="9.275115435489846"><ele>296.0</ele><time>2026-05-03T07:16:13.455Z</time></trkpt><trkpt lat="46.0958914716172" lon="9.274941615672054"><ele>296.0</ele><time>2026-05-03T07:16:14.459Z</time></trkpt><trkpt lat="46.09606595075713" lon="9.274787524225928"><ele>267.0</ele><time>2026-05-03T07:16:15.46Z</time></trkpt><trkpt lat="46.12067220814352" lon="9.27955487818357"><ele>257.6666666666667</ele><time>2026-05-03T07:17:36Z</time></trkpt><trkpt lat="46.1209359537747" lon="9.279604743063558"><ele>248.33333333333334</ele><time>2026-05-03T07:17:38Z</time></trkpt><trkpt lat="46.12106778229904" lon="9.279696210072068"><ele>239.0</ele><time>2026-05-03T07:17:39Z</time></trkpt><trkpt lat="46.12117841572757" lon="9.279667893988579"><ele>239.0</ele><time>2026-05-03T07:17:40Z</time></trkpt><trkpt lat="46.12127428233473" lon="9.279584452761869"><ele>238.99999999999997</ele><time>2026-05-03T07:17:41Z</time></trkpt><trkpt lat="46.12136395541621" lon="9.279479559113057"><ele>238.99999999999997</ele><time>2026-05-03T07:17:41.999Z</time></trkpt><trkpt lat="46.12143404116185" lon="9.279375117603314"><ele>239.0</ele><time>2026-05-03T07:17:43Z</time></trkpt><trkpt lat="46.1214940257115" lon="9.279281375203048"><ele>239.0</ele><time>2026-05-03T07:17:44Z</time></trkpt><trkpt lat="46.12155931630123" lon="9.279218883869223"><ele>233.66666666666669</ele><time>2026-05-03T07:17:44.999Z</time></trkpt><trkpt lat="46.12168252535254" lon="9.27913148136219"><ele>228.33333333333334</ele><time>2026-05-03T07:17:46.999Z</time></trkpt><trkpt lat="46.1217468349441" lon="9.27910433311409"><ele>223.0</ele><time>2026-05-03T07:17:47.999Z</time></trkpt><trkpt lat="46.1218186008259" lon="9.279092328448172"><ele>217.66666666666669</ele><time>2026-05-03T07:17:49Z</time></trkpt><trkpt lat="46.12188693268343" lon="9.2790870497793"><ele>212.33333333333334</ele><time>2026-05-03T07:17:50Z</time></trkpt><trkpt lat="46.12197111227611" lon="9.279096049614969"><ele>207.0</ele><time>2026-05-03T07:17:52Z</time></trkpt><trkpt lat="46.122058599032464" lon="9.279121633282433"><ele>207.0</ele><time>2026-05-03T07:17:54.999Z</time></trkpt><trkpt lat="46.122123409350614" lon="9.279151634437525"><ele>207.0</ele><time>2026-05-03T07:17:56.999Z</time></trkpt><trkpt lat="46.1222016536696" lon="9.279207169893283"><ele>207.0</ele><time>2026-05-03T07:17:59.999Z</time></trkpt><trkpt lat="46.12227139230979" lon="9.279258355289722"><ele>207.0</ele><time>2026-05-03T07:18:01.999Z</time></trkpt><trkpt lat="46.12258749198641" lon="9.27933037428485"><ele>207.0</ele><time>2026-05-03T07:18:03.999Z</time></trkpt><trkpt lat="46.12261063981084" lon="9.279219514557724"><ele>207.0</ele><time>2026-05-03T07:19:29Z</time></trkpt><trkpt lat="46.1223478723305" lon="9.279132096530175"><ele>207.0</ele><time>2026-05-03T07:19:47Z</time></trkpt><trkpt lat="46.12227742032277" lon="9.279077040299422"><ele>207.0</ele><time>2026-05-03T07:20:28.999Z</time></trkpt><trkpt lat="46.12220823904212" lon="9.279075972629974"><ele>207.0</ele><time>2026-05-03T07:20:36.999Z</time></trkpt><trkpt lat="46.12221549602274" lon="9.27897880644449"><ele>207.0</ele><time>2026-05-03T07:21:30Z</time></trkpt><trkpt lat="46.12226948235677" lon="9.278885441242677"><ele>207.0</ele><time>2026-05-03T07:21:48Z</time></trkpt><trkpt lat="46.12230326515608" lon="9.278969974082443"><ele>207.0</ele><time>2026-05-03T07:22:43.999Z</time></trkpt><trkpt lat="46.122183977183326" lon="9.278594815728269"><ele>207.0</ele><time>2026-05-03T07:23:01.999Z</time></trkpt><trkpt lat="46.12227962152888" lon="9.279042742208121"><ele>207.0</ele><time>2026-05-03T07:23:36Z</time></trkpt><trkpt lat="46.12224891323997" lon="9.27896139270204"><ele>207.0</ele><time>2026-05-03T07:25:00.143Z</time></trkpt><trkpt lat="46.12227280624901" lon="9.27906057958489"><ele>207.00000000000003</ele><time>2026-05-03T07:25:15.999Z</time></trkpt><trkpt lat="46.12221153567478" lon="9.279149631607831"><ele>207.0</ele><time>2026-05-03T07:26:51.999Z</time></trkpt><trkpt lat="46.12225065095883" lon="9.279063295441583"><ele>207.0</ele><time>2026-05-03T07:28:48.989Z</time></trkpt><trkpt lat="46.122317420127146" lon="9.27905899015857"><ele>207.0</ele><time>2026-05-03T07:28:55.989Z</time></trkpt><trkpt lat="46.12238046815405" lon="9.27909397572428"><ele>207.0</ele><time>2026-05-03T07:29:04.989Z</time></trkpt><trkpt lat="46.122418457698046" lon="9.279200948437222"><ele>207.00000000000003</ele><time>2026-05-03T07:30:12.988Z</time></trkpt><trkpt lat="46.12240024836716" lon="9.279098602136523"><ele>207.0</ele><time>2026-05-03T07:34:26.988Z</time></trkpt><trkpt lat="46.12239691283431" lon="9.278994527784581"><ele>207.0</ele><time>2026-05-03T07:34:36.988Z</time></trkpt><trkpt lat="46.12233462629555" lon="9.27896826519058"><ele>207.0</ele><time>2026-05-03T07:35:41.988Z</time></trkpt><trkpt lat="46.12227354920218" lon="9.279031134789912"><ele>207.0</ele><time>2026-05-03T07:35:54.988Z</time></trkpt><trkpt lat="46.12225959554769" lon="9.279127186824082"><ele>207.0</ele><time>2026-05-03T07:36:03.988Z</time></trkpt><trkpt lat="46.12231101764613" lon="9.279240339654383"><ele>207.0</ele><time>2026-05-03T07:36:15.988Z</time></trkpt><trkpt lat="46.122350585456424" lon="9.279322461728604"><ele>207.0</ele><time>2026-05-03T07:36:16.988Z</time></trkpt><trkpt lat="46.12242540929901" lon="9.27937288168679"><ele>206.8</ele><time>2026-05-03T07:36:17.988Z</time></trkpt><trkpt lat="46.12249457163065" lon="9.279459855496269"><ele>206.6</ele><time>2026-05-03T07:36:18.988Z</time></trkpt><trkpt lat="46.12249278092683" lon="9.279632086428784"><ele>206.4</ele><time>2026-05-03T07:36:19.988Z</time></trkpt><trkpt lat="46.12254550617361" lon="9.27976957875733"><ele>206.20000000000002</ele><time>2026-05-03T07:36:20.988Z</time></trkpt><trkpt lat="46.12259840855044" lon="9.27991907578186"><ele>206.0</ele><time>2026-05-03T07:36:21.988Z</time></trkpt><trkpt lat="46.12264830585441" lon="9.280062048859202"><ele>205.4</ele><time>2026-05-03T07:36:22.988Z</time></trkpt><trkpt lat="46.122699957838925" lon="9.280209299515647"><ele>204.8</ele><time>2026-05-03T07:36:23.988Z</time></trkpt><trkpt lat="46.12275397157211" lon="9.280346912978123"><ele>204.20000000000002</ele><time>2026-05-03T07:36:24.988Z</time></trkpt><trkpt lat="46.122806726868966" lon="9.280481320109221"><ele>203.60000000000002</ele><time>2026-05-03T07:36:25.988Z</time></trkpt><trkpt lat="46.122854027740665" lon="9.280622272801915"><ele>203.0</ele><time>2026-05-03T07:36:26.988Z</time></trkpt><trkpt lat="46.122901924940514" lon="9.280767008620272"><ele>203.0</ele><time>2026-05-03T07:36:27.988Z</time></trkpt><trkpt lat="46.12294127054031" lon="9.280878128911139"><ele>203.0</ele><time>2026-05-03T07:36:28.988Z</time></trkpt><trkpt lat="46.122977801583275" lon="9.280981165082018"><ele>203.0</ele><time>2026-05-03T07:36:29.988Z</time></trkpt><trkpt lat="46.1230301149586" lon="9.281112099885993"><ele>203.0</ele><time>2026-05-03T07:36:30.988Z</time></trkpt><trkpt lat="46.123096911836484" lon="9.28128151937715"><ele>203.0</ele><time>2026-05-03T07:36:31.988Z</time></trkpt><trkpt lat="46.12316172600721" lon="9.2814400999617"><ele>202.75</ele><time>2026-05-03T07:36:32.988Z</time></trkpt><trkpt lat="46.123227722261696" lon="9.281605390043058"><ele>202.5</ele><time>2026-05-03T07:36:33.988Z</time></trkpt><trkpt lat="46.1233008390777" lon="9.281760993434231"><ele>202.25</ele><time>2026-05-03T07:36:34.988Z</time></trkpt><trkpt lat="46.12332067158529" lon="9.28193702552625"><ele>202.0</ele><time>2026-05-03T07:36:35.988Z</time></trkpt><trkpt lat="46.1233694290051" lon="9.282059293900348"><ele>203.25</ele><time>2026-05-03T07:36:36.988Z</time></trkpt><trkpt lat="46.12343758396483" lon="9.282159646253323"><ele>204.5</ele><time>2026-05-03T07:36:37.988Z</time></trkpt><trkpt lat="46.12354746963049" lon="9.282184950837923"><ele>205.75</ele><time>2026-05-03T07:36:38.988Z</time></trkpt><trkpt lat="46.12368461451746" lon="9.28220610835408"><ele>207.0</ele><time>2026-05-03T07:36:39.988Z</time></trkpt><trkpt lat="46.12381897256406" lon="9.282135922100311"><ele>207.0</ele><time>2026-05-03T07:36:40.988Z</time></trkpt><trkpt lat="46.12396180247134" lon="9.282057319772159"><ele>207.0</ele><time>2026-05-03T07:36:41.988Z</time></trkpt><trkpt lat="46.12410765005447" lon="9.28197836395968"><ele>207.0</ele><time>2026-05-03T07:36:42.988Z</time></trkpt><trkpt lat="46.12426304279814" lon="9.281896005237797"><ele>206.66666666666669</ele><time>2026-05-03T07:36:43.988Z</time></trkpt><trkpt lat="46.12441178440185" lon="9.281817171645477"><ele>206.33333333333334</ele><time>2026-05-03T07:36:44.988Z</time></trkpt><trkpt lat="46.12455510538835" lon="9.281741210986963"><ele>206.0</ele><time>2026-05-03T07:36:45.988Z</time></trkpt><trkpt lat="46.124699056570634" lon="9.281665248768913"><ele>206.0</ele><time>2026-05-03T07:36:46.988Z</time></trkpt><trkpt lat="46.12483851277274" lon="9.281591729303416"><ele>206.0</ele><time>2026-05-03T07:36:47.988Z</time></trkpt><trkpt lat="46.12496952739432" lon="9.28152113309317"><ele>206.0</ele><time>2026-05-03T07:36:48.988Z</time></trkpt><trkpt lat="46.12509272663126" lon="9.281452418009126"><ele>206.0</ele><time>2026-05-03T07:36:49.988Z</time></trkpt><trkpt lat="46.125208584064346" lon="9.281387797860093"><ele>206.25</ele><time>2026-05-03T07:36:50.988Z</time></trkpt><trkpt lat="46.12532223536989" lon="9.281333795368303"><ele>206.5</ele><time>2026-05-03T07:36:51.988Z</time></trkpt><trkpt lat="46.12543438161901" lon="9.281303647714706"><ele>206.75</ele><time>2026-05-03T07:36:52.988Z</time></trkpt><trkpt lat="46.12554611405237" lon="9.281314815663773"><ele>207.0</ele><time>2026-05-03T07:36:53.988Z</time></trkpt><trkpt lat="46.1256649493773" lon="9.281382002628412"><ele>207.0</ele><time>2026-05-03T07:36:54.988Z</time></trkpt><trkpt lat="46.12578540359342" lon="9.281462516489201"><ele>207.0</ele><time>2026-05-03T07:36:55.988Z</time></trkpt><trkpt lat="46.12589162479684" lon="9.281539262729034"><ele>207.0</ele><time>2026-05-03T07:36:56.988Z</time></trkpt><trkpt lat="46.125993366817596" lon="9.281612664605927"><ele>207.0</ele><time>2026-05-03T07:36:57.988Z</time></trkpt><trkpt lat="46.12608964930987" lon="9.281682713460619"><ele>207.0</ele><time>2026-05-03T07:36:58.988Z</time></trkpt><trkpt lat="46.12617487689808" lon="9.281744855548265"><ele>207.0</ele><time>2026-05-03T07:36:59.988Z</time></trkpt><trkpt lat="46.12626091541889" lon="9.281782944106942"><ele>207.0</ele><time>2026-05-03T07:37:00.988Z</time></trkpt><trkpt lat="46.12633198039481" lon="9.281835610834172"><ele>207.0</ele><time>2026-05-03T07:37:01.988Z</time></trkpt><trkpt lat="46.126399714973175" lon="9.281907281344312"><ele>207.0</ele><time>2026-05-03T07:37:02.988Z</time></trkpt><trkpt lat="46.12648024526366" lon="9.281963830478526"><ele>207.0</ele><time>2026-05-03T07:37:03.988Z</time></trkpt><trkpt lat="46.126562735519" lon="9.282022026977236"><ele>207.5</ele><time>2026-05-03T07:37:04.988Z</time></trkpt><trkpt lat="46.12663757735203" lon="9.282076049591414"><ele>208.0</ele><time>2026-05-03T07:37:05.988Z</time></trkpt><trkpt lat="46.126744789775415" lon="9.282153484109653"><ele>208.5</ele><time>2026-05-03T07:37:07.988Z</time></trkpt><trkpt lat="46.12680379180024" lon="9.282198925764098"><ele>209.0</ele><time>2026-05-03T07:37:08.988Z</time></trkpt><trkpt lat="46.126873499347866" lon="9.282258798340331"><ele>209.5</ele><time>2026-05-03T07:37:10.988Z</time></trkpt><trkpt lat="46.12693333696133" lon="9.282326785230689"><ele>210.0</ele><time>2026-05-03T07:37:12.988Z</time></trkpt><trkpt lat="46.126995501736424" lon="9.282438925346225"><ele>210.0</ele><time>2026-05-03T07:37:14.988Z</time></trkpt><trkpt lat="46.12702909493867" lon="9.2825312296325"><ele>210.0</ele><time>2026-05-03T07:37:15.988Z</time></trkpt><trkpt lat="46.127027862254785" lon="9.28265038287449"><ele>210.0</ele><time>2026-05-03T07:37:16.988Z</time></trkpt><trkpt lat="46.12707717691124" lon="9.282735176440228"><ele>210.0</ele><time>2026-05-03T07:37:17.988Z</time></trkpt><trkpt lat="46.12713436426116" lon="9.28286611616644"><ele>210.0</ele><time>2026-05-03T07:37:19.988Z</time></trkpt><trkpt lat="46.12716873965249" lon="9.282997167098523"><ele>210.0</ele><time>2026-05-03T07:37:20.988Z</time></trkpt><trkpt lat="46.127206513500326" lon="9.283141174147861"><ele>209.5</ele><time>2026-05-03T07:37:21.988Z</time></trkpt><trkpt lat="46.12724639604802" lon="9.28329322025356"><ele>209.0</ele><time>2026-05-03T07:37:22.988Z</time></trkpt><trkpt lat="46.127283930616734" lon="9.283436315060712"><ele>208.5</ele><time>2026-05-03T07:37:23.988Z</time></trkpt><trkpt lat="46.12733354400194" lon="9.283586264160473"><ele>208.0</ele><time>2026-05-03T07:37:24.988Z</time></trkpt><trkpt lat="46.12739694999144" lon="9.283732464468331"><ele>208.0</ele><time>2026-05-03T07:37:25.988Z</time></trkpt><trkpt lat="46.127483594216365" lon="9.283876259157456"><ele>208.0</ele><time>2026-05-03T07:37:26.987Z</time></trkpt><trkpt lat="46.12757845407541" lon="9.284000743832838"><ele>208.0</ele><time>2026-05-03T07:37:27.988Z</time></trkpt><trkpt lat="46.12768970926491" lon="9.284113530828346"><ele>208.0</ele><time>2026-05-03T07:37:28.988Z</time></trkpt><trkpt lat="46.127831793147756" lon="9.284238577889571"><ele>207.66666666666666</ele><time>2026-05-03T07:37:29.988Z</time></trkpt><trkpt lat="46.12800183941096" lon="9.284385507525174"><ele>207.33333333333331</ele><time>2026-05-03T07:37:30.988Z</time></trkpt><trkpt lat="46.128191143497034" lon="9.28454830954431"><ele>207.0</ele><time>2026-05-03T07:37:31.988Z</time></trkpt><trkpt lat="46.12837224391606" lon="9.284703387631643"><ele>204.5</ele><time>2026-05-03T07:37:32.988Z</time></trkpt><trkpt lat="46.128568635096215" lon="9.284871676099629"><ele>202.0</ele><time>2026-05-03T07:37:33.988Z</time></trkpt><trkpt lat="46.12876295719216" lon="9.285038191556891"><ele>202.0</ele><time>2026-05-03T07:37:34.988Z</time></trkpt><trkpt lat="46.128940587291794" lon="9.285190318589233"><ele>202.0</ele><time>2026-05-03T07:37:35.988Z</time></trkpt><trkpt lat="46.12911004211212" lon="9.285335403651887"><ele>202.0</ele><time>2026-05-03T07:37:36.988Z</time></trkpt><trkpt lat="46.12927267049007" lon="9.285475209415699"><ele>202.0</ele><time>2026-05-03T07:37:37.988Z</time></trkpt><trkpt lat="46.1294330629859" lon="9.285613603555845"><ele>202.0</ele><time>2026-05-03T07:37:38.988Z</time></trkpt><trkpt lat="46.12959521533702" lon="9.285751776644078"><ele>202.0</ele><time>2026-05-03T07:37:39.988Z</time></trkpt><trkpt lat="46.12974356091244" lon="9.285870580500587"><ele>202.0</ele><time>2026-05-03T07:37:40.988Z</time></trkpt><trkpt lat="46.12987540859713" lon="9.285962665949087"><ele>202.0</ele><time>2026-05-03T07:37:41.988Z</time></trkpt><trkpt lat="46.13001692352872" lon="9.286033139727492"><ele>202.0</ele><time>2026-05-03T07:37:42.988Z</time></trkpt><trkpt lat="46.13019354995578" lon="9.286096813174373"><ele>203.0</ele><time>2026-05-03T07:37:43.988Z</time></trkpt><trkpt lat="46.130401002357466" lon="9.286172645918542"><ele>204.0</ele><time>2026-05-03T07:37:44.988Z</time></trkpt><trkpt lat="46.130610920408515" lon="9.286252663829393"><ele>205.0</ele><time>2026-05-03T07:37:45.988Z</time></trkpt><trkpt lat="46.13080788419387" lon="9.286321780239321"><ele>205.33333333333331</ele><time>2026-05-03T07:37:46.988Z</time></trkpt><trkpt lat="46.13099880027236" lon="9.286402214438395"><ele>205.66666666666669</ele><time>2026-05-03T07:37:47.988Z</time></trkpt><trkpt lat="46.13119310582996" lon="9.28645006748051"><ele>206.0</ele><time>2026-05-03T07:37:48.988Z</time></trkpt><trkpt lat="46.13138497496273" lon="9.286457159842026"><ele>206.66666666666669</ele><time>2026-05-03T07:37:49.988Z</time></trkpt><trkpt lat="46.13157969456825" lon="9.286487006887155"><ele>207.33333333333331</ele><time>2026-05-03T07:37:50.988Z</time></trkpt><trkpt lat="46.131774015762645" lon="9.286516256914263"><ele>208.0</ele><time>2026-05-03T07:37:51.988Z</time></trkpt><trkpt lat="46.131970790699064" lon="9.286540597248557"><ele>208.0</ele><time>2026-05-03T07:37:52.988Z</time></trkpt><trkpt lat="46.13216866454522" lon="9.286559689582562"><ele>208.0</ele><time>2026-05-03T07:37:53.988Z</time></trkpt><trkpt lat="46.13236577893101" lon="9.286575205788898"><ele>208.0</ele><time>2026-05-03T07:37:54.988Z</time></trkpt><trkpt lat="46.13256066430569" lon="9.286595611020354"><ele>207.66666666666666</ele><time>2026-05-03T07:37:55.988Z</time></trkpt><trkpt lat="46.132754568472976" lon="9.286615946758706"><ele>207.33333333333331</ele><time>2026-05-03T07:37:56.988Z</time></trkpt><trkpt lat="46.13294596588286" lon="9.286633009502987"><ele>207.0</ele><time>2026-05-03T07:37:57.988Z</time></trkpt><trkpt lat="46.13313290261342" lon="9.286690060058197"><ele>207.0</ele><time>2026-05-03T07:37:58.988Z</time></trkpt><trkpt lat="46.133306269913426" lon="9.286711091914702"><ele>207.0</ele><time>2026-05-03T07:37:59.988Z</time></trkpt><trkpt lat="46.13346978146386" lon="9.286730928137645"><ele>207.0</ele><time>2026-05-03T07:38:00.988Z</time></trkpt><trkpt lat="46.133620364342704" lon="9.286750847728168"><ele>207.0</ele><time>2026-05-03T07:38:01.988Z</time></trkpt><trkpt lat="46.13376323588738" lon="9.286770449166818"><ele>207.0</ele><time>2026-05-03T07:38:02.988Z</time></trkpt><trkpt lat="46.1338933921091" lon="9.28678998117455"><ele>207.0</ele><time>2026-05-03T07:38:03.988Z</time></trkpt><trkpt lat="46.13402520588524" lon="9.2868140342033"><ele>207.0</ele><time>2026-05-03T07:38:04.988Z</time></trkpt><trkpt lat="46.134162347182475" lon="9.286848213816123"><ele>206.5</ele><time>2026-05-03T07:38:05.988Z</time></trkpt><trkpt lat="46.134295630975" lon="9.286868582501072"><ele>206.0</ele><time>2026-05-03T07:38:06.988Z</time></trkpt><trkpt lat="46.134411192082084" lon="9.286921033098777"><ele>205.5</ele><time>2026-05-03T07:38:07.988Z</time></trkpt><trkpt lat="46.13451227464199" lon="9.2869623854198"><ele>205.0</ele><time>2026-05-03T07:38:08.988Z</time></trkpt><trkpt lat="46.13460495891027" lon="9.2869993971632"><ele>205.0</ele><time>2026-05-03T07:38:09.988Z</time></trkpt><trkpt lat="46.134694664179165" lon="9.287039283286036"><ele>205.0</ele><time>2026-05-03T07:38:10.988Z</time></trkpt><trkpt lat="46.13477177015131" lon="9.287077446257795"><ele>205.0</ele><time>2026-05-03T07:38:11.988Z</time></trkpt><trkpt lat="46.13483082168879" lon="9.287112509494886"><ele>205.0</ele><time>2026-05-03T07:38:12.988Z</time></trkpt><trkpt lat="46.13494069346629" lon="9.28718631818146"><ele>205.0</ele><time>2026-05-03T07:38:14.988Z</time></trkpt><trkpt lat="46.135036252582694" lon="9.287263059480098"><ele>205.0</ele><time>2026-05-03T07:38:16.988Z</time></trkpt><trkpt lat="46.135105047647876" lon="9.287370690744842"><ele>205.0</ele><time>2026-05-03T07:38:18.988Z</time></trkpt><trkpt lat="46.135173985241124" lon="9.287477479449725"><ele>205.0</ele><time>2026-05-03T07:38:20.988Z</time></trkpt><trkpt lat="46.135299577099076" lon="9.287528548450027"><ele>205.0</ele><time>2026-05-03T07:38:22.988Z</time></trkpt><trkpt lat="46.13536747684333" lon="9.287562044311862"><ele>205.0</ele><time>2026-05-03T07:38:23.988Z</time></trkpt><trkpt lat="46.13543821036519" lon="9.287596917738197"><ele>204.99999999999997</ele><time>2026-05-03T07:38:24.988Z</time></trkpt><trkpt lat="46.135514000340905" lon="9.28764138835672"><ele>205.0</ele><time>2026-05-03T07:38:25.988Z</time></trkpt><trkpt lat="46.135572301588454" lon="9.287713907574501"><ele>205.0</ele><time>2026-05-03T07:38:26.988Z</time></trkpt><trkpt lat="46.135639484738505" lon="9.287768204127197"><ele>205.0</ele><time>2026-05-03T07:38:27.988Z</time></trkpt><trkpt lat="46.135711528838875" lon="9.287827140489672"><ele>204.99999999999997</ele><time>2026-05-03T07:38:28.988Z</time></trkpt><trkpt lat="46.135788925704105" lon="9.287892585376932"><ele>205.0</ele><time>2026-05-03T07:38:29.988Z</time></trkpt><trkpt lat="46.13587176926996" lon="9.28796263584364"><ele>205.0</ele><time>2026-05-03T07:38:30.988Z</time></trkpt><trkpt lat="46.13596204822636" lon="9.288023655985256"><ele>205.0</ele><time>2026-05-03T07:38:31.988Z</time></trkpt><trkpt lat="46.13605105193987" lon="9.288099144315076"><ele>205.0</ele><time>2026-05-03T07:38:32.988Z</time></trkpt><trkpt lat="46.13615593217898" lon="9.288159195178908"><ele>205.0</ele><time>2026-05-03T07:38:33.988Z</time></trkpt><trkpt lat="46.136255719055484" lon="9.288243254494473"><ele>205.0</ele><time>2026-05-03T07:38:34.988Z</time></trkpt><trkpt lat="46.13635067212733" lon="9.288322228244756"><ele>204.75</ele><time>2026-05-03T07:38:35.988Z</time></trkpt><trkpt lat="46.13644336944236" lon="9.288401099552456"><ele>204.5</ele><time>2026-05-03T07:38:36.988Z</time></trkpt><trkpt lat="46.13654210754403" lon="9.288487990239828"><ele>204.25</ele><time>2026-05-03T07:38:37.988Z</time></trkpt><trkpt lat="46.13664208404146" lon="9.288573907039945"><ele>204.0</ele><time>2026-05-03T07:38:38.988Z</time></trkpt><trkpt lat="46.13674371661589" lon="9.288660529644785"><ele>204.25</ele><time>2026-05-03T07:38:39.988Z</time></trkpt><trkpt lat="46.13684725808913" lon="9.28875144318388"><ele>204.5</ele><time>2026-05-03T07:38:40.988Z</time></trkpt><trkpt lat="46.136937862763524" lon="9.288886823474238"><ele>204.75</ele><time>2026-05-03T07:38:41.988Z</time></trkpt><trkpt lat="46.13704071380785" lon="9.28897490459725"><ele>205.0</ele><time>2026-05-03T07:38:42.988Z</time></trkpt><trkpt lat="46.13714472739039" lon="9.289059668464896"><ele>205.0</ele><time>2026-05-03T07:38:43.988Z</time></trkpt><trkpt lat="46.13725094793503" lon="9.28914528122681"><ele>205.0</ele><time>2026-05-03T07:38:44.988Z</time></trkpt><trkpt lat="46.137357382545346" lon="9.289230644906729"><ele>205.0</ele><time>2026-05-03T07:38:45.988Z</time></trkpt><trkpt lat="46.13745839041596" lon="9.289313123267524"><ele>205.0</ele><time>2026-05-03T07:38:46.988Z</time></trkpt><trkpt lat="46.137555139861455" lon="9.289392463786246"><ele>204.25</ele><time>2026-05-03T07:38:47.988Z</time></trkpt><trkpt lat="46.13765104635292" lon="9.289465409520728"><ele>203.5</ele><time>2026-05-03T07:38:48.988Z</time></trkpt><trkpt lat="46.13774472771815" lon="9.2895412856135"><ele>202.75</ele><time>2026-05-03T07:38:49.988Z</time></trkpt><trkpt lat="46.137845369021896" lon="9.289624702001454"><ele>202.0</ele><time>2026-05-03T07:38:50.988Z</time></trkpt><trkpt lat="46.137952166027134" lon="9.289717015185747"><ele>201.5</ele><time>2026-05-03T07:38:51.988Z</time></trkpt><trkpt lat="46.13806220235268" lon="9.289808996640538"><ele>201.0</ele><time>2026-05-03T07:38:52.988Z</time></trkpt><trkpt lat="46.1381748594744" lon="9.289900726402339"><ele>200.5</ele><time>2026-05-03T07:38:53.988Z</time></trkpt><trkpt lat="46.13828537917294" lon="9.289997406998573"><ele>200.0</ele><time>2026-05-03T07:38:54.988Z</time></trkpt><trkpt lat="46.13839029352072" lon="9.290080083878445"><ele>201.0</ele><time>2026-05-03T07:38:55.988Z</time></trkpt><trkpt lat="46.13849277224033" lon="9.290168190939246"><ele>202.0</ele><time>2026-05-03T07:38:56.988Z</time></trkpt><trkpt lat="46.13859222161056" lon="9.290250901347653"><ele>203.0</ele><time>2026-05-03T07:38:57.988Z</time></trkpt><trkpt lat="46.13869340316271" lon="9.29033369291019"><ele>204.0</ele><time>2026-05-03T07:38:58.988Z</time></trkpt><trkpt lat="46.138797628325534" lon="9.290419315495363"><ele>204.0</ele><time>2026-05-03T07:38:59.988Z</time></trkpt><trkpt lat="46.138901613136646" lon="9.29050857858502"><ele>204.0</ele><time>2026-05-03T07:39:00.988Z</time></trkpt><trkpt lat="46.13900908427091" lon="9.290597931717093"><ele>204.0</ele><time>2026-05-03T07:39:01.988Z</time></trkpt><trkpt lat="46.1391099640619" lon="9.290681721925353"><ele>204.0</ele><time>2026-05-03T07:39:02.988Z</time></trkpt><trkpt lat="46.13921018750671" lon="9.290764488858503"><ele>204.5</ele><time>2026-05-03T07:39:03.988Z</time></trkpt><trkpt lat="46.13931518962484" lon="9.290865990140109"><ele>205.0</ele><time>2026-05-03T07:39:04.988Z</time></trkpt><trkpt lat="46.139433048949584" lon="9.290962050892833"><ele>205.5</ele><time>2026-05-03T07:39:05.988Z</time></trkpt><trkpt lat="46.139565757138115" lon="9.291066836705166"><ele>206.0</ele><time>2026-05-03T07:39:06.988Z</time></trkpt><trkpt lat="46.13970157785782" lon="9.291176733045784"><ele>206.0</ele><time>2026-05-03T07:39:07.988Z</time></trkpt><trkpt lat="46.1398425490283" lon="9.291300198723027"><ele>206.0</ele><time>2026-05-03T07:39:08.988Z</time></trkpt><trkpt lat="46.13997873005214" lon="9.291422887990791"><ele>206.0</ele><time>2026-05-03T07:39:09.988Z</time></trkpt><trkpt lat="46.14010576526707" lon="9.291538310935794"><ele>206.75</ele><time>2026-05-03T07:39:10.988Z</time></trkpt><trkpt lat="46.14022364076302" lon="9.291646195300203"><ele>207.5</ele><time>2026-05-03T07:39:11.988Z</time></trkpt><trkpt lat="46.14033687861435" lon="9.291759834887916"><ele>208.25</ele><time>2026-05-03T07:39:12.988Z</time></trkpt><trkpt lat="46.140446552841375" lon="9.291883009714503"><ele>209.0</ele><time>2026-05-03T07:39:13.988Z</time></trkpt><trkpt lat="46.14055490257927" lon="9.292006915312133"><ele>209.0</ele><time>2026-05-03T07:39:14.988Z</time></trkpt><trkpt lat="46.140653340556895" lon="9.292142244106602"><ele>209.0</ele><time>2026-05-03T07:39:15.988Z</time></trkpt><trkpt lat="46.140740608465705" lon="9.292285323441435"><ele>209.0</ele><time>2026-05-03T07:39:16.988Z</time></trkpt><trkpt lat="46.140818993997094" lon="9.292425038770244"><ele>209.0</ele><time>2026-05-03T07:39:17.988Z</time></trkpt><trkpt lat="46.140891006701" lon="9.292571668811172"><ele>209.5</ele><time>2026-05-03T07:39:18.988Z</time></trkpt><trkpt lat="46.14095918867436" lon="9.292720998689038"><ele>210.0</ele><time>2026-05-03T07:39:19.988Z</time></trkpt><trkpt lat="46.141027748926916" lon="9.292870364028845"><ele>210.5</ele><time>2026-05-03T07:39:20.988Z</time></trkpt><trkpt lat="46.141098186155396" lon="9.293017609988812"><ele>211.0</ele><time>2026-05-03T07:39:21.988Z</time></trkpt><trkpt lat="46.14116735466968" lon="9.293167314393052"><ele>211.0</ele><time>2026-05-03T07:39:22.988Z</time></trkpt><trkpt lat="46.141228817148466" lon="9.293308189400625"><ele>211.0</ele><time>2026-05-03T07:39:23.988Z</time></trkpt><trkpt lat="46.14128730815087" lon="9.293431744172354"><ele>211.0</ele><time>2026-05-03T07:39:24.988Z</time></trkpt><trkpt lat="46.14134226316875" lon="9.293545349603754"><ele>211.0</ele><time>2026-05-03T07:39:25.988Z</time></trkpt><trkpt lat="46.141388804965665" lon="9.293642209900625"><ele>211.0</ele><time>2026-05-03T07:39:26.988Z</time></trkpt><trkpt lat="46.141427350994306" lon="9.293723369199366"><ele>211.0</ele><time>2026-05-03T07:39:27.988Z</time></trkpt><trkpt lat="46.14146086405914" lon="9.293801113113014"><ele>211.0</ele><time>2026-05-03T07:39:28.988Z</time></trkpt><trkpt lat="46.1415011758366" lon="9.293883215346838"><ele>211.0</ele><time>2026-05-03T07:39:29.988Z</time></trkpt><trkpt lat="46.14154095828294" lon="9.29396105731046"><ele>211.0</ele><time>2026-05-03T07:39:30.988Z</time></trkpt><trkpt lat="46.14162167803222" lon="9.294133945047955"><ele>211.0</ele><time>2026-05-03T07:39:32.988Z</time></trkpt><trkpt lat="46.14168553032878" lon="9.294258641832322"><ele>211.75</ele><time>2026-05-03T07:39:33.988Z</time></trkpt><trkpt lat="46.14175899343966" lon="9.29440258054674"><ele>212.5</ele><time>2026-05-03T07:39:34.988Z</time></trkpt><trkpt lat="46.14183857623315" lon="9.294573118220159"><ele>213.25</ele><time>2026-05-03T07:39:35.988Z</time></trkpt><trkpt lat="46.1419079214738" lon="9.294735441524463"><ele>214.0</ele><time>2026-05-03T07:39:36.988Z</time></trkpt><trkpt lat="46.14197322212128" lon="9.294883832937115"><ele>214.0</ele><time>2026-05-03T07:39:37.988Z</time></trkpt><trkpt lat="46.14204256033281" lon="9.29503135000687"><ele>214.0</ele><time>2026-05-03T07:39:38.988Z</time></trkpt><trkpt lat="46.142111344759606" lon="9.295174002189444"><ele>214.0</ele><time>2026-05-03T07:39:39.988Z</time></trkpt><trkpt lat="46.142152190361365" lon="9.295355355831084"><ele>214.0</ele><time>2026-05-03T07:39:40.988Z</time></trkpt><trkpt lat="46.142230742549955" lon="9.295495081761777"><ele>214.25</ele><time>2026-05-03T07:39:41.988Z</time></trkpt><trkpt lat="46.14232150734905" lon="9.295630973973243"><ele>214.5</ele><time>2026-05-03T07:39:42.988Z</time></trkpt><trkpt lat="46.14242814292364" lon="9.295766751702653"><ele>214.75</ele><time>2026-05-03T07:39:43.988Z</time></trkpt><trkpt lat="46.14254308826899" lon="9.295877989130133"><ele>215.0</ele><time>2026-05-03T07:39:44.988Z</time></trkpt><trkpt lat="46.14266075928879" lon="9.295974346145925"><ele>215.75</ele><time>2026-05-03T07:39:45.988Z</time></trkpt><trkpt lat="46.142775393502276" lon="9.296071072098384"><ele>216.5</ele><time>2026-05-03T07:39:46.988Z</time></trkpt><trkpt lat="46.14288115594234" lon="9.296162228161336"><ele>217.25</ele><time>2026-05-03T07:39:47.988Z</time></trkpt><trkpt lat="46.1429827795233" lon="9.296252500817536"><ele>218.0</ele><time>2026-05-03T07:39:48.988Z</time></trkpt><trkpt lat="46.14308108144496" lon="9.296343797331996"><ele>218.0</ele><time>2026-05-03T07:39:49.988Z</time></trkpt><trkpt lat="46.143177921527524" lon="9.296434257662007"><ele>218.0</ele><time>2026-05-03T07:39:50.988Z</time></trkpt><trkpt lat="46.143268691069736" lon="9.296513818603218"><ele>218.0</ele><time>2026-05-03T07:39:51.988Z</time></trkpt><trkpt lat="46.14335064586369" lon="9.296591325848832"><ele>218.0</ele><time>2026-05-03T07:39:52.988Z</time></trkpt><trkpt lat="46.143428348285845" lon="9.29666271696356"><ele>218.0</ele><time>2026-05-03T07:39:53.988Z</time></trkpt><trkpt lat="46.143506537832565" lon="9.296725789395465"><ele>217.66666666666669</ele><time>2026-05-03T07:39:54.988Z</time></trkpt><trkpt lat="46.14358123721253" lon="9.2967998703493"><ele>217.33333333333334</ele><time>2026-05-03T07:39:55.988Z</time></trkpt><trkpt lat="46.14364797385497" lon="9.296889954738893"><ele>217.0</ele><time>2026-05-03T07:39:56.988Z</time></trkpt><trkpt lat="46.14369592824064" lon="9.296991957832866"><ele>216.66666666666669</ele><time>2026-05-03T07:39:57.988Z</time></trkpt><trkpt lat="46.14373002967047" lon="9.297103772420632"><ele>216.33333333333334</ele><time>2026-05-03T07:39:58.988Z</time></trkpt><trkpt lat="46.14376047552188" lon="9.297235517391924"><ele>216.0</ele><time>2026-05-03T07:39:59.988Z</time></trkpt><trkpt lat="46.143789811602396" lon="9.297360121589328"><ele>216.0</ele><time>2026-05-03T07:40:00.988Z</time></trkpt><trkpt lat="46.14380116577345" lon="9.29748841459477"><ele>216.0</ele><time>2026-05-03T07:40:01.988Z</time></trkpt><trkpt lat="46.14382790594225" lon="9.297621214950993"><ele>216.0</ele><time>2026-05-03T07:40:02.988Z</time></trkpt><trkpt lat="46.14386131126416" lon="9.297715573141566"><ele>216.0</ele><time>2026-05-03T07:40:03.988Z</time></trkpt><trkpt lat="46.14388823413276" lon="9.297851635171204"><ele>216.0</ele><time>2026-05-03T07:40:06.988Z</time></trkpt><trkpt lat="46.1439095680434" lon="9.29795943192066"><ele>216.0</ele><time>2026-05-03T07:40:08.988Z</time></trkpt><trkpt lat="46.14394788214439" lon="9.298142112452155"><ele>215.66666666666666</ele><time>2026-05-03T07:40:10.988Z</time></trkpt><trkpt lat="46.143980600253215" lon="9.298260197576921"><ele>215.33333333333331</ele><time>2026-05-03T07:40:11.988Z</time></trkpt><trkpt lat="46.144009805725915" lon="9.298387896702959"><ele>215.0</ele><time>2026-05-03T07:40:12.988Z</time></trkpt><trkpt lat="46.144044811260876" lon="9.298513186086721"><ele>214.66666666666666</ele><time>2026-05-03T07:40:13.988Z</time></trkpt><trkpt lat="46.144075379956696" lon="9.29863680404012"><ele>214.33333333333331</ele><time>2026-05-03T07:40:14.988Z</time></trkpt><trkpt lat="46.14410147024227" lon="9.298746619632167"><ele>214.0</ele><time>2026-05-03T07:40:15.988Z</time></trkpt><trkpt lat="46.14412567789373" lon="9.298852957930393"><ele>215.33333333333331</ele><time>2026-05-03T07:40:16.988Z</time></trkpt><trkpt lat="46.14415313433744" lon="9.298957243956105"><ele>216.66666666666666</ele><time>2026-05-03T07:40:17.988Z</time></trkpt><trkpt lat="46.144179657943575" lon="9.299072738898058"><ele>218.0</ele><time>2026-05-03T07:40:18.988Z</time></trkpt><trkpt lat="46.14420496601957" lon="9.299186102756439"><ele>219.33333333333331</ele><time>2026-05-03T07:40:19.988Z</time></trkpt><trkpt lat="46.14420331865233" lon="9.29930993500517"><ele>220.66666666666666</ele><time>2026-05-03T07:40:20.988Z</time></trkpt><trkpt lat="46.144219647925055" lon="9.299404883677816"><ele>222.0</ele><time>2026-05-03T07:40:21.988Z</time></trkpt><trkpt lat="46.144234572625784" lon="9.29950989052673"><ele>222.0</ele><time>2026-05-03T07:40:22.988Z</time></trkpt><trkpt lat="46.14425048395241" lon="9.29963175835143"><ele>222.0</ele><time>2026-05-03T07:40:23.988Z</time></trkpt><trkpt lat="46.14428469870239" lon="9.29976521055954"><ele>222.0</ele><time>2026-05-03T07:40:24.988Z</time></trkpt><trkpt lat="46.14435483716463" lon="9.299908230185315"><ele>222.0</ele><time>2026-05-03T07:40:25.988Z</time></trkpt><trkpt lat="46.144450438942954" lon="9.300059305809867"><ele>222.0</ele><time>2026-05-03T07:40:26.988Z</time></trkpt><trkpt lat="46.14455328592697" lon="9.300197742656678"><ele>221.75</ele><time>2026-05-03T07:40:27.988Z</time></trkpt><trkpt lat="46.14463459830989" lon="9.30034725709165"><ele>221.5</ele><time>2026-05-03T07:40:28.988Z</time></trkpt><trkpt lat="46.14473562402093" lon="9.300479053897732"><ele>221.25</ele><time>2026-05-03T07:40:29.988Z</time></trkpt><trkpt lat="46.14484417855608" lon="9.300610262336143"><ele>221.0</ele><time>2026-05-03T07:40:30.988Z</time></trkpt><trkpt lat="46.14495694476399" lon="9.300742404548657"><ele>223.33333333333334</ele><time>2026-05-03T07:40:31.988Z</time></trkpt><trkpt lat="46.14507264951241" lon="9.300877953227918"><ele>225.66666666666669</ele><time>2026-05-03T07:40:32.988Z</time></trkpt><trkpt lat="46.14520677900281" lon="9.30100716598856"><ele>228.0</ele><time>2026-05-03T07:40:33.988Z</time></trkpt><trkpt lat="46.14533068924416" lon="9.301154298834147"><ele>228.0</ele><time>2026-05-03T07:40:34.988Z</time></trkpt><trkpt lat="46.14543144873642" lon="9.30134103541938"><ele>228.0</ele><time>2026-05-03T07:40:35.988Z</time></trkpt><trkpt lat="46.14555044814997" lon="9.30148743442717"><ele>228.0</ele><time>2026-05-03T07:40:36.988Z</time></trkpt><trkpt lat="46.14567148710294" lon="9.30163826484704"><ele>228.0</ele><time>2026-05-03T07:40:37.988Z</time></trkpt><trkpt lat="46.145790142312364" lon="9.301786932822921"><ele>228.0</ele><time>2026-05-03T07:40:38.988Z</time></trkpt><trkpt lat="46.14590931824427" lon="9.301932090866089"><ele>228.0</ele><time>2026-05-03T07:40:39.988Z</time></trkpt><trkpt lat="46.1460265284836" lon="9.302078329911163"><ele>228.0</ele><time>2026-05-03T07:40:40.988Z</time></trkpt><trkpt lat="46.14614449306327" lon="9.302222142759339"><ele>228.0</ele><time>2026-05-03T07:40:41.988Z</time></trkpt><trkpt lat="46.14627687548622" lon="9.30234532618311"><ele>228.0</ele><time>2026-05-03T07:40:42.988Z</time></trkpt><trkpt lat="46.146430595105194" lon="9.302413081009771"><ele>227.66666666666669</ele><time>2026-05-03T07:40:43.988Z</time></trkpt><trkpt lat="46.146587737260425" lon="9.302459765156291"><ele>227.33333333333334</ele><time>2026-05-03T07:40:44.988Z</time></trkpt><trkpt lat="46.146751832026965" lon="9.302480173283215"><ele>227.0</ele><time>2026-05-03T07:40:45.988Z</time></trkpt><trkpt lat="46.14690905193593" lon="9.302500215048717"><ele>227.0</ele><time>2026-05-03T07:40:46.988Z</time></trkpt><trkpt lat="46.14706759626266" lon="9.302524858147832"><ele>227.0</ele><time>2026-05-03T07:40:47.988Z</time></trkpt><trkpt lat="46.14720920426461" lon="9.302545403669786"><ele>227.0</ele><time>2026-05-03T07:40:48.988Z</time></trkpt><trkpt lat="46.14733162062289" lon="9.302566564268902"><ele>227.0</ele><time>2026-05-03T07:40:49.988Z</time></trkpt><trkpt lat="46.147445300009245" lon="9.302617242551564"><ele>227.0</ele><time>2026-05-03T07:40:50.988Z</time></trkpt><trkpt lat="46.1475468063255" lon="9.30271798539288"><ele>227.0</ele><time>2026-05-03T07:40:51.988Z</time></trkpt><trkpt lat="46.14763751536174" lon="9.30286378552109"><ele>227.0</ele><time>2026-05-03T07:40:52.988Z</time></trkpt><trkpt lat="46.14774392206848" lon="9.303029179977775"><ele>227.0</ele><time>2026-05-03T07:40:53.988Z</time></trkpt><trkpt lat="46.147852380782794" lon="9.303200497011119"><ele>227.0</ele><time>2026-05-03T07:40:54.988Z</time></trkpt><trkpt lat="46.14795557629711" lon="9.30336877745376"><ele>227.0</ele><time>2026-05-03T07:40:55.988Z</time></trkpt><trkpt lat="46.1480378457022" lon="9.3035399522695"><ele>227.0</ele><time>2026-05-03T07:40:56.988Z</time></trkpt><trkpt lat="46.1481204096979" lon="9.303679185610656"><ele>227.0</ele><time>2026-05-03T07:40:57.988Z</time></trkpt><trkpt lat="46.14819896512651" lon="9.3038114645431"><ele>227.2</ele><time>2026-05-03T07:40:58.988Z</time></trkpt><trkpt lat="46.14827584447925" lon="9.303939886078416"><ele>227.39999999999998</ele><time>2026-05-03T07:40:59.988Z</time></trkpt><trkpt lat="46.148350038127006" lon="9.304063821293079"><ele>227.60000000000002</ele><time>2026-05-03T07:41:00.988Z</time></trkpt><trkpt lat="46.14841848854109" lon="9.304178162789443"><ele>227.8</ele><time>2026-05-03T07:41:01.988Z</time></trkpt><trkpt lat="46.14848153738385" lon="9.304288121604593"><ele>228.0</ele><time>2026-05-03T07:41:02.988Z</time></trkpt><trkpt lat="46.14853692449461" lon="9.304403525218765"><ele>228.0</ele><time>2026-05-03T07:41:03.988Z</time></trkpt><trkpt lat="46.1485702655769" lon="9.304533531988659"><ele>228.0</ele><time>2026-05-03T07:41:04.988Z</time></trkpt><trkpt lat="46.148594431252214" lon="9.304674901225608"><ele>228.0</ele><time>2026-05-03T07:41:05.988Z</time></trkpt><trkpt lat="46.14858274718822" lon="9.304817104967661"><ele>228.0</ele><time>2026-05-03T07:41:06.988Z</time></trkpt><trkpt lat="46.14853813216923" lon="9.304941631404791"><ele>228.0</ele><time>2026-05-03T07:41:07.988Z</time></trkpt><trkpt lat="46.148496473579975" lon="9.305070143472113"><ele>227.4</ele><time>2026-05-03T07:41:08.988Z</time></trkpt><trkpt lat="46.14845498183752" lon="9.30519606209697"><ele>226.8</ele><time>2026-05-03T07:41:09.988Z</time></trkpt><trkpt lat="46.14841533469065" lon="9.30531716918036"><ele>226.2</ele><time>2026-05-03T07:41:10.988Z</time></trkpt><trkpt lat="46.14837627196855" lon="9.305439752967834"><ele>225.6</ele><time>2026-05-03T07:41:11.988Z</time></trkpt><trkpt lat="46.14834294291666" lon="9.305562044256936"><ele>225.0</ele><time>2026-05-03T07:41:12.988Z</time></trkpt><trkpt lat="46.14832651240393" lon="9.305684793767728"><ele>225.0</ele><time>2026-05-03T07:41:13.988Z</time></trkpt><trkpt lat="46.148330442409396" lon="9.30580620765819"><ele>225.0</ele><time>2026-05-03T07:41:14.988Z</time></trkpt><trkpt lat="46.148343351273844" lon="9.30594020127015"><ele>225.0</ele><time>2026-05-03T07:41:15.988Z</time></trkpt><trkpt lat="46.14835873217093" lon="9.30607554869278"><ele>225.0</ele><time>2026-05-03T07:41:16.988Z</time></trkpt><trkpt lat="46.14837509337659" lon="9.306198053680019"><ele>225.0</ele><time>2026-05-03T07:41:17.988Z</time></trkpt><trkpt lat="46.148387425832894" lon="9.306287779487246"><ele>225.0</ele><time>2026-05-03T07:41:18.988Z</time></trkpt><trkpt lat="46.14841376615436" lon="9.306456495723518"><ele>225.2</ele><time>2026-05-03T07:41:20.988Z</time></trkpt><trkpt lat="46.14844060276016" lon="9.306628724921909"><ele>225.4</ele><time>2026-05-03T07:41:22.988Z</time></trkpt><trkpt lat="46.14847970558486" lon="9.306805619300688"><ele>225.60000000000002</ele><time>2026-05-03T07:41:24.988Z</time></trkpt><trkpt lat="46.14845559285957" lon="9.306899924035116"><ele>225.8</ele><time>2026-05-03T07:41:25.988Z</time></trkpt><trkpt lat="46.14846503866984" lon="9.307054070007952"><ele>226.0</ele><time>2026-05-03T07:41:27.988Z</time></trkpt><trkpt lat="46.14847870759554" lon="9.307165177694225"><ele>225.66666666666666</ele><time>2026-05-03T07:41:29.988Z</time></trkpt><trkpt lat="46.14850284287843" lon="9.307293901966572"><ele>225.33333333333331</ele><time>2026-05-03T07:41:32.988Z</time></trkpt><trkpt lat="46.14852816156919" lon="9.307397213871075"><ele>225.0</ele><time>2026-05-03T07:41:35.988Z</time></trkpt><trkpt lat="46.148545111332254" lon="9.307518226085294"><ele>224.66666666666669</ele><time>2026-05-03T07:41:37.987Z</time></trkpt><trkpt lat="46.14856353654299" lon="9.307632061803872"><ele>224.33333333333334</ele><time>2026-05-03T07:41:40.987Z</time></trkpt><trkpt lat="46.148605061478655" lon="9.307739102603026"><ele>224.0</ele><time>2026-05-03T07:41:42.987Z</time></trkpt><trkpt lat="46.14862795025129" lon="9.307843215651896"><ele>224.0</ele><time>2026-05-03T07:41:45.987Z</time></trkpt><trkpt lat="46.1486191489712" lon="9.307968325659367"><ele>223.99999999999997</ele><time>2026-05-03T07:41:48.987Z</time></trkpt><trkpt lat="46.14861017375927" lon="9.308142929694796"><ele>223.99999999999997</ele><time>2026-05-03T07:41:50.987Z</time></trkpt><trkpt lat="46.14860745702868" lon="9.308242371430111"><ele>224.0</ele><time>2026-05-03T07:41:51.987Z</time></trkpt><trkpt lat="46.14860671508308" lon="9.308366873392098"><ele>224.0</ele><time>2026-05-03T07:41:52.987Z</time></trkpt><trkpt lat="46.14861233655276" lon="9.308519930633604"><ele>222.33333333333334</ele><time>2026-05-03T07:41:53.987Z</time></trkpt><trkpt lat="46.14862685754935" lon="9.308706967880985"><ele>220.66666666666669</ele><time>2026-05-03T07:41:54.987Z</time></trkpt><trkpt lat="46.14865241846905" lon="9.308947826447827"><ele>219.0</ele><time>2026-05-03T07:41:55.987Z</time></trkpt><trkpt lat="46.14868413133203" lon="9.309192080077635"><ele>218.33333333333331</ele><time>2026-05-03T07:41:56.987Z</time></trkpt><trkpt lat="46.148717957520155" lon="9.309438387147734"><ele>217.66666666666666</ele><time>2026-05-03T07:41:57.987Z</time></trkpt><trkpt lat="46.14875321211885" lon="9.309695095509923"><ele>217.0</ele><time>2026-05-03T07:41:58.987Z</time></trkpt><trkpt lat="46.148800831901276" lon="9.309936900508358"><ele>214.66666666666666</ele><time>2026-05-03T07:41:59.987Z</time></trkpt><trkpt lat="46.14883020644193" lon="9.310190061735648"><ele>212.33333333333331</ele><time>2026-05-03T07:42:00.987Z</time></trkpt><trkpt lat="46.1488627323591" lon="9.31045171286784"><ele>210.0</ele><time>2026-05-03T07:42:01.987Z</time></trkpt><trkpt lat="46.148861220228376" lon="9.310721214590869"><ele>208.33333333333331</ele><time>2026-05-03T07:42:02.987Z</time></trkpt><trkpt lat="46.14889337418428" lon="9.310964259940597"><ele>206.66666666666666</ele><time>2026-05-03T07:42:03.987Z</time></trkpt><trkpt lat="46.1489239704678" lon="9.311206631289147"><ele>205.0</ele><time>2026-05-03T07:42:04.987Z</time></trkpt><trkpt lat="46.1489552429541" lon="9.311449549683251"><ele>204.66666666666666</ele><time>2026-05-03T07:42:05.987Z</time></trkpt><trkpt lat="46.14898501750968" lon="9.311696970495342"><ele>204.33333333333331</ele><time>2026-05-03T07:42:06.987Z</time></trkpt><trkpt lat="46.14902402803059" lon="9.311933957046044"><ele>204.0</ele><time>2026-05-03T07:42:07.987Z</time></trkpt><trkpt lat="46.14905922587616" lon="9.31217267755977"><ele>209.33333333333331</ele><time>2026-05-03T07:42:08.987Z</time></trkpt><trkpt lat="46.14908674246374" lon="9.312413068549583"><ele>214.66666666666666</ele><time>2026-05-03T07:42:09.987Z</time></trkpt><trkpt lat="46.14911535115072" lon="9.312653683480589"><ele>220.0</ele><time>2026-05-03T07:42:10.987Z</time></trkpt><trkpt lat="46.1491403709068" lon="9.312893984735187"><ele>219.66666666666666</ele><time>2026-05-03T07:42:11.987Z</time></trkpt><trkpt lat="46.1491526962355" lon="9.31313893295313"><ele>219.33333333333331</ele><time>2026-05-03T07:42:12.987Z</time></trkpt><trkpt lat="46.1491595980183" lon="9.313383689573078"><ele>219.0</ele><time>2026-05-03T07:42:13.987Z</time></trkpt><trkpt lat="46.14916685018844" lon="9.31362915089666"><ele>219.0</ele><time>2026-05-03T07:42:14.987Z</time></trkpt><trkpt lat="46.149177639200865" lon="9.313878548172974"><ele>219.0</ele><time>2026-05-03T07:42:15.987Z</time></trkpt><trkpt lat="46.1491871636371" lon="9.3141355278227"><ele>219.0</ele><time>2026-05-03T07:42:16.987Z</time></trkpt><trkpt lat="46.14919697228061" lon="9.31438151906822"><ele>218.66666666666669</ele><time>2026-05-03T07:42:17.987Z</time></trkpt><trkpt lat="46.14920758484007" lon="9.314620806629858"><ele>218.33333333333334</ele><time>2026-05-03T07:42:18.987Z</time></trkpt><trkpt lat="46.14923219467992" lon="9.314848954792463"><ele>218.0</ele><time>2026-05-03T07:42:19.987Z</time></trkpt><trkpt lat="46.14926620538994" lon="9.315078153857547"><ele>216.33333333333334</ele><time>2026-05-03T07:42:20.987Z</time></trkpt><trkpt lat="46.14931706044788" lon="9.31530675714727"><ele>214.66666666666669</ele><time>2026-05-03T07:42:21.987Z</time></trkpt><trkpt lat="46.14936215206714" lon="9.315545412191948"><ele>213.0</ele><time>2026-05-03T07:42:22.987Z</time></trkpt><trkpt lat="46.14938864940662" lon="9.315798979917027"><ele>212.33333333333331</ele><time>2026-05-03T07:42:23.987Z</time></trkpt><trkpt lat="46.149407511163545" lon="9.316058220324456"><ele>211.66666666666666</ele><time>2026-05-03T07:42:24.987Z</time></trkpt><trkpt lat="46.14941372638167" lon="9.316322945171407"><ele>211.0</ele><time>2026-05-03T07:42:25.987Z</time></trkpt><trkpt lat="46.14939624525453" lon="9.316592533775706"><ele>211.0</ele><time>2026-05-03T07:42:26.987Z</time></trkpt><trkpt lat="46.149362690188546" lon="9.316857228980195"><ele>211.0</ele><time>2026-05-03T07:42:27.987Z</time></trkpt><trkpt lat="46.14932674575144" lon="9.317128283229955"><ele>211.0</ele><time>2026-05-03T07:42:28.987Z</time></trkpt><trkpt lat="46.14928744142983" lon="9.317407362452027"><ele>211.66666666666666</ele><time>2026-05-03T07:42:29.987Z</time></trkpt><trkpt lat="46.14925008720222" lon="9.317685593616746"><ele>212.33333333333331</ele><time>2026-05-03T07:42:30.987Z</time></trkpt><trkpt lat="46.14921724721793" lon="9.317958908309622"><ele>213.0</ele><time>2026-05-03T07:42:31.987Z</time></trkpt><trkpt lat="46.14917824493098" lon="9.318233803801748"><ele>211.66666666666669</ele><time>2026-05-03T07:42:32.987Z</time></trkpt><trkpt lat="46.14914427109079" lon="9.318506240702826"><ele>210.33333333333334</ele><time>2026-05-03T07:42:33.987Z</time></trkpt><trkpt lat="46.14911036257052" lon="9.318779868119552"><ele>209.0</ele><time>2026-05-03T07:42:34.987Z</time></trkpt><trkpt lat="46.149093670752926" lon="9.319055796911785"><ele>208.0</ele><time>2026-05-03T07:42:35.987Z</time></trkpt><trkpt lat="46.14906568967603" lon="9.319330956216318"><ele>207.0</ele><time>2026-05-03T07:42:36.987Z</time></trkpt><trkpt lat="46.149059520990825" lon="9.319604517759577"><ele>206.0</ele><time>2026-05-03T07:42:37.987Z</time></trkpt><trkpt lat="46.14906062389454" lon="9.319862146966274"><ele>206.0</ele><time>2026-05-03T07:42:38.987Z</time></trkpt><trkpt lat="46.14906919501343" lon="9.320115210229517"><ele>206.0</ele><time>2026-05-03T07:42:39.987Z</time></trkpt><trkpt lat="46.14907874640102" lon="9.320359497303105"><ele>206.0</ele><time>2026-05-03T07:42:40.987Z</time></trkpt><trkpt lat="46.149113733280196" lon="9.320597820280291"><ele>204.66666666666669</ele><time>2026-05-03T07:42:41.987Z</time></trkpt><trkpt lat="46.14915308177942" lon="9.320831952279562"><ele>203.33333333333331</ele><time>2026-05-03T07:42:42.987Z</time></trkpt><trkpt lat="46.14922351165868" lon="9.321058524736532"><ele>202.0</ele><time>2026-05-03T07:42:43.987Z</time></trkpt><trkpt lat="46.149312239371056" lon="9.321275173224572"><ele>202.66666666666666</ele><time>2026-05-03T07:42:44.987Z</time></trkpt><trkpt lat="46.14941145397471" lon="9.321484760523495"><ele>203.33333333333331</ele><time>2026-05-03T07:42:45.987Z</time></trkpt><trkpt lat="46.14951456951303" lon="9.321698272078336"><ele>204.0</ele><time>2026-05-03T07:42:46.987Z</time></trkpt><trkpt lat="46.149612119908376" lon="9.321900949802158"><ele>204.0</ele><time>2026-05-03T07:42:47.987Z</time></trkpt><trkpt lat="46.14967150430943" lon="9.322117948496022"><ele>204.0</ele><time>2026-05-03T07:42:48.987Z</time></trkpt><trkpt lat="46.14971142029473" lon="9.322347224540264"><ele>204.0</ele><time>2026-05-03T07:42:49.987Z</time></trkpt><trkpt lat="46.14972775656584" lon="9.322578977482491"><ele>202.33333333333331</ele><time>2026-05-03T07:42:50.987Z</time></trkpt><trkpt lat="46.14977065592269" lon="9.322807999718838"><ele>200.66666666666666</ele><time>2026-05-03T07:42:51.987Z</time></trkpt><trkpt lat="46.14980026289443" lon="9.323027528414126"><ele>199.0</ele><time>2026-05-03T07:42:52.987Z</time></trkpt><trkpt lat="46.14982482473853" lon="9.323237656429322"><ele>198.75</ele><time>2026-05-03T07:42:53.987Z</time></trkpt><trkpt lat="46.14986859013211" lon="9.32342404326324"><ele>198.5</ele><time>2026-05-03T07:42:54.987Z</time></trkpt><trkpt lat="46.14993390170496" lon="9.323585717650442"><ele>198.25</ele><time>2026-05-03T07:42:55.987Z</time></trkpt><trkpt lat="46.15001959145314" lon="9.323741937798065"><ele>198.0</ele><time>2026-05-03T07:42:56.987Z</time></trkpt><trkpt lat="46.15010922993538" lon="9.323905176539768"><ele>199.5</ele><time>2026-05-03T07:42:57.987Z</time></trkpt><trkpt lat="46.15020443432557" lon="9.324065594519293"><ele>201.0</ele><time>2026-05-03T07:42:58.987Z</time></trkpt><trkpt lat="46.15030253994236" lon="9.324223915418342"><ele>202.5</ele><time>2026-05-03T07:42:59.987Z</time></trkpt><trkpt lat="46.15038078345924" lon="9.324393116711393"><ele>204.0</ele><time>2026-05-03T07:43:00.987Z</time></trkpt><trkpt lat="46.15046159982875" lon="9.3245396079085"><ele>204.0</ele><time>2026-05-03T07:43:01.987Z</time></trkpt><trkpt lat="46.1505333788715" lon="9.324670107655836"><ele>204.0</ele><time>2026-05-03T07:43:02.987Z</time></trkpt><trkpt lat="46.15059952245509" lon="9.324798036762525"><ele>204.0</ele><time>2026-05-03T07:43:03.987Z</time></trkpt><trkpt lat="46.150647388292434" lon="9.324921203722877"><ele>204.0</ele><time>2026-05-03T07:43:04.987Z</time></trkpt><trkpt lat="46.15068001037481" lon="9.325042265274538"><ele>204.0</ele><time>2026-05-03T07:43:05.987Z</time></trkpt><trkpt lat="46.150706329921036" lon="9.32516949169128"><ele>203.33333333333334</ele><time>2026-05-03T07:43:06.987Z</time></trkpt><trkpt lat="46.15071886185006" lon="9.325299782404025"><ele>202.66666666666669</ele><time>2026-05-03T07:43:07.987Z</time></trkpt><trkpt lat="46.150724811591175" lon="9.325423178822449"><ele>202.0</ele><time>2026-05-03T07:43:08.987Z</time></trkpt><trkpt lat="46.15072488412169" lon="9.325528573315468"><ele>201.33333333333334</ele><time>2026-05-03T07:43:09.987Z</time></trkpt><trkpt lat="46.15072023663112" lon="9.325628827263488"><ele>200.66666666666669</ele><time>2026-05-03T07:43:10.987Z</time></trkpt><trkpt lat="46.150708963005506" lon="9.325730845141916"><ele>200.0</ele><time>2026-05-03T07:43:11.987Z</time></trkpt><trkpt lat="46.15068697791219" lon="9.325825648001212"><ele>200.00000000000003</ele><time>2026-05-03T07:43:12.987Z</time></trkpt><trkpt lat="46.1506592087636" lon="9.325919570321181"><ele>200.0</ele><time>2026-05-03T07:43:13.987Z</time></trkpt><trkpt lat="46.15062829565844" lon="9.326025428448656"><ele>200.0</ele><time>2026-05-03T07:43:14.987Z</time></trkpt><trkpt lat="46.15059509660546" lon="9.326138727380636"><ele>200.0</ele><time>2026-05-03T07:43:15.987Z</time></trkpt><trkpt lat="46.150560540717464" lon="9.326246016128188"><ele>200.00000000000003</ele><time>2026-05-03T07:43:16.987Z</time></trkpt><trkpt lat="46.150525424912125" lon="9.32635272753083"><ele>200.0</ele><time>2026-05-03T07:43:17.987Z</time></trkpt><trkpt lat="46.15048808166604" lon="9.326466207930068"><ele>200.0</ele><time>2026-05-03T07:43:18.987Z</time></trkpt><trkpt lat="46.150450155138145" lon="9.326581461362906"><ele>200.0</ele><time>2026-05-03T07:43:19.987Z</time></trkpt><trkpt lat="46.15040796428586" lon="9.326709886052884"><ele>200.0</ele><time>2026-05-03T07:43:20.987Z</time></trkpt><trkpt lat="46.15036587288731" lon="9.326838441076985"><ele>200.0</ele><time>2026-05-03T07:43:21.987Z</time></trkpt><trkpt lat="46.15032488833683" lon="9.326963615187761"><ele>200.0</ele><time>2026-05-03T07:43:22.987Z</time></trkpt><trkpt lat="46.15028659481489" lon="9.327080570611946"><ele>200.0</ele><time>2026-05-03T07:43:23.987Z</time></trkpt><trkpt lat="46.15024698676529" lon="9.327200463246193"><ele>200.0</ele><time>2026-05-03T07:43:24.987Z</time></trkpt><trkpt lat="46.15020752497791" lon="9.327319523803366"><ele>200.0</ele><time>2026-05-03T07:43:25.987Z</time></trkpt><trkpt lat="46.15016917464805" lon="9.32743594339347"><ele>200.0</ele><time>2026-05-03T07:43:26.987Z</time></trkpt><trkpt lat="46.150130102017094" lon="9.327554450803508"><ele>200.0</ele><time>2026-05-03T07:43:27.987Z</time></trkpt><trkpt lat="46.150089885805784" lon="9.327675454841932"><ele>200.6</ele><time>2026-05-03T07:43:28.987Z</time></trkpt><trkpt lat="46.15005010125187" lon="9.327795110423132"><ele>201.2</ele><time>2026-05-03T07:43:29.987Z</time></trkpt><trkpt lat="46.1500084692305" lon="9.327920320505248"><ele>201.8</ele><time>2026-05-03T07:43:30.987Z</time></trkpt><trkpt lat="46.14996517811464" lon="9.328050520386313"><ele>202.4</ele><time>2026-05-03T07:43:31.987Z</time></trkpt><trkpt lat="46.1499242140167" lon="9.328173721701656"><ele>203.0</ele><time>2026-05-03T07:43:32.988Z</time></trkpt><trkpt lat="46.14988278878308" lon="9.32829831113148"><ele>202.8</ele><time>2026-05-03T07:43:33.988Z</time></trkpt><trkpt lat="46.149843172779356" lon="9.32841821420805"><ele>202.60000000000002</ele><time>2026-05-03T07:43:34.988Z</time></trkpt><trkpt lat="46.14980408667676" lon="9.328536407065386"><ele>202.39999999999998</ele><time>2026-05-03T07:43:35.987Z</time></trkpt><trkpt lat="46.14976325201503" lon="9.328659497314728"><ele>202.2</ele><time>2026-05-03T07:43:36.987Z</time></trkpt><trkpt lat="46.149723642340895" lon="9.328777581391819"><ele>202.0</ele><time>2026-05-03T07:43:37.987Z</time></trkpt><trkpt lat="46.14968757111553" lon="9.328911409920511"><ele>202.0</ele><time>2026-05-03T07:43:38.988Z</time></trkpt><trkpt lat="46.14967505700107" lon="9.329052266671225"><ele>202.0</ele><time>2026-05-03T07:43:39.988Z</time></trkpt><trkpt lat="46.14969163315134" lon="9.329184618019804"><ele>202.0</ele><time>2026-05-03T07:43:40.988Z</time></trkpt><trkpt lat="46.149731383606785" lon="9.329312356752155"><ele>202.0</ele><time>2026-05-03T07:43:41.988Z</time></trkpt><trkpt lat="46.14978429995867" lon="9.32942816098076"><ele>202.0</ele><time>2026-05-03T07:43:42.988Z</time></trkpt><trkpt lat="46.149861240919975" lon="9.329531350922743"><ele>202.2</ele><time>2026-05-03T07:43:43.988Z</time></trkpt><trkpt lat="46.149946287323274" lon="9.329604234385831"><ele>202.39999999999998</ele><time>2026-05-03T07:43:44.987Z</time></trkpt><trkpt lat="46.150035662024074" lon="9.329648473336716"><ele>202.60000000000002</ele><time>2026-05-03T07:43:45.988Z</time></trkpt><trkpt lat="46.150130863184096" lon="9.329712190109053"><ele>202.8</ele><time>2026-05-03T07:43:46.988Z</time></trkpt><trkpt lat="46.150207982501556" lon="9.329779053419808"><ele>203.0</ele><time>2026-05-03T07:43:47.988Z</time></trkpt><trkpt lat="46.150283525169314" lon="9.329865027036739"><ele>203.0</ele><time>2026-05-03T07:43:48.988Z</time></trkpt><trkpt lat="46.150355399620274" lon="9.3299691935509"><ele>203.0</ele><time>2026-05-03T07:43:49.988Z</time></trkpt><trkpt lat="46.15041866272182" lon="9.330083037065204"><ele>203.0</ele><time>2026-05-03T07:43:50.988Z</time></trkpt><trkpt lat="46.15046793609384" lon="9.330195854358783"><ele>203.0</ele><time>2026-05-03T07:43:51.988Z</time></trkpt><trkpt lat="46.15051141356112" lon="9.33031419785152"><ele>203.0</ele><time>2026-05-03T07:43:52.988Z</time></trkpt><trkpt lat="46.15054772120271" lon="9.33044673848822"><ele>203.4</ele><time>2026-05-03T07:43:53.988Z</time></trkpt><trkpt lat="46.15057430258392" lon="9.330594400430671"><ele>203.8</ele><time>2026-05-03T07:43:54.988Z</time></trkpt><trkpt lat="46.15059896937296" lon="9.33075612187275"><ele>204.2</ele><time>2026-05-03T07:43:55.988Z</time></trkpt><trkpt lat="46.15061711981253" lon="9.330903301408267"><ele>204.6</ele><time>2026-05-03T07:43:56.988Z</time></trkpt><trkpt lat="46.15063510741348" lon="9.331041771929979"><ele>205.0</ele><time>2026-05-03T07:43:57.988Z</time></trkpt><trkpt lat="46.15065340773421" lon="9.331167372158108"><ele>205.0</ele><time>2026-05-03T07:43:58.988Z</time></trkpt><trkpt lat="46.15067651179447" lon="9.33129637148975"><ele>205.0</ele><time>2026-05-03T07:43:59.988Z</time></trkpt><trkpt lat="46.15070137623734" lon="9.33142691742022"><ele>205.0</ele><time>2026-05-03T07:44:00.988Z</time></trkpt><trkpt lat="46.15073110965314" lon="9.33155949348436"><ele>205.0</ele><time>2026-05-03T07:44:01.988Z</time></trkpt><trkpt lat="46.150765018980444" lon="9.331683270049572"><ele>205.0</ele><time>2026-05-03T07:44:02.988Z</time></trkpt><trkpt lat="46.150798515669756" lon="9.331797963829294"><ele>204.99999999999997</ele><time>2026-05-03T07:44:03.988Z</time></trkpt><trkpt lat="46.15082791150379" lon="9.331898576347347"><ele>205.0</ele><time>2026-05-03T07:44:04.988Z</time></trkpt><trkpt lat="46.150861939692184" lon="9.331991815235815"><ele>205.0</ele><time>2026-05-03T07:44:05.988Z</time></trkpt><trkpt lat="46.15089088708319" lon="9.332074044522367"><ele>205.0</ele><time>2026-05-03T07:44:06.988Z</time></trkpt><trkpt lat="46.15095408885625" lon="9.33223130175221"><ele>204.99999999999997</ele><time>2026-05-03T07:44:08.988Z</time></trkpt><trkpt lat="46.15099361693276" lon="9.332321377099934"><ele>205.0</ele><time>2026-05-03T07:44:09.987Z</time></trkpt><trkpt lat="46.15103875905352" lon="9.332417698858752"><ele>205.0</ele><time>2026-05-03T07:44:10.987Z</time></trkpt><trkpt lat="46.151092234579835" lon="9.332519366864911"><ele>205.0</ele><time>2026-05-03T07:44:11.987Z</time></trkpt><trkpt lat="46.15115469170152" lon="9.33262555605893"><ele>205.0</ele><time>2026-05-03T07:44:12.986Z</time></trkpt><trkpt lat="46.15122349191466" lon="9.332738260943545"><ele>205.0</ele><time>2026-05-03T07:44:13.986Z</time></trkpt><trkpt lat="46.15129436121705" lon="9.332843695017015"><ele>205.0</ele><time>2026-05-03T07:44:14.986Z</time></trkpt><trkpt lat="46.15135683780038" lon="9.332935613387999"><ele>204.99999999999997</ele><time>2026-05-03T07:44:15.985Z</time></trkpt><trkpt lat="46.15141974751634" lon="9.33301773087393"><ele>205.0</ele><time>2026-05-03T07:44:16.985Z</time></trkpt><trkpt lat="46.151491338871" lon="9.333076258999792"><ele>205.0</ele><time>2026-05-03T07:44:17.985Z</time></trkpt><trkpt lat="46.151548105062496" lon="9.33316922968884"><ele>205.0</ele><time>2026-05-03T07:44:18.985Z</time></trkpt><trkpt lat="46.15161692862781" lon="9.333251091211569"><ele>204.99999999999997</ele><time>2026-05-03T07:44:19.984Z</time></trkpt><trkpt lat="46.1516831269458" lon="9.333317994059517"><ele>205.0</ele><time>2026-05-03T07:44:20.984Z</time></trkpt><trkpt lat="46.15174925954314" lon="9.333384035087315"><ele>204.99999999999997</ele><time>2026-05-03T07:44:21.984Z</time></trkpt><trkpt lat="46.15181519627457" lon="9.333453606271584"><ele>205.0</ele><time>2026-05-03T07:44:22.984Z</time></trkpt><trkpt lat="46.15186944890859" lon="9.333512030577747"><ele>205.0</ele><time>2026-05-03T07:44:23.984Z</time></trkpt><trkpt lat="46.1519220519596" lon="9.333565500865651"><ele>205.0</ele><time>2026-05-03T07:44:24.984Z</time></trkpt><trkpt lat="46.15198201493386" lon="9.333628430770942"><ele>204.99999999999997</ele><time>2026-05-03T07:44:25.983Z</time></trkpt><trkpt lat="46.15204975802558" lon="9.333700190387889"><ele>205.0</ele><time>2026-05-03T07:44:26.983Z</time></trkpt><trkpt lat="46.152115827110016" lon="9.333779494204947"><ele>204.99999999999997</ele><time>2026-05-03T07:44:27.983Z</time></trkpt><trkpt lat="46.152179006517436" lon="9.333853468354732"><ele>205.0</ele><time>2026-05-03T07:44:28.983Z</time></trkpt><trkpt lat="46.15224515324654" lon="9.333926754197327"><ele>205.0</ele><time>2026-05-03T07:44:29.983Z</time></trkpt><trkpt lat="46.15230406549923" lon="9.333994850290539"><ele>205.0</ele><time>2026-05-03T07:44:30.983Z</time></trkpt><trkpt lat="46.15236384259871" lon="9.334055961065475"><ele>204.99999999999997</ele><time>2026-05-03T07:44:31.983Z</time></trkpt><trkpt lat="46.152457803767" lon="9.334152966458928"><ele>205.0</ele><time>2026-05-03T07:44:33.983Z</time></trkpt><trkpt lat="46.15253759681822" lon="9.334231165720075"><ele>205.16666666666666</ele><time>2026-05-03T07:44:35.982Z</time></trkpt><trkpt lat="46.152598609569644" lon="9.334291439988583"><ele>205.33333333333331</ele><time>2026-05-03T07:44:37.982Z</time></trkpt><trkpt lat="46.152642774436714" lon="9.334365200597736"><ele>205.5</ele><time>2026-05-03T07:44:40.982Z</time></trkpt><trkpt lat="46.15272142428853" lon="9.334451332523978"><ele>205.66666666666669</ele><time>2026-05-03T07:44:42.982Z</time></trkpt><trkpt lat="46.152805523531825" lon="9.33454343143769"><ele>205.83333333333334</ele><time>2026-05-03T07:44:44.982Z</time></trkpt><trkpt lat="46.15288804540784" lon="9.334633703064382"><ele>206.0</ele><time>2026-05-03T07:44:48.982Z</time></trkpt><trkpt lat="46.15294948683973" lon="9.334700930705033"><ele>205.75</ele><time>2026-05-03T07:44:49.982Z</time></trkpt><trkpt lat="46.153042463077284" lon="9.334803332534879"><ele>205.5</ele><time>2026-05-03T07:44:50.982Z</time></trkpt><trkpt lat="46.15314156182236" lon="9.334911624557941"><ele>205.25</ele><time>2026-05-03T07:44:51.982Z</time></trkpt><trkpt lat="46.153266209989546" lon="9.335048258098427"><ele>205.0</ele><time>2026-05-03T07:44:52.982Z</time></trkpt><trkpt lat="46.15338598476574" lon="9.33517948617045"><ele>205.0</ele><time>2026-05-03T07:44:53.982Z</time></trkpt><trkpt lat="46.153512551293204" lon="9.335317680019383"><ele>205.0</ele><time>2026-05-03T07:44:54.982Z</time></trkpt><trkpt lat="46.15364316634762" lon="9.3354600569221"><ele>205.0</ele><time>2026-05-03T07:44:55.982Z</time></trkpt><trkpt lat="46.15377386444985" lon="9.33560409321529"><ele>204.66666666666666</ele><time>2026-05-03T07:44:56.982Z</time></trkpt><trkpt lat="46.15390660011" lon="9.335749966040664"><ele>204.33333333333331</ele><time>2026-05-03T07:44:57.981Z</time></trkpt><trkpt lat="46.15403442481335" lon="9.335889767690688"><ele>204.0</ele><time>2026-05-03T07:44:58.981Z</time></trkpt><trkpt lat="46.15416087903905" lon="9.336028067846815"><ele>203.66666666666669</ele><time>2026-05-03T07:44:59.981Z</time></trkpt><trkpt lat="46.15428579133116" lon="9.336164681597117"><ele>203.33333333333334</ele><time>2026-05-03T07:45:00.981Z</time></trkpt><trkpt lat="46.15441049742027" lon="9.336301069374239"><ele>203.0</ele><time>2026-05-03T07:45:01.981Z</time></trkpt><trkpt lat="46.154537231203264" lon="9.336438975570895"><ele>202.66666666666669</ele><time>2026-05-03T07:45:02.981Z</time></trkpt><trkpt lat="46.15466479686909" lon="9.336578242659868"><ele>202.33333333333331</ele><time>2026-05-03T07:45:03.981Z</time></trkpt><trkpt lat="46.15479191742307" lon="9.336717023759634"><ele>202.0</ele><time>2026-05-03T07:45:04.981Z</time></trkpt><trkpt lat="46.15492297028336" lon="9.336860457135028"><ele>202.0</ele><time>2026-05-03T07:45:05.981Z</time></trkpt><trkpt lat="46.15507230663838" lon="9.33696962414296"><ele>202.0</ele><time>2026-05-03T07:45:06.981Z</time></trkpt><trkpt lat="46.15520224203674" lon="9.337113147519466"><ele>202.0</ele><time>2026-05-03T07:45:07.981Z</time></trkpt><trkpt lat="46.15533264269476" lon="9.33726539433508"><ele>202.0</ele><time>2026-05-03T07:45:08.981Z</time></trkpt><trkpt lat="46.15546596337084" lon="9.337405593269638"><ele>202.0</ele><time>2026-05-03T07:45:09.981Z</time></trkpt><trkpt lat="46.15557999113773" lon="9.33757572786793"><ele>202.0</ele><time>2026-05-03T07:45:10.981Z</time></trkpt><trkpt lat="46.15571160374637" lon="9.337709870159973"><ele>202.33333333333331</ele><time>2026-05-03T07:45:11.981Z</time></trkpt><trkpt lat="46.155853513641134" lon="9.33782879750025"><ele>202.66666666666669</ele><time>2026-05-03T07:45:12.981Z</time></trkpt><trkpt lat="46.15600322544655" lon="9.337932453940205"><ele>203.0</ele><time>2026-05-03T07:45:13.981Z</time></trkpt><trkpt lat="46.15615854827186" lon="9.338007295045411"><ele>203.0</ele><time>2026-05-03T07:45:14.981Z</time></trkpt><trkpt lat="46.15631609479163" lon="9.338067978757119"><ele>203.0</ele><time>2026-05-03T07:45:15.981Z</time></trkpt><trkpt lat="46.15649607538002" lon="9.33804545990363"><ele>203.0</ele><time>2026-05-03T07:45:16.981Z</time></trkpt><trkpt lat="46.15666964990443" lon="9.33806853531465"><ele>202.33333333333334</ele><time>2026-05-03T07:45:17.981Z</time></trkpt><trkpt lat="46.15684465348496" lon="9.33809142582077"><ele>201.66666666666669</ele><time>2026-05-03T07:45:18.981Z</time></trkpt><trkpt lat="46.157016229377184" lon="9.338126147872982"><ele>201.0</ele><time>2026-05-03T07:45:19.981Z</time></trkpt><trkpt lat="46.15717619579222" lon="9.338201954794544"><ele>201.0</ele><time>2026-05-03T07:45:20.981Z</time></trkpt><trkpt lat="46.15731058383706" lon="9.33833457239575"><ele>201.0</ele><time>2026-05-03T07:45:21.981Z</time></trkpt><trkpt lat="46.15741733993884" lon="9.33852511801615"><ele>201.0</ele><time>2026-05-03T07:45:22.981Z</time></trkpt><trkpt lat="46.15751647469528" lon="9.338747988457405"><ele>202.33333333333331</ele><time>2026-05-03T07:45:23.981Z</time></trkpt><trkpt lat="46.15763935015561" lon="9.338970143801903"><ele>203.66666666666666</ele><time>2026-05-03T07:45:24.981Z</time></trkpt><trkpt lat="46.15778451087362" lon="9.339174878889018"><ele>205.0</ele><time>2026-05-03T07:45:25.981Z</time></trkpt><trkpt lat="46.157935377205135" lon="9.339361838805104"><ele>205.0</ele><time>2026-05-03T07:45:26.981Z</time></trkpt><trkpt lat="46.15808065967829" lon="9.339537427037982"><ele>205.0</ele><time>2026-05-03T07:45:27.981Z</time></trkpt><trkpt lat="46.15821191369604" lon="9.339700915306544"><ele>205.0</ele><time>2026-05-03T07:45:28.981Z</time></trkpt><trkpt lat="46.158336611312215" lon="9.339866446464471"><ele>207.33333333333331</ele><time>2026-05-03T07:45:29.981Z</time></trkpt><trkpt lat="46.158440690582815" lon="9.340033693021123"><ele>209.66666666666669</ele><time>2026-05-03T07:45:30.981Z</time></trkpt><trkpt lat="46.15853177875143" lon="9.340234292919886"><ele>212.0</ele><time>2026-05-03T07:45:31.981Z</time></trkpt><trkpt lat="46.15860987197345" lon="9.340447898675922"><ele>208.66666666666669</ele><time>2026-05-03T07:45:32.981Z</time></trkpt><trkpt lat="46.15868987859792" lon="9.340675203191502"><ele>205.33333333333331</ele><time>2026-05-03T07:45:33.981Z</time></trkpt><trkpt lat="46.158771240583945" lon="9.340895392544187"><ele>202.0</ele><time>2026-05-03T07:45:34.981Z</time></trkpt><trkpt lat="46.15886213483692" lon="9.341102740118583"><ele>202.0</ele><time>2026-05-03T07:45:35.981Z</time></trkpt><trkpt lat="46.15894818111422" lon="9.341288290817861"><ele>202.0</ele><time>2026-05-03T07:45:36.981Z</time></trkpt><trkpt lat="46.15904968838797" lon="9.34145161266584"><ele>202.0</ele><time>2026-05-03T07:45:37.981Z</time></trkpt><trkpt lat="46.159157160541966" lon="9.341627445276751"><ele>202.5</ele><time>2026-05-03T07:45:38.981Z</time></trkpt><trkpt lat="46.15924927713415" lon="9.34179766957424"><ele>203.0</ele><time>2026-05-03T07:45:39.981Z</time></trkpt><trkpt lat="46.15934014360988" lon="9.341950336960721"><ele>203.5</ele><time>2026-05-03T07:45:40.981Z</time></trkpt><trkpt lat="46.159428629084765" lon="9.342088323686136"><ele>204.0</ele><time>2026-05-03T07:45:41.981Z</time></trkpt><trkpt lat="46.1595126262866" lon="9.342219492442437"><ele>204.0</ele><time>2026-05-03T07:45:42.98Z</time></trkpt><trkpt lat="46.159605332810145" lon="9.34235728642369"><ele>204.0</ele><time>2026-05-03T07:45:43.98Z</time></trkpt><trkpt lat="46.15969667027465" lon="9.34249925085764"><ele>204.0</ele><time>2026-05-03T07:45:44.981Z</time></trkpt><trkpt lat="46.15979228796449" lon="9.342640986335706"><ele>204.0</ele><time>2026-05-03T07:45:45.981Z</time></trkpt><trkpt lat="46.15988986733347" lon="9.342780759012904"><ele>203.66666666666669</ele><time>2026-05-03T07:45:46.981Z</time></trkpt><trkpt lat="46.16002077314859" lon="9.342939600601408"><ele>203.33333333333334</ele><time>2026-05-03T07:45:47.981Z</time></trkpt><trkpt lat="46.160170930490416" lon="9.34311788890369"><ele>203.0</ele><time>2026-05-03T07:45:48.98Z</time></trkpt><trkpt lat="46.160352577322904" lon="9.343279774370501"><ele>203.0</ele><time>2026-05-03T07:45:49.98Z</time></trkpt><trkpt lat="46.16054473144307" lon="9.343449959624362"><ele>203.0</ele><time>2026-05-03T07:45:50.98Z</time></trkpt><trkpt lat="46.16073101573873" lon="9.343615579573443"><ele>203.0</ele><time>2026-05-03T07:45:51.98Z</time></trkpt><trkpt lat="46.160917966186965" lon="9.343781792093763"><ele>201.66666666666669</ele><time>2026-05-03T07:45:52.98Z</time></trkpt><trkpt lat="46.16111152210439" lon="9.343929260066343"><ele>200.33333333333331</ele><time>2026-05-03T07:45:53.98Z</time></trkpt><trkpt lat="46.161298977029226" lon="9.344096160596495"><ele>199.0</ele><time>2026-05-03T07:45:54.98Z</time></trkpt><trkpt lat="46.16147536933084" lon="9.344277173630708"><ele>199.66666666666666</ele><time>2026-05-03T07:45:55.98Z</time></trkpt><trkpt lat="46.1616695986456" lon="9.344421425100029"><ele>200.33333333333331</ele><time>2026-05-03T07:45:56.98Z</time></trkpt><trkpt lat="46.16185215032637" lon="9.344600943282257"><ele>201.0</ele><time>2026-05-03T07:45:57.98Z</time></trkpt><trkpt lat="46.16201406196295" lon="9.344803598596773"><ele>201.0</ele><time>2026-05-03T07:45:58.98Z</time></trkpt><trkpt lat="46.16216987415898" lon="9.345022202706385"><ele>201.0</ele><time>2026-05-03T07:45:59.98Z</time></trkpt><trkpt lat="46.16232749943621" lon="9.345239955076847"><ele>201.0</ele><time>2026-05-03T07:46:00.98Z</time></trkpt><trkpt lat="46.16249144391434" lon="9.34544792313311"><ele>202.66666666666669</ele><time>2026-05-03T07:46:01.98Z</time></trkpt><trkpt lat="46.16265255972147" lon="9.345664015083754"><ele>204.33333333333334</ele><time>2026-05-03T07:46:02.98Z</time></trkpt><trkpt lat="46.16281375386711" lon="9.345866594483724"><ele>206.0</ele><time>2026-05-03T07:46:03.98Z</time></trkpt><trkpt lat="46.16296769257725" lon="9.34608364662087"><ele>206.0</ele><time>2026-05-03T07:46:04.98Z</time></trkpt><trkpt lat="46.163117107049025" lon="9.34628522067032"><ele>206.0</ele><time>2026-05-03T07:46:05.98Z</time></trkpt><trkpt lat="46.16326383109903" lon="9.346483036929975"><ele>206.0</ele><time>2026-05-03T07:46:06.98Z</time></trkpt><trkpt lat="46.163402622606114" lon="9.346669754007996"><ele>207.66666666666669</ele><time>2026-05-03T07:46:07.98Z</time></trkpt><trkpt lat="46.163527530066276" lon="9.346868717557788"><ele>209.33333333333331</ele><time>2026-05-03T07:46:08.98Z</time></trkpt><trkpt lat="46.163640756095575" lon="9.347083248242203"><ele>211.0</ele><time>2026-05-03T07:46:09.98Z</time></trkpt><trkpt lat="46.16375181822689" lon="9.34729780464065"><ele>207.66666666666666</ele><time>2026-05-03T07:46:10.98Z</time></trkpt><trkpt lat="46.163867217504794" lon="9.347508904317822"><ele>204.33333333333331</ele><time>2026-05-03T07:46:11.98Z</time></trkpt><trkpt lat="46.16396933046575" lon="9.347731501052387"><ele>201.0</ele><time>2026-05-03T07:46:12.98Z</time></trkpt><trkpt lat="46.164049481432954" lon="9.347960892064965"><ele>204.33333333333331</ele><time>2026-05-03T07:46:13.98Z</time></trkpt><trkpt lat="46.164114069978055" lon="9.34817608419268"><ele>207.66666666666666</ele><time>2026-05-03T07:46:14.98Z</time></trkpt><trkpt lat="46.164179393419445" lon="9.348371203615265"><ele>211.0</ele><time>2026-05-03T07:46:15.98Z</time></trkpt><trkpt lat="46.164247842023606" lon="9.348543076578123"><ele>211.0</ele><time>2026-05-03T07:46:16.98Z</time></trkpt><trkpt lat="46.16433078543272" lon="9.348685059553306"><ele>211.0</ele><time>2026-05-03T07:46:17.98Z</time></trkpt><trkpt lat="46.16441735746945" lon="9.348826295596888"><ele>211.0</ele><time>2026-05-03T07:46:18.98Z</time></trkpt><trkpt lat="46.16451282322041" lon="9.34895846746586"><ele>211.0</ele><time>2026-05-03T07:46:19.98Z</time></trkpt><trkpt lat="46.16460365889339" lon="9.349098830195933"><ele>208.5</ele><time>2026-05-03T07:46:20.98Z</time></trkpt><trkpt lat="46.16467866518059" lon="9.34924369081139"><ele>206.0</ele><time>2026-05-03T07:46:21.98Z</time></trkpt><trkpt lat="46.16475146587163" lon="9.349389852708903"><ele>203.5</ele><time>2026-05-03T07:46:22.98Z</time></trkpt><trkpt lat="46.16482222044425" lon="9.349543249745425"><ele>201.0</ele><time>2026-05-03T07:46:23.98Z</time></trkpt><trkpt lat="46.16489500653314" lon="9.349692613178194"><ele>203.5</ele><time>2026-05-03T07:46:24.98Z</time></trkpt><trkpt lat="46.16497641437614" lon="9.349847067417816"><ele>206.0</ele><time>2026-05-03T07:46:25.98Z</time></trkpt><trkpt lat="46.16503903612903" lon="9.350032330499868"><ele>208.5</ele><time>2026-05-03T07:46:26.98Z</time></trkpt><trkpt lat="46.165124306221465" lon="9.350196624626868"><ele>211.0</ele><time>2026-05-03T07:46:27.98Z</time></trkpt><trkpt lat="46.16521117311796" lon="9.350358397959571"><ele>211.0</ele><time>2026-05-03T07:46:28.98Z</time></trkpt><trkpt lat="46.165288555919375" lon="9.35051626721945"><ele>211.0</ele><time>2026-05-03T07:46:29.98Z</time></trkpt><trkpt lat="46.165362739159086" lon="9.35066899807746"><ele>211.0</ele><time>2026-05-03T07:46:30.98Z</time></trkpt><trkpt lat="46.16543241394533" lon="9.35081924636947"><ele>211.0</ele><time>2026-05-03T07:46:31.98Z</time></trkpt><trkpt lat="46.16549809001939" lon="9.35095479145649"><ele>211.83333333333331</ele><time>2026-05-03T07:46:32.98Z</time></trkpt><trkpt lat="46.165550458258544" lon="9.351069232801665"><ele>212.66666666666666</ele><time>2026-05-03T07:46:33.98Z</time></trkpt><trkpt lat="46.165599848074955" lon="9.351157381310818"><ele>213.5</ele><time>2026-05-03T07:46:34.98Z</time></trkpt><trkpt lat="46.1656464493864" lon="9.351240605813716"><ele>214.33333333333331</ele><time>2026-05-03T07:46:35.98Z</time></trkpt><trkpt lat="46.16568812150244" lon="9.351324437605816"><ele>215.16666666666666</ele><time>2026-05-03T07:46:36.98Z</time></trkpt><trkpt lat="46.16573003268278" lon="9.351411312074019"><ele>216.0</ele><time>2026-05-03T07:46:37.98Z</time></trkpt><trkpt lat="46.16577146117434" lon="9.351499074613967"><ele>216.0</ele><time>2026-05-03T07:46:38.98Z</time></trkpt><trkpt lat="46.165812151415594" lon="9.351585409586525"><ele>216.00000000000003</ele><time>2026-05-03T07:46:39.98Z</time></trkpt><trkpt lat="46.16584642464347" lon="9.35167219633059"><ele>216.00000000000003</ele><time>2026-05-03T07:46:40.98Z</time></trkpt><trkpt lat="46.165918519032594" lon="9.351812230835131"><ele>216.0</ele><time>2026-05-03T07:46:42.98Z</time></trkpt><trkpt lat="46.16599271513667" lon="9.351966470000047"><ele>216.0</ele><time>2026-05-03T07:46:44.98Z</time></trkpt><trkpt lat="46.16604700250564" lon="9.35204518991095"><ele>216.0</ele><time>2026-05-03T07:46:45.98Z</time></trkpt><trkpt lat="46.16610208113058" lon="9.352130029824371"><ele>216.00000000000003</ele><time>2026-05-03T07:46:46.98Z</time></trkpt><trkpt lat="46.16616017986105" lon="9.352216440971036"><ele>216.00000000000003</ele><time>2026-05-03T07:46:47.98Z</time></trkpt><trkpt lat="46.16621852529723" lon="9.352292080131068"><ele>216.0</ele><time>2026-05-03T07:46:48.98Z</time></trkpt><trkpt lat="46.16629047969434" lon="9.352394732179876"><ele>216.0</ele><time>2026-05-03T07:46:49.98Z</time></trkpt><trkpt lat="46.16637879999461" lon="9.352513286424223"><ele>216.75</ele><time>2026-05-03T07:46:50.98Z</time></trkpt><trkpt lat="46.166461404907544" lon="9.35267671649234"><ele>217.5</ele><time>2026-05-03T07:46:51.98Z</time></trkpt><trkpt lat="46.16656144657666" lon="9.352832512831384"><ele>218.25</ele><time>2026-05-03T07:46:52.98Z</time></trkpt><trkpt lat="46.16665240401214" lon="9.35297416243601"><ele>219.0</ele><time>2026-05-03T07:46:53.98Z</time></trkpt><trkpt lat="46.16673796109603" lon="9.353108892261975"><ele>216.5</ele><time>2026-05-03T07:46:54.98Z</time></trkpt><trkpt lat="46.16683197765038" lon="9.353227383914282"><ele>214.0</ele><time>2026-05-03T07:46:55.98Z</time></trkpt><trkpt lat="46.166900946622555" lon="9.35337175206477"><ele>211.5</ele><time>2026-05-03T07:46:56.98Z</time></trkpt><trkpt lat="46.16697457565909" lon="9.353496911056517"><ele>209.0</ele><time>2026-05-03T07:46:57.98Z</time></trkpt><trkpt lat="46.16704370165295" lon="9.353618738526942"><ele>209.0</ele><time>2026-05-03T07:46:58.98Z</time></trkpt><trkpt lat="46.16711420427412" lon="9.353737005313628"><ele>209.0</ele><time>2026-05-03T07:46:59.98Z</time></trkpt><trkpt lat="46.167184076951266" lon="9.353866646255241"><ele>209.0</ele><time>2026-05-03T07:47:00.98Z</time></trkpt><trkpt lat="46.167251780954935" lon="9.353992148593234"><ele>209.0</ele><time>2026-05-03T07:47:01.98Z</time></trkpt><trkpt lat="46.1673101859042" lon="9.354140877103827"><ele>209.0</ele><time>2026-05-03T07:47:02.98Z</time></trkpt><trkpt lat="46.167373998105035" lon="9.354288461464325"><ele>209.0</ele><time>2026-05-03T07:47:03.98Z</time></trkpt><trkpt lat="46.16744065450524" lon="9.35444501060699"><ele>209.0</ele><time>2026-05-03T07:47:04.98Z</time></trkpt><trkpt lat="46.16751113257651" lon="9.354612089577728"><ele>209.0</ele><time>2026-05-03T07:47:05.98Z</time></trkpt><trkpt lat="46.167579854813" lon="9.354795984928508"><ele>209.0</ele><time>2026-05-03T07:47:06.98Z</time></trkpt><trkpt lat="46.16765185604727" lon="9.35500593516109"><ele>209.0</ele><time>2026-05-03T07:47:07.98Z</time></trkpt><trkpt lat="46.16772507440354" lon="9.355232930732447"><ele>209.0</ele><time>2026-05-03T07:47:08.98Z</time></trkpt><trkpt lat="46.16781016252579" lon="9.355478288730653"><ele>207.33333333333334</ele><time>2026-05-03T07:47:09.98Z</time></trkpt><trkpt lat="46.16789666238213" lon="9.35573298383284"><ele>205.66666666666669</ele><time>2026-05-03T07:47:10.98Z</time></trkpt><trkpt lat="46.1679739570015" lon="9.35596386084317"><ele>204.0</ele><time>2026-05-03T07:47:11.98Z</time></trkpt><trkpt lat="46.16805594835067" lon="9.356158228636689"><ele>204.0</ele><time>2026-05-03T07:47:12.98Z</time></trkpt><trkpt lat="46.16813185123114" lon="9.35633358590736"><ele>204.0</ele><time>2026-05-03T07:47:13.98Z</time></trkpt><trkpt lat="46.16819079745719" lon="9.356492607139707"><ele>204.0</ele><time>2026-05-03T07:47:14.98Z</time></trkpt><trkpt lat="46.168248181791064" lon="9.356636075217809"><ele>204.0</ele><time>2026-05-03T07:47:15.98Z</time></trkpt><trkpt lat="46.168302364201615" lon="9.356759603997206"><ele>204.75</ele><time>2026-05-03T07:47:16.98Z</time></trkpt><trkpt lat="46.16833916104337" lon="9.356902399031833"><ele>205.5</ele><time>2026-05-03T07:47:17.98Z</time></trkpt><trkpt lat="46.16839735014299" lon="9.357045551268751"><ele>206.25</ele><time>2026-05-03T07:47:18.98Z</time></trkpt><trkpt lat="46.16846756506497" lon="9.357209772704117"><ele>207.0</ele><time>2026-05-03T07:47:19.98Z</time></trkpt><trkpt lat="46.16855381718113" lon="9.357401865873001"><ele>207.0</ele><time>2026-05-03T07:47:20.98Z</time></trkpt><trkpt lat="46.16864954229723" lon="9.357621272230668"><ele>207.0</ele><time>2026-05-03T07:47:21.98Z</time></trkpt><trkpt lat="46.168745019971084" lon="9.357858113477201"><ele>207.0</ele><time>2026-05-03T07:47:22.98Z</time></trkpt><trkpt lat="46.16883588739685" lon="9.358084986933756"><ele>205.66666666666669</ele><time>2026-05-03T07:47:23.98Z</time></trkpt><trkpt lat="46.16891669531416" lon="9.358290828038859"><ele>204.33333333333334</ele><time>2026-05-03T07:47:24.98Z</time></trkpt><trkpt lat="46.16898997529811" lon="9.358482571690312"><ele>203.0</ele><time>2026-05-03T07:47:25.98Z</time></trkpt><trkpt lat="46.16906084407625" lon="9.358659985243268"><ele>205.5</ele><time>2026-05-03T07:47:26.98Z</time></trkpt><trkpt lat="46.16911902588441" lon="9.35883377511338"><ele>208.0</ele><time>2026-05-03T07:47:27.98Z</time></trkpt><trkpt lat="46.169181629949705" lon="9.358999938726772"><ele>210.5</ele><time>2026-05-03T07:47:28.98Z</time></trkpt><trkpt lat="46.16923262877278" lon="9.359181442885252"><ele>213.0</ele><time>2026-05-03T07:47:29.98Z</time></trkpt><trkpt lat="46.169266366337524" lon="9.359377503760347"><ele>213.0</ele><time>2026-05-03T07:47:30.98Z</time></trkpt><trkpt lat="46.169280126016886" lon="9.359553824617526"><ele>213.0</ele><time>2026-05-03T07:47:31.98Z</time></trkpt><trkpt lat="46.169285799884186" lon="9.359698675994446"><ele>213.0</ele><time>2026-05-03T07:47:32.98Z</time></trkpt><trkpt lat="46.16928965927172" lon="9.359848554582369"><ele>213.0</ele><time>2026-05-03T07:47:33.98Z</time></trkpt><trkpt lat="46.169293250927055" lon="9.360010275221308"><ele>213.0</ele><time>2026-05-03T07:47:34.98Z</time></trkpt><trkpt lat="46.169297012099435" lon="9.360179629140973"><ele>212.25</ele><time>2026-05-03T07:47:35.98Z</time></trkpt><trkpt lat="46.16931050268656" lon="9.36035646293264"><ele>211.5</ele><time>2026-05-03T07:47:36.98Z</time></trkpt><trkpt lat="46.16935075740041" lon="9.360529955583198"><ele>210.75</ele><time>2026-05-03T07:47:37.98Z</time></trkpt><trkpt lat="46.169402173341965" lon="9.360695765927998"><ele>210.0</ele><time>2026-05-03T07:47:38.98Z</time></trkpt><trkpt lat="46.1694569808657" lon="9.36087053501456"><ele>208.25</ele><time>2026-05-03T07:47:39.98Z</time></trkpt><trkpt lat="46.16952496558774" lon="9.361039387030672"><ele>206.5</ele><time>2026-05-03T07:47:40.98Z</time></trkpt><trkpt lat="46.16957402358667" lon="9.361212990782205"><ele>204.75</ele><time>2026-05-03T07:47:41.98Z</time></trkpt><trkpt lat="46.16961503145254" lon="9.361370083785047"><ele>203.0</ele><time>2026-05-03T07:47:42.98Z</time></trkpt><trkpt lat="46.16965964183052" lon="9.36151056871042"><ele>202.5</ele><time>2026-05-03T07:47:43.981Z</time></trkpt><trkpt lat="46.16970914053308" lon="9.361656041944377"><ele>202.0</ele><time>2026-05-03T07:47:44.981Z</time></trkpt><trkpt lat="46.16975474952394" lon="9.361809618380109"><ele>201.5</ele><time>2026-05-03T07:47:45.981Z</time></trkpt><trkpt lat="46.1698027306454" lon="9.361955765812095"><ele>201.0</ele><time>2026-05-03T07:47:46.981Z</time></trkpt><trkpt lat="46.16985042865281" lon="9.362107362901392"><ele>205.75</ele><time>2026-05-03T07:47:47.981Z</time></trkpt><trkpt lat="46.16988256694026" lon="9.362265846156484"><ele>210.5</ele><time>2026-05-03T07:47:48.981Z</time></trkpt><trkpt lat="46.169892957961" lon="9.362432964844738"><ele>215.25</ele><time>2026-05-03T07:47:49.981Z</time></trkpt><trkpt lat="46.169906399303564" lon="9.362596624669642"><ele>220.0</ele><time>2026-05-03T07:47:50.98Z</time></trkpt><trkpt lat="46.16988399856424" lon="9.36278248287085"><ele>220.0</ele><time>2026-05-03T07:47:51.98Z</time></trkpt><trkpt lat="46.16986730411853" lon="9.36300834847203"><ele>220.0</ele><time>2026-05-03T07:47:52.981Z</time></trkpt><trkpt lat="46.169847330470276" lon="9.363287491038394"><ele>220.0</ele><time>2026-05-03T07:47:53.981Z</time></trkpt><trkpt lat="46.169822616224806" lon="9.36356936384841"><ele>214.66666666666666</ele><time>2026-05-03T07:47:54.981Z</time></trkpt><trkpt lat="46.1697876387299" lon="9.363832695142843"><ele>209.33333333333331</ele><time>2026-05-03T07:47:55.98Z</time></trkpt><trkpt lat="46.169749204339" lon="9.364061881246114"><ele>204.0</ele><time>2026-05-03T07:47:56.981Z</time></trkpt><trkpt lat="46.169706686285814" lon="9.364272668340549"><ele>204.0</ele><time>2026-05-03T07:47:57.981Z</time></trkpt><trkpt lat="46.16965997945671" lon="9.364485032186588"><ele>204.0</ele><time>2026-05-03T07:47:58.981Z</time></trkpt><trkpt lat="46.16961612289917" lon="9.364686081286463"><ele>204.0</ele><time>2026-05-03T07:47:59.981Z</time></trkpt><trkpt lat="46.169577806454626" lon="9.364868295290508"><ele>204.0</ele><time>2026-05-03T07:48:00.981Z</time></trkpt><trkpt lat="46.16954343129505" lon="9.36503176625094"><ele>204.39999999999998</ele><time>2026-05-03T07:48:01.981Z</time></trkpt><trkpt lat="46.16951323969484" lon="9.36517111284313"><ele>204.8</ele><time>2026-05-03T07:48:02.981Z</time></trkpt><trkpt lat="46.16948657425896" lon="9.365297644303489"><ele>205.2</ele><time>2026-05-03T07:48:03.981Z</time></trkpt><trkpt lat="46.16946071724056" lon="9.365420339900878"><ele>205.60000000000002</ele><time>2026-05-03T07:48:04.981Z</time></trkpt><trkpt lat="46.16943305688595" lon="9.36555159225573"><ele>206.0</ele><time>2026-05-03T07:48:05.981Z</time></trkpt><trkpt lat="46.16940404641531" lon="9.365689251178301"><ele>206.66666666666669</ele><time>2026-05-03T07:48:06.981Z</time></trkpt><trkpt lat="46.16937425483421" lon="9.365830616625807"><ele>207.33333333333334</ele><time>2026-05-03T07:48:07.981Z</time></trkpt><trkpt lat="46.16934700788119" lon="9.365959969716107"><ele>208.0</ele><time>2026-05-03T07:48:08.981Z</time></trkpt><trkpt lat="46.16932296048818" lon="9.366074135266414"><ele>208.66666666666669</ele><time>2026-05-03T07:48:09.981Z</time></trkpt><trkpt lat="46.16930196317997" lon="9.366173820491738"><ele>209.33333333333334</ele><time>2026-05-03T07:48:10.981Z</time></trkpt><trkpt lat="46.16928133859426" lon="9.366271473570887"><ele>210.0</ele><time>2026-05-03T07:48:11.981Z</time></trkpt><trkpt lat="46.16925950280916" lon="9.366374619538556"><ele>210.75</ele><time>2026-05-03T07:48:12.981Z</time></trkpt><trkpt lat="46.16923185389411" lon="9.366509789047203"><ele>211.5</ele><time>2026-05-03T07:48:13.981Z</time></trkpt><trkpt lat="46.169196708930464" lon="9.366678954342916"><ele>212.25</ele><time>2026-05-03T07:48:14.981Z</time></trkpt><trkpt lat="46.1691556231141" lon="9.366877357801021"><ele>213.0</ele><time>2026-05-03T07:48:15.981Z</time></trkpt><trkpt lat="46.16910899286789" lon="9.367102908665652"><ele>213.66666666666669</ele><time>2026-05-03T07:48:16.981Z</time></trkpt><trkpt lat="46.16905779255733" lon="9.367352729611483"><ele>214.33333333333334</ele><time>2026-05-03T07:48:17.981Z</time></trkpt><trkpt lat="46.169007947025435" lon="9.36759594648063"><ele>215.0</ele><time>2026-05-03T07:48:18.981Z</time></trkpt><trkpt lat="46.16895522902496" lon="9.36785321020834"><ele>211.66666666666669</ele><time>2026-05-03T07:48:19.981Z</time></trkpt><trkpt lat="46.1689009688386" lon="9.36811800006737"><ele>208.33333333333331</ele><time>2026-05-03T07:48:20.981Z</time></trkpt><trkpt lat="46.16885123592474" lon="9.368366108762562"><ele>205.0</ele><time>2026-05-03T07:48:21.981Z</time></trkpt><trkpt lat="46.168810790410326" lon="9.368608518544457"><ele>205.0</ele><time>2026-05-03T07:48:22.981Z</time></trkpt><trkpt lat="46.168795907026585" lon="9.368849697984684"><ele>205.0</ele><time>2026-05-03T07:48:23.981Z</time></trkpt><trkpt lat="46.16880261796972" lon="9.369086507031847"><ele>205.0</ele><time>2026-05-03T07:48:24.981Z</time></trkpt><trkpt lat="46.168819830359574" lon="9.369321642774358"><ele>204.66666666666666</ele><time>2026-05-03T07:48:25.981Z</time></trkpt><trkpt lat="46.16884747647105" lon="9.36955283952717"><ele>204.33333333333331</ele><time>2026-05-03T07:48:26.981Z</time></trkpt><trkpt lat="46.16889161309101" lon="9.369781030432215"><ele>204.0</ele><time>2026-05-03T07:48:27.981Z</time></trkpt><trkpt lat="46.168957687226644" lon="9.369994432083617"><ele>203.75</ele><time>2026-05-03T07:48:28.981Z</time></trkpt><trkpt lat="46.16901065238483" lon="9.370203812123107"><ele>203.5</ele><time>2026-05-03T07:48:29.981Z</time></trkpt><trkpt lat="46.16907044923697" lon="9.37039861784458"><ele>203.25</ele><time>2026-05-03T07:48:30.981Z</time></trkpt><trkpt lat="46.16913804443822" lon="9.370575375765847"><ele>203.0</ele><time>2026-05-03T07:48:31.981Z</time></trkpt><trkpt lat="46.16920826411727" lon="9.37073615455971"><ele>203.0</ele><time>2026-05-03T07:48:32.981Z</time></trkpt><trkpt lat="46.169283861305544" lon="9.370882685894312"><ele>203.0</ele><time>2026-05-03T07:48:33.981Z</time></trkpt><trkpt lat="46.169371595435436" lon="9.370990513703616"><ele>203.0</ele><time>2026-05-03T07:48:34.981Z</time></trkpt><trkpt lat="46.169476936364816" lon="9.37105333344124"><ele>203.0</ele><time>2026-05-03T07:48:35.981Z</time></trkpt><trkpt lat="46.16957922279582" lon="9.371092740021451"><ele>203.0</ele><time>2026-05-03T07:48:36.981Z</time></trkpt><trkpt lat="46.16968785814688" lon="9.3711330844266"><ele>203.0</ele><time>2026-05-03T07:48:37.981Z</time></trkpt><trkpt lat="46.169797022768854" lon="9.371178110651309"><ele>203.0</ele><time>2026-05-03T07:48:38.981Z</time></trkpt><trkpt lat="46.16989193472646" lon="9.371244348367483"><ele>203.0</ele><time>2026-05-03T07:48:39.981Z</time></trkpt><trkpt lat="46.16997902971458" lon="9.371271923765441"><ele>203.0</ele><time>2026-05-03T07:48:40.981Z</time></trkpt><trkpt lat="46.17006231966145" lon="9.371292324208559"><ele>203.14285714285714</ele><time>2026-05-03T07:48:41.981Z</time></trkpt><trkpt lat="46.17014251988957" lon="9.37128990779525"><ele>203.28571428571428</ele><time>2026-05-03T07:48:42.981Z</time></trkpt><trkpt lat="46.17022304658578" lon="9.371309343613238"><ele>203.42857142857144</ele><time>2026-05-03T07:48:43.981Z</time></trkpt><trkpt lat="46.17029023825467" lon="9.371345707485103"><ele>203.57142857142856</ele><time>2026-05-03T07:48:44.981Z</time></trkpt><trkpt lat="46.170361080140395" lon="9.371351851758309"><ele>203.71428571428572</ele><time>2026-05-03T07:48:45.981Z</time></trkpt><trkpt lat="46.17043227550262" lon="9.371347254214257"><ele>203.85714285714286</ele><time>2026-05-03T07:48:46.981Z</time></trkpt><trkpt lat="46.170504254985254" lon="9.371356136922603"><ele>204.0</ele><time>2026-05-03T07:48:47.981Z</time></trkpt><trkpt lat="46.17057030486265" lon="9.371367299233157"><ele>204.0</ele><time>2026-05-03T07:48:48.981Z</time></trkpt><trkpt lat="46.1706354315088" lon="9.371380644431131"><ele>204.0</ele><time>2026-05-03T07:48:49.981Z</time></trkpt><trkpt lat="46.17074255656745" lon="9.371418053784012"><ele>204.0</ele><time>2026-05-03T07:48:51.981Z</time></trkpt><trkpt lat="46.1708083362217" lon="9.371452500339258"><ele>204.0</ele><time>2026-05-03T07:48:53.981Z</time></trkpt><trkpt lat="46.17088582540824" lon="9.371470938837671"><ele>204.0</ele><time>2026-05-03T07:49:01.981Z</time></trkpt><trkpt lat="46.17094689375255" lon="9.371511349181004"><ele>204.0</ele><time>2026-05-03T07:49:02.981Z</time></trkpt><trkpt lat="46.17102862229395" lon="9.371581760026132"><ele>204.0</ele><time>2026-05-03T07:49:03.981Z</time></trkpt><trkpt lat="46.17111676012986" lon="9.371666325002508"><ele>204.0</ele><time>2026-05-03T07:49:04.981Z</time></trkpt><trkpt lat="46.17121158340671" lon="9.371748110329754"><ele>204.0</ele><time>2026-05-03T07:49:05.981Z</time></trkpt><trkpt lat="46.17131075238364" lon="9.371843451547697"><ele>204.0</ele><time>2026-05-03T07:49:06.981Z</time></trkpt><trkpt lat="46.17142011284611" lon="9.371957196242144"><ele>204.0</ele><time>2026-05-03T07:49:07.981Z</time></trkpt><trkpt lat="46.17152186907165" lon="9.37206759245564"><ele>204.0</ele><time>2026-05-03T07:49:08.981Z</time></trkpt><trkpt lat="46.1716208623418" lon="9.372167097726171"><ele>204.0</ele><time>2026-05-03T07:49:09.981Z</time></trkpt><trkpt lat="46.1716952074815" lon="9.37231371746523"><ele>204.0</ele><time>2026-05-03T07:49:10.981Z</time></trkpt><trkpt lat="46.17179169572451" lon="9.372419857588433"><ele>204.25</ele><time>2026-05-03T07:49:11.981Z</time></trkpt><trkpt lat="46.17188673965973" lon="9.3725254722448"><ele>204.5</ele><time>2026-05-03T07:49:12.981Z</time></trkpt><trkpt lat="46.171980568550936" lon="9.372628280350463"><ele>204.75</ele><time>2026-05-03T07:49:13.981Z</time></trkpt><trkpt lat="46.17204404462023" lon="9.372772233182536"><ele>205.0</ele><time>2026-05-03T07:49:14.981Z</time></trkpt><trkpt lat="46.17209209885753" lon="9.37293763185636"><ele>205.0</ele><time>2026-05-03T07:49:15.981Z</time></trkpt><trkpt lat="46.17212342074186" lon="9.373094833290944"><ele>205.0</ele><time>2026-05-03T07:49:16.981Z</time></trkpt><trkpt lat="46.17214177474257" lon="9.373241647171474"><ele>205.0</ele><time>2026-05-03T07:49:17.981Z</time></trkpt><trkpt lat="46.17214769783724" lon="9.373392095307864"><ele>205.0</ele><time>2026-05-03T07:49:18.981Z</time></trkpt><trkpt lat="46.17215594044796" lon="9.373551375739392"><ele>205.0</ele><time>2026-05-03T07:49:19.981Z</time></trkpt><trkpt lat="46.17216849030806" lon="9.373698341975073"><ele>205.0</ele><time>2026-05-03T07:49:20.981Z</time></trkpt><trkpt lat="46.17217948923203" lon="9.373837136967703"><ele>205.0</ele><time>2026-05-03T07:49:21.981Z</time></trkpt><trkpt lat="46.17219085513515" lon="9.373974487354243"><ele>205.0</ele><time>2026-05-03T07:49:22.981Z</time></trkpt><trkpt lat="46.172212050647246" lon="9.374112703214537"><ele>205.0</ele><time>2026-05-03T07:49:23.981Z</time></trkpt><trkpt lat="46.172236097064555" lon="9.374251788076037"><ele>205.0</ele><time>2026-05-03T07:49:24.981Z</time></trkpt><trkpt lat="46.17226450853928" lon="9.37437873734666"><ele>204.6</ele><time>2026-05-03T07:49:25.981Z</time></trkpt><trkpt lat="46.17228935250826" lon="9.374486528840569"><ele>204.2</ele><time>2026-05-03T07:49:26.981Z</time></trkpt><trkpt lat="46.1723169492711" lon="9.374653175973476"><ele>203.8</ele><time>2026-05-03T07:49:28.981Z</time></trkpt><trkpt lat="46.17232698358167" lon="9.374802533102935"><ele>203.4</ele><time>2026-05-03T07:49:30.981Z</time></trkpt><trkpt lat="46.17234208401093" lon="9.374925621730167"><ele>203.0</ele><time>2026-05-03T07:49:31.981Z</time></trkpt><trkpt lat="46.17236061214624" lon="9.375078333832077"><ele>202.75</ele><time>2026-05-03T07:49:32.981Z</time></trkpt><trkpt lat="46.172380876716524" lon="9.375253498635995"><ele>202.5</ele><time>2026-05-03T07:49:33.981Z</time></trkpt><trkpt lat="46.17238745705712" lon="9.375441094375992"><ele>202.25</ele><time>2026-05-03T07:49:34.981Z</time></trkpt><trkpt lat="46.1723498365165" lon="9.375630457726473"><ele>202.0</ele><time>2026-05-03T07:49:35.981Z</time></trkpt><trkpt lat="46.17230020929445" lon="9.375822647093315"><ele>202.0</ele><time>2026-05-03T07:49:36.981Z</time></trkpt><trkpt lat="46.17224944935658" lon="9.376029043057722"><ele>202.0</ele><time>2026-05-03T07:49:37.981Z</time></trkpt><trkpt lat="46.172200044711126" lon="9.376239889762802"><ele>202.0</ele><time>2026-05-03T07:49:38.981Z</time></trkpt><trkpt lat="46.17215086366957" lon="9.376446237108878"><ele>202.33333333333331</ele><time>2026-05-03T07:49:39.981Z</time></trkpt><trkpt lat="46.172101249084974" lon="9.376654403401146"><ele>202.66666666666669</ele><time>2026-05-03T07:49:40.981Z</time></trkpt><trkpt lat="46.17205076306869" lon="9.376866223740217"><ele>203.0</ele><time>2026-05-03T07:49:41.981Z</time></trkpt><trkpt lat="46.171999695618275" lon="9.377084174078936"><ele>203.33333333333334</ele><time>2026-05-03T07:49:42.981Z</time></trkpt><trkpt lat="46.171967599372124" lon="9.377321140725055"><ele>203.66666666666669</ele><time>2026-05-03T07:49:43.981Z</time></trkpt><trkpt lat="46.17196575706391" lon="9.377546254108347"><ele>204.0</ele><time>2026-05-03T07:49:44.981Z</time></trkpt><trkpt lat="46.171984962785686" lon="9.377748454035567"><ele>204.0</ele><time>2026-05-03T07:49:45.981Z</time></trkpt><trkpt lat="46.172003729984084" lon="9.377919008870402"><ele>204.0</ele><time>2026-05-03T07:49:46.981Z</time></trkpt><trkpt lat="46.172022007871334" lon="9.378072096859254"><ele>204.0</ele><time>2026-05-03T07:49:47.981Z</time></trkpt><trkpt lat="46.17203755977367" lon="9.37820650842962"><ele>204.0</ele><time>2026-05-03T07:49:48.981Z</time></trkpt><trkpt lat="46.172051707978106" lon="9.378328787261847"><ele>204.0</ele><time>2026-05-03T07:49:49.98Z</time></trkpt><trkpt lat="46.17206499600906" lon="9.378443632438756"><ele>204.16666666666666</ele><time>2026-05-03T07:49:50.98Z</time></trkpt><trkpt lat="46.172086048354586" lon="9.378620590387618"><ele>204.33333333333331</ele><time>2026-05-03T07:49:52.981Z</time></trkpt><trkpt lat="46.17209838327731" lon="9.378723362831892"><ele>204.5</ele><time>2026-05-03T07:49:53.981Z</time></trkpt><trkpt lat="46.172112426300444" lon="9.378840367164413"><ele>204.66666666666666</ele><time>2026-05-03T07:49:54.981Z</time></trkpt><trkpt lat="46.17212477310927" lon="9.378946257042111"><ele>204.83333333333331</ele><time>2026-05-03T07:49:55.981Z</time></trkpt><trkpt lat="46.17213866044216" lon="9.379066080834088"><ele>205.0</ele><time>2026-05-03T07:49:56.98Z</time></trkpt><trkpt lat="46.17215471608827" lon="9.379204613594968"><ele>205.0</ele><time>2026-05-03T07:49:57.98Z</time></trkpt><trkpt lat="46.172171997864695" lon="9.379353725733361"><ele>205.0</ele><time>2026-05-03T07:49:58.98Z</time></trkpt><trkpt lat="46.17218668341354" lon="9.37948043673881"><ele>205.0</ele><time>2026-05-03T07:49:59.98Z</time></trkpt><trkpt lat="46.172198600597646" lon="9.379583328599933"><ele>205.0</ele><time>2026-05-03T07:50:00.98Z</time></trkpt><trkpt lat="46.172218948912" lon="9.379759232240128"><ele>205.0</ele><time>2026-05-03T07:50:02.98Z</time></trkpt><trkpt lat="46.17223422299693" lon="9.379891270522581"><ele>205.0</ele><time>2026-05-03T07:50:03.98Z</time></trkpt><trkpt lat="46.17225344742273" lon="9.380050127626916"><ele>205.0</ele><time>2026-05-03T07:50:04.98Z</time></trkpt><trkpt lat="46.172274532635065" lon="9.380206754600971"><ele>205.0</ele><time>2026-05-03T07:50:05.98Z</time></trkpt><trkpt lat="46.17229148096276" lon="9.380350095992384"><ele>205.0</ele><time>2026-05-03T07:50:06.98Z</time></trkpt><trkpt lat="46.17231487762353" lon="9.380494151280777"><ele>205.0</ele><time>2026-05-03T07:50:07.98Z</time></trkpt><trkpt lat="46.17235733946011" lon="9.380637913120381"><ele>204.83333333333331</ele><time>2026-05-03T07:50:08.98Z</time></trkpt><trkpt lat="46.17240535592081" lon="9.380751022624533"><ele>204.66666666666666</ele><time>2026-05-03T07:50:09.98Z</time></trkpt><trkpt lat="46.1724458680993" lon="9.380832272191302"><ele>204.5</ele><time>2026-05-03T07:50:10.98Z</time></trkpt><trkpt lat="46.17249199721324" lon="9.380919094317699"><ele>204.33333333333331</ele><time>2026-05-03T07:50:16.98Z</time></trkpt><trkpt lat="46.172561270796926" lon="9.38104545669113"><ele>204.16666666666666</ele><time>2026-05-03T07:50:21.98Z</time></trkpt><trkpt lat="46.172603793783665" lon="9.381122039874954"><ele>204.0</ele><time>2026-05-03T07:50:22.98Z</time></trkpt><trkpt lat="46.17265534737851" lon="9.381211148987248"><ele>204.0</ele><time>2026-05-03T07:50:23.98Z</time></trkpt><trkpt lat="46.172705595653944" lon="9.381299876553785"><ele>204.0</ele><time>2026-05-03T07:50:24.98Z</time></trkpt><trkpt lat="46.17275173470135" lon="9.381383484057178"><ele>204.0</ele><time>2026-05-03T07:50:25.98Z</time></trkpt><trkpt lat="46.17280295515564" lon="9.381475605829698"><ele>204.0</ele><time>2026-05-03T07:50:26.98Z</time></trkpt><trkpt lat="46.172850589393214" lon="9.381561275046554"><ele>204.0</ele><time>2026-05-03T07:50:27.98Z</time></trkpt><trkpt lat="46.17294017902014" lon="9.381611819417754"><ele>204.0</ele><time>2026-05-03T07:50:28.98Z</time></trkpt><trkpt lat="46.1729899168431" lon="9.381707619585463"><ele>204.0</ele><time>2026-05-03T07:50:29.98Z</time></trkpt><trkpt lat="46.173037627604025" lon="9.38180637217965"><ele>204.0</ele><time>2026-05-03T07:50:30.98Z</time></trkpt><trkpt lat="46.173083867470865" lon="9.381903432110136"><ele>204.0</ele><time>2026-05-03T07:50:31.98Z</time></trkpt><trkpt lat="46.17310710473563" lon="9.382020178858875"><ele>204.0</ele><time>2026-05-03T07:50:32.98Z</time></trkpt><trkpt lat="46.173158198826194" lon="9.382113549796813"><ele>204.0</ele><time>2026-05-03T07:50:33.98Z</time></trkpt><trkpt lat="46.17321356530432" lon="9.382214609751745"><ele>204.0</ele><time>2026-05-03T07:50:34.98Z</time></trkpt><trkpt lat="46.17327091598943" lon="9.382319291418113"><ele>205.6</ele><time>2026-05-03T07:50:35.98Z</time></trkpt><trkpt lat="46.173328940791016" lon="9.38242444743596"><ele>207.2</ele><time>2026-05-03T07:50:36.98Z</time></trkpt><trkpt lat="46.173382028247886" lon="9.38252382061844"><ele>208.79999999999998</ele><time>2026-05-03T07:50:37.98Z</time></trkpt><trkpt lat="46.17343236004399" lon="9.382623746970562"><ele>210.39999999999998</ele><time>2026-05-03T07:50:38.98Z</time></trkpt><trkpt lat="46.17348137627581" lon="9.382733226553906"><ele>212.0</ele><time>2026-05-03T07:50:39.98Z</time></trkpt><trkpt lat="46.17354083277422" lon="9.382839324521717"><ele>212.0</ele><time>2026-05-03T07:50:40.98Z</time></trkpt><trkpt lat="46.17358348167186" lon="9.38297003815824"><ele>212.0</ele><time>2026-05-03T07:50:41.98Z</time></trkpt><trkpt lat="46.17362696198763" lon="9.383107052805954"><ele>212.0</ele><time>2026-05-03T07:50:42.98Z</time></trkpt><trkpt lat="46.173668331819535" lon="9.383248621669647"><ele>212.0</ele><time>2026-05-03T07:50:43.98Z</time></trkpt><trkpt lat="46.1737051604698" lon="9.383380082017752"><ele>212.0</ele><time>2026-05-03T07:50:44.98Z</time></trkpt><trkpt lat="46.17373771091607" lon="9.383515128877926"><ele>212.0</ele><time>2026-05-03T07:50:45.98Z</time></trkpt><trkpt lat="46.17374277004166" lon="9.383668721364721"><ele>212.0</ele><time>2026-05-03T07:50:46.98Z</time></trkpt><trkpt lat="46.173746828991355" lon="9.383836347148"><ele>212.0</ele><time>2026-05-03T07:50:47.98Z</time></trkpt><trkpt lat="46.17372528448251" lon="9.384007113344621"><ele>212.0</ele><time>2026-05-03T07:50:48.98Z</time></trkpt><trkpt lat="46.173701362473295" lon="9.38419183324612"><ele>212.0</ele><time>2026-05-03T07:50:49.98Z</time></trkpt><trkpt lat="46.17367365694516" lon="9.3843692213143"><ele>212.0</ele><time>2026-05-03T07:50:50.98Z</time></trkpt><trkpt lat="46.17364392049812" lon="9.384542290453586"><ele>212.0</ele><time>2026-05-03T07:50:51.98Z</time></trkpt><trkpt lat="46.173613131641694" lon="9.384709542007483"><ele>212.0</ele><time>2026-05-03T07:50:52.98Z</time></trkpt><trkpt lat="46.17357088627223" lon="9.384885263369835"><ele>212.25</ele><time>2026-05-03T07:50:53.98Z</time></trkpt><trkpt lat="46.17352134494457" lon="9.385064715167722"><ele>212.5</ele><time>2026-05-03T07:50:54.98Z</time></trkpt><trkpt lat="46.173474358356174" lon="9.385248914106493"><ele>212.75</ele><time>2026-05-03T07:50:55.98Z</time></trkpt><trkpt lat="46.17343961517493" lon="9.385421699566328"><ele>213.0</ele><time>2026-05-03T07:50:56.98Z</time></trkpt><trkpt lat="46.1733923724467" lon="9.38558474879288"><ele>212.25</ele><time>2026-05-03T07:50:57.98Z</time></trkpt><trkpt lat="46.17335406198033" lon="9.38575101322402"><ele>211.5</ele><time>2026-05-03T07:50:58.98Z</time></trkpt><trkpt lat="46.1732935414197" lon="9.385920139678783"><ele>210.75</ele><time>2026-05-03T07:50:59.98Z</time></trkpt><trkpt lat="46.17325303827344" lon="9.386107662246085"><ele>210.0</ele><time>2026-05-03T07:51:00.98Z</time></trkpt><trkpt lat="46.17320638664925" lon="9.386305272303195"><ele>208.0</ele><time>2026-05-03T07:51:01.98Z</time></trkpt><trkpt lat="46.17313816989765" lon="9.386493618863609"><ele>206.0</ele><time>2026-05-03T07:51:02.98Z</time></trkpt><trkpt lat="46.17308499986938" lon="9.386695576514377"><ele>204.0</ele><time>2026-05-03T07:51:03.98Z</time></trkpt><trkpt lat="46.17303296287638" lon="9.386893094527126"><ele>202.0</ele><time>2026-05-03T07:51:04.98Z</time></trkpt><trkpt lat="46.17298290201414" lon="9.387092795540923"><ele>202.75</ele><time>2026-05-03T07:51:05.98Z</time></trkpt><trkpt lat="46.17292606581407" lon="9.38728589594466"><ele>203.5</ele><time>2026-05-03T07:51:06.98Z</time></trkpt><trkpt lat="46.17287113235025" lon="9.387476623804845"><ele>204.25</ele><time>2026-05-03T07:51:07.98Z</time></trkpt><trkpt lat="46.172821044378075" lon="9.387667569312924"><ele>205.0</ele><time>2026-05-03T07:51:08.98Z</time></trkpt><trkpt lat="46.172771098810315" lon="9.387855125435266"><ele>204.5</ele><time>2026-05-03T07:51:09.98Z</time></trkpt><trkpt lat="46.17272839649755" lon="9.388040598159193"><ele>204.0</ele><time>2026-05-03T07:51:10.98Z</time></trkpt><trkpt lat="46.17266672434819" lon="9.388211683225782"><ele>203.5</ele><time>2026-05-03T07:51:11.98Z</time></trkpt><trkpt lat="46.172623363824556" lon="9.388392097946301"><ele>203.0</ele><time>2026-05-03T07:51:12.98Z</time></trkpt><trkpt lat="46.172575806232594" lon="9.388564739218669"><ele>203.0</ele><time>2026-05-03T07:51:13.98Z</time></trkpt><trkpt lat="46.17254289292905" lon="9.388735667393505"><ele>203.0</ele><time>2026-05-03T07:51:14.98Z</time></trkpt><trkpt lat="46.17250345650384" lon="9.388915589247832"><ele>203.0</ele><time>2026-05-03T07:51:15.98Z</time></trkpt><trkpt lat="46.17247466695977" lon="9.389103787676099"><ele>203.0</ele><time>2026-05-03T07:51:16.98Z</time></trkpt><trkpt lat="46.17245419109867" lon="9.38929902885376"><ele>203.75</ele><time>2026-05-03T07:51:17.98Z</time></trkpt><trkpt lat="46.172439817712906" lon="9.389499167975497"><ele>204.5</ele><time>2026-05-03T07:51:18.98Z</time></trkpt><trkpt lat="46.17243092727488" lon="9.389703536616933"><ele>205.25</ele><time>2026-05-03T07:51:19.98Z</time></trkpt><trkpt lat="46.172413841370755" lon="9.389912853136291"><ele>206.0</ele><time>2026-05-03T07:51:20.98Z</time></trkpt><trkpt lat="46.17240239697664" lon="9.390123995929244"><ele>205.25</ele><time>2026-05-03T07:51:21.98Z</time></trkpt><trkpt lat="46.17239380194271" lon="9.390335447512445"><ele>204.5</ele><time>2026-05-03T07:51:22.98Z</time></trkpt><trkpt lat="46.17237663710866" lon="9.390551004722264"><ele>203.75</ele><time>2026-05-03T07:51:23.98Z</time></trkpt><trkpt lat="46.17235664559889" lon="9.390767737023376"><ele>203.0</ele><time>2026-05-03T07:51:24.98Z</time></trkpt><trkpt lat="46.17233022129452" lon="9.390983893950178"><ele>203.0</ele><time>2026-05-03T07:51:25.98Z</time></trkpt><trkpt lat="46.17228154405635" lon="9.391189810042023"><ele>203.0</ele><time>2026-05-03T07:51:26.98Z</time></trkpt><trkpt lat="46.17224424496878" lon="9.391400053962997"><ele>203.0</ele><time>2026-05-03T07:51:27.98Z</time></trkpt><trkpt lat="46.17220871389732" lon="9.391610262279128"><ele>203.33333333333334</ele><time>2026-05-03T07:51:28.98Z</time></trkpt><trkpt lat="46.17217660711094" lon="9.391820767862377"><ele>203.66666666666669</ele><time>2026-05-03T07:51:29.98Z</time></trkpt><trkpt lat="46.17215046092696" lon="9.392035426407926"><ele>204.0</ele><time>2026-05-03T07:51:30.98Z</time></trkpt><trkpt lat="46.172137528316014" lon="9.39225804403971"><ele>204.0</ele><time>2026-05-03T07:51:31.98Z</time></trkpt><trkpt lat="46.17213986974898" lon="9.392479273357457"><ele>204.0</ele><time>2026-05-03T07:51:32.98Z</time></trkpt><trkpt lat="46.17215330222001" lon="9.392690977065698"><ele>204.0</ele><time>2026-05-03T07:51:33.98Z</time></trkpt><trkpt lat="46.17216060486467" lon="9.392896671404179"><ele>204.0</ele><time>2026-05-03T07:51:34.98Z</time></trkpt><trkpt lat="46.172154301745906" lon="9.393111010727925"><ele>203.66666666666669</ele><time>2026-05-03T07:51:35.98Z</time></trkpt><trkpt lat="46.172138632626705" lon="9.393331033164861"><ele>203.33333333333334</ele><time>2026-05-03T07:51:36.98Z</time></trkpt><trkpt lat="46.17211766300286" lon="9.393584392986462"><ele>203.0</ele><time>2026-05-03T07:51:37.98Z</time></trkpt><trkpt lat="46.17209300341365" lon="9.393861461774172"><ele>202.66666666666669</ele><time>2026-05-03T07:51:38.98Z</time></trkpt><trkpt lat="46.172065388309974" lon="9.394160412878506"><ele>202.33333333333331</ele><time>2026-05-03T07:51:39.98Z</time></trkpt><trkpt lat="46.172034721682465" lon="9.394492398109941"><ele>202.0</ele><time>2026-05-03T07:51:40.98Z</time></trkpt><trkpt lat="46.17200410759578" lon="9.394823814655243"><ele>203.0</ele><time>2026-05-03T07:51:41.98Z</time></trkpt><trkpt lat="46.171973924994866" lon="9.395150560519303"><ele>204.0</ele><time>2026-05-03T07:51:42.98Z</time></trkpt><trkpt lat="46.17194415100419" lon="9.395470611470657"><ele>206.33333333333331</ele><time>2026-05-03T07:51:43.98Z</time></trkpt><trkpt lat="46.171914683573746" lon="9.395773522613037"><ele>208.66666666666666</ele><time>2026-05-03T07:51:44.98Z</time></trkpt><trkpt lat="46.17188706517017" lon="9.396057426883376"><ele>211.0</ele><time>2026-05-03T07:51:45.98Z</time></trkpt><trkpt lat="46.17186231297946" lon="9.396325825437733"><ele>210.33333333333331</ele><time>2026-05-03T07:51:46.98Z</time></trkpt><trkpt lat="46.17185744945065" lon="9.396587846795134"><ele>209.66666666666669</ele><time>2026-05-03T07:51:47.98Z</time></trkpt><trkpt lat="46.17190473954118" lon="9.396840777583906"><ele>209.0</ele><time>2026-05-03T07:51:48.98Z</time></trkpt><trkpt lat="46.17196239845228" lon="9.397053084521787"><ele>208.0</ele><time>2026-05-03T07:51:49.98Z</time></trkpt><trkpt lat="46.172018721347506" lon="9.397272860152325"><ele>207.0</ele><time>2026-05-03T07:51:50.98Z</time></trkpt><trkpt lat="46.172071927096894" lon="9.397485585774852"><ele>206.0</ele><time>2026-05-03T07:51:51.98Z</time></trkpt><trkpt lat="46.172123539442175" lon="9.397695279115311"><ele>206.0</ele><time>2026-05-03T07:51:52.98Z</time></trkpt><trkpt lat="46.17217190295184" lon="9.397893846874497"><ele>206.0</ele><time>2026-05-03T07:51:53.98Z</time></trkpt><trkpt lat="46.17221354416986" lon="9.398079749527756"><ele>206.0</ele><time>2026-05-03T07:51:54.98Z</time></trkpt><trkpt lat="46.17224669358042" lon="9.39826166278113"><ele>206.0</ele><time>2026-05-03T07:51:55.981Z</time></trkpt><trkpt lat="46.172266934953065" lon="9.398460613411952"><ele>205.5</ele><time>2026-05-03T07:51:56.98Z</time></trkpt><trkpt lat="46.17226569528501" lon="9.39865514106828"><ele>205.0</ele><time>2026-05-03T07:51:57.98Z</time></trkpt><trkpt lat="46.172252942967724" lon="9.398866930978024"><ele>204.5</ele><time>2026-05-03T07:51:58.98Z</time></trkpt><trkpt lat="46.1722390703768" lon="9.399085520673252"><ele>204.0</ele><time>2026-05-03T07:51:59.979Z</time></trkpt><trkpt lat="46.17222733786828" lon="9.39929477245291"><ele>204.0</ele><time>2026-05-03T07:52:00.979Z</time></trkpt><trkpt lat="46.17222919566936" lon="9.399506107725859"><ele>204.0</ele><time>2026-05-03T07:52:01.98Z</time></trkpt><trkpt lat="46.17224082058518" lon="9.399710275207388"><ele>204.0</ele><time>2026-05-03T07:52:02.98Z</time></trkpt><trkpt lat="46.17224757718719" lon="9.399909075750243"><ele>204.0</ele><time>2026-05-03T07:52:03.98Z</time></trkpt><trkpt lat="46.17223505590927" lon="9.4001020122163"><ele>203.75</ele><time>2026-05-03T07:52:04.98Z</time></trkpt><trkpt lat="46.17221300273343" lon="9.400296126299484"><ele>203.5</ele><time>2026-05-03T07:52:05.98Z</time></trkpt><trkpt lat="46.17219444572118" lon="9.400475211104695"><ele>203.25</ele><time>2026-05-03T07:52:06.98Z</time></trkpt><trkpt lat="46.17219571211288" lon="9.400659791586264"><ele>203.0</ele><time>2026-05-03T07:52:07.98Z</time></trkpt><trkpt lat="46.17221763649126" lon="9.400824155600159"><ele>202.75</ele><time>2026-05-03T07:52:08.98Z</time></trkpt><trkpt lat="46.172257202004246" lon="9.40097834767058"><ele>202.5</ele><time>2026-05-03T07:52:09.98Z</time></trkpt><trkpt lat="46.172322574222044" lon="9.401120615421902"><ele>202.25</ele><time>2026-05-03T07:52:10.98Z</time></trkpt><trkpt lat="46.17238926345261" lon="9.401253374921701"><ele>202.0</ele><time>2026-05-03T07:52:11.98Z</time></trkpt><trkpt lat="46.17247820828488" lon="9.4013720103486"><ele>203.5</ele><time>2026-05-03T07:52:12.98Z</time></trkpt><trkpt lat="46.172536369687755" lon="9.401529268087184"><ele>205.0</ele><time>2026-05-03T07:52:13.98Z</time></trkpt><trkpt lat="46.172605307943535" lon="9.401672524340814"><ele>206.5</ele><time>2026-05-03T07:52:14.98Z</time></trkpt><trkpt lat="46.17267126112583" lon="9.401805271743704"><ele>208.0</ele><time>2026-05-03T07:52:15.98Z</time></trkpt><trkpt lat="46.17273269004255" lon="9.401934662385706"><ele>208.0</ele><time>2026-05-03T07:52:16.98Z</time></trkpt><trkpt lat="46.17279491019084" lon="9.402056991052921"><ele>208.0</ele><time>2026-05-03T07:52:17.98Z</time></trkpt><trkpt lat="46.17286147185335" lon="9.402176326566567"><ele>208.0</ele><time>2026-05-03T07:52:18.98Z</time></trkpt><trkpt lat="46.17292305828838" lon="9.402297139697904"><ele>208.0</ele><time>2026-05-03T07:52:19.98Z</time></trkpt><trkpt lat="46.17298299053137" lon="9.402418903769036"><ele>208.0</ele><time>2026-05-03T07:52:20.98Z</time></trkpt><trkpt lat="46.17303269613714" lon="9.40255217522241"><ele>208.49999999999997</ele><time>2026-05-03T07:52:21.98Z</time></trkpt><trkpt lat="46.17307998293614" lon="9.4026817848937"><ele>209.0</ele><time>2026-05-03T07:52:22.98Z</time></trkpt><trkpt lat="46.17312727920338" lon="9.402804801477133"><ele>209.5</ele><time>2026-05-03T07:52:23.98Z</time></trkpt><trkpt lat="46.17317518836187" lon="9.402917069299946"><ele>210.0</ele><time>2026-05-03T07:52:24.98Z</time></trkpt><trkpt lat="46.17321677200227" lon="9.403010342906246"><ele>210.49999999999997</ele><time>2026-05-03T07:52:25.98Z</time></trkpt><trkpt lat="46.17324059043358" lon="9.403108202856615"><ele>211.0</ele><time>2026-05-03T07:52:26.98Z</time></trkpt><trkpt lat="46.17325850667284" lon="9.403211413634644"><ele>211.33333333333331</ele><time>2026-05-03T07:52:27.98Z</time></trkpt><trkpt lat="46.17327947197872" lon="9.403384934375094"><ele>211.66666666666666</ele><time>2026-05-03T07:52:29.98Z</time></trkpt><trkpt lat="46.173262086090055" lon="9.403479838271675"><ele>212.0</ele><time>2026-05-03T07:52:30.98Z</time></trkpt><trkpt lat="46.17324472819343" lon="9.403573039434209"><ele>212.33333333333331</ele><time>2026-05-03T07:52:31.98Z</time></trkpt><trkpt lat="46.17320357009049" lon="9.403665212124448"><ele>212.66666666666666</ele><time>2026-05-03T07:52:32.98Z</time></trkpt><trkpt lat="46.17311560696269" lon="9.403692068013882"><ele>213.0</ele><time>2026-05-03T07:52:33.98Z</time></trkpt><trkpt lat="46.173003762401834" lon="9.403781331178498"><ele>209.8</ele><time>2026-05-03T07:52:35.98Z</time></trkpt><trkpt lat="46.172886144053315" lon="9.403854415761893"><ele>206.60000000000002</ele><time>2026-05-03T07:52:37.98Z</time></trkpt><trkpt lat="46.172786201165785" lon="9.403917592236922"><ele>203.39999999999998</ele><time>2026-05-03T07:52:39.98Z</time></trkpt><trkpt lat="46.17269397714243" lon="9.403999989613517"><ele>200.2</ele><time>2026-05-03T07:52:41.98Z</time></trkpt><trkpt lat="46.172630126877074" lon="9.404017369737316"><ele>197.0</ele><time>2026-05-03T07:52:42.98Z</time></trkpt><trkpt lat="46.1725715460217" lon="9.404056167546713"><ele>197.00000000000003</ele><time>2026-05-03T07:52:43.98Z</time></trkpt><trkpt lat="46.17250347079408" lon="9.404104603071048"><ele>197.0</ele><time>2026-05-03T07:52:44.98Z</time></trkpt><trkpt lat="46.17242757701591" lon="9.40415234984054"><ele>197.0</ele><time>2026-05-03T07:52:45.98Z</time></trkpt><trkpt lat="46.17235395970058" lon="9.404199817920052"><ele>197.0</ele><time>2026-05-03T07:52:46.98Z</time></trkpt><trkpt lat="46.17228997528582" lon="9.404238457247356"><ele>197.00000000000003</ele><time>2026-05-03T07:52:47.98Z</time></trkpt><trkpt lat="46.17218888355777" lon="9.404310692961962"><ele>197.0</ele><time>2026-05-03T07:52:49.98Z</time></trkpt><trkpt lat="46.17207784269779" lon="9.404332544166886"><ele>197.66666666666669</ele><time>2026-05-03T07:52:51.98Z</time></trkpt><trkpt lat="46.171984327884275" lon="9.404389645874723"><ele>198.33333333333334</ele><time>2026-05-03T07:52:53.98Z</time></trkpt><trkpt lat="46.17188100334964" lon="9.404466548730403"><ele>199.0</ele><time>2026-05-03T07:52:55.98Z</time></trkpt><trkpt lat="46.171824514795695" lon="9.404522273141062"><ele>199.66666666666669</ele><time>2026-05-03T07:52:56.98Z</time></trkpt><trkpt lat="46.17176055817541" lon="9.40458761644263"><ele>200.33333333333334</ele><time>2026-05-03T07:52:57.98Z</time></trkpt><trkpt lat="46.17168427296946" lon="9.404636480050097"><ele>201.0</ele><time>2026-05-03T07:52:58.98Z</time></trkpt><trkpt lat="46.17162099295507" lon="9.404695742692594"><ele>201.0</ele><time>2026-05-03T07:52:59.98Z</time></trkpt><trkpt lat="46.17159169217239" lon="9.404790926180768"><ele>201.0</ele><time>2026-05-03T07:53:00.98Z</time></trkpt><trkpt lat="46.17167044383892" lon="9.404968231040632"><ele>201.0</ele><time>2026-05-03T07:53:02.98Z</time></trkpt><trkpt lat="46.171743918476956" lon="9.404997011283179"><ele>201.0</ele><time>2026-05-03T07:53:03.98Z</time></trkpt><trkpt lat="46.1718301561885" lon="9.405034894630418"><ele>201.0</ele><time>2026-05-03T07:53:04.98Z</time></trkpt><trkpt lat="46.17190446205994" lon="9.40516825944996"><ele>201.0</ele><time>2026-05-03T07:53:05.98Z</time></trkpt><trkpt lat="46.17197675669967" lon="9.405296857072551"><ele>201.0</ele><time>2026-05-03T07:53:06.98Z</time></trkpt><trkpt lat="46.17204702015369" lon="9.405427161824782"><ele>201.0</ele><time>2026-05-03T07:53:07.98Z</time></trkpt><trkpt lat="46.17211522171272" lon="9.405570432267927"><ele>201.0</ele><time>2026-05-03T07:53:08.98Z</time></trkpt><trkpt lat="46.17217799180925" lon="9.405740925306194"><ele>202.0</ele><time>2026-05-03T07:53:09.98Z</time></trkpt><trkpt lat="46.172235838390954" lon="9.40593568838214"><ele>203.0</ele><time>2026-05-03T07:53:10.98Z</time></trkpt><trkpt lat="46.17228200058827" lon="9.406144079420823"><ele>204.0</ele><time>2026-05-03T07:53:11.98Z</time></trkpt><trkpt lat="46.17231932525247" lon="9.406363744448841"><ele>204.0</ele><time>2026-05-03T07:53:12.98Z</time></trkpt><trkpt lat="46.17233587954861" lon="9.406587969814694"><ele>204.0</ele><time>2026-05-03T07:53:13.98Z</time></trkpt><trkpt lat="46.17234378676285" lon="9.406813772299905"><ele>204.0</ele><time>2026-05-03T07:53:14.98Z</time></trkpt><trkpt lat="46.17234363671008" lon="9.407048079959296"><ele>202.66666666666669</ele><time>2026-05-03T07:53:15.98Z</time></trkpt><trkpt lat="46.172337729893925" lon="9.40728220236717"><ele>201.33333333333334</ele><time>2026-05-03T07:53:16.98Z</time></trkpt><trkpt lat="46.17232579688533" lon="9.407521237570446"><ele>200.0</ele><time>2026-05-03T07:53:17.98Z</time></trkpt><trkpt lat="46.17231593457306" lon="9.40776004652744"><ele>200.66666666666669</ele><time>2026-05-03T07:53:18.98Z</time></trkpt><trkpt lat="46.1723013183114" lon="9.408003328974612"><ele>201.33333333333331</ele><time>2026-05-03T07:53:19.98Z</time></trkpt><trkpt lat="46.17229415486364" lon="9.40824972388018"><ele>202.0</ele><time>2026-05-03T07:53:20.98Z</time></trkpt><trkpt lat="46.17228985049516" lon="9.40849459038501"><ele>202.0</ele><time>2026-05-03T07:53:21.98Z</time></trkpt><trkpt lat="46.17228687801289" lon="9.408728091342047"><ele>202.0</ele><time>2026-05-03T07:53:22.98Z</time></trkpt><trkpt lat="46.17227939581724" lon="9.408947855146586"><ele>202.0</ele><time>2026-05-03T07:53:23.98Z</time></trkpt><trkpt lat="46.17227362567766" lon="9.409158432601982"><ele>201.66666666666666</ele><time>2026-05-03T07:53:24.98Z</time></trkpt><trkpt lat="46.17226531450021" lon="9.409374868634185"><ele>201.33333333333331</ele><time>2026-05-03T07:53:25.98Z</time></trkpt><trkpt lat="46.17225845151786" lon="9.409593057235334"><ele>201.0</ele><time>2026-05-03T07:53:26.98Z</time></trkpt><trkpt lat="46.172255518705484" lon="9.409811068858275"><ele>201.0</ele><time>2026-05-03T07:53:27.98Z</time></trkpt><trkpt lat="46.1722502382717" lon="9.410028102413941"><ele>201.0</ele><time>2026-05-03T07:53:28.98Z</time></trkpt><trkpt lat="46.17224470486289" lon="9.410244033062353"><ele>201.0</ele><time>2026-05-03T07:53:29.98Z</time></trkpt><trkpt lat="46.17223667952798" lon="9.410451925902187"><ele>201.0</ele><time>2026-05-03T07:53:30.98Z</time></trkpt><trkpt lat="46.17223003105806" lon="9.41065939714649"><ele>201.25</ele><time>2026-05-03T07:53:31.98Z</time></trkpt><trkpt lat="46.172224905013564" lon="9.41086352845694"><ele>201.5</ele><time>2026-05-03T07:53:32.98Z</time></trkpt><trkpt lat="46.17221869937914" lon="9.411066346086"><ele>201.75</ele><time>2026-05-03T07:53:33.98Z</time></trkpt><trkpt lat="46.17221434816364" lon="9.411264377224327"><ele>202.0</ele><time>2026-05-03T07:53:34.98Z</time></trkpt><trkpt lat="46.172204945873126" lon="9.411460510316402"><ele>202.0</ele><time>2026-05-03T07:53:35.98Z</time></trkpt><trkpt lat="46.17219979571916" lon="9.411659853997342"><ele>202.0</ele><time>2026-05-03T07:53:36.98Z</time></trkpt><trkpt lat="46.17219199376055" lon="9.411867633127358"><ele>202.0</ele><time>2026-05-03T07:53:37.98Z</time></trkpt><trkpt lat="46.17218454446294" lon="9.412082467198045"><ele>202.0</ele><time>2026-05-03T07:53:38.98Z</time></trkpt><trkpt lat="46.1721783148609" lon="9.412299601114658"><ele>202.0</ele><time>2026-05-03T07:53:39.98Z</time></trkpt><trkpt lat="46.17217194742353" lon="9.412523252914893"><ele>202.0</ele><time>2026-05-03T07:53:40.98Z</time></trkpt><trkpt lat="46.172165799133886" lon="9.4127799506839"><ele>202.0</ele><time>2026-05-03T07:53:41.98Z</time></trkpt><trkpt lat="46.17215916488565" lon="9.413081077264826"><ele>201.5</ele><time>2026-05-03T07:53:42.98Z</time></trkpt><trkpt lat="46.17213378407966" lon="9.413429499075946"><ele>201.0</ele><time>2026-05-03T07:53:43.98Z</time></trkpt><trkpt lat="46.17211989803138" lon="9.413817934653064"><ele>201.0</ele><time>2026-05-03T07:53:44.98Z</time></trkpt><trkpt lat="46.17210616532054" lon="9.41420208092704"><ele>201.0</ele><time>2026-05-03T07:53:45.98Z</time></trkpt><trkpt lat="46.17208850407686" lon="9.41457864285834"><ele>200.5</ele><time>2026-05-03T07:53:46.98Z</time></trkpt><trkpt lat="46.17206968020324" lon="9.414955099387498"><ele>200.0</ele><time>2026-05-03T07:53:47.98Z</time></trkpt><trkpt lat="46.172057205778586" lon="9.415332001135962"><ele>200.0</ele><time>2026-05-03T07:53:48.98Z</time></trkpt><trkpt lat="46.172047285642726" lon="9.415693754549226"><ele>200.0</ele><time>2026-05-03T07:53:49.98Z</time></trkpt><trkpt lat="46.17203738675479" lon="9.416049942049266"><ele>200.0</ele><time>2026-05-03T07:53:50.98Z</time></trkpt><trkpt lat="46.17202504858865" lon="9.41640232045969"><ele>200.0</ele><time>2026-05-03T07:53:51.98Z</time></trkpt><trkpt lat="46.172016702351826" lon="9.41674124120248"><ele>200.0</ele><time>2026-05-03T07:53:52.98Z</time></trkpt><trkpt lat="46.17199966456796" lon="9.417071050717633"><ele>200.0</ele><time>2026-05-03T07:53:53.98Z</time></trkpt><trkpt lat="46.17198629296242" lon="9.417399077908504"><ele>199.5</ele><time>2026-05-03T07:53:54.98Z</time></trkpt><trkpt lat="46.17197269530629" lon="9.417727386245232"><ele>199.0</ele><time>2026-05-03T07:53:55.98Z</time></trkpt><trkpt lat="46.17196040569623" lon="9.418056441699267"><ele>200.0</ele><time>2026-05-03T07:53:56.98Z</time></trkpt><trkpt lat="46.17195091042086" lon="9.418387136787567"><ele>201.0</ele><time>2026-05-03T07:53:57.98Z</time></trkpt><trkpt lat="46.17194026473542" lon="9.418721633545688"><ele>201.0</ele><time>2026-05-03T07:53:58.98Z</time></trkpt><trkpt lat="46.17193078703109" lon="9.419058824305349"><ele>201.0</ele><time>2026-05-03T07:53:59.98Z</time></trkpt><trkpt lat="46.17191994250148" lon="9.41939884193676"><ele>199.5</ele><time>2026-05-03T07:54:00.98Z</time></trkpt><trkpt lat="46.17190757155503" lon="9.419736949903184"><ele>198.0</ele><time>2026-05-03T07:54:01.98Z</time></trkpt><trkpt lat="46.17189653317339" lon="9.420074741614856"><ele>198.0</ele><time>2026-05-03T07:54:02.98Z</time></trkpt><trkpt lat="46.17188447612253" lon="9.420411589197759"><ele>198.0</ele><time>2026-05-03T07:54:03.98Z</time></trkpt><trkpt lat="46.171871359617334" lon="9.420749861369222"><ele>199.0</ele><time>2026-05-03T07:54:04.98Z</time></trkpt><trkpt lat="46.17186192808186" lon="9.421085666824549"><ele>200.0</ele><time>2026-05-03T07:54:05.979Z</time></trkpt><trkpt lat="46.17185004682533" lon="9.421421877021965"><ele>200.5</ele><time>2026-05-03T07:54:06.979Z</time></trkpt><trkpt lat="46.17183959704544" lon="9.42176183752414"><ele>201.0</ele><time>2026-05-03T07:54:07.98Z</time></trkpt><trkpt lat="46.17182541179208" lon="9.422103043607605"><ele>200.5</ele><time>2026-05-03T07:54:08.98Z</time></trkpt><trkpt lat="46.17181316816754" lon="9.422441709252722"><ele>200.0</ele><time>2026-05-03T07:54:09.98Z</time></trkpt><trkpt lat="46.17180276067237" lon="9.422777435924294"><ele>200.66666666666669</ele><time>2026-05-03T07:54:10.98Z</time></trkpt><trkpt lat="46.17179422213445" lon="9.423105344529446"><ele>201.33333333333331</ele><time>2026-05-03T07:54:11.979Z</time></trkpt><trkpt lat="46.17178384824232" lon="9.423421377713414"><ele>202.0</ele><time>2026-05-03T07:54:12.979Z</time></trkpt><trkpt lat="46.17177578510293" lon="9.423734813102744"><ele>201.33333333333331</ele><time>2026-05-03T07:54:13.979Z</time></trkpt><trkpt lat="46.17176715801166" lon="9.424045936704164"><ele>200.66666666666669</ele><time>2026-05-03T07:54:14.979Z</time></trkpt><trkpt lat="46.17175782702678" lon="9.424357518898276"><ele>200.0</ele><time>2026-05-03T07:54:15.979Z</time></trkpt><trkpt lat="46.17174810345565" lon="9.424670513104264"><ele>199.66666666666669</ele><time>2026-05-03T07:54:16.979Z</time></trkpt><trkpt lat="46.171734369712695" lon="9.424990690911946"><ele>199.33333333333331</ele><time>2026-05-03T07:54:17.979Z</time></trkpt><trkpt lat="46.17172245386277" lon="9.425314300204022"><ele>199.0</ele><time>2026-05-03T07:54:18.979Z</time></trkpt><trkpt lat="46.17171288474245" lon="9.425638186331085"><ele>199.0</ele><time>2026-05-03T07:54:19.979Z</time></trkpt><trkpt lat="46.17170274665055" lon="9.425946331464907"><ele>199.0</ele><time>2026-05-03T07:54:20.979Z</time></trkpt><trkpt lat="46.17169612120947" lon="9.426231776964654"><ele>199.0</ele><time>2026-05-03T07:54:21.979Z</time></trkpt><trkpt lat="46.17168734790177" lon="9.426504356238903"><ele>199.66666666666666</ele><time>2026-05-03T07:54:22.979Z</time></trkpt><trkpt lat="46.17167271952152" lon="9.4267607836429"><ele>200.33333333333331</ele><time>2026-05-03T07:54:23.979Z</time></trkpt><trkpt lat="46.171661303983875" lon="9.427013552781117"><ele>201.0</ele><time>2026-05-03T07:54:24.979Z</time></trkpt><trkpt lat="46.17164793158026" lon="9.427267888680444"><ele>201.0</ele><time>2026-05-03T07:54:25.979Z</time></trkpt><trkpt lat="46.171641364475995" lon="9.427523807132928"><ele>201.0</ele><time>2026-05-03T07:54:26.979Z</time></trkpt><trkpt lat="46.17163159324047" lon="9.42778189147536"><ele>201.0</ele><time>2026-05-03T07:54:27.979Z</time></trkpt><trkpt lat="46.17162654991728" lon="9.428036424919872"><ele>201.33333333333331</ele><time>2026-05-03T07:54:28.979Z</time></trkpt><trkpt lat="46.171612996374684" lon="9.428286852782012"><ele>201.66666666666666</ele><time>2026-05-03T07:54:29.979Z</time></trkpt><trkpt lat="46.171611743717946" lon="9.428519098673583"><ele>202.0</ele><time>2026-05-03T07:54:30.979Z</time></trkpt><trkpt lat="46.17160293185071" lon="9.428735345691223"><ele>202.0</ele><time>2026-05-03T07:54:31.979Z</time></trkpt><trkpt lat="46.171601428149195" lon="9.428927295016514"><ele>202.0</ele><time>2026-05-03T07:54:32.979Z</time></trkpt><trkpt lat="46.171588502804475" lon="9.429102992011417"><ele>202.0</ele><time>2026-05-03T07:54:33.979Z</time></trkpt><trkpt lat="46.171581850236564" lon="9.429266848684774"><ele>202.0</ele><time>2026-05-03T07:54:34.979Z</time></trkpt><trkpt lat="46.17157618660008" lon="9.429418093890666"><ele>202.0</ele><time>2026-05-03T07:54:35.979Z</time></trkpt><trkpt lat="46.171569379219115" lon="9.429570657005346"><ele>202.0</ele><time>2026-05-03T07:54:36.979Z</time></trkpt><trkpt lat="46.17156167018353" lon="9.42973250070019"><ele>202.0</ele><time>2026-05-03T07:54:37.979Z</time></trkpt><trkpt lat="46.171553242018064" lon="9.42990659992771"><ele>202.0</ele><time>2026-05-03T07:54:38.979Z</time></trkpt><trkpt lat="46.17154582791955" lon="9.430064554503765"><ele>202.0</ele><time>2026-05-03T07:54:39.979Z</time></trkpt><trkpt lat="46.17153716535047" lon="9.430213899335115"><ele>201.99999999999997</ele><time>2026-05-03T07:54:40.979Z</time></trkpt><trkpt lat="46.17153169322545" lon="9.430346615096724"><ele>202.0</ele><time>2026-05-03T07:54:41.979Z</time></trkpt><trkpt lat="46.17152976965899" lon="9.430460548982595"><ele>202.0</ele><time>2026-05-03T07:54:42.979Z</time></trkpt><trkpt lat="46.17152169740198" lon="9.430556428191302"><ele>202.0</ele><time>2026-05-03T07:54:43.979Z</time></trkpt><trkpt lat="46.1715171990656" lon="9.430684840815937"><ele>201.99999999999997</ele><time>2026-05-03T07:54:45.979Z</time></trkpt><trkpt lat="46.17152678338918" lon="9.430795529626064"><ele>202.0</ele><time>2026-05-03T07:54:48.979Z</time></trkpt><trkpt lat="46.171522031050834" lon="9.430897830254583"><ele>202.2</ele><time>2026-05-03T08:02:12.974Z</time></trkpt><trkpt lat="46.171537297654694" lon="9.431056715479293"><ele>202.39999999999998</ele><time>2026-05-03T08:02:14.974Z</time></trkpt><trkpt lat="46.171534316339674" lon="9.431169487584489"><ele>202.60000000000002</ele><time>2026-05-03T08:02:15.974Z</time></trkpt><trkpt lat="46.17152646304958" lon="9.431303043820312"><ele>202.8</ele><time>2026-05-03T08:02:16.974Z</time></trkpt><trkpt lat="46.171519457312606" lon="9.431444677861924"><ele>203.0</ele><time>2026-05-03T08:02:17.974Z</time></trkpt><trkpt lat="46.171512953684" lon="9.431581422679017"><ele>203.00000000000003</ele><time>2026-05-03T08:02:18.974Z</time></trkpt><trkpt lat="46.17151143926434" lon="9.431742152835959"><ele>203.0</ele><time>2026-05-03T08:02:19.974Z</time></trkpt><trkpt lat="46.17150878209802" lon="9.431876315742677"><ele>203.0</ele><time>2026-05-03T08:02:20.974Z</time></trkpt><trkpt lat="46.17150892988462" lon="9.431982009439619"><ele>203.0</ele><time>2026-05-03T08:02:21.974Z</time></trkpt><trkpt lat="46.171502284568724" lon="9.432087166185273"><ele>203.00000000000003</ele><time>2026-05-03T08:02:22.974Z</time></trkpt><trkpt lat="46.17148004494035" lon="9.432178264723369"><ele>203.0</ele><time>2026-05-03T08:02:23.974Z</time></trkpt><trkpt lat="46.17144009104073" lon="9.43225171096017"><ele>203.2</ele><time>2026-05-03T08:02:24.974Z</time></trkpt><trkpt lat="46.171384087010146" lon="9.432293926009288"><ele>203.4</ele><time>2026-05-03T08:02:25.974Z</time></trkpt><trkpt lat="46.17132100452239" lon="9.43230047119773"><ele>203.6</ele><time>2026-05-03T08:02:28.974Z</time></trkpt><trkpt lat="46.17121660637291" lon="9.432272490446351"><ele>203.79999999999998</ele><time>2026-05-03T08:02:30.974Z</time></trkpt><trkpt lat="46.17112183524143" lon="9.43233226453236"><ele>204.0</ele><time>2026-05-03T08:02:32.973Z</time></trkpt><trkpt lat="46.1711509052844" lon="9.432496279389452"><ele>204.0</ele><time>2026-05-03T08:02:34.973Z</time></trkpt><trkpt lat="46.17121048123837" lon="9.43254063709131"><ele>204.0</ele><time>2026-05-03T08:02:35.974Z</time></trkpt><trkpt lat="46.171296221213005" lon="9.432538104992643"><ele>204.0</ele><time>2026-05-03T08:02:36.974Z</time></trkpt><trkpt lat="46.171391302821235" lon="9.4325587591196"><ele>204.0</ele><time>2026-05-03T08:02:37.974Z</time></trkpt><trkpt lat="46.17147084947715" lon="9.432617979672083"><ele>204.0</ele><time>2026-05-03T08:02:38.974Z</time></trkpt><trkpt lat="46.171565050616756" lon="9.432749555411258"><ele>203.25</ele><time>2026-05-03T08:02:39.974Z</time></trkpt><trkpt lat="46.17164719302589" lon="9.432868913619274"><ele>202.5</ele><time>2026-05-03T08:02:40.974Z</time></trkpt><trkpt lat="46.171743663689874" lon="9.432979718304527"><ele>201.75</ele><time>2026-05-03T08:02:41.974Z</time></trkpt><trkpt lat="46.171842175970106" lon="9.43308996209815"><ele>201.0</ele><time>2026-05-03T08:02:42.974Z</time></trkpt><trkpt lat="46.17195908135434" lon="9.4331942713692"><ele>201.0</ele><time>2026-05-03T08:02:43.974Z</time></trkpt><trkpt lat="46.17209942855342" lon="9.433286539123833"><ele>201.0</ele><time>2026-05-03T08:02:44.974Z</time></trkpt><trkpt lat="46.17224515513577" lon="9.433359984731075"><ele>201.0</ele><time>2026-05-03T08:02:45.974Z</time></trkpt><trkpt lat="46.17239272152275" lon="9.433421116364821"><ele>200.66666666666669</ele><time>2026-05-03T08:02:46.974Z</time></trkpt><trkpt lat="46.1725469976825" lon="9.433486541148717"><ele>200.33333333333334</ele><time>2026-05-03T08:02:47.974Z</time></trkpt><trkpt lat="46.17270502640974" lon="9.433555210538755"><ele>200.0</ele><time>2026-05-03T08:02:48.974Z</time></trkpt><trkpt lat="46.172869612169826" lon="9.433622184969062"><ele>200.0</ele><time>2026-05-03T08:02:49.974Z</time></trkpt><trkpt lat="46.17303858480572" lon="9.433695954688055"><ele>200.0</ele><time>2026-05-03T08:02:50.974Z</time></trkpt><trkpt lat="46.17321044967905" lon="9.43376838480821"><ele>200.0</ele><time>2026-05-03T08:02:51.974Z</time></trkpt><trkpt lat="46.173378801395074" lon="9.433849701542217"><ele>200.33333333333334</ele><time>2026-05-03T08:02:52.974Z</time></trkpt><trkpt lat="46.17355390855042" lon="9.433926305419332"><ele>200.66666666666669</ele><time>2026-05-03T08:02:53.974Z</time></trkpt><trkpt lat="46.17372554321508" lon="9.434001245229103"><ele>201.0</ele><time>2026-05-03T08:02:54.974Z</time></trkpt><trkpt lat="46.173890095107126" lon="9.43406877251494"><ele>200.33333333333331</ele><time>2026-05-03T08:02:55.974Z</time></trkpt><trkpt lat="46.174058974769785" lon="9.434142403924866"><ele>199.66666666666666</ele><time>2026-05-03T08:02:56.974Z</time></trkpt><trkpt lat="46.174226889121606" lon="9.434218719160722"><ele>199.0</ele><time>2026-05-03T08:02:57.974Z</time></trkpt><trkpt lat="46.1743950141377" lon="9.434295380820533"><ele>199.0</ele><time>2026-05-03T08:02:58.974Z</time></trkpt><trkpt lat="46.17456158349265" lon="9.434378182692246"><ele>199.0</ele><time>2026-05-03T08:02:59.974Z</time></trkpt><trkpt lat="46.17472651717201" lon="9.43446114568334"><ele>199.0</ele><time>2026-05-03T08:03:00.974Z</time></trkpt><trkpt lat="46.174887519766386" lon="9.434560235398282"><ele>200.33333333333331</ele><time>2026-05-03T08:03:01.974Z</time></trkpt><trkpt lat="46.17504680742027" lon="9.43467987090356"><ele>201.66666666666669</ele><time>2026-05-03T08:03:02.974Z</time></trkpt><trkpt lat="46.17521072049125" lon="9.434796657735994"><ele>203.0</ele><time>2026-05-03T08:03:03.974Z</time></trkpt><trkpt lat="46.17537237767258" lon="9.434934747550814"><ele>203.0</ele><time>2026-05-03T08:03:04.974Z</time></trkpt><trkpt lat="46.17553108144318" lon="9.435083172452908"><ele>203.0</ele><time>2026-05-03T08:03:05.974Z</time></trkpt><trkpt lat="46.17569042919329" lon="9.43523938656631"><ele>203.0</ele><time>2026-05-03T08:03:06.974Z</time></trkpt><trkpt lat="46.17585108485929" lon="9.435400484545427"><ele>202.33333333333334</ele><time>2026-05-03T08:03:07.974Z</time></trkpt><trkpt lat="46.17601356583909" lon="9.435563170250214"><ele>201.66666666666669</ele><time>2026-05-03T08:03:08.974Z</time></trkpt><trkpt lat="46.176178278518556" lon="9.435726619093622"><ele>201.0</ele><time>2026-05-03T08:03:09.974Z</time></trkpt><trkpt lat="46.17634281546296" lon="9.43589159620138"><ele>201.0</ele><time>2026-05-03T08:03:10.974Z</time></trkpt><trkpt lat="46.17650816835889" lon="9.436057158704704"><ele>201.0</ele><time>2026-05-03T08:03:11.974Z</time></trkpt><trkpt lat="46.17667223552837" lon="9.436220253551065"><ele>201.0</ele><time>2026-05-03T08:03:12.974Z</time></trkpt><trkpt lat="46.1768333083997" lon="9.436382847113313"><ele>201.0</ele><time>2026-05-03T08:03:13.974Z</time></trkpt><trkpt lat="46.17699623965555" lon="9.43654802971945"><ele>201.0</ele><time>2026-05-03T08:03:14.974Z</time></trkpt><trkpt lat="46.177153883975606" lon="9.436709534770781"><ele>201.0</ele><time>2026-05-03T08:03:15.974Z</time></trkpt><trkpt lat="46.17731500004041" lon="9.436874008796778"><ele>201.0</ele><time>2026-05-03T08:03:16.974Z</time></trkpt><trkpt lat="46.17747379590309" lon="9.437027564662277"><ele>201.0</ele><time>2026-05-03T08:03:17.974Z</time></trkpt><trkpt lat="46.1776333053537" lon="9.437193519735361"><ele>201.0</ele><time>2026-05-03T08:03:18.974Z</time></trkpt><trkpt lat="46.177789513671804" lon="9.437348035235267"><ele>200.33333333333331</ele><time>2026-05-03T08:03:19.974Z</time></trkpt><trkpt lat="46.17794558866149" lon="9.43750609456023"><ele>199.66666666666666</ele><time>2026-05-03T08:03:20.974Z</time></trkpt><trkpt lat="46.17810205093257" lon="9.437662200028385"><ele>199.0</ele><time>2026-05-03T08:03:21.974Z</time></trkpt><trkpt lat="46.17826142751158" lon="9.437824417765569"><ele>200.0</ele><time>2026-05-03T08:03:22.974Z</time></trkpt><trkpt lat="46.17842445053659" lon="9.43799039839351"><ele>201.0</ele><time>2026-05-03T08:03:23.974Z</time></trkpt><trkpt lat="46.17859333897068" lon="9.43815536847667"><ele>202.0</ele><time>2026-05-03T08:03:24.974Z</time></trkpt><trkpt lat="46.178760047451576" lon="9.438321302005084"><ele>202.0</ele><time>2026-05-03T08:03:25.974Z</time></trkpt><trkpt lat="46.178930826546285" lon="9.438490002296573"><ele>202.0</ele><time>2026-05-03T08:03:26.974Z</time></trkpt><trkpt lat="46.17910148336864" lon="9.438661322838696"><ele>202.0</ele><time>2026-05-03T08:03:27.974Z</time></trkpt><trkpt lat="46.179273707141874" lon="9.43883789662609"><ele>201.66666666666666</ele><time>2026-05-03T08:03:28.974Z</time></trkpt><trkpt lat="46.17944768646829" lon="9.439006594494638"><ele>201.33333333333331</ele><time>2026-05-03T08:03:29.974Z</time></trkpt><trkpt lat="46.17962047407307" lon="9.439176381027748"><ele>201.0</ele><time>2026-05-03T08:03:30.974Z</time></trkpt><trkpt lat="46.17978759469015" lon="9.439345694231823"><ele>200.66666666666669</ele><time>2026-05-03T08:03:31.974Z</time></trkpt><trkpt lat="46.179952371495574" lon="9.439509486669772"><ele>200.33333333333334</ele><time>2026-05-03T08:03:32.974Z</time></trkpt><trkpt lat="46.18011447018768" lon="9.439672736602326"><ele>200.0</ele><time>2026-05-03T08:03:33.974Z</time></trkpt><trkpt lat="46.1802720429101" lon="9.439832634764583"><ele>200.0</ele><time>2026-05-03T08:03:34.974Z</time></trkpt><trkpt lat="46.18042852525773" lon="9.439988996742212"><ele>200.0</ele><time>2026-05-03T08:03:35.974Z</time></trkpt><trkpt lat="46.18058843833482" lon="9.440153206571049"><ele>200.0</ele><time>2026-05-03T08:03:36.974Z</time></trkpt><trkpt lat="46.180745903544945" lon="9.440313432867915"><ele>201.0</ele><time>2026-05-03T08:03:37.974Z</time></trkpt><trkpt lat="46.180898975263794" lon="9.440469576404436"><ele>202.0</ele><time>2026-05-03T08:03:38.974Z</time></trkpt><trkpt lat="46.181050409606506" lon="9.440616228687006"><ele>203.0</ele><time>2026-05-03T08:03:39.974Z</time></trkpt><trkpt lat="46.18119984609444" lon="9.440765824179122"><ele>203.0</ele><time>2026-05-03T08:03:40.974Z</time></trkpt><trkpt lat="46.181347434819266" lon="9.440917063613698"><ele>203.0</ele><time>2026-05-03T08:03:41.974Z</time></trkpt><trkpt lat="46.18149482968101" lon="9.441068362668057"><ele>203.0</ele><time>2026-05-03T08:03:42.974Z</time></trkpt><trkpt lat="46.18162550257408" lon="9.441205473318956"><ele>202.25</ele><time>2026-05-03T08:03:43.974Z</time></trkpt><trkpt lat="46.181748591234566" lon="9.441327288765565"><ele>201.5</ele><time>2026-05-03T08:03:44.974Z</time></trkpt><trkpt lat="46.18187046624745" lon="9.441445387729994"><ele>200.75</ele><time>2026-05-03T08:03:45.974Z</time></trkpt><trkpt lat="46.18199529938818" lon="9.441569722149039"><ele>200.0</ele><time>2026-05-03T08:03:46.974Z</time></trkpt><trkpt lat="46.1821225755162" lon="9.441698197384431"><ele>200.0</ele><time>2026-05-03T08:03:47.974Z</time></trkpt><trkpt lat="46.18225275545272" lon="9.441825953026838"><ele>200.0</ele><time>2026-05-03T08:03:48.974Z</time></trkpt><trkpt lat="46.1823858338973" lon="9.441956191467588"><ele>200.0</ele><time>2026-05-03T08:03:49.974Z</time></trkpt><trkpt lat="46.1825194357714" lon="9.44208866371513"><ele>200.66666666666669</ele><time>2026-05-03T08:03:50.974Z</time></trkpt><trkpt lat="46.182656346282116" lon="9.442229407645796"><ele>201.33333333333331</ele><time>2026-05-03T08:03:51.974Z</time></trkpt><trkpt lat="46.182792351654555" lon="9.442365108287197"><ele>202.0</ele><time>2026-05-03T08:03:52.974Z</time></trkpt><trkpt lat="46.182930762485064" lon="9.44250325204717"><ele>202.0</ele><time>2026-05-03T08:03:53.974Z</time></trkpt><trkpt lat="46.18306806967667" lon="9.442638714694537"><ele>202.0</ele><time>2026-05-03T08:03:54.974Z</time></trkpt><trkpt lat="46.18320025741999" lon="9.442771897035971"><ele>202.0</ele><time>2026-05-03T08:03:55.974Z</time></trkpt><trkpt lat="46.18332667300147" lon="9.442899575917581"><ele>201.33333333333331</ele><time>2026-05-03T08:03:56.974Z</time></trkpt><trkpt lat="46.18345602594574" lon="9.443024716058282"><ele>200.66666666666669</ele><time>2026-05-03T08:03:57.974Z</time></trkpt><trkpt lat="46.18358997330997" lon="9.44314747735819"><ele>200.0</ele><time>2026-05-03T08:03:58.974Z</time></trkpt><trkpt lat="46.18373236090518" lon="9.443267233238771"><ele>200.0</ele><time>2026-05-03T08:03:59.974Z</time></trkpt><trkpt lat="46.18388025988509" lon="9.44338509670709"><ele>200.0</ele><time>2026-05-03T08:04:00.974Z</time></trkpt><trkpt lat="46.1840303292442" lon="9.44349546772359"><ele>200.0</ele><time>2026-05-03T08:04:01.974Z</time></trkpt><trkpt lat="46.184177316322014" lon="9.443597467028152"><ele>199.75</ele><time>2026-05-03T08:04:02.974Z</time></trkpt><trkpt lat="46.18431762225271" lon="9.443688724851691"><ele>199.5</ele><time>2026-05-03T08:04:03.974Z</time></trkpt><trkpt lat="46.18445338402556" lon="9.443766747074582"><ele>199.25</ele><time>2026-05-03T08:04:04.974Z</time></trkpt><trkpt lat="46.18458128992699" lon="9.44382812641831"><ele>199.0</ele><time>2026-05-03T08:04:05.974Z</time></trkpt><trkpt lat="46.18471762316591" lon="9.443887347134755"><ele>201.66666666666666</ele><time>2026-05-03T08:04:06.974Z</time></trkpt><trkpt lat="46.184859034094615" lon="9.443940229406817"><ele>204.33333333333331</ele><time>2026-05-03T08:04:07.974Z</time></trkpt><trkpt lat="46.18500719336957" lon="9.44399662278718"><ele>207.0</ele><time>2026-05-03T08:04:08.974Z</time></trkpt><trkpt lat="46.185154933541966" lon="9.44404920163107"><ele>207.0</ele><time>2026-05-03T08:04:09.974Z</time></trkpt><trkpt lat="46.18530204635229" lon="9.444091431209806"><ele>207.0</ele><time>2026-05-03T08:04:10.974Z</time></trkpt><trkpt lat="46.18544943622881" lon="9.444125414659835"><ele>207.0</ele><time>2026-05-03T08:04:11.974Z</time></trkpt><trkpt lat="46.185593684330414" lon="9.44415730671955"><ele>207.0</ele><time>2026-05-03T08:04:12.974Z</time></trkpt><trkpt lat="46.18572870804523" lon="9.444182568645193"><ele>207.25</ele><time>2026-05-03T08:04:13.974Z</time></trkpt><trkpt lat="46.18586014408532" lon="9.444207902590621"><ele>207.5</ele><time>2026-05-03T08:04:14.974Z</time></trkpt><trkpt lat="46.18599410965685" lon="9.44423930017882"><ele>207.75</ele><time>2026-05-03T08:04:15.974Z</time></trkpt><trkpt lat="46.18613167980178" lon="9.444270595663916"><ele>208.0</ele><time>2026-05-03T08:04:16.974Z</time></trkpt><trkpt lat="46.18627373652127" lon="9.444295916982083"><ele>208.0</ele><time>2026-05-03T08:04:17.974Z</time></trkpt><trkpt lat="46.18641463961415" lon="9.444328958238266"><ele>208.0</ele><time>2026-05-03T08:04:18.974Z</time></trkpt><trkpt lat="46.186546810036674" lon="9.444368231441883"><ele>208.0</ele><time>2026-05-03T08:04:19.974Z</time></trkpt><trkpt lat="46.18667609587488" lon="9.44440262650728"><ele>208.0</ele><time>2026-05-03T08:04:20.974Z</time></trkpt><trkpt lat="46.18681027289344" lon="9.444446895849673"><ele>207.25</ele><time>2026-05-03T08:04:21.974Z</time></trkpt><trkpt lat="46.18694116808387" lon="9.444507442130702"><ele>206.5</ele><time>2026-05-03T08:04:22.974Z</time></trkpt><trkpt lat="46.187073101161516" lon="9.444578750660522"><ele>205.75</ele><time>2026-05-03T08:04:23.974Z</time></trkpt><trkpt lat="46.18719945152051" lon="9.444660129829325"><ele>205.0</ele><time>2026-05-03T08:04:24.974Z</time></trkpt><trkpt lat="46.18732415015405" lon="9.444752410865435"><ele>208.75</ele><time>2026-05-03T08:04:25.974Z</time></trkpt><trkpt lat="46.1874485840346" lon="9.444851819277357"><ele>212.5</ele><time>2026-05-03T08:04:26.974Z</time></trkpt><trkpt lat="46.18756215435325" lon="9.444942697591872"><ele>216.25</ele><time>2026-05-03T08:04:27.974Z</time></trkpt><trkpt lat="46.18766927491978" lon="9.445046670095952"><ele>220.0</ele><time>2026-05-03T08:04:28.974Z</time></trkpt><trkpt lat="46.1877738049366" lon="9.445143876909249"><ele>220.0</ele><time>2026-05-03T08:04:29.974Z</time></trkpt><trkpt lat="46.18788171212014" lon="9.44525384816142"><ele>220.0</ele><time>2026-05-03T08:04:30.974Z</time></trkpt><trkpt lat="46.18798186495788" lon="9.445381375900109"><ele>220.0</ele><time>2026-05-03T08:04:31.972Z</time></trkpt><trkpt lat="46.18807474082177" lon="9.445534730501802"><ele>220.0</ele><time>2026-05-03T08:04:32.972Z</time></trkpt><trkpt lat="46.18815304642637" lon="9.445725052170168"><ele>219.75</ele><time>2026-05-03T08:04:33.972Z</time></trkpt><trkpt lat="46.18823337513403" lon="9.445897915170182"><ele>219.5</ele><time>2026-05-03T08:04:34.971Z</time></trkpt><trkpt lat="46.18832094651036" lon="9.446053273089973"><ele>219.25</ele><time>2026-05-03T08:04:35.972Z</time></trkpt><trkpt lat="46.18841229216178" lon="9.446203526129889"><ele>219.0</ele><time>2026-05-03T08:04:36.972Z</time></trkpt><trkpt lat="46.18849275816091" lon="9.446368023101675"><ele>228.25</ele><time>2026-05-03T08:04:37.972Z</time></trkpt><trkpt lat="46.18857723180396" lon="9.446527276141023"><ele>237.5</ele><time>2026-05-03T08:04:38.972Z</time></trkpt><trkpt lat="46.188657313059586" lon="9.44669931871773"><ele>246.75</ele><time>2026-05-03T08:04:39.972Z</time></trkpt><trkpt lat="46.18874482722933" lon="9.446872400887084"><ele>256.0</ele><time>2026-05-03T08:04:40.971Z</time></trkpt><trkpt lat="46.18884639488806" lon="9.44704045513434"><ele>250.66666666666666</ele><time>2026-05-03T08:04:41.971Z</time></trkpt><trkpt lat="46.18893708310372" lon="9.44722068982517"><ele>245.33333333333331</ele><time>2026-05-03T08:04:42.971Z</time></trkpt><trkpt lat="46.18902397475657" lon="9.447391695528252"><ele>240.0</ele><time>2026-05-03T08:04:43.971Z</time></trkpt><trkpt lat="46.18912028618223" lon="9.447565110835775"><ele>240.0</ele><time>2026-05-03T08:04:44.972Z</time></trkpt><trkpt lat="46.18923670489072" lon="9.447756171911404"><ele>240.0</ele><time>2026-05-03T08:04:46.11Z</time></trkpt><trkpt lat="46.189344942590715" lon="9.447914204437538"><ele>240.0</ele><time>2026-05-03T08:04:47.109Z</time></trkpt><trkpt lat="46.190593260369894" lon="9.449046326582213"><ele>266.0</ele><time>2026-05-03T08:04:50.434Z</time></trkpt><trkpt lat="46.191016361679445" lon="9.449273650371387"><ele>266.0</ele><time>2026-05-03T08:04:51.438Z</time></trkpt><trkpt lat="46.19143787401386" lon="9.449499366694374"><ele>282.0</ele><time>2026-05-03T08:04:52.438Z</time></trkpt><trkpt lat="46.19185957728504" lon="9.449725185262398"><ele>282.0</ele><time>2026-05-03T08:04:53.438Z</time></trkpt><trkpt lat="46.19228116128985" lon="9.44995093996428"><ele>253.0</ele><time>2026-05-03T08:04:54.438Z</time></trkpt><trkpt lat="46.192702379238035" lon="9.450178217795097"><ele>253.0</ele><time>2026-05-03T08:04:55.438Z</time></trkpt><trkpt lat="46.19312240202269" lon="9.450403747034299"><ele>253.0</ele><time>2026-05-03T08:04:56.434Z</time></trkpt><trkpt lat="46.19355258919411" lon="9.450598391697413"><ele>261.0</ele><time>2026-05-03T08:04:57.437Z</time></trkpt><trkpt lat="46.193993457114274" lon="9.450722696487786"><ele>269.0</ele><time>2026-05-03T08:04:58.437Z</time></trkpt><trkpt lat="46.194441877871114" lon="9.450778067577755"><ele>203.0</ele><time>2026-05-03T08:04:59.438Z</time></trkpt><trkpt lat="46.19493354532584" lon="9.450867917148733"><ele>203.0</ele><time>2026-05-03T08:05:27.972Z</time></trkpt><trkpt lat="46.19492803459397" lon="9.450998834598481"><ele>203.0</ele><time>2026-05-03T08:05:28.972Z</time></trkpt><trkpt lat="46.19515855846155" lon="9.451010141368343"><ele>203.0</ele><time>2026-05-03T08:05:29.972Z</time></trkpt><trkpt lat="46.19537638619094" lon="9.45106421848714"><ele>203.0</ele><time>2026-05-03T08:05:30.972Z</time></trkpt><trkpt lat="46.195542209367545" lon="9.451141586148378"><ele>203.0</ele><time>2026-05-03T08:05:31.972Z</time></trkpt><trkpt lat="46.19565823920279" lon="9.451219366966363"><ele>203.0</ele><time>2026-05-03T08:05:32.972Z</time></trkpt><trkpt lat="46.19576801377234" lon="9.45128647498017"><ele>203.0</ele><time>2026-05-03T08:05:33.972Z</time></trkpt><trkpt lat="46.195873378854664" lon="9.451342763584327"><ele>203.0</ele><time>2026-05-03T08:05:34.972Z</time></trkpt><trkpt lat="46.19598606264875" lon="9.45139081827006"><ele>203.0</ele><time>2026-05-03T08:05:35.971Z</time></trkpt><trkpt lat="46.1961065570736" lon="9.451431296784287"><ele>203.0</ele><time>2026-05-03T08:05:36.971Z</time></trkpt><trkpt lat="46.19623269004383" lon="9.45146485035302"><ele>203.0</ele><time>2026-05-03T08:05:37.971Z</time></trkpt><trkpt lat="46.19636042825607" lon="9.451493888447148"><ele>203.0</ele><time>2026-05-03T08:05:38.971Z</time></trkpt><trkpt lat="46.196484370200714" lon="9.45151747119737"><ele>203.0</ele><time>2026-05-03T08:05:39.971Z</time></trkpt><trkpt lat="46.19660636994837" lon="9.451528392530735"><ele>203.0</ele><time>2026-05-03T08:05:40.971Z</time></trkpt><trkpt lat="46.19672008809263" lon="9.451527209628587"><ele>203.0</ele><time>2026-05-03T08:05:41.971Z</time></trkpt><trkpt lat="46.19683068005491" lon="9.451518638792317"><ele>203.0</ele><time>2026-05-03T08:05:42.971Z</time></trkpt><trkpt lat="46.19694634733085" lon="9.451509582343819"><ele>203.0</ele><time>2026-05-03T08:05:43.971Z</time></trkpt><trkpt lat="46.19706424084436" lon="9.45150670922989"><ele>203.0</ele><time>2026-05-03T08:05:44.971Z</time></trkpt><trkpt lat="46.19718242982399" lon="9.451501918712442"><ele>203.0</ele><time>2026-05-03T08:05:45.971Z</time></trkpt><trkpt lat="46.197306963314304" lon="9.451494917341472"><ele>203.5</ele><time>2026-05-03T08:05:46.971Z</time></trkpt><trkpt lat="46.197434446104864" lon="9.451485535856502"><ele>204.0</ele><time>2026-05-03T08:05:47.971Z</time></trkpt><trkpt lat="46.1975662377851" lon="9.451476947486972"><ele>204.5</ele><time>2026-05-03T08:05:48.971Z</time></trkpt><trkpt lat="46.19770771323552" lon="9.451476004602096"><ele>205.0</ele><time>2026-05-03T08:05:49.971Z</time></trkpt><trkpt lat="46.19784957347659" lon="9.451476325569681"><ele>205.0</ele><time>2026-05-03T08:05:50.971Z</time></trkpt><trkpt lat="46.19798470171719" lon="9.451472291989454"><ele>205.0</ele><time>2026-05-03T08:05:51.971Z</time></trkpt><trkpt lat="46.1981196743646" lon="9.451470233617503"><ele>205.0</ele><time>2026-05-03T08:05:52.971Z</time></trkpt><trkpt lat="46.19825885087355" lon="9.451470676783392"><ele>205.0</ele><time>2026-05-03T08:05:53.971Z</time></trkpt><trkpt lat="46.19839196835667" lon="9.451476567924217"><ele>205.25</ele><time>2026-05-03T08:05:54.971Z</time></trkpt><trkpt lat="46.1985225472686" lon="9.45149393776948"><ele>205.5</ele><time>2026-05-03T08:05:55.971Z</time></trkpt><trkpt lat="46.19865399874712" lon="9.451518020074216"><ele>205.75</ele><time>2026-05-03T08:05:56.971Z</time></trkpt><trkpt lat="46.1987871530472" lon="9.451552570289396"><ele>206.0</ele><time>2026-05-03T08:05:57.971Z</time></trkpt><trkpt lat="46.19891944541721" lon="9.451590182401741"><ele>206.0</ele><time>2026-05-03T08:05:58.971Z</time></trkpt><trkpt lat="46.1990552167144" lon="9.451637696403374"><ele>206.0</ele><time>2026-05-03T08:05:59.971Z</time></trkpt><trkpt lat="46.19919526178726" lon="9.451698081200087"><ele>206.0</ele><time>2026-05-03T08:06:00.971Z</time></trkpt><trkpt lat="46.1993350195603" lon="9.451767567382502"><ele>206.0</ele><time>2026-05-03T08:06:01.971Z</time></trkpt><trkpt lat="46.199459357111664" lon="9.451840473362001"><ele>206.0</ele><time>2026-05-03T08:06:02.971Z</time></trkpt><trkpt lat="46.199577163294514" lon="9.451910277980609"><ele>206.0</ele><time>2026-05-03T08:06:03.971Z</time></trkpt><trkpt lat="46.19969270407743" lon="9.451971122844355"><ele>206.0</ele><time>2026-05-03T08:06:04.971Z</time></trkpt><trkpt lat="46.19980655021916" lon="9.452032016761848"><ele>206.0</ele><time>2026-05-03T08:06:05.971Z</time></trkpt><trkpt lat="46.19992154714483" lon="9.452099339852898"><ele>205.75</ele><time>2026-05-03T08:06:06.971Z</time></trkpt><trkpt lat="46.20003682449436" lon="9.452174462528383"><ele>205.5</ele><time>2026-05-03T08:06:07.971Z</time></trkpt><trkpt lat="46.200148132333105" lon="9.452259748785716"><ele>205.25</ele><time>2026-05-03T08:06:08.971Z</time></trkpt><trkpt lat="46.20025036815583" lon="9.45235427217053"><ele>205.0</ele><time>2026-05-03T08:06:09.971Z</time></trkpt><trkpt lat="46.20035191242978" lon="9.452452728948643"><ele>205.0</ele><time>2026-05-03T08:06:10.971Z</time></trkpt><trkpt lat="46.20045230942387" lon="9.452556606904064"><ele>205.0</ele><time>2026-05-03T08:06:11.971Z</time></trkpt><trkpt lat="46.200552608765314" lon="9.452672681870936"><ele>205.0</ele><time>2026-05-03T08:06:12.971Z</time></trkpt><trkpt lat="46.200649417817125" lon="9.452796289781562"><ele>205.0</ele><time>2026-05-03T08:06:13.971Z</time></trkpt><trkpt lat="46.20074419355728" lon="9.452928682091851"><ele>205.25</ele><time>2026-05-03T08:06:14.971Z</time></trkpt><trkpt lat="46.20083634269986" lon="9.453066831159601"><ele>205.5</ele><time>2026-05-03T08:06:15.971Z</time></trkpt><trkpt lat="46.20092279098257" lon="9.453213292979926"><ele>205.75</ele><time>2026-05-03T08:06:16.971Z</time></trkpt><trkpt lat="46.20099865778094" lon="9.453364461076122"><ele>206.0</ele><time>2026-05-03T08:06:17.971Z</time></trkpt><trkpt lat="46.20106593716572" lon="9.453521019601554"><ele>206.0</ele><time>2026-05-03T08:06:18.971Z</time></trkpt><trkpt lat="46.20112987889313" lon="9.453681109385025"><ele>206.0</ele><time>2026-05-03T08:06:19.971Z</time></trkpt><trkpt lat="46.20118934119567" lon="9.453846755247957"><ele>206.0</ele><time>2026-05-03T08:06:20.971Z</time></trkpt><trkpt lat="46.201247503077" lon="9.454008107112575"><ele>206.0</ele><time>2026-05-03T08:06:21.971Z</time></trkpt><trkpt lat="46.20130428900658" lon="9.454165849906596"><ele>206.0</ele><time>2026-05-03T08:06:22.971Z</time></trkpt><trkpt lat="46.201359581064196" lon="9.454322416895193"><ele>206.0</ele><time>2026-05-03T08:06:23.971Z</time></trkpt><trkpt lat="46.201422079015785" lon="9.454487442345256"><ele>206.0</ele><time>2026-05-03T08:06:24.971Z</time></trkpt><trkpt lat="46.20148572658605" lon="9.454659039421157"><ele>206.0</ele><time>2026-05-03T08:06:25.971Z</time></trkpt><trkpt lat="46.20154802555999" lon="9.45483882145749"><ele>205.75</ele><time>2026-05-03T08:06:26.971Z</time></trkpt><trkpt lat="46.201606575519385" lon="9.455028766894603"><ele>205.5</ele><time>2026-05-03T08:06:27.971Z</time></trkpt><trkpt lat="46.2016573817129" lon="9.455225953015303"><ele>205.25</ele><time>2026-05-03T08:06:28.971Z</time></trkpt><trkpt lat="46.20170797857776" lon="9.45542083547792"><ele>205.0</ele><time>2026-05-03T08:06:29.971Z</time></trkpt><trkpt lat="46.20175186295253" lon="9.455603416023191"><ele>205.0</ele><time>2026-05-03T08:06:30.971Z</time></trkpt><trkpt lat="46.201793535096556" lon="9.455776563682866"><ele>205.0</ele><time>2026-05-03T08:06:31.971Z</time></trkpt><trkpt lat="46.20183277322862" lon="9.455938747432572"><ele>205.0</ele><time>2026-05-03T08:06:32.971Z</time></trkpt><trkpt lat="46.201869711895704" lon="9.456093426824301"><ele>205.0</ele><time>2026-05-03T08:06:33.971Z</time></trkpt><trkpt lat="46.20190562475375" lon="9.456244648162246"><ele>205.5</ele><time>2026-05-03T08:06:34.971Z</time></trkpt><trkpt lat="46.20194264689515" lon="9.456397509501098"><ele>206.0</ele><time>2026-05-03T08:06:35.971Z</time></trkpt><trkpt lat="46.201983029547165" lon="9.456562340188476"><ele>206.5</ele><time>2026-05-03T08:06:36.971Z</time></trkpt><trkpt lat="46.20202624120398" lon="9.45673369973881"><ele>207.0</ele><time>2026-05-03T08:06:37.97Z</time></trkpt><trkpt lat="46.202070639215805" lon="9.456913754111158"><ele>207.0</ele><time>2026-05-03T08:06:38.97Z</time></trkpt><trkpt lat="46.202116168595104" lon="9.457097383639269"><ele>207.0</ele><time>2026-05-03T08:06:39.97Z</time></trkpt><trkpt lat="46.2021616971894" lon="9.457280516952798"><ele>207.0</ele><time>2026-05-03T08:06:40.97Z</time></trkpt><trkpt lat="46.20220736730733" lon="9.457459580281997"><ele>207.0</ele><time>2026-05-03T08:06:41.97Z</time></trkpt><trkpt lat="46.202253599816906" lon="9.457639334740806"><ele>207.0</ele><time>2026-05-03T08:06:42.97Z</time></trkpt><trkpt lat="46.202300045586384" lon="9.457824089591401"><ele>207.0</ele><time>2026-05-03T08:06:43.971Z</time></trkpt><trkpt lat="46.202343696947246" lon="9.458008798054053"><ele>207.0</ele><time>2026-05-03T08:06:44.97Z</time></trkpt><trkpt lat="46.20238488266293" lon="9.45819379019144"><ele>207.0</ele><time>2026-05-03T08:06:45.97Z</time></trkpt><trkpt lat="46.202425104996045" lon="9.458369719811893"><ele>207.0</ele><time>2026-05-03T08:06:46.97Z</time></trkpt><trkpt lat="46.20246094041679" lon="9.458533942148085"><ele>207.0</ele><time>2026-05-03T08:06:47.97Z</time></trkpt><trkpt lat="46.20249922894721" lon="9.458695801534455"><ele>207.0</ele><time>2026-05-03T08:06:48.97Z</time></trkpt><trkpt lat="46.20254288484774" lon="9.458856978017238"><ele>207.0</ele><time>2026-05-03T08:06:49.97Z</time></trkpt><trkpt lat="46.20258943279357" lon="9.459015597027758"><ele>211.5</ele><time>2026-05-03T08:06:50.97Z</time></trkpt><trkpt lat="46.202637704595794" lon="9.459165892775282"><ele>216.0</ele><time>2026-05-03T08:06:51.97Z</time></trkpt><trkpt lat="46.20269983046381" lon="9.45930616320702"><ele>220.5</ele><time>2026-05-03T08:06:52.97Z</time></trkpt><trkpt lat="46.20277232218999" lon="9.459437179521192"><ele>225.0</ele><time>2026-05-03T08:06:53.97Z</time></trkpt><trkpt lat="46.202858499430334" lon="9.459553724009927"><ele>235.75</ele><time>2026-05-03T08:06:54.97Z</time></trkpt><trkpt lat="46.20295555497845" lon="9.459655909949195"><ele>246.5</ele><time>2026-05-03T08:06:55.97Z</time></trkpt><trkpt lat="46.20305794869591" lon="9.459749995848"><ele>257.25</ele><time>2026-05-03T08:06:56.97Z</time></trkpt><trkpt lat="46.203164623455194" lon="9.459841323810238"><ele>268.0</ele><time>2026-05-03T08:06:57.97Z</time></trkpt><trkpt lat="46.20327517680234" lon="9.459932400164123"><ele>268.25</ele><time>2026-05-03T08:06:58.97Z</time></trkpt><trkpt lat="46.20339304353213" lon="9.460034591470386"><ele>268.5</ele><time>2026-05-03T08:07:00.107Z</time></trkpt><trkpt lat="46.203488948118185" lon="9.460125921293457"><ele>268.75</ele><time>2026-05-03T08:07:01.109Z</time></trkpt><trkpt lat="46.20358548174119" lon="9.460217108111234"><ele>269.0</ele><time>2026-05-03T08:07:02.107Z</time></trkpt><trkpt lat="46.20497200668122" lon="9.460969043688584"><ele>281.5</ele><time>2026-05-03T08:07:05.436Z</time></trkpt><trkpt lat="46.205418255459314" lon="9.461046874521516"><ele>294.0</ele><time>2026-05-03T08:07:06.436Z</time></trkpt><trkpt lat="46.20586686269556" lon="9.461037052623478"><ele>294.0</ele><time>2026-05-03T08:07:07.434Z</time></trkpt><trkpt lat="46.206312739238676" lon="9.460940806692335"><ele>261.0</ele><time>2026-05-03T08:07:08.437Z</time></trkpt><trkpt lat="46.2067252" lon="9.460783"><ele>228.0</ele><time>2026-05-03T08:07:09.435Z</time></trkpt><trkpt lat="46.20700735589313" lon="9.460682609366277"><ele>228.0</ele><time>2026-05-03T08:07:27.97Z</time></trkpt><trkpt lat="46.20699002822885" lon="9.460566025241725"><ele>228.0</ele><time>2026-05-03T08:07:28.97Z</time></trkpt><trkpt lat="46.20712421417129" lon="9.46053697610301"><ele>228.0</ele><time>2026-05-03T08:07:29.97Z</time></trkpt><trkpt lat="46.207267318410246" lon="9.460535763741893"><ele>228.0</ele><time>2026-05-03T08:07:30.97Z</time></trkpt><trkpt lat="46.20739964549263" lon="9.460524822810138"><ele>223.75</ele><time>2026-05-03T08:07:31.97Z</time></trkpt><trkpt lat="46.20751589195707" lon="9.460553659118826"><ele>219.5</ele><time>2026-05-03T08:07:32.97Z</time></trkpt><trkpt lat="46.20764182396622" lon="9.460538292906858"><ele>215.25</ele><time>2026-05-03T08:07:33.97Z</time></trkpt><trkpt lat="46.20777041962374" lon="9.460550573313675"><ele>211.0</ele><time>2026-05-03T08:07:34.97Z</time></trkpt><trkpt lat="46.207898109645505" lon="9.460588841710315"><ele>211.0</ele><time>2026-05-03T08:07:35.97Z</time></trkpt><trkpt lat="46.20803119133895" lon="9.46059507144333"><ele>211.0</ele><time>2026-05-03T08:07:36.97Z</time></trkpt><trkpt lat="46.208162482453815" lon="9.460557271257464"><ele>211.0</ele><time>2026-05-03T08:07:37.97Z</time></trkpt><trkpt lat="46.20829332796141" lon="9.46054247940885"><ele>211.0</ele><time>2026-05-03T08:07:38.97Z</time></trkpt><trkpt lat="46.20841120210207" lon="9.460482262394923"><ele>208.75</ele><time>2026-05-03T08:07:39.97Z</time></trkpt><trkpt lat="46.20852316242356" lon="9.460409249884107"><ele>206.5</ele><time>2026-05-03T08:07:40.97Z</time></trkpt><trkpt lat="46.20862472071193" lon="9.460322301778163"><ele>204.25</ele><time>2026-05-03T08:07:41.97Z</time></trkpt><trkpt lat="46.20872273206161" lon="9.460231061795307"><ele>202.0</ele><time>2026-05-03T08:07:42.97Z</time></trkpt><trkpt lat="46.208805663589956" lon="9.460120421152405"><ele>202.0</ele><time>2026-05-03T08:07:43.97Z</time></trkpt><trkpt lat="46.2088955351855" lon="9.460026011455462"><ele>202.0</ele><time>2026-05-03T08:07:44.97Z</time></trkpt><trkpt lat="46.20897824701543" lon="9.459926888828782"><ele>202.0</ele><time>2026-05-03T08:07:45.97Z</time></trkpt><trkpt lat="46.209054376280314" lon="9.45982137673722"><ele>202.0</ele><time>2026-05-03T08:07:46.97Z</time></trkpt><trkpt lat="46.20914455903049" lon="9.459722224214966"><ele>202.0</ele><time>2026-05-03T08:07:47.97Z</time></trkpt><trkpt lat="46.20921966811772" lon="9.459596681789042"><ele>202.25</ele><time>2026-05-03T08:07:48.969Z</time></trkpt><trkpt lat="46.209290165145" lon="9.459464188726528"><ele>202.5</ele><time>2026-05-03T08:07:49.969Z</time></trkpt><trkpt lat="46.20935160496237" lon="9.45933062589186"><ele>202.75</ele><time>2026-05-03T08:07:50.969Z</time></trkpt><trkpt lat="46.209405022759015" lon="9.45918511227672"><ele>203.0</ele><time>2026-05-03T08:07:51.969Z</time></trkpt><trkpt lat="46.209463272587875" lon="9.459040425394958"><ele>203.0</ele><time>2026-05-03T08:07:52.969Z</time></trkpt><trkpt lat="46.20951563617858" lon="9.458905003263135"><ele>203.0</ele><time>2026-05-03T08:07:53.969Z</time></trkpt><trkpt lat="46.209566535480455" lon="9.458773368053036"><ele>203.0</ele><time>2026-05-03T08:07:54.969Z</time></trkpt><trkpt lat="46.209555044939265" lon="9.458582678504953"><ele>203.0</ele><time>2026-05-03T08:07:55.969Z</time></trkpt><trkpt lat="46.20959629366341" lon="9.45843960616637"><ele>202.75</ele><time>2026-05-03T08:07:56.969Z</time></trkpt><trkpt lat="46.20962442727174" lon="9.458276585475547"><ele>202.5</ele><time>2026-05-03T08:07:57.969Z</time></trkpt><trkpt lat="46.20962647883964" lon="9.458092749569646"><ele>202.25</ele><time>2026-05-03T08:07:58.969Z</time></trkpt><trkpt lat="46.20963841810392" lon="9.45789694724568"><ele>202.0</ele><time>2026-05-03T08:07:59.969Z</time></trkpt><trkpt lat="46.20965178627002" lon="9.457701128723329"><ele>201.5</ele><time>2026-05-03T08:08:00.969Z</time></trkpt><trkpt lat="46.209667162587046" lon="9.457502420503625"><ele>201.0</ele><time>2026-05-03T08:08:01.969Z</time></trkpt><trkpt lat="46.20968095711253" lon="9.457322662966659"><ele>200.5</ele><time>2026-05-03T08:08:02.969Z</time></trkpt><trkpt lat="46.209694513826854" lon="9.457152402007567"><ele>200.0</ele><time>2026-05-03T08:08:03.969Z</time></trkpt><trkpt lat="46.2097073680888" lon="9.456991256039311"><ele>200.0</ele><time>2026-05-03T08:08:04.969Z</time></trkpt><trkpt lat="46.20972121168604" lon="9.456840451640476"><ele>200.0</ele><time>2026-05-03T08:08:05.969Z</time></trkpt><trkpt lat="46.209734803352184" lon="9.456695450167231"><ele>200.0</ele><time>2026-05-03T08:08:06.969Z</time></trkpt><trkpt lat="46.20974607103189" lon="9.456548679852746"><ele>200.0</ele><time>2026-05-03T08:08:07.969Z</time></trkpt><trkpt lat="46.209759609542196" lon="9.456396278312614"><ele>200.0</ele><time>2026-05-03T08:08:08.969Z</time></trkpt><trkpt lat="46.20977389770478" lon="9.45623986362783"><ele>200.4</ele><time>2026-05-03T08:08:09.969Z</time></trkpt><trkpt lat="46.20978907344107" lon="9.456080963887986"><ele>200.8</ele><time>2026-05-03T08:08:10.969Z</time></trkpt><trkpt lat="46.209803631656285" lon="9.455923168834106"><ele>201.2</ele><time>2026-05-03T08:08:11.969Z</time></trkpt><trkpt lat="46.2098172445569" lon="9.455765036229664"><ele>201.6</ele><time>2026-05-03T08:08:12.969Z</time></trkpt><trkpt lat="46.209830259908074" lon="9.455602053846109"><ele>202.0</ele><time>2026-05-03T08:08:13.969Z</time></trkpt><trkpt lat="46.20984338593983" lon="9.455435209550576"><ele>203.25</ele><time>2026-05-03T08:08:14.969Z</time></trkpt><trkpt lat="46.20985825120068" lon="9.45526260057235"><ele>204.5</ele><time>2026-05-03T08:08:15.969Z</time></trkpt><trkpt lat="46.20987575694187" lon="9.455085587795407"><ele>205.75</ele><time>2026-05-03T08:08:16.969Z</time></trkpt><trkpt lat="46.209894349046124" lon="9.45490742534601"><ele>207.0</ele><time>2026-05-03T08:08:17.969Z</time></trkpt><trkpt lat="46.20991081355619" lon="9.454724008006032"><ele>207.25</ele><time>2026-05-03T08:08:18.969Z</time></trkpt><trkpt lat="46.2099290718198" lon="9.454537171880181"><ele>207.5</ele><time>2026-05-03T08:08:19.969Z</time></trkpt><trkpt lat="46.209950125796084" lon="9.454344373998937"><ele>207.75</ele><time>2026-05-03T08:08:20.969Z</time></trkpt><trkpt lat="46.20997376104514" lon="9.454149843259897"><ele>208.0</ele><time>2026-05-03T08:08:21.969Z</time></trkpt><trkpt lat="46.21000032451051" lon="9.453959142351117"><ele>207.5</ele><time>2026-05-03T08:08:22.969Z</time></trkpt><trkpt lat="46.21002730422107" lon="9.45376435761797"><ele>207.0</ele><time>2026-05-03T08:08:23.969Z</time></trkpt><trkpt lat="46.21005511258581" lon="9.453566522549712"><ele>206.5</ele><time>2026-05-03T08:08:24.969Z</time></trkpt><trkpt lat="46.210090192730654" lon="9.453366875222969"><ele>206.0</ele><time>2026-05-03T08:08:25.969Z</time></trkpt><trkpt lat="46.210127181640296" lon="9.45316122294232"><ele>206.0</ele><time>2026-05-03T08:08:26.969Z</time></trkpt><trkpt lat="46.210168272659686" lon="9.452966081183193"><ele>206.0</ele><time>2026-05-03T08:08:27.969Z</time></trkpt><trkpt lat="46.21020921739959" lon="9.452776453149662"><ele>206.0</ele><time>2026-05-03T08:08:28.969Z</time></trkpt><trkpt lat="46.21024983295664" lon="9.452588704088358"><ele>206.0</ele><time>2026-05-03T08:08:29.969Z</time></trkpt><trkpt lat="46.21029329911808" lon="9.452403463918197"><ele>205.5</ele><time>2026-05-03T08:08:30.969Z</time></trkpt><trkpt lat="46.210339976149186" lon="9.452223652716073"><ele>205.0</ele><time>2026-05-03T08:08:31.969Z</time></trkpt><trkpt lat="46.210387763569784" lon="9.452040132806577"><ele>204.5</ele><time>2026-05-03T08:08:32.969Z</time></trkpt><trkpt lat="46.210438226307005" lon="9.451859295343166"><ele>204.0</ele><time>2026-05-03T08:08:33.969Z</time></trkpt><trkpt lat="46.210493580817214" lon="9.451678130801215"><ele>204.0</ele><time>2026-05-03T08:08:34.969Z</time></trkpt><trkpt lat="46.21055192833756" lon="9.45150031209432"><ele>204.0</ele><time>2026-05-03T08:08:35.969Z</time></trkpt><trkpt lat="46.210676338546655" lon="9.451136901783812"><ele>204.0</ele><time>2026-05-03T08:08:37.969Z</time></trkpt><trkpt lat="46.21074478975697" lon="9.45093626085713"><ele>204.0</ele><time>2026-05-03T08:08:38.969Z</time></trkpt><trkpt lat="46.21081793639461" lon="9.450720077208812"><ele>204.0</ele><time>2026-05-03T08:08:39.969Z</time></trkpt><trkpt lat="46.21091683400954" lon="9.450506778205014"><ele>204.0</ele><time>2026-05-03T08:08:40.969Z</time></trkpt><trkpt lat="46.21101435484342" lon="9.450249880161303"><ele>203.0</ele><time>2026-05-03T08:08:41.969Z</time></trkpt><trkpt lat="46.21111966041082" lon="9.44998270757954"><ele>202.0</ele><time>2026-05-03T08:08:42.969Z</time></trkpt><trkpt lat="46.21121749993375" lon="9.449717188984549"><ele>201.0</ele><time>2026-05-03T08:08:43.969Z</time></trkpt><trkpt lat="46.211343088383224" lon="9.44950133637722"><ele>200.66666666666669</ele><time>2026-05-03T08:08:44.969Z</time></trkpt><trkpt lat="46.211461758521295" lon="9.449315281479397"><ele>200.33333333333334</ele><time>2026-05-03T08:08:45.969Z</time></trkpt><trkpt lat="46.21157410055074" lon="9.449144823633997"><ele>200.0</ele><time>2026-05-03T08:08:46.968Z</time></trkpt><trkpt lat="46.211681409588515" lon="9.448993219741512"><ele>200.25</ele><time>2026-05-03T08:08:47.969Z</time></trkpt><trkpt lat="46.21178323253081" lon="9.448849503958437"><ele>200.5</ele><time>2026-05-03T08:08:48.969Z</time></trkpt><trkpt lat="46.21188155512556" lon="9.448732330653117"><ele>200.75</ele><time>2026-05-03T08:08:49.969Z</time></trkpt><trkpt lat="46.21197084281258" lon="9.448637610839636"><ele>201.0</ele><time>2026-05-03T08:08:50.968Z</time></trkpt><trkpt lat="46.212048839823765" lon="9.44855232863552"><ele>201.0</ele><time>2026-05-03T08:08:51.968Z</time></trkpt><trkpt lat="46.21211432598451" lon="9.44848458341056"><ele>201.0</ele><time>2026-05-03T08:08:52.969Z</time></trkpt><trkpt lat="46.212207087206025" lon="9.448471950443022"><ele>201.0</ele><time>2026-05-03T08:08:54.968Z</time></trkpt><trkpt lat="46.21229297229856" lon="9.448595931346212"><ele>201.0</ele><time>2026-05-03T08:08:58.969Z</time></trkpt><trkpt lat="46.21235196313233" lon="9.448643131292723"><ele>201.0</ele><time>2026-05-03T08:09:02.969Z</time></trkpt><trkpt lat="46.2124413342135" lon="9.448654449206238"><ele>201.66666666666666</ele><time>2026-05-03T08:12:25.967Z</time></trkpt><trkpt lat="46.21241784054619" lon="9.448554500402507"><ele>202.33333333333331</ele><time>2026-05-03T08:12:37.967Z</time></trkpt><trkpt lat="46.21239917338368" lon="9.448441026284883"><ele>203.0</ele><time>2026-05-03T08:12:39.967Z</time></trkpt><trkpt lat="46.212443874624434" lon="9.448296771837299"><ele>203.66666666666666</ele><time>2026-05-03T08:12:41.967Z</time></trkpt><trkpt lat="46.21251097113427" lon="9.448163102519157"><ele>204.33333333333331</ele><time>2026-05-03T08:12:43.967Z</time></trkpt><trkpt lat="46.2125512657966" lon="9.448088835919132"><ele>205.0</ele><time>2026-05-03T08:12:44.967Z</time></trkpt><trkpt lat="46.21262164427092" lon="9.448003759178041"><ele>204.75</ele><time>2026-05-03T08:12:45.967Z</time></trkpt><trkpt lat="46.21271498111979" lon="9.447918718425328"><ele>204.5</ele><time>2026-05-03T08:12:46.967Z</time></trkpt><trkpt lat="46.21280328774899" lon="9.447833907145947"><ele>204.25</ele><time>2026-05-03T08:12:47.967Z</time></trkpt><trkpt lat="46.212898315578556" lon="9.447739663197776"><ele>204.0</ele><time>2026-05-03T08:12:48.967Z</time></trkpt><trkpt lat="46.213010941023015" lon="9.447641161334227"><ele>204.0</ele><time>2026-05-03T08:12:49.967Z</time></trkpt><trkpt lat="46.21312352638938" lon="9.447541828223319"><ele>204.0</ele><time>2026-05-03T08:12:50.967Z</time></trkpt><trkpt lat="46.21323601103986" lon="9.447452646789833"><ele>204.0</ele><time>2026-05-03T08:12:51.967Z</time></trkpt><trkpt lat="46.213351893275146" lon="9.447369438419855"><ele>204.0</ele><time>2026-05-03T08:12:52.967Z</time></trkpt><trkpt lat="46.21347670218562" lon="9.447301811696223"><ele>204.5</ele><time>2026-05-03T08:12:53.967Z</time></trkpt><trkpt lat="46.213611059459765" lon="9.447253862350705"><ele>205.0</ele><time>2026-05-03T08:12:54.967Z</time></trkpt><trkpt lat="46.213753969022385" lon="9.44720739634021"><ele>205.5</ele><time>2026-05-03T08:12:55.966Z</time></trkpt><trkpt lat="46.21390104672207" lon="9.447166074616744"><ele>206.0</ele><time>2026-05-03T08:12:56.967Z</time></trkpt><trkpt lat="46.21404509726654" lon="9.447133196964447"><ele>205.25</ele><time>2026-05-03T08:12:57.967Z</time></trkpt><trkpt lat="46.21419227757094" lon="9.44711146503543"><ele>204.5</ele><time>2026-05-03T08:12:58.966Z</time></trkpt><trkpt lat="46.21433813961539" lon="9.447087393428962"><ele>203.75</ele><time>2026-05-03T08:12:59.966Z</time></trkpt><trkpt lat="46.214481312611795" lon="9.447065715191655"><ele>203.0</ele><time>2026-05-03T08:13:00.966Z</time></trkpt><trkpt lat="46.21462202009923" lon="9.447044579553417"><ele>203.0</ele><time>2026-05-03T08:13:01.967Z</time></trkpt><trkpt lat="46.214761724375016" lon="9.447030852494718"><ele>203.0</ele><time>2026-05-03T08:13:02.966Z</time></trkpt><trkpt lat="46.21489935599783" lon="9.447027721859758"><ele>203.0</ele><time>2026-05-03T08:13:03.966Z</time></trkpt><trkpt lat="46.215031821714405" lon="9.447038226693994"><ele>203.0</ele><time>2026-05-03T08:13:04.966Z</time></trkpt><trkpt lat="46.215156158327794" lon="9.447063977180752"><ele>203.60000000000002</ele><time>2026-05-03T08:13:05.966Z</time></trkpt><trkpt lat="46.2152668233989" lon="9.447094039288496"><ele>204.20000000000002</ele><time>2026-05-03T08:13:06.966Z</time></trkpt><trkpt lat="46.21536670111318" lon="9.447123476267874"><ele>204.8</ele><time>2026-05-03T08:13:07.966Z</time></trkpt><trkpt lat="46.215456902708354" lon="9.447173802287866"><ele>205.4</ele><time>2026-05-03T08:13:08.967Z</time></trkpt><trkpt lat="46.21552014185464" lon="9.447239439931739"><ele>206.0</ele><time>2026-05-03T08:13:09.967Z</time></trkpt><trkpt lat="46.21557145606245" lon="9.447320018986318"><ele>206.16666666666669</ele><time>2026-05-03T08:13:10.967Z</time></trkpt><trkpt lat="46.2156224692204" lon="9.447400918722616"><ele>206.33333333333334</ele><time>2026-05-03T08:13:11.967Z</time></trkpt><trkpt lat="46.21568843968573" lon="9.447442409366468"><ele>206.5</ele><time>2026-05-03T08:13:12.967Z</time></trkpt><trkpt lat="46.21575635039542" lon="9.447422925760794"><ele>206.66666666666669</ele><time>2026-05-03T08:13:13.967Z</time></trkpt><trkpt lat="46.215821880597346" lon="9.447370737673365"><ele>206.83333333333334</ele><time>2026-05-03T08:13:14.967Z</time></trkpt><trkpt lat="46.215872652515834" lon="9.4472782283319"><ele>207.0</ele><time>2026-05-03T08:13:15.967Z</time></trkpt><trkpt lat="46.215938602225606" lon="9.447196383705506"><ele>206.5</ele><time>2026-05-03T08:13:16.967Z</time></trkpt><trkpt lat="46.21603103882894" lon="9.447158095995986"><ele>206.0</ele><time>2026-05-03T08:13:17.967Z</time></trkpt><trkpt lat="46.21615648366383" lon="9.447153407246274"><ele>205.5</ele><time>2026-05-03T08:13:18.967Z</time></trkpt><trkpt lat="46.21628878993649" lon="9.447152330425942"><ele>205.0</ele><time>2026-05-03T08:13:19.967Z</time></trkpt><trkpt lat="46.21641357837753" lon="9.44712811305815"><ele>205.25</ele><time>2026-05-03T08:13:20.967Z</time></trkpt><trkpt lat="46.21654199178967" lon="9.44708137047274"><ele>205.5</ele><time>2026-05-03T08:13:21.967Z</time></trkpt><trkpt lat="46.21667550036663" lon="9.447018627629053"><ele>205.75</ele><time>2026-05-03T08:13:22.967Z</time></trkpt><trkpt lat="46.21681598911981" lon="9.446945183432598"><ele>206.0</ele><time>2026-05-03T08:13:23.967Z</time></trkpt><trkpt lat="46.21695520194932" lon="9.446864278860591"><ele>206.0</ele><time>2026-05-03T08:13:24.967Z</time></trkpt><trkpt lat="46.21709123921019" lon="9.446782445767438"><ele>206.0</ele><time>2026-05-03T08:13:25.967Z</time></trkpt><trkpt lat="46.21723627574911" lon="9.446710771215423"><ele>206.0</ele><time>2026-05-03T08:13:26.967Z</time></trkpt><trkpt lat="46.217385904868856" lon="9.446654383909898"><ele>207.0</ele><time>2026-05-03T08:13:27.967Z</time></trkpt><trkpt lat="46.21754021557333" lon="9.446614138709196"><ele>208.0</ele><time>2026-05-03T08:13:28.967Z</time></trkpt><trkpt lat="46.217694118832675" lon="9.446592028428864"><ele>209.0</ele><time>2026-05-03T08:13:29.967Z</time></trkpt><trkpt lat="46.217839858117294" lon="9.446574471678185"><ele>209.0</ele><time>2026-05-03T08:13:30.967Z</time></trkpt><trkpt lat="46.21798541408764" lon="9.446555588988492"><ele>209.0</ele><time>2026-05-03T08:13:31.967Z</time></trkpt><trkpt lat="46.21813310484313" lon="9.446534306967807"><ele>209.0</ele><time>2026-05-03T08:13:32.967Z</time></trkpt><trkpt lat="46.218280535522354" lon="9.446513974865292"><ele>209.0</ele><time>2026-05-03T08:13:33.967Z</time></trkpt><trkpt lat="46.21842941048312" lon="9.44649334414069"><ele>207.0</ele><time>2026-05-03T08:13:34.967Z</time></trkpt><trkpt lat="46.218580233535114" lon="9.44647132668765"><ele>205.0</ele><time>2026-05-03T08:13:35.967Z</time></trkpt><trkpt lat="46.21873246574022" lon="9.446451125321193"><ele>203.0</ele><time>2026-05-03T08:13:36.967Z</time></trkpt><trkpt lat="46.21888653709803" lon="9.446430549052732"><ele>203.66666666666669</ele><time>2026-05-03T08:13:37.967Z</time></trkpt><trkpt lat="46.2190390496049" lon="9.446406447116054"><ele>204.33333333333331</ele><time>2026-05-03T08:13:38.967Z</time></trkpt><trkpt lat="46.219191771192236" lon="9.446384593987784"><ele>205.0</ele><time>2026-05-03T08:13:39.967Z</time></trkpt><trkpt lat="46.219348085556796" lon="9.446360842176437"><ele>205.0</ele><time>2026-05-03T08:13:40.967Z</time></trkpt><trkpt lat="46.219508342444875" lon="9.446335689892914"><ele>205.0</ele><time>2026-05-03T08:13:41.967Z</time></trkpt><trkpt lat="46.21966952374545" lon="9.446304129966599"><ele>205.0</ele><time>2026-05-03T08:13:42.967Z</time></trkpt><trkpt lat="46.219828707452514" lon="9.446281642417025"><ele>204.0</ele><time>2026-05-03T08:13:43.967Z</time></trkpt><trkpt lat="46.2199907642207" lon="9.446266345057358"><ele>203.0</ele><time>2026-05-03T08:13:44.967Z</time></trkpt><trkpt lat="46.2201447031503" lon="9.4462410975824"><ele>202.0</ele><time>2026-05-03T08:13:45.967Z</time></trkpt><trkpt lat="46.220293187227306" lon="9.446218162191192"><ele>202.0</ele><time>2026-05-03T08:13:46.967Z</time></trkpt><trkpt lat="46.2204421834326" lon="9.446191419998373"><ele>202.0</ele><time>2026-05-03T08:13:47.967Z</time></trkpt><trkpt lat="46.22058923166767" lon="9.446166433124874"><ele>202.0</ele><time>2026-05-03T08:13:48.966Z</time></trkpt><trkpt lat="46.220737669257694" lon="9.446144747775206"><ele>202.0</ele><time>2026-05-03T08:13:49.966Z</time></trkpt><trkpt lat="46.22088661997103" lon="9.446119210078452"><ele>203.0</ele><time>2026-05-03T08:13:50.966Z</time></trkpt><trkpt lat="46.22103668045857" lon="9.446095887440938"><ele>204.0</ele><time>2026-05-03T08:13:51.966Z</time></trkpt><trkpt lat="46.22119217095125" lon="9.446093866845414"><ele>205.0</ele><time>2026-05-03T08:13:52.966Z</time></trkpt><trkpt lat="46.22135906960655" lon="9.446147952052884"><ele>204.33333333333331</ele><time>2026-05-03T08:13:53.966Z</time></trkpt><trkpt lat="46.22152227442286" lon="9.44617070416037"><ele>203.66666666666669</ele><time>2026-05-03T08:13:54.966Z</time></trkpt><trkpt lat="46.22168396990102" lon="9.446200235202957"><ele>203.0</ele><time>2026-05-03T08:13:55.966Z</time></trkpt><trkpt lat="46.221844570648685" lon="9.446238633767939"><ele>203.0</ele><time>2026-05-03T08:13:56.966Z</time></trkpt><trkpt lat="46.222006097007345" lon="9.44628691175932"><ele>203.0</ele><time>2026-05-03T08:13:57.966Z</time></trkpt><trkpt lat="46.222164315239034" lon="9.446343804823247"><ele>203.0</ele><time>2026-05-03T08:13:58.966Z</time></trkpt><trkpt lat="46.22232102870675" lon="9.446412863616892"><ele>204.33333333333334</ele><time>2026-05-03T08:13:59.966Z</time></trkpt><trkpt lat="46.22248214585783" lon="9.446492078737213"><ele>205.66666666666669</ele><time>2026-05-03T08:14:00.966Z</time></trkpt><trkpt lat="46.22265389989268" lon="9.446577697988825"><ele>207.0</ele><time>2026-05-03T08:14:01.966Z</time></trkpt><trkpt lat="46.222840633162164" lon="9.446665633537659"><ele>207.0</ele><time>2026-05-03T08:14:02.966Z</time></trkpt><trkpt lat="46.223043685390586" lon="9.446770658814696"><ele>207.0</ele><time>2026-05-03T08:14:03.966Z</time></trkpt><trkpt lat="46.22325151711499" lon="9.446886998253877"><ele>207.0</ele><time>2026-05-03T08:14:04.966Z</time></trkpt><trkpt lat="46.22345497868297" lon="9.44700937294682"><ele>207.0</ele><time>2026-05-03T08:14:05.966Z</time></trkpt><trkpt lat="46.22364295912766" lon="9.447114873538483"><ele>207.0</ele><time>2026-05-03T08:14:06.966Z</time></trkpt><trkpt lat="46.22382073285728" lon="9.44721902138477"><ele>207.0</ele><time>2026-05-03T08:14:07.966Z</time></trkpt><trkpt lat="46.223991900595045" lon="9.44731773184542"><ele>207.66666666666669</ele><time>2026-05-03T08:14:08.966Z</time></trkpt><trkpt lat="46.22415941830587" lon="9.447407726316268"><ele>208.33333333333334</ele><time>2026-05-03T08:14:09.966Z</time></trkpt><trkpt lat="46.22432484633115" lon="9.447497184642899"><ele>209.0</ele><time>2026-05-03T08:14:10.966Z</time></trkpt><trkpt lat="46.224491956088684" lon="9.447593123320713"><ele>209.0</ele><time>2026-05-03T08:14:11.966Z</time></trkpt><trkpt lat="46.224662600977005" lon="9.447685766551517"><ele>209.0</ele><time>2026-05-03T08:14:12.966Z</time></trkpt><trkpt lat="46.22483531915703" lon="9.447760763939582"><ele>209.0</ele><time>2026-05-03T08:14:13.966Z</time></trkpt><trkpt lat="46.225020282039125" lon="9.447821801385118"><ele>209.0</ele><time>2026-05-03T08:14:14.966Z</time></trkpt><trkpt lat="46.22520844321729" lon="9.447853159301173"><ele>209.0</ele><time>2026-05-03T08:14:15.966Z</time></trkpt><trkpt lat="46.225397008727406" lon="9.44785873245583"><ele>209.0</ele><time>2026-05-03T08:14:16.966Z</time></trkpt><trkpt lat="46.225576758694295" lon="9.447836824748146"><ele>210.33333333333334</ele><time>2026-05-03T08:14:17.966Z</time></trkpt><trkpt lat="46.225752300167805" lon="9.44779213915135"><ele>211.66666666666669</ele><time>2026-05-03T08:14:18.966Z</time></trkpt><trkpt lat="46.22593285056564" lon="9.447708380155538"><ele>213.0</ele><time>2026-05-03T08:14:19.966Z</time></trkpt><trkpt lat="46.22612304792253" lon="9.44758048727419"><ele>213.0</ele><time>2026-05-03T08:14:20.966Z</time></trkpt><trkpt lat="46.226320337930005" lon="9.447431763287753"><ele>213.0</ele><time>2026-05-03T08:14:21.966Z</time></trkpt><trkpt lat="46.22652696752855" lon="9.447266346598829"><ele>208.0</ele><time>2026-05-03T08:14:22.966Z</time></trkpt><trkpt lat="46.22673387739009" lon="9.447090884394147"><ele>203.0</ele><time>2026-05-03T08:14:23.966Z</time></trkpt><trkpt lat="46.226926680056415" lon="9.44691914705772"><ele>203.0</ele><time>2026-05-03T08:14:24.966Z</time></trkpt><trkpt lat="46.22710851495746" lon="9.446732348559179"><ele>203.0</ele><time>2026-05-03T08:14:25.966Z</time></trkpt><trkpt lat="46.22729270591964" lon="9.44654885699431"><ele>203.0</ele><time>2026-05-03T08:14:26.966Z</time></trkpt><trkpt lat="46.22745979075046" lon="9.446327049332641"><ele>204.66666666666669</ele><time>2026-05-03T08:14:27.966Z</time></trkpt><trkpt lat="46.22759633627216" lon="9.446068183662163"><ele>206.33333333333331</ele><time>2026-05-03T08:14:28.966Z</time></trkpt><trkpt lat="46.227727148770015" lon="9.445807686634463"><ele>208.0</ele><time>2026-05-03T08:14:29.966Z</time></trkpt><trkpt lat="46.22783887284322" lon="9.445531825128302"><ele>204.66666666666666</ele><time>2026-05-03T08:14:30.966Z</time></trkpt><trkpt lat="46.22793299811488" lon="9.445249267731525"><ele>201.33333333333331</ele><time>2026-05-03T08:14:31.966Z</time></trkpt><trkpt lat="46.22802081033527" lon="9.444955036071898"><ele>198.0</ele><time>2026-05-03T08:14:32.966Z</time></trkpt><trkpt lat="46.22810652641626" lon="9.444666286126017"><ele>203.0</ele><time>2026-05-03T08:14:33.966Z</time></trkpt><trkpt lat="46.22820434346191" lon="9.444384034276222"><ele>208.0</ele><time>2026-05-03T08:14:34.966Z</time></trkpt><trkpt lat="46.228288963241084" lon="9.444092650271578"><ele>213.0</ele><time>2026-05-03T08:14:35.966Z</time></trkpt><trkpt lat="46.22837224854109" lon="9.443805949459753"><ele>208.66666666666669</ele><time>2026-05-03T08:14:36.966Z</time></trkpt><trkpt lat="46.2284559751151" lon="9.443517729446203"><ele>204.33333333333334</ele><time>2026-05-03T08:14:37.966Z</time></trkpt><trkpt lat="46.22852708876462" lon="9.443226456574042"><ele>200.0</ele><time>2026-05-03T08:14:38.966Z</time></trkpt><trkpt lat="46.22861118703724" lon="9.442941408997514"><ele>198.66666666666669</ele><time>2026-05-03T08:14:39.966Z</time></trkpt><trkpt lat="46.22868945857699" lon="9.442662862554076"><ele>197.33333333333331</ele><time>2026-05-03T08:14:40.966Z</time></trkpt><trkpt lat="46.22876063901323" lon="9.442396540157855"><ele>196.0</ele><time>2026-05-03T08:14:41.966Z</time></trkpt><trkpt lat="46.22883528803472" lon="9.442132901645104"><ele>195.33333333333331</ele><time>2026-05-03T08:14:42.966Z</time></trkpt><trkpt lat="46.22893884010415" lon="9.441879709438446"><ele>194.66666666666669</ele><time>2026-05-03T08:14:43.966Z</time></trkpt><trkpt lat="46.22905225868135" lon="9.441614795746816"><ele>194.0</ele><time>2026-05-03T08:14:44.966Z</time></trkpt><trkpt lat="46.22917640512869" lon="9.441360335743571"><ele>196.0</ele><time>2026-05-03T08:14:45.966Z</time></trkpt><trkpt lat="46.22931558177443" lon="9.441122069152058"><ele>198.0</ele><time>2026-05-03T08:14:46.966Z</time></trkpt><trkpt lat="46.22947373976716" lon="9.440884898847239"><ele>200.0</ele><time>2026-05-03T08:14:47.966Z</time></trkpt><trkpt lat="46.229638641968904" lon="9.440676692320013"><ele>199.0</ele><time>2026-05-03T08:14:48.966Z</time></trkpt><trkpt lat="46.22978099068273" lon="9.440456217702291"><ele>198.0</ele><time>2026-05-03T08:14:49.966Z</time></trkpt><trkpt lat="46.22994502992876" lon="9.44029057925988"><ele>197.0</ele><time>2026-05-03T08:14:50.966Z</time></trkpt><trkpt lat="46.23011356915362" lon="9.440123103849073"><ele>197.0</ele><time>2026-05-03T08:14:51.966Z</time></trkpt><trkpt lat="46.23029062803463" lon="9.439927107364218"><ele>197.0</ele><time>2026-05-03T08:14:52.966Z</time></trkpt><trkpt lat="46.23049364035376" lon="9.439753235263126"><ele>197.5</ele><time>2026-05-03T08:14:53.966Z</time></trkpt><trkpt lat="46.23070159382143" lon="9.439535158469177"><ele>198.0</ele><time>2026-05-03T08:14:54.966Z</time></trkpt><trkpt lat="46.23091754316859" lon="9.43930869650721"><ele>198.0</ele><time>2026-05-03T08:14:55.966Z</time></trkpt><trkpt lat="46.23112791869341" lon="9.439088079782588"><ele>198.0</ele><time>2026-05-03T08:14:56.966Z</time></trkpt><trkpt lat="46.231324667952265" lon="9.438857806425531"><ele>197.5</ele><time>2026-05-03T08:14:57.966Z</time></trkpt><trkpt lat="46.23152279056459" lon="9.438667055323375"><ele>197.0</ele><time>2026-05-03T08:14:58.966Z</time></trkpt><trkpt lat="46.231703396999436" lon="9.438484250058707"><ele>197.0</ele><time>2026-05-03T08:14:59.966Z</time></trkpt><trkpt lat="46.23188220677817" lon="9.438313808998187"><ele>197.0</ele><time>2026-05-03T08:15:00.966Z</time></trkpt><trkpt lat="46.23206718196464" lon="9.438150887747865"><ele>197.0</ele><time>2026-05-03T08:15:01.965Z</time></trkpt><trkpt lat="46.23225627504853" lon="9.437986407334323"><ele>198.0</ele><time>2026-05-03T08:15:02.965Z</time></trkpt><trkpt lat="46.23244942399244" lon="9.437819526890003"><ele>199.0</ele><time>2026-05-03T08:15:03.965Z</time></trkpt><trkpt lat="46.232638820314264" lon="9.437648472669835"><ele>200.0</ele><time>2026-05-03T08:15:04.965Z</time></trkpt><trkpt lat="46.23283750448862" lon="9.437482109421497"><ele>200.0</ele><time>2026-05-03T08:15:05.965Z</time></trkpt><trkpt lat="46.23303873796954" lon="9.437314014837806"><ele>200.0</ele><time>2026-05-03T08:15:06.965Z</time></trkpt><trkpt lat="46.23324120519776" lon="9.437140902966078"><ele>199.0</ele><time>2026-05-03T08:15:07.965Z</time></trkpt><trkpt lat="46.23344511767584" lon="9.436967195889821"><ele>198.0</ele><time>2026-05-03T08:15:08.965Z</time></trkpt><trkpt lat="46.233652585625876" lon="9.436791984176535"><ele>198.0</ele><time>2026-05-03T08:15:09.965Z</time></trkpt><trkpt lat="46.23385914725334" lon="9.436614937349406"><ele>198.0</ele><time>2026-05-03T08:15:10.964Z</time></trkpt><trkpt lat="46.23406428636992" lon="9.436436477898182"><ele>199.0</ele><time>2026-05-03T08:15:11.964Z</time></trkpt><trkpt lat="46.23426845116608" lon="9.43625728974553"><ele>200.0</ele><time>2026-05-03T08:15:12.964Z</time></trkpt><trkpt lat="46.23447015504552" lon="9.436079683837336"><ele>200.0</ele><time>2026-05-03T08:15:13.964Z</time></trkpt><trkpt lat="46.23466834389917" lon="9.43589590654564"><ele>200.0</ele><time>2026-05-03T08:15:14.965Z</time></trkpt><trkpt lat="46.23486229338815" lon="9.43570788018719"><ele>200.0</ele><time>2026-05-03T08:15:15.965Z</time></trkpt><trkpt lat="46.23505103400381" lon="9.435514926148654"><ele>200.0</ele><time>2026-05-03T08:15:16.965Z</time></trkpt><trkpt lat="46.235233927418605" lon="9.435311245378621"><ele>200.5</ele><time>2026-05-03T08:15:17.965Z</time></trkpt><trkpt lat="46.23541327059232" lon="9.43510286780514"><ele>201.0</ele><time>2026-05-03T08:15:18.965Z</time></trkpt><trkpt lat="46.23558801208918" lon="9.434888083327447"><ele>200.0</ele><time>2026-05-03T08:15:19.965Z</time></trkpt><trkpt lat="46.235761287319264" lon="9.434673124119465"><ele>199.0</ele><time>2026-05-03T08:15:20.965Z</time></trkpt><trkpt lat="46.235935862624316" lon="9.43446181915298"><ele>199.0</ele><time>2026-05-03T08:15:21.965Z</time></trkpt><trkpt lat="46.23610894429225" lon="9.434250559187602"><ele>199.0</ele><time>2026-05-03T08:15:22.965Z</time></trkpt><trkpt lat="46.23628056693096" lon="9.434039942288608"><ele>199.0</ele><time>2026-05-03T08:15:23.965Z</time></trkpt><trkpt lat="46.23645071206063" lon="9.433828579759618"><ele>199.0</ele><time>2026-05-03T08:15:24.965Z</time></trkpt><trkpt lat="46.236621903363584" lon="9.433621482905124"><ele>199.0</ele><time>2026-05-03T08:15:25.965Z</time></trkpt><trkpt lat="46.2367975707696" lon="9.433421198172985"><ele>199.0</ele><time>2026-05-03T08:15:26.965Z</time></trkpt><trkpt lat="46.23697894996517" lon="9.433230254018929"><ele>199.0</ele><time>2026-05-03T08:15:27.965Z</time></trkpt><trkpt lat="46.23716568255927" lon="9.433050666537588"><ele>199.0</ele><time>2026-05-03T08:15:28.965Z</time></trkpt><trkpt lat="46.23735737084643" lon="9.43287586761276"><ele>199.5</ele><time>2026-05-03T08:15:29.965Z</time></trkpt><trkpt lat="46.237553515808976" lon="9.432699193905105"><ele>200.0</ele><time>2026-05-03T08:15:30.965Z</time></trkpt><trkpt lat="46.23775087445908" lon="9.432531952513006"><ele>200.0</ele><time>2026-05-03T08:15:31.965Z</time></trkpt><trkpt lat="46.2379471572387" lon="9.432351413145376"><ele>200.0</ele><time>2026-05-03T08:15:32.965Z</time></trkpt><trkpt lat="46.23814312346882" lon="9.432176779942893"><ele>199.0</ele><time>2026-05-03T08:15:33.965Z</time></trkpt><trkpt lat="46.23833844273979" lon="9.43199863977884"><ele>198.0</ele><time>2026-05-03T08:15:34.965Z</time></trkpt><trkpt lat="46.23853406718903" lon="9.431818375618088"><ele>198.0</ele><time>2026-05-03T08:15:35.965Z</time></trkpt><trkpt lat="46.23872898002219" lon="9.431641610977225"><ele>198.0</ele><time>2026-05-03T08:15:36.965Z</time></trkpt><trkpt lat="46.23892384678096" lon="9.431464477788412"><ele>199.5</ele><time>2026-05-03T08:15:37.965Z</time></trkpt><trkpt lat="46.23911781295896" lon="9.431285732270439"><ele>201.0</ele><time>2026-05-03T08:15:38.965Z</time></trkpt><trkpt lat="46.23930571973489" lon="9.431113417405825"><ele>201.0</ele><time>2026-05-03T08:15:39.965Z</time></trkpt><trkpt lat="46.23948333955526" lon="9.430952169588926"><ele>201.0</ele><time>2026-05-03T08:15:40.965Z</time></trkpt><trkpt lat="46.23965245324822" lon="9.430798518283652"><ele>201.0</ele><time>2026-05-03T08:15:41.965Z</time></trkpt><trkpt lat="46.23982955621024" lon="9.430630413366474"><ele>201.0</ele><time>2026-05-03T08:15:42.965Z</time></trkpt><trkpt lat="46.24002267332873" lon="9.430441302264867"><ele>201.0</ele><time>2026-05-03T08:15:43.965Z</time></trkpt><trkpt lat="46.24022710244397" lon="9.430241267252368"><ele>201.0</ele><time>2026-05-03T08:15:44.965Z</time></trkpt><trkpt lat="46.240439508297605" lon="9.430052658140996"><ele>201.0</ele><time>2026-05-03T08:15:45.965Z</time></trkpt><trkpt lat="46.24065121637486" lon="9.429861375943435"><ele>201.5</ele><time>2026-05-03T08:15:46.965Z</time></trkpt><trkpt lat="46.24085915099159" lon="9.429670905970596"><ele>202.0</ele><time>2026-05-03T08:15:47.965Z</time></trkpt><trkpt lat="46.24106878728845" lon="9.429474417486741"><ele>201.0</ele><time>2026-05-03T08:15:48.965Z</time></trkpt><trkpt lat="46.24128476661858" lon="9.42927751122522"><ele>200.0</ele><time>2026-05-03T08:15:49.965Z</time></trkpt><trkpt lat="46.24149510858123" lon="9.429083139322596"><ele>200.0</ele><time>2026-05-03T08:15:50.965Z</time></trkpt><trkpt lat="46.241710470520744" lon="9.42888237533396"><ele>200.0</ele><time>2026-05-03T08:15:51.965Z</time></trkpt><trkpt lat="46.24192800567317" lon="9.428690746650108"><ele>200.0</ele><time>2026-05-03T08:15:52.965Z</time></trkpt><trkpt lat="46.24213210815437" lon="9.42849739950276"><ele>200.0</ele><time>2026-05-03T08:15:53.965Z</time></trkpt><trkpt lat="46.24232766190266" lon="9.428336778432735"><ele>200.0</ele><time>2026-05-03T08:15:54.965Z</time></trkpt><trkpt lat="46.242510883824316" lon="9.428172115567506"><ele>200.0</ele><time>2026-05-03T08:15:55.965Z</time></trkpt><trkpt lat="46.24268385398155" lon="9.428015301637533"><ele>200.0</ele><time>2026-05-03T08:15:56.965Z</time></trkpt><trkpt lat="46.24284432031115" lon="9.42787014084306"><ele>200.0</ele><time>2026-05-03T08:15:57.965Z</time></trkpt><trkpt lat="46.243000092349185" lon="9.427729539402797"><ele>200.0</ele><time>2026-05-03T08:15:58.965Z</time></trkpt><trkpt lat="46.243150649281304" lon="9.427591109847961"><ele>200.0</ele><time>2026-05-03T08:15:59.965Z</time></trkpt><trkpt lat="46.2432930857917" lon="9.42745439349614"><ele>200.0</ele><time>2026-05-03T08:16:00.965Z</time></trkpt><trkpt lat="46.24340851987438" lon="9.427333016727799"><ele>200.0</ele><time>2026-05-03T08:16:01.965Z</time></trkpt><trkpt lat="46.243512388971254" lon="9.427222438697905"><ele>200.0</ele><time>2026-05-03T08:16:02.965Z</time></trkpt><trkpt lat="46.24361364410788" lon="9.427111915028448"><ele>200.0</ele><time>2026-05-03T08:16:03.965Z</time></trkpt><trkpt lat="46.24371418953731" lon="9.426993948192694"><ele>200.0</ele><time>2026-05-03T08:16:04.965Z</time></trkpt><trkpt lat="46.24382527914829" lon="9.42684524391405"><ele>200.0</ele><time>2026-05-03T08:16:05.965Z</time></trkpt><trkpt lat="46.24396564200823" lon="9.426663697721198"><ele>200.0</ele><time>2026-05-03T08:16:06.965Z</time></trkpt><trkpt lat="46.24411311913065" lon="9.426521862928197"><ele>200.0</ele><time>2026-05-03T08:16:07.965Z</time></trkpt><trkpt lat="46.244227449600125" lon="9.426339491596806"><ele>200.0</ele><time>2026-05-03T08:16:08.965Z</time></trkpt><trkpt lat="46.244342753985656" lon="9.42621253902666"><ele>200.0</ele><time>2026-05-03T08:16:09.965Z</time></trkpt><trkpt lat="46.24445280425833" lon="9.426099933289622"><ele>200.75</ele><time>2026-05-03T08:16:10.965Z</time></trkpt><trkpt lat="46.24455060335492" lon="9.425994313975899"><ele>201.5</ele><time>2026-05-03T08:16:11.965Z</time></trkpt><trkpt lat="46.24464409716237" lon="9.425892906775315"><ele>202.25</ele><time>2026-05-03T08:16:12.965Z</time></trkpt><trkpt lat="46.24475735945669" lon="9.425810024665315"><ele>203.0</ele><time>2026-05-03T08:16:13.965Z</time></trkpt><trkpt lat="46.24486125152174" lon="9.425699200541455"><ele>203.25</ele><time>2026-05-03T08:16:14.966Z</time></trkpt><trkpt lat="46.2449680224024" lon="9.425594200658924"><ele>203.5</ele><time>2026-05-03T08:16:15.966Z</time></trkpt><trkpt lat="46.245068640650366" lon="9.425502700577209"><ele>203.75</ele><time>2026-05-03T08:16:16.966Z</time></trkpt><trkpt lat="46.245167535166686" lon="9.425422130994948"><ele>204.0</ele><time>2026-05-03T08:16:17.966Z</time></trkpt><trkpt lat="46.24525229778176" lon="9.425331394324767"><ele>204.25</ele><time>2026-05-03T08:16:18.966Z</time></trkpt><trkpt lat="46.24534959509356" lon="9.425266998773598"><ele>204.5</ele><time>2026-05-03T08:16:19.966Z</time></trkpt><trkpt lat="46.245460408285204" lon="9.425167706800217"><ele>204.75</ele><time>2026-05-03T08:16:20.966Z</time></trkpt><trkpt lat="46.24560013220321" lon="9.425069107168982"><ele>205.0</ele><time>2026-05-03T08:16:21.966Z</time></trkpt><trkpt lat="46.24574467764018" lon="9.424954238347645"><ele>205.0</ele><time>2026-05-03T08:16:22.966Z</time></trkpt><trkpt lat="46.24589401106349" lon="9.42484154742488"><ele>205.0</ele><time>2026-05-03T08:16:23.966Z</time></trkpt><trkpt lat="46.246043442435244" lon="9.424728639793596"><ele>205.0</ele><time>2026-05-03T08:16:24.966Z</time></trkpt><trkpt lat="46.24619768917503" lon="9.424635779214897"><ele>204.66666666666666</ele><time>2026-05-03T08:16:25.966Z</time></trkpt><trkpt lat="46.24634855937744" lon="9.424523654856076"><ele>204.33333333333331</ele><time>2026-05-03T08:16:26.966Z</time></trkpt><trkpt lat="46.246500365688185" lon="9.424411257110865"><ele>204.0</ele><time>2026-05-03T08:16:27.966Z</time></trkpt><trkpt lat="46.24665111433562" lon="9.424298944476018"><ele>204.0</ele><time>2026-05-03T08:16:28.966Z</time></trkpt><trkpt lat="46.246802784260574" lon="9.42417735029004"><ele>204.0</ele><time>2026-05-03T08:16:29.966Z</time></trkpt><trkpt lat="46.24695530843992" lon="9.424054766113905"><ele>204.0</ele><time>2026-05-03T08:16:30.966Z</time></trkpt><trkpt lat="46.24710571215411" lon="9.423933745857195"><ele>204.0</ele><time>2026-05-03T08:16:31.966Z</time></trkpt><trkpt lat="46.24724015465906" lon="9.423829034706923"><ele>204.0</ele><time>2026-05-03T08:16:32.966Z</time></trkpt><trkpt lat="46.247369513462495" lon="9.423740543782309"><ele>204.0</ele><time>2026-05-03T08:16:33.966Z</time></trkpt><trkpt lat="46.247478582012214" lon="9.423672315875889"><ele>204.0</ele><time>2026-05-03T08:16:34.966Z</time></trkpt><trkpt lat="46.2475684745752" lon="9.423619168737686"><ele>204.28571428571428</ele><time>2026-05-03T08:16:35.966Z</time></trkpt><trkpt lat="46.247636678303124" lon="9.42357691259708"><ele>204.57142857142858</ele><time>2026-05-03T08:16:36.967Z</time></trkpt><trkpt lat="46.247697873104045" lon="9.423554800995745"><ele>204.85714285714283</ele><time>2026-05-03T08:16:37.967Z</time></trkpt><trkpt lat="46.24776075107108" lon="9.423544395866617"><ele>205.14285714285714</ele><time>2026-05-03T08:16:38.967Z</time></trkpt><trkpt lat="46.24782968030849" lon="9.423545840430359"><ele>205.42857142857142</ele><time>2026-05-03T08:16:39.967Z</time></trkpt><trkpt lat="46.24789248952492" lon="9.423556281804451"><ele>205.7142857142857</ele><time>2026-05-03T08:16:40.967Z</time></trkpt><trkpt lat="46.2479881343387" lon="9.423603771166752"><ele>206.0</ele><time>2026-05-03T08:16:42.967Z</time></trkpt><trkpt lat="46.24806187012257" lon="9.423641590271275"><ele>206.0</ele><time>2026-05-03T08:16:44.967Z</time></trkpt><trkpt lat="46.24813229542717" lon="9.423648141614969"><ele>206.0</ele><time>2026-05-03T08:16:46.967Z</time></trkpt><trkpt lat="46.24827056582667" lon="9.423568345238106"><ele>206.0</ele><time>2026-05-03T08:16:48.967Z</time></trkpt><trkpt lat="46.24836951914266" lon="9.423506454048406"><ele>206.0</ele><time>2026-05-03T08:16:49.967Z</time></trkpt><trkpt lat="46.24848296986194" lon="9.423485924653265"><ele>206.0</ele><time>2026-05-03T08:16:50.967Z</time></trkpt><trkpt lat="46.24864446207848" lon="9.423505742245673"><ele>206.0</ele><time>2026-05-03T08:16:51.967Z</time></trkpt><trkpt lat="46.248847590192966" lon="9.423560319803334"><ele>206.0</ele><time>2026-05-03T08:16:52.967Z</time></trkpt><trkpt lat="46.24906412668073" lon="9.423629438416398"><ele>206.0</ele><time>2026-05-03T08:16:53.967Z</time></trkpt><trkpt lat="46.24927713233675" lon="9.42368833834293"><ele>206.5</ele><time>2026-05-03T08:16:54.967Z</time></trkpt><trkpt lat="46.24951688400139" lon="9.423755670752922"><ele>207.0</ele><time>2026-05-03T08:16:55.967Z</time></trkpt><trkpt lat="46.24976443297877" lon="9.423828531219892"><ele>208.0</ele><time>2026-05-03T08:16:56.967Z</time></trkpt><trkpt lat="46.25000612836807" lon="9.423900530718921"><ele>209.0</ele><time>2026-05-03T08:16:57.967Z</time></trkpt><trkpt lat="46.25025250202161" lon="9.423975162135822"><ele>209.0</ele><time>2026-05-03T08:16:58.967Z</time></trkpt><trkpt lat="46.25050036595471" lon="9.424048207619236"><ele>209.0</ele><time>2026-05-03T08:16:59.967Z</time></trkpt><trkpt lat="46.250752071582966" lon="9.424122529523217"><ele>209.5</ele><time>2026-05-03T08:17:00.967Z</time></trkpt><trkpt lat="46.25101006721051" lon="9.42419514778849"><ele>210.0</ele><time>2026-05-03T08:17:01.967Z</time></trkpt><trkpt lat="46.25126269995093" lon="9.424269602809584"><ele>210.0</ele><time>2026-05-03T08:17:02.967Z</time></trkpt><trkpt lat="46.25149891209083" lon="9.424338398706999"><ele>210.0</ele><time>2026-05-03T08:17:03.967Z</time></trkpt><trkpt lat="46.25171604749796" lon="9.424390052521332"><ele>210.0</ele><time>2026-05-03T08:17:04.967Z</time></trkpt><trkpt lat="46.25191739220716" lon="9.424412079127933"><ele>210.0</ele><time>2026-05-03T08:17:05.967Z</time></trkpt><trkpt lat="46.25210930146183" lon="9.424400195209211"><ele>210.0</ele><time>2026-05-03T08:17:06.967Z</time></trkpt><trkpt lat="46.2523060047203" lon="9.424328425699509"><ele>209.66666666666669</ele><time>2026-05-03T08:17:07.965Z</time></trkpt><trkpt lat="46.2524936273808" lon="9.42421819423657"><ele>209.33333333333334</ele><time>2026-05-03T08:17:08.965Z</time></trkpt><trkpt lat="46.25266216221138" lon="9.424079822131402"><ele>209.0</ele><time>2026-05-03T08:17:09.965Z</time></trkpt><trkpt lat="46.25280828620838" lon="9.423931010535501"><ele>209.0</ele><time>2026-05-03T08:17:10.965Z</time></trkpt><trkpt lat="46.25294110163405" lon="9.42378827379441"><ele>209.0</ele><time>2026-05-03T08:17:11.965Z</time></trkpt><trkpt lat="46.25306713789239" lon="9.42365173382663"><ele>209.0</ele><time>2026-05-03T08:17:12.965Z</time></trkpt><trkpt lat="46.253186468834066" lon="9.423540903314578"><ele>209.0</ele><time>2026-05-03T08:17:13.965Z</time></trkpt><trkpt lat="46.25330191825243" lon="9.423427305753346"><ele>209.0</ele><time>2026-05-03T08:17:14.965Z</time></trkpt><trkpt lat="46.25341076916314" lon="9.423316609483201"><ele>209.0</ele><time>2026-05-03T08:17:15.965Z</time></trkpt><trkpt lat="46.253519432767035" lon="9.423208064763442"><ele>209.0</ele><time>2026-05-03T08:17:16.965Z</time></trkpt><trkpt lat="46.25362831671003" lon="9.42310007472881"><ele>209.0</ele><time>2026-05-03T08:17:17.965Z</time></trkpt><trkpt lat="46.25373789820325" lon="9.422989589128585"><ele>209.0</ele><time>2026-05-03T08:17:18.965Z</time></trkpt><trkpt lat="46.25384502594955" lon="9.422884821340974"><ele>209.0</ele><time>2026-05-03T08:17:19.965Z</time></trkpt><trkpt lat="46.253954626473075" lon="9.422786757479269"><ele>209.0</ele><time>2026-05-03T08:17:20.965Z</time></trkpt><trkpt lat="46.25406804041999" lon="9.422692624735586"><ele>209.5</ele><time>2026-05-03T08:17:21.965Z</time></trkpt><trkpt lat="46.25419039755489" lon="9.422604717140507"><ele>210.0</ele><time>2026-05-03T08:17:22.965Z</time></trkpt><trkpt lat="46.254319677351056" lon="9.422514948960513"><ele>210.5</ele><time>2026-05-03T08:17:23.965Z</time></trkpt><trkpt lat="46.254442945413174" lon="9.42244667272768"><ele>211.0</ele><time>2026-05-03T08:17:24.965Z</time></trkpt><trkpt lat="46.254560665093166" lon="9.422380790441316"><ele>211.0</ele><time>2026-05-03T08:17:25.965Z</time></trkpt><trkpt lat="46.25467473886779" lon="9.422317837502122"><ele>211.0</ele><time>2026-05-03T08:17:26.965Z</time></trkpt><trkpt lat="46.254807840156964" lon="9.422257113323802"><ele>211.0</ele><time>2026-05-03T08:17:27.965Z</time></trkpt><trkpt lat="46.25495093739413" lon="9.422192408588067"><ele>211.0</ele><time>2026-05-03T08:17:28.965Z</time></trkpt><trkpt lat="46.255099666094864" lon="9.422116578250492"><ele>210.33333333333331</ele><time>2026-05-03T08:17:29.965Z</time></trkpt><trkpt lat="46.25525147178158" lon="9.422050158819491"><ele>209.66666666666669</ele><time>2026-05-03T08:17:30.965Z</time></trkpt><trkpt lat="46.25540383716846" lon="9.421984481306101"><ele>209.0</ele><time>2026-05-03T08:17:31.965Z</time></trkpt><trkpt lat="46.255546964250065" lon="9.42192377327949"><ele>209.0</ele><time>2026-05-03T08:17:32.965Z</time></trkpt><trkpt lat="46.25566373749463" lon="9.421875935496939"><ele>209.0</ele><time>2026-05-03T08:17:33.965Z</time></trkpt><trkpt lat="46.25575894761629" lon="9.421838886374795"><ele>209.0</ele><time>2026-05-03T08:17:34.965Z</time></trkpt><trkpt lat="46.25584715165553" lon="9.42180354280741"><ele>209.0</ele><time>2026-05-03T08:17:35.965Z</time></trkpt><trkpt lat="46.25592678161481" lon="9.421770108387145"><ele>209.0</ele><time>2026-05-03T08:17:36.965Z</time></trkpt><trkpt lat="46.25600191627014" lon="9.421735309956867"><ele>209.00000000000003</ele><time>2026-05-03T08:17:37.965Z</time></trkpt><trkpt lat="46.25608159650555" lon="9.421701749363983"><ele>209.0</ele><time>2026-05-03T08:17:38.965Z</time></trkpt><trkpt lat="46.25616117216172" lon="9.421670021603456"><ele>209.0</ele><time>2026-05-03T08:17:39.965Z</time></trkpt><trkpt lat="46.25623609450478" lon="9.421634663678919"><ele>209.0</ele><time>2026-05-03T08:17:40.965Z</time></trkpt><trkpt lat="46.25631367436272" lon="9.421606883309114"><ele>209.00000000000003</ele><time>2026-05-03T08:17:41.965Z</time></trkpt><trkpt lat="46.25639456658127" lon="9.421567577602271"><ele>209.0</ele><time>2026-05-03T08:17:42.965Z</time></trkpt><trkpt lat="46.2564730807834" lon="9.421525681896764"><ele>210.0</ele><time>2026-05-03T08:17:43.965Z</time></trkpt><trkpt lat="46.25655898416604" lon="9.421481798962033"><ele>211.0</ele><time>2026-05-03T08:17:44.965Z</time></trkpt><trkpt lat="46.2566589144059" lon="9.421404175631572"><ele>212.0</ele><time>2026-05-03T08:17:45.965Z</time></trkpt><trkpt lat="46.25678038245784" lon="9.421299593010334"><ele>213.0</ele><time>2026-05-03T08:17:46.965Z</time></trkpt><trkpt lat="46.256902340642235" lon="9.42117529444296"><ele>210.33333333333331</ele><time>2026-05-03T08:17:47.965Z</time></trkpt><trkpt lat="46.2570189451875" lon="9.421040000361886"><ele>207.66666666666666</ele><time>2026-05-03T08:17:48.965Z</time></trkpt><trkpt lat="46.25713359777753" lon="9.420891520492312"><ele>205.0</ele><time>2026-05-03T08:17:49.965Z</time></trkpt><trkpt lat="46.257280708193726" lon="9.420680651850377"><ele>209.0</ele><time>2026-05-03T08:17:50.965Z</time></trkpt><trkpt lat="46.25744766105163" lon="9.420402829586715"><ele>213.0</ele><time>2026-05-03T08:17:51.965Z</time></trkpt><trkpt lat="46.25762944769763" lon="9.42009638002369"><ele>213.0</ele><time>2026-05-03T08:17:52.965Z</time></trkpt><trkpt lat="46.25781822351218" lon="9.419776564807439"><ele>213.0</ele><time>2026-05-03T08:17:53.965Z</time></trkpt><trkpt lat="46.2580021308337" lon="9.419430944637774"><ele>216.5</ele><time>2026-05-03T08:17:54.965Z</time></trkpt><trkpt lat="46.2581872534979" lon="9.419154088220296"><ele>220.0</ele><time>2026-05-03T08:17:55.965Z</time></trkpt><trkpt lat="46.25834194112476" lon="9.418893471309604"><ele>213.0</ele><time>2026-05-03T08:17:56.965Z</time></trkpt><trkpt lat="46.25849739271787" lon="9.418631113005125"><ele>206.0</ele><time>2026-05-03T08:17:57.965Z</time></trkpt><trkpt lat="46.25866729259653" lon="9.418343939850802"><ele>206.0</ele><time>2026-05-03T08:17:58.965Z</time></trkpt><trkpt lat="46.25882889936907" lon="9.418072159871523"><ele>206.0</ele><time>2026-05-03T08:17:59.965Z</time></trkpt><trkpt lat="46.25896375255759" lon="9.417808545127821"><ele>206.33333333333334</ele><time>2026-05-03T08:18:00.965Z</time></trkpt><trkpt lat="46.2590985968549" lon="9.41758325405077"><ele>206.66666666666669</ele><time>2026-05-03T08:18:01.965Z</time></trkpt><trkpt lat="46.25923213391995" lon="9.417360602475709"><ele>207.0</ele><time>2026-05-03T08:18:02.965Z</time></trkpt><trkpt lat="46.2593625919354" lon="9.417137856237858"><ele>207.0</ele><time>2026-05-03T08:18:03.965Z</time></trkpt><trkpt lat="46.25949725614214" lon="9.416913122031342"><ele>207.0</ele><time>2026-05-03T08:18:04.965Z</time></trkpt><trkpt lat="46.25964233110244" lon="9.416704726612062"><ele>207.0</ele><time>2026-05-03T08:18:05.965Z</time></trkpt><trkpt lat="46.25975708351817" lon="9.416479427526816"><ele>207.33333333333331</ele><time>2026-05-03T08:18:06.965Z</time></trkpt><trkpt lat="46.25987462120807" lon="9.416285895358802"><ele>207.66666666666666</ele><time>2026-05-03T08:18:07.965Z</time></trkpt><trkpt lat="46.25999307496635" lon="9.416098588493767"><ele>208.0</ele><time>2026-05-03T08:18:08.965Z</time></trkpt><trkpt lat="46.26010840286233" lon="9.415900869274605"><ele>208.0</ele><time>2026-05-03T08:18:09.965Z</time></trkpt><trkpt lat="46.260225045646244" lon="9.415702832049847"><ele>208.0</ele><time>2026-05-03T08:18:10.965Z</time></trkpt><trkpt lat="46.26034884273233" lon="9.415507107753584"><ele>208.0</ele><time>2026-05-03T08:18:11.965Z</time></trkpt><trkpt lat="46.26047190262895" lon="9.41530457856015"><ele>207.33333333333331</ele><time>2026-05-03T08:18:12.965Z</time></trkpt><trkpt lat="46.26059173355922" lon="9.415095943184372"><ele>206.66666666666669</ele><time>2026-05-03T08:18:13.965Z</time></trkpt><trkpt lat="46.260712766085135" lon="9.414887623887056"><ele>206.0</ele><time>2026-05-03T08:18:14.965Z</time></trkpt><trkpt lat="46.260835652569085" lon="9.414677513892205"><ele>206.66666666666669</ele><time>2026-05-03T08:18:15.965Z</time></trkpt><trkpt lat="46.26095933523108" lon="9.414473026658662"><ele>207.33333333333331</ele><time>2026-05-03T08:18:16.965Z</time></trkpt><trkpt lat="46.26108231533683" lon="9.414264855584278"><ele>208.0</ele><time>2026-05-03T08:18:17.965Z</time></trkpt><trkpt lat="46.26119873329439" lon="9.414074223395435"><ele>208.0</ele><time>2026-05-03T08:18:18.965Z</time></trkpt><trkpt lat="46.26130497571863" lon="9.413891438740585"><ele>208.0</ele><time>2026-05-03T08:18:19.965Z</time></trkpt><trkpt lat="46.26139657918336" lon="9.413707546930674"><ele>208.0</ele><time>2026-05-03T08:18:20.965Z</time></trkpt><trkpt lat="46.26146912970547" lon="9.41351160704585"><ele>208.0</ele><time>2026-05-03T08:18:21.965Z</time></trkpt><trkpt lat="46.261517415825566" lon="9.413297956497685"><ele>208.0</ele><time>2026-05-03T08:18:22.965Z</time></trkpt><trkpt lat="46.26154962352759" lon="9.413068033432529"><ele>208.0</ele><time>2026-05-03T08:18:23.965Z</time></trkpt><trkpt lat="46.261578302063" lon="9.412846581683455"><ele>208.0</ele><time>2026-05-03T08:18:24.965Z</time></trkpt><trkpt lat="46.2616055802904" lon="9.41263790887067"><ele>208.0</ele><time>2026-05-03T08:18:25.965Z</time></trkpt><trkpt lat="46.26163099530838" lon="9.412435606025117"><ele>208.0</ele><time>2026-05-03T08:18:26.965Z</time></trkpt><trkpt lat="46.261652840678366" lon="9.412234086088393"><ele>208.0</ele><time>2026-05-03T08:18:27.965Z</time></trkpt><trkpt lat="46.26167664319629" lon="9.412037133245342"><ele>208.0</ele><time>2026-05-03T08:18:28.965Z</time></trkpt><trkpt lat="46.26171049255229" lon="9.411836375166166"><ele>208.0</ele><time>2026-05-03T08:18:29.965Z</time></trkpt><trkpt lat="46.261763506580955" lon="9.411638195758"><ele>208.0</ele><time>2026-05-03T08:18:30.965Z</time></trkpt><trkpt lat="46.26184924599078" lon="9.411460436550113"><ele>208.0</ele><time>2026-05-03T08:18:31.965Z</time></trkpt><trkpt lat="46.26195933859338" lon="9.411265778126616"><ele>208.0</ele><time>2026-05-03T08:18:32.965Z</time></trkpt><trkpt lat="46.26209028046489" lon="9.411044952047416"><ele>208.0</ele><time>2026-05-03T08:18:33.965Z</time></trkpt><trkpt lat="46.26223226350138" lon="9.410806703118944"><ele>208.0</ele><time>2026-05-03T08:18:34.965Z</time></trkpt><trkpt lat="46.26238006275528" lon="9.410558694726662"><ele>208.0</ele><time>2026-05-03T08:18:35.965Z</time></trkpt><trkpt lat="46.2625111440004" lon="9.410302884630848"><ele>208.0</ele><time>2026-05-03T08:18:36.965Z</time></trkpt><trkpt lat="46.26265044844485" lon="9.410077100719818"><ele>208.0</ele><time>2026-05-03T08:18:37.965Z</time></trkpt><trkpt lat="46.26278856785422" lon="9.409855540250724"><ele>207.66666666666666</ele><time>2026-05-03T08:18:38.965Z</time></trkpt><trkpt lat="46.26291954114318" lon="9.409626310278105"><ele>207.33333333333331</ele><time>2026-05-03T08:18:39.965Z</time></trkpt><trkpt lat="46.26305410915338" lon="9.40940783081518"><ele>207.0</ele><time>2026-05-03T08:18:40.965Z</time></trkpt><trkpt lat="46.26318888288554" lon="9.409192841119847"><ele>207.66666666666669</ele><time>2026-05-03T08:18:41.965Z</time></trkpt><trkpt lat="46.263323309481265" lon="9.408986197974299"><ele>208.33333333333334</ele><time>2026-05-03T08:18:42.965Z</time></trkpt><trkpt lat="46.263466164410026" lon="9.408796811167244"><ele>209.0</ele><time>2026-05-03T08:18:43.965Z</time></trkpt><trkpt lat="46.26362724079622" lon="9.408641101064726"><ele>209.0</ele><time>2026-05-03T08:18:44.965Z</time></trkpt><trkpt lat="46.26380353553213" lon="9.408508638775361"><ele>209.0</ele><time>2026-05-03T08:18:45.965Z</time></trkpt><trkpt lat="46.263990354842775" lon="9.408400392377947"><ele>209.0</ele><time>2026-05-03T08:18:46.965Z</time></trkpt><trkpt lat="46.26417990538986" lon="9.408294200669255"><ele>209.33333333333334</ele><time>2026-05-03T08:18:47.965Z</time></trkpt><trkpt lat="46.26437138411285" lon="9.408187285935341"><ele>209.66666666666669</ele><time>2026-05-03T08:18:48.965Z</time></trkpt><trkpt lat="46.26456196998196" lon="9.408081047618328"><ele>210.0</ele><time>2026-05-03T08:18:49.965Z</time></trkpt><trkpt lat="46.26475139367945" lon="9.40797698222958"><ele>210.0</ele><time>2026-05-03T08:18:50.965Z</time></trkpt><trkpt lat="46.26494082872445" lon="9.40787525639528"><ele>210.0</ele><time>2026-05-03T08:18:51.965Z</time></trkpt><trkpt lat="46.26512735831854" lon="9.407767673635824"><ele>210.0</ele><time>2026-05-03T08:18:52.965Z</time></trkpt><trkpt lat="46.26531296392898" lon="9.407659725439341"><ele>210.0</ele><time>2026-05-03T08:18:53.965Z</time></trkpt><trkpt lat="46.265493846764464" lon="9.407545014610504"><ele>210.0</ele><time>2026-05-03T08:18:54.965Z</time></trkpt><trkpt lat="46.26567333177979" lon="9.407424668726174"><ele>210.0</ele><time>2026-05-03T08:18:55.965Z</time></trkpt><trkpt lat="46.26584556352494" lon="9.407293712331484"><ele>211.33333333333331</ele><time>2026-05-03T08:18:56.965Z</time></trkpt><trkpt lat="46.26601825752838" lon="9.40716024863665"><ele>212.66666666666666</ele><time>2026-05-03T08:18:57.965Z</time></trkpt><trkpt lat="46.26619006502717" lon="9.407015180596034"><ele>214.0</ele><time>2026-05-03T08:18:58.965Z</time></trkpt><trkpt lat="46.26636106905607" lon="9.406855081391347"><ele>215.0</ele><time>2026-05-03T08:18:59.965Z</time></trkpt><trkpt lat="46.26652997126725" lon="9.406685091853838"><ele>216.0</ele><time>2026-05-03T08:19:00.965Z</time></trkpt><trkpt lat="46.26670038829512" lon="9.40650417606772"><ele>217.0</ele><time>2026-05-03T08:19:01.965Z</time></trkpt><trkpt lat="46.26686449582118" lon="9.406313087647627"><ele>217.0</ele><time>2026-05-03T08:19:02.965Z</time></trkpt><trkpt lat="46.267025561317645" lon="9.40611196699888"><ele>217.0</ele><time>2026-05-03T08:19:03.965Z</time></trkpt><trkpt lat="46.26718423493174" lon="9.405901167869876"><ele>217.0</ele><time>2026-05-03T08:19:04.965Z</time></trkpt><trkpt lat="46.267330736635316" lon="9.405671126066757"><ele>217.0</ele><time>2026-05-03T08:19:05.965Z</time></trkpt><trkpt lat="46.26747978922715" lon="9.405430699566224"><ele>217.0</ele><time>2026-05-03T08:19:06.965Z</time></trkpt><trkpt lat="46.267620588767805" lon="9.405201259364535"><ele>217.0</ele><time>2026-05-03T08:19:07.965Z</time></trkpt><trkpt lat="46.26776077968773" lon="9.404966235100572"><ele>217.0</ele><time>2026-05-03T08:19:08.965Z</time></trkpt><trkpt lat="46.26791134944409" lon="9.404727936759658"><ele>217.0</ele><time>2026-05-03T08:19:09.965Z</time></trkpt><trkpt lat="46.26806306479176" lon="9.404484783985655"><ele>217.5</ele><time>2026-05-03T08:19:10.965Z</time></trkpt><trkpt lat="46.268212224895095" lon="9.404237732988896"><ele>218.0</ele><time>2026-05-03T08:19:11.965Z</time></trkpt><trkpt lat="46.2683608724625" lon="9.403992176595162"><ele>217.0</ele><time>2026-05-03T08:19:12.965Z</time></trkpt><trkpt lat="46.268515424629555" lon="9.403750460461763"><ele>216.0</ele><time>2026-05-03T08:19:13.963Z</time></trkpt><trkpt lat="46.26866666399781" lon="9.403502274290911"><ele>216.0</ele><time>2026-05-03T08:19:14.963Z</time></trkpt><trkpt lat="46.26882033468766" lon="9.403258026513079"><ele>216.0</ele><time>2026-05-03T08:19:15.963Z</time></trkpt><trkpt lat="46.26896457278616" lon="9.403024488814358"><ele>216.0</ele><time>2026-05-03T08:19:16.963Z</time></trkpt><trkpt lat="46.269114083962336" lon="9.402782791611912"><ele>216.33333333333331</ele><time>2026-05-03T08:19:17.963Z</time></trkpt><trkpt lat="46.26925642394882" lon="9.402551752068575"><ele>216.66666666666666</ele><time>2026-05-03T08:19:18.963Z</time></trkpt><trkpt lat="46.269400150250505" lon="9.402326280636315"><ele>217.0</ele><time>2026-05-03T08:19:19.963Z</time></trkpt><trkpt lat="46.26955184992792" lon="9.402109788749918"><ele>217.0</ele><time>2026-05-03T08:19:20.963Z</time></trkpt><trkpt lat="46.26969224676531" lon="9.401880169405059"><ele>217.0</ele><time>2026-05-03T08:19:21.963Z</time></trkpt><trkpt lat="46.26983285904337" lon="9.401661172769417"><ele>217.0</ele><time>2026-05-03T08:19:22.963Z</time></trkpt><trkpt lat="46.269969126364174" lon="9.401446495830116"><ele>217.66666666666666</ele><time>2026-05-03T08:19:23.963Z</time></trkpt><trkpt lat="46.27011766538093" lon="9.401226688567583"><ele>218.33333333333331</ele><time>2026-05-03T08:19:24.963Z</time></trkpt><trkpt lat="46.270274270548654" lon="9.401031259327969"><ele>219.0</ele><time>2026-05-03T08:19:25.963Z</time></trkpt><trkpt lat="46.270437766387765" lon="9.400849958310078"><ele>219.0</ele><time>2026-05-03T08:19:26.963Z</time></trkpt><trkpt lat="46.2706101373523" lon="9.40066640293361"><ele>219.0</ele><time>2026-05-03T08:19:27.963Z</time></trkpt><trkpt lat="46.270784398817355" lon="9.400496935652802"><ele>219.0</ele><time>2026-05-03T08:19:28.963Z</time></trkpt><trkpt lat="46.270937432786496" lon="9.400341927623614"><ele>219.0</ele><time>2026-05-03T08:19:29.963Z</time></trkpt><trkpt lat="46.271093968016466" lon="9.400194164972984"><ele>219.0</ele><time>2026-05-03T08:19:30.963Z</time></trkpt><trkpt lat="46.27123207582394" lon="9.400054505043128"><ele>219.0</ele><time>2026-05-03T08:19:31.963Z</time></trkpt><trkpt lat="46.27136647778609" lon="9.39990708143358"><ele>219.66666666666669</ele><time>2026-05-03T08:19:32.963Z</time></trkpt><trkpt lat="46.27148143943499" lon="9.39974789012034"><ele>220.33333333333334</ele><time>2026-05-03T08:19:33.963Z</time></trkpt><trkpt lat="46.271573091590604" lon="9.399578365694909"><ele>221.0</ele><time>2026-05-03T08:19:34.963Z</time></trkpt><trkpt lat="46.27161795902742" lon="9.3993712098796"><ele>221.0</ele><time>2026-05-03T08:19:35.963Z</time></trkpt><trkpt lat="46.271635132983555" lon="9.399150358392767"><ele>221.0</ele><time>2026-05-03T08:19:36.963Z</time></trkpt><trkpt lat="46.27164836061024" lon="9.398939383532145"><ele>221.0</ele><time>2026-05-03T08:19:37.963Z</time></trkpt><trkpt lat="46.271673689253625" lon="9.398751196219578"><ele>221.0</ele><time>2026-05-03T08:19:38.963Z</time></trkpt><trkpt lat="46.271715321371616" lon="9.398577731068164"><ele>220.5</ele><time>2026-05-03T08:19:39.963Z</time></trkpt><trkpt lat="46.271786557299464" lon="9.398415071700017"><ele>220.0</ele><time>2026-05-03T08:19:40.963Z</time></trkpt><trkpt lat="46.271880177858634" lon="9.398271723855398"><ele>219.5</ele><time>2026-05-03T08:19:41.963Z</time></trkpt><trkpt lat="46.27198547181347" lon="9.398148149976992"><ele>219.0</ele><time>2026-05-03T08:19:42.963Z</time></trkpt><trkpt lat="46.272102006229375" lon="9.398064094238423"><ele>219.0</ele><time>2026-05-03T08:19:43.963Z</time></trkpt><trkpt lat="46.27222901215184" lon="9.39802333944778"><ele>219.0</ele><time>2026-05-03T08:19:44.963Z</time></trkpt><trkpt lat="46.27235447231782" lon="9.397980969895222"><ele>219.0</ele><time>2026-05-03T08:19:45.963Z</time></trkpt><trkpt lat="46.27246733017073" lon="9.3979496180557"><ele>219.0</ele><time>2026-05-03T08:19:46.963Z</time></trkpt><trkpt lat="46.27258003424573" lon="9.397904677791141"><ele>219.0</ele><time>2026-05-03T08:19:47.963Z</time></trkpt><trkpt lat="46.27270462120641" lon="9.397855435875131"><ele>219.0</ele><time>2026-05-03T08:19:48.963Z</time></trkpt><trkpt lat="46.27285950296909" lon="9.397795732612046"><ele>219.0</ele><time>2026-05-03T08:19:49.963Z</time></trkpt><trkpt lat="46.27302156844513" lon="9.397732466879065"><ele>220.0</ele><time>2026-05-03T08:19:50.963Z</time></trkpt><trkpt lat="46.27319563465133" lon="9.397680290859988"><ele>221.0</ele><time>2026-05-03T08:19:51.963Z</time></trkpt><trkpt lat="46.27337261708389" lon="9.397634055485277"><ele>222.0</ele><time>2026-05-03T08:19:52.963Z</time></trkpt><trkpt lat="46.27354215509862" lon="9.39759097451154"><ele>222.0</ele><time>2026-05-03T08:19:53.963Z</time></trkpt><trkpt lat="46.273690070639965" lon="9.39754940603573"><ele>222.0</ele><time>2026-05-03T08:19:54.963Z</time></trkpt><trkpt lat="46.273811871859394" lon="9.397491497585467"><ele>222.0</ele><time>2026-05-03T08:19:55.963Z</time></trkpt><trkpt lat="46.27393103122042" lon="9.397446848344213"><ele>222.0</ele><time>2026-05-03T08:19:56.963Z</time></trkpt><trkpt lat="46.27406032009554" lon="9.397414059083891"><ele>223.0</ele><time>2026-05-03T08:19:57.963Z</time></trkpt><trkpt lat="46.274176523136106" lon="9.397384130193199"><ele>224.0</ele><time>2026-05-03T08:19:58.963Z</time></trkpt><trkpt lat="46.27428822474516" lon="9.397352483097245"><ele>225.0</ele><time>2026-05-03T08:19:59.963Z</time></trkpt><trkpt lat="46.27439839257594" lon="9.397322820351864"><ele>226.0</ele><time>2026-05-03T08:20:00.963Z</time></trkpt><trkpt lat="46.27450763653698" lon="9.39730139009181"><ele>226.0</ele><time>2026-05-03T08:20:01.963Z</time></trkpt><trkpt lat="46.274621476698115" lon="9.397290147052544"><ele>226.0</ele><time>2026-05-03T08:20:02.963Z</time></trkpt><trkpt lat="46.274739020518666" lon="9.397252609820704"><ele>226.0</ele><time>2026-05-03T08:20:03.963Z</time></trkpt><trkpt lat="46.274864388556615" lon="9.397234406501022"><ele>226.0</ele><time>2026-05-03T08:20:04.963Z</time></trkpt><trkpt lat="46.274993532252026" lon="9.397213660744889"><ele>225.8</ele><time>2026-05-03T08:20:05.963Z</time></trkpt><trkpt lat="46.27510020686497" lon="9.397191664116294"><ele>225.60000000000002</ele><time>2026-05-03T08:20:06.963Z</time></trkpt><trkpt lat="46.27521709244284" lon="9.397160436035144"><ele>225.4</ele><time>2026-05-03T08:20:07.963Z</time></trkpt><trkpt lat="46.27532959399577" lon="9.397135719630048"><ele>225.2</ele><time>2026-05-03T08:20:08.963Z</time></trkpt><trkpt lat="46.275431561478555" lon="9.39711536716141"><ele>225.0</ele><time>2026-05-03T08:20:09.963Z</time></trkpt><trkpt lat="46.27552916107959" lon="9.397099497272897"><ele>225.0</ele><time>2026-05-03T08:20:10.963Z</time></trkpt><trkpt lat="46.275619443110045" lon="9.397077731055393"><ele>225.0</ele><time>2026-05-03T08:20:11.963Z</time></trkpt><trkpt lat="46.27571252581435" lon="9.397057821761356"><ele>225.0</ele><time>2026-05-03T08:20:12.963Z</time></trkpt><trkpt lat="46.27580489724686" lon="9.397036649542882"><ele>225.0</ele><time>2026-05-03T08:20:13.963Z</time></trkpt><trkpt lat="46.27590100009998" lon="9.397016401464871"><ele>225.0</ele><time>2026-05-03T08:20:14.963Z</time></trkpt><trkpt lat="46.275999454576294" lon="9.396995680926807"><ele>225.0</ele><time>2026-05-03T08:20:15.963Z</time></trkpt><trkpt lat="46.276107150465386" lon="9.396975293048033"><ele>225.0</ele><time>2026-05-03T08:20:16.963Z</time></trkpt><trkpt lat="46.27623777306176" lon="9.396953465747288"><ele>225.0</ele><time>2026-05-03T08:20:17.963Z</time></trkpt><trkpt lat="46.27640700509482" lon="9.396928500685878"><ele>225.0</ele><time>2026-05-03T08:20:18.963Z</time></trkpt><trkpt lat="46.276597961592145" lon="9.396926510842578"><ele>225.66666666666669</ele><time>2026-05-03T08:20:19.963Z</time></trkpt><trkpt lat="46.276802248576" lon="9.396912094811652"><ele>226.33333333333334</ele><time>2026-05-03T08:20:20.963Z</time></trkpt><trkpt lat="46.27700642409332" lon="9.396898872708359"><ele>227.0</ele><time>2026-05-03T08:20:21.963Z</time></trkpt><trkpt lat="46.277189145302536" lon="9.39688525258897"><ele>226.66666666666669</ele><time>2026-05-03T08:20:22.963Z</time></trkpt><trkpt lat="46.2773610543757" lon="9.396878726440429"><ele>226.33333333333331</ele><time>2026-05-03T08:20:23.963Z</time></trkpt><trkpt lat="46.277521177628365" lon="9.396868884043874"><ele>226.0</ele><time>2026-05-03T08:20:24.963Z</time></trkpt><trkpt lat="46.27767597963121" lon="9.396857636141137"><ele>226.0</ele><time>2026-05-03T08:20:25.963Z</time></trkpt><trkpt lat="46.277823602127356" lon="9.396839607734867"><ele>226.0</ele><time>2026-05-03T08:20:26.963Z</time></trkpt><trkpt lat="46.277972763598186" lon="9.396809721615972"><ele>226.0</ele><time>2026-05-03T08:20:27.963Z</time></trkpt><trkpt lat="46.27811582147798" lon="9.3967608337319"><ele>226.0</ele><time>2026-05-03T08:20:28.963Z</time></trkpt><trkpt lat="46.27825801338781" lon="9.396700659095956"><ele>226.25</ele><time>2026-05-03T08:20:29.963Z</time></trkpt><trkpt lat="46.27839631889594" lon="9.39662404285263"><ele>226.5</ele><time>2026-05-03T08:20:30.963Z</time></trkpt><trkpt lat="46.278528718101704" lon="9.39654185107618"><ele>226.75</ele><time>2026-05-03T08:20:31.963Z</time></trkpt><trkpt lat="46.27865631852646" lon="9.39645976128185"><ele>227.0</ele><time>2026-05-03T08:20:32.963Z</time></trkpt><trkpt lat="46.27878821961883" lon="9.396378312345309"><ele>227.0</ele><time>2026-05-03T08:20:33.963Z</time></trkpt><trkpt lat="46.27890980955272" lon="9.396298292927884"><ele>227.0</ele><time>2026-05-03T08:20:34.963Z</time></trkpt><trkpt lat="46.279032745934366" lon="9.396222366238705"><ele>227.0</ele><time>2026-05-03T08:20:35.963Z</time></trkpt><trkpt lat="46.279158426113945" lon="9.396145818637311"><ele>227.0</ele><time>2026-05-03T08:20:36.963Z</time></trkpt><trkpt lat="46.27926667552105" lon="9.396068295539447"><ele>227.2</ele><time>2026-05-03T08:20:37.963Z</time></trkpt><trkpt lat="46.279371605468796" lon="9.395999656256881"><ele>227.39999999999998</ele><time>2026-05-03T08:20:38.963Z</time></trkpt><trkpt lat="46.27946741350246" lon="9.395942681710864"><ele>227.60000000000002</ele><time>2026-05-03T08:20:39.963Z</time></trkpt><trkpt lat="46.27956541243087" lon="9.395879692924284"><ele>227.8</ele><time>2026-05-03T08:20:40.963Z</time></trkpt><trkpt lat="46.27966087749168" lon="9.395824853845244"><ele>228.0</ele><time>2026-05-03T08:20:41.963Z</time></trkpt><trkpt lat="46.27974768451494" lon="9.395773018711415"><ele>228.0</ele><time>2026-05-03T08:20:42.963Z</time></trkpt><trkpt lat="46.27983214837279" lon="9.395715160781393"><ele>228.0</ele><time>2026-05-03T08:20:43.963Z</time></trkpt><trkpt lat="46.27992490554518" lon="9.395657292900697"><ele>228.0</ele><time>2026-05-03T08:20:44.963Z</time></trkpt><trkpt lat="46.280028078437056" lon="9.395594102709163"><ele>228.0</ele><time>2026-05-03T08:20:45.963Z</time></trkpt><trkpt lat="46.28013571280818" lon="9.395522890478764"><ele>228.0</ele><time>2026-05-03T08:20:46.963Z</time></trkpt><trkpt lat="46.280255772493426" lon="9.395444690312246"><ele>227.66666666666669</ele><time>2026-05-03T08:20:47.963Z</time></trkpt><trkpt lat="46.28038369498716" lon="9.395364780080996"><ele>227.33333333333334</ele><time>2026-05-03T08:20:48.963Z</time></trkpt><trkpt lat="46.28052042410319" lon="9.395278357404319"><ele>227.0</ele><time>2026-05-03T08:20:49.963Z</time></trkpt><trkpt lat="46.28067133693305" lon="9.395171567979965"><ele>228.33333333333334</ele><time>2026-05-03T08:20:50.963Z</time></trkpt><trkpt lat="46.28084096911869" lon="9.39508934114235"><ele>229.66666666666669</ele><time>2026-05-03T08:20:51.963Z</time></trkpt><trkpt lat="46.281007461728535" lon="9.394984271358526"><ele>231.0</ele><time>2026-05-03T08:20:52.963Z</time></trkpt><trkpt lat="46.281186924878874" lon="9.394871016122822"><ele>231.0</ele><time>2026-05-03T08:20:53.963Z</time></trkpt><trkpt lat="46.281375442793085" lon="9.39475204666397"><ele>231.0</ele><time>2026-05-03T08:20:54.963Z</time></trkpt><trkpt lat="46.2815705854655" lon="9.394628983331993"><ele>231.0</ele><time>2026-05-03T08:20:55.963Z</time></trkpt><trkpt lat="46.28177372626665" lon="9.394502297943546"><ele>231.0</ele><time>2026-05-03T08:20:56.963Z</time></trkpt><trkpt lat="46.28197692388968" lon="9.39437598466363"><ele>231.0</ele><time>2026-05-03T08:20:57.963Z</time></trkpt><trkpt lat="46.28218357243502" lon="9.394245770603801"><ele>231.0</ele><time>2026-05-03T08:20:58.963Z</time></trkpt><trkpt lat="46.28237903809533" lon="9.394122961216635"><ele>231.0</ele><time>2026-05-03T08:20:59.963Z</time></trkpt><trkpt lat="46.282573382181326" lon="9.393984892606554"><ele>231.0</ele><time>2026-05-03T08:21:00.963Z</time></trkpt><trkpt lat="46.282763389440326" lon="9.393871483205567"><ele>231.0</ele><time>2026-05-03T08:21:01.963Z</time></trkpt><trkpt lat="46.282958119633136" lon="9.393766921272189"><ele>231.66666666666669</ele><time>2026-05-03T08:21:02.963Z</time></trkpt><trkpt lat="46.28314631407484" lon="9.393665746539883"><ele>232.33333333333334</ele><time>2026-05-03T08:21:03.963Z</time></trkpt><trkpt lat="46.28334102443886" lon="9.393571098523257"><ele>233.0</ele><time>2026-05-03T08:21:04.963Z</time></trkpt><trkpt lat="46.28353879674644" lon="9.393480862280475"><ele>233.0</ele><time>2026-05-03T08:21:05.963Z</time></trkpt><trkpt lat="46.283736417013344" lon="9.393392254815826"><ele>233.0</ele><time>2026-05-03T08:21:06.963Z</time></trkpt><trkpt lat="46.28393427634144" lon="9.3933076530224"><ele>233.0</ele><time>2026-05-03T08:21:07.963Z</time></trkpt><trkpt lat="46.28412662859491" lon="9.393221146096597"><ele>232.66666666666669</ele><time>2026-05-03T08:21:08.963Z</time></trkpt><trkpt lat="46.28431340491664" lon="9.393127569572155"><ele>232.33333333333331</ele><time>2026-05-03T08:21:09.963Z</time></trkpt><trkpt lat="46.28447937752366" lon="9.393038744304635"><ele>232.0</ele><time>2026-05-03T08:21:10.963Z</time></trkpt><trkpt lat="46.284628542530335" lon="9.392945634007525"><ele>232.5</ele><time>2026-05-03T08:21:11.963Z</time></trkpt><trkpt lat="46.28477537992755" lon="9.392856829324453"><ele>233.0</ele><time>2026-05-03T08:21:12.963Z</time></trkpt><trkpt lat="46.28490353211949" lon="9.392776384239545"><ele>233.5</ele><time>2026-05-03T08:21:13.963Z</time></trkpt><trkpt lat="46.28502475770765" lon="9.392696762955135"><ele>234.0</ele><time>2026-05-03T08:21:14.963Z</time></trkpt><trkpt lat="46.285148973636325" lon="9.392619381224513"><ele>234.0</ele><time>2026-05-03T08:21:15.963Z</time></trkpt><trkpt lat="46.28527407148753" lon="9.392536641600008"><ele>234.0</ele><time>2026-05-03T08:21:16.963Z</time></trkpt><trkpt lat="46.285404173907864" lon="9.392447939235945"><ele>234.0</ele><time>2026-05-03T08:21:17.963Z</time></trkpt><trkpt lat="46.285534866567005" lon="9.392356909601459"><ele>234.0</ele><time>2026-05-03T08:21:18.963Z</time></trkpt><trkpt lat="46.285669657014395" lon="9.392271589402146"><ele>235.33333333333331</ele><time>2026-05-03T08:21:19.96Z</time></trkpt><trkpt lat="46.28581609889286" lon="9.39216529143864"><ele>236.66666666666666</ele><time>2026-05-03T08:21:20.961Z</time></trkpt><trkpt lat="46.28598883735134" lon="9.39206723797201"><ele>238.0</ele><time>2026-05-03T08:21:21.961Z</time></trkpt><trkpt lat="46.286169948955354" lon="9.39194905245853"><ele>238.0</ele><time>2026-05-03T08:21:22.96Z</time></trkpt><trkpt lat="46.28635182562216" lon="9.391829781578817"><ele>238.0</ele><time>2026-05-03T08:21:23.961Z</time></trkpt><trkpt lat="46.286516592162286" lon="9.391722045643164"><ele>238.0</ele><time>2026-05-03T08:21:24.961Z</time></trkpt><trkpt lat="46.28666747234519" lon="9.391623304917692"><ele>238.0</ele><time>2026-05-03T08:21:25.961Z</time></trkpt><trkpt lat="46.28680933963226" lon="9.391507437342089"><ele>238.0</ele><time>2026-05-03T08:21:26.961Z</time></trkpt><trkpt lat="46.28695738646883" lon="9.391409749976393"><ele>238.0</ele><time>2026-05-03T08:21:27.961Z</time></trkpt><trkpt lat="46.287126217471766" lon="9.391325788203664"><ele>239.33333333333331</ele><time>2026-05-03T08:21:28.961Z</time></trkpt><trkpt lat="46.28728689684431" lon="9.391191857149133"><ele>240.66666666666669</ele><time>2026-05-03T08:21:29.961Z</time></trkpt><trkpt lat="46.287442790376275" lon="9.391096299870643"><ele>242.0</ele><time>2026-05-03T08:21:30.961Z</time></trkpt><trkpt lat="46.287572291565" lon="9.39101870980928"><ele>242.0</ele><time>2026-05-03T08:21:31.961Z</time></trkpt><trkpt lat="46.287692305627864" lon="9.39093661632276"><ele>242.0</ele><time>2026-05-03T08:21:32.961Z</time></trkpt><trkpt lat="46.287820271431194" lon="9.390833903605275"><ele>242.0</ele><time>2026-05-03T08:21:33.961Z</time></trkpt><trkpt lat="46.287938529540185" lon="9.390744964288011"><ele>242.0</ele><time>2026-05-03T08:21:34.961Z</time></trkpt><trkpt lat="46.28804734335024" lon="9.39067642992238"><ele>242.00000000000003</ele><time>2026-05-03T08:21:35.961Z</time></trkpt><trkpt lat="46.288138683506375" lon="9.390618263475602"><ele>242.0</ele><time>2026-05-03T08:21:36.961Z</time></trkpt><trkpt lat="46.28822118858129" lon="9.39057776007361"><ele>242.0</ele><time>2026-05-03T08:21:37.961Z</time></trkpt><trkpt lat="46.28829907468097" lon="9.3905624322334"><ele>242.0</ele><time>2026-05-03T08:21:38.961Z</time></trkpt><trkpt lat="46.28837504049116" lon="9.39055784444725"><ele>242.00000000000003</ele><time>2026-05-03T08:21:39.961Z</time></trkpt><trkpt lat="46.28845012451954" lon="9.390544523864047"><ele>242.0</ele><time>2026-05-03T08:21:40.961Z</time></trkpt><trkpt lat="46.288517687940086" lon="9.390495062563822"><ele>241.83333333333334</ele><time>2026-05-03T08:21:41.961Z</time></trkpt><trkpt lat="46.28857528678063" lon="9.390421889695146"><ele>241.66666666666669</ele><time>2026-05-03T08:21:42.961Z</time></trkpt><trkpt lat="46.28862733089377" lon="9.39034260652779"><ele>241.5</ele><time>2026-05-03T08:21:43.961Z</time></trkpt><trkpt lat="46.28869470468099" lon="9.39027604765795"><ele>241.33333333333331</ele><time>2026-05-03T08:21:44.961Z</time></trkpt><trkpt lat="46.28877870973297" lon="9.390223556087147"><ele>241.16666666666666</ele><time>2026-05-03T08:21:45.961Z</time></trkpt><trkpt lat="46.28887593335915" lon="9.39016418218376"><ele>241.0</ele><time>2026-05-03T08:21:46.961Z</time></trkpt><trkpt lat="46.288987072600406" lon="9.390095105358721"><ele>242.25</ele><time>2026-05-03T08:21:47.961Z</time></trkpt><trkpt lat="46.28910717614576" lon="9.390012556260702"><ele>243.5</ele><time>2026-05-03T08:21:48.961Z</time></trkpt><trkpt lat="46.28921747962886" lon="9.389936755436302"><ele>244.75</ele><time>2026-05-03T08:21:49.961Z</time></trkpt><trkpt lat="46.28932457630333" lon="9.389865340145024"><ele>246.0</ele><time>2026-05-03T08:21:50.961Z</time></trkpt><trkpt lat="46.289442201794465" lon="9.389785821303848"><ele>246.0</ele><time>2026-05-03T08:21:51.961Z</time></trkpt><trkpt lat="46.28956145783584" lon="9.389700960391693"><ele>246.0</ele><time>2026-05-03T08:21:52.961Z</time></trkpt><trkpt lat="46.28969917157605" lon="9.38958742466414"><ele>246.0</ele><time>2026-05-03T08:21:53.961Z</time></trkpt><trkpt lat="46.28987605334428" lon="9.389434802637437"><ele>246.66666666666669</ele><time>2026-05-03T08:21:54.961Z</time></trkpt><trkpt lat="46.29003735841055" lon="9.389243887563872"><ele>247.33333333333334</ele><time>2026-05-03T08:21:55.961Z</time></trkpt><trkpt lat="46.29018239834461" lon="9.389105167044665"><ele>248.0</ele><time>2026-05-03T08:21:56.961Z</time></trkpt><trkpt lat="46.29030022876505" lon="9.38895476210074"><ele>248.0</ele><time>2026-05-03T08:21:57.961Z</time></trkpt><trkpt lat="46.29041820833078" lon="9.388830419175923"><ele>248.0</ele><time>2026-05-03T08:21:58.961Z</time></trkpt><trkpt lat="46.2905208328162" lon="9.388716037164475"><ele>248.0</ele><time>2026-05-03T08:21:59.961Z</time></trkpt><trkpt lat="46.290624986157496" lon="9.388614477198614"><ele>248.0</ele><time>2026-05-03T08:22:00.961Z</time></trkpt><trkpt lat="46.29072264447714" lon="9.388521506518867"><ele>248.0</ele><time>2026-05-03T08:22:01.961Z</time></trkpt><trkpt lat="46.29081399782617" lon="9.38842716415301"><ele>248.0</ele><time>2026-05-03T08:22:02.961Z</time></trkpt><trkpt lat="46.29090193007055" lon="9.388332394154128"><ele>248.0</ele><time>2026-05-03T08:22:03.961Z</time></trkpt><trkpt lat="46.290990431820234" lon="9.388239363352728"><ele>248.0</ele><time>2026-05-03T08:22:04.961Z</time></trkpt><trkpt lat="46.291078253244066" lon="9.388146625150835"><ele>248.0</ele><time>2026-05-03T08:22:05.961Z</time></trkpt><trkpt lat="46.29116675995426" lon="9.388052032987817"><ele>248.00000000000003</ele><time>2026-05-03T08:22:06.961Z</time></trkpt><trkpt lat="46.29124399199068" lon="9.387963305932022"><ele>248.0</ele><time>2026-05-03T08:22:07.961Z</time></trkpt><trkpt lat="46.29131332693113" lon="9.387890260529195"><ele>248.0</ele><time>2026-05-03T08:22:08.961Z</time></trkpt><trkpt lat="46.291380261086616" lon="9.387824324870696"><ele>248.0</ele><time>2026-05-03T08:22:09.961Z</time></trkpt><trkpt lat="46.29144932731797" lon="9.387749444134988"><ele>248.00000000000003</ele><time>2026-05-03T08:22:10.961Z</time></trkpt><trkpt lat="46.29151908900252" lon="9.387665311620276"><ele>248.0</ele><time>2026-05-03T08:22:11.961Z</time></trkpt><trkpt lat="46.29159489788196" lon="9.387581727953707"><ele>248.0</ele><time>2026-05-03T08:22:12.961Z</time></trkpt><trkpt lat="46.29167640841226" lon="9.387494736150455"><ele>248.0</ele><time>2026-05-03T08:22:13.961Z</time></trkpt><trkpt lat="46.29175749328992" lon="9.387407720090632"><ele>248.0</ele><time>2026-05-03T08:22:14.961Z</time></trkpt><trkpt lat="46.29183603532938" lon="9.387321006394318"><ele>248.0</ele><time>2026-05-03T08:22:15.961Z</time></trkpt><trkpt lat="46.29191458983941" lon="9.387234397287365"><ele>248.0</ele><time>2026-05-03T08:22:16.961Z</time></trkpt><trkpt lat="46.2919975107404" lon="9.387145686250202"><ele>248.2</ele><time>2026-05-03T08:22:17.961Z</time></trkpt><trkpt lat="46.29208459101298" lon="9.387056905268787"><ele>248.4</ele><time>2026-05-03T08:22:18.961Z</time></trkpt><trkpt lat="46.29217407171008" lon="9.38696492278002"><ele>248.59999999999997</ele><time>2026-05-03T08:22:19.961Z</time></trkpt><trkpt lat="46.292267800413434" lon="9.38686960438681"><ele>248.79999999999998</ele><time>2026-05-03T08:22:20.961Z</time></trkpt><trkpt lat="46.29236331645095" lon="9.38677119301246"><ele>249.0</ele><time>2026-05-03T08:22:21.961Z</time></trkpt><trkpt lat="46.29245771894338" lon="9.386664952106566"><ele>249.75</ele><time>2026-05-03T08:22:22.961Z</time></trkpt><trkpt lat="46.29256075877769" lon="9.386557977367639"><ele>250.5</ele><time>2026-05-03T08:22:23.961Z</time></trkpt><trkpt lat="46.292666368391195" lon="9.38645020909618"><ele>251.25</ele><time>2026-05-03T08:22:24.961Z</time></trkpt><trkpt lat="46.292770394943894" lon="9.386352398736443"><ele>252.0</ele><time>2026-05-03T08:22:25.961Z</time></trkpt><trkpt lat="46.292880103020316" lon="9.386260613233993"><ele>252.0</ele><time>2026-05-03T08:22:26.961Z</time></trkpt><trkpt lat="46.292998891381814" lon="9.386178725608078"><ele>252.0</ele><time>2026-05-03T08:22:27.961Z</time></trkpt><trkpt lat="46.29312308177367" lon="9.386097378214025"><ele>252.0</ele><time>2026-05-03T08:22:28.961Z</time></trkpt><trkpt lat="46.29324672627145" lon="9.38602240887804"><ele>252.0</ele><time>2026-05-03T08:22:29.961Z</time></trkpt><trkpt lat="46.293376323085646" lon="9.385963092106223"><ele>253.25</ele><time>2026-05-03T08:22:30.961Z</time></trkpt><trkpt lat="46.29350618288756" lon="9.385915629990386"><ele>254.5</ele><time>2026-05-03T08:22:31.961Z</time></trkpt><trkpt lat="46.29364593860038" lon="9.385872052503794"><ele>255.75</ele><time>2026-05-03T08:22:32.961Z</time></trkpt><trkpt lat="46.29378745375528" lon="9.385839557033059"><ele>257.0</ele><time>2026-05-03T08:22:33.961Z</time></trkpt><trkpt lat="46.293930589589706" lon="9.385815187896622"><ele>257.0</ele><time>2026-05-03T08:22:34.961Z</time></trkpt><trkpt lat="46.294074806966805" lon="9.38580809701846"><ele>257.0</ele><time>2026-05-03T08:22:35.961Z</time></trkpt><trkpt lat="46.29421765835699" lon="9.385807740866552"><ele>257.0</ele><time>2026-05-03T08:22:36.961Z</time></trkpt><trkpt lat="46.294358720347915" lon="9.385822886626688"><ele>257.0</ele><time>2026-05-03T08:22:37.961Z</time></trkpt><trkpt lat="46.294495586571" lon="9.38583662502862"><ele>257.0</ele><time>2026-05-03T08:22:38.961Z</time></trkpt><trkpt lat="46.29463304039" lon="9.385854307186658"><ele>257.0</ele><time>2026-05-03T08:22:39.961Z</time></trkpt><trkpt lat="46.29477455284285" lon="9.385879293066445"><ele>257.0</ele><time>2026-05-03T08:22:40.961Z</time></trkpt><trkpt lat="46.29491821767589" lon="9.385905676358274"><ele>257.0</ele><time>2026-05-03T08:22:41.961Z</time></trkpt><trkpt lat="46.29506338241541" lon="9.385933280712937"><ele>257.75</ele><time>2026-05-03T08:22:42.961Z</time></trkpt><trkpt lat="46.29520348782979" lon="9.385958621226667"><ele>258.5</ele><time>2026-05-03T08:22:43.961Z</time></trkpt><trkpt lat="46.29533629274936" lon="9.385982242604982"><ele>259.25</ele><time>2026-05-03T08:22:44.961Z</time></trkpt><trkpt lat="46.29546219750545" lon="9.386006913071304"><ele>260.0</ele><time>2026-05-03T08:22:45.961Z</time></trkpt><trkpt lat="46.29559068640897" lon="9.386023776653039"><ele>260.75</ele><time>2026-05-03T08:22:46.961Z</time></trkpt><trkpt lat="46.295727983027874" lon="9.386048451008843"><ele>261.5</ele><time>2026-05-03T08:22:47.961Z</time></trkpt><trkpt lat="46.29587039306285" lon="9.386077634960518"><ele>262.25</ele><time>2026-05-03T08:22:48.961Z</time></trkpt><trkpt lat="46.29602479956431" lon="9.3861025079212"><ele>263.0</ele><time>2026-05-03T08:22:49.961Z</time></trkpt><trkpt lat="46.29617787143076" lon="9.386128725407449"><ele>263.0</ele><time>2026-05-03T08:22:50.961Z</time></trkpt><trkpt lat="46.29633298577435" lon="9.386179583396302"><ele>263.0</ele><time>2026-05-03T08:22:51.961Z</time></trkpt><trkpt lat="46.29650542854095" lon="9.38619702978926"><ele>263.0</ele><time>2026-05-03T08:22:52.961Z</time></trkpt><trkpt lat="46.29670284438378" lon="9.386232684161731"><ele>263.0</ele><time>2026-05-03T08:22:53.961Z</time></trkpt><trkpt lat="46.296930183134975" lon="9.38626881743095"><ele>263.0</ele><time>2026-05-03T08:22:54.961Z</time></trkpt><trkpt lat="46.29715848071944" lon="9.386333451994126"><ele>266.0</ele><time>2026-05-03T08:22:55.961Z</time></trkpt><trkpt lat="46.29736722730346" lon="9.386371503649272"><ele>269.0</ele><time>2026-05-03T08:22:56.961Z</time></trkpt><trkpt lat="46.29757751975993" lon="9.386409837139134"><ele>272.0</ele><time>2026-05-03T08:22:57.961Z</time></trkpt><trkpt lat="46.297786367872696" lon="9.386447907349929"><ele>272.0</ele><time>2026-05-03T08:22:58.961Z</time></trkpt><trkpt lat="46.29799535678199" lon="9.386464587897906"><ele>272.0</ele><time>2026-05-03T08:22:59.961Z</time></trkpt><trkpt lat="46.29819280553273" lon="9.386507113457595"><ele>272.0</ele><time>2026-05-03T08:23:00.961Z</time></trkpt><trkpt lat="46.29838804638548" lon="9.386542376987814"><ele>272.6666666666667</ele><time>2026-05-03T08:23:01.961Z</time></trkpt><trkpt lat="46.29856899464284" lon="9.386572355164867"><ele>273.3333333333333</ele><time>2026-05-03T08:23:02.961Z</time></trkpt><trkpt lat="46.29872670728222" lon="9.386613671620339"><ele>274.0</ele><time>2026-05-03T08:23:03.961Z</time></trkpt><trkpt lat="46.29887760348221" lon="9.386638084814518"><ele>274.5</ele><time>2026-05-03T08:23:04.961Z</time></trkpt><trkpt lat="46.299018971869884" lon="9.38666259980975"><ele>275.0</ele><time>2026-05-03T08:23:05.961Z</time></trkpt><trkpt lat="46.299159336591416" lon="9.38668868237766"><ele>275.5</ele><time>2026-05-03T08:23:06.961Z</time></trkpt><trkpt lat="46.29930050190569" lon="9.386712368646464"><ele>276.0</ele><time>2026-05-03T08:23:07.961Z</time></trkpt><trkpt lat="46.2994426742881" lon="9.38674253998612"><ele>276.0</ele><time>2026-05-03T08:23:08.961Z</time></trkpt><trkpt lat="46.29960116684031" lon="9.38677332008191"><ele>276.0</ele><time>2026-05-03T08:23:09.961Z</time></trkpt><trkpt lat="46.29975759561695" lon="9.386826514142541"><ele>276.0</ele><time>2026-05-03T08:23:10.961Z</time></trkpt><trkpt lat="46.29991760606527" lon="9.386902667523625"><ele>275.3333333333333</ele><time>2026-05-03T08:23:11.961Z</time></trkpt><trkpt lat="46.3000751276986" lon="9.386993121699255"><ele>274.66666666666663</ele><time>2026-05-03T08:23:12.961Z</time></trkpt><trkpt lat="46.30023197690714" lon="9.387100131323017"><ele>274.0</ele><time>2026-05-03T08:23:13.961Z</time></trkpt><trkpt lat="46.30039340876821" lon="9.387203286200581"><ele>275.66666666666663</ele><time>2026-05-03T08:23:14.961Z</time></trkpt><trkpt lat="46.3005614329471" lon="9.387311003656691"><ele>277.3333333333333</ele><time>2026-05-03T08:23:15.961Z</time></trkpt><trkpt lat="46.30072067349" lon="9.387415640319624"><ele>279.0</ele><time>2026-05-03T08:23:16.961Z</time></trkpt><trkpt lat="46.3008744024059" lon="9.387511012851313"><ele>279.0</ele><time>2026-05-03T08:23:17.961Z</time></trkpt><trkpt lat="46.301019748629805" lon="9.387604823715893"><ele>279.0</ele><time>2026-05-03T08:23:18.961Z</time></trkpt><trkpt lat="46.30116517932385" lon="9.387703382395467"><ele>279.0</ele><time>2026-05-03T08:23:19.961Z</time></trkpt><trkpt lat="46.30130475899183" lon="9.387794908312742"><ele>278.6666666666667</ele><time>2026-05-03T08:23:20.961Z</time></trkpt><trkpt lat="46.30143897287924" lon="9.387883399081758"><ele>278.33333333333337</ele><time>2026-05-03T08:23:21.961Z</time></trkpt><trkpt lat="46.30157732116112" lon="9.387976430287992"><ele>278.0</ele><time>2026-05-03T08:23:22.961Z</time></trkpt><trkpt lat="46.30171505793907" lon="9.388064338550338"><ele>279.33333333333337</ele><time>2026-05-03T08:23:23.961Z</time></trkpt><trkpt lat="46.30185591239169" lon="9.38815270965359"><ele>280.6666666666667</ele><time>2026-05-03T08:23:24.961Z</time></trkpt><trkpt lat="46.30199604004721" lon="9.388248734869697"><ele>282.0</ele><time>2026-05-03T08:23:25.959Z</time></trkpt><trkpt lat="46.302142428758124" lon="9.388356156572755"><ele>282.6666666666667</ele><time>2026-05-03T08:23:26.959Z</time></trkpt><trkpt lat="46.30230121804754" lon="9.388460576675643"><ele>283.33333333333337</ele><time>2026-05-03T08:23:27.959Z</time></trkpt><trkpt lat="46.30245816891413" lon="9.388556977378618"><ele>284.0</ele><time>2026-05-03T08:23:28.959Z</time></trkpt><trkpt lat="46.3026203402153" lon="9.388644594723685"><ele>284.0</ele><time>2026-05-03T08:23:29.959Z</time></trkpt><trkpt lat="46.302776624734534" lon="9.388741790181314"><ele>284.0</ele><time>2026-05-03T08:23:30.959Z</time></trkpt><trkpt lat="46.302930799501404" lon="9.388831608699032"><ele>284.0</ele><time>2026-05-03T08:23:31.959Z</time></trkpt><trkpt lat="46.30306993075951" lon="9.388920700609829"><ele>284.5</ele><time>2026-05-03T08:23:32.958Z</time></trkpt><trkpt lat="46.303198221957" lon="9.3890076670162"><ele>285.0</ele><time>2026-05-03T08:23:33.958Z</time></trkpt><trkpt lat="46.30332482759383" lon="9.38908691299384"><ele>285.5</ele><time>2026-05-03T08:23:34.959Z</time></trkpt><trkpt lat="46.30345315684035" lon="9.389169749538016"><ele>286.0</ele><time>2026-05-03T08:23:35.959Z</time></trkpt><trkpt lat="46.30358541108702" lon="9.389252029132848"><ele>286.0</ele><time>2026-05-03T08:23:36.959Z</time></trkpt><trkpt lat="46.30371523786625" lon="9.389334494637456"><ele>286.0</ele><time>2026-05-03T08:23:37.958Z</time></trkpt><trkpt lat="46.30385842633221" lon="9.389405814301464"><ele>286.0</ele><time>2026-05-03T08:23:38.959Z</time></trkpt><trkpt lat="46.30399770002304" lon="9.389458119305322"><ele>286.0</ele><time>2026-05-03T08:23:39.959Z</time></trkpt><trkpt lat="46.30413832910929" lon="9.389503459011175"><ele>286.25</ele><time>2026-05-03T08:23:40.959Z</time></trkpt><trkpt lat="46.30427110801406" lon="9.389544405050351"><ele>286.5</ele><time>2026-05-03T08:23:41.959Z</time></trkpt><trkpt lat="46.3044000787875" lon="9.389587986497927"><ele>286.75</ele><time>2026-05-03T08:23:42.959Z</time></trkpt><trkpt lat="46.304528521090006" lon="9.389637484014273"><ele>287.0</ele><time>2026-05-03T08:23:43.959Z</time></trkpt><trkpt lat="46.30465676607084" lon="9.389694634838335"><ele>288.6666666666667</ele><time>2026-05-03T08:23:44.959Z</time></trkpt><trkpt lat="46.30479783614166" lon="9.38976737989068"><ele>290.3333333333333</ele><time>2026-05-03T08:23:45.959Z</time></trkpt><trkpt lat="46.30494758821312" lon="9.389845386003003"><ele>292.0</ele><time>2026-05-03T08:23:46.959Z</time></trkpt><trkpt lat="46.30510141501708" lon="9.389921999602725"><ele>292.0</ele><time>2026-05-03T08:23:47.959Z</time></trkpt><trkpt lat="46.30525705581521" lon="9.390006033799652"><ele>292.0</ele><time>2026-05-03T08:23:48.959Z</time></trkpt><trkpt lat="46.30540356651584" lon="9.39009291026633"><ele>292.0</ele><time>2026-05-03T08:23:49.959Z</time></trkpt><trkpt lat="46.305542545831614" lon="9.390188379253136"><ele>293.0</ele><time>2026-05-03T08:23:50.959Z</time></trkpt><trkpt lat="46.30567924099225" lon="9.390291809561537"><ele>294.0</ele><time>2026-05-03T08:23:51.959Z</time></trkpt><trkpt lat="46.3058191815471" lon="9.390403632266558"><ele>295.0</ele><time>2026-05-03T08:23:52.959Z</time></trkpt><trkpt lat="46.305961480568314" lon="9.39051588939291"><ele>295.0</ele><time>2026-05-03T08:23:53.959Z</time></trkpt><trkpt lat="46.30609401469711" lon="9.390628330122526"><ele>295.0</ele><time>2026-05-03T08:23:54.959Z</time></trkpt><trkpt lat="46.3062216257799" lon="9.390742878479232"><ele>295.0</ele><time>2026-05-03T08:23:55.959Z</time></trkpt><trkpt lat="46.30634862842246" lon="9.390862667832492"><ele>292.3333333333333</ele><time>2026-05-03T08:23:56.959Z</time></trkpt><trkpt lat="46.30647427118033" lon="9.390984418365862"><ele>289.6666666666667</ele><time>2026-05-03T08:23:57.959Z</time></trkpt><trkpt lat="46.306604454860896" lon="9.391105071612184"><ele>287.0</ele><time>2026-05-03T08:23:58.959Z</time></trkpt><trkpt lat="46.30673010678901" lon="9.391230426195438"><ele>289.33333333333337</ele><time>2026-05-03T08:23:59.959Z</time></trkpt><trkpt lat="46.306857588848494" lon="9.39135875964426"><ele>291.6666666666667</ele><time>2026-05-03T08:24:00.959Z</time></trkpt><trkpt lat="46.30698767209851" lon="9.391485708655145"><ele>294.0</ele><time>2026-05-03T08:24:01.959Z</time></trkpt><trkpt lat="46.30712332563413" lon="9.391613160460977"><ele>292.0</ele><time>2026-05-03T08:24:02.959Z</time></trkpt><trkpt lat="46.30725740869191" lon="9.391740016544116"><ele>290.0</ele><time>2026-05-03T08:24:03.959Z</time></trkpt><trkpt lat="46.307388514662975" lon="9.391866446936476"><ele>288.0</ele><time>2026-05-03T08:24:04.959Z</time></trkpt><trkpt lat="46.30751649028257" lon="9.391996983760915"><ele>288.0</ele><time>2026-05-03T08:24:05.959Z</time></trkpt><trkpt lat="46.30764499255722" lon="9.39212597184271"><ele>288.0</ele><time>2026-05-03T08:24:06.959Z</time></trkpt><trkpt lat="46.30776881170112" lon="9.392260198899882"><ele>288.0</ele><time>2026-05-03T08:24:07.959Z</time></trkpt><trkpt lat="46.3078908989667" lon="9.392407110796583"><ele>288.0</ele><time>2026-05-03T08:24:08.959Z</time></trkpt><trkpt lat="46.30800244599351" lon="9.392572392094667"><ele>288.0</ele><time>2026-05-03T08:24:09.959Z</time></trkpt><trkpt lat="46.30810272257422" lon="9.39274690640601"><ele>288.0</ele><time>2026-05-03T08:24:10.959Z</time></trkpt><trkpt lat="46.30818662896287" lon="9.392934355628263"><ele>289.0</ele><time>2026-05-03T08:24:11.959Z</time></trkpt><trkpt lat="46.308265431540214" lon="9.393122634834139"><ele>290.0</ele><time>2026-05-03T08:24:12.959Z</time></trkpt><trkpt lat="46.30832760182969" lon="9.393314052729846"><ele>291.0</ele><time>2026-05-03T08:24:13.959Z</time></trkpt><trkpt lat="46.30839096381349" lon="9.393495525254874"><ele>292.0</ele><time>2026-05-03T08:24:14.959Z</time></trkpt><trkpt lat="46.30844807814153" lon="9.39366160019093"><ele>292.0</ele><time>2026-05-03T08:24:15.959Z</time></trkpt><trkpt lat="46.308501561878124" lon="9.393817101267498"><ele>292.0</ele><time>2026-05-03T08:24:16.959Z</time></trkpt><trkpt lat="46.30855468797231" lon="9.393971150071382"><ele>292.0</ele><time>2026-05-03T08:24:17.959Z</time></trkpt><trkpt lat="46.308610872748936" lon="9.394129594097429"><ele>292.0</ele><time>2026-05-03T08:24:18.959Z</time></trkpt><trkpt lat="46.308670942620594" lon="9.394293303615026"><ele>291.75</ele><time>2026-05-03T08:24:19.959Z</time></trkpt><trkpt lat="46.30872922401133" lon="9.394468216520849"><ele>291.5</ele><time>2026-05-03T08:24:20.959Z</time></trkpt><trkpt lat="46.308790904059286" lon="9.394649051815666"><ele>291.25</ele><time>2026-05-03T08:24:21.959Z</time></trkpt><trkpt lat="46.30885649314218" lon="9.394832806176657"><ele>291.0</ele><time>2026-05-03T08:24:22.959Z</time></trkpt><trkpt lat="46.30892604622071" lon="9.395019858090587"><ele>291.0</ele><time>2026-05-03T08:24:23.959Z</time></trkpt><trkpt lat="46.308999755894725" lon="9.395206523616421"><ele>291.0</ele><time>2026-05-03T08:24:24.959Z</time></trkpt><trkpt lat="46.30908804433284" lon="9.39537980450839"><ele>291.0</ele><time>2026-05-03T08:24:25.959Z</time></trkpt><trkpt lat="46.30918831454125" lon="9.395540736331508"><ele>291.0</ele><time>2026-05-03T08:24:26.959Z</time></trkpt><trkpt lat="46.30929640452819" lon="9.39568938653527"><ele>291.25</ele><time>2026-05-03T08:24:27.959Z</time></trkpt><trkpt lat="46.3094087208346" lon="9.395820361423393"><ele>291.5</ele><time>2026-05-03T08:24:28.959Z</time></trkpt><trkpt lat="46.30952649925755" lon="9.395926295629238"><ele>291.75</ele><time>2026-05-03T08:24:29.959Z</time></trkpt><trkpt lat="46.309648166684184" lon="9.396012596980768"><ele>292.0</ele><time>2026-05-03T08:24:30.959Z</time></trkpt><trkpt lat="46.30977040425102" lon="9.396086215795716"><ele>292.0</ele><time>2026-05-03T08:24:31.959Z</time></trkpt><trkpt lat="46.309889725497364" lon="9.39614543452281"><ele>292.0</ele><time>2026-05-03T08:24:32.959Z</time></trkpt><trkpt lat="46.31000174734768" lon="9.396188555327695"><ele>292.0</ele><time>2026-05-03T08:24:33.959Z</time></trkpt><trkpt lat="46.3101104210779" lon="9.396230324421227"><ele>292.0</ele><time>2026-05-03T08:24:34.959Z</time></trkpt><trkpt lat="46.31021543771536" lon="9.396267096177512"><ele>292.0</ele><time>2026-05-03T08:24:35.959Z</time></trkpt><trkpt lat="46.31031818794737" lon="9.396305276270835"><ele>292.0</ele><time>2026-05-03T08:24:36.959Z</time></trkpt><trkpt lat="46.31040950636068" lon="9.396336646358224"><ele>292.0</ele><time>2026-05-03T08:24:37.959Z</time></trkpt><trkpt lat="46.310491229389754" lon="9.39636782335003"><ele>292.0</ele><time>2026-05-03T08:24:38.959Z</time></trkpt><trkpt lat="46.31056543873218" lon="9.396398783925807"><ele>292.0</ele><time>2026-05-03T08:24:39.959Z</time></trkpt><trkpt lat="46.310631758614264" lon="9.396446800454916"><ele>292.0</ele><time>2026-05-03T08:24:40.959Z</time></trkpt><trkpt lat="46.31068854527578" lon="9.396534854641512"><ele>292.2</ele><time>2026-05-03T08:24:41.959Z</time></trkpt><trkpt lat="46.31074127431083" lon="9.396618260433339"><ele>292.4</ele><time>2026-05-03T08:24:42.959Z</time></trkpt><trkpt lat="46.31081147763062" lon="9.396682196423738"><ele>292.6</ele><time>2026-05-03T08:24:43.959Z</time></trkpt><trkpt lat="46.31090772966606" lon="9.39669635057557"><ele>292.8</ele><time>2026-05-03T08:24:44.959Z</time></trkpt><trkpt lat="46.31102231799129" lon="9.39666524188371"><ele>293.0</ele><time>2026-05-03T08:24:45.959Z</time></trkpt><trkpt lat="46.31115175094401" lon="9.396634701056954"><ele>293.0</ele><time>2026-05-03T08:24:46.959Z</time></trkpt><trkpt lat="46.311288235066826" lon="9.39664795716952"><ele>293.0</ele><time>2026-05-03T08:24:47.959Z</time></trkpt><trkpt lat="46.311418244452994" lon="9.396698279524056"><ele>293.0</ele><time>2026-05-03T08:24:48.959Z</time></trkpt><trkpt lat="46.311534451051855" lon="9.396745875372012"><ele>293.0</ele><time>2026-05-03T08:24:49.959Z</time></trkpt><trkpt lat="46.31165427659489" lon="9.396790260645712"><ele>293.4</ele><time>2026-05-03T08:24:50.959Z</time></trkpt><trkpt lat="46.31177484346073" lon="9.396833805074236"><ele>293.8</ele><time>2026-05-03T08:24:51.959Z</time></trkpt><trkpt lat="46.31188252756249" lon="9.396873664000777"><ele>294.2</ele><time>2026-05-03T08:24:52.959Z</time></trkpt><trkpt lat="46.31197927333406" lon="9.396911402044791"><ele>294.6</ele><time>2026-05-03T08:24:53.959Z</time></trkpt><trkpt lat="46.312062892037034" lon="9.396951997024525"><ele>295.0</ele><time>2026-05-03T08:24:54.959Z</time></trkpt><trkpt lat="46.31214891329038" lon="9.396983235895732"><ele>295.0</ele><time>2026-05-03T08:24:55.959Z</time></trkpt><trkpt lat="46.31223427265537" lon="9.397015102580951"><ele>295.0</ele><time>2026-05-03T08:24:56.959Z</time></trkpt><trkpt lat="46.31232014034946" lon="9.397046706679633"><ele>295.0</ele><time>2026-05-03T08:24:57.959Z</time></trkpt><trkpt lat="46.3124022585563" lon="9.397080141676362"><ele>295.0</ele><time>2026-05-03T08:24:58.959Z</time></trkpt><trkpt lat="46.31247743970241" lon="9.397110568660292"><ele>295.0</ele><time>2026-05-03T08:24:59.959Z</time></trkpt><trkpt lat="46.312548738698084" lon="9.397133283236338"><ele>295.0</ele><time>2026-05-03T08:25:00.959Z</time></trkpt><trkpt lat="46.312615605018244" lon="9.39715492516922"><ele>295.5</ele><time>2026-05-03T08:25:01.959Z</time></trkpt><trkpt lat="46.3126807378085" lon="9.39717699333167"><ele>296.0</ele><time>2026-05-03T08:25:02.959Z</time></trkpt><trkpt lat="46.31275386922108" lon="9.397201312796753"><ele>296.5</ele><time>2026-05-03T08:25:03.959Z</time></trkpt><trkpt lat="46.312834860611105" lon="9.39723130411433"><ele>297.0</ele><time>2026-05-03T08:25:04.959Z</time></trkpt><trkpt lat="46.312921067107524" lon="9.397261362010457"><ele>297.5</ele><time>2026-05-03T08:25:05.959Z</time></trkpt><trkpt lat="46.31301043138872" lon="9.3972900011322"><ele>298.0</ele><time>2026-05-03T08:25:06.959Z</time></trkpt><trkpt lat="46.3130974869979" lon="9.397325187320511"><ele>298.0</ele><time>2026-05-03T08:25:07.959Z</time></trkpt><trkpt lat="46.313183177148" lon="9.397358549025485"><ele>298.0</ele><time>2026-05-03T08:25:08.959Z</time></trkpt><trkpt lat="46.31326508271142" lon="9.39738988209115"><ele>298.0</ele><time>2026-05-03T08:25:09.959Z</time></trkpt><trkpt lat="46.31334929845269" lon="9.39742135073165"><ele>298.0</ele><time>2026-05-03T08:25:10.959Z</time></trkpt><trkpt lat="46.31343215073662" lon="9.397448010298195"><ele>298.0</ele><time>2026-05-03T08:25:11.959Z</time></trkpt><trkpt lat="46.313514903373296" lon="9.39747611835234"><ele>298.0</ele><time>2026-05-03T08:25:12.959Z</time></trkpt><trkpt lat="46.31360271783145" lon="9.397505182720007"><ele>298.0</ele><time>2026-05-03T08:25:13.959Z</time></trkpt><trkpt lat="46.31369399331725" lon="9.397536648841655"><ele>298.0</ele><time>2026-05-03T08:25:14.959Z</time></trkpt><trkpt lat="46.31378926046539" lon="9.397571031603247"><ele>298.0</ele><time>2026-05-03T08:25:15.959Z</time></trkpt><trkpt lat="46.31388646971456" lon="9.397607355186874"><ele>298.0</ele><time>2026-05-03T08:25:16.959Z</time></trkpt><trkpt lat="46.313986065412074" lon="9.397643368575926"><ele>298.0</ele><time>2026-05-03T08:25:17.959Z</time></trkpt><trkpt lat="46.31408612833396" lon="9.397682778178146"><ele>298.0</ele><time>2026-05-03T08:25:18.959Z</time></trkpt><trkpt lat="46.31418027960743" lon="9.397720955897507"><ele>298.0</ele><time>2026-05-03T08:25:19.959Z</time></trkpt><trkpt lat="46.314270432550934" lon="9.397756325959227"><ele>298.0</ele><time>2026-05-03T08:25:20.959Z</time></trkpt><trkpt lat="46.31435820879563" lon="9.397791465699695"><ele>298.0</ele><time>2026-05-03T08:25:21.959Z</time></trkpt><trkpt lat="46.3144443156502" lon="9.397823589052404"><ele>298.0</ele><time>2026-05-03T08:25:22.959Z</time></trkpt><trkpt lat="46.314530439014845" lon="9.39785305102038"><ele>298.0</ele><time>2026-05-03T08:25:23.959Z</time></trkpt><trkpt lat="46.314615447816294" lon="9.397885764026146"><ele>298.0</ele><time>2026-05-03T08:25:24.959Z</time></trkpt><trkpt lat="46.31469955142912" lon="9.397917941626519"><ele>298.0</ele><time>2026-05-03T08:25:25.959Z</time></trkpt><trkpt lat="46.31478202391243" lon="9.397948687107048"><ele>298.0</ele><time>2026-05-03T08:25:26.959Z</time></trkpt><trkpt lat="46.31485426524839" lon="9.397973802388247"><ele>298.0</ele><time>2026-05-03T08:25:27.959Z</time></trkpt><trkpt lat="46.31491893510184" lon="9.397995949967815"><ele>298.0</ele><time>2026-05-03T08:25:28.958Z</time></trkpt><trkpt lat="46.31503058698802" lon="9.398036007092069"><ele>298.2</ele><time>2026-05-03T08:25:30.958Z</time></trkpt><trkpt lat="46.31512689084317" lon="9.398069233535441"><ele>298.4</ele><time>2026-05-03T08:25:32.956Z</time></trkpt><trkpt lat="46.315204113763116" lon="9.398093550411668"><ele>298.59999999999997</ele><time>2026-05-03T08:25:34.956Z</time></trkpt><trkpt lat="46.31528562069338" lon="9.39812441738909"><ele>298.8</ele><time>2026-05-03T08:25:36.956Z</time></trkpt><trkpt lat="46.31539356151423" lon="9.39815357446971"><ele>299.0</ele><time>2026-05-03T08:25:38.956Z</time></trkpt><trkpt lat="46.31547277730851" lon="9.398189046518574"><ele>299.0</ele><time>2026-05-03T08:25:41.956Z</time></trkpt><trkpt lat="46.31553265048236" lon="9.398219874405893"><ele>299.0</ele><time>2026-05-03T08:25:43.956Z</time></trkpt><trkpt lat="46.315602760486534" lon="9.398252477604705"><ele>299.0</ele><time>2026-05-03T08:25:45.955Z</time></trkpt><trkpt lat="46.315671725571136" lon="9.398293236271055"><ele>299.0</ele><time>2026-05-03T08:25:46.955Z</time></trkpt><trkpt lat="46.31576971415791" lon="9.398367131174322"><ele>299.0</ele><time>2026-05-03T08:25:47.955Z</time></trkpt><trkpt lat="46.31589214988233" lon="9.398442976990497"><ele>300.0</ele><time>2026-05-03T08:25:48.955Z</time></trkpt><trkpt lat="46.31600833208535" lon="9.398519813476582"><ele>301.0</ele><time>2026-05-03T08:25:49.955Z</time></trkpt><trkpt lat="46.31613133700184" lon="9.398591611129854"><ele>302.0</ele><time>2026-05-03T08:25:50.955Z</time></trkpt><trkpt lat="46.31625394461003" lon="9.39869281200922"><ele>303.0</ele><time>2026-05-03T08:25:51.955Z</time></trkpt><trkpt lat="46.31635654154971" lon="9.398784117383867"><ele>306.0</ele><time>2026-05-03T08:25:52.955Z</time></trkpt><trkpt lat="46.316451677702545" lon="9.398867686313562"><ele>309.0</ele><time>2026-05-03T08:25:53.955Z</time></trkpt><trkpt lat="46.31654853895579" lon="9.398955652210827"><ele>312.0</ele><time>2026-05-03T08:25:54.955Z</time></trkpt><trkpt lat="46.31664871443846" lon="9.399044703647093"><ele>315.0</ele><time>2026-05-03T08:25:55.955Z</time></trkpt><trkpt lat="46.316749500064056" lon="9.3991396762591"><ele>315.0</ele><time>2026-05-03T08:25:56.955Z</time></trkpt><trkpt lat="46.316849730665986" lon="9.399235420105352"><ele>315.0</ele><time>2026-05-03T08:25:57.955Z</time></trkpt><trkpt lat="46.31694869513807" lon="9.399339932634515"><ele>315.0</ele><time>2026-05-03T08:25:58.955Z</time></trkpt><trkpt lat="46.317047756921106" lon="9.399437875531152"><ele>315.0</ele><time>2026-05-03T08:25:59.955Z</time></trkpt><trkpt lat="46.31714749239576" lon="9.399524267900507"><ele>315.6666666666667</ele><time>2026-05-03T08:26:00.955Z</time></trkpt><trkpt lat="46.317239191299635" lon="9.399593633998556"><ele>316.3333333333333</ele><time>2026-05-03T08:26:01.955Z</time></trkpt><trkpt lat="46.31732000105284" lon="9.399645588562189"><ele>317.0</ele><time>2026-05-03T08:26:02.955Z</time></trkpt><trkpt lat="46.31739404831819" lon="9.399689980559755"><ele>317.66666666666663</ele><time>2026-05-03T08:26:03.955Z</time></trkpt><trkpt lat="46.31745770524184" lon="9.399726593557602"><ele>318.3333333333333</ele><time>2026-05-03T08:26:04.955Z</time></trkpt><trkpt lat="46.317521914515176" lon="9.399757168160146"><ele>319.0</ele><time>2026-05-03T08:26:05.955Z</time></trkpt><trkpt lat="46.31758352593126" lon="9.399776960977855"><ele>319.5</ele><time>2026-05-03T08:26:06.955Z</time></trkpt><trkpt lat="46.31769087503877" lon="9.399803563273027"><ele>320.0</ele><time>2026-05-03T08:26:08.955Z</time></trkpt><trkpt lat="46.317772624749274" lon="9.399821460274604"><ele>320.5</ele><time>2026-05-03T08:26:10.955Z</time></trkpt><trkpt lat="46.31784019119702" lon="9.39983594609149"><ele>321.0</ele><time>2026-05-03T08:26:13.955Z</time></trkpt><trkpt lat="46.31793113046051" lon="9.399862827641433"><ele>321.5</ele><time>2026-05-03T08:26:16.955Z</time></trkpt><trkpt lat="46.3180027092778" lon="9.399864255438645"><ele>322.0</ele><time>2026-05-03T08:26:18.955Z</time></trkpt><trkpt lat="46.3181275460901" lon="9.399854824435883"><ele>322.40000000000003</ele><time>2026-05-03T08:26:20.955Z</time></trkpt><trkpt lat="46.318194418566314" lon="9.399846285811343"><ele>322.8</ele><time>2026-05-03T08:26:21.955Z</time></trkpt><trkpt lat="46.31829187022829" lon="9.399838218803033"><ele>323.2</ele><time>2026-05-03T08:26:23.955Z</time></trkpt><trkpt lat="46.318378133777884" lon="9.399849513479978"><ele>323.6</ele><time>2026-05-03T08:26:25.955Z</time></trkpt><trkpt lat="46.3184566265999" lon="9.399924209771891"><ele>324.0</ele><time>2026-05-03T08:26:27.955Z</time></trkpt><trkpt lat="46.318570976498876" lon="9.399929713145852"><ele>324.0</ele><time>2026-05-03T08:26:29.955Z</time></trkpt><trkpt lat="46.31861957441637" lon="9.399871648913374"><ele>324.0</ele><time>2026-05-03T08:26:30.955Z</time></trkpt><trkpt lat="46.3186517060664" lon="9.399789648987754"><ele>324.0</ele><time>2026-05-03T08:26:31.955Z</time></trkpt><trkpt lat="46.318635114905724" lon="9.399692633242884"><ele>324.0</ele><time>2026-05-03T08:26:33.955Z</time></trkpt><trkpt lat="46.31870264213427" lon="9.399644360799254"><ele>324.0</ele><time>2026-05-03T08:26:34.955Z</time></trkpt><trkpt lat="46.31879107985577" lon="9.399580527542946"><ele>324.0</ele><time>2026-05-03T08:26:38.955Z</time></trkpt><trkpt lat="46.31884510330833" lon="9.399532570807684"><ele>324.0</ele><time>2026-05-03T08:26:47.955Z</time></trkpt><trkpt lat="46.31892397289629" lon="9.39947713246745"><ele>323.1666666666667</ele><time>2026-05-03T08:26:52.955Z</time></trkpt><trkpt lat="46.31899663998487" lon="9.399404673465902"><ele>322.3333333333333</ele><time>2026-05-03T08:26:55.955Z</time></trkpt><trkpt lat="46.319058132927466" lon="9.399352805475615"><ele>321.5</ele><time>2026-05-03T08:26:58.955Z</time></trkpt><trkpt lat="46.319118065655935" lon="9.399298196393788"><ele>320.66666666666663</ele><time>2026-05-03T08:27:01.955Z</time></trkpt><trkpt lat="46.31918347274727" lon="9.399243881600558"><ele>319.8333333333333</ele><time>2026-05-03T08:27:04.955Z</time></trkpt><trkpt lat="46.3192373089063" lon="9.39918339990058"><ele>319.0</ele><time>2026-05-03T08:27:08.955Z</time></trkpt><trkpt lat="46.319309119731486" lon="9.399124907109426"><ele>319.0</ele><time>2026-05-03T08:27:15.955Z</time></trkpt><trkpt lat="46.319393909031554" lon="9.399050460938236"><ele>319.0</ele><time>2026-05-03T08:27:18.955Z</time></trkpt><trkpt lat="46.31945685156042" lon="9.39899486073795"><ele>319.0</ele><time>2026-05-03T08:27:20.955Z</time></trkpt><trkpt lat="46.31953308550005" lon="9.39892755400468"><ele>319.0</ele><time>2026-05-03T08:27:22.955Z</time></trkpt><trkpt lat="46.31963168391513" lon="9.39884137045282"><ele>319.0</ele><time>2026-05-03T08:27:24.955Z</time></trkpt><trkpt lat="46.31968595387624" lon="9.398793933793243"><ele>319.0</ele><time>2026-05-03T08:27:25.955Z</time></trkpt><trkpt lat="46.319744084779536" lon="9.39874288888409"><ele>320.2</ele><time>2026-05-03T08:27:26.955Z</time></trkpt><trkpt lat="46.31980471835508" lon="9.398689505836165"><ele>321.4</ele><time>2026-05-03T08:27:27.955Z</time></trkpt><trkpt lat="46.31986155079073" lon="9.398639616730659"><ele>322.6</ele><time>2026-05-03T08:27:28.955Z</time></trkpt><trkpt lat="46.31991859253021" lon="9.398589536644009"><ele>323.8</ele><time>2026-05-03T08:27:29.955Z</time></trkpt><trkpt lat="46.32002548281627" lon="9.398495691882975"><ele>325.0</ele><time>2026-05-03T08:27:31.955Z</time></trkpt><trkpt lat="46.3201303609912" lon="9.398403613572004"><ele>325.0</ele><time>2026-05-03T08:27:33.955Z</time></trkpt><trkpt lat="46.32018730780062" lon="9.398353616852868"><ele>325.0</ele><time>2026-05-03T08:27:34.955Z</time></trkpt><trkpt lat="46.32024162520414" lon="9.398305928662648"><ele>325.0</ele><time>2026-05-03T08:27:35.955Z</time></trkpt><trkpt lat="46.32034081120161" lon="9.398218847862088"><ele>325.0</ele><time>2026-05-03T08:27:37.954Z</time></trkpt><trkpt lat="46.32042231091941" lon="9.398147294801403"><ele>325.0</ele><time>2026-05-03T08:27:39.954Z</time></trkpt><trkpt lat="46.32048277344125" lon="9.398078551481793"><ele>325.0</ele><time>2026-05-03T08:27:43.953Z</time></trkpt><trkpt lat="46.32054767250115" lon="9.398022766940437"><ele>325.16666666666663</ele><time>2026-05-03T08:27:47.954Z</time></trkpt><trkpt lat="46.32060892762768" lon="9.397978331231776"><ele>325.3333333333333</ele><time>2026-05-03T08:27:51.954Z</time></trkpt><trkpt lat="46.32066207068878" lon="9.397908853489731"><ele>325.5</ele><time>2026-05-03T08:28:01.954Z</time></trkpt><trkpt lat="46.32072950356134" lon="9.397901853084297"><ele>325.6666666666667</ele><time>2026-05-03T08:28:03.954Z</time></trkpt><trkpt lat="46.32084233462048" lon="9.397854256405415"><ele>325.83333333333337</ele><time>2026-05-03T08:28:05.954Z</time></trkpt><trkpt lat="46.320936010152785" lon="9.39778869588867"><ele>326.0</ele><time>2026-05-03T08:28:07.954Z</time></trkpt><trkpt lat="46.3209552387845" lon="9.397583187220128"><ele>326.0</ele><time>2026-05-03T08:28:09.954Z</time></trkpt><trkpt lat="46.32097358336291" lon="9.397460076715324"><ele>326.0</ele><time>2026-05-03T08:28:10.954Z</time></trkpt><trkpt lat="46.320986202360594" lon="9.39733660129187"><ele>326.0</ele><time>2026-05-03T08:28:11.954Z</time></trkpt><trkpt lat="46.321022370085956" lon="9.3972012822374"><ele>326.0</ele><time>2026-05-03T08:28:12.954Z</time></trkpt><trkpt lat="46.321032575868756" lon="9.397051941343056"><ele>326.0</ele><time>2026-05-03T08:28:13.954Z</time></trkpt><trkpt lat="46.321030091834714" lon="9.396900146853357"><ele>326.4</ele><time>2026-05-03T08:28:14.954Z</time></trkpt><trkpt lat="46.32104494169138" lon="9.396750273837943"><ele>326.8</ele><time>2026-05-03T08:28:15.954Z</time></trkpt><trkpt lat="46.321061098681824" lon="9.39659370373073"><ele>327.2</ele><time>2026-05-03T08:28:16.954Z</time></trkpt><trkpt lat="46.32106674188832" lon="9.396433823113078"><ele>327.59999999999997</ele><time>2026-05-03T08:28:17.954Z</time></trkpt><trkpt lat="46.321071851140985" lon="9.396281674950233"><ele>328.0</ele><time>2026-05-03T08:28:18.954Z</time></trkpt><trkpt lat="46.32107474259849" lon="9.396136332922575"><ele>328.25</ele><time>2026-05-03T08:28:19.954Z</time></trkpt><trkpt lat="46.32107178748439" lon="9.3959888996659"><ele>328.5</ele><time>2026-05-03T08:28:20.954Z</time></trkpt><trkpt lat="46.32107401867701" lon="9.395822928462701"><ele>328.75</ele><time>2026-05-03T08:28:21.954Z</time></trkpt><trkpt lat="46.32106054066219" lon="9.395627414700586"><ele>329.0</ele><time>2026-05-03T08:28:22.954Z</time></trkpt><trkpt lat="46.32103549497104" lon="9.395378521690832"><ele>329.33333333333337</ele><time>2026-05-03T08:28:23.954Z</time></trkpt><trkpt lat="46.32103435911611" lon="9.39508182078024"><ele>329.6666666666667</ele><time>2026-05-03T08:28:24.954Z</time></trkpt><trkpt lat="46.32100908892333" lon="9.394809052551272"><ele>330.0</ele><time>2026-05-03T08:28:25.954Z</time></trkpt><trkpt lat="46.32101703134797" lon="9.394551874947227"><ele>330.6666666666667</ele><time>2026-05-03T08:28:26.954Z</time></trkpt><trkpt lat="46.32101193466166" lon="9.394299563680534"><ele>331.33333333333337</ele><time>2026-05-03T08:28:27.954Z</time></trkpt><trkpt lat="46.32099206826142" lon="9.394044189810174"><ele>332.0</ele><time>2026-05-03T08:28:28.954Z</time></trkpt><trkpt lat="46.320992225076935" lon="9.393791231520805"><ele>333.0</ele><time>2026-05-03T08:28:29.954Z</time></trkpt><trkpt lat="46.320978787777484" lon="9.393544970314023"><ele>334.0</ele><time>2026-05-03T08:28:30.954Z</time></trkpt><trkpt lat="46.32097750218708" lon="9.393306103615464"><ele>335.0</ele><time>2026-05-03T08:28:31.954Z</time></trkpt><trkpt lat="46.32097367311617" lon="9.393088883370837"><ele>335.0</ele><time>2026-05-03T08:28:32.954Z</time></trkpt><trkpt lat="46.32098599565712" lon="9.392880531796356"><ele>335.0</ele><time>2026-05-03T08:28:33.954Z</time></trkpt><trkpt lat="46.320981745404055" lon="9.392669724480744"><ele>335.0</ele><time>2026-05-03T08:28:34.954Z</time></trkpt><trkpt lat="46.32099907833037" lon="9.392461002359342"><ele>335.0</ele><time>2026-05-03T08:28:35.954Z</time></trkpt><trkpt lat="46.32103656268012" lon="9.39225145820192"><ele>335.5</ele><time>2026-05-03T08:28:36.954Z</time></trkpt><trkpt lat="46.321071324768" lon="9.392041435326718"><ele>336.0</ele><time>2026-05-03T08:28:37.954Z</time></trkpt><trkpt lat="46.321104578358685" lon="9.391843389487864"><ele>336.5</ele><time>2026-05-03T08:28:38.954Z</time></trkpt><trkpt lat="46.32113333454878" lon="9.391643047800411"><ele>337.0</ele><time>2026-05-03T08:28:39.954Z</time></trkpt><trkpt lat="46.321163352952944" lon="9.391446580565413"><ele>338.0</ele><time>2026-05-03T08:28:40.954Z</time></trkpt><trkpt lat="46.3211901975935" lon="9.39124660176817"><ele>339.0</ele><time>2026-05-03T08:28:41.954Z</time></trkpt><trkpt lat="46.32121916416548" lon="9.391048436970571"><ele>340.0</ele><time>2026-05-03T08:28:42.954Z</time></trkpt><trkpt lat="46.32124935369792" lon="9.390847563326128"><ele>341.0</ele><time>2026-05-03T08:28:43.954Z</time></trkpt><trkpt lat="46.32127874334089" lon="9.390645147158967"><ele>342.75</ele><time>2026-05-03T08:28:44.954Z</time></trkpt><trkpt lat="46.321309492856486" lon="9.390444278747271"><ele>344.5</ele><time>2026-05-03T08:28:45.954Z</time></trkpt><trkpt lat="46.32133359735787" lon="9.390235816714009"><ele>346.25</ele><time>2026-05-03T08:28:46.954Z</time></trkpt><trkpt lat="46.321362982954625" lon="9.390037359534373"><ele>348.0</ele><time>2026-05-03T08:28:47.954Z</time></trkpt><trkpt lat="46.3213896748994" lon="9.389824203479352"><ele>351.5</ele><time>2026-05-03T08:28:48.954Z</time></trkpt><trkpt lat="46.321418065861025" lon="9.389631142010659"><ele>355.0</ele><time>2026-05-03T08:28:49.954Z</time></trkpt><trkpt lat="46.32144540628178" lon="9.38945100761123"><ele>358.5</ele><time>2026-05-03T08:28:50.954Z</time></trkpt><trkpt lat="46.321473900846684" lon="9.389299660343005"><ele>362.0</ele><time>2026-05-03T08:28:51.954Z</time></trkpt><trkpt lat="46.32151473605823" lon="9.389157382047523"><ele>362.0</ele><time>2026-05-03T08:28:52.954Z</time></trkpt><trkpt lat="46.321557585453526" lon="9.389015287548741"><ele>362.0</ele><time>2026-05-03T08:28:53.954Z</time></trkpt><trkpt lat="46.32160893978374" lon="9.388881526434242"><ele>362.0</ele><time>2026-05-03T08:28:54.954Z</time></trkpt><trkpt lat="46.32167712547307" lon="9.388746045845544"><ele>362.0</ele><time>2026-05-03T08:28:55.954Z</time></trkpt><trkpt lat="46.321754917423995" lon="9.388611282828593"><ele>361.75</ele><time>2026-05-03T08:28:56.954Z</time></trkpt><trkpt lat="46.32184191884071" lon="9.388478933656302"><ele>361.5</ele><time>2026-05-03T08:28:57.954Z</time></trkpt><trkpt lat="46.32192409892968" lon="9.38834812192143"><ele>361.25</ele><time>2026-05-03T08:28:58.954Z</time></trkpt><trkpt lat="46.32200698545425" lon="9.388213231234893"><ele>361.0</ele><time>2026-05-03T08:28:59.954Z</time></trkpt><trkpt lat="46.32209414930081" lon="9.388079331239329"><ele>361.25</ele><time>2026-05-03T08:29:00.954Z</time></trkpt><trkpt lat="46.322159264289965" lon="9.387904872975513"><ele>361.5</ele><time>2026-05-03T08:29:01.954Z</time></trkpt><trkpt lat="46.32223671958861" lon="9.387743251249669"><ele>361.75</ele><time>2026-05-03T08:29:02.954Z</time></trkpt><trkpt lat="46.32228833117857" lon="9.387520126592177"><ele>362.0</ele><time>2026-05-03T08:29:03.954Z</time></trkpt><trkpt lat="46.32234587357678" lon="9.387244336248335"><ele>366.0</ele><time>2026-05-03T08:29:04.954Z</time></trkpt><trkpt lat="46.322403192800024" lon="9.386966564570582"><ele>370.0</ele><time>2026-05-03T08:29:05.954Z</time></trkpt><trkpt lat="46.322434376575394" lon="9.386730695766783"><ele>374.0</ele><time>2026-05-03T08:29:06.954Z</time></trkpt><trkpt lat="46.32247454892154" lon="9.386545835773498"><ele>374.0</ele><time>2026-05-03T08:29:07.954Z</time></trkpt><trkpt lat="46.322513975324874" lon="9.386397995163268"><ele>374.0</ele><time>2026-05-03T08:29:08.954Z</time></trkpt><trkpt lat="46.32255832163065" lon="9.386271517182635"><ele>374.0</ele><time>2026-05-03T08:29:09.954Z</time></trkpt><trkpt lat="46.32261469058553" lon="9.386136381933014"><ele>374.0</ele><time>2026-05-03T08:29:10.954Z</time></trkpt><trkpt lat="46.32268713773256" lon="9.385985890548168"><ele>374.0</ele><time>2026-05-03T08:29:11.954Z</time></trkpt><trkpt lat="46.322784134978626" lon="9.385819458933078"><ele>373.6666666666667</ele><time>2026-05-03T08:29:12.954Z</time></trkpt><trkpt lat="46.32288526691755" lon="9.385628346465102"><ele>373.3333333333333</ele><time>2026-05-03T08:29:13.954Z</time></trkpt><trkpt lat="46.32301188540731" lon="9.385406997553359"><ele>373.0</ele><time>2026-05-03T08:29:14.954Z</time></trkpt><trkpt lat="46.32315127212413" lon="9.385175539638324"><ele>376.0</ele><time>2026-05-03T08:29:15.954Z</time></trkpt><trkpt lat="46.32327020780494" lon="9.384980060138252"><ele>379.0</ele><time>2026-05-03T08:29:16.954Z</time></trkpt><trkpt lat="46.323383979088966" lon="9.384801329417984"><ele>382.0</ele><time>2026-05-03T08:29:17.954Z</time></trkpt><trkpt lat="46.32349026949382" lon="9.3846195604597"><ele>382.0</ele><time>2026-05-03T08:29:18.954Z</time></trkpt><trkpt lat="46.32357720900902" lon="9.384414502292676"><ele>382.0</ele><time>2026-05-03T08:29:19.954Z</time></trkpt><trkpt lat="46.32365089581954" lon="9.384202941914015"><ele>382.0</ele><time>2026-05-03T08:29:20.954Z</time></trkpt><trkpt lat="46.32370667182916" lon="9.383973758452846"><ele>379.0</ele><time>2026-05-03T08:29:21.954Z</time></trkpt><trkpt lat="46.32375513444261" lon="9.38373872012777"><ele>376.0</ele><time>2026-05-03T08:29:22.954Z</time></trkpt><trkpt lat="46.32378584695144" lon="9.383506896679005"><ele>373.0</ele><time>2026-05-03T08:29:23.954Z</time></trkpt><trkpt lat="46.323805483752004" lon="9.383279447648446"><ele>373.0</ele><time>2026-05-03T08:29:24.954Z</time></trkpt><trkpt lat="46.32382937354795" lon="9.383068102316738"><ele>373.0</ele><time>2026-05-03T08:29:25.954Z</time></trkpt><trkpt lat="46.32386387580962" lon="9.382853342003354"><ele>373.0</ele><time>2026-05-03T08:29:26.954Z</time></trkpt><trkpt lat="46.323923188525626" lon="9.382649764467315"><ele>379.3333333333333</ele><time>2026-05-03T08:29:27.954Z</time></trkpt><trkpt lat="46.32398941732549" lon="9.382449691789056"><ele>385.66666666666663</ele><time>2026-05-03T08:29:28.954Z</time></trkpt><trkpt lat="46.324070860995285" lon="9.38225390576263"><ele>392.0</ele><time>2026-05-03T08:29:29.954Z</time></trkpt><trkpt lat="46.32414095060873" lon="9.382035996139654"><ele>392.0</ele><time>2026-05-03T08:29:30.954Z</time></trkpt><trkpt lat="46.32417503974529" lon="9.381787455943318"><ele>392.0</ele><time>2026-05-03T08:29:31.954Z</time></trkpt><trkpt lat="46.32419938084628" lon="9.381517936731644"><ele>392.0</ele><time>2026-05-03T08:29:32.954Z</time></trkpt><trkpt lat="46.324234145473056" lon="9.381254361632555"><ele>390.0</ele><time>2026-05-03T08:29:33.954Z</time></trkpt><trkpt lat="46.32427723910413" lon="9.380984743636729"><ele>388.0</ele><time>2026-05-03T08:29:34.954Z</time></trkpt><trkpt lat="46.324324041631876" lon="9.380728167144415"><ele>386.0</ele><time>2026-05-03T08:29:35.954Z</time></trkpt><trkpt lat="46.324378666631056" lon="9.380482602654721"><ele>386.0</ele><time>2026-05-03T08:29:36.954Z</time></trkpt><trkpt lat="46.324476648540525" lon="9.380296361072965"><ele>386.0</ele><time>2026-05-03T08:29:37.954Z</time></trkpt><trkpt lat="46.32457564255113" lon="9.380121484691312"><ele>386.0</ele><time>2026-05-03T08:29:38.954Z</time></trkpt><trkpt lat="46.32468206455167" lon="9.379941869751923"><ele>392.66666666666663</ele><time>2026-05-03T08:29:39.954Z</time></trkpt><trkpt lat="46.32479031744668" lon="9.37974937962469"><ele>399.33333333333337</ele><time>2026-05-03T08:29:40.954Z</time></trkpt><trkpt lat="46.32486977669987" lon="9.379537708951077"><ele>406.0</ele><time>2026-05-03T08:29:41.954Z</time></trkpt><trkpt lat="46.324941300453766" lon="9.379321705992323"><ele>406.0</ele><time>2026-05-03T08:29:42.954Z</time></trkpt><trkpt lat="46.324983708824476" lon="9.379127101294827"><ele>406.0</ele><time>2026-05-03T08:29:43.951Z</time></trkpt><trkpt lat="46.32502639208863" lon="9.378943739755767"><ele>406.0</ele><time>2026-05-03T08:29:44.95Z</time></trkpt><trkpt lat="46.32506687393372" lon="9.378758626619646"><ele>406.0</ele><time>2026-05-03T08:29:45.95Z</time></trkpt><trkpt lat="46.325110338132966" lon="9.378561526104859"><ele>403.0</ele><time>2026-05-03T08:29:46.95Z</time></trkpt><trkpt lat="46.325186525476354" lon="9.378400179562682"><ele>400.0</ele><time>2026-05-03T08:29:47.951Z</time></trkpt><trkpt lat="46.32526409078989" lon="9.378250918947417"><ele>397.0</ele><time>2026-05-03T08:29:48.951Z</time></trkpt><trkpt lat="46.32535227439474" lon="9.378109134966708"><ele>394.0</ele><time>2026-05-03T08:29:49.951Z</time></trkpt><trkpt lat="46.32545318906239" lon="9.377983964717572"><ele>397.25</ele><time>2026-05-03T08:29:50.951Z</time></trkpt><trkpt lat="46.32556723737492" lon="9.377870210742188"><ele>400.5</ele><time>2026-05-03T08:29:51.951Z</time></trkpt><trkpt lat="46.325679273607605" lon="9.377752003673026"><ele>403.75</ele><time>2026-05-03T08:29:52.951Z</time></trkpt><trkpt lat="46.32578937749189" lon="9.377609202167584"><ele>407.0</ele><time>2026-05-03T08:29:53.95Z</time></trkpt><trkpt lat="46.325911971638384" lon="9.377477700909484"><ele>407.0</ele><time>2026-05-03T08:29:54.95Z</time></trkpt><trkpt lat="46.32605104655339" lon="9.377317361738807"><ele>407.0</ele><time>2026-05-03T08:29:55.951Z</time></trkpt><trkpt lat="46.326192338590964" lon="9.377105570155502"><ele>407.0</ele><time>2026-05-03T08:29:56.95Z</time></trkpt><trkpt lat="46.32634783742714" lon="9.376866058235386"><ele>413.0</ele><time>2026-05-03T08:29:57.95Z</time></trkpt><trkpt lat="46.32651927788909" lon="9.376607873357898"><ele>419.0</ele><time>2026-05-03T08:29:58.95Z</time></trkpt><trkpt lat="46.32665890006338" lon="9.376364033480293"><ele>416.3333333333333</ele><time>2026-05-03T08:29:59.95Z</time></trkpt><trkpt lat="46.326786927751094" lon="9.37615433327689"><ele>413.66666666666663</ele><time>2026-05-03T08:30:00.95Z</time></trkpt><trkpt lat="46.326918852272435" lon="9.375993133665066"><ele>411.0</ele><time>2026-05-03T08:30:01.95Z</time></trkpt><trkpt lat="46.327076924171216" lon="9.375933812072285"><ele>417.0</ele><time>2026-05-03T08:30:02.95Z</time></trkpt><trkpt lat="46.327262222260046" lon="9.375878150076222"><ele>423.0</ele><time>2026-05-03T08:30:03.95Z</time></trkpt><trkpt lat="46.32746025169354" lon="9.375822746395347"><ele>429.0</ele><time>2026-05-03T08:30:04.95Z</time></trkpt><trkpt lat="46.32765560385038" lon="9.375716240527154"><ele>429.0</ele><time>2026-05-03T08:30:05.95Z</time></trkpt><trkpt lat="46.32785111761213" lon="9.375573948039703"><ele>429.0</ele><time>2026-05-03T08:30:06.95Z</time></trkpt><trkpt lat="46.32804961890022" lon="9.375434903608484"><ele>429.0</ele><time>2026-05-03T08:30:07.95Z</time></trkpt><trkpt lat="46.32824291827924" lon="9.375304614452055"><ele>428.33333333333337</ele><time>2026-05-03T08:30:08.95Z</time></trkpt><trkpt lat="46.3284393052429" lon="9.375204624436739"><ele>427.6666666666667</ele><time>2026-05-03T08:30:09.95Z</time></trkpt><trkpt lat="46.32863504340935" lon="9.3751106010293"><ele>427.0</ele><time>2026-05-03T08:30:10.95Z</time></trkpt><trkpt lat="46.328829687164955" lon="9.375017103742369"><ele>432.33333333333337</ele><time>2026-05-03T08:30:11.95Z</time></trkpt><trkpt lat="46.32901793603204" lon="9.374928973507213"><ele>437.66666666666663</ele><time>2026-05-03T08:30:12.95Z</time></trkpt><trkpt lat="46.329208662972" lon="9.374838520424834"><ele>443.0</ele><time>2026-05-03T08:30:13.95Z</time></trkpt><trkpt lat="46.32939127166964" lon="9.374750881069886"><ele>441.0</ele><time>2026-05-03T08:30:14.95Z</time></trkpt><trkpt lat="46.32957300614949" lon="9.374662865025115"><ele>439.0</ele><time>2026-05-03T08:30:15.95Z</time></trkpt><trkpt lat="46.32974523303862" lon="9.37454804967015"><ele>437.0</ele><time>2026-05-03T08:30:16.95Z</time></trkpt><trkpt lat="46.329908125039985" lon="9.37442484301519"><ele>437.0</ele><time>2026-05-03T08:30:17.95Z</time></trkpt><trkpt lat="46.33006077453625" lon="9.374264414048865"><ele>437.0</ele><time>2026-05-03T08:30:18.95Z</time></trkpt><trkpt lat="46.33020966253904" lon="9.374088127262947"><ele>437.0</ele><time>2026-05-03T08:30:19.95Z</time></trkpt><trkpt lat="46.330374083323925" lon="9.373950842697484"><ele>436.66666666666663</ele><time>2026-05-03T08:30:20.95Z</time></trkpt><trkpt lat="46.33055165974986" lon="9.373836105797336"><ele>436.33333333333337</ele><time>2026-05-03T08:30:21.95Z</time></trkpt><trkpt lat="46.33074766487611" lon="9.373723424658607"><ele>436.0</ele><time>2026-05-03T08:30:22.95Z</time></trkpt><trkpt lat="46.33094612766391" lon="9.373610966491443"><ele>435.6666666666667</ele><time>2026-05-03T08:30:23.95Z</time></trkpt><trkpt lat="46.33114269480495" lon="9.373495082001083"><ele>435.33333333333337</ele><time>2026-05-03T08:30:24.95Z</time></trkpt><trkpt lat="46.3313373165468" lon="9.373381489507722"><ele>435.0</ele><time>2026-05-03T08:30:25.95Z</time></trkpt><trkpt lat="46.331529172482995" lon="9.373266060788083"><ele>437.0</ele><time>2026-05-03T08:30:26.95Z</time></trkpt><trkpt lat="46.331715917098194" lon="9.373153627934556"><ele>439.0</ele><time>2026-05-03T08:30:27.95Z</time></trkpt><trkpt lat="46.33189921720403" lon="9.373033923193171"><ele>441.0</ele><time>2026-05-03T08:30:28.95Z</time></trkpt><trkpt lat="46.33208245440963" lon="9.372917068575948"><ele>444.0</ele><time>2026-05-03T08:30:29.95Z</time></trkpt><trkpt lat="46.33226651878109" lon="9.372809921834508"><ele>447.0</ele><time>2026-05-03T08:30:30.95Z</time></trkpt><trkpt lat="46.332456643894766" lon="9.372720273035512"><ele>450.0</ele><time>2026-05-03T08:30:31.95Z</time></trkpt><trkpt lat="46.33264393487403" lon="9.372673883308849"><ele>450.0</ele><time>2026-05-03T08:30:32.95Z</time></trkpt><trkpt lat="46.3328349983468" lon="9.372616371248705"><ele>450.0</ele><time>2026-05-03T08:30:33.95Z</time></trkpt><trkpt lat="46.33302772470062" lon="9.372546261276826"><ele>450.0</ele><time>2026-05-03T08:30:34.95Z</time></trkpt><trkpt lat="46.33320161628614" lon="9.372484264449415"><ele>451.33333333333337</ele><time>2026-05-03T08:30:35.95Z</time></trkpt><trkpt lat="46.33337256814052" lon="9.372354167505534"><ele>452.6666666666667</ele><time>2026-05-03T08:30:36.95Z</time></trkpt><trkpt lat="46.333540292181276" lon="9.372180372556128"><ele>454.0</ele><time>2026-05-03T08:30:37.95Z</time></trkpt><trkpt lat="46.33370785808273" lon="9.372016929194663"><ele>454.0</ele><time>2026-05-03T08:30:38.95Z</time></trkpt><trkpt lat="46.33384627526236" lon="9.371886653960942"><ele>454.0</ele><time>2026-05-03T08:30:39.95Z</time></trkpt><trkpt lat="46.33397089279447" lon="9.371760313193999"><ele>454.0</ele><time>2026-05-03T08:30:40.95Z</time></trkpt><trkpt lat="46.334080268738184" lon="9.371632686319764"><ele>456.5</ele><time>2026-05-03T08:30:41.95Z</time></trkpt><trkpt lat="46.33416284841387" lon="9.37148419341723"><ele>459.0</ele><time>2026-05-03T08:30:42.95Z</time></trkpt><trkpt lat="46.33418286487835" lon="9.37127136438885"><ele>461.5</ele><time>2026-05-03T08:30:43.95Z</time></trkpt><trkpt lat="46.33420879332749" lon="9.371063158885281"><ele>464.0</ele><time>2026-05-03T08:30:44.95Z</time></trkpt><trkpt lat="46.33428904178661" lon="9.370893127164143"><ele>464.0</ele><time>2026-05-03T08:30:45.95Z</time></trkpt><trkpt lat="46.33438647407027" lon="9.370726575468906"><ele>464.0</ele><time>2026-05-03T08:30:46.95Z</time></trkpt><trkpt lat="46.33450214777645" lon="9.370613999744618"><ele>464.0</ele><time>2026-05-03T08:30:47.95Z</time></trkpt><trkpt lat="46.334571838643356" lon="9.370505386040001"><ele>464.0</ele><time>2026-05-03T08:30:48.95Z</time></trkpt><trkpt lat="46.33461653565468" lon="9.370414014953163"><ele>464.0</ele><time>2026-05-03T08:30:49.95Z</time></trkpt><trkpt lat="46.33467828921061" lon="9.370358325871925"><ele>464.0</ele><time>2026-05-03T08:30:51.95Z</time></trkpt><trkpt lat="46.334689156644195" lon="9.370489484042341"><ele>464.0</ele><time>2026-05-03T08:30:53.95Z</time></trkpt><trkpt lat="46.33458558761502" lon="9.370557826197185"><ele>464.0</ele><time>2026-05-03T08:30:54.95Z</time></trkpt><trkpt lat="46.33448266602668" lon="9.370721697985088"><ele>464.0</ele><time>2026-05-03T08:30:55.95Z</time></trkpt><trkpt lat="46.33438553456" lon="9.37087665694714"><ele>464.0</ele><time>2026-05-03T08:30:56.95Z</time></trkpt><trkpt lat="46.33432329247222" lon="9.370991358262229"><ele>464.0</ele><time>2026-05-03T08:30:57.95Z</time></trkpt><trkpt lat="46.33427907839612" lon="9.371105470063156"><ele>464.0</ele><time>2026-05-03T08:30:59.95Z</time></trkpt><trkpt lat="46.334397324249984" lon="9.371211076077808"><ele>464.0</ele><time>2026-05-03T08:31:01.95Z</time></trkpt><trkpt lat="46.33448920977526" lon="9.371120240198534"><ele>464.0</ele><time>2026-05-03T08:31:02.95Z</time></trkpt><trkpt lat="46.334593546712455" lon="9.370980524478357"><ele>467.75</ele><time>2026-05-03T08:31:03.95Z</time></trkpt><trkpt lat="46.3347235903452" lon="9.370831034520055"><ele>471.5</ele><time>2026-05-03T08:31:04.95Z</time></trkpt><trkpt lat="46.33486143323235" lon="9.370680683868635"><ele>475.25</ele><time>2026-05-03T08:31:05.95Z</time></trkpt><trkpt lat="46.334938315803086" lon="9.370582668158239"><ele>479.0</ele><time>2026-05-03T08:31:06.95Z</time></trkpt><trkpt lat="46.33499382311482" lon="9.370518505430441"><ele>481.25</ele><time>2026-05-03T08:31:08.95Z</time></trkpt><trkpt lat="46.3350153500797" lon="9.370656993220592"><ele>483.5</ele><time>2026-05-03T08:31:10.95Z</time></trkpt><trkpt lat="46.33495639963126" lon="9.370766409555982"><ele>485.75</ele><time>2026-05-03T08:31:11.95Z</time></trkpt><trkpt lat="46.334879743941336" lon="9.370910230380158"><ele>488.0</ele><time>2026-05-03T08:31:12.95Z</time></trkpt><trkpt lat="46.33480197063013" lon="9.371069415358956"><ele>488.0</ele><time>2026-05-03T08:31:13.95Z</time></trkpt><trkpt lat="46.33473110471487" lon="9.371215096957789"><ele>487.99999999999994</ele><time>2026-05-03T08:31:14.95Z</time></trkpt><trkpt lat="46.334667077295336" lon="9.371337514236275"><ele>487.99999999999994</ele><time>2026-05-03T08:31:15.95Z</time></trkpt><trkpt lat="46.334640742545886" lon="9.37142883589777"><ele>488.0</ele><time>2026-05-03T08:31:16.95Z</time></trkpt><trkpt lat="46.33473398331043" lon="9.371527965301906"><ele>488.0</ele><time>2026-05-03T08:31:18.95Z</time></trkpt><trkpt lat="46.334814350090944" lon="9.371499894433038"><ele>488.0</ele><time>2026-05-03T08:31:19.95Z</time></trkpt><trkpt lat="46.33490184878092" lon="9.371408561816446"><ele>488.0</ele><time>2026-05-03T08:31:20.95Z</time></trkpt><trkpt lat="46.33500954227264" lon="9.371270597030245"><ele>488.0</ele><time>2026-05-03T08:31:21.95Z</time></trkpt><trkpt lat="46.335139684107446" lon="9.371110458999071"><ele>488.0</ele><time>2026-05-03T08:31:22.95Z</time></trkpt><trkpt lat="46.33527753883576" lon="9.370953929566282"><ele>488.0</ele><time>2026-05-03T08:31:23.95Z</time></trkpt><trkpt lat="46.335396314690854" lon="9.370828528668918"><ele>488.0</ele><time>2026-05-03T08:31:24.95Z</time></trkpt><trkpt lat="46.33551365560567" lon="9.370702454531772"><ele>488.0</ele><time>2026-05-03T08:31:25.95Z</time></trkpt><trkpt lat="46.335635198138164" lon="9.370573084768592"><ele>488.0</ele><time>2026-05-03T08:31:26.95Z</time></trkpt><trkpt lat="46.33576092754353" lon="9.370442025932"><ele>491.75</ele><time>2026-05-03T08:31:27.95Z</time></trkpt><trkpt lat="46.33587716530792" lon="9.370318061441692"><ele>495.5</ele><time>2026-05-03T08:31:28.95Z</time></trkpt><trkpt lat="46.33597940178225" lon="9.370205010128636"><ele>499.25</ele><time>2026-05-03T08:31:29.95Z</time></trkpt><trkpt lat="46.33605804319562" lon="9.370090813686241"><ele>503.0</ele><time>2026-05-03T08:31:30.95Z</time></trkpt><trkpt lat="46.336117163781836" lon="9.369967300071655"><ele>503.0</ele><time>2026-05-03T08:31:31.95Z</time></trkpt><trkpt lat="46.33616431336365" lon="9.369852829582605"><ele>502.99999999999994</ele><time>2026-05-03T08:31:32.95Z</time></trkpt><trkpt lat="46.33622002193805" lon="9.369753181516876"><ele>502.99999999999994</ele><time>2026-05-03T08:31:33.95Z</time></trkpt><trkpt lat="46.336291161309795" lon="9.369678300152232"><ele>503.0</ele><time>2026-05-03T08:31:34.95Z</time></trkpt><trkpt lat="46.33637111274193" lon="9.369623714556985"><ele>503.0</ele><time>2026-05-03T08:31:35.95Z</time></trkpt><trkpt lat="46.33646328904392" lon="9.369594565305212"><ele>506.59999999999997</ele><time>2026-05-03T08:31:36.95Z</time></trkpt><trkpt lat="46.33655375287151" lon="9.369589797630757"><ele>510.19999999999993</ele><time>2026-05-03T08:31:37.95Z</time></trkpt><trkpt lat="46.33663304148967" lon="9.369635388555475"><ele>513.8</ele><time>2026-05-03T08:31:38.95Z</time></trkpt><trkpt lat="46.33672148253803" lon="9.369737884724408"><ele>517.4</ele><time>2026-05-03T08:31:39.95Z</time></trkpt><trkpt lat="46.33680479555856" lon="9.369826658159733"><ele>521.0</ele><time>2026-05-03T08:31:40.95Z</time></trkpt><trkpt lat="46.336894882985405" lon="9.369902096698336"><ele>522.1666666666666</ele><time>2026-05-03T08:31:41.95Z</time></trkpt><trkpt lat="46.33696979213857" lon="9.369997769718184"><ele>523.3333333333333</ele><time>2026-05-03T08:31:42.95Z</time></trkpt><trkpt lat="46.33703551064345" lon="9.370058512954271"><ele>524.5</ele><time>2026-05-03T08:31:43.95Z</time></trkpt><trkpt lat="46.33714312894626" lon="9.370131593661194"><ele>525.6666666666666</ele><time>2026-05-03T08:31:45.95Z</time></trkpt><trkpt lat="46.33720424267883" lon="9.370161287162995"><ele>526.8333333333334</ele><time>2026-05-03T08:31:46.95Z</time></trkpt><trkpt lat="46.33727554624264" lon="9.370162198271933"><ele>528.0</ele><time>2026-05-03T08:31:47.95Z</time></trkpt><trkpt lat="46.337392577545174" lon="9.370140983975316"><ele>529.6666666666666</ele><time>2026-05-03T08:31:48.95Z</time></trkpt><trkpt lat="46.33754877448739" lon="9.370078728716322"><ele>531.3333333333333</ele><time>2026-05-03T08:31:49.947Z</time></trkpt><trkpt lat="46.33774739458867" lon="9.369996490169289"><ele>533.0</ele><time>2026-05-03T08:31:50.947Z</time></trkpt><trkpt lat="46.33793769623363" lon="9.369917694629802"><ele>533.25</ele><time>2026-05-03T08:31:51.947Z</time></trkpt><trkpt lat="46.338103626557356" lon="9.36984998108805"><ele>533.5</ele><time>2026-05-03T08:31:52.947Z</time></trkpt><trkpt lat="46.33822147960049" lon="9.369780053719483"><ele>533.75</ele><time>2026-05-03T08:31:53.947Z</time></trkpt><trkpt lat="46.3383149831193" lon="9.369746217770636"><ele>534.0</ele><time>2026-05-03T08:31:54.947Z</time></trkpt><trkpt lat="46.33839110865431" lon="9.369722457706143"><ele>534.0</ele><time>2026-05-03T08:31:55.947Z</time></trkpt><trkpt lat="46.33849792542946" lon="9.36982331172656"><ele>534.0</ele><time>2026-05-03T08:31:57.947Z</time></trkpt><trkpt lat="46.338507665317366" lon="9.36995519048422"><ele>534.0</ele><time>2026-05-03T08:31:58.947Z</time></trkpt><trkpt lat="46.3384378518636" lon="9.3700697526766"><ele>534.0</ele><time>2026-05-03T08:31:59.947Z</time></trkpt><trkpt lat="46.33835945963851" lon="9.370257178611773"><ele>534.0</ele><time>2026-05-03T08:32:00.947Z</time></trkpt><trkpt lat="46.33828450797872" lon="9.37041074973187"><ele>534.0</ele><time>2026-05-03T08:32:01.947Z</time></trkpt><trkpt lat="46.33822214077168" lon="9.370539442265462"><ele>534.0</ele><time>2026-05-03T08:32:02.947Z</time></trkpt><trkpt lat="46.33817855500413" lon="9.370640523122576"><ele>534.0</ele><time>2026-05-03T08:32:03.947Z</time></trkpt><trkpt lat="46.33813974458574" lon="9.370725752995517"><ele>534.0</ele><time>2026-05-03T08:32:04.947Z</time></trkpt><trkpt lat="46.338099308343516" lon="9.370812882619756"><ele>534.6</ele><time>2026-05-03T08:32:05.947Z</time></trkpt><trkpt lat="46.338054841187514" lon="9.370904176545661"><ele>535.2</ele><time>2026-05-03T08:32:06.947Z</time></trkpt><trkpt lat="46.33801568110632" lon="9.370981412778374"><ele>535.8000000000001</ele><time>2026-05-03T08:32:07.948Z</time></trkpt><trkpt lat="46.33796740418359" lon="9.371124297684917"><ele>536.4</ele><time>2026-05-03T08:32:09.948Z</time></trkpt><trkpt lat="46.33801639055408" lon="9.371254602759988"><ele>537.0</ele><time>2026-05-03T08:32:11.949Z</time></trkpt><trkpt lat="46.33815336596659" lon="9.37118181426423"><ele>539.4</ele><time>2026-05-03T08:32:13.95Z</time></trkpt><trkpt lat="46.33823027550964" lon="9.37106787496689"><ele>541.8000000000001</ele><time>2026-05-03T08:32:14.95Z</time></trkpt><trkpt lat="46.33832903562651" lon="9.370980323273809"><ele>544.2</ele><time>2026-05-03T08:32:15.95Z</time></trkpt><trkpt lat="46.33840716379954" lon="9.37091866407775"><ele>546.6</ele><time>2026-05-03T08:32:16.951Z</time></trkpt><trkpt lat="46.3384671819772" lon="9.370857746312907"><ele>549.0</ele><time>2026-05-03T08:32:17.951Z</time></trkpt><trkpt lat="46.33852415109256" lon="9.37080121730213"><ele>549.0</ele><time>2026-05-03T08:32:18.951Z</time></trkpt><trkpt lat="46.33857855085031" lon="9.370744679337895"><ele>549.0</ele><time>2026-05-03T08:32:19.951Z</time></trkpt><trkpt lat="46.33863919580711" lon="9.37068241455455"><ele>549.0</ele><time>2026-05-03T08:32:20.952Z</time></trkpt><trkpt lat="46.33870479443402" lon="9.370612920628263"><ele>549.0</ele><time>2026-05-03T08:32:21.952Z</time></trkpt><trkpt lat="46.338778902354086" lon="9.370539354036325"><ele>549.0</ele><time>2026-05-03T08:32:22.952Z</time></trkpt><trkpt lat="46.33886125010173" lon="9.37047435137536"><ele>549.0</ele><time>2026-05-03T08:32:23.952Z</time></trkpt><trkpt lat="46.33895776386558" lon="9.370414620540197"><ele>547.25</ele><time>2026-05-03T08:32:24.952Z</time></trkpt><trkpt lat="46.33906686239758" lon="9.370394729970414"><ele>545.5</ele><time>2026-05-03T08:32:25.952Z</time></trkpt><trkpt lat="46.33917378181216" lon="9.37038749582221"><ele>543.75</ele><time>2026-05-03T08:32:26.953Z</time></trkpt><trkpt lat="46.33928631406039" lon="9.370397942306596"><ele>542.0</ele><time>2026-05-03T08:32:27.953Z</time></trkpt><trkpt lat="46.33941780841135" lon="9.37041963860908"><ele>542.0</ele><time>2026-05-03T08:32:28.953Z</time></trkpt><trkpt lat="46.33957337879647" lon="9.370468497484643"><ele>542.0</ele><time>2026-05-03T08:32:29.953Z</time></trkpt><trkpt lat="46.33975111382838" lon="9.370498736535644"><ele>542.0</ele><time>2026-05-03T08:32:30.953Z</time></trkpt><trkpt lat="46.33991246591722" lon="9.370539073463652"><ele>542.0</ele><time>2026-05-03T08:32:31.953Z</time></trkpt><trkpt lat="46.34003794399667" lon="9.370539323058498"><ele>542.0</ele><time>2026-05-03T08:32:32.953Z</time></trkpt><trkpt lat="46.340148436235594" lon="9.370513454626046"><ele>542.0</ele><time>2026-05-03T08:32:33.953Z</time></trkpt><trkpt lat="46.3402420699341" lon="9.3705091339599"><ele>542.0</ele><time>2026-05-03T08:32:34.953Z</time></trkpt><trkpt lat="46.34032478389359" lon="9.370509366149985"><ele>542.0</ele><time>2026-05-03T08:32:35.954Z</time></trkpt><trkpt lat="46.34041207823952" lon="9.37054012210618"><ele>548.0</ele><time>2026-05-03T08:32:36.954Z</time></trkpt><trkpt lat="46.34051432160404" lon="9.37058280486906"><ele>554.0</ele><time>2026-05-03T08:32:37.954Z</time></trkpt><trkpt lat="46.340614939087146" lon="9.370650863390509"><ele>560.0</ele><time>2026-05-03T08:32:38.954Z</time></trkpt><trkpt lat="46.340725083460725" lon="9.370720879132561"><ele>566.0</ele><time>2026-05-03T08:32:39.954Z</time></trkpt><trkpt lat="46.34083252725801" lon="9.37078152849062"><ele>566.0</ele><time>2026-05-03T08:32:40.954Z</time></trkpt><trkpt lat="46.340931611782736" lon="9.370812823287284"><ele>566.0</ele><time>2026-05-03T08:32:41.954Z</time></trkpt><trkpt lat="46.341028073364726" lon="9.370804241915746"><ele>566.0</ele><time>2026-05-03T08:32:42.954Z</time></trkpt><trkpt lat="46.34115170510984" lon="9.370743444865491"><ele>566.0</ele><time>2026-05-03T08:32:43.954Z</time></trkpt><trkpt lat="46.34131549039202" lon="9.370653735722444"><ele>564.0</ele><time>2026-05-03T08:32:44.954Z</time></trkpt><trkpt lat="46.341525753563886" lon="9.370581320967696"><ele>562.0</ele><time>2026-05-03T08:32:45.954Z</time></trkpt><trkpt lat="46.34171789342392" lon="9.370468406391666"><ele>560.0</ele><time>2026-05-03T08:32:46.954Z</time></trkpt><trkpt lat="46.341894782835546" lon="9.37038719710773"><ele>560.0</ele><time>2026-05-03T08:32:47.954Z</time></trkpt><trkpt lat="46.34204240238914" lon="9.370324607397292"><ele>560.0</ele><time>2026-05-03T08:32:48.954Z</time></trkpt><trkpt lat="46.342168106348154" lon="9.37032732395179"><ele>560.0</ele><time>2026-05-03T08:32:49.954Z</time></trkpt><trkpt lat="46.34228472167123" lon="9.370466346595917"><ele>560.0</ele><time>2026-05-03T08:32:50.954Z</time></trkpt><trkpt lat="46.34244203305086" lon="9.37057392528199"><ele>569.5</ele><time>2026-05-03T08:32:51.954Z</time></trkpt><trkpt lat="46.34265077374508" lon="9.370720601806307"><ele>579.0</ele><time>2026-05-03T08:32:52.954Z</time></trkpt><trkpt lat="46.342874388219656" lon="9.370881512247477"><ele>579.3333333333334</ele><time>2026-05-03T08:32:53.954Z</time></trkpt><trkpt lat="46.343064367486136" lon="9.371001617842143"><ele>579.6666666666667</ele><time>2026-05-03T08:32:54.954Z</time></trkpt><trkpt lat="46.34322238815656" lon="9.37105132985017"><ele>580.0</ele><time>2026-05-03T08:32:55.954Z</time></trkpt><trkpt lat="46.34338892171339" lon="9.371035234927275"><ele>580.0</ele><time>2026-05-03T08:32:56.954Z</time></trkpt><trkpt lat="46.34358786893472" lon="9.3709465559166"><ele>580.0</ele><time>2026-05-03T08:32:57.954Z</time></trkpt><trkpt lat="46.34380249539619" lon="9.370837825847389"><ele>580.0</ele><time>2026-05-03T08:32:58.954Z</time></trkpt><trkpt lat="46.344004321100584" lon="9.370742500919096"><ele>578.3333333333334</ele><time>2026-05-03T08:32:59.954Z</time></trkpt><trkpt lat="46.34418032451685" lon="9.370628834948162"><ele>576.6666666666666</ele><time>2026-05-03T08:33:00.954Z</time></trkpt><trkpt lat="46.344345631696555" lon="9.370426829913539"><ele>575.0</ele><time>2026-05-03T08:33:01.954Z</time></trkpt><trkpt lat="46.34450282795371" lon="9.37016759411477"><ele>575.0</ele><time>2026-05-03T08:33:02.954Z</time></trkpt><trkpt lat="46.34465614274652" lon="9.36991565493532"><ele>575.0</ele><time>2026-05-03T08:33:03.955Z</time></trkpt><trkpt lat="46.344805652985194" lon="9.369722280207446"><ele>575.0</ele><time>2026-05-03T08:33:04.955Z</time></trkpt><trkpt lat="46.344987662949485" lon="9.369578301860502"><ele>582.0</ele><time>2026-05-03T08:33:05.955Z</time></trkpt><trkpt lat="46.34519905800213" lon="9.369418217459643"><ele>589.0</ele><time>2026-05-03T08:33:06.955Z</time></trkpt><trkpt lat="46.34541025017611" lon="9.369292544703418"><ele>595.0</ele><time>2026-05-03T08:33:07.955Z</time></trkpt><trkpt lat="46.34561008246453" lon="9.369231170731561"><ele>601.0</ele><time>2026-05-03T08:33:08.955Z</time></trkpt><trkpt lat="46.34581266334317" lon="9.36915303171522"><ele>607.0</ele><time>2026-05-03T08:33:09.955Z</time></trkpt><trkpt lat="46.345971300039004" lon="9.369021424664915"><ele>602.3333333333334</ele><time>2026-05-03T08:33:10.955Z</time></trkpt><trkpt lat="46.3461032344986" lon="9.36883813328261"><ele>597.6666666666666</ele><time>2026-05-03T08:33:11.955Z</time></trkpt><trkpt lat="46.34621529410733" lon="9.368639494217666"><ele>593.0</ele><time>2026-05-03T08:33:12.955Z</time></trkpt><trkpt lat="46.346356653684026" lon="9.368521551313368"><ele>598.3333333333333</ele><time>2026-05-03T08:33:13.955Z</time></trkpt><trkpt lat="46.346537434406066" lon="9.368462047954884"><ele>603.6666666666666</ele><time>2026-05-03T08:33:14.955Z</time></trkpt><trkpt lat="46.346766393635434" lon="9.368399062917838"><ele>609.0</ele><time>2026-05-03T08:33:15.955Z</time></trkpt><trkpt lat="46.34700772446028" lon="9.368334666974299"><ele>610.6666666666666</ele><time>2026-05-03T08:33:16.955Z</time></trkpt><trkpt lat="46.347223491331434" lon="9.36827632847412"><ele>612.3333333333333</ele><time>2026-05-03T08:33:17.955Z</time></trkpt><trkpt lat="46.34741181266692" lon="9.368156503179902"><ele>614.0</ele><time>2026-05-03T08:33:18.955Z</time></trkpt><trkpt lat="46.347588321123986" lon="9.36799983828669"><ele>614.0</ele><time>2026-05-03T08:33:19.955Z</time></trkpt><trkpt lat="46.34776805051077" lon="9.367850288740144"><ele>614.0</ele><time>2026-05-03T08:33:20.955Z</time></trkpt><trkpt lat="46.34792803132011" lon="9.367748640480118"><ele>614.0</ele><time>2026-05-03T08:33:21.955Z</time></trkpt><trkpt lat="46.34810522515689" lon="9.367714975215844"><ele>616.0</ele><time>2026-05-03T08:33:22.955Z</time></trkpt><trkpt lat="46.34830256759704" lon="9.36766943455058"><ele>618.0</ele><time>2026-05-03T08:33:23.955Z</time></trkpt><trkpt lat="46.34851258218687" lon="9.36760987160775"><ele>620.0</ele><time>2026-05-03T08:33:24.955Z</time></trkpt><trkpt lat="46.34873083903136" lon="9.367618144396387"><ele>623.6666666666666</ele><time>2026-05-03T08:33:25.955Z</time></trkpt><trkpt lat="46.34893034211771" lon="9.367677385122558"><ele>627.3333333333334</ele><time>2026-05-03T08:33:26.955Z</time></trkpt><trkpt lat="46.3491559040503" lon="9.367687398497962"><ele>631.0</ele><time>2026-05-03T08:33:27.955Z</time></trkpt><trkpt lat="46.34936821283624" lon="9.36767303758949"><ele>631.0</ele><time>2026-05-03T08:33:28.955Z</time></trkpt><trkpt lat="46.34955862702539" lon="9.367623910770485"><ele>631.0</ele><time>2026-05-03T08:33:29.955Z</time></trkpt><trkpt lat="46.34973861508995" lon="9.367506960753861"><ele>631.0</ele><time>2026-05-03T08:33:30.955Z</time></trkpt><trkpt lat="46.34992161025154" lon="9.36738552901604"><ele>631.3333333333334</ele><time>2026-05-03T08:33:31.955Z</time></trkpt><trkpt lat="46.35012684496014" lon="9.367296125043172"><ele>631.6666666666666</ele><time>2026-05-03T08:33:32.955Z</time></trkpt><trkpt lat="46.350304304975296" lon="9.36722338414253"><ele>632.0</ele><time>2026-05-03T08:33:33.955Z</time></trkpt><trkpt lat="46.350453331473325" lon="9.367172792000284"><ele>635.3333333333333</ele><time>2026-05-03T08:33:34.955Z</time></trkpt><trkpt lat="46.35060001389651" lon="9.367143285576924"><ele>638.6666666666666</ele><time>2026-05-03T08:33:35.955Z</time></trkpt><trkpt lat="46.35075047014124" lon="9.367162183108283"><ele>642.0</ele><time>2026-05-03T08:33:36.955Z</time></trkpt><trkpt lat="46.350907415878204" lon="9.367206102496203"><ele>642.0</ele><time>2026-05-03T08:33:37.955Z</time></trkpt><trkpt lat="46.35108456324582" lon="9.367233519562195"><ele>642.0</ele><time>2026-05-03T08:33:38.955Z</time></trkpt><trkpt lat="46.351250688927145" lon="9.367187506957894"><ele>642.0</ele><time>2026-05-03T08:33:39.955Z</time></trkpt><trkpt lat="46.351410248043344" lon="9.367076923377095"><ele>643.5</ele><time>2026-05-03T08:33:40.955Z</time></trkpt><trkpt lat="46.35151059661304" lon="9.367030521233726"><ele>645.0</ele><time>2026-05-03T08:33:41.955Z</time></trkpt><trkpt lat="46.351587804755255" lon="9.367007950896683"><ele>646.5</ele><time>2026-05-03T08:33:42.955Z</time></trkpt><trkpt lat="46.351657396786244" lon="9.367019839457042"><ele>648.0</ele><time>2026-05-03T08:33:43.955Z</time></trkpt><trkpt lat="46.351724976214086" lon="9.367102788061946"><ele>649.5</ele><time>2026-05-03T08:33:45.955Z</time></trkpt><trkpt lat="46.351663647976686" lon="9.367074758638669"><ele>651.0</ele><time>2026-05-03T08:33:48.955Z</time></trkpt><trkpt lat="46.35157853853764" lon="9.36707172382222"><ele>651.0</ele><time>2026-05-03T08:33:49.955Z</time></trkpt><trkpt lat="46.35144993051951" lon="9.367093356874436"><ele>651.0</ele><time>2026-05-03T08:33:50.955Z</time></trkpt><trkpt lat="46.35130693881863" lon="9.367218153853916"><ele>651.0</ele><time>2026-05-03T08:33:51.955Z</time></trkpt><trkpt lat="46.3510920266299" lon="9.367337287263767"><ele>656.3333333333334</ele><time>2026-05-03T08:33:52.955Z</time></trkpt><trkpt lat="46.3508812800577" lon="9.367411408446749"><ele>661.6666666666667</ele><time>2026-05-03T08:33:53.955Z</time></trkpt><trkpt lat="46.3507027175583" lon="9.367484867008887"><ele>667.0</ele><time>2026-05-03T08:33:54.955Z</time></trkpt><trkpt lat="46.350571676789244" lon="9.36753023504107"><ele>667.0</ele><time>2026-05-03T08:33:55.952Z</time></trkpt><trkpt lat="46.35049144128358" lon="9.367584338416476"><ele>667.0</ele><time>2026-05-03T08:33:56.952Z</time></trkpt><trkpt lat="46.35042075184579" lon="9.367632187673234"><ele>667.0</ele><time>2026-05-03T08:33:57.952Z</time></trkpt><trkpt lat="46.35038101417326" lon="9.367746133164738"><ele>667.0</ele><time>2026-05-03T08:33:58.953Z</time></trkpt><trkpt lat="46.35040870120462" lon="9.367871175958946"><ele>667.0</ele><time>2026-05-03T08:33:59.952Z</time></trkpt><trkpt lat="46.350494362608536" lon="9.3679381296579"><ele>667.0</ele><time>2026-05-03T08:34:00.952Z</time></trkpt><trkpt lat="46.35059327996564" lon="9.367962121771328"><ele>667.0</ele><time>2026-05-03T08:34:01.952Z</time></trkpt><trkpt lat="46.350733846624365" lon="9.367937112661075"><ele>667.0</ele><time>2026-05-03T08:34:02.952Z</time></trkpt><trkpt lat="46.350906643375026" lon="9.367899570340974"><ele>667.0</ele><time>2026-05-03T08:34:03.952Z</time></trkpt><trkpt lat="46.35110035644988" lon="9.367871701270262"><ele>667.0</ele><time>2026-05-03T08:34:04.952Z</time></trkpt><trkpt lat="46.35127598623481" lon="9.367833619244164"><ele>667.0</ele><time>2026-05-03T08:34:05.953Z</time></trkpt><trkpt lat="46.35144633219618" lon="9.36780629013375"><ele>667.0</ele><time>2026-05-03T08:34:06.953Z</time></trkpt><trkpt lat="46.35159590338295" lon="9.367769298970927"><ele>671.3333333333334</ele><time>2026-05-03T08:34:07.952Z</time></trkpt><trkpt lat="46.3517636970022" lon="9.367690244961285"><ele>675.6666666666666</ele><time>2026-05-03T08:34:08.951Z</time></trkpt><trkpt lat="46.35196140854502" lon="9.367593528164011"><ele>680.0</ele><time>2026-05-03T08:34:09.951Z</time></trkpt><trkpt lat="46.35216663418781" lon="9.367496030784993"><ele>689.3333333333333</ele><time>2026-05-03T08:34:10.951Z</time></trkpt><trkpt lat="46.35236551164831" lon="9.36740484672465"><ele>698.6666666666666</ele><time>2026-05-03T08:34:12.089Z</time></trkpt><trkpt lat="46.352518089951445" lon="9.367336091518968"><ele>708.0</ele><time>2026-05-03T08:34:13.088Z</time></trkpt><trkpt lat="46.35266341687759" lon="9.367261202532603"><ele>688.5</ele><time>2026-05-03T08:34:14.089Z</time></trkpt><trkpt lat="46.352799449857216" lon="9.367176077137266"><ele>669.0</ele><time>2026-05-03T08:34:15.089Z</time></trkpt><trkpt lat="46.35238214520004" lon="9.366491106953928"><ele>666.0</ele><time>2026-05-03T08:34:18.951Z</time></trkpt><trkpt lat="46.3523856040231" lon="9.366332944036923"><ele>663.0</ele><time>2026-05-03T08:34:19.951Z</time></trkpt><trkpt lat="46.35292448975241" lon="9.366302541480655"><ele>667.4</ele><time>2026-05-03T08:34:20.951Z</time></trkpt><trkpt lat="46.35304930005073" lon="9.366158400431225"><ele>671.8</ele><time>2026-05-03T08:34:21.951Z</time></trkpt><trkpt lat="46.35312017341652" lon="9.366105061905623"><ele>676.2</ele><time>2026-05-03T08:34:22.951Z</time></trkpt><trkpt lat="46.35320171515506" lon="9.36615373362069"><ele>680.6</ele><time>2026-05-03T08:34:23.951Z</time></trkpt><trkpt lat="46.35323665536362" lon="9.366297641004202"><ele>685.0</ele><time>2026-05-03T08:34:24.951Z</time></trkpt><trkpt lat="46.35323508238824" lon="9.366404007814241"><ele>688.0</ele><time>2026-05-03T08:34:25.951Z</time></trkpt><trkpt lat="46.353185985363496" lon="9.366531480662363"><ele>691.0</ele><time>2026-05-03T08:34:26.951Z</time></trkpt><trkpt lat="46.35311746495709" lon="9.366665348729631"><ele>694.0</ele><time>2026-05-03T08:34:27.951Z</time></trkpt><trkpt lat="46.35309593786876" lon="9.366780244039488"><ele>697.0</ele><time>2026-05-03T08:34:28.951Z</time></trkpt><trkpt lat="46.353114241262915" lon="9.366887425674596"><ele>700.0</ele><time>2026-05-03T08:34:29.951Z</time></trkpt><trkpt lat="46.3531707059541" lon="9.366945768580756"><ele>703.0</ele><time>2026-05-03T08:34:30.951Z</time></trkpt><trkpt lat="46.3532494720318" lon="9.36694668571216"><ele>703.0</ele><time>2026-05-03T08:34:31.951Z</time></trkpt><trkpt lat="46.35331649613662" lon="9.366867918774146"><ele>703.0</ele><time>2026-05-03T08:34:32.951Z</time></trkpt><trkpt lat="46.35333969347692" lon="9.36672474220575"><ele>703.0</ele><time>2026-05-03T08:34:33.951Z</time></trkpt><trkpt lat="46.35337740836498" lon="9.366552615086968"><ele>703.0</ele><time>2026-05-03T08:34:34.951Z</time></trkpt><trkpt lat="46.3534438987976" lon="9.36638784876326"><ele>703.0</ele><time>2026-05-03T08:34:35.951Z</time></trkpt><trkpt lat="46.353529844570865" lon="9.366269122106686"><ele>703.25</ele><time>2026-05-03T08:34:36.951Z</time></trkpt><trkpt lat="46.3536402131734" lon="9.366206859057966"><ele>703.5</ele><time>2026-05-03T08:34:37.951Z</time></trkpt><trkpt lat="46.35378355513412" lon="9.366214981877416"><ele>703.75</ele><time>2026-05-03T08:34:38.951Z</time></trkpt><trkpt lat="46.35395874306711" lon="9.366189606337105"><ele>704.0</ele><time>2026-05-03T08:34:39.951Z</time></trkpt><trkpt lat="46.35416264219365" lon="9.366216337259427"><ele>704.0</ele><time>2026-05-03T08:34:40.951Z</time></trkpt><trkpt lat="46.35432177215339" lon="9.366227084602563"><ele>704.0</ele><time>2026-05-03T08:34:41.951Z</time></trkpt><trkpt lat="46.354451142258085" lon="9.366154110854604"><ele>704.0</ele><time>2026-05-03T08:34:42.951Z</time></trkpt><trkpt lat="46.354571391175206" lon="9.365995521962745"><ele>704.0</ele><time>2026-05-03T08:34:43.951Z</time></trkpt><trkpt lat="46.3546941758867" lon="9.365804588731779"><ele>704.0</ele><time>2026-05-03T08:34:44.951Z</time></trkpt><trkpt lat="46.3548129612903" lon="9.365678186128848"><ele>704.0</ele><time>2026-05-03T08:34:45.951Z</time></trkpt><trkpt lat="46.354912788960384" lon="9.365620769580095"><ele>704.0</ele><time>2026-05-03T08:34:46.951Z</time></trkpt><trkpt lat="46.35504437136722" lon="9.365657131740354"><ele>708.0</ele><time>2026-05-03T08:34:47.951Z</time></trkpt><trkpt lat="46.3552423948875" lon="9.365656706641888"><ele>712.0</ele><time>2026-05-03T08:34:48.951Z</time></trkpt><trkpt lat="46.35545945034828" lon="9.365579563428405"><ele>716.0</ele><time>2026-05-03T08:34:49.951Z</time></trkpt><trkpt lat="46.35567958837879" lon="9.36548352656999"><ele>716.0</ele><time>2026-05-03T08:34:50.951Z</time></trkpt><trkpt lat="46.35588884747117" lon="9.365362881274072"><ele>716.0</ele><time>2026-05-03T08:34:51.951Z</time></trkpt><trkpt lat="46.356118215520745" lon="9.36523549132833"><ele>716.0</ele><time>2026-05-03T08:34:52.951Z</time></trkpt><trkpt lat="46.35632235563365" lon="9.365063536216818"><ele>716.0</ele><time>2026-05-03T08:34:53.951Z</time></trkpt><trkpt lat="46.35650618096617" lon="9.364896513009048"><ele>714.6666666666666</ele><time>2026-05-03T08:34:54.951Z</time></trkpt><trkpt lat="46.35668191481118" lon="9.364805211141213"><ele>713.3333333333334</ele><time>2026-05-03T08:34:55.951Z</time></trkpt><trkpt lat="46.356864332005806" lon="9.364730870958772"><ele>712.0</ele><time>2026-05-03T08:34:56.951Z</time></trkpt><trkpt lat="46.357057807670905" lon="9.364657253078638"><ele>715.3333333333334</ele><time>2026-05-03T08:34:57.951Z</time></trkpt><trkpt lat="46.35724917618284" lon="9.364591443508695"><ele>718.6666666666666</ele><time>2026-05-03T08:34:58.951Z</time></trkpt><trkpt lat="46.35743742887999" lon="9.364541563774782"><ele>722.0</ele><time>2026-05-03T08:34:59.951Z</time></trkpt><trkpt lat="46.35761371741695" lon="9.364545194946103"><ele>722.0</ele><time>2026-05-03T08:35:00.951Z</time></trkpt><trkpt lat="46.357786135475145" lon="9.364616415873096"><ele>722.0</ele><time>2026-05-03T08:35:01.951Z</time></trkpt><trkpt lat="46.35798248166379" lon="9.364690802328363"><ele>722.0</ele><time>2026-05-03T08:35:02.951Z</time></trkpt><trkpt lat="46.35814727569278" lon="9.36473269420515"><ele>724.6666666666666</ele><time>2026-05-03T08:35:03.951Z</time></trkpt><trkpt lat="46.35828851291787" lon="9.364665491290765"><ele>727.3333333333334</ele><time>2026-05-03T08:35:04.951Z</time></trkpt><trkpt lat="46.358422375740005" lon="9.364519962936107"><ele>730.0</ele><time>2026-05-03T08:35:05.951Z</time></trkpt><trkpt lat="46.35854904439195" lon="9.364297866607616"><ele>730.0</ele><time>2026-05-03T08:35:06.951Z</time></trkpt><trkpt lat="46.358689348024235" lon="9.36411916921461"><ele>730.0</ele><time>2026-05-03T08:35:07.951Z</time></trkpt><trkpt lat="46.358831571453514" lon="9.36392042770436"><ele>730.0</ele><time>2026-05-03T08:35:08.951Z</time></trkpt><trkpt lat="46.35899157407219" lon="9.363772631742334"><ele>732.3333333333334</ele><time>2026-05-03T08:35:09.951Z</time></trkpt><trkpt lat="46.35916144508138" lon="9.363664311516244"><ele>734.6666666666666</ele><time>2026-05-03T08:35:10.951Z</time></trkpt><trkpt lat="46.359342189794376" lon="9.363589314528983"><ele>737.0</ele><time>2026-05-03T08:35:11.951Z</time></trkpt><trkpt lat="46.35952136731005" lon="9.36356022525764"><ele>739.6666666666666</ele><time>2026-05-03T08:35:12.951Z</time></trkpt><trkpt lat="46.359718016750044" lon="9.363586942378456"><ele>742.3333333333334</ele><time>2026-05-03T08:35:13.951Z</time></trkpt><trkpt lat="46.35992159381814" lon="9.363629597942284"><ele>745.0</ele><time>2026-05-03T08:35:14.951Z</time></trkpt><trkpt lat="46.36012665150434" lon="9.363703774818543"><ele>745.0</ele><time>2026-05-03T08:35:15.951Z</time></trkpt><trkpt lat="46.36035008905027" lon="9.363792841703967"><ele>745.0</ele><time>2026-05-03T08:35:16.951Z</time></trkpt><trkpt lat="46.36056319581429" lon="9.363901502636809"><ele>753.0</ele><time>2026-05-03T08:35:17.951Z</time></trkpt><trkpt lat="46.360740453369715" lon="9.364000359949404"><ele>761.0</ele><time>2026-05-03T08:35:18.951Z</time></trkpt><trkpt lat="46.360896481385" lon="9.364082520351722"><ele>769.0</ele><time>2026-05-03T08:35:19.951Z</time></trkpt><trkpt lat="46.36104603511843" lon="9.364130250797903"><ele>769.0</ele><time>2026-05-03T08:35:20.951Z</time></trkpt><trkpt lat="46.36117333041991" lon="9.36415284293549"><ele>769.0</ele><time>2026-05-03T08:35:21.951Z</time></trkpt><trkpt lat="46.3612819149977" lon="9.364165188435376"><ele>769.0</ele><time>2026-05-03T08:35:22.951Z</time></trkpt><trkpt lat="46.3613626148944" lon="9.364183714350714"><ele>769.0</ele><time>2026-05-03T08:35:23.951Z</time></trkpt><trkpt lat="46.36142356783687" lon="9.364221796938393"><ele>769.0</ele><time>2026-05-03T08:35:24.951Z</time></trkpt><trkpt lat="46.36140501658102" lon="9.364357017193488"><ele>769.0</ele><time>2026-05-03T08:35:26.951Z</time></trkpt><trkpt lat="46.361271739386844" lon="9.364369773733646"><ele>769.0</ele><time>2026-05-03T08:35:28.951Z</time></trkpt><trkpt lat="46.361169444387215" lon="9.364280783838941"><ele>769.0</ele><time>2026-05-03T08:35:29.951Z</time></trkpt><trkpt lat="46.36108176741285" lon="9.364273606383557"><ele>769.0</ele><time>2026-05-03T08:35:30.951Z</time></trkpt><trkpt lat="46.360998287788405" lon="9.364376075533979"><ele>769.0</ele><time>2026-05-03T08:35:32.951Z</time></trkpt><trkpt lat="46.36101543328146" lon="9.364489890120339"><ele>769.0</ele><time>2026-05-03T08:35:33.951Z</time></trkpt><trkpt lat="46.3610881038193" lon="9.364586550427417"><ele>769.0</ele><time>2026-05-03T08:35:34.951Z</time></trkpt><trkpt lat="46.361198191866755" lon="9.364674369996116"><ele>769.0</ele><time>2026-05-03T08:35:35.951Z</time></trkpt><trkpt lat="46.36131590741061" lon="9.3647269759332"><ele>769.0</ele><time>2026-05-03T08:35:36.951Z</time></trkpt><trkpt lat="46.36145952118906" lon="9.364702515666592"><ele>769.75</ele><time>2026-05-03T08:35:37.951Z</time></trkpt><trkpt lat="46.36162479895652" lon="9.364619964057995"><ele>770.5</ele><time>2026-05-03T08:35:38.951Z</time></trkpt><trkpt lat="46.361759927602" lon="9.36458129089456"><ele>771.25</ele><time>2026-05-03T08:35:39.951Z</time></trkpt><trkpt lat="46.3618810347008" lon="9.364637803722468"><ele>772.0</ele><time>2026-05-03T08:35:40.951Z</time></trkpt><trkpt lat="46.36200185875665" lon="9.364688507716378"><ele>779.0</ele><time>2026-05-03T08:35:41.951Z</time></trkpt><trkpt lat="46.362140545216214" lon="9.364770017108816"><ele>786.0</ele><time>2026-05-03T08:35:42.951Z</time></trkpt><trkpt lat="46.36228207036049" lon="9.364838976146519"><ele>793.0</ele><time>2026-05-03T08:35:43.951Z</time></trkpt><trkpt lat="46.36243999704178" lon="9.364871336031628"><ele>794.2</ele><time>2026-05-03T08:35:44.951Z</time></trkpt><trkpt lat="46.362575093359425" lon="9.364851465913674"><ele>795.4</ele><time>2026-05-03T08:35:45.951Z</time></trkpt><trkpt lat="46.36268691182478" lon="9.364839715924305"><ele>796.6</ele><time>2026-05-03T08:35:46.951Z</time></trkpt><trkpt lat="46.362780879221816" lon="9.364786309300147"><ele>797.8000000000001</ele><time>2026-05-03T08:35:47.951Z</time></trkpt><trkpt lat="46.36284184644391" lon="9.36468574445159"><ele>799.0</ele><time>2026-05-03T08:35:48.951Z</time></trkpt><trkpt lat="46.36288002295067" lon="9.364581991096944"><ele>799.4999999999999</ele><time>2026-05-03T08:35:49.951Z</time></trkpt><trkpt lat="46.3629091205835" lon="9.364491365152759"><ele>800.0</ele><time>2026-05-03T08:35:50.951Z</time></trkpt><trkpt lat="46.36295730626122" lon="9.364381082473404"><ele>800.5</ele><time>2026-05-03T08:35:52.951Z</time></trkpt><trkpt lat="46.363039728120214" lon="9.36424484356604"><ele>801.0</ele><time>2026-05-03T08:35:54.951Z</time></trkpt><trkpt lat="46.36310341184107" lon="9.36421624542433"><ele>801.4999999999999</ele><time>2026-05-03T08:35:55.951Z</time></trkpt><trkpt lat="46.36316348684462" lon="9.36425914432464"><ele>802.0</ele><time>2026-05-03T08:35:56.951Z</time></trkpt><trkpt lat="46.363180778220084" lon="9.364359374774601"><ele>802.0</ele><time>2026-05-03T08:35:57.951Z</time></trkpt><trkpt lat="46.36316784170674" lon="9.364473718361161"><ele>802.0</ele><time>2026-05-03T08:35:58.951Z</time></trkpt><trkpt lat="46.36312583869304" lon="9.364608180476656"><ele>802.0</ele><time>2026-05-03T08:35:59.951Z</time></trkpt><trkpt lat="46.363073889509195" lon="9.364756749574399"><ele>802.0</ele><time>2026-05-03T08:36:00.951Z</time></trkpt><trkpt lat="46.36300294263863" lon="9.364830925384698"><ele>802.0</ele><time>2026-05-03T08:36:01.95Z</time></trkpt><trkpt lat="46.362926369421054" lon="9.364953430558224"><ele>801.4000000000001</ele><time>2026-05-03T08:36:03.95Z</time></trkpt><trkpt lat="46.36288612984704" lon="9.365102515048859"><ele>800.8000000000001</ele><time>2026-05-03T08:36:05.95Z</time></trkpt><trkpt lat="46.362978409130335" lon="9.3652039880872"><ele>800.2</ele><time>2026-05-03T08:36:07.95Z</time></trkpt><trkpt lat="46.363047628828596" lon="9.36520253399195"><ele>799.6</ele><time>2026-05-03T08:36:08.95Z</time></trkpt><trkpt lat="46.3631099720007" lon="9.365067583064054"><ele>799.0</ele><time>2026-05-03T08:36:09.95Z</time></trkpt><trkpt lat="46.363165673827986" lon="9.364905219752467"><ele>800.0</ele><time>2026-05-03T08:36:10.949Z</time></trkpt><trkpt lat="46.36325532562126" lon="9.364739700009554"><ele>801.0</ele><time>2026-05-03T08:36:11.95Z</time></trkpt><trkpt lat="46.36338469390474" lon="9.364529787936595"><ele>802.0</ele><time>2026-05-03T08:36:12.95Z</time></trkpt><trkpt lat="46.3635044738818" lon="9.36432965073869"><ele>802.0</ele><time>2026-05-03T08:36:13.95Z</time></trkpt><trkpt lat="46.3636348139775" lon="9.364097676030994"><ele>802.0</ele><time>2026-05-03T08:36:14.95Z</time></trkpt><trkpt lat="46.36375262879684" lon="9.36386319537719"><ele>802.0</ele><time>2026-05-03T08:36:15.95Z</time></trkpt><trkpt lat="46.36387223823387" lon="9.363680631477044"><ele>805.0</ele><time>2026-05-03T08:36:16.95Z</time></trkpt><trkpt lat="46.36402114316903" lon="9.363615201317012"><ele>808.0</ele><time>2026-05-03T08:36:17.95Z</time></trkpt><trkpt lat="46.36417493397378" lon="9.363563732445567"><ele>811.0</ele><time>2026-05-03T08:36:18.95Z</time></trkpt><trkpt lat="46.364350899963355" lon="9.363559735630512"><ele>811.0</ele><time>2026-05-03T08:36:19.95Z</time></trkpt><trkpt lat="46.36458251042988" lon="9.363576456138423"><ele>811.0</ele><time>2026-05-03T08:36:20.95Z</time></trkpt><trkpt lat="46.36485212526284" lon="9.36359443501709"><ele>814.5</ele><time>2026-05-03T08:36:21.95Z</time></trkpt><trkpt lat="46.365129126517026" lon="9.36361286842978"><ele>818.0</ele><time>2026-05-03T08:36:22.95Z</time></trkpt><trkpt lat="46.36537253522512" lon="9.363628334375584"><ele>820.25</ele><time>2026-05-03T08:36:23.95Z</time></trkpt><trkpt lat="46.36554927614027" lon="9.363639221368366"><ele>822.5</ele><time>2026-05-03T08:36:24.95Z</time></trkpt><trkpt lat="46.36567688963801" lon="9.3636242498789"><ele>824.75</ele><time>2026-05-03T08:36:25.95Z</time></trkpt><trkpt lat="46.36575791348099" lon="9.363653796567334"><ele>827.0</ele><time>2026-05-03T08:36:26.95Z</time></trkpt><trkpt lat="46.36583445610284" lon="9.363637693607444"><ele>827.0000000000001</ele><time>2026-05-03T08:36:27.95Z</time></trkpt><trkpt lat="46.36589035009018" lon="9.36369984528906"><ele>827.0</ele><time>2026-05-03T08:36:28.95Z</time></trkpt><trkpt lat="46.36591040124201" lon="9.363793779765603"><ele>827.0</ele><time>2026-05-03T08:36:29.95Z</time></trkpt><trkpt lat="46.36587499507303" lon="9.36388781473196"><ele>827.0</ele><time>2026-05-03T08:36:30.95Z</time></trkpt><trkpt lat="46.36579136960858" lon="9.363943996910853"><ele>827.0000000000001</ele><time>2026-05-03T08:36:31.95Z</time></trkpt><trkpt lat="46.36566382603144" lon="9.363935046426276"><ele>827.0</ele><time>2026-05-03T08:36:32.95Z</time></trkpt><trkpt lat="46.365517134732706" lon="9.363892783607993"><ele>828.0</ele><time>2026-05-03T08:36:33.95Z</time></trkpt><trkpt lat="46.36536066851205" lon="9.363845987013182"><ele>829.0</ele><time>2026-05-03T08:36:34.95Z</time></trkpt><trkpt lat="46.36523418246055" lon="9.363820062186887"><ele>830.0</ele><time>2026-05-03T08:36:35.95Z</time></trkpt><trkpt lat="46.36514451426776" lon="9.363842893311155"><ele>831.0</ele><time>2026-05-03T08:36:36.95Z</time></trkpt><trkpt lat="46.365103353104885" lon="9.363930624182657"><ele>831.0</ele><time>2026-05-03T08:36:37.95Z</time></trkpt><trkpt lat="46.3650965810307" lon="9.364069547538879"><ele>831.0</ele><time>2026-05-03T08:36:38.95Z</time></trkpt><trkpt lat="46.36514346412229" lon="9.364198085805391"><ele>831.0</ele><time>2026-05-03T08:36:39.95Z</time></trkpt><trkpt lat="46.365237397466444" lon="9.36426442997285"><ele>831.0</ele><time>2026-05-03T08:36:40.95Z</time></trkpt><trkpt lat="46.36537474718414" lon="9.364264882464637"><ele>831.0</ele><time>2026-05-03T08:36:41.95Z</time></trkpt><trkpt lat="46.36554445464826" lon="9.3642525598279"><ele>833.6666666666667</ele><time>2026-05-03T08:36:42.95Z</time></trkpt><trkpt lat="46.36572701852219" lon="9.36431367482221"><ele>836.3333333333334</ele><time>2026-05-03T08:36:43.95Z</time></trkpt><trkpt lat="46.36588855318101" lon="9.364416400737055"><ele>839.0</ele><time>2026-05-03T08:36:44.95Z</time></trkpt><trkpt lat="46.36604128960664" lon="9.36453480477962"><ele>839.0</ele><time>2026-05-03T08:36:45.95Z</time></trkpt><trkpt lat="46.36619575811318" lon="9.364630785431249"><ele>839.0</ele><time>2026-05-03T08:36:46.95Z</time></trkpt><trkpt lat="46.36634342965666" lon="9.364658714324989"><ele>839.0</ele><time>2026-05-03T08:36:47.95Z</time></trkpt><trkpt lat="46.36647280718749" lon="9.364622608129626"><ele>839.0</ele><time>2026-05-03T08:36:48.95Z</time></trkpt><trkpt lat="46.36660720813256" lon="9.364523655779301"><ele>840.6666666666667</ele><time>2026-05-03T08:36:49.95Z</time></trkpt><trkpt lat="46.36671175750962" lon="9.364328638536842"><ele>842.3333333333333</ele><time>2026-05-03T08:36:50.95Z</time></trkpt><trkpt lat="46.36680336050881" lon="9.364085102893055"><ele>844.0</ele><time>2026-05-03T08:36:51.95Z</time></trkpt><trkpt lat="46.36687849494864" lon="9.363794827032866"><ele>844.0</ele><time>2026-05-03T08:36:52.95Z</time></trkpt><trkpt lat="46.366967711429474" lon="9.363518905398747"><ele>844.0</ele><time>2026-05-03T08:36:53.95Z</time></trkpt><trkpt lat="46.36703264737786" lon="9.36326656704723"><ele>844.0</ele><time>2026-05-03T08:36:54.95Z</time></trkpt><trkpt lat="46.367078058578436" lon="9.363038612026008"><ele>842.0</ele><time>2026-05-03T08:36:55.95Z</time></trkpt><trkpt lat="46.367144885044056" lon="9.36283842273531"><ele>840.0</ele><time>2026-05-03T08:36:56.95Z</time></trkpt><trkpt lat="46.36719336552532" lon="9.362656381494299"><ele>838.0</ele><time>2026-05-03T08:36:57.95Z</time></trkpt><trkpt lat="46.36724085340949" lon="9.362488081228014"><ele>836.0</ele><time>2026-05-03T08:36:58.95Z</time></trkpt><trkpt lat="46.36727684836976" lon="9.362310589802593"><ele>841.0</ele><time>2026-05-03T08:36:59.95Z</time></trkpt><trkpt lat="46.36734772370756" lon="9.362153904493713"><ele>846.0</ele><time>2026-05-03T08:37:00.95Z</time></trkpt><trkpt lat="46.36740242866971" lon="9.362007649513028"><ele>851.0</ele><time>2026-05-03T08:37:01.95Z</time></trkpt><trkpt lat="46.36747407891713" lon="9.361869831692806"><ele>856.0</ele><time>2026-05-03T08:37:02.95Z</time></trkpt><trkpt lat="46.36758334933346" lon="9.361747949875033"><ele>856.0</ele><time>2026-05-03T08:37:03.95Z</time></trkpt><trkpt lat="46.36767031999794" lon="9.36160513747007"><ele>856.0</ele><time>2026-05-03T08:37:04.95Z</time></trkpt><trkpt lat="46.36776415271853" lon="9.361452166799422"><ele>856.0</ele><time>2026-05-03T08:37:05.95Z</time></trkpt><trkpt lat="46.36783787650507" lon="9.361317096516792"><ele>856.0</ele><time>2026-05-03T08:37:06.95Z</time></trkpt><trkpt lat="46.36789928205865" lon="9.36121806648821"><ele>855.1666666666666</ele><time>2026-05-03T08:37:07.95Z</time></trkpt><trkpt lat="46.36794877770638" lon="9.361134545821482"><ele>854.3333333333333</ele><time>2026-05-03T08:37:08.95Z</time></trkpt><trkpt lat="46.36800413621509" lon="9.361029771421286"><ele>853.5</ele><time>2026-05-03T08:37:10.95Z</time></trkpt><trkpt lat="46.36804759782684" lon="9.360941526346135"><ele>852.6666666666667</ele><time>2026-05-03T08:37:12.95Z</time></trkpt><trkpt lat="46.36809037949771" lon="9.360867179408139"><ele>851.8333333333334</ele><time>2026-05-03T08:37:14.95Z</time></trkpt><trkpt lat="46.368161906722136" lon="9.360805012517186"><ele>851.0</ele><time>2026-05-03T08:37:16.95Z</time></trkpt><trkpt lat="46.36820868871714" lon="9.360959839443005"><ele>852.0</ele><time>2026-05-03T08:37:18.95Z</time></trkpt><trkpt lat="46.36815082301056" lon="9.361058517611848"><ele>853.0</ele><time>2026-05-03T08:37:19.95Z</time></trkpt><trkpt lat="46.368110336468845" lon="9.361222557560005"><ele>853.9999999999999</ele><time>2026-05-03T08:37:20.95Z</time></trkpt><trkpt lat="46.368047903938276" lon="9.361364906507358"><ele>855.0</ele><time>2026-05-03T08:37:21.95Z</time></trkpt><trkpt lat="46.36799232282252" lon="9.3615191096217"><ele>856.0</ele><time>2026-05-03T08:37:22.95Z</time></trkpt><trkpt lat="46.36794102445435" lon="9.361671973062155"><ele>856.0</ele><time>2026-05-03T08:37:23.95Z</time></trkpt><trkpt lat="46.36790292488591" lon="9.361788835933616"><ele>855.9999999999999</ele><time>2026-05-03T08:37:24.95Z</time></trkpt><trkpt lat="46.36787836473994" lon="9.36188255293505"><ele>855.9999999999999</ele><time>2026-05-03T08:37:25.95Z</time></trkpt><trkpt lat="46.36784373292419" lon="9.362007436956471"><ele>856.0</ele><time>2026-05-03T08:37:27.95Z</time></trkpt><trkpt lat="46.367865174319284" lon="9.362107796166935"><ele>856.0</ele><time>2026-05-03T08:37:29.95Z</time></trkpt><trkpt lat="46.36802250946627" lon="9.362042392387776"><ele>861.0</ele><time>2026-05-03T08:37:31.95Z</time></trkpt><trkpt lat="46.36814948868466" lon="9.361954440851234"><ele>866.0</ele><time>2026-05-03T08:37:32.95Z</time></trkpt><trkpt lat="46.36829447576207" lon="9.3618240356227"><ele>871.0</ele><time>2026-05-03T08:37:33.95Z</time></trkpt><trkpt lat="46.368457391579234" lon="9.361662766421583"><ele>871.0</ele><time>2026-05-03T08:37:34.95Z</time></trkpt><trkpt lat="46.368643647937674" lon="9.361507947467018"><ele>871.0</ele><time>2026-05-03T08:37:35.95Z</time></trkpt><trkpt lat="46.36881053632706" lon="9.361396743344939"><ele>871.0</ele><time>2026-05-03T08:37:36.95Z</time></trkpt><trkpt lat="46.368939406316386" lon="9.361253238013871"><ele>876.6666666666666</ele><time>2026-05-03T08:37:37.95Z</time></trkpt><trkpt lat="46.36902696239726" lon="9.36108273624479"><ele>882.3333333333333</ele><time>2026-05-03T08:37:38.95Z</time></trkpt><trkpt lat="46.36905346765744" lon="9.360867910170532"><ele>888.0</ele><time>2026-05-03T08:37:39.95Z</time></trkpt><trkpt lat="46.3690818053645" lon="9.360634797471205"><ele>886.6666666666667</ele><time>2026-05-03T08:37:40.95Z</time></trkpt><trkpt lat="46.369109141486824" lon="9.36036877242817"><ele>885.3333333333334</ele><time>2026-05-03T08:37:41.95Z</time></trkpt><trkpt lat="46.36913423575256" lon="9.360041059940025"><ele>884.0</ele><time>2026-05-03T08:37:42.95Z</time></trkpt><trkpt lat="46.369163573836566" lon="9.359787279217919"><ele>882.5</ele><time>2026-05-03T08:37:43.95Z</time></trkpt><trkpt lat="46.36921750135982" lon="9.359549950664013"><ele>881.0</ele><time>2026-05-03T08:37:44.95Z</time></trkpt><trkpt lat="46.36928705849993" lon="9.359353025149519"><ele>879.5</ele><time>2026-05-03T08:37:45.95Z</time></trkpt><trkpt lat="46.3693453031855" lon="9.359213754837782"><ele>878.0</ele><time>2026-05-03T08:37:46.95Z</time></trkpt><trkpt lat="46.36940343264725" lon="9.35913613978445"><ele>878.0</ele><time>2026-05-03T08:37:47.95Z</time></trkpt><trkpt lat="46.36950491802123" lon="9.359103195806785"><ele>878.0</ele><time>2026-05-03T08:37:49.95Z</time></trkpt><trkpt lat="46.36957753955585" lon="9.359267474834304"><ele>878.0</ele><time>2026-05-03T08:37:51.95Z</time></trkpt><trkpt lat="46.36954480091739" lon="9.359421558641074"><ele>878.0</ele><time>2026-05-03T08:37:52.95Z</time></trkpt><trkpt lat="46.36943504093347" lon="9.359591851276893"><ele>879.2</ele><time>2026-05-03T08:37:53.95Z</time></trkpt><trkpt lat="46.36933363619673" lon="9.359726954591627"><ele>880.4</ele><time>2026-05-03T08:37:54.95Z</time></trkpt><trkpt lat="46.36929064945378" lon="9.359867913878062"><ele>881.6000000000001</ele><time>2026-05-03T08:37:55.95Z</time></trkpt><trkpt lat="46.36930681368304" lon="9.359971959094661"><ele>882.8000000000001</ele><time>2026-05-03T08:37:56.95Z</time></trkpt><trkpt lat="46.36936719006913" lon="9.360089044949435"><ele>884.0</ele><time>2026-05-03T08:37:57.95Z</time></trkpt><trkpt lat="46.369483472694206" lon="9.360142582800112"><ele>884.0</ele><time>2026-05-03T08:37:58.95Z</time></trkpt><trkpt lat="46.36959489446149" lon="9.360119546828075"><ele>884.0</ele><time>2026-05-03T08:37:59.95Z</time></trkpt><trkpt lat="46.369675854708646" lon="9.360011386501618"><ele>884.0</ele><time>2026-05-03T08:38:00.95Z</time></trkpt><trkpt lat="46.369730478313954" lon="9.359858902655205"><ele>884.0</ele><time>2026-05-03T08:38:01.95Z</time></trkpt><trkpt lat="46.3697493140923" lon="9.359624745118964"><ele>887.75</ele><time>2026-05-03T08:38:02.95Z</time></trkpt><trkpt lat="46.36983805181651" lon="9.359507823069674"><ele>891.5</ele><time>2026-05-03T08:38:03.95Z</time></trkpt><trkpt lat="46.369954924590616" lon="9.359435612289824"><ele>895.25</ele><time>2026-05-03T08:38:04.95Z</time></trkpt><trkpt lat="46.37011906501221" lon="9.359347783170726"><ele>899.0</ele><time>2026-05-03T08:38:05.95Z</time></trkpt><trkpt lat="46.37030918203192" lon="9.359255582837893"><ele>899.0</ele><time>2026-05-03T08:38:06.95Z</time></trkpt><trkpt lat="46.370493439514206" lon="9.359159167378689"><ele>899.0</ele><time>2026-05-03T08:38:07.948Z</time></trkpt><trkpt lat="46.370654650773986" lon="9.359090528426467"><ele>899.0</ele><time>2026-05-03T08:38:08.948Z</time></trkpt><trkpt lat="46.37079394674136" lon="9.359077432024684"><ele>904.3333333333334</ele><time>2026-05-03T08:38:09.948Z</time></trkpt><trkpt lat="46.37096056882239" lon="9.359105465669264"><ele>909.6666666666667</ele><time>2026-05-03T08:38:10.948Z</time></trkpt><trkpt lat="46.371113486983475" lon="9.359146097307788"><ele>915.0</ele><time>2026-05-03T08:38:11.948Z</time></trkpt><trkpt lat="46.37130197827928" lon="9.35921517048814"><ele>918.0</ele><time>2026-05-03T08:38:12.948Z</time></trkpt><trkpt lat="46.37149267337234" lon="9.359280736634204"><ele>921.0</ele><time>2026-05-03T08:38:13.948Z</time></trkpt><trkpt lat="46.37168257334626" lon="9.359358654922932"><ele>924.0</ele><time>2026-05-03T08:38:14.948Z</time></trkpt><trkpt lat="46.37184606336229" lon="9.359461807244175"><ele>924.0</ele><time>2026-05-03T08:38:15.948Z</time></trkpt><trkpt lat="46.37205104332079" lon="9.359618531502107"><ele>924.0</ele><time>2026-05-03T08:38:16.948Z</time></trkpt><trkpt lat="46.37225415672769" lon="9.359760221474751"><ele>926.0</ele><time>2026-05-03T08:38:17.947Z</time></trkpt><trkpt lat="46.372441845680534" lon="9.3598644533484"><ele>928.0</ele><time>2026-05-03T08:38:18.947Z</time></trkpt><trkpt lat="46.37263710225591" lon="9.359960096729449"><ele>930.0</ele><time>2026-05-03T08:38:19.948Z</time></trkpt><trkpt lat="46.372808190045816" lon="9.360031860523076"><ele>930.0</ele><time>2026-05-03T08:38:20.948Z</time></trkpt><trkpt lat="46.372963738500204" lon="9.360114589232012"><ele>930.0</ele><time>2026-05-03T08:38:21.948Z</time></trkpt><trkpt lat="46.373130136950415" lon="9.360126972836468"><ele>930.0</ele><time>2026-05-03T08:38:22.948Z</time></trkpt><trkpt lat="46.373270009118826" lon="9.360087059530352"><ele>931.0</ele><time>2026-05-03T08:38:23.948Z</time></trkpt><trkpt lat="46.37340643623352" lon="9.36009267820812"><ele>932.0</ele><time>2026-05-03T08:38:24.948Z</time></trkpt><trkpt lat="46.37352987752489" lon="9.360173546372096"><ele>933.0</ele><time>2026-05-03T08:38:25.948Z</time></trkpt><trkpt lat="46.37360968883081" lon="9.360334621522997"><ele>934.0</ele><time>2026-05-03T08:38:26.948Z</time></trkpt><trkpt lat="46.37372597508181" lon="9.360483232730125"><ele>939.3333333333333</ele><time>2026-05-03T08:38:27.948Z</time></trkpt><trkpt lat="46.37386688108105" lon="9.360669123670847"><ele>944.6666666666667</ele><time>2026-05-03T08:38:28.948Z</time></trkpt><trkpt lat="46.374020573134544" lon="9.360780431019974"><ele>950.0</ele><time>2026-05-03T08:38:29.948Z</time></trkpt><trkpt lat="46.374158241788535" lon="9.360830282085974"><ele>950.0</ele><time>2026-05-03T08:38:30.948Z</time></trkpt><trkpt lat="46.3743218230626" lon="9.360772748049794"><ele>950.0</ele><time>2026-05-03T08:38:31.948Z</time></trkpt><trkpt lat="46.374478352170364" lon="9.360684993321378"><ele>950.0</ele><time>2026-05-03T08:38:32.948Z</time></trkpt><trkpt lat="46.37458514210795" lon="9.360500607890671"><ele>954.3333333333334</ele><time>2026-05-03T08:38:33.948Z</time></trkpt><trkpt lat="46.374685687594194" lon="9.36032491370701"><ele>958.6666666666667</ele><time>2026-05-03T08:38:34.948Z</time></trkpt><trkpt lat="46.374742671054285" lon="9.3600731657403"><ele>963.0</ele><time>2026-05-03T08:38:35.948Z</time></trkpt><trkpt lat="46.37482763198629" lon="9.359876882142775"><ele>963.0</ele><time>2026-05-03T08:38:36.948Z</time></trkpt><trkpt lat="46.37495529750603" lon="9.359708733157984"><ele>963.0</ele><time>2026-05-03T08:38:37.948Z</time></trkpt><trkpt lat="46.37511510859872" lon="9.359550074062108"><ele>963.0</ele><time>2026-05-03T08:38:38.948Z</time></trkpt><trkpt lat="46.37530566128313" lon="9.359422354075177"><ele>966.0</ele><time>2026-05-03T08:38:39.948Z</time></trkpt><trkpt lat="46.375493055173195" lon="9.359278679646337"><ele>969.0</ele><time>2026-05-03T08:38:40.948Z</time></trkpt><trkpt lat="46.375641441236695" lon="9.359096409910599"><ele>972.0</ele><time>2026-05-03T08:38:41.948Z</time></trkpt><trkpt lat="46.375780085485765" lon="9.358889335823166"><ele>961.6666666666667</ele><time>2026-05-03T08:38:42.948Z</time></trkpt><trkpt lat="46.375920565800044" lon="9.358715879755817"><ele>951.3333333333334</ele><time>2026-05-03T08:38:43.948Z</time></trkpt><trkpt lat="46.37610395554224" lon="9.358561098077764"><ele>941.0</ele><time>2026-05-03T08:38:44.948Z</time></trkpt><trkpt lat="46.37632195070278" lon="9.35843046239349"><ele>956.5</ele><time>2026-05-03T08:38:45.948Z</time></trkpt><trkpt lat="46.37653967914785" lon="9.358286732053699"><ele>972.0</ele><time>2026-05-03T08:38:46.948Z</time></trkpt><trkpt lat="46.37674159310091" lon="9.358119561406268"><ele>975.3333333333333</ele><time>2026-05-03T08:38:47.948Z</time></trkpt><trkpt lat="46.37694593645839" lon="9.358025808560463"><ele>978.6666666666666</ele><time>2026-05-03T08:38:48.948Z</time></trkpt><trkpt lat="46.377138289396534" lon="9.357980585872518"><ele>982.0</ele><time>2026-05-03T08:38:49.948Z</time></trkpt><trkpt lat="46.377288301935685" lon="9.357871494362293"><ele>982.0</ele><time>2026-05-03T08:38:50.948Z</time></trkpt><trkpt lat="46.37745548415498" lon="9.357740698389003"><ele>982.0</ele><time>2026-05-03T08:38:51.948Z</time></trkpt><trkpt lat="46.37761057589251" lon="9.357497214258359"><ele>982.0</ele><time>2026-05-03T08:38:52.948Z</time></trkpt><trkpt lat="46.377789544467866" lon="9.357255327732496"><ele>986.0</ele><time>2026-05-03T08:38:53.948Z</time></trkpt><trkpt lat="46.3779793358225" lon="9.357018197203649"><ele>990.0</ele><time>2026-05-03T08:38:54.948Z</time></trkpt><trkpt lat="46.37815829003747" lon="9.356781259964569"><ele>990.0</ele><time>2026-05-03T08:38:55.948Z</time></trkpt><trkpt lat="46.378336960031135" lon="9.356583959320119"><ele>990.0</ele><time>2026-05-03T08:38:56.948Z</time></trkpt><trkpt lat="46.378529073942666" lon="9.356432281806464"><ele>990.0</ele><time>2026-05-03T08:38:57.948Z</time></trkpt><trkpt lat="46.37872903661746" lon="9.356266782796586"><ele>987.6666666666667</ele><time>2026-05-03T08:38:58.948Z</time></trkpt><trkpt lat="46.37893148714872" lon="9.35611934918076"><ele>985.3333333333334</ele><time>2026-05-03T08:38:59.948Z</time></trkpt><trkpt lat="46.37911135016684" lon="9.355971430306704"><ele>983.0</ele><time>2026-05-03T08:39:00.948Z</time></trkpt><trkpt lat="46.37925674774727" lon="9.355869974043474"><ele>983.0</ele><time>2026-05-03T08:39:01.948Z</time></trkpt><trkpt lat="46.37938613415642" lon="9.355871496333647"><ele>983.0</ele><time>2026-05-03T08:39:02.948Z</time></trkpt><trkpt lat="46.37955722114291" lon="9.355882343530817"><ele>983.0</ele><time>2026-05-03T08:39:03.948Z</time></trkpt><trkpt lat="46.379758741881055" lon="9.35587920882268"><ele>990.0</ele><time>2026-05-03T08:39:04.948Z</time></trkpt><trkpt lat="46.3799571327223" lon="9.355869894554695"><ele>997.0</ele><time>2026-05-03T08:39:05.948Z</time></trkpt><trkpt lat="46.380175661027366" lon="9.355873147308635"><ele>1004.0</ele><time>2026-05-03T08:39:06.948Z</time></trkpt><trkpt lat="46.38039241647963" lon="9.355884693668038"><ele>1014.0</ele><time>2026-05-03T08:39:07.948Z</time></trkpt><trkpt lat="46.380597147670336" lon="9.355882394647535"><ele>1024.0</ele><time>2026-05-03T08:39:08.948Z</time></trkpt><trkpt lat="46.38080852180079" lon="9.355897708472906"><ele>1034.0</ele><time>2026-05-03T08:39:09.948Z</time></trkpt><trkpt lat="46.38101001537948" lon="9.355867904856508"><ele>1034.0</ele><time>2026-05-03T08:39:10.948Z</time></trkpt><trkpt lat="46.381210504010944" lon="9.355860111108646"><ele>1034.0</ele><time>2026-05-03T08:39:11.948Z</time></trkpt><trkpt lat="46.381412972635644" lon="9.355850116379486"><ele>1034.0</ele><time>2026-05-03T08:39:12.948Z</time></trkpt><trkpt lat="46.381645421669184" lon="9.355835492918834"><ele>1043.5</ele><time>2026-05-03T08:39:14.084Z</time></trkpt><trkpt lat="46.38184909920071" lon="9.355822189255683"><ele>1053.0</ele><time>2026-05-03T08:39:15.084Z</time></trkpt><trkpt lat="46.383193734251584" lon="9.355626002016345"><ele>1053.0</ele><time>2026-05-03T08:39:18.443Z</time></trkpt><trkpt lat="46.38367455472791" lon="9.35581350301105"><ele>1056.0</ele><time>2026-05-03T08:39:21.948Z</time></trkpt><trkpt lat="46.384171063599126" lon="9.35598378603587"><ele>1056.0</ele><time>2026-05-03T08:39:23.948Z</time></trkpt><trkpt lat="46.38438727622053" lon="9.355992727910802"><ele>1056.0</ele><time>2026-05-03T08:39:24.948Z</time></trkpt><trkpt lat="46.38467342608751" lon="9.35586285418335"><ele>1053.0</ele><time>2026-05-03T08:39:26.948Z</time></trkpt><trkpt lat="46.38480757495766" lon="9.355659089104599"><ele>1050.0</ele><time>2026-05-03T08:39:27.948Z</time></trkpt><trkpt lat="46.38495109622088" lon="9.355399184007432"><ele>1047.0</ele><time>2026-05-03T08:39:28.948Z</time></trkpt><trkpt lat="46.38506429529068" lon="9.35516340003442"><ele>1047.0</ele><time>2026-05-03T08:39:29.948Z</time></trkpt><trkpt lat="46.3851955932369" lon="9.354971243058406"><ele>1047.0</ele><time>2026-05-03T08:39:30.948Z</time></trkpt><trkpt lat="46.3853170882315" lon="9.354894581141782"><ele>1047.0</ele><time>2026-05-03T08:39:31.948Z</time></trkpt><trkpt lat="46.385461836954704" lon="9.35453017614274"><ele>1045.3333333333333</ele><time>2026-05-03T08:39:32.948Z</time></trkpt><trkpt lat="46.38565192590159" lon="9.354456371536669"><ele>1043.6666666666665</ele><time>2026-05-03T08:39:33.948Z</time></trkpt><trkpt lat="46.38585863928493" lon="9.354406308941789"><ele>1042.0</ele><time>2026-05-03T08:39:34.948Z</time></trkpt><trkpt lat="46.38607415950559" lon="9.35439565415824"><ele>1042.0</ele><time>2026-05-03T08:39:35.948Z</time></trkpt><trkpt lat="46.386275073597766" lon="9.354346960570025"><ele>1042.0</ele><time>2026-05-03T08:39:36.948Z</time></trkpt><trkpt lat="46.386464930612355" lon="9.354272740680537"><ele>1042.0</ele><time>2026-05-03T08:39:37.948Z</time></trkpt><trkpt lat="46.386652874592286" lon="9.354197947563918"><ele>1049.0</ele><time>2026-05-03T08:39:38.948Z</time></trkpt><trkpt lat="46.3868440125096" lon="9.354129400535887"><ele>1056.0</ele><time>2026-05-03T08:39:39.948Z</time></trkpt><trkpt lat="46.38702754920093" lon="9.354047003563984"><ele>1063.0</ele><time>2026-05-03T08:39:40.948Z</time></trkpt><trkpt lat="46.38720464730466" lon="9.353961303486725"><ele>1063.3333333333333</ele><time>2026-05-03T08:39:41.948Z</time></trkpt><trkpt lat="46.38738025021602" lon="9.353858796010481"><ele>1063.6666666666667</ele><time>2026-05-03T08:39:42.948Z</time></trkpt><trkpt lat="46.38754895817635" lon="9.35376441788868"><ele>1064.0</ele><time>2026-05-03T08:39:43.948Z</time></trkpt><trkpt lat="46.38771252349887" lon="9.353660974934451"><ele>1064.0</ele><time>2026-05-03T08:39:44.948Z</time></trkpt><trkpt lat="46.38785428090161" lon="9.353562399579875"><ele>1064.0</ele><time>2026-05-03T08:39:45.948Z</time></trkpt><trkpt lat="46.387996169656475" lon="9.35345732653888"><ele>1064.0</ele><time>2026-05-03T08:39:46.948Z</time></trkpt><trkpt lat="46.38813975060381" lon="9.353352625675733"><ele>1067.0</ele><time>2026-05-03T08:39:47.948Z</time></trkpt><trkpt lat="46.38829024869409" lon="9.35325632525641"><ele>1070.0</ele><time>2026-05-03T08:39:48.948Z</time></trkpt><trkpt lat="46.38844729280427" lon="9.353159043888413"><ele>1073.0</ele><time>2026-05-03T08:39:49.948Z</time></trkpt><trkpt lat="46.388600946711755" lon="9.3530714862847"><ele>1071.3333333333335</ele><time>2026-05-03T08:39:50.948Z</time></trkpt><trkpt lat="46.388747899092174" lon="9.352993525837705"><ele>1069.6666666666667</ele><time>2026-05-03T08:39:51.948Z</time></trkpt><trkpt lat="46.38891494373786" lon="9.352965439454099"><ele>1068.0</ele><time>2026-05-03T08:39:52.948Z</time></trkpt><trkpt lat="46.3890536792598" lon="9.352933450067903"><ele>1068.0</ele><time>2026-05-03T08:39:53.948Z</time></trkpt><trkpt lat="46.38918545679185" lon="9.352907258879506"><ele>1068.0</ele><time>2026-05-03T08:39:54.948Z</time></trkpt><trkpt lat="46.389333650825215" lon="9.352954548951617"><ele>1068.0</ele><time>2026-05-03T08:39:55.948Z</time></trkpt><trkpt lat="46.38948627267643" lon="9.352941886362352"><ele>1068.0</ele><time>2026-05-03T08:39:56.948Z</time></trkpt><trkpt lat="46.38965357322696" lon="9.352918215976146"><ele>1066.0</ele><time>2026-05-03T08:39:57.948Z</time></trkpt><trkpt lat="46.38983016181763" lon="9.352893019596296"><ele>1064.0</ele><time>2026-05-03T08:39:58.948Z</time></trkpt><trkpt lat="46.3900127970758" lon="9.352876621888564"><ele>1062.0</ele><time>2026-05-03T08:39:59.948Z</time></trkpt><trkpt lat="46.39019252042162" lon="9.352856924009092"><ele>1062.0</ele><time>2026-05-03T08:40:00.948Z</time></trkpt><trkpt lat="46.39037275976078" lon="9.352835164581622"><ele>1062.0</ele><time>2026-05-03T08:40:01.948Z</time></trkpt><trkpt lat="46.39055384325036" lon="9.3528057979921"><ele>1062.0</ele><time>2026-05-03T08:40:02.948Z</time></trkpt><trkpt lat="46.390745037355714" lon="9.352793497908863"><ele>1061.6666666666667</ele><time>2026-05-03T08:40:03.948Z</time></trkpt><trkpt lat="46.39093392173753" lon="9.352781637146082"><ele>1061.3333333333335</ele><time>2026-05-03T08:40:04.948Z</time></trkpt><trkpt lat="46.39111784005278" lon="9.352743004557974"><ele>1061.0</ele><time>2026-05-03T08:40:05.948Z</time></trkpt><trkpt lat="46.39130524549793" lon="9.352724867464218"><ele>1060.6666666666667</ele><time>2026-05-03T08:40:06.948Z</time></trkpt><trkpt lat="46.39148912990076" lon="9.352727637005584"><ele>1060.3333333333333</ele><time>2026-05-03T08:40:07.948Z</time></trkpt><trkpt lat="46.39166590944486" lon="9.35272506666095"><ele>1060.0</ele><time>2026-05-03T08:40:08.948Z</time></trkpt><trkpt lat="46.391842147491516" lon="9.352764328587527"><ele>1060.0</ele><time>2026-05-03T08:40:09.948Z</time></trkpt><trkpt lat="46.392019681793094" lon="9.35282243487917"><ele>1060.0</ele><time>2026-05-03T08:40:10.948Z</time></trkpt><trkpt lat="46.39219459699403" lon="9.352887619194309"><ele>1060.0</ele><time>2026-05-03T08:40:11.948Z</time></trkpt><trkpt lat="46.39235213329583" lon="9.352940851560158"><ele>1060.0</ele><time>2026-05-03T08:40:12.948Z</time></trkpt><trkpt lat="46.392515096563294" lon="9.352990022319972"><ele>1060.0</ele><time>2026-05-03T08:40:13.945Z</time></trkpt><trkpt lat="46.392676386929885" lon="9.353017507110279"><ele>1060.0</ele><time>2026-05-03T08:40:14.944Z</time></trkpt><trkpt lat="46.39284930424965" lon="9.353007677052116"><ele>1061.3333333333333</ele><time>2026-05-03T08:40:15.944Z</time></trkpt><trkpt lat="46.39303185619543" lon="9.35294330895647"><ele>1062.6666666666667</ele><time>2026-05-03T08:40:16.945Z</time></trkpt><trkpt lat="46.39321542180673" lon="9.352855699687991"><ele>1064.0</ele><time>2026-05-03T08:40:17.945Z</time></trkpt><trkpt lat="46.39339197405568" lon="9.352779615283989"><ele>1064.0</ele><time>2026-05-03T08:40:18.945Z</time></trkpt><trkpt lat="46.393567047520264" lon="9.352725701139358"><ele>1064.0</ele><time>2026-05-03T08:40:19.944Z</time></trkpt><trkpt lat="46.393740644464145" lon="9.352715696285417"><ele>1064.0</ele><time>2026-05-03T08:40:20.944Z</time></trkpt><trkpt lat="46.39391171675803" lon="9.352739808871029"><ele>1066.3333333333335</ele><time>2026-05-03T08:40:21.944Z</time></trkpt><trkpt lat="46.39408205561064" lon="9.352763812539624"><ele>1068.6666666666667</ele><time>2026-05-03T08:40:22.945Z</time></trkpt><trkpt lat="46.39425433940142" lon="9.352789378414235"><ele>1071.0</ele><time>2026-05-03T08:40:23.945Z</time></trkpt><trkpt lat="46.39442768861463" lon="9.352825823166445"><ele>1071.0</ele><time>2026-05-03T08:40:24.945Z</time></trkpt><trkpt lat="46.39459759631296" lon="9.3528748694073"><ele>1071.0</ele><time>2026-05-03T08:40:25.944Z</time></trkpt><trkpt lat="46.39475758594345" lon="9.352903627389725"><ele>1071.0</ele><time>2026-05-03T08:40:26.944Z</time></trkpt><trkpt lat="46.39491176930234" lon="9.352932255122088"><ele>1071.0</ele><time>2026-05-03T08:40:27.944Z</time></trkpt><trkpt lat="46.39505042416298" lon="9.352956037831765"><ele>1071.0</ele><time>2026-05-03T08:40:28.944Z</time></trkpt><trkpt lat="46.39515287988319" lon="9.35298439707373"><ele>1071.0</ele><time>2026-05-03T08:40:29.944Z</time></trkpt><trkpt lat="46.3952783966975" lon="9.352984010989251"><ele>1071.0</ele><time>2026-05-03T08:40:30.944Z</time></trkpt><trkpt lat="46.3954183193768" lon="9.352985771235225"><ele>1070.6</ele><time>2026-05-03T08:40:31.944Z</time></trkpt><trkpt lat="46.39555554928259" lon="9.352990261082939"><ele>1070.1999999999998</ele><time>2026-05-03T08:40:32.944Z</time></trkpt><trkpt lat="46.395655727447554" lon="9.352967157383583"><ele>1069.8000000000002</ele><time>2026-05-03T08:40:33.944Z</time></trkpt><trkpt lat="46.39572973036386" lon="9.352958415726768"><ele>1069.4</ele><time>2026-05-03T08:40:34.944Z</time></trkpt><trkpt lat="46.39579749072278" lon="9.352950118443884"><ele>1069.0</ele><time>2026-05-03T08:40:35.944Z</time></trkpt><trkpt lat="46.39587699519247" lon="9.352928889512903"><ele>1069.0</ele><time>2026-05-03T08:40:36.944Z</time></trkpt><trkpt lat="46.39595690344892" lon="9.352904827947464"><ele>1069.0</ele><time>2026-05-03T08:40:37.944Z</time></trkpt><trkpt lat="46.39605118956678" lon="9.352888446246869"><ele>1069.0</ele><time>2026-05-03T08:40:38.944Z</time></trkpt><trkpt lat="46.396153390026576" lon="9.352871519924669"><ele>1069.0</ele><time>2026-05-03T08:40:39.944Z</time></trkpt><trkpt lat="46.396260131123036" lon="9.35285474441861"><ele>1069.0</ele><time>2026-05-03T08:40:40.944Z</time></trkpt><trkpt lat="46.39637756963196" lon="9.352838717651027"><ele>1069.5</ele><time>2026-05-03T08:40:41.944Z</time></trkpt><trkpt lat="46.39650837298295" lon="9.352828530340856"><ele>1070.0</ele><time>2026-05-03T08:40:42.944Z</time></trkpt><trkpt lat="46.39664613735486" lon="9.352813413111877"><ele>1070.5</ele><time>2026-05-03T08:40:43.944Z</time></trkpt><trkpt lat="46.39679812172355" lon="9.352793952629353"><ele>1071.0</ele><time>2026-05-03T08:40:44.944Z</time></trkpt><trkpt lat="46.39698100305038" lon="9.352748827300411"><ele>1072.0</ele><time>2026-05-03T08:40:45.944Z</time></trkpt><trkpt lat="46.397198934077494" lon="9.352703541876267"><ele>1073.0</ele><time>2026-05-03T08:40:46.944Z</time></trkpt><trkpt lat="46.39741430142576" lon="9.352683447776913"><ele>1074.0</ele><time>2026-05-03T08:40:47.944Z</time></trkpt><trkpt lat="46.39762998373053" lon="9.352670775120961"><ele>1074.0</ele><time>2026-05-03T08:40:48.944Z</time></trkpt><trkpt lat="46.39784860927291" lon="9.352651526921013"><ele>1074.0</ele><time>2026-05-03T08:40:49.944Z</time></trkpt><trkpt lat="46.398056926636436" lon="9.35265151717091"><ele>1074.0</ele><time>2026-05-03T08:40:50.944Z</time></trkpt><trkpt lat="46.39824036502656" lon="9.352685779596703"><ele>1076.3333333333333</ele><time>2026-05-03T08:40:51.944Z</time></trkpt><trkpt lat="46.3984469910267" lon="9.35274731131714"><ele>1078.6666666666665</ele><time>2026-05-03T08:40:52.944Z</time></trkpt><trkpt lat="46.398652395207094" lon="9.352808431388885"><ele>1081.0</ele><time>2026-05-03T08:40:53.944Z</time></trkpt><trkpt lat="46.39886319353412" lon="9.352858523327953"><ele>1081.0</ele><time>2026-05-03T08:40:54.944Z</time></trkpt><trkpt lat="46.39907054964497" lon="9.352897074717413"><ele>1081.0</ele><time>2026-05-03T08:40:55.944Z</time></trkpt><trkpt lat="46.3992680501687" lon="9.352943240532982"><ele>1081.0</ele><time>2026-05-03T08:40:56.944Z</time></trkpt><trkpt lat="46.39946190857764" lon="9.352992534672355"><ele>1086.6666666666665</ele><time>2026-05-03T08:40:57.944Z</time></trkpt><trkpt lat="46.39966583419737" lon="9.353041022700936"><ele>1092.3333333333333</ele><time>2026-05-03T08:40:58.944Z</time></trkpt><trkpt lat="46.39986581987484" lon="9.353112589281647"><ele>1098.0</ele><time>2026-05-03T08:40:59.944Z</time></trkpt><trkpt lat="46.40006092532336" lon="9.353212028877527"><ele>1098.0</ele><time>2026-05-03T08:41:00.944Z</time></trkpt><trkpt lat="46.400255907835245" lon="9.353332265292506"><ele>1098.0</ele><time>2026-05-03T08:41:01.944Z</time></trkpt><trkpt lat="46.400458267694376" lon="9.353468684295207"><ele>1098.0</ele><time>2026-05-03T08:41:02.944Z</time></trkpt><trkpt lat="46.40065912680148" lon="9.353606427520056"><ele>1100.0</ele><time>2026-05-03T08:41:03.944Z</time></trkpt><trkpt lat="46.400865722543564" lon="9.353746688696209"><ele>1102.0</ele><time>2026-05-03T08:41:04.944Z</time></trkpt><trkpt lat="46.40107586298512" lon="9.353881435027159"><ele>1102.0</ele><time>2026-05-03T08:41:05.944Z</time></trkpt><trkpt lat="46.40128517966418" lon="9.35402073261604"><ele>1102.0</ele><time>2026-05-03T08:41:06.944Z</time></trkpt><trkpt lat="46.4014921659878" lon="9.35415348204865"><ele>1101.3333333333333</ele><time>2026-05-03T08:41:07.944Z</time></trkpt><trkpt lat="46.401689782298334" lon="9.35428642502017"><ele>1100.6666666666667</ele><time>2026-05-03T08:41:08.944Z</time></trkpt><trkpt lat="46.40186620868775" lon="9.354406738034719"><ele>1100.0</ele><time>2026-05-03T08:41:09.944Z</time></trkpt><trkpt lat="46.402033149509315" lon="9.354521417529334"><ele>1100.3333333333335</ele><time>2026-05-03T08:41:10.944Z</time></trkpt><trkpt lat="46.40219403991437" lon="9.35462285259781"><ele>1100.6666666666667</ele><time>2026-05-03T08:41:11.944Z</time></trkpt><trkpt lat="46.40233660044408" lon="9.354717760632907"><ele>1101.0</ele><time>2026-05-03T08:41:12.944Z</time></trkpt><trkpt lat="46.402462713040144" lon="9.354786174408899"><ele>1103.75</ele><time>2026-05-03T08:41:13.944Z</time></trkpt><trkpt lat="46.402579891266264" lon="9.354848579591437"><ele>1106.5</ele><time>2026-05-03T08:41:14.944Z</time></trkpt><trkpt lat="46.402706481271395" lon="9.354841328044685"><ele>1109.25</ele><time>2026-05-03T08:41:15.944Z</time></trkpt><trkpt lat="46.40283259200753" lon="9.35481191945103"><ele>1112.0</ele><time>2026-05-03T08:41:16.944Z</time></trkpt><trkpt lat="46.40294224630482" lon="9.354748496404394"><ele>1110.6</ele><time>2026-05-03T08:41:17.944Z</time></trkpt><trkpt lat="46.40306150989313" lon="9.354669109295465"><ele>1109.2</ele><time>2026-05-03T08:41:18.944Z</time></trkpt><trkpt lat="46.40315873801616" lon="9.354570357070786"><ele>1107.8</ele><time>2026-05-03T08:41:19.944Z</time></trkpt><trkpt lat="46.40324043142956" lon="9.354476482261532"><ele>1106.4</ele><time>2026-05-03T08:41:20.944Z</time></trkpt><trkpt lat="46.40331221461628" lon="9.354397311122677"><ele>1105.0</ele><time>2026-05-03T08:41:21.944Z</time></trkpt><trkpt lat="46.403390376508376" lon="9.35431411915723"><ele>1105.0</ele><time>2026-05-03T08:41:22.944Z</time></trkpt><trkpt lat="46.403479119147434" lon="9.354241229298122"><ele>1105.0</ele><time>2026-05-03T08:41:23.944Z</time></trkpt><trkpt lat="46.4035650015629" lon="9.354125254559415"><ele>1105.0</ele><time>2026-05-03T08:41:24.944Z</time></trkpt><trkpt lat="46.4036352326508" lon="9.354001603471284"><ele>1105.0</ele><time>2026-05-03T08:41:25.944Z</time></trkpt><trkpt lat="46.40370340922004" lon="9.353885966826292"><ele>1105.0</ele><time>2026-05-03T08:41:26.944Z</time></trkpt><trkpt lat="46.40377915160586" lon="9.353779121695254"><ele>1104.0</ele><time>2026-05-03T08:41:27.944Z</time></trkpt><trkpt lat="46.40385924387642" lon="9.353681081509155"><ele>1103.0</ele><time>2026-05-03T08:41:28.944Z</time></trkpt><trkpt lat="46.4039358207468" lon="9.353552567220966"><ele>1102.0</ele><time>2026-05-03T08:41:29.944Z</time></trkpt><trkpt lat="46.404022538829935" lon="9.353444771574887"><ele>1101.0</ele><time>2026-05-03T08:41:30.944Z</time></trkpt><trkpt lat="46.404105649454266" lon="9.3533421949119"><ele>1100.0</ele><time>2026-05-03T08:41:31.944Z</time></trkpt><trkpt lat="46.40421173697271" lon="9.353251154704713"><ele>1100.0</ele><time>2026-05-03T08:41:32.944Z</time></trkpt><trkpt lat="46.40430306695292" lon="9.35311631762586"><ele>1100.0</ele><time>2026-05-03T08:41:33.944Z</time></trkpt><trkpt lat="46.40442271329017" lon="9.352952752709712"><ele>1100.0</ele><time>2026-05-03T08:41:34.944Z</time></trkpt><trkpt lat="46.404554893271545" lon="9.352781411915544"><ele>1099.0</ele><time>2026-05-03T08:41:35.944Z</time></trkpt><trkpt lat="46.40469922343305" lon="9.352658210805576"><ele>1098.0</ele><time>2026-05-03T08:41:36.944Z</time></trkpt><trkpt lat="46.404810866137176" lon="9.352524182019327"><ele>1097.0</ele><time>2026-05-03T08:41:37.944Z</time></trkpt><trkpt lat="46.404906750496025" lon="9.352405420869268"><ele>1096.0</ele><time>2026-05-03T08:41:38.944Z</time></trkpt><trkpt lat="46.40499355682758" lon="9.352293333518912"><ele>1095.3999999999999</ele><time>2026-05-03T08:41:39.944Z</time></trkpt><trkpt lat="46.405077039588896" lon="9.352190992929287"><ele>1094.8</ele><time>2026-05-03T08:41:40.944Z</time></trkpt><trkpt lat="46.40514812127331" lon="9.352099365142273"><ele>1094.1999999999998</ele><time>2026-05-03T08:41:41.944Z</time></trkpt><trkpt lat="46.40521988400627" lon="9.35200522018627"><ele>1093.6</ele><time>2026-05-03T08:41:42.944Z</time></trkpt><trkpt lat="46.40529024950267" lon="9.351913116716366"><ele>1093.0</ele><time>2026-05-03T08:41:43.944Z</time></trkpt><trkpt lat="46.40537118800271" lon="9.351832781696539"><ele>1093.0</ele><time>2026-05-03T08:41:44.944Z</time></trkpt><trkpt lat="46.40545136580133" lon="9.351788609554648"><ele>1093.0</ele><time>2026-05-03T08:41:45.944Z</time></trkpt><trkpt lat="46.405525211559116" lon="9.35178644404933"><ele>1093.0</ele><time>2026-05-03T08:41:46.944Z</time></trkpt><trkpt lat="46.405594573708335" lon="9.351799083169974"><ele>1093.0</ele><time>2026-05-03T08:41:47.944Z</time></trkpt><trkpt lat="46.40566599372126" lon="9.3517980912551"><ele>1093.0</ele><time>2026-05-03T08:41:49.944Z</time></trkpt><trkpt lat="46.40574105408681" lon="9.351861579927782"><ele>1093.0</ele><time>2026-05-03T08:41:59.944Z</time></trkpt><trkpt lat="46.40585088061339" lon="9.351946374196926"><ele>1092.6666666666665</ele><time>2026-05-03T08:42:01.944Z</time></trkpt><trkpt lat="46.40591607187918" lon="9.351997543843739"><ele>1092.3333333333333</ele><time>2026-05-03T08:42:02.944Z</time></trkpt><trkpt lat="46.40598237357206" lon="9.352021947363763"><ele>1092.0</ele><time>2026-05-03T08:42:03.944Z</time></trkpt><trkpt lat="46.40604585737668" lon="9.352045282112918"><ele>1091.6666666666667</ele><time>2026-05-03T08:42:04.944Z</time></trkpt><trkpt lat="46.40614493671005" lon="9.352091360449128"><ele>1091.3333333333335</ele><time>2026-05-03T08:42:06.944Z</time></trkpt><trkpt lat="46.40620994773925" lon="9.35210479657882"><ele>1091.0</ele><time>2026-05-03T08:42:07.944Z</time></trkpt><trkpt lat="46.40629489833254" lon="9.352092867182128"><ele>1090.6666666666667</ele><time>2026-05-03T08:42:08.944Z</time></trkpt><trkpt lat="46.40637779797411" lon="9.35206269433404"><ele>1090.3333333333335</ele><time>2026-05-03T08:42:09.944Z</time></trkpt><trkpt lat="46.40645864027568" lon="9.351987713856252"><ele>1090.0</ele><time>2026-05-03T08:42:10.944Z</time></trkpt><trkpt lat="46.40653382455136" lon="9.351915665282451"><ele>1089.6666666666667</ele><time>2026-05-03T08:42:11.944Z</time></trkpt><trkpt lat="46.406605265848526" lon="9.351833918920498"><ele>1089.3333333333333</ele><time>2026-05-03T08:42:12.944Z</time></trkpt><trkpt lat="46.40666313520787" lon="9.351770862881121"><ele>1089.0</ele><time>2026-05-03T08:42:13.944Z</time></trkpt><trkpt lat="46.40671422750124" lon="9.351692640120318"><ele>1089.0</ele><time>2026-05-03T08:42:14.944Z</time></trkpt><trkpt lat="46.40678138319113" lon="9.351633262589514"><ele>1089.0</ele><time>2026-05-03T08:42:15.944Z</time></trkpt><trkpt lat="46.40686354066187" lon="9.351572233081336"><ele>1089.0</ele><time>2026-05-03T08:42:16.944Z</time></trkpt><trkpt lat="46.40695186169945" lon="9.351516964500181"><ele>1089.0</ele><time>2026-05-03T08:42:17.944Z</time></trkpt><trkpt lat="46.407036410548685" lon="9.351444329030157"><ele>1089.0</ele><time>2026-05-03T08:42:18.944Z</time></trkpt><trkpt lat="46.40713561040025" lon="9.351386653122956"><ele>1088.0</ele><time>2026-05-03T08:42:19.942Z</time></trkpt><trkpt lat="46.407255194392675" lon="9.351368775336486"><ele>1087.0</ele><time>2026-05-03T08:42:20.942Z</time></trkpt><trkpt lat="46.407394144950345" lon="9.351355454581169"><ele>1086.0</ele><time>2026-05-03T08:42:21.942Z</time></trkpt><trkpt lat="46.40753460411609" lon="9.351339732671885"><ele>1085.0</ele><time>2026-05-03T08:42:22.942Z</time></trkpt><trkpt lat="46.40768384267372" lon="9.351310506516588"><ele>1085.0</ele><time>2026-05-03T08:42:23.941Z</time></trkpt><trkpt lat="46.407844909867556" lon="9.351273820501293"><ele>1085.0</ele><time>2026-05-03T08:42:24.941Z</time></trkpt><trkpt lat="46.40800017828848" lon="9.35123745208544"><ele>1085.0</ele><time>2026-05-03T08:42:25.941Z</time></trkpt><trkpt lat="46.40814492589077" lon="9.351202521279276"><ele>1086.0</ele><time>2026-05-03T08:42:26.941Z</time></trkpt><trkpt lat="46.40828348812322" lon="9.351177603103386"><ele>1087.0</ele><time>2026-05-03T08:42:27.941Z</time></trkpt><trkpt lat="46.40842646156382" lon="9.351158284972442"><ele>1088.0</ele><time>2026-05-03T08:42:28.941Z</time></trkpt><trkpt lat="46.408577415502116" lon="9.351137338484167"><ele>1089.0</ele><time>2026-05-03T08:42:29.942Z</time></trkpt><trkpt lat="46.40871944886433" lon="9.351112094112773"><ele>1090.2</ele><time>2026-05-03T08:42:30.942Z</time></trkpt><trkpt lat="46.408852443307495" lon="9.351095985279986"><ele>1091.4</ele><time>2026-05-03T08:42:31.942Z</time></trkpt><trkpt lat="46.40897139048763" lon="9.35107742638739"><ele>1092.6</ele><time>2026-05-03T08:42:32.941Z</time></trkpt><trkpt lat="46.40906753146373" lon="9.35105130385254"><ele>1093.8</ele><time>2026-05-03T08:42:33.941Z</time></trkpt><trkpt lat="46.40914871696673" lon="9.351053068626713"><ele>1095.0</ele><time>2026-05-03T08:42:34.941Z</time></trkpt><trkpt lat="46.40920705935943" lon="9.350807561309182"><ele>1095.0</ele><time>2026-05-03T08:42:36.941Z</time></trkpt><trkpt lat="46.409207155919155" lon="9.350634284175792"><ele>1095.0</ele><time>2026-05-03T08:42:37.941Z</time></trkpt><trkpt lat="46.40919585636577" lon="9.350422554228091"><ele>1095.0</ele><time>2026-05-03T08:42:38.941Z</time></trkpt><trkpt lat="46.40918788198378" lon="9.350194212928335"><ele>1095.0</ele><time>2026-05-03T08:42:39.941Z</time></trkpt><trkpt lat="46.4091670018446" lon="9.349997873276932"><ele>1092.5</ele><time>2026-05-03T08:42:40.941Z</time></trkpt><trkpt lat="46.409125909255444" lon="9.349815605991944"><ele>1090.0</ele><time>2026-05-03T08:42:41.941Z</time></trkpt><trkpt lat="46.409062065696055" lon="9.349648939467277"><ele>1087.5</ele><time>2026-05-03T08:42:42.941Z</time></trkpt><trkpt lat="46.40899996371198" lon="9.349489929557862"><ele>1085.0</ele><time>2026-05-03T08:42:43.941Z</time></trkpt><trkpt lat="46.40896658200356" lon="9.349322556060722"><ele>1085.0</ele><time>2026-05-03T08:42:44.941Z</time></trkpt><trkpt lat="46.408979665420816" lon="9.349153556273386"><ele>1085.0</ele><time>2026-05-03T08:42:45.941Z</time></trkpt><trkpt lat="46.40902896451203" lon="9.348999337341215"><ele>1085.0</ele><time>2026-05-03T08:42:46.941Z</time></trkpt><trkpt lat="46.40913585664939" lon="9.348880952970106"><ele>1085.0</ele><time>2026-05-03T08:42:47.941Z</time></trkpt><trkpt lat="46.40925489119052" lon="9.348738229073483"><ele>1085.0</ele><time>2026-05-03T08:42:48.941Z</time></trkpt><trkpt lat="46.40938119549592" lon="9.34856180393013"><ele>1085.0</ele><time>2026-05-03T08:42:49.941Z</time></trkpt><trkpt lat="46.409533485139356" lon="9.348379086924071"><ele>1085.0</ele><time>2026-05-03T08:42:50.941Z</time></trkpt><trkpt lat="46.40969900963726" lon="9.348208512543387"><ele>1084.0</ele><time>2026-05-03T08:42:51.941Z</time></trkpt><trkpt lat="46.409867949628726" lon="9.348006308902272"><ele>1083.0</ele><time>2026-05-03T08:42:52.941Z</time></trkpt><trkpt lat="46.41004247789722" lon="9.347770590116799"><ele>1083.0</ele><time>2026-05-03T08:42:53.941Z</time></trkpt><trkpt lat="46.4102198357542" lon="9.347567195946633"><ele>1083.0</ele><time>2026-05-03T08:42:54.941Z</time></trkpt><trkpt lat="46.410386144839194" lon="9.347350085056606"><ele>1084.6666666666667</ele><time>2026-05-03T08:42:55.941Z</time></trkpt><trkpt lat="46.41053175652649" lon="9.347138336669031"><ele>1086.3333333333335</ele><time>2026-05-03T08:42:56.941Z</time></trkpt><trkpt lat="46.41067030289986" lon="9.346924587641615"><ele>1088.0</ele><time>2026-05-03T08:42:57.941Z</time></trkpt><trkpt lat="46.41080159862218" lon="9.346713522869052"><ele>1088.0</ele><time>2026-05-03T08:42:58.941Z</time></trkpt><trkpt lat="46.41093278835908" lon="9.346503646736032"><ele>1088.0</ele><time>2026-05-03T08:42:59.941Z</time></trkpt><trkpt lat="46.41105786654172" lon="9.346301797410357"><ele>1088.0</ele><time>2026-05-03T08:43:00.941Z</time></trkpt><trkpt lat="46.411186138075344" lon="9.346105889314583"><ele>1087.0</ele><time>2026-05-03T08:43:01.941Z</time></trkpt><trkpt lat="46.41130937305072" lon="9.345924086567653"><ele>1086.0</ele><time>2026-05-03T08:43:02.941Z</time></trkpt><trkpt lat="46.41145039371188" lon="9.345784728334017"><ele>1085.0</ele><time>2026-05-03T08:43:03.941Z</time></trkpt><trkpt lat="46.411609366136396" lon="9.345690246749195"><ele>1085.3333333333335</ele><time>2026-05-03T08:43:04.941Z</time></trkpt><trkpt lat="46.4117880847163" lon="9.345610050564368"><ele>1085.6666666666667</ele><time>2026-05-03T08:43:05.941Z</time></trkpt><trkpt lat="46.41198437339798" lon="9.345518690139418"><ele>1086.0</ele><time>2026-05-03T08:43:06.941Z</time></trkpt><trkpt lat="46.412188462579415" lon="9.345406332844664"><ele>1089.0</ele><time>2026-05-03T08:43:07.941Z</time></trkpt><trkpt lat="46.41238401519283" lon="9.345277189631643"><ele>1092.0</ele><time>2026-05-03T08:43:08.941Z</time></trkpt><trkpt lat="46.41258604803643" lon="9.345136173152197"><ele>1095.0</ele><time>2026-05-03T08:43:09.941Z</time></trkpt><trkpt lat="46.41277547217685" lon="9.34492588208943"><ele>1095.0</ele><time>2026-05-03T08:43:10.941Z</time></trkpt><trkpt lat="46.41298572754423" lon="9.344720881736162"><ele>1095.0</ele><time>2026-05-03T08:43:11.941Z</time></trkpt><trkpt lat="46.41318707515373" lon="9.344513783558797"><ele>1095.5</ele><time>2026-05-03T08:43:12.941Z</time></trkpt><trkpt lat="46.41338887974079" lon="9.344303388799696"><ele>1096.0</ele><time>2026-05-03T08:43:13.941Z</time></trkpt><trkpt lat="46.41358072169636" lon="9.34410661581385"><ele>1096.0</ele><time>2026-05-03T08:43:14.941Z</time></trkpt><trkpt lat="46.413758639212254" lon="9.343919897238273"><ele>1096.0</ele><time>2026-05-03T08:43:15.941Z</time></trkpt><trkpt lat="46.4139261609495" lon="9.34374210307761"><ele>1096.0</ele><time>2026-05-03T08:43:16.941Z</time></trkpt><trkpt lat="46.41408391660427" lon="9.34357975378464"><ele>1096.3333333333333</ele><time>2026-05-03T08:43:17.941Z</time></trkpt><trkpt lat="46.41423277934734" lon="9.343430159515147"><ele>1096.6666666666667</ele><time>2026-05-03T08:43:18.941Z</time></trkpt><trkpt lat="46.41438673741347" lon="9.343283145892418"><ele>1097.0</ele><time>2026-05-03T08:43:19.941Z</time></trkpt><trkpt lat="46.41454043861663" lon="9.343152198643303"><ele>1098.6666666666667</ele><time>2026-05-03T08:43:20.941Z</time></trkpt><trkpt lat="46.41470761504157" lon="9.343010072192229"><ele>1100.3333333333333</ele><time>2026-05-03T08:43:21.941Z</time></trkpt><trkpt lat="46.41487513301988" lon="9.342877412427747"><ele>1102.0</ele><time>2026-05-03T08:43:22.941Z</time></trkpt><trkpt lat="46.41502880622512" lon="9.342759958738073"><ele>1102.0</ele><time>2026-05-03T08:43:23.941Z</time></trkpt><trkpt lat="46.41517222692232" lon="9.342675601598168"><ele>1102.0</ele><time>2026-05-03T08:43:24.941Z</time></trkpt><trkpt lat="46.41533530489208" lon="9.342620165501804"><ele>1102.0</ele><time>2026-05-03T08:43:25.941Z</time></trkpt><trkpt lat="46.41552396872549" lon="9.342561175838535"><ele>1108.5</ele><time>2026-05-03T08:43:26.941Z</time></trkpt><trkpt lat="46.415743892210074" lon="9.342524232096185"><ele>1115.0</ele><time>2026-05-03T08:43:27.941Z</time></trkpt><trkpt lat="46.415984301743975" lon="9.34246906595729"><ele>1115.0</ele><time>2026-05-03T08:43:28.941Z</time></trkpt><trkpt lat="46.41624162689169" lon="9.342408504007109"><ele>1115.0</ele><time>2026-05-03T08:43:29.941Z</time></trkpt><trkpt lat="46.41647978926294" lon="9.342342922832968"><ele>1111.0</ele><time>2026-05-03T08:43:30.941Z</time></trkpt><trkpt lat="46.41668151354443" lon="9.34225037061876"><ele>1107.0</ele><time>2026-05-03T08:43:31.941Z</time></trkpt><trkpt lat="46.416869558808166" lon="9.3421595268472"><ele>1103.0</ele><time>2026-05-03T08:43:32.941Z</time></trkpt><trkpt lat="46.417051744138504" lon="9.342039830283673"><ele>1103.6666666666667</ele><time>2026-05-03T08:43:33.941Z</time></trkpt><trkpt lat="46.417246970543026" lon="9.3419456444338"><ele>1104.3333333333333</ele><time>2026-05-03T08:43:34.941Z</time></trkpt><trkpt lat="46.41744030326925" lon="9.341877508589967"><ele>1105.0</ele><time>2026-05-03T08:43:35.941Z</time></trkpt><trkpt lat="46.41764082533146" lon="9.341839086709212"><ele>1105.0</ele><time>2026-05-03T08:43:36.941Z</time></trkpt><trkpt lat="46.417853280710034" lon="9.341799693123964"><ele>1105.0</ele><time>2026-05-03T08:43:37.941Z</time></trkpt><trkpt lat="46.418081735772006" lon="9.341759337003676"><ele>1105.0</ele><time>2026-05-03T08:43:38.941Z</time></trkpt><trkpt lat="46.41830615851313" lon="9.341726739146475"><ele>1105.3333333333333</ele><time>2026-05-03T08:43:39.941Z</time></trkpt><trkpt lat="46.41852925080527" lon="9.341684748667806"><ele>1105.6666666666667</ele><time>2026-05-03T08:43:40.941Z</time></trkpt><trkpt lat="46.41874694053892" lon="9.341628826132942"><ele>1106.0</ele><time>2026-05-03T08:43:41.941Z</time></trkpt><trkpt lat="46.41896680020502" lon="9.341550753573966"><ele>1106.6666666666667</ele><time>2026-05-03T08:43:42.941Z</time></trkpt><trkpt lat="46.41916762257383" lon="9.341454883140942"><ele>1107.3333333333333</ele><time>2026-05-03T08:43:43.941Z</time></trkpt><trkpt lat="46.41936519439025" lon="9.341351778130425"><ele>1108.0</ele><time>2026-05-03T08:43:44.941Z</time></trkpt><trkpt lat="46.419562620055736" lon="9.341248850477795"><ele>1109.0</ele><time>2026-05-03T08:43:45.941Z</time></trkpt><trkpt lat="46.41975753096557" lon="9.341143402217707"><ele>1110.0</ele><time>2026-05-03T08:43:46.941Z</time></trkpt><trkpt lat="46.419963508743535" lon="9.34104929970277"><ele>1111.0</ele><time>2026-05-03T08:43:47.941Z</time></trkpt><trkpt lat="46.4201815035938" lon="9.340968411252387"><ele>1111.0</ele><time>2026-05-03T08:43:48.941Z</time></trkpt><trkpt lat="46.420405042728994" lon="9.340885613613121"><ele>1111.0</ele><time>2026-05-03T08:43:49.941Z</time></trkpt><trkpt lat="46.42062626879245" lon="9.34082434252262"><ele>1113.5</ele><time>2026-05-03T08:43:50.941Z</time></trkpt><trkpt lat="46.42085136274657" lon="9.340801894343274"><ele>1116.0</ele><time>2026-05-03T08:43:51.941Z</time></trkpt><trkpt lat="46.4210826074843" lon="9.34081770384385"><ele>1116.0</ele><time>2026-05-03T08:43:52.941Z</time></trkpt><trkpt lat="46.421303692493076" lon="9.340820701364382"><ele>1116.0</ele><time>2026-05-03T08:43:53.941Z</time></trkpt><trkpt lat="46.421534680106795" lon="9.340806959229157"><ele>1116.5</ele><time>2026-05-03T08:43:54.941Z</time></trkpt><trkpt lat="46.42176130497275" lon="9.34080741103979"><ele>1117.0</ele><time>2026-05-03T08:43:55.941Z</time></trkpt><trkpt lat="46.42199352497254" lon="9.340836394259941"><ele>1117.5</ele><time>2026-05-03T08:43:56.941Z</time></trkpt><trkpt lat="46.42221987177121" lon="9.340886611866093"><ele>1118.0</ele><time>2026-05-03T08:43:57.941Z</time></trkpt><trkpt lat="46.42245261631434" lon="9.340919884779531"><ele>1118.0</ele><time>2026-05-03T08:43:58.941Z</time></trkpt><trkpt lat="46.42267599466222" lon="9.340943930847505"><ele>1118.0</ele><time>2026-05-03T08:43:59.941Z</time></trkpt><trkpt lat="46.4228992776665" lon="9.340972548588136"><ele>1118.0</ele><time>2026-05-03T08:44:00.941Z</time></trkpt><trkpt lat="46.42310781465222" lon="9.340992982885172"><ele>1119.3333333333335</ele><time>2026-05-03T08:44:01.941Z</time></trkpt><trkpt lat="46.42330362709983" lon="9.34101525762092"><ele>1120.6666666666667</ele><time>2026-05-03T08:44:02.941Z</time></trkpt><trkpt lat="46.42347532355685" lon="9.34095973492593"><ele>1122.0</ele><time>2026-05-03T08:44:03.941Z</time></trkpt><trkpt lat="46.423640767269006" lon="9.340893929567164"><ele>1125.0</ele><time>2026-05-03T08:44:04.941Z</time></trkpt><trkpt lat="46.42382168361361" lon="9.340798095907347"><ele>1128.0</ele><time>2026-05-03T08:44:05.941Z</time></trkpt><trkpt lat="46.423997314832285" lon="9.340709941800254"><ele>1131.0</ele><time>2026-05-03T08:44:06.941Z</time></trkpt><trkpt lat="46.42414987862897" lon="9.34059641707442"><ele>1136.6666666666667</ele><time>2026-05-03T08:44:07.941Z</time></trkpt><trkpt lat="46.42428829076683" lon="9.340433028689793"><ele>1142.3333333333335</ele><time>2026-05-03T08:44:08.941Z</time></trkpt><trkpt lat="46.424413344541755" lon="9.340226916212313"><ele>1148.0</ele><time>2026-05-03T08:44:09.941Z</time></trkpt><trkpt lat="46.42456535847513" lon="9.34007073693741"><ele>1147.3333333333335</ele><time>2026-05-03T08:44:10.941Z</time></trkpt><trkpt lat="46.42473411704702" lon="9.3399213980135"><ele>1146.6666666666667</ele><time>2026-05-03T08:44:11.941Z</time></trkpt><trkpt lat="46.424896624211115" lon="9.339802238737619"><ele>1146.0</ele><time>2026-05-03T08:44:12.941Z</time></trkpt><trkpt lat="46.42504618209006" lon="9.33968552144955"><ele>1153.3333333333333</ele><time>2026-05-03T08:44:13.941Z</time></trkpt><trkpt lat="46.425200488322325" lon="9.339673680630264"><ele>1160.6666666666665</ele><time>2026-05-03T08:44:14.941Z</time></trkpt><trkpt lat="46.42536247191786" lon="9.33964377458316"><ele>1168.0</ele><time>2026-05-03T08:44:15.941Z</time></trkpt><trkpt lat="46.42554507826401" lon="9.339617033713628"><ele>1168.0</ele><time>2026-05-03T08:44:16.941Z</time></trkpt><trkpt lat="46.42576016806842" lon="9.339555911823126"><ele>1168.0</ele><time>2026-05-03T08:44:17.941Z</time></trkpt><trkpt lat="46.425940021806056" lon="9.339539829215095"><ele>1168.0</ele><time>2026-05-03T08:44:18.941Z</time></trkpt><trkpt lat="46.42615594825229" lon="9.339420965753117"><ele>1164.0</ele><time>2026-05-03T08:44:19.941Z</time></trkpt><trkpt lat="46.426314774396" lon="9.339311621538112"><ele>1160.0</ele><time>2026-05-03T08:44:20.941Z</time></trkpt><trkpt lat="46.42653809100677" lon="9.339552782510705"><ele>1160.0</ele><time>2026-05-03T08:44:21.941Z</time></trkpt><trkpt lat="46.42668600612434" lon="9.339597948124874"><ele>1160.0</ele><time>2026-05-03T08:44:22.941Z</time></trkpt><trkpt lat="46.426912163250535" lon="9.339622985184022"><ele>1160.0</ele><time>2026-05-03T08:44:23.941Z</time></trkpt><trkpt lat="46.42711533810862" lon="9.339636696979793"><ele>1164.3333333333335</ele><time>2026-05-03T08:44:24.941Z</time></trkpt><trkpt lat="46.42730959525184" lon="9.339628618509728"><ele>1168.6666666666667</ele><time>2026-05-03T08:44:25.939Z</time></trkpt><trkpt lat="46.42751875961709" lon="9.339620308351487"><ele>1173.0</ele><time>2026-05-03T08:44:26.939Z</time></trkpt><trkpt lat="46.42775083474459" lon="9.339569142434522"><ele>1173.0</ele><time>2026-05-03T08:44:27.939Z</time></trkpt><trkpt lat="46.427966711054644" lon="9.339533716348772"><ele>1173.0</ele><time>2026-05-03T08:44:28.939Z</time></trkpt><trkpt lat="46.42817511532254" lon="9.33944841021413"><ele>1173.0</ele><time>2026-05-03T08:44:29.939Z</time></trkpt><trkpt lat="46.42839084657478" lon="9.339402935489243"><ele>1172.0</ele><time>2026-05-03T08:44:30.939Z</time></trkpt><trkpt lat="46.4285862292716" lon="9.339356814337394"><ele>1171.0</ele><time>2026-05-03T08:44:31.939Z</time></trkpt><trkpt lat="46.42876448603557" lon="9.339327017764134"><ele>1170.0</ele><time>2026-05-03T08:44:32.939Z</time></trkpt><trkpt lat="46.428946616998246" lon="9.339277300472013"><ele>1170.0</ele><time>2026-05-03T08:44:33.939Z</time></trkpt><trkpt lat="46.42909618133792" lon="9.339204069394425"><ele>1170.0</ele><time>2026-05-03T08:44:34.939Z</time></trkpt><trkpt lat="46.42920783665506" lon="9.339098968857712"><ele>1170.0</ele><time>2026-05-03T08:44:35.939Z</time></trkpt><trkpt lat="46.42931224987842" lon="9.338955908059022"><ele>1170.0</ele><time>2026-05-03T08:44:36.939Z</time></trkpt><trkpt lat="46.42941611230244" lon="9.338830955837436"><ele>1177.75</ele><time>2026-05-03T08:44:37.939Z</time></trkpt><trkpt lat="46.42953037710389" lon="9.338756332949261"><ele>1185.5</ele><time>2026-05-03T08:44:38.939Z</time></trkpt><trkpt lat="46.429659573688596" lon="9.338705799824966"><ele>1193.25</ele><time>2026-05-03T08:44:39.939Z</time></trkpt><trkpt lat="46.42980882744033" lon="9.338697447695797"><ele>1201.0</ele><time>2026-05-03T08:44:40.939Z</time></trkpt><trkpt lat="46.429946126517585" lon="9.338671121992425"><ele>1201.0</ele><time>2026-05-03T08:44:41.939Z</time></trkpt><trkpt lat="46.43007505276674" lon="9.338573307145735"><ele>1201.0</ele><time>2026-05-03T08:44:42.939Z</time></trkpt><trkpt lat="46.43027601621159" lon="9.33851827543739"><ele>1201.0</ele><time>2026-05-03T08:44:43.939Z</time></trkpt><trkpt lat="46.4304785165596" lon="9.33848700076111"><ele>1201.6666666666665</ele><time>2026-05-03T08:44:44.939Z</time></trkpt><trkpt lat="46.43069187072978" lon="9.338448841531923"><ele>1202.3333333333333</ele><time>2026-05-03T08:44:45.939Z</time></trkpt><trkpt lat="46.43090007080909" lon="9.338388530558898"><ele>1203.0</ele><time>2026-05-03T08:44:46.939Z</time></trkpt><trkpt lat="46.43112537896044" lon="9.338357116436166"><ele>1199.3333333333333</ele><time>2026-05-03T08:44:47.939Z</time></trkpt><trkpt lat="46.43133405755092" lon="9.338290500614251"><ele>1195.6666666666665</ele><time>2026-05-03T08:44:48.939Z</time></trkpt><trkpt lat="46.43153669402567" lon="9.338199721651636"><ele>1192.0</ele><time>2026-05-03T08:44:49.939Z</time></trkpt><trkpt lat="46.43172615913201" lon="9.338100482255983"><ele>1199.6666666666665</ele><time>2026-05-03T08:44:50.939Z</time></trkpt><trkpt lat="46.431947412592415" lon="9.33798825757042"><ele>1207.3333333333333</ele><time>2026-05-03T08:44:51.939Z</time></trkpt><trkpt lat="46.432142424508164" lon="9.337887713405621"><ele>1215.0</ele><time>2026-05-03T08:44:52.939Z</time></trkpt><trkpt lat="46.432337591941376" lon="9.337793618704163"><ele>1215.0</ele><time>2026-05-03T08:44:53.939Z</time></trkpt><trkpt lat="46.432530424057575" lon="9.337699623242006"><ele>1215.0</ele><time>2026-05-03T08:44:54.939Z</time></trkpt><trkpt lat="46.43272644728772" lon="9.33762309997034"><ele>1215.0</ele><time>2026-05-03T08:44:55.939Z</time></trkpt><trkpt lat="46.4329278955875" lon="9.33750639535822"><ele>1212.6666666666667</ele><time>2026-05-03T08:44:56.939Z</time></trkpt><trkpt lat="46.43312946762798" lon="9.337399091180446"><ele>1210.3333333333335</ele><time>2026-05-03T08:44:57.939Z</time></trkpt><trkpt lat="46.433298079964466" lon="9.33734361194066"><ele>1208.0</ele><time>2026-05-03T08:44:58.939Z</time></trkpt><trkpt lat="46.4334743230405" lon="9.337361466753206"><ele>1208.0</ele><time>2026-05-03T08:44:59.939Z</time></trkpt><trkpt lat="46.433648992422256" lon="9.337441989285733"><ele>1208.0</ele><time>2026-05-03T08:45:00.939Z</time></trkpt><trkpt lat="46.433831922846316" lon="9.337483900789934"><ele>1208.0</ele><time>2026-05-03T08:45:01.939Z</time></trkpt><trkpt lat="46.433988454139694" lon="9.337497224584107"><ele>1208.5</ele><time>2026-05-03T08:45:02.939Z</time></trkpt><trkpt lat="46.434113001832635" lon="9.337473125914968"><ele>1209.0</ele><time>2026-05-03T08:45:03.939Z</time></trkpt><trkpt lat="46.43421637583261" lon="9.337414294554705"><ele>1209.5</ele><time>2026-05-03T08:45:04.939Z</time></trkpt><trkpt lat="46.43429096408798" lon="9.337245899010735"><ele>1210.0</ele><time>2026-05-03T08:45:05.939Z</time></trkpt><trkpt lat="46.43440630967" lon="9.337100440947458"><ele>1216.2</ele><time>2026-05-03T08:45:06.939Z</time></trkpt><trkpt lat="46.43451925267435" lon="9.33705208793357"><ele>1222.4</ele><time>2026-05-03T08:45:07.939Z</time></trkpt><trkpt lat="46.43463514805764" lon="9.33704534211699"><ele>1228.6</ele><time>2026-05-03T08:45:08.939Z</time></trkpt><trkpt lat="46.43473213784682" lon="9.337014216457586"><ele>1234.8</ele><time>2026-05-03T08:45:09.939Z</time></trkpt><trkpt lat="46.43479799790778" lon="9.336971018343647"><ele>1241.0</ele><time>2026-05-03T08:45:10.939Z</time></trkpt><trkpt lat="46.43477764591393" lon="9.336842040118741"><ele>1241.0</ele><time>2026-05-03T08:45:12.939Z</time></trkpt><trkpt lat="46.434693757623236" lon="9.3367930787794"><ele>1241.0</ele><time>2026-05-03T08:45:13.939Z</time></trkpt><trkpt lat="46.4345835777101" lon="9.336804211674245"><ele>1241.0</ele><time>2026-05-03T08:45:14.939Z</time></trkpt><trkpt lat="46.43444999249371" lon="9.336876434102926"><ele>1241.0</ele><time>2026-05-03T08:45:15.939Z</time></trkpt><trkpt lat="46.43428686930424" lon="9.336895533337284"><ele>1241.0</ele><time>2026-05-03T08:45:16.939Z</time></trkpt><trkpt lat="46.43411513101266" lon="9.336879292071847"><ele>1241.0</ele><time>2026-05-03T08:45:17.939Z</time></trkpt><trkpt lat="46.43394903849219" lon="9.336850320907208"><ele>1241.0</ele><time>2026-05-03T08:45:18.939Z</time></trkpt><trkpt lat="46.433756814522766" lon="9.336814428484923"><ele>1241.5</ele><time>2026-05-03T08:45:19.939Z</time></trkpt><trkpt lat="46.433597580500795" lon="9.336788086914941"><ele>1242.0</ele><time>2026-05-03T08:45:20.939Z</time></trkpt><trkpt lat="46.433462631338465" lon="9.33676977166757"><ele>1242.5</ele><time>2026-05-03T08:45:21.939Z</time></trkpt><trkpt lat="46.43336952955167" lon="9.336764807597714"><ele>1243.0</ele><time>2026-05-03T08:45:22.939Z</time></trkpt><trkpt lat="46.43327984081054" lon="9.336777298949471"><ele>1243.0</ele><time>2026-05-03T08:45:23.939Z</time></trkpt><trkpt lat="46.433211967591575" lon="9.336786686909148"><ele>1243.0</ele><time>2026-05-03T08:45:24.939Z</time></trkpt><trkpt lat="46.433147364135635" lon="9.336786028970598"><ele>1243.0</ele><time>2026-05-03T08:45:25.939Z</time></trkpt><trkpt lat="46.43308636763623" lon="9.33675495033865"><ele>1243.0</ele><time>2026-05-03T08:45:27.939Z</time></trkpt><trkpt lat="46.43315871018561" lon="9.336641499556341"><ele>1243.0</ele><time>2026-05-03T08:45:29.939Z</time></trkpt><trkpt lat="46.433241322907264" lon="9.33662952067415"><ele>1243.0</ele><time>2026-05-03T08:45:30.939Z</time></trkpt><trkpt lat="46.433360065311795" lon="9.336604497168711"><ele>1243.0</ele><time>2026-05-03T08:45:31.939Z</time></trkpt><trkpt lat="46.43350814230683" lon="9.336577812866423"><ele>1243.0</ele><time>2026-05-03T08:45:32.939Z</time></trkpt><trkpt lat="46.433669091300416" lon="9.336541726216883"><ele>1243.0</ele><time>2026-05-03T08:45:33.939Z</time></trkpt><trkpt lat="46.433842359325276" lon="9.336472123148848"><ele>1242.5</ele><time>2026-05-03T08:45:34.939Z</time></trkpt><trkpt lat="46.43399098125203" lon="9.33646867390055"><ele>1242.0</ele><time>2026-05-03T08:45:35.939Z</time></trkpt><trkpt lat="46.43412525413888" lon="9.336460813016146"><ele>1241.5</ele><time>2026-05-03T08:45:36.939Z</time></trkpt><trkpt lat="46.4342466283816" lon="9.33641356512987"><ele>1241.0</ele><time>2026-05-03T08:45:37.939Z</time></trkpt><trkpt lat="46.434389758304505" lon="9.336323534886825"><ele>1256.0</ele><time>2026-05-03T08:45:38.939Z</time></trkpt><trkpt lat="46.43454243681582" lon="9.336229881585263"><ele>1271.0</ele><time>2026-05-03T08:45:39.939Z</time></trkpt><trkpt lat="46.434709773138124" lon="9.336161081326125"><ele>1286.0</ele><time>2026-05-03T08:45:40.939Z</time></trkpt><trkpt lat="46.43486423428259" lon="9.336112260233648"><ele>1287.0</ele><time>2026-05-03T08:45:41.939Z</time></trkpt><trkpt lat="46.43499737629364" lon="9.336064325942775"><ele>1288.0</ele><time>2026-05-03T08:45:42.939Z</time></trkpt><trkpt lat="46.43511514348437" lon="9.336093099332324"><ele>1289.0</ele><time>2026-05-03T08:45:43.939Z</time></trkpt><trkpt lat="46.43518167217748" lon="9.336162835521861"><ele>1290.0</ele><time>2026-05-03T08:45:44.939Z</time></trkpt><trkpt lat="46.43523084441965" lon="9.336309098368343"><ele>1286.75</ele><time>2026-05-03T08:45:45.939Z</time></trkpt><trkpt lat="46.435355920491" lon="9.336436638442022"><ele>1283.5</ele><time>2026-05-03T08:45:46.939Z</time></trkpt><trkpt lat="46.43547275580869" lon="9.33650503915666"><ele>1280.25</ele><time>2026-05-03T08:45:47.939Z</time></trkpt><trkpt lat="46.43561500864941" lon="9.336622146777215"><ele>1277.0</ele><time>2026-05-03T08:45:48.939Z</time></trkpt><trkpt lat="46.43579074427973" lon="9.336805375316834"><ele>1277.0</ele><time>2026-05-03T08:45:49.939Z</time></trkpt><trkpt lat="46.43593995808087" lon="9.336939418791403"><ele>1277.0</ele><time>2026-05-03T08:45:50.939Z</time></trkpt><trkpt lat="46.436044437688786" lon="9.33702274517586"><ele>1277.0</ele><time>2026-05-03T08:45:51.939Z</time></trkpt><trkpt lat="46.43614143015604" lon="9.337039827890155"><ele>1277.0</ele><time>2026-05-03T08:45:52.939Z</time></trkpt><trkpt lat="46.436219647254966" lon="9.337051955532814"><ele>1277.0</ele><time>2026-05-03T08:45:53.939Z</time></trkpt><trkpt lat="46.43629241693679" lon="9.336953854472874"><ele>1277.0</ele><time>2026-05-03T08:45:54.939Z</time></trkpt><trkpt lat="46.43636659158372" lon="9.33683404744545"><ele>1277.0</ele><time>2026-05-03T08:45:55.939Z</time></trkpt><trkpt lat="46.43649627128818" lon="9.336753172205402"><ele>1277.0</ele><time>2026-05-03T08:45:56.939Z</time></trkpt><trkpt lat="46.43662998310372" lon="9.336878242812347"><ele>1277.0</ele><time>2026-05-03T08:45:57.939Z</time></trkpt><trkpt lat="46.43679028026715" lon="9.336790642325262"><ele>1277.0</ele><time>2026-05-03T08:45:59.939Z</time></trkpt><trkpt lat="46.436897452570285" lon="9.33670121954679"><ele>1277.0</ele><time>2026-05-03T08:46:00.939Z</time></trkpt><trkpt lat="46.43704113815354" lon="9.336640697107692"><ele>1277.0</ele><time>2026-05-03T08:46:01.939Z</time></trkpt><trkpt lat="46.43719192776842" lon="9.336630085018488"><ele>1277.0</ele><time>2026-05-03T08:46:02.939Z</time></trkpt><trkpt lat="46.437355460903056" lon="9.336625766460209"><ele>1277.0</ele><time>2026-05-03T08:46:03.939Z</time></trkpt><trkpt lat="46.43752054792696" lon="9.33663047115305"><ele>1277.0</ele><time>2026-05-03T08:46:04.939Z</time></trkpt><trkpt lat="46.43767067854113" lon="9.336630366382602"><ele>1277.0</ele><time>2026-05-03T08:46:05.939Z</time></trkpt><trkpt lat="46.43777403815292" lon="9.336601592255748"><ele>1277.0</ele><time>2026-05-03T08:46:06.939Z</time></trkpt><trkpt lat="46.43786151356903" lon="9.336517044298384"><ele>1277.0</ele><time>2026-05-03T08:46:07.939Z</time></trkpt><trkpt lat="46.43798658127654" lon="9.336432216922342"><ele>1277.0</ele><time>2026-05-03T08:46:08.939Z</time></trkpt><trkpt lat="46.4381089301738" lon="9.336328769668143"><ele>1277.25</ele><time>2026-05-03T08:46:09.939Z</time></trkpt><trkpt lat="46.43820742178934" lon="9.336180030042819"><ele>1277.5</ele><time>2026-05-03T08:46:10.939Z</time></trkpt><trkpt lat="46.43831560453715" lon="9.336045490896526"><ele>1277.75</ele><time>2026-05-03T08:46:11.939Z</time></trkpt><trkpt lat="46.43841053502014" lon="9.335905187875007"><ele>1278.0</ele><time>2026-05-03T08:46:12.939Z</time></trkpt><trkpt lat="46.438496370888345" lon="9.335759279112365"><ele>1278.0</ele><time>2026-05-03T08:46:13.939Z</time></trkpt><trkpt lat="46.438585120881974" lon="9.335611513259778"><ele>1278.0</ele><time>2026-05-03T08:46:14.939Z</time></trkpt><trkpt lat="46.43868173727656" lon="9.335474350055007"><ele>1278.0</ele><time>2026-05-03T08:46:15.939Z</time></trkpt><trkpt lat="46.438793802618996" lon="9.335345410881962"><ele>1278.0</ele><time>2026-05-03T08:46:16.939Z</time></trkpt><trkpt lat="46.43890673692735" lon="9.33520987136867"><ele>1274.0</ele><time>2026-05-03T08:46:17.939Z</time></trkpt><trkpt lat="46.43900826860403" lon="9.335097286187873"><ele>1270.0</ele><time>2026-05-03T08:46:18.939Z</time></trkpt><trkpt lat="46.43911293377667" lon="9.334996324371698"><ele>1266.0</ele><time>2026-05-03T08:46:19.939Z</time></trkpt><trkpt lat="46.43923920557135" lon="9.334884794623633"><ele>1262.0</ele><time>2026-05-03T08:46:20.939Z</time></trkpt><trkpt lat="46.439384589924146" lon="9.334792788770711"><ele>1260.6666666666667</ele><time>2026-05-03T08:46:21.939Z</time></trkpt><trkpt lat="46.43949830309879" lon="9.334676966207725"><ele>1259.3333333333333</ele><time>2026-05-03T08:46:22.939Z</time></trkpt><trkpt lat="46.43962358197798" lon="9.334514258021782"><ele>1258.0</ele><time>2026-05-03T08:46:23.939Z</time></trkpt><trkpt lat="46.43975746997509" lon="9.334341248497386"><ele>1258.0</ele><time>2026-05-03T08:46:24.939Z</time></trkpt><trkpt lat="46.43989129343356" lon="9.33418029176825"><ele>1258.0</ele><time>2026-05-03T08:46:25.939Z</time></trkpt><trkpt lat="46.44002468152125" lon="9.334025247333349"><ele>1258.0</ele><time>2026-05-03T08:46:26.939Z</time></trkpt><trkpt lat="46.44014219179983" lon="9.333892189914883"><ele>1258.0</ele><time>2026-05-03T08:46:27.939Z</time></trkpt><trkpt lat="46.44024861669421" lon="9.33377577746658"><ele>1258.0</ele><time>2026-05-03T08:46:28.939Z</time></trkpt><trkpt lat="46.440357850219755" lon="9.333656623674464"><ele>1258.0</ele><time>2026-05-03T08:46:29.939Z</time></trkpt><trkpt lat="46.440465975092806" lon="9.333540034476878"><ele>1258.0</ele><time>2026-05-03T08:46:30.939Z</time></trkpt><trkpt lat="46.44058292452482" lon="9.333414240811852"><ele>1258.0</ele><time>2026-05-03T08:46:31.938Z</time></trkpt><trkpt lat="46.44071210261694" lon="9.33329198725388"><ele>1258.0</ele><time>2026-05-03T08:46:32.937Z</time></trkpt><trkpt lat="46.44084647432701" lon="9.333201857788382"><ele>1258.0</ele><time>2026-05-03T08:46:33.937Z</time></trkpt><trkpt lat="46.440974325841246" lon="9.33312675049338"><ele>1258.0</ele><time>2026-05-03T08:46:34.937Z</time></trkpt><trkpt lat="46.44108257229136" lon="9.333030045005007"><ele>1259.75</ele><time>2026-05-03T08:46:35.937Z</time></trkpt><trkpt lat="46.44117438154772" lon="9.332918293132328"><ele>1261.5</ele><time>2026-05-03T08:46:36.937Z</time></trkpt><trkpt lat="46.441276552686475" lon="9.332862796489753"><ele>1263.25</ele><time>2026-05-03T08:46:37.937Z</time></trkpt><trkpt lat="46.441401787015636" lon="9.332858442702213"><ele>1265.0</ele><time>2026-05-03T08:46:38.937Z</time></trkpt><trkpt lat="46.441547047725834" lon="9.332853834165183"><ele>1265.0</ele><time>2026-05-03T08:46:39.937Z</time></trkpt><trkpt lat="46.44167648502078" lon="9.332882429199826"><ele>1265.0</ele><time>2026-05-03T08:46:40.937Z</time></trkpt><trkpt lat="46.44180214155946" lon="9.332938612923328"><ele>1265.0</ele><time>2026-05-03T08:46:41.937Z</time></trkpt><trkpt lat="46.441922264855506" lon="9.33298851038572"><ele>1265.0</ele><time>2026-05-03T08:46:42.937Z</time></trkpt><trkpt lat="46.44203408228322" lon="9.333050224572927"><ele>1263.6</ele><time>2026-05-03T08:46:43.938Z</time></trkpt><trkpt lat="46.44212101010929" lon="9.333144056545983"><ele>1262.2</ele><time>2026-05-03T08:46:44.936Z</time></trkpt><trkpt lat="46.44219518541481" lon="9.33324758859275"><ele>1260.8</ele><time>2026-05-03T08:46:45.936Z</time></trkpt><trkpt lat="46.44226174852804" lon="9.333364284873443"><ele>1259.4</ele><time>2026-05-03T08:46:46.936Z</time></trkpt><trkpt lat="46.44234031501928" lon="9.333480259799858"><ele>1258.0</ele><time>2026-05-03T08:46:47.936Z</time></trkpt><trkpt lat="46.44242195153333" lon="9.333609684023761"><ele>1258.0</ele><time>2026-05-03T08:46:48.936Z</time></trkpt><trkpt lat="46.44248559097819" lon="9.333742934650385"><ele>1258.0</ele><time>2026-05-03T08:46:49.936Z</time></trkpt><trkpt lat="46.442535513612306" lon="9.333881718244278"><ele>1258.0</ele><time>2026-05-03T08:46:50.936Z</time></trkpt><trkpt lat="46.44257048353022" lon="9.334022968019328"><ele>1258.0</ele><time>2026-05-03T08:46:51.936Z</time></trkpt><trkpt lat="46.44260116616898" lon="9.334177409216606"><ele>1258.0</ele><time>2026-05-03T08:46:52.936Z</time></trkpt><trkpt lat="46.44262787929172" lon="9.334329684074246"><ele>1257.0</ele><time>2026-05-03T08:46:53.936Z</time></trkpt><trkpt lat="46.44265305882855" lon="9.334483591493116"><ele>1256.0</ele><time>2026-05-03T08:46:54.936Z</time></trkpt><trkpt lat="46.44268705342219" lon="9.334643361698257"><ele>1255.0</ele><time>2026-05-03T08:46:55.936Z</time></trkpt><trkpt lat="46.44273037465711" lon="9.334787531038971"><ele>1254.0</ele><time>2026-05-03T08:46:56.936Z</time></trkpt><trkpt lat="46.442780734400635" lon="9.33490849970313"><ele>1253.0</ele><time>2026-05-03T08:46:57.936Z</time></trkpt><trkpt lat="46.442834352129616" lon="9.335015453222223"><ele>1252.6</ele><time>2026-05-03T08:46:58.936Z</time></trkpt><trkpt lat="46.442899172585896" lon="9.33511118767261"><ele>1252.1999999999998</ele><time>2026-05-03T08:46:59.936Z</time></trkpt><trkpt lat="46.44295692832082" lon="9.335235104764003"><ele>1251.8</ele><time>2026-05-03T08:47:00.936Z</time></trkpt><trkpt lat="46.443008737640284" lon="9.335393776158469"><ele>1251.3999999999999</ele><time>2026-05-03T08:47:01.936Z</time></trkpt><trkpt lat="46.44304042428329" lon="9.335567330030662"><ele>1251.0</ele><time>2026-05-03T08:47:02.936Z</time></trkpt><trkpt lat="46.44305074804942" lon="9.33575693337505"><ele>1249.75</ele><time>2026-05-03T08:47:03.936Z</time></trkpt><trkpt lat="46.44304854866472" lon="9.335929688561823"><ele>1248.5</ele><time>2026-05-03T08:47:04.936Z</time></trkpt><trkpt lat="46.44301116790412" lon="9.336069251838493"><ele>1247.25</ele><time>2026-05-03T08:47:05.936Z</time></trkpt><trkpt lat="46.442918710593325" lon="9.336168439114088"><ele>1246.0</ele><time>2026-05-03T08:47:06.936Z</time></trkpt><trkpt lat="46.4428244974532" lon="9.336268703101034"><ele>1248.25</ele><time>2026-05-03T08:47:07.936Z</time></trkpt><trkpt lat="46.4427224861919" lon="9.336392802191542"><ele>1250.5</ele><time>2026-05-03T08:47:08.936Z</time></trkpt><trkpt lat="46.44261206156347" lon="9.33650558905472"><ele>1252.75</ele><time>2026-05-03T08:47:09.936Z</time></trkpt><trkpt lat="46.44252189250737" lon="9.336597918856045"><ele>1255.0</ele><time>2026-05-03T08:47:10.936Z</time></trkpt><trkpt lat="46.44246045192553" lon="9.336687279203776"><ele>1255.0</ele><time>2026-05-03T08:47:11.936Z</time></trkpt><trkpt lat="46.44244029835649" lon="9.336781927845449"><ele>1255.0</ele><time>2026-05-03T08:47:12.936Z</time></trkpt><trkpt lat="46.442463225337114" lon="9.3368787772801"><ele>1255.0</ele><time>2026-05-03T08:47:13.936Z</time></trkpt><trkpt lat="46.442523796654434" lon="9.336941683582403"><ele>1255.0</ele><time>2026-05-03T08:47:14.936Z</time></trkpt><trkpt lat="46.4425969750479" lon="9.336928635336465"><ele>1255.0</ele><time>2026-05-03T08:47:15.936Z</time></trkpt><trkpt lat="46.44268631630527" lon="9.336857052695892"><ele>1255.0</ele><time>2026-05-03T08:47:16.936Z</time></trkpt><trkpt lat="46.44278716025396" lon="9.336754254992549"><ele>1255.0</ele><time>2026-05-03T08:47:17.936Z</time></trkpt><trkpt lat="46.442909241045186" lon="9.336649696944912"><ele>1255.0</ele><time>2026-05-03T08:47:18.936Z</time></trkpt><trkpt lat="46.44306420856472" lon="9.336583130831608"><ele>1255.0</ele><time>2026-05-03T08:47:19.936Z</time></trkpt><trkpt lat="46.443215364918125" lon="9.336515274829837"><ele>1255.4</ele><time>2026-05-03T08:47:20.936Z</time></trkpt><trkpt lat="46.44334026822077" lon="9.336437972359944"><ele>1255.8</ele><time>2026-05-03T08:47:21.936Z</time></trkpt><trkpt lat="46.443422313189025" lon="9.33636837297114"><ele>1256.2</ele><time>2026-05-03T08:47:22.936Z</time></trkpt><trkpt lat="46.443530253350545" lon="9.336362567502512"><ele>1256.6</ele><time>2026-05-03T08:47:24.936Z</time></trkpt><trkpt lat="46.44352602867777" lon="9.336485820460066"><ele>1257.0</ele><time>2026-05-03T08:47:26.936Z</time></trkpt><trkpt lat="46.4434463510891" lon="9.33648579787004"><ele>1256.5</ele><time>2026-05-03T08:47:27.936Z</time></trkpt><trkpt lat="46.44333065538462" lon="9.336539559916917"><ele>1256.0</ele><time>2026-05-03T08:47:28.936Z</time></trkpt><trkpt lat="46.44319651814246" lon="9.336626250336604"><ele>1255.5</ele><time>2026-05-03T08:47:29.936Z</time></trkpt><trkpt lat="46.443076478515025" lon="9.336775290159748"><ele>1255.0</ele><time>2026-05-03T08:47:30.936Z</time></trkpt><trkpt lat="46.442956701312845" lon="9.336971478113758"><ele>1255.0</ele><time>2026-05-03T08:47:31.936Z</time></trkpt><trkpt lat="46.442825789044804" lon="9.337180437262326"><ele>1255.0</ele><time>2026-05-03T08:47:32.936Z</time></trkpt><trkpt lat="46.44268122055615" lon="9.337354244279785"><ele>1255.0</ele><time>2026-05-03T08:47:33.936Z</time></trkpt><trkpt lat="46.44252808652248" lon="9.337545603385273"><ele>1257.3333333333333</ele><time>2026-05-03T08:47:34.936Z</time></trkpt><trkpt lat="46.44236596815811" lon="9.33767827312178"><ele>1259.6666666666667</ele><time>2026-05-03T08:47:35.936Z</time></trkpt><trkpt lat="46.44219249367016" lon="9.337799007236613"><ele>1262.0</ele><time>2026-05-03T08:47:36.936Z</time></trkpt><trkpt lat="46.44203708125879" lon="9.337958995749272"><ele>1273.0</ele><time>2026-05-03T08:47:37.936Z</time></trkpt><trkpt lat="46.441884221922166" lon="9.338151984201408"><ele>1284.0</ele><time>2026-05-03T08:47:38.936Z</time></trkpt><trkpt lat="46.44172665344384" lon="9.33836010356963"><ele>1295.0</ele><time>2026-05-03T08:47:39.936Z</time></trkpt><trkpt lat="46.441573684054724" lon="9.338556721783242"><ele>1295.0</ele><time>2026-05-03T08:47:40.936Z</time></trkpt><trkpt lat="46.44140857940626" lon="9.33865672112335"><ele>1295.0</ele><time>2026-05-03T08:47:41.936Z</time></trkpt><trkpt lat="46.44124126228847" lon="9.338742142538637"><ele>1295.0</ele><time>2026-05-03T08:47:42.936Z</time></trkpt><trkpt lat="46.441109581907504" lon="9.338807014900874"><ele>1293.5</ele><time>2026-05-03T08:47:43.936Z</time></trkpt><trkpt lat="46.44098458169501" lon="9.338826275396789"><ele>1292.0</ele><time>2026-05-03T08:47:44.936Z</time></trkpt><trkpt lat="46.44086823354405" lon="9.338763465683195"><ele>1290.5</ele><time>2026-05-03T08:47:45.936Z</time></trkpt><trkpt lat="46.44072477756776" lon="9.338779816212623"><ele>1289.0</ele><time>2026-05-03T08:47:46.936Z</time></trkpt><trkpt lat="46.44058127763825" lon="9.338874118345517"><ele>1293.0</ele><time>2026-05-03T08:47:47.936Z</time></trkpt><trkpt lat="46.44043695912182" lon="9.339012624139015"><ele>1297.0</ele><time>2026-05-03T08:47:48.936Z</time></trkpt><trkpt lat="46.4403096798587" lon="9.339163121288019"><ele>1301.0</ele><time>2026-05-03T08:47:49.936Z</time></trkpt><trkpt lat="46.44019799245522" lon="9.339358587033972"><ele>1301.0</ele><time>2026-05-03T08:47:50.936Z</time></trkpt><trkpt lat="46.44011669267163" lon="9.339586961360196"><ele>1301.0</ele><time>2026-05-03T08:47:51.936Z</time></trkpt><trkpt lat="46.440040282906004" lon="9.339771679741009"><ele>1301.0</ele><time>2026-05-03T08:47:52.936Z</time></trkpt><trkpt lat="46.43996223300706" lon="9.339868097261501"><ele>1301.0</ele><time>2026-05-03T08:47:53.936Z</time></trkpt><trkpt lat="46.43988405925739" lon="9.339888094132887"><ele>1309.25</ele><time>2026-05-03T08:47:54.936Z</time></trkpt><trkpt lat="46.439795163889855" lon="9.339895733871392"><ele>1317.5</ele><time>2026-05-03T08:47:55.936Z</time></trkpt><trkpt lat="46.43965888525373" lon="9.33991704478541"><ele>1325.75</ele><time>2026-05-03T08:47:56.936Z</time></trkpt><trkpt lat="46.43951232540088" lon="9.33997750404425"><ele>1334.0</ele><time>2026-05-03T08:47:57.936Z</time></trkpt><trkpt lat="46.4393805235101" lon="9.340030825789018"><ele>1334.0</ele><time>2026-05-03T08:47:58.936Z</time></trkpt><trkpt lat="46.439231632362294" lon="9.340048686336338"><ele>1334.0</ele><time>2026-05-03T08:47:59.936Z</time></trkpt><trkpt lat="46.43903732336257" lon="9.340054260480374"><ele>1334.0</ele><time>2026-05-03T08:48:00.936Z</time></trkpt><trkpt lat="46.438792654005894" lon="9.340071653435075"><ele>1335.3333333333335</ele><time>2026-05-03T08:48:01.936Z</time></trkpt><trkpt lat="46.43862485425757" lon="9.340117729191318"><ele>1336.6666666666667</ele><time>2026-05-03T08:48:02.936Z</time></trkpt><trkpt lat="46.43845238769529" lon="9.340115820050817"><ele>1338.0</ele><time>2026-05-03T08:48:03.936Z</time></trkpt><trkpt lat="46.43827303619212" lon="9.340188117955508"><ele>1338.0</ele><time>2026-05-03T08:48:04.936Z</time></trkpt><trkpt lat="46.43812372033398" lon="9.340271719930433"><ele>1338.0</ele><time>2026-05-03T08:48:05.936Z</time></trkpt><trkpt lat="46.43796896437011" lon="9.340289839808822"><ele>1338.0</ele><time>2026-05-03T08:48:06.937Z</time></trkpt><trkpt lat="46.437812524329914" lon="9.340326601855931"><ele>1335.6666666666667</ele><time>2026-05-03T08:48:07.937Z</time></trkpt><trkpt lat="46.43766899681882" lon="9.340460697056448"><ele>1333.3333333333335</ele><time>2026-05-03T08:48:08.938Z</time></trkpt><trkpt lat="46.437541114114445" lon="9.340574111053934"><ele>1331.0</ele><time>2026-05-03T08:48:09.939Z</time></trkpt><trkpt lat="46.43742508241252" lon="9.340685990057368"><ele>1340.8</ele><time>2026-05-03T08:48:10.939Z</time></trkpt><trkpt lat="46.437366111095386" lon="9.340892736747325"><ele>1350.6</ele><time>2026-05-03T08:48:11.94Z</time></trkpt><trkpt lat="46.437304049350644" lon="9.341011059857529"><ele>1360.4</ele><time>2026-05-03T08:48:12.94Z</time></trkpt><trkpt lat="46.437219202393926" lon="9.3410961680112"><ele>1370.2</ele><time>2026-05-03T08:48:13.941Z</time></trkpt><trkpt lat="46.43713523390602" lon="9.341129662117433"><ele>1380.0</ele><time>2026-05-03T08:48:14.941Z</time></trkpt><trkpt lat="46.437067998606885" lon="9.341025922683537"><ele>1385.3333333333333</ele><time>2026-05-03T08:48:15.941Z</time></trkpt><trkpt lat="46.43699478112366" lon="9.340892948377174"><ele>1390.6666666666665</ele><time>2026-05-03T08:48:16.942Z</time></trkpt><trkpt lat="46.43686294307204" lon="9.340751015226356"><ele>1396.0</ele><time>2026-05-03T08:48:17.942Z</time></trkpt><trkpt lat="46.43672582352724" lon="9.340595532408262"><ele>1390.3333333333333</ele><time>2026-05-03T08:48:18.942Z</time></trkpt><trkpt lat="46.43657494617979" lon="9.340467278937526"><ele>1384.6666666666667</ele><time>2026-05-03T08:48:19.943Z</time></trkpt><trkpt lat="46.43638661392702" lon="9.340303947466962"><ele>1379.0</ele><time>2026-05-03T08:48:20.943Z</time></trkpt><trkpt lat="46.43618974519619" lon="9.340131358708627"><ele>1379.0</ele><time>2026-05-03T08:48:21.943Z</time></trkpt><trkpt lat="46.43603373365419" lon="9.340004751737249"><ele>1379.0</ele><time>2026-05-03T08:48:22.944Z</time></trkpt><trkpt lat="46.435912044937666" lon="9.339941306374087"><ele>1379.0</ele><time>2026-05-03T08:48:23.944Z</time></trkpt><trkpt lat="46.43578532625829" lon="9.339986751215356"><ele>1379.0</ele><time>2026-05-03T08:48:24.944Z</time></trkpt><trkpt lat="46.43563334409311" lon="9.340007741777224"><ele>1381.6666666666667</ele><time>2026-05-03T08:48:25.944Z</time></trkpt><trkpt lat="46.43543419727941" lon="9.340017184594606"><ele>1384.3333333333333</ele><time>2026-05-03T08:48:26.944Z</time></trkpt><trkpt lat="46.43523660848356" lon="9.340085982213303"><ele>1387.0</ele><time>2026-05-03T08:48:27.945Z</time></trkpt><trkpt lat="46.43507951830366" lon="9.340104919998728"><ele>1387.0</ele><time>2026-05-03T08:48:28.945Z</time></trkpt><trkpt lat="46.434965771143524" lon="9.339969449690459"><ele>1387.0</ele><time>2026-05-03T08:48:29.945Z</time></trkpt><trkpt lat="46.434806525897834" lon="9.33989198344998"><ele>1387.0</ele><time>2026-05-03T08:48:30.945Z</time></trkpt><trkpt lat="46.43464888061902" lon="9.339896092032173"><ele>1392.6666666666665</ele><time>2026-05-03T08:48:31.945Z</time></trkpt><trkpt lat="46.43450052556515" lon="9.33990269153145"><ele>1398.3333333333333</ele><time>2026-05-03T08:48:32.945Z</time></trkpt><trkpt lat="46.43431383242635" lon="9.339899967772057"><ele>1404.0</ele><time>2026-05-03T08:48:33.945Z</time></trkpt><trkpt lat="46.4341350018478" lon="9.339863083087932"><ele>1404.0</ele><time>2026-05-03T08:48:34.946Z</time></trkpt><trkpt lat="46.43395846562169" lon="9.339842843512168"><ele>1404.0</ele><time>2026-05-03T08:48:35.946Z</time></trkpt><trkpt lat="46.4338189076821" lon="9.339839991239044"><ele>1404.0</ele><time>2026-05-03T08:48:36.946Z</time></trkpt><trkpt lat="46.433687742469864" lon="9.339876690529167"><ele>1400.3333333333333</ele><time>2026-05-03T08:48:37.945Z</time></trkpt><trkpt lat="46.43355961075034" lon="9.339977700844738"><ele>1396.6666666666665</ele><time>2026-05-03T08:48:38.945Z</time></trkpt><trkpt lat="46.43342604151137" lon="9.340132471923019"><ele>1393.0</ele><time>2026-05-03T08:48:39.945Z</time></trkpt><trkpt lat="46.43328376676653" lon="9.340298359605393"><ele>1393.0</ele><time>2026-05-03T08:48:40.945Z</time></trkpt><trkpt lat="46.43313724197935" lon="9.340436744007842"><ele>1393.0</ele><time>2026-05-03T08:48:41.946Z</time></trkpt><trkpt lat="46.43300783871769" lon="9.340550948277311"><ele>1393.0</ele><time>2026-05-03T08:48:42.946Z</time></trkpt><trkpt lat="46.43288742618856" lon="9.340581225180259"><ele>1393.0</ele><time>2026-05-03T08:48:43.946Z</time></trkpt><trkpt lat="46.43276163469026" lon="9.340499480973984"><ele>1392.4</ele><time>2026-05-03T08:48:44.945Z</time></trkpt><trkpt lat="46.43267797483549" lon="9.340507911775205"><ele>1391.8000000000002</ele><time>2026-05-03T08:48:45.945Z</time></trkpt><trkpt lat="46.43258247798056" lon="9.340558819467857"><ele>1391.2</ele><time>2026-05-03T08:48:47.946Z</time></trkpt><trkpt lat="46.43259680625868" lon="9.340695382005766"><ele>1390.6</ele><time>2026-05-03T08:48:48.946Z</time></trkpt><trkpt lat="46.43264840983164" lon="9.340770960166568"><ele>1390.0</ele><time>2026-05-03T08:48:49.946Z</time></trkpt><trkpt lat="46.43278511746574" lon="9.340819766628767"><ele>1401.3333333333333</ele><time>2026-05-03T08:48:50.946Z</time></trkpt><trkpt lat="46.432945097391325" lon="9.340799569733242"><ele>1412.6666666666667</ele><time>2026-05-03T08:48:51.946Z</time></trkpt><trkpt lat="46.43310592400979" lon="9.340750209764098"><ele>1424.0</ele><time>2026-05-03T08:48:52.946Z</time></trkpt><trkpt lat="46.43326785640639" lon="9.340647453790211"><ele>1424.4</ele><time>2026-05-03T08:48:53.946Z</time></trkpt><trkpt lat="46.4333814427677" lon="9.340550810520444"><ele>1424.8000000000002</ele><time>2026-05-03T08:48:54.946Z</time></trkpt><trkpt lat="46.43344687227376" lon="9.340488070186256"><ele>1425.1999999999998</ele><time>2026-05-03T08:48:55.946Z</time></trkpt><trkpt lat="46.43353009031791" lon="9.340462501634129"><ele>1425.6</ele><time>2026-05-03T08:48:57.946Z</time></trkpt><trkpt lat="46.433437579348016" lon="9.34064044505709"><ele>1426.0</ele><time>2026-05-03T08:49:00.946Z</time></trkpt><trkpt lat="46.43332219081938" lon="9.340753581109514"><ele>1426.0</ele><time>2026-05-03T08:49:01.946Z</time></trkpt><trkpt lat="46.433231038404784" lon="9.3409134797483"><ele>1426.0</ele><time>2026-05-03T08:49:02.946Z</time></trkpt><trkpt lat="46.433162427740974" lon="9.341062677512992"><ele>1426.0</ele><time>2026-05-03T08:49:03.946Z</time></trkpt><trkpt lat="46.43309075977041" lon="9.341262129619752"><ele>1426.0</ele><time>2026-05-03T08:49:04.946Z</time></trkpt><trkpt lat="46.43303250181909" lon="9.341453628296392"><ele>1428.75</ele><time>2026-05-03T08:49:05.946Z</time></trkpt><trkpt lat="46.43295906622173" lon="9.341601163713559"><ele>1431.5</ele><time>2026-05-03T08:49:06.946Z</time></trkpt><trkpt lat="46.43284628433634" lon="9.34169738639873"><ele>1434.25</ele><time>2026-05-03T08:49:07.946Z</time></trkpt><trkpt lat="46.43271865653902" lon="9.341781124760402"><ele>1437.0</ele><time>2026-05-03T08:49:08.946Z</time></trkpt><trkpt lat="46.43256583347301" lon="9.341862410018502"><ele>1437.0</ele><time>2026-05-03T08:49:09.946Z</time></trkpt><trkpt lat="46.43241065215823" lon="9.341944567832018"><ele>1437.0</ele><time>2026-05-03T08:49:10.946Z</time></trkpt><trkpt lat="46.432274625325874" lon="9.34202037408061"><ele>1437.0</ele><time>2026-05-03T08:49:11.946Z</time></trkpt><trkpt lat="46.43216543997568" lon="9.342112768525835"><ele>1437.0</ele><time>2026-05-03T08:49:12.946Z</time></trkpt><trkpt lat="46.43205978633025" lon="9.3421527677122"><ele>1437.3333333333333</ele><time>2026-05-03T08:49:13.946Z</time></trkpt><trkpt lat="46.43199104064787" lon="9.342214035301803"><ele>1437.6666666666667</ele><time>2026-05-03T08:49:14.946Z</time></trkpt><trkpt lat="46.43193042117073" lon="9.342261714416157"><ele>1438.0</ele><time>2026-05-03T08:49:15.946Z</time></trkpt><trkpt lat="46.43188033018245" lon="9.342395233993715"><ele>1438.3333333333335</ele><time>2026-05-03T08:49:17.946Z</time></trkpt><trkpt lat="46.4318393412725" lon="9.342472271275806"><ele>1438.6666666666667</ele><time>2026-05-03T08:49:18.946Z</time></trkpt><trkpt lat="46.43178489999954" lon="9.342600707639077"><ele>1439.0</ele><time>2026-05-03T08:49:19.946Z</time></trkpt><trkpt lat="46.431695275341134" lon="9.342726235134894"><ele>1440.75</ele><time>2026-05-03T08:49:20.946Z</time></trkpt><trkpt lat="46.43159653415499" lon="9.342852950913684"><ele>1442.5</ele><time>2026-05-03T08:49:21.946Z</time></trkpt><trkpt lat="46.4314996079652" lon="9.34299244096724"><ele>1444.25</ele><time>2026-05-03T08:49:22.946Z</time></trkpt><trkpt lat="46.43142295468387" lon="9.343136795167252"><ele>1446.0</ele><time>2026-05-03T08:49:23.946Z</time></trkpt><trkpt lat="46.43137069198633" lon="9.343279658648887"><ele>1448.75</ele><time>2026-05-03T08:49:24.946Z</time></trkpt><trkpt lat="46.43134765678204" lon="9.34346896275353"><ele>1451.5</ele><time>2026-05-03T08:49:25.946Z</time></trkpt><trkpt lat="46.43133451790597" lon="9.34365118140976"><ele>1454.25</ele><time>2026-05-03T08:49:26.946Z</time></trkpt><trkpt lat="46.431319679950334" lon="9.343825278337059"><ele>1457.0</ele><time>2026-05-03T08:49:27.946Z</time></trkpt><trkpt lat="46.431321343294414" lon="9.343984598886507"><ele>1454.0</ele><time>2026-05-03T08:49:28.946Z</time></trkpt><trkpt lat="46.431317085241" lon="9.344140326281025"><ele>1451.0</ele><time>2026-05-03T08:49:29.946Z</time></trkpt><trkpt lat="46.4313102158528" lon="9.344282161200542"><ele>1448.0</ele><time>2026-05-03T08:49:30.946Z</time></trkpt><trkpt lat="46.4312790267231" lon="9.34441246109239"><ele>1445.0</ele><time>2026-05-03T08:49:31.946Z</time></trkpt><trkpt lat="46.431228375158675" lon="9.344526446397419"><ele>1442.0</ele><time>2026-05-03T08:49:32.946Z</time></trkpt><trkpt lat="46.4311673367556" lon="9.344627338712133"><ele>1442.0</ele><time>2026-05-03T08:49:33.946Z</time></trkpt><trkpt lat="46.431106306245404" lon="9.34471083645276"><ele>1442.0</ele><time>2026-05-03T08:49:34.946Z</time></trkpt><trkpt lat="46.431062343072746" lon="9.344780132748953"><ele>1442.0</ele><time>2026-05-03T08:49:35.946Z</time></trkpt><trkpt lat="46.43099681290273" lon="9.344916457217746"><ele>1442.0</ele><time>2026-05-03T08:49:37.946Z</time></trkpt><trkpt lat="46.430986995021684" lon="9.345083498938504"><ele>1442.0</ele><time>2026-05-03T08:49:39.946Z</time></trkpt><trkpt lat="46.431079501950656" lon="9.345158440684123"><ele>1446.0</ele><time>2026-05-03T08:49:41.946Z</time></trkpt><trkpt lat="46.431165023044095" lon="9.345084264142775"><ele>1450.0</ele><time>2026-05-03T08:49:42.946Z</time></trkpt><trkpt lat="46.43124541359662" lon="9.344963397880734"><ele>1454.0</ele><time>2026-05-03T08:49:43.946Z</time></trkpt><trkpt lat="46.43134342269872" lon="9.344802989827523"><ele>1458.0</ele><time>2026-05-03T08:49:44.946Z</time></trkpt><trkpt lat="46.431488917379866" lon="9.344628076292532"><ele>1463.0</ele><time>2026-05-03T08:49:45.946Z</time></trkpt><trkpt lat="46.431619360869995" lon="9.344411835822307"><ele>1468.0</ele><time>2026-05-03T08:49:46.946Z</time></trkpt><trkpt lat="46.431736997877124" lon="9.34420117165859"><ele>1473.0</ele><time>2026-05-03T08:49:47.946Z</time></trkpt><trkpt lat="46.4318464571666" lon="9.343973863736116"><ele>1467.6666666666667</ele><time>2026-05-03T08:49:48.946Z</time></trkpt><trkpt lat="46.43197228529689" lon="9.343756300999534"><ele>1462.3333333333335</ele><time>2026-05-03T08:49:49.946Z</time></trkpt><trkpt lat="46.43209480953155" lon="9.343537334261242"><ele>1457.0</ele><time>2026-05-03T08:49:50.946Z</time></trkpt><trkpt lat="46.43220344467248" lon="9.343352046237838"><ele>1460.6666666666667</ele><time>2026-05-03T08:49:51.946Z</time></trkpt><trkpt lat="46.432325734789764" lon="9.3432337403902"><ele>1464.3333333333333</ele><time>2026-05-03T08:49:52.946Z</time></trkpt><trkpt lat="46.43245776930076" lon="9.343137697153917"><ele>1468.0</ele><time>2026-05-03T08:49:53.946Z</time></trkpt><trkpt lat="46.43261640549842" lon="9.343033731792776"><ele>1468.0</ele><time>2026-05-03T08:49:54.946Z</time></trkpt><trkpt lat="46.4327870683062" lon="9.342932900722039"><ele>1468.0</ele><time>2026-05-03T08:49:55.946Z</time></trkpt><trkpt lat="46.432939370685055" lon="9.342856897462875"><ele>1468.0</ele><time>2026-05-03T08:49:56.946Z</time></trkpt><trkpt lat="46.43302312361065" lon="9.342826862466564"><ele>1468.0</ele><time>2026-05-03T08:49:57.946Z</time></trkpt><trkpt lat="46.433102935246836" lon="9.34279771088973"><ele>1474.25</ele><time>2026-05-03T08:50:00.946Z</time></trkpt><trkpt lat="46.43322722259868" lon="9.342732040027297"><ele>1480.5</ele><time>2026-05-03T08:50:01.946Z</time></trkpt><trkpt lat="46.43335784454652" lon="9.342634999762947"><ele>1486.75</ele><time>2026-05-03T08:50:02.946Z</time></trkpt><trkpt lat="46.433486207639305" lon="9.342557959096231"><ele>1493.0</ele><time>2026-05-03T08:50:03.946Z</time></trkpt><trkpt lat="46.43363206731308" lon="9.342524033576993"><ele>1504.0</ele><time>2026-05-03T08:50:04.946Z</time></trkpt><trkpt lat="46.433812166409034" lon="9.34248735913122"><ele>1515.0</ele><time>2026-05-03T08:50:05.946Z</time></trkpt><trkpt lat="46.43398766403478" lon="9.342405316176334"><ele>1526.0</ele><time>2026-05-03T08:50:06.946Z</time></trkpt><trkpt lat="46.43417861914312" lon="9.342298593152913"><ele>1517.0</ele><time>2026-05-03T08:50:07.946Z</time></trkpt><trkpt lat="46.43434572838445" lon="9.34215685353559"><ele>1508.0</ele><time>2026-05-03T08:50:08.946Z</time></trkpt><trkpt lat="46.43453495011024" lon="9.342113067406292"><ele>1499.0</ele><time>2026-05-03T08:50:09.946Z</time></trkpt><trkpt lat="46.434707256290906" lon="9.34204855269723"><ele>1499.0</ele><time>2026-05-03T08:50:10.946Z</time></trkpt><trkpt lat="46.43485489654677" lon="9.342042794050844"><ele>1499.0</ele><time>2026-05-03T08:50:11.946Z</time></trkpt><trkpt lat="46.43497377039566" lon="9.342063802952827"><ele>1499.0</ele><time>2026-05-03T08:50:12.946Z</time></trkpt><trkpt lat="46.435092123783285" lon="9.34213084477258"><ele>1499.0</ele><time>2026-05-03T08:50:13.946Z</time></trkpt><trkpt lat="46.435217186838806" lon="9.342195566353999"><ele>1512.25</ele><time>2026-05-03T08:50:14.946Z</time></trkpt><trkpt lat="46.43535080025767" lon="9.342263998990848"><ele>1525.5</ele><time>2026-05-03T08:50:15.946Z</time></trkpt><trkpt lat="46.435484909442145" lon="9.342329680237285"><ele>1538.75</ele><time>2026-05-03T08:50:16.946Z</time></trkpt><trkpt lat="46.435632602963636" lon="9.342405517290063"><ele>1552.0</ele><time>2026-05-03T08:50:17.946Z</time></trkpt><trkpt lat="46.43575995251761" lon="9.34247885114541"><ele>1552.0</ele><time>2026-05-03T08:50:18.946Z</time></trkpt><trkpt lat="46.43583819658764" lon="9.342544664414882"><ele>1552.0</ele><time>2026-05-03T08:50:19.946Z</time></trkpt><trkpt lat="46.43598056627147" lon="9.342690885039874"><ele>1552.0</ele><time>2026-05-03T08:50:20.946Z</time></trkpt><trkpt lat="46.43681771698974" lon="9.343423282891077"><ele>1548.25</ele><time>2026-05-03T08:50:26.946Z</time></trkpt><trkpt lat="46.43680773956839" lon="9.343695402099593"><ele>1544.5</ele><time>2026-05-03T08:50:27.946Z</time></trkpt><trkpt lat="46.43690638313325" lon="9.343868252808253"><ele>1540.75</ele><time>2026-05-03T08:50:28.946Z</time></trkpt><trkpt lat="46.43700324658981" lon="9.34387351966503"><ele>1537.0</ele><time>2026-05-03T08:50:29.946Z</time></trkpt><trkpt lat="46.43708845379971" lon="9.343884560542785"><ele>1538.3999999999999</ele><time>2026-05-03T08:50:30.946Z</time></trkpt><trkpt lat="46.437170952972885" lon="9.343898430501762"><ele>1539.8</ele><time>2026-05-03T08:50:31.946Z</time></trkpt><trkpt lat="46.43725813505518" lon="9.34393064461834"><ele>1541.2</ele><time>2026-05-03T08:50:32.946Z</time></trkpt><trkpt lat="46.43735300576009" lon="9.343983961628368"><ele>1542.6</ele><time>2026-05-03T08:50:33.946Z</time></trkpt><trkpt lat="46.437429408665" lon="9.344082904775416"><ele>1544.0</ele><time>2026-05-03T08:50:34.946Z</time></trkpt><trkpt lat="46.43750536821993" lon="9.344171062940104"><ele>1544.0</ele><time>2026-05-03T08:50:35.946Z</time></trkpt><trkpt lat="46.43757346045739" lon="9.344218248025618"><ele>1544.0</ele><time>2026-05-03T08:50:36.946Z</time></trkpt><trkpt lat="46.43764061296017" lon="9.344262800036043"><ele>1544.0</ele><time>2026-05-03T08:50:39.946Z</time></trkpt><trkpt lat="46.437612263358616" lon="9.344378564953878"><ele>1544.0</ele><time>2026-05-03T08:50:42.946Z</time></trkpt><trkpt lat="46.43752890629277" lon="9.344347449461385"><ele>1544.0</ele><time>2026-05-03T08:50:43.946Z</time></trkpt><trkpt lat="46.43738680608758" lon="9.344277097052386"><ele>1544.0</ele><time>2026-05-03T08:50:44.945Z</time></trkpt><trkpt lat="46.437249295053874" lon="9.344178390482979"><ele>1544.0</ele><time>2026-05-03T08:50:45.945Z</time></trkpt><trkpt lat="46.437126934756876" lon="9.344119107201193"><ele>1544.0</ele><time>2026-05-03T08:50:46.945Z</time></trkpt><trkpt lat="46.437017448014885" lon="9.34406304818181"><ele>1544.0</ele><time>2026-05-03T08:50:47.946Z</time></trkpt><trkpt lat="46.436939451760345" lon="9.344055868538867"><ele>1544.0</ele><time>2026-05-03T08:50:48.946Z</time></trkpt><trkpt lat="46.436885888648604" lon="9.344167537551018"><ele>1544.0</ele><time>2026-05-03T08:50:50.945Z</time></trkpt><trkpt lat="46.43689485459983" lon="9.344283269276117"><ele>1544.0</ele><time>2026-05-03T08:50:51.945Z</time></trkpt><trkpt lat="46.437021454054744" lon="9.344367255933497"><ele>1544.0</ele><time>2026-05-03T08:50:52.945Z</time></trkpt><trkpt lat="46.43718907127247" lon="9.344430818187526"><ele>1544.0</ele><time>2026-05-03T08:50:53.945Z</time></trkpt><trkpt lat="46.43734920066225" lon="9.344496125886563"><ele>1544.0</ele><time>2026-05-03T08:50:54.945Z</time></trkpt><trkpt lat="46.437516359399744" lon="9.344577684550547"><ele>1544.0</ele><time>2026-05-03T08:50:55.945Z</time></trkpt><trkpt lat="46.43764995358002" lon="9.344663748449994"><ele>1549.6666666666665</ele><time>2026-05-03T08:50:56.945Z</time></trkpt><trkpt lat="46.437780436699434" lon="9.344771106765082"><ele>1555.3333333333335</ele><time>2026-05-03T08:50:57.945Z</time></trkpt><trkpt lat="46.43791249225364" lon="9.344937641454077"><ele>1561.0</ele><time>2026-05-03T08:50:58.945Z</time></trkpt><trkpt lat="46.43808004358414" lon="9.34505533303405"><ele>1561.0</ele><time>2026-05-03T08:50:59.945Z</time></trkpt><trkpt lat="46.43821536985715" lon="9.345088347610144"><ele>1561.0</ele><time>2026-05-03T08:51:00.945Z</time></trkpt><trkpt lat="46.43840152483007" lon="9.345141853307755"><ele>1561.0</ele><time>2026-05-03T08:51:01.945Z</time></trkpt><trkpt lat="46.43861330016332" lon="9.34520489648974"><ele>1562.0</ele><time>2026-05-03T08:51:02.945Z</time></trkpt><trkpt lat="46.43881970702427" lon="9.345258555662804"><ele>1563.0</ele><time>2026-05-03T08:51:03.945Z</time></trkpt><trkpt lat="46.43901016252415" lon="9.345305025622084"><ele>1564.0</ele><time>2026-05-03T08:51:04.945Z</time></trkpt><trkpt lat="46.43919859727905" lon="9.345350911415448"><ele>1564.0</ele><time>2026-05-03T08:51:05.945Z</time></trkpt><trkpt lat="46.439383201918815" lon="9.345397918922549"><ele>1564.0</ele><time>2026-05-03T08:51:06.945Z</time></trkpt><trkpt lat="46.43957020124645" lon="9.345431671273996"><ele>1564.0</ele><time>2026-05-03T08:51:07.945Z</time></trkpt><trkpt lat="46.43974156496146" lon="9.345459121119"><ele>1565.6666666666667</ele><time>2026-05-03T08:51:08.945Z</time></trkpt><trkpt lat="46.43991107684469" lon="9.345461189572505"><ele>1567.3333333333335</ele><time>2026-05-03T08:51:09.945Z</time></trkpt><trkpt lat="46.44007149229562" lon="9.345442969615936"><ele>1569.0</ele><time>2026-05-03T08:51:10.945Z</time></trkpt><trkpt lat="46.440223053936954" lon="9.345377853988266"><ele>1569.0</ele><time>2026-05-03T08:51:11.945Z</time></trkpt><trkpt lat="46.44036784539328" lon="9.345234407870795"><ele>1569.0</ele><time>2026-05-03T08:51:12.945Z</time></trkpt><trkpt lat="46.440511021452735" lon="9.345082886323567"><ele>1569.0</ele><time>2026-05-03T08:51:13.945Z</time></trkpt><trkpt lat="46.440664845239304" lon="9.344952828119542"><ele>1570.0</ele><time>2026-05-03T08:51:14.945Z</time></trkpt><trkpt lat="46.4408177353138" lon="9.344826766338764"><ele>1571.0</ele><time>2026-05-03T08:51:15.945Z</time></trkpt><trkpt lat="46.44096743466969" lon="9.344681887809035"><ele>1572.0</ele><time>2026-05-03T08:51:16.945Z</time></trkpt><trkpt lat="46.44111170503923" lon="9.344541927009466"><ele>1572.0</ele><time>2026-05-03T08:51:17.945Z</time></trkpt><trkpt lat="46.441254853268866" lon="9.344411992233775"><ele>1572.0</ele><time>2026-05-03T08:51:18.945Z</time></trkpt><trkpt lat="46.44137726202558" lon="9.344273904031924"><ele>1572.0</ele><time>2026-05-03T08:51:19.945Z</time></trkpt><trkpt lat="46.44150680211862" lon="9.344216575431926"><ele>1583.3333333333335</ele><time>2026-05-03T08:51:20.945Z</time></trkpt><trkpt lat="46.44165636869632" lon="9.34412049994143"><ele>1594.6666666666667</ele><time>2026-05-03T08:51:21.945Z</time></trkpt><trkpt lat="46.44182369920637" lon="9.344010285907626"><ele>1606.0</ele><time>2026-05-03T08:51:22.945Z</time></trkpt><trkpt lat="46.441999516255656" lon="9.343894481960744"><ele>1600.6666666666667</ele><time>2026-05-03T08:51:23.945Z</time></trkpt><trkpt lat="46.442150890195684" lon="9.343806532349495"><ele>1595.3333333333335</ele><time>2026-05-03T08:51:24.945Z</time></trkpt><trkpt lat="46.4423051501044" lon="9.343734865450763"><ele>1590.0</ele><time>2026-05-03T08:51:25.945Z</time></trkpt><trkpt lat="46.442462126418725" lon="9.343667967422917"><ele>1590.0</ele><time>2026-05-03T08:51:26.945Z</time></trkpt><trkpt lat="46.44262976537099" lon="9.343602180404515"><ele>1590.0</ele><time>2026-05-03T08:51:27.945Z</time></trkpt><trkpt lat="46.44286417103669" lon="9.34351372111345"><ele>1590.0</ele><time>2026-05-03T08:51:29.082Z</time></trkpt><trkpt lat="46.44309118996411" lon="9.343354093597341"><ele>1585.0</ele><time>2026-05-03T08:51:30.082Z</time></trkpt><trkpt lat="46.44326817956926" lon="9.343213689278977"><ele>1580.0</ele><time>2026-05-03T08:51:31.081Z</time></trkpt><trkpt lat="46.443427011373984" lon="9.343088272058436"><ele>1575.0</ele><time>2026-05-03T08:51:32.083Z</time></trkpt><trkpt lat="46.44368797840869" lon="9.342873745379976"><ele>1626.0</ele><time>2026-05-03T08:51:33.083Z</time></trkpt><trkpt lat="46.445774983129624" lon="9.341136438409107"><ele>1626.0</ele><time>2026-05-03T08:51:46.945Z</time></trkpt><trkpt lat="46.445770796049324" lon="9.340537085375939"><ele>1626.0</ele><time>2026-05-03T08:51:47.945Z</time></trkpt><trkpt lat="46.44621524422728" lon="9.34067049454763"><ele>1628.0</ele><time>2026-05-03T08:51:49.945Z</time></trkpt><trkpt lat="46.446394853831386" lon="9.34054413906543"><ele>1630.0</ele><time>2026-05-03T08:51:50.945Z</time></trkpt><trkpt lat="46.446542535769396" lon="9.340383769525184"><ele>1632.0</ele><time>2026-05-03T08:51:51.945Z</time></trkpt><trkpt lat="46.446704777321706" lon="9.340273248972988"><ele>1632.0</ele><time>2026-05-03T08:51:52.945Z</time></trkpt><trkpt lat="46.446861347104345" lon="9.340191765585418"><ele>1632.0</ele><time>2026-05-03T08:51:53.945Z</time></trkpt><trkpt lat="46.44701306908025" lon="9.340115334860618"><ele>1632.0</ele><time>2026-05-03T08:51:54.945Z</time></trkpt><trkpt lat="46.44717113086531" lon="9.340037373112803"><ele>1641.0</ele><time>2026-05-03T08:51:55.945Z</time></trkpt><trkpt lat="46.44733415122486" lon="9.339953801238533"><ele>1650.0</ele><time>2026-05-03T08:51:56.945Z</time></trkpt><trkpt lat="46.44751569209037" lon="9.339851677008932"><ele>1659.0</ele><time>2026-05-03T08:51:57.945Z</time></trkpt><trkpt lat="46.44776494293707" lon="9.339722118078413"><ele>1656.0</ele><time>2026-05-03T08:51:58.945Z</time></trkpt><trkpt lat="46.447959930728274" lon="9.339613066270749"><ele>1653.0</ele><time>2026-05-03T08:51:59.945Z</time></trkpt><trkpt lat="46.44809521612894" lon="9.33949919315217"><ele>1650.0</ele><time>2026-05-03T08:52:00.945Z</time></trkpt><trkpt lat="46.448238269106554" lon="9.33941745106694"><ele>1650.0</ele><time>2026-05-03T08:52:01.945Z</time></trkpt><trkpt lat="46.44836049613686" lon="9.339330167571136"><ele>1650.0</ele><time>2026-05-03T08:52:02.945Z</time></trkpt><trkpt lat="46.44844769897067" lon="9.339272176258419"><ele>1650.0</ele><time>2026-05-03T08:52:03.945Z</time></trkpt><trkpt lat="46.44850789941115" lon="9.339220753894917"><ele>1650.0</ele><time>2026-05-03T08:52:04.945Z</time></trkpt><trkpt lat="46.44857353541916" lon="9.33917707497294"><ele>1650.0</ele><time>2026-05-03T08:52:06.945Z</time></trkpt><trkpt lat="46.44856848012429" lon="9.339312775889914"><ele>1650.0</ele><time>2026-05-03T08:52:08.945Z</time></trkpt><trkpt lat="46.44849475621042" lon="9.339399020409742"><ele>1650.0</ele><time>2026-05-03T08:52:09.945Z</time></trkpt><trkpt lat="46.44835025295417" lon="9.339547390732593"><ele>1650.0</ele><time>2026-05-03T08:52:10.945Z</time></trkpt><trkpt lat="46.44820982606566" lon="9.3397084124454"><ele>1653.0</ele><time>2026-05-03T08:52:11.945Z</time></trkpt><trkpt lat="46.448082334950605" lon="9.339872089982144"><ele>1656.0</ele><time>2026-05-03T08:52:12.945Z</time></trkpt><trkpt lat="46.4479656970534" lon="9.340024970205137"><ele>1659.0</ele><time>2026-05-03T08:52:13.945Z</time></trkpt><trkpt lat="46.447864662563745" lon="9.34013904483774"><ele>1659.0</ele><time>2026-05-03T08:52:14.945Z</time></trkpt><trkpt lat="46.447796603647376" lon="9.340221859354044"><ele>1659.0</ele><time>2026-05-03T08:52:15.945Z</time></trkpt><trkpt lat="46.44777925498801" lon="9.340348838030646"><ele>1659.0</ele><time>2026-05-03T08:52:17.945Z</time></trkpt><trkpt lat="46.44791576878316" lon="9.340413481254542"><ele>1659.0</ele><time>2026-05-03T08:52:19.945Z</time></trkpt><trkpt lat="46.4480338928646" lon="9.340397880336447"><ele>1659.0</ele><time>2026-05-03T08:52:20.945Z</time></trkpt><trkpt lat="46.4481813969528" lon="9.340385934174959"><ele>1663.3333333333335</ele><time>2026-05-03T08:52:21.945Z</time></trkpt><trkpt lat="46.448360786616085" lon="9.34039635902913"><ele>1667.6666666666667</ele><time>2026-05-03T08:52:22.945Z</time></trkpt><trkpt lat="46.44856313195948" lon="9.340397395499819"><ele>1672.0</ele><time>2026-05-03T08:52:23.945Z</time></trkpt><trkpt lat="46.44876108746308" lon="9.34035112780516"><ele>1675.3333333333335</ele><time>2026-05-03T08:52:24.945Z</time></trkpt><trkpt lat="46.44895999336335" lon="9.340270823728757"><ele>1678.6666666666665</ele><time>2026-05-03T08:52:25.945Z</time></trkpt><trkpt lat="46.44916371415554" lon="9.340164533668673"><ele>1682.0</ele><time>2026-05-03T08:52:26.945Z</time></trkpt><trkpt lat="46.449337735395304" lon="9.340087550572674"><ele>1682.0</ele><time>2026-05-03T08:52:27.945Z</time></trkpt><trkpt lat="46.449452866960385" lon="9.340020086651423"><ele>1682.0</ele><time>2026-05-03T08:52:28.945Z</time></trkpt><trkpt lat="46.44953739317143" lon="9.34001029380763"><ele>1682.0</ele><time>2026-05-03T08:52:29.945Z</time></trkpt><trkpt lat="46.4496117796377" lon="9.340109291150094"><ele>1682.0</ele><time>2026-05-03T08:52:31.945Z</time></trkpt><trkpt lat="46.44954708480952" lon="9.34036887037578"><ele>1682.0</ele><time>2026-05-03T08:52:33.945Z</time></trkpt><trkpt lat="46.4494602000993" lon="9.340533726142214"><ele>1682.0</ele><time>2026-05-03T08:52:34.945Z</time></trkpt><trkpt lat="46.44931720574509" lon="9.34066547161082"><ele>1682.0</ele><time>2026-05-03T08:52:35.945Z</time></trkpt><trkpt lat="46.4491488348116" lon="9.340786181584605"><ele>1685.0</ele><time>2026-05-03T08:52:36.945Z</time></trkpt><trkpt lat="46.449021762674285" lon="9.34090390040516"><ele>1688.0</ele><time>2026-05-03T08:52:37.945Z</time></trkpt><trkpt lat="46.44894001759517" lon="9.340957551463429"><ele>1691.0</ele><time>2026-05-03T08:52:38.945Z</time></trkpt><trkpt lat="46.44889774946172" lon="9.341043050361016"><ele>1694.0</ele><time>2026-05-03T08:52:40.945Z</time></trkpt><trkpt lat="46.449014719107076" lon="9.341153755686504"><ele>1694.0</ele><time>2026-05-03T08:52:41.945Z</time></trkpt><trkpt lat="46.44911842856231" lon="9.34117056028743"><ele>1694.0</ele><time>2026-05-03T08:52:42.945Z</time></trkpt><trkpt lat="46.44924071858528" lon="9.341178613446072"><ele>1694.0</ele><time>2026-05-03T08:52:43.945Z</time></trkpt><trkpt lat="46.449387015899376" lon="9.341225021841606"><ele>1694.0</ele><time>2026-05-03T08:52:44.945Z</time></trkpt><trkpt lat="46.44956943249044" lon="9.341276248303755"><ele>1697.0</ele><time>2026-05-03T08:52:45.945Z</time></trkpt><trkpt lat="46.44976270798339" lon="9.341325462488605"><ele>1700.0</ele><time>2026-05-03T08:52:46.945Z</time></trkpt><trkpt lat="46.44995376549477" lon="9.341332846654565"><ele>1703.0</ele><time>2026-05-03T08:52:47.945Z</time></trkpt><trkpt lat="46.450154915575844" lon="9.341263115147196"><ele>1703.0</ele><time>2026-05-03T08:52:48.945Z</time></trkpt><trkpt lat="46.450371771666" lon="9.341152895635679"><ele>1703.0</ele><time>2026-05-03T08:52:49.945Z</time></trkpt><trkpt lat="46.450606135855296" lon="9.341041728053506"><ele>1708.0</ele><time>2026-05-03T08:52:50.944Z</time></trkpt><trkpt lat="46.450830945065164" lon="9.340940115481537"><ele>1713.0</ele><time>2026-05-03T08:52:51.944Z</time></trkpt><trkpt lat="46.45104047431108" lon="9.340838515147727"><ele>1713.0</ele><time>2026-05-03T08:52:52.944Z</time></trkpt><trkpt lat="46.451233654600415" lon="9.340753377419771"><ele>1713.0</ele><time>2026-05-03T08:52:53.944Z</time></trkpt><trkpt lat="46.45140334610622" lon="9.340677583036742"><ele>1713.0</ele><time>2026-05-03T08:52:54.944Z</time></trkpt><trkpt lat="46.45154703860953" lon="9.340611569982588"><ele>1715.6000000000001</ele><time>2026-05-03T08:52:55.944Z</time></trkpt><trkpt lat="46.45165289286459" lon="9.340553981207009"><ele>1718.2000000000003</ele><time>2026-05-03T08:52:56.945Z</time></trkpt><trkpt lat="46.4517237086049" lon="9.340472550674752"><ele>1720.8</ele><time>2026-05-03T08:52:57.945Z</time></trkpt><trkpt lat="46.451757826081646" lon="9.340352188890131"><ele>1723.4</ele><time>2026-05-03T08:52:58.944Z</time></trkpt><trkpt lat="46.45175420605149" lon="9.340159291988368"><ele>1726.0</ele><time>2026-05-03T08:52:59.944Z</time></trkpt><trkpt lat="46.45170254738221" lon="9.33995257759524"><ele>1726.0</ele><time>2026-05-03T08:53:00.944Z</time></trkpt><trkpt lat="46.45167379320361" lon="9.339792070281069"><ele>1726.0</ele><time>2026-05-03T08:53:01.944Z</time></trkpt><trkpt lat="46.451712107992186" lon="9.339656598832196"><ele>1726.0</ele><time>2026-05-03T08:53:02.944Z</time></trkpt><trkpt lat="46.451833209254495" lon="9.339596682062343"><ele>1726.0</ele><time>2026-05-03T08:53:03.944Z</time></trkpt><trkpt lat="46.45194621758395" lon="9.339471665068674"><ele>1724.0</ele><time>2026-05-03T08:53:04.944Z</time></trkpt><trkpt lat="46.452080213857826" lon="9.339358962114035"><ele>1722.0</ele><time>2026-05-03T08:53:05.944Z</time></trkpt><trkpt lat="46.4522224651163" lon="9.339237148644049"><ele>1720.0</ele><time>2026-05-03T08:53:06.944Z</time></trkpt><trkpt lat="46.45237265735619" lon="9.339110945457842"><ele>1721.3333333333335</ele><time>2026-05-03T08:53:07.944Z</time></trkpt><trkpt lat="46.45252043999749" lon="9.338983999095747"><ele>1722.6666666666665</ele><time>2026-05-03T08:53:08.944Z</time></trkpt><trkpt lat="46.45265505899992" lon="9.33885098196893"><ele>1724.0</ele><time>2026-05-03T08:53:09.944Z</time></trkpt><trkpt lat="46.452758119508694" lon="9.338730373161603"><ele>1723.9999999999998</ele><time>2026-05-03T08:53:10.944Z</time></trkpt><trkpt lat="46.45281298033015" lon="9.338619358214277"><ele>1724.0</ele><time>2026-05-03T08:53:11.944Z</time></trkpt><trkpt lat="46.45286611508134" lon="9.338556815318238"><ele>1724.0</ele><time>2026-05-03T08:53:12.944Z</time></trkpt><trkpt lat="46.452956790132305" lon="9.338620358211646"><ele>1724.0</ele><time>2026-05-03T08:53:14.944Z</time></trkpt><trkpt lat="46.452951829253834" lon="9.33871526312651"><ele>1723.9999999999998</ele><time>2026-05-03T08:53:15.944Z</time></trkpt><trkpt lat="46.452857899767366" lon="9.33880878813651"><ele>1724.0</ele><time>2026-05-03T08:53:16.944Z</time></trkpt><trkpt lat="46.45281484753626" lon="9.33897255380149"><ele>1728.0</ele><time>2026-05-03T08:53:17.944Z</time></trkpt><trkpt lat="46.452824055612524" lon="9.339116714719333"><ele>1732.0</ele><time>2026-05-03T08:53:18.944Z</time></trkpt><trkpt lat="46.452870489328404" lon="9.339237196575782"><ele>1736.0</ele><time>2026-05-03T08:53:19.944Z</time></trkpt><trkpt lat="46.45296251033873" lon="9.339358015674971"><ele>1740.0</ele><time>2026-05-03T08:53:20.944Z</time></trkpt><trkpt lat="46.45309143677028" lon="9.339474024041325"><ele>1744.25</ele><time>2026-05-03T08:53:21.944Z</time></trkpt><trkpt lat="46.453193510264796" lon="9.339564870693046"><ele>1748.5</ele><time>2026-05-03T08:53:22.944Z</time></trkpt><trkpt lat="46.45329451734215" lon="9.339579982219218"><ele>1752.75</ele><time>2026-05-03T08:53:23.944Z</time></trkpt><trkpt lat="46.453386340665716" lon="9.339475123221542"><ele>1757.0</ele><time>2026-05-03T08:53:24.944Z</time></trkpt><trkpt lat="46.45348645753198" lon="9.339323342202242"><ele>1757.0</ele><time>2026-05-03T08:53:25.944Z</time></trkpt><trkpt lat="46.453599380162906" lon="9.339144025337612"><ele>1757.0</ele><time>2026-05-03T08:53:26.944Z</time></trkpt><trkpt lat="46.453710603574656" lon="9.338968315952254"><ele>1757.0</ele><time>2026-05-03T08:53:27.944Z</time></trkpt><trkpt lat="46.45381516946421" lon="9.338790499744016"><ele>1763.6666666666665</ele><time>2026-05-03T08:53:28.944Z</time></trkpt><trkpt lat="46.45392623573139" lon="9.33860680220879"><ele>1770.3333333333335</ele><time>2026-05-03T08:53:29.944Z</time></trkpt><trkpt lat="46.45403563726672" lon="9.338402502972745"><ele>1777.0</ele><time>2026-05-03T08:53:30.944Z</time></trkpt><trkpt lat="46.454146940763394" lon="9.338176650169837"><ele>1769.3333333333335</ele><time>2026-05-03T08:53:31.944Z</time></trkpt><trkpt lat="46.45425504477689" lon="9.337952845578247"><ele>1761.6666666666665</ele><time>2026-05-03T08:53:32.944Z</time></trkpt><trkpt lat="46.454369368578625" lon="9.337739880398615"><ele>1754.0</ele><time>2026-05-03T08:53:33.944Z</time></trkpt><trkpt lat="46.454497674855865" lon="9.337554713580769"><ele>1754.0</ele><time>2026-05-03T08:53:34.944Z</time></trkpt><trkpt lat="46.45460466979324" lon="9.337359669506219"><ele>1754.0</ele><time>2026-05-03T08:53:35.944Z</time></trkpt><trkpt lat="46.45476569653548" lon="9.337257994164865"><ele>1754.0</ele><time>2026-05-03T08:53:36.944Z</time></trkpt><trkpt lat="46.45491114884052" lon="9.33712872129357"><ele>1758.6666666666665</ele><time>2026-05-03T08:53:37.944Z</time></trkpt><trkpt lat="46.455059632082325" lon="9.337003821186613"><ele>1763.3333333333335</ele><time>2026-05-03T08:53:38.944Z</time></trkpt><trkpt lat="46.4552082116821" lon="9.336854116749384"><ele>1768.0</ele><time>2026-05-03T08:53:39.944Z</time></trkpt><trkpt lat="46.45531373534593" lon="9.336661181347594"><ele>1768.0</ele><time>2026-05-03T08:53:40.944Z</time></trkpt><trkpt lat="46.45538833041087" lon="9.336513021102617"><ele>1768.0000000000002</ele><time>2026-05-03T08:53:41.944Z</time></trkpt><trkpt lat="46.455455509231975" lon="9.336420470783967"><ele>1768.0000000000002</ele><time>2026-05-03T08:53:42.944Z</time></trkpt><trkpt lat="46.455548569923366" lon="9.336398799166506"><ele>1768.0</ele><time>2026-05-03T08:53:43.944Z</time></trkpt><trkpt lat="46.45567537465665" lon="9.336450275524657"><ele>1768.0</ele><time>2026-05-03T08:53:44.944Z</time></trkpt><trkpt lat="46.45582580462076" lon="9.336555465637213"><ele>1774.0</ele><time>2026-05-03T08:53:45.944Z</time></trkpt><trkpt lat="46.45598278425158" lon="9.336676739120374"><ele>1780.0</ele><time>2026-05-03T08:53:46.944Z</time></trkpt><trkpt lat="46.4561372301539" lon="9.336796596805973"><ele>1786.0</ele><time>2026-05-03T08:53:47.944Z</time></trkpt><trkpt lat="46.45627384023459" lon="9.336905227282115"><ele>1788.0</ele><time>2026-05-03T08:53:48.944Z</time></trkpt><trkpt lat="46.456422885619986" lon="9.33701383171336"><ele>1790.0</ele><time>2026-05-03T08:53:49.944Z</time></trkpt><trkpt lat="46.456583409605344" lon="9.33712160158922"><ele>1792.0</ele><time>2026-05-03T08:53:50.944Z</time></trkpt><trkpt lat="46.45676014619443" lon="9.337248588470434"><ele>1795.3333333333335</ele><time>2026-05-03T08:53:51.944Z</time></trkpt><trkpt lat="46.456953579002025" lon="9.337402316311213"><ele>1798.6666666666665</ele><time>2026-05-03T08:53:52.944Z</time></trkpt><trkpt lat="46.4571535333677" lon="9.337563064856933"><ele>1802.0</ele><time>2026-05-03T08:53:53.944Z</time></trkpt><trkpt lat="46.45734096940129" lon="9.337708864537408"><ele>1802.0</ele><time>2026-05-03T08:53:54.944Z</time></trkpt><trkpt lat="46.45751707419088" lon="9.337854571927537"><ele>1802.0</ele><time>2026-05-03T08:53:55.944Z</time></trkpt><trkpt lat="46.457688400472016" lon="9.33799111436805"><ele>1802.0</ele><time>2026-05-03T08:53:56.944Z</time></trkpt><trkpt lat="46.4578507022087" lon="9.338130014020214"><ele>1807.3333333333333</ele><time>2026-05-03T08:53:57.944Z</time></trkpt><trkpt lat="46.45800472924582" lon="9.338251946609201"><ele>1812.6666666666665</ele><time>2026-05-03T08:53:58.944Z</time></trkpt><trkpt lat="46.458158445201526" lon="9.338331152438071"><ele>1818.0</ele><time>2026-05-03T08:53:59.944Z</time></trkpt><trkpt lat="46.4583242712072" lon="9.338356492912075"><ele>1818.0</ele><time>2026-05-03T08:54:00.944Z</time></trkpt><trkpt lat="46.458495045093905" lon="9.33834254803601"><ele>1818.0</ele><time>2026-05-03T08:54:01.944Z</time></trkpt><trkpt lat="46.45866922704787" lon="9.338322938456239"><ele>1818.0</ele><time>2026-05-03T08:54:02.944Z</time></trkpt><trkpt lat="46.4588169420998" lon="9.338349126831927"><ele>1819.0</ele><time>2026-05-03T08:54:03.944Z</time></trkpt><trkpt lat="46.458949438545616" lon="9.338422154918371"><ele>1820.0</ele><time>2026-05-03T08:54:04.944Z</time></trkpt><trkpt lat="46.45908172637744" lon="9.338533864540091"><ele>1821.0</ele><time>2026-05-03T08:54:05.944Z</time></trkpt><trkpt lat="46.459197544227905" lon="9.338702607963612"><ele>1821.0</ele><time>2026-05-03T08:54:06.944Z</time></trkpt><trkpt lat="46.45932254805316" lon="9.338871082918903"><ele>1821.0</ele><time>2026-05-03T08:54:07.944Z</time></trkpt><trkpt lat="46.459461988943275" lon="9.339049289771763"><ele>1821.0</ele><time>2026-05-03T08:54:08.944Z</time></trkpt><trkpt lat="46.4595987779945" lon="9.339237241499681"><ele>1821.6666666666665</ele><time>2026-05-03T08:54:09.944Z</time></trkpt><trkpt lat="46.459741193942406" lon="9.339434560394034"><ele>1822.3333333333333</ele><time>2026-05-03T08:54:10.944Z</time></trkpt><trkpt lat="46.459892028275995" lon="9.339635273925166"><ele>1823.0</ele><time>2026-05-03T08:54:11.944Z</time></trkpt><trkpt lat="46.460044855604465" lon="9.339823756750157"><ele>1822.3333333333333</ele><time>2026-05-03T08:54:12.944Z</time></trkpt><trkpt lat="46.46022474658331" lon="9.340008254040239"><ele>1821.6666666666665</ele><time>2026-05-03T08:54:13.944Z</time></trkpt><trkpt lat="46.46042293594214" lon="9.340172347035622"><ele>1821.0</ele><time>2026-05-03T08:54:14.944Z</time></trkpt><trkpt lat="46.46062047043467" lon="9.340329072355464"><ele>1821.0</ele><time>2026-05-03T08:54:15.944Z</time></trkpt><trkpt lat="46.46081568215734" lon="9.340500396025762"><ele>1821.0</ele><time>2026-05-03T08:54:16.944Z</time></trkpt><trkpt lat="46.46099201341424" lon="9.340658147591096"><ele>1821.0</ele><time>2026-05-03T08:54:17.944Z</time></trkpt><trkpt lat="46.46114497758225" lon="9.340796766615131"><ele>1823.6666666666665</ele><time>2026-05-03T08:54:18.944Z</time></trkpt><trkpt lat="46.46128616555537" lon="9.34092807076237"><ele>1826.3333333333333</ele><time>2026-05-03T08:54:19.944Z</time></trkpt><trkpt lat="46.46141754934509" lon="9.341080438606157"><ele>1829.0</ele><time>2026-05-03T08:54:20.944Z</time></trkpt><trkpt lat="46.46154321134856" lon="9.341260395309023"><ele>1833.0</ele><time>2026-05-03T08:54:21.944Z</time></trkpt><trkpt lat="46.461671482378826" lon="9.341473114806748"><ele>1837.0</ele><time>2026-05-03T08:54:22.944Z</time></trkpt><trkpt lat="46.46180419835586" lon="9.341688434790246"><ele>1841.0</ele><time>2026-05-03T08:54:23.944Z</time></trkpt><trkpt lat="46.46194364181741" lon="9.341903016804489"><ele>1841.0</ele><time>2026-05-03T08:54:24.944Z</time></trkpt><trkpt lat="46.46208002735634" lon="9.342114510533778"><ele>1841.0</ele><time>2026-05-03T08:54:25.944Z</time></trkpt><trkpt lat="46.46222011661203" lon="9.342330818915382"><ele>1841.0</ele><time>2026-05-03T08:54:26.944Z</time></trkpt><trkpt lat="46.46235877385974" lon="9.34254613111625"><ele>1840.6666666666665</ele><time>2026-05-03T08:54:27.944Z</time></trkpt><trkpt lat="46.46250093099502" lon="9.342762559271858"><ele>1840.3333333333335</ele><time>2026-05-03T08:54:28.944Z</time></trkpt><trkpt lat="46.46265082517206" lon="9.342959363214428"><ele>1840.0</ele><time>2026-05-03T08:54:29.944Z</time></trkpt><trkpt lat="46.46281707782802" lon="9.343128300414604"><ele>1841.3333333333335</ele><time>2026-05-03T08:54:30.944Z</time></trkpt><trkpt lat="46.46300045508113" lon="9.343284007511592"><ele>1842.6666666666665</ele><time>2026-05-03T08:54:31.944Z</time></trkpt><trkpt lat="46.463145871283615" lon="9.343503826952187"><ele>1844.0</ele><time>2026-05-03T08:54:32.944Z</time></trkpt><trkpt lat="46.463306685546954" lon="9.343715414635005"><ele>1849.0</ele><time>2026-05-03T08:54:33.944Z</time></trkpt><trkpt lat="46.46345349619104" lon="9.343946515585827"><ele>1854.0</ele><time>2026-05-03T08:54:34.944Z</time></trkpt><trkpt lat="46.46360650544653" lon="9.344162975969791"><ele>1859.0</ele><time>2026-05-03T08:54:35.944Z</time></trkpt><trkpt lat="46.463755107534155" lon="9.344351989060911"><ele>1855.0</ele><time>2026-05-03T08:54:36.944Z</time></trkpt><trkpt lat="46.46392361486478" lon="9.344501955532019"><ele>1851.0</ele><time>2026-05-03T08:54:37.944Z</time></trkpt><trkpt lat="46.464132195927114" lon="9.34461787495066"><ele>1847.0</ele><time>2026-05-03T08:54:38.944Z</time></trkpt><trkpt lat="46.4643403581698" lon="9.344708543169661"><ele>1848.3333333333333</ele><time>2026-05-03T08:54:39.944Z</time></trkpt><trkpt lat="46.46450513527604" lon="9.344810771661225"><ele>1849.6666666666665</ele><time>2026-05-03T08:54:40.944Z</time></trkpt><trkpt lat="46.46463001082357" lon="9.344963453894964"><ele>1851.0</ele><time>2026-05-03T08:54:41.944Z</time></trkpt><trkpt lat="46.46475752154811" lon="9.345147613126128"><ele>1851.0</ele><time>2026-05-03T08:54:42.944Z</time></trkpt><trkpt lat="46.46489787508975" lon="9.34536321571813"><ele>1851.0</ele><time>2026-05-03T08:54:43.944Z</time></trkpt><trkpt lat="46.465058472009574" lon="9.34557521349375"><ele>1851.0</ele><time>2026-05-03T08:54:44.944Z</time></trkpt><trkpt lat="46.46520689202679" lon="9.345808551923863"><ele>1852.0</ele><time>2026-05-03T08:54:45.944Z</time></trkpt><trkpt lat="46.46535900276249" lon="9.346041161918256"><ele>1853.0</ele><time>2026-05-03T08:54:46.944Z</time></trkpt><trkpt lat="46.465505888133926" lon="9.346270997311962"><ele>1854.0</ele><time>2026-05-03T08:54:47.944Z</time></trkpt><trkpt lat="46.46564913351951" lon="9.346496807206456"><ele>1856.6666666666665</ele><time>2026-05-03T08:54:48.944Z</time></trkpt><trkpt lat="46.46579773905626" lon="9.346710446340797"><ele>1859.3333333333333</ele><time>2026-05-03T08:54:49.944Z</time></trkpt><trkpt lat="46.46595029469854" lon="9.346931563738769"><ele>1862.0</ele><time>2026-05-03T08:54:50.944Z</time></trkpt><trkpt lat="46.4661071823237" lon="9.34712937156148"><ele>1864.3333333333333</ele><time>2026-05-03T08:54:51.944Z</time></trkpt><trkpt lat="46.466278597438404" lon="9.34729094637415"><ele>1866.6666666666665</ele><time>2026-05-03T08:54:52.944Z</time></trkpt><trkpt lat="46.46646643280339" lon="9.347430776980591"><ele>1869.0</ele><time>2026-05-03T08:54:53.944Z</time></trkpt><trkpt lat="46.4666436852862" lon="9.347577492273492"><ele>1869.0</ele><time>2026-05-03T08:54:54.944Z</time></trkpt><trkpt lat="46.46681788478624" lon="9.347727364807861"><ele>1869.0</ele><time>2026-05-03T08:54:55.944Z</time></trkpt><trkpt lat="46.466986117647735" lon="9.347871450901732"><ele>1869.0</ele><time>2026-05-03T08:54:56.943Z</time></trkpt><trkpt lat="46.46713803504842" lon="9.348009402363482"><ele>1870.0</ele><time>2026-05-03T08:54:57.943Z</time></trkpt><trkpt lat="46.467269432674655" lon="9.348180277906302"><ele>1871.0</ele><time>2026-05-03T08:54:58.943Z</time></trkpt><trkpt lat="46.467413344350184" lon="9.348343955811796"><ele>1872.0</ele><time>2026-05-03T08:54:59.943Z</time></trkpt><trkpt lat="46.4675429014033" lon="9.348545243202107"><ele>1872.0</ele><time>2026-05-03T08:55:00.943Z</time></trkpt><trkpt lat="46.4676780367802" lon="9.348742822219503"><ele>1872.0</ele><time>2026-05-03T08:55:01.943Z</time></trkpt><trkpt lat="46.46781602399293" lon="9.348949298703463"><ele>1872.0</ele><time>2026-05-03T08:55:02.943Z</time></trkpt><trkpt lat="46.46795472631871" lon="9.349152215528367"><ele>1872.6666666666665</ele><time>2026-05-03T08:55:03.943Z</time></trkpt><trkpt lat="46.468083640584574" lon="9.349341288514854"><ele>1873.3333333333333</ele><time>2026-05-03T08:55:04.943Z</time></trkpt><trkpt lat="46.46820668486192" lon="9.349514823318962"><ele>1874.0</ele><time>2026-05-03T08:55:05.943Z</time></trkpt><trkpt lat="46.46833019932193" lon="9.349664419509718"><ele>1876.0</ele><time>2026-05-03T08:55:06.943Z</time></trkpt><trkpt lat="46.46847139229224" lon="9.349793524606964"><ele>1878.0</ele><time>2026-05-03T08:55:07.943Z</time></trkpt><trkpt lat="46.46862166564081" lon="9.349881126615562"><ele>1880.0</ele><time>2026-05-03T08:55:08.943Z</time></trkpt><trkpt lat="46.468796460761205" lon="9.349920662157116"><ele>1880.0</ele><time>2026-05-03T08:55:09.943Z</time></trkpt><trkpt lat="46.468990337821396" lon="9.349945266426529"><ele>1880.0</ele><time>2026-05-03T08:55:10.943Z</time></trkpt><trkpt lat="46.46912725910765" lon="9.349978353669444"><ele>1880.0</ele><time>2026-05-03T08:55:11.943Z</time></trkpt><trkpt lat="46.469238931884156" lon="9.350010924149405"><ele>1880.0</ele><time>2026-05-03T08:55:12.943Z</time></trkpt><trkpt lat="46.46932481559081" lon="9.35005646424504"><ele>1880.0</ele><time>2026-05-03T08:55:13.943Z</time></trkpt><trkpt lat="46.46938342674763" lon="9.350141716624911"><ele>1880.0</ele><time>2026-05-03T08:55:14.943Z</time></trkpt><trkpt lat="46.46938797868109" lon="9.350272259075075"><ele>1880.0</ele><time>2026-05-03T08:55:15.943Z</time></trkpt><trkpt lat="46.46932715236595" lon="9.350394243366877"><ele>1880.0</ele><time>2026-05-03T08:55:16.943Z</time></trkpt><trkpt lat="46.46923106761354" lon="9.350459449773272"><ele>1880.0</ele><time>2026-05-03T08:55:17.943Z</time></trkpt><trkpt lat="46.46911407794658" lon="9.350452604249924"><ele>1880.0</ele><time>2026-05-03T08:55:18.943Z</time></trkpt><trkpt lat="46.46898610890652" lon="9.350386778225122"><ele>1880.0</ele><time>2026-05-03T08:55:19.943Z</time></trkpt><trkpt lat="46.46883661262123" lon="9.350328331619407"><ele>1880.0</ele><time>2026-05-03T08:55:20.943Z</time></trkpt><trkpt lat="46.4686806778141" lon="9.350284481368423"><ele>1880.0</ele><time>2026-05-03T08:55:21.943Z</time></trkpt><trkpt lat="46.46851840306686" lon="9.35025444418711"><ele>1880.2</ele><time>2026-05-03T08:55:22.943Z</time></trkpt><trkpt lat="46.468370304641304" lon="9.35021936871073"><ele>1880.4</ele><time>2026-05-03T08:55:23.943Z</time></trkpt><trkpt lat="46.46825904489441" lon="9.350173574938628"><ele>1880.6</ele><time>2026-05-03T08:55:24.943Z</time></trkpt><trkpt lat="46.46817880967367" lon="9.35012420991846"><ele>1880.8</ele><time>2026-05-03T08:55:25.943Z</time></trkpt><trkpt lat="46.46809666602711" lon="9.350097164964405"><ele>1881.0</ele><time>2026-05-03T08:55:26.943Z</time></trkpt><trkpt lat="46.46802789827951" lon="9.35011875075773"><ele>1881.0</ele><time>2026-05-03T08:55:27.943Z</time></trkpt><trkpt lat="46.46798345585453" lon="9.350184827851425"><ele>1881.0</ele><time>2026-05-03T08:55:28.943Z</time></trkpt><trkpt lat="46.46797680161216" lon="9.350287294523794"><ele>1881.0</ele><time>2026-05-03T08:55:29.943Z</time></trkpt><trkpt lat="46.46801456125605" lon="9.35040740849468"><ele>1881.0</ele><time>2026-05-03T08:55:30.943Z</time></trkpt><trkpt lat="46.46810746619824" lon="9.350493623443818"><ele>1881.0</ele><time>2026-05-03T08:55:31.943Z</time></trkpt><trkpt lat="46.46823241207432" lon="9.350543781182346"><ele>1884.0</ele><time>2026-05-03T08:55:32.943Z</time></trkpt><trkpt lat="46.46838932707325" lon="9.35060446577883"><ele>1887.0</ele><time>2026-05-03T08:55:33.943Z</time></trkpt><trkpt lat="46.46855794419916" lon="9.350692434730865"><ele>1890.0</ele><time>2026-05-03T08:55:34.943Z</time></trkpt><trkpt lat="46.468761232482244" lon="9.350805703543987"><ele>1890.3333333333335</ele><time>2026-05-03T08:55:35.943Z</time></trkpt><trkpt lat="46.4689556981241" lon="9.350912157210292"><ele>1890.6666666666667</ele><time>2026-05-03T08:55:36.943Z</time></trkpt><trkpt lat="46.46915479571484" lon="9.351026653299813"><ele>1891.0</ele><time>2026-05-03T08:55:37.943Z</time></trkpt><trkpt lat="46.469363638672974" lon="9.351143338742022"><ele>1891.0</ele><time>2026-05-03T08:55:38.943Z</time></trkpt><trkpt lat="46.46955212866431" lon="9.351249866062352"><ele>1891.0</ele><time>2026-05-03T08:55:39.943Z</time></trkpt><trkpt lat="46.4697256311503" lon="9.351344137234783"><ele>1891.0</ele><time>2026-05-03T08:55:40.943Z</time></trkpt><trkpt lat="46.469889855011516" lon="9.351429705306659"><ele>1895.3333333333335</ele><time>2026-05-03T08:55:41.943Z</time></trkpt><trkpt lat="46.47005482283617" lon="9.351488134843363"><ele>1899.6666666666665</ele><time>2026-05-03T08:55:42.943Z</time></trkpt><trkpt lat="46.470226598220165" lon="9.351495950575794"><ele>1904.0</ele><time>2026-05-03T08:55:43.943Z</time></trkpt><trkpt lat="46.47040126691446" lon="9.351468360476904"><ele>1904.3333333333333</ele><time>2026-05-03T08:55:44.943Z</time></trkpt><trkpt lat="46.47056239243585" lon="9.351475196326874"><ele>1904.6666666666665</ele><time>2026-05-03T08:55:45.943Z</time></trkpt><trkpt lat="46.47072065481363" lon="9.351533836889383"><ele>1905.0</ele><time>2026-05-03T08:55:46.943Z</time></trkpt><trkpt lat="46.47089502364547" lon="9.351600941855478"><ele>1905.0</ele><time>2026-05-03T08:55:47.943Z</time></trkpt><trkpt lat="46.47107549857971" lon="9.351651205840273"><ele>1905.0</ele><time>2026-05-03T08:55:48.943Z</time></trkpt><trkpt lat="46.47126427242899" lon="9.351660380712529"><ele>1905.0</ele><time>2026-05-03T08:55:49.943Z</time></trkpt><trkpt lat="46.4714559738333" lon="9.351634582642832"><ele>1905.75</ele><time>2026-05-03T08:55:50.943Z</time></trkpt><trkpt lat="46.47161360030352" lon="9.351616606330925"><ele>1906.5</ele><time>2026-05-03T08:55:51.943Z</time></trkpt><trkpt lat="46.4717485392288" lon="9.351608343411234"><ele>1907.25</ele><time>2026-05-03T08:55:52.943Z</time></trkpt><trkpt lat="46.47186951330494" lon="9.351593950087986"><ele>1908.0</ele><time>2026-05-03T08:55:53.943Z</time></trkpt><trkpt lat="46.47199862077826" lon="9.35157308888047"><ele>1908.0</ele><time>2026-05-03T08:55:54.943Z</time></trkpt><trkpt lat="46.472136053941256" lon="9.351554164602208"><ele>1908.0</ele><time>2026-05-03T08:55:55.943Z</time></trkpt><trkpt lat="46.47227936762482" lon="9.351542962297293"><ele>1908.0</ele><time>2026-05-03T08:55:56.943Z</time></trkpt><trkpt lat="46.472434492185826" lon="9.35154068492989"><ele>1908.0</ele><time>2026-05-03T08:55:57.943Z</time></trkpt><trkpt lat="46.4725977321095" lon="9.351551453748277"><ele>1908.0</ele><time>2026-05-03T08:55:58.943Z</time></trkpt><trkpt lat="46.472766415024076" lon="9.351575081583457"><ele>1908.0</ele><time>2026-05-03T08:55:59.943Z</time></trkpt><trkpt lat="46.47294007399396" lon="9.351599539002857"><ele>1908.0</ele><time>2026-05-03T08:56:00.943Z</time></trkpt><trkpt lat="46.47312420306316" lon="9.351627682644073"><ele>1906.0</ele><time>2026-05-03T08:56:01.943Z</time></trkpt><trkpt lat="46.47331147285012" lon="9.351672806069136"><ele>1904.0</ele><time>2026-05-03T08:56:02.943Z</time></trkpt><trkpt lat="46.47349680319901" lon="9.351727994489215"><ele>1902.0</ele><time>2026-05-03T08:56:03.943Z</time></trkpt><trkpt lat="46.47368272257882" lon="9.351780141222552"><ele>1902.6666666666665</ele><time>2026-05-03T08:56:04.943Z</time></trkpt><trkpt lat="46.47386840298173" lon="9.351813425176962"><ele>1903.3333333333333</ele><time>2026-05-03T08:56:05.943Z</time></trkpt><trkpt lat="46.47405039285307" lon="9.351819877481912"><ele>1904.0</ele><time>2026-05-03T08:56:06.943Z</time></trkpt><trkpt lat="46.47423893362374" lon="9.35177924357953"><ele>1904.0</ele><time>2026-05-03T08:56:07.943Z</time></trkpt><trkpt lat="46.47440560832926" lon="9.351717289588859"><ele>1904.0</ele><time>2026-05-03T08:56:08.943Z</time></trkpt><trkpt lat="46.474572148827995" lon="9.351674333960881"><ele>1904.0</ele><time>2026-05-03T08:56:09.943Z</time></trkpt><trkpt lat="46.47474209097762" lon="9.351674329055097"><ele>1903.0</ele><time>2026-05-03T08:56:10.943Z</time></trkpt><trkpt lat="46.474923507426205" lon="9.35168621154764"><ele>1902.0</ele><time>2026-05-03T08:56:11.943Z</time></trkpt><trkpt lat="46.475110708476905" lon="9.351701409132792"><ele>1901.0</ele><time>2026-05-03T08:56:12.943Z</time></trkpt><trkpt lat="46.47528742289951" lon="9.351717623311577"><ele>1901.3333333333333</ele><time>2026-05-03T08:56:13.943Z</time></trkpt><trkpt lat="46.4754612446907" lon="9.35173696550702"><ele>1901.6666666666665</ele><time>2026-05-03T08:56:14.943Z</time></trkpt><trkpt lat="46.47564309487251" lon="9.351761090744562"><ele>1902.0</ele><time>2026-05-03T08:56:15.943Z</time></trkpt><trkpt lat="46.475829768728154" lon="9.351802093613305"><ele>1902.0</ele><time>2026-05-03T08:56:16.943Z</time></trkpt><trkpt lat="46.476015742684396" lon="9.3518393950017"><ele>1902.0</ele><time>2026-05-03T08:56:17.943Z</time></trkpt><trkpt lat="46.47620392970991" lon="9.351885652193072"><ele>1902.0</ele><time>2026-05-03T08:56:18.943Z</time></trkpt><trkpt lat="46.476379457073506" lon="9.351969297256911"><ele>1899.6666666666665</ele><time>2026-05-03T08:56:19.943Z</time></trkpt><trkpt lat="46.476543510800695" lon="9.352092730218345"><ele>1897.3333333333333</ele><time>2026-05-03T08:56:20.943Z</time></trkpt><trkpt lat="46.47671319711091" lon="9.352205889104177"><ele>1895.0</ele><time>2026-05-03T08:56:21.943Z</time></trkpt><trkpt lat="46.47689130429895" lon="9.35226369851045"><ele>1897.6666666666665</ele><time>2026-05-03T08:56:22.943Z</time></trkpt><trkpt lat="46.4770766872526" lon="9.352304244328007"><ele>1900.3333333333335</ele><time>2026-05-03T08:56:23.943Z</time></trkpt><trkpt lat="46.47725675494705" lon="9.352340112880903"><ele>1903.0</ele><time>2026-05-03T08:56:24.943Z</time></trkpt><trkpt lat="46.47743293047979" lon="9.35238676631575"><ele>1903.0</ele><time>2026-05-03T08:56:25.943Z</time></trkpt><trkpt lat="46.47760840527839" lon="9.352436377963752"><ele>1903.0</ele><time>2026-05-03T08:56:26.943Z</time></trkpt><trkpt lat="46.477750945270685" lon="9.352536328041445"><ele>1903.0</ele><time>2026-05-03T08:56:27.943Z</time></trkpt><trkpt lat="46.477878677449766" lon="9.352650919268566"><ele>1905.0</ele><time>2026-05-03T08:56:28.943Z</time></trkpt><trkpt lat="46.47799832228722" lon="9.352797705026543"><ele>1907.0</ele><time>2026-05-03T08:56:29.943Z</time></trkpt><trkpt lat="46.47813814373011" lon="9.352972001179467"><ele>1909.0</ele><time>2026-05-03T08:56:30.943Z</time></trkpt><trkpt lat="46.47828637411888" lon="9.353112050412205"><ele>1909.0</ele><time>2026-05-03T08:56:31.943Z</time></trkpt><trkpt lat="46.478433779372644" lon="9.35325900675218"><ele>1909.0</ele><time>2026-05-03T08:56:32.943Z</time></trkpt><trkpt lat="46.47860759178241" lon="9.353375992070681"><ele>1909.0</ele><time>2026-05-03T08:56:33.943Z</time></trkpt><trkpt lat="46.47878123573702" lon="9.353480853234469"><ele>1905.3333333333335</ele><time>2026-05-03T08:56:34.943Z</time></trkpt><trkpt lat="46.4789532767952" lon="9.35358257991798"><ele>1901.6666666666665</ele><time>2026-05-03T08:56:35.943Z</time></trkpt><trkpt lat="46.47912132774864" lon="9.353681139346588"><ele>1898.0</ele><time>2026-05-03T08:56:36.943Z</time></trkpt><trkpt lat="46.47929224853912" lon="9.353766986580368"><ele>1898.0</ele><time>2026-05-03T08:56:37.943Z</time></trkpt><trkpt lat="46.47947231930031" lon="9.353842218823042"><ele>1898.0</ele><time>2026-05-03T08:56:38.943Z</time></trkpt><trkpt lat="46.47966211874414" lon="9.353880883299315"><ele>1898.0</ele><time>2026-05-03T08:56:39.943Z</time></trkpt><trkpt lat="46.47986194586128" lon="9.353914416985488"><ele>1900.6666666666665</ele><time>2026-05-03T08:56:40.943Z</time></trkpt><trkpt lat="46.480036175894156" lon="9.353972220500154"><ele>1903.3333333333335</ele><time>2026-05-03T08:56:41.943Z</time></trkpt><trkpt lat="46.4802014817044" lon="9.354037878600957"><ele>1906.0</ele><time>2026-05-03T08:56:42.943Z</time></trkpt><trkpt lat="46.48035683234217" lon="9.354138107999823"><ele>1903.6666666666667</ele><time>2026-05-03T08:56:43.943Z</time></trkpt><trkpt lat="46.480507852637885" lon="9.35427433114393"><ele>1901.3333333333335</ele><time>2026-05-03T08:56:44.943Z</time></trkpt><trkpt lat="46.48065047460671" lon="9.354431169798405"><ele>1899.0</ele><time>2026-05-03T08:56:45.943Z</time></trkpt><trkpt lat="46.48075621298169" lon="9.354614186567698"><ele>1901.0</ele><time>2026-05-03T08:56:46.943Z</time></trkpt><trkpt lat="46.48085868729022" lon="9.35480760453516"><ele>1903.0</ele><time>2026-05-03T08:56:47.943Z</time></trkpt><trkpt lat="46.4809702292194" lon="9.35502604455081"><ele>1905.0</ele><time>2026-05-03T08:56:48.943Z</time></trkpt><trkpt lat="46.48109919345598" lon="9.355189076618105"><ele>1905.0</ele><time>2026-05-03T08:56:49.943Z</time></trkpt><trkpt lat="46.48124540357508" lon="9.355351287953054"><ele>1905.0</ele><time>2026-05-03T08:56:50.943Z</time></trkpt><trkpt lat="46.481420554418925" lon="9.355483799361188"><ele>1905.0</ele><time>2026-05-03T08:56:51.943Z</time></trkpt><trkpt lat="46.48158484325117" lon="9.355617227726706"><ele>1907.6666666666665</ele><time>2026-05-03T08:56:52.943Z</time></trkpt><trkpt lat="46.48175221118341" lon="9.355708695993473"><ele>1910.3333333333333</ele><time>2026-05-03T08:56:53.943Z</time></trkpt><trkpt lat="46.4819189223193" lon="9.35575269709396"><ele>1913.0</ele><time>2026-05-03T08:56:54.943Z</time></trkpt><trkpt lat="46.48207159192725" lon="9.355765815045284"><ele>1911.6666666666665</ele><time>2026-05-03T08:56:55.943Z</time></trkpt><trkpt lat="46.48222129719289" lon="9.355746211627244"><ele>1910.3333333333335</ele><time>2026-05-03T08:56:56.943Z</time></trkpt><trkpt lat="46.48238027564713" lon="9.355688429347595"><ele>1909.0</ele><time>2026-05-03T08:56:57.943Z</time></trkpt><trkpt lat="46.482516982488896" lon="9.35555176636799"><ele>1905.6666666666667</ele><time>2026-05-03T08:56:58.943Z</time></trkpt><trkpt lat="46.48266760637054" lon="9.355393621443305"><ele>1902.3333333333335</ele><time>2026-05-03T08:56:59.943Z</time></trkpt><trkpt lat="46.4828205346511" lon="9.355198384401431"><ele>1899.0</ele><time>2026-05-03T08:57:00.943Z</time></trkpt><trkpt lat="46.48296694966336" lon="9.354991459733506"><ele>1899.0</ele><time>2026-05-03T08:57:01.942Z</time></trkpt><trkpt lat="46.483131075314745" lon="9.354790778824876"><ele>1899.0</ele><time>2026-05-03T08:57:02.942Z</time></trkpt><trkpt lat="46.483295854339374" lon="9.35459060202938"><ele>1899.0</ele><time>2026-05-03T08:57:03.942Z</time></trkpt><trkpt lat="46.48345587916879" lon="9.354403915946069"><ele>1897.3333333333335</ele><time>2026-05-03T08:57:04.942Z</time></trkpt><trkpt lat="46.48360655173186" lon="9.354227956978768"><ele>1895.6666666666667</ele><time>2026-05-03T08:57:05.942Z</time></trkpt><trkpt lat="46.483759295775414" lon="9.354044720741312"><ele>1894.0</ele><time>2026-05-03T08:57:06.942Z</time></trkpt><trkpt lat="46.48390607398193" lon="9.353863385666822"><ele>1894.0</ele><time>2026-05-03T08:57:07.942Z</time></trkpt><trkpt lat="46.48404577022048" lon="9.353714821563297"><ele>1894.0</ele><time>2026-05-03T08:57:08.941Z</time></trkpt><trkpt lat="46.484181740778624" lon="9.353554505334422"><ele>1894.0</ele><time>2026-05-03T08:57:09.941Z</time></trkpt><trkpt lat="46.48430255305876" lon="9.353404525689715"><ele>1894.0</ele><time>2026-05-03T08:57:10.942Z</time></trkpt><trkpt lat="46.48442178353421" lon="9.353257011081904"><ele>1894.0</ele><time>2026-05-03T08:57:11.941Z</time></trkpt><trkpt lat="46.4845463123272" lon="9.353080717579436"><ele>1894.0</ele><time>2026-05-03T08:57:12.941Z</time></trkpt><trkpt lat="46.484664968334364" lon="9.35291304478098"><ele>1894.0</ele><time>2026-05-03T08:57:13.942Z</time></trkpt><trkpt lat="46.48478221120615" lon="9.352750286802438"><ele>1894.0</ele><time>2026-05-03T08:57:14.942Z</time></trkpt><trkpt lat="46.48490687852851" lon="9.352582473434124"><ele>1894.0</ele><time>2026-05-03T08:57:15.942Z</time></trkpt><trkpt lat="46.48501880085582" lon="9.35240028728163"><ele>1894.0</ele><time>2026-05-03T08:57:16.942Z</time></trkpt><trkpt lat="46.48513027065433" lon="9.35224283899068"><ele>1894.0</ele><time>2026-05-03T08:57:17.942Z</time></trkpt><trkpt lat="46.48523404842322" lon="9.352095141675848"><ele>1894.0</ele><time>2026-05-03T08:57:18.942Z</time></trkpt><trkpt lat="46.48533784753206" lon="9.35194531452695"><ele>1894.0</ele><time>2026-05-03T08:57:19.942Z</time></trkpt><trkpt lat="46.48545251675458" lon="9.351784079221384"><ele>1894.3333333333335</ele><time>2026-05-03T08:57:20.942Z</time></trkpt><trkpt lat="46.48556425706289" lon="9.351625853603254"><ele>1894.6666666666665</ele><time>2026-05-03T08:57:21.942Z</time></trkpt><trkpt lat="46.48567867568162" lon="9.351454324217547"><ele>1895.0</ele><time>2026-05-03T08:57:22.942Z</time></trkpt><trkpt lat="46.48579762092017" lon="9.35130190148893"><ele>1895.0</ele><time>2026-05-03T08:57:23.942Z</time></trkpt><trkpt lat="46.48590040028652" lon="9.351145232527067"><ele>1895.0</ele><time>2026-05-03T08:57:24.942Z</time></trkpt><trkpt lat="46.48601146176575" lon="9.35098449537483"><ele>1895.0</ele><time>2026-05-03T08:57:25.942Z</time></trkpt><trkpt lat="46.48611348804728" lon="9.350841449228186"><ele>1895.0</ele><time>2026-05-03T08:57:26.942Z</time></trkpt><trkpt lat="46.48619884906539" lon="9.35071135141021"><ele>1896.5</ele><time>2026-05-03T08:57:27.942Z</time></trkpt><trkpt lat="46.48627328735553" lon="9.350579840041123"><ele>1898.0</ele><time>2026-05-03T08:57:28.942Z</time></trkpt><trkpt lat="46.48634342676392" lon="9.350450374117006"><ele>1899.5</ele><time>2026-05-03T08:57:29.942Z</time></trkpt><trkpt lat="46.48644123554411" lon="9.350336718259998"><ele>1901.0</ele><time>2026-05-03T08:57:30.942Z</time></trkpt><trkpt lat="46.4865100627583" lon="9.350205455204184"><ele>1901.0</ele><time>2026-05-03T08:57:31.942Z</time></trkpt><trkpt lat="46.48657081969208" lon="9.350084033360572"><ele>1901.0</ele><time>2026-05-03T08:57:32.942Z</time></trkpt><trkpt lat="46.4866226777771" lon="9.349972224343906"><ele>1901.0</ele><time>2026-05-03T08:57:33.942Z</time></trkpt><trkpt lat="46.48666436597018" lon="9.349872858289707"><ele>1901.0</ele><time>2026-05-03T08:57:34.942Z</time></trkpt><trkpt lat="46.48672360545834" lon="9.349735151066264"><ele>1901.0</ele><time>2026-05-03T08:57:36.942Z</time></trkpt><trkpt lat="46.486498319319864" lon="9.349659679548022"><ele>1900.9999999999998</ele><time>2026-05-03T08:57:42.942Z</time></trkpt><trkpt lat="46.4864349871123" lon="9.34969636838909"><ele>1901.0</ele><time>2026-05-03T08:57:43.942Z</time></trkpt><trkpt lat="46.48637660267154" lon="9.349753120189575"><ele>1901.0</ele><time>2026-05-03T08:57:44.942Z</time></trkpt><trkpt lat="46.48630354569839" lon="9.349883984836405"><ele>1901.0</ele><time>2026-05-03T08:57:46.942Z</time></trkpt><trkpt lat="46.486241445619264" lon="9.349927707571057"><ele>1900.9999999999998</ele><time>2026-05-03T08:57:47.942Z</time></trkpt><trkpt lat="46.48615499461356" lon="9.349969438879853"><ele>1901.0</ele><time>2026-05-03T08:57:48.942Z</time></trkpt><trkpt lat="46.48606371555198" lon="9.350000364991107"><ele>1900.3333333333333</ele><time>2026-05-03T08:57:49.942Z</time></trkpt><trkpt lat="46.48599263202838" lon="9.350018589618495"><ele>1899.6666666666665</ele><time>2026-05-03T08:57:50.942Z</time></trkpt><trkpt lat="46.48590918442862" lon="9.350093659910774"><ele>1899.0</ele><time>2026-05-03T08:57:52.942Z</time></trkpt><trkpt lat="46.48582570267015" lon="9.350080483419578"><ele>1898.3333333333335</ele><time>2026-05-03T08:57:56.942Z</time></trkpt><trkpt lat="46.48578413671552" lon="9.350010450053778"><ele>1897.6666666666667</ele><time>2026-05-03T08:57:58.942Z</time></trkpt><trkpt lat="46.485741921410096" lon="9.349884393567335"><ele>1897.0</ele><time>2026-05-03T08:58:00.942Z</time></trkpt><trkpt lat="46.48572920995684" lon="9.349791291214443"><ele>1897.0000000000002</ele><time>2026-05-03T08:58:01.942Z</time></trkpt><trkpt lat="46.485707385284876" lon="9.349697648980147"><ele>1897.0</ele><time>2026-05-03T08:58:02.942Z</time></trkpt><trkpt lat="46.48566978885842" lon="9.34960395698202"><ele>1897.0</ele><time>2026-05-03T08:58:04.942Z</time></trkpt><trkpt lat="46.485606100089626" lon="9.349590815477859"><ele>1897.0</ele><time>2026-05-03T08:58:41.942Z</time></trkpt><trkpt lat="46.485600417431925" lon="9.349681888842127"><ele>1897.0000000000002</ele><time>2026-05-03T08:58:59.942Z</time></trkpt><trkpt lat="46.48568286696094" lon="9.349759993120259"><ele>1897.0</ele><time>2026-05-03T09:13:41.945Z</time></trkpt><trkpt lat="46.48574701780308" lon="9.34986154707291"><ele>1897.0000000000002</ele><time>2026-05-03T09:13:43.945Z</time></trkpt><trkpt lat="46.48581340771147" lon="9.35000494008846"><ele>1897.0</ele><time>2026-05-03T09:13:45.945Z</time></trkpt><trkpt lat="46.48586409268045" lon="9.350078062581655"><ele>1897.0</ele><time>2026-05-03T09:13:47.945Z</time></trkpt><trkpt lat="46.48592779169492" lon="9.350070539223337"><ele>1897.0</ele><time>2026-05-03T09:13:49.945Z</time></trkpt><trkpt lat="46.48599088640863" lon="9.350015764464738"><ele>1897.0000000000002</ele><time>2026-05-03T09:13:51.945Z</time></trkpt><trkpt lat="46.486071823679495" lon="9.349953536068984"><ele>1897.0</ele><time>2026-05-03T09:13:53.945Z</time></trkpt><trkpt lat="46.48615980695856" lon="9.349930082344546"><ele>1897.0000000000002</ele><time>2026-05-03T09:13:55.945Z</time></trkpt><trkpt lat="46.486237517172604" lon="9.349899828834044"><ele>1897.0</ele><time>2026-05-03T09:13:57.945Z</time></trkpt><trkpt lat="46.48630589764009" lon="9.349844818384394"><ele>1897.0</ele><time>2026-05-03T09:13:59.945Z</time></trkpt><trkpt lat="46.48634994957779" lon="9.349724738051455"><ele>1897.0</ele><time>2026-05-03T09:14:02.945Z</time></trkpt><trkpt lat="46.4864103104558" lon="9.349647262879031"><ele>1897.0000000000002</ele><time>2026-05-03T09:14:05.945Z</time></trkpt><trkpt lat="46.48648287921994" lon="9.349656514947059"><ele>1897.0</ele><time>2026-05-03T09:14:07.945Z</time></trkpt><trkpt lat="46.48655819980809" lon="9.349648141426703"><ele>1897.6666666666667</ele><time>2026-05-03T09:14:09.945Z</time></trkpt><trkpt lat="46.4866068154022" lon="9.349713709253129"><ele>1898.3333333333335</ele><time>2026-05-03T09:14:13.945Z</time></trkpt><trkpt lat="46.486676974003444" lon="9.349700449783704"><ele>1899.0</ele><time>2026-05-03T09:15:21.945Z</time></trkpt><trkpt lat="46.486745079289534" lon="9.349612857268532"><ele>1899.6666666666665</ele><time>2026-05-03T09:15:23.945Z</time></trkpt><trkpt lat="46.486792321441214" lon="9.349506989035621"><ele>1900.3333333333333</ele><time>2026-05-03T09:15:24.945Z</time></trkpt><trkpt lat="46.48684873042648" lon="9.349356782473947"><ele>1901.0</ele><time>2026-05-03T09:15:25.945Z</time></trkpt><trkpt lat="46.486904583077155" lon="9.34920800699289"><ele>1901.25</ele><time>2026-05-03T09:15:26.945Z</time></trkpt><trkpt lat="46.48696003338646" lon="9.34906296664682"><ele>1901.5</ele><time>2026-05-03T09:15:27.945Z</time></trkpt><trkpt lat="46.48701789771242" lon="9.348912117580461"><ele>1901.75</ele><time>2026-05-03T09:15:28.945Z</time></trkpt><trkpt lat="46.487081481514444" lon="9.348752477416467"><ele>1902.0</ele><time>2026-05-03T09:15:29.945Z</time></trkpt><trkpt lat="46.487146918696666" lon="9.348593698047818"><ele>1902.5</ele><time>2026-05-03T09:15:30.945Z</time></trkpt><trkpt lat="46.4872215001771" lon="9.348413725108509"><ele>1903.0</ele><time>2026-05-03T09:15:31.945Z</time></trkpt><trkpt lat="46.4872878700499" lon="9.348235783365128"><ele>1903.5</ele><time>2026-05-03T09:15:32.945Z</time></trkpt><trkpt lat="46.48735039689204" lon="9.348062077442208"><ele>1904.0</ele><time>2026-05-03T09:15:33.945Z</time></trkpt><trkpt lat="46.48741615190153" lon="9.347882247415995"><ele>1904.0</ele><time>2026-05-03T09:15:34.945Z</time></trkpt><trkpt lat="46.487483117503125" lon="9.34769645351701"><ele>1904.0</ele><time>2026-05-03T09:15:35.945Z</time></trkpt><trkpt lat="46.48753429512997" lon="9.347487943025923"><ele>1904.0</ele><time>2026-05-03T09:15:36.945Z</time></trkpt><trkpt lat="46.48756994713516" lon="9.347257460104966"><ele>1904.6666666666665</ele><time>2026-05-03T09:15:37.945Z</time></trkpt><trkpt lat="46.48758368635114" lon="9.34700590012047"><ele>1905.3333333333335</ele><time>2026-05-03T09:15:38.945Z</time></trkpt><trkpt lat="46.487583628321154" lon="9.346736886565592"><ele>1906.0</ele><time>2026-05-03T09:15:39.945Z</time></trkpt><trkpt lat="46.487568519332505" lon="9.346472173302281"><ele>1906.0</ele><time>2026-05-03T09:15:40.945Z</time></trkpt><trkpt lat="46.48752491105588" lon="9.34620370097758"><ele>1906.0</ele><time>2026-05-03T09:15:41.945Z</time></trkpt><trkpt lat="46.487465686803425" lon="9.3459297540909"><ele>1906.0</ele><time>2026-05-03T09:15:42.945Z</time></trkpt><trkpt lat="46.487399135736915" lon="9.345657911110774"><ele>1906.3333333333335</ele><time>2026-05-03T09:15:43.945Z</time></trkpt><trkpt lat="46.48733841330765" lon="9.345413197111684"><ele>1906.6666666666665</ele><time>2026-05-03T09:15:44.945Z</time></trkpt><trkpt lat="46.48728838790551" lon="9.345186263048717"><ele>1907.0</ele><time>2026-05-03T09:15:45.945Z</time></trkpt><trkpt lat="46.487264565951165" lon="9.344974444852808"><ele>1907.0</ele><time>2026-05-03T09:15:46.945Z</time></trkpt><trkpt lat="46.48726509985361" lon="9.344761790356715"><ele>1907.0</ele><time>2026-05-03T09:15:47.945Z</time></trkpt><trkpt lat="46.48729866056674" lon="9.344550190644826"><ele>1907.0</ele><time>2026-05-03T09:15:48.945Z</time></trkpt><trkpt lat="46.487352628190955" lon="9.34433913762747"><ele>1906.3333333333333</ele><time>2026-05-03T09:15:49.945Z</time></trkpt><trkpt lat="46.48743706072505" lon="9.344135373434304"><ele>1905.6666666666665</ele><time>2026-05-03T09:15:50.945Z</time></trkpt><trkpt lat="46.48755314736204" lon="9.343959829283317"><ele>1905.0</ele><time>2026-05-03T09:15:51.945Z</time></trkpt><trkpt lat="46.48768377961286" lon="9.343771531314594"><ele>1907.3333333333335</ele><time>2026-05-03T09:15:52.945Z</time></trkpt><trkpt lat="46.48781621100717" lon="9.343567498157045"><ele>1909.6666666666667</ele><time>2026-05-03T09:15:53.945Z</time></trkpt><trkpt lat="46.48795382142867" lon="9.343367290377767"><ele>1912.0</ele><time>2026-05-03T09:15:54.945Z</time></trkpt><trkpt lat="46.48809599689202" lon="9.343165664598098"><ele>1907.3333333333335</ele><time>2026-05-03T09:15:55.945Z</time></trkpt><trkpt lat="46.488238102853416" lon="9.342963483274596"><ele>1902.6666666666665</ele><time>2026-05-03T09:15:56.945Z</time></trkpt><trkpt lat="46.48838036335325" lon="9.342760328518924"><ele>1898.0</ele><time>2026-05-03T09:15:57.945Z</time></trkpt><trkpt lat="46.48851434014601" lon="9.342568502271208"><ele>1898.0</ele><time>2026-05-03T09:15:58.945Z</time></trkpt><trkpt lat="46.488645067428784" lon="9.342385854639867"><ele>1898.0</ele><time>2026-05-03T09:15:59.945Z</time></trkpt><trkpt lat="46.48877867141994" lon="9.342201506948559"><ele>1898.0</ele><time>2026-05-03T09:16:00.945Z</time></trkpt><trkpt lat="46.488912504550264" lon="9.342010959888817"><ele>1901.6666666666665</ele><time>2026-05-03T09:16:01.945Z</time></trkpt><trkpt lat="46.489049004251456" lon="9.341817706309671"><ele>1905.3333333333335</ele><time>2026-05-03T09:16:02.945Z</time></trkpt><trkpt lat="46.489180442825045" lon="9.341603429749515"><ele>1909.0</ele><time>2026-05-03T09:16:03.945Z</time></trkpt><trkpt lat="46.489318183554786" lon="9.341393282358581"><ele>1906.3333333333335</ele><time>2026-05-03T09:16:04.945Z</time></trkpt><trkpt lat="46.489435069830286" lon="9.341157040979455"><ele>1903.6666666666665</ele><time>2026-05-03T09:16:05.946Z</time></trkpt><trkpt lat="46.489527063363106" lon="9.340887648483095"><ele>1901.0</ele><time>2026-05-03T09:16:06.946Z</time></trkpt><trkpt lat="46.48963690709575" lon="9.340637988765549"><ele>1906.0</ele><time>2026-05-03T09:16:07.946Z</time></trkpt><trkpt lat="46.489706103907636" lon="9.34035662951463"><ele>1911.0</ele><time>2026-05-03T09:16:08.945Z</time></trkpt><trkpt lat="46.48978004094044" lon="9.340091002943893"><ele>1916.0</ele><time>2026-05-03T09:16:09.945Z</time></trkpt><trkpt lat="46.489840656719835" lon="9.339856951724752"><ele>1914.0</ele><time>2026-05-03T09:16:10.945Z</time></trkpt><trkpt lat="46.48989463682152" lon="9.339656417409781"><ele>1912.0</ele><time>2026-05-03T09:16:11.945Z</time></trkpt><trkpt lat="46.48994436949423" lon="9.339464118692183"><ele>1910.0</ele><time>2026-05-03T09:16:12.945Z</time></trkpt><trkpt lat="46.489982879764504" lon="9.339286251645426"><ele>1908.0</ele><time>2026-05-03T09:16:13.945Z</time></trkpt><trkpt lat="46.48999214328154" lon="9.339112234429429"><ele>1908.0</ele><time>2026-05-03T09:16:14.945Z</time></trkpt><trkpt lat="46.4899868583742" lon="9.338939541250882"><ele>1908.0000000000002</ele><time>2026-05-03T09:16:15.945Z</time></trkpt><trkpt lat="46.489979359166306" lon="9.338779938910818"><ele>1908.0000000000002</ele><time>2026-05-03T09:16:16.945Z</time></trkpt><trkpt lat="46.4899504909401" lon="9.338628629012776"><ele>1908.0</ele><time>2026-05-03T09:16:17.945Z</time></trkpt><trkpt lat="46.4899089913013" lon="9.338493043403838"><ele>1908.0</ele><time>2026-05-03T09:16:18.945Z</time></trkpt><trkpt lat="46.48986010995076" lon="9.338371555850305"><ele>1907.6666666666667</ele><time>2026-05-03T09:16:19.945Z</time></trkpt><trkpt lat="46.489800615626464" lon="9.338255219766252"><ele>1907.3333333333335</ele><time>2026-05-03T09:16:20.945Z</time></trkpt><trkpt lat="46.48973574901225" lon="9.338145906093116"><ele>1907.0</ele><time>2026-05-03T09:16:21.945Z</time></trkpt><trkpt lat="46.489684074793665" lon="9.338061760532858"><ele>1906.6666666666667</ele><time>2026-05-03T09:16:22.945Z</time></trkpt><trkpt lat="46.489633179642446" lon="9.337982693076807"><ele>1906.3333333333335</ele><time>2026-05-03T09:16:23.945Z</time></trkpt><trkpt lat="46.48957770388508" lon="9.337899689808529"><ele>1906.0</ele><time>2026-05-03T09:16:24.945Z</time></trkpt><trkpt lat="46.48952180531103" lon="9.337815157393534"><ele>1906.0000000000002</ele><time>2026-05-03T09:16:25.945Z</time></trkpt><trkpt lat="46.48946825240162" lon="9.337734024319348"><ele>1906.0</ele><time>2026-05-03T09:16:26.945Z</time></trkpt><trkpt lat="46.489404011760676" lon="9.337666230155214"><ele>1906.0</ele><time>2026-05-03T09:16:27.945Z</time></trkpt><trkpt lat="46.48935888353264" lon="9.337563531747447"><ele>1906.0</ele><time>2026-05-03T09:16:28.945Z</time></trkpt><trkpt lat="46.48933210514929" lon="9.337462884943289"><ele>1906.0000000000002</ele><time>2026-05-03T09:16:29.945Z</time></trkpt><trkpt lat="46.48931859583561" lon="9.337291563498175"><ele>1906.0</ele><time>2026-05-03T09:16:31.945Z</time></trkpt><trkpt lat="46.48934027669625" lon="9.337160062234473"><ele>1906.3333333333335</ele><time>2026-05-03T09:16:33.945Z</time></trkpt><trkpt lat="46.48938159275337" lon="9.337049166613575"><ele>1906.6666666666667</ele><time>2026-05-03T09:16:35.945Z</time></trkpt><trkpt lat="46.48941759915477" lon="9.336948024574358"><ele>1907.0</ele><time>2026-05-03T09:16:38.945Z</time></trkpt><trkpt lat="46.48941238380054" lon="9.337042726040066"><ele>1907.3333333333335</ele><time>2026-05-03T09:19:30.946Z</time></trkpt><trkpt lat="46.4894564127202" lon="9.337109902301503"><ele>1907.6666666666667</ele><time>2026-05-03T09:19:43.946Z</time></trkpt><trkpt lat="46.48938683732903" lon="9.337021861113541"><ele>1908.0</ele><time>2026-05-03T09:21:23.956Z</time></trkpt><trkpt lat="46.489440284936784" lon="9.337127387957818"><ele>1908.0</ele><time>2026-05-03T09:39:04.961Z</time></trkpt><trkpt lat="46.4894263649842" lon="9.33703635534321"><ele>1907.9999999999998</ele><time>2026-05-03T09:50:03.957Z</time></trkpt><trkpt lat="46.489433329543495" lon="9.337134802912768"><ele>1908.0</ele><time>2026-05-03T10:00:17.963Z</time></trkpt><trkpt lat="46.48939175987259" lon="9.337057046154618"><ele>1908.0</ele><time>2026-05-03T10:00:31.963Z</time></trkpt><trkpt lat="46.489345338752955" lon="9.336980639936783"><ele>1907.9999999999998</ele><time>2026-05-03T10:00:42.963Z</time></trkpt><trkpt lat="46.48941346114488" lon="9.336968246036696"><ele>1908.0</ele><time>2026-05-03T10:16:01Z</time></trkpt><trkpt lat="46.48946308278537" lon="9.336908366027206"><ele>1908.0</ele><time>2026-05-03T10:16:02Z</time></trkpt><trkpt lat="46.48952512339595" lon="9.336794064833558"><ele>1908.0</ele><time>2026-05-03T10:16:03Z</time></trkpt><trkpt lat="46.4895819080499" lon="9.336657009771168"><ele>1908.0000000000002</ele><time>2026-05-03T10:16:04Z</time></trkpt><trkpt lat="46.489637461343975" lon="9.336521081812204"><ele>1908.0000000000002</ele><time>2026-05-03T10:16:05Z</time></trkpt><trkpt lat="46.48969186539393" lon="9.336387661528796"><ele>1908.0</ele><time>2026-05-03T10:16:06Z</time></trkpt><trkpt lat="46.489753307800314" lon="9.336240712989152"><ele>1908.0</ele><time>2026-05-03T10:16:07Z</time></trkpt><trkpt lat="46.489822485464316" lon="9.33609473175871"><ele>1909.75</ele><time>2026-05-03T10:16:08Z</time></trkpt><trkpt lat="46.4898978002016" lon="9.335925101273782"><ele>1911.5</ele><time>2026-05-03T10:16:09Z</time></trkpt><trkpt lat="46.48996817496744" lon="9.335744042151225"><ele>1913.25</ele><time>2026-05-03T10:16:10Z</time></trkpt><trkpt lat="46.490038561955544" lon="9.33556695255462"><ele>1915.0</ele><time>2026-05-03T10:16:11Z</time></trkpt><trkpt lat="46.49011592090955" lon="9.335393227434212"><ele>1915.25</ele><time>2026-05-03T10:16:12Z</time></trkpt><trkpt lat="46.490186299181474" lon="9.335210695543566"><ele>1915.5</ele><time>2026-05-03T10:16:13Z</time></trkpt><trkpt lat="46.49023713430951" lon="9.335011135050703"><ele>1915.75</ele><time>2026-05-03T10:16:14Z</time></trkpt><trkpt lat="46.49028501091766" lon="9.334819833920985"><ele>1916.0</ele><time>2026-05-03T10:16:15Z</time></trkpt><trkpt lat="46.49033393282082" lon="9.334661608535013"><ele>1917.8</ele><time>2026-05-03T10:16:16Z</time></trkpt><trkpt lat="46.490377594307205" lon="9.334547184061556"><ele>1919.6</ele><time>2026-05-03T10:16:17Z</time></trkpt><trkpt lat="46.49041294903336" lon="9.334469113410547"><ele>1921.4</ele><time>2026-05-03T10:16:18Z</time></trkpt><trkpt lat="46.49049384749065" lon="9.334458455588983"><ele>1923.2</ele><time>2026-05-03T10:16:20Z</time></trkpt><trkpt lat="46.49047420972863" lon="9.334654674538637"><ele>1925.0</ele><time>2026-05-03T10:16:22Z</time></trkpt><trkpt lat="46.49047735947142" lon="9.334818162185414"><ele>1927.25</ele><time>2026-05-03T10:16:23Z</time></trkpt><trkpt lat="46.49049150961089" lon="9.335041636969422"><ele>1929.5</ele><time>2026-05-03T10:16:24Z</time></trkpt><trkpt lat="46.49050223115149" lon="9.335241389630276"><ele>1931.75</ele><time>2026-05-03T10:16:25Z</time></trkpt><trkpt lat="46.49050822706042" lon="9.335392246228743"><ele>1934.0</ele><time>2026-05-03T10:16:26Z</time></trkpt><trkpt lat="46.49051629221744" lon="9.335494309178417"><ele>1934.0</ele><time>2026-05-03T10:16:27Z</time></trkpt><trkpt lat="46.4905982002478" lon="9.335592825824184"><ele>1934.0</ele><time>2026-05-03T10:16:29Z</time></trkpt><trkpt lat="46.490676385452026" lon="9.335410586061476"><ele>1934.0</ele><time>2026-05-03T10:16:31Z</time></trkpt><trkpt lat="46.49066091570232" lon="9.335255107018124"><ele>1934.0</ele><time>2026-05-03T10:16:32Z</time></trkpt><trkpt lat="46.49065250072327" lon="9.335099473431512"><ele>1934.0</ele><time>2026-05-03T10:16:33Z</time></trkpt><trkpt lat="46.49068004371457" lon="9.334937395791753"><ele>1934.0</ele><time>2026-05-03T10:16:34Z</time></trkpt><trkpt lat="46.49074635427391" lon="9.334787253623732"><ele>1934.0</ele><time>2026-05-03T10:16:35Z</time></trkpt><trkpt lat="46.49084633350941" lon="9.334644954122076"><ele>1934.0</ele><time>2026-05-03T10:16:36Z</time></trkpt><trkpt lat="46.49094762416635" lon="9.33448051173041"><ele>1934.0</ele><time>2026-05-03T10:16:37Z</time></trkpt><trkpt lat="46.491021750398914" lon="9.33427684964973"><ele>1934.0</ele><time>2026-05-03T10:16:38Z</time></trkpt><trkpt lat="46.49106773788601" lon="9.334073002311486"><ele>1934.0</ele><time>2026-05-03T10:16:39Z</time></trkpt><trkpt lat="46.49111162373034" lon="9.33388719040711"><ele>1934.0</ele><time>2026-05-03T10:16:40Z</time></trkpt><trkpt lat="46.49116708654105" lon="9.33371819268251"><ele>1934.75</ele><time>2026-05-03T10:16:41Z</time></trkpt><trkpt lat="46.49124343711611" lon="9.333570929300995"><ele>1935.5</ele><time>2026-05-03T10:16:42Z</time></trkpt><trkpt lat="46.49133062197076" lon="9.33342899038356"><ele>1936.25</ele><time>2026-05-03T10:16:43Z</time></trkpt><trkpt lat="46.49141669584551" lon="9.33328043805127"><ele>1937.0</ele><time>2026-05-03T10:16:44Z</time></trkpt><trkpt lat="46.49150762018818" lon="9.333126215835925"><ele>1940.75</ele><time>2026-05-03T10:16:45Z</time></trkpt><trkpt lat="46.491599965062576" lon="9.33296740938535"><ele>1944.5</ele><time>2026-05-03T10:16:46Z</time></trkpt><trkpt lat="46.49169580529653" lon="9.332800450458903"><ele>1948.25</ele><time>2026-05-03T10:16:47Z</time></trkpt><trkpt lat="46.49179481630699" lon="9.332629079205272"><ele>1952.0</ele><time>2026-05-03T10:16:48Z</time></trkpt><trkpt lat="46.49189225759057" lon="9.332456361225649"><ele>1952.0</ele><time>2026-05-03T10:16:49Z</time></trkpt><trkpt lat="46.49199312000407" lon="9.332282387515034"><ele>1952.0</ele><time>2026-05-03T10:16:50Z</time></trkpt><trkpt lat="46.49208611718363" lon="9.332119426579332"><ele>1952.0</ele><time>2026-05-03T10:16:51Z</time></trkpt><trkpt lat="46.4921656794968" lon="9.33197994511157"><ele>1952.0</ele><time>2026-05-03T10:16:52Z</time></trkpt><trkpt lat="46.492229011863955" lon="9.331867537609956"><ele>1954.0</ele><time>2026-05-03T10:16:53Z</time></trkpt><trkpt lat="46.49229025903087" lon="9.331787527764513"><ele>1955.9999999999998</ele><time>2026-05-03T10:16:54Z</time></trkpt><trkpt lat="46.49235726499605" lon="9.331753720108452"><ele>1957.9999999999998</ele><time>2026-05-03T10:16:55Z</time></trkpt><trkpt lat="46.49243043331042" lon="9.331773047386871"><ele>1960.0</ele><time>2026-05-03T10:16:56Z</time></trkpt><trkpt lat="46.492496143292925" lon="9.331885380224396"><ele>1962.0</ele><time>2026-05-03T10:16:57Z</time></trkpt><trkpt lat="46.492461424829976" lon="9.332071215648057"><ele>1962.0</ele><time>2026-05-03T10:16:58Z</time></trkpt><trkpt lat="46.49244910239932" lon="9.33220015347669"><ele>1961.9999999999998</ele><time>2026-05-03T10:16:59Z</time></trkpt><trkpt lat="46.49251121968741" lon="9.332329272269265"><ele>1961.9999999999998</ele><time>2026-05-03T10:17:01.001Z</time></trkpt><trkpt lat="46.49257729883533" lon="9.332327803403627"><ele>1962.0</ele><time>2026-05-03T10:17:02.001Z</time></trkpt><trkpt lat="46.49263508886813" lon="9.332235677493891"><ele>1962.0</ele><time>2026-05-03T10:17:03.001Z</time></trkpt><trkpt lat="46.49266923791223" lon="9.332076089245538"><ele>1962.0</ele><time>2026-05-03T10:17:04.001Z</time></trkpt><trkpt lat="46.49271837435374" lon="9.33191405067689"><ele>1962.0</ele><time>2026-05-03T10:17:05.001Z</time></trkpt><trkpt lat="46.49277747963928" lon="9.331747736672062"><ele>1962.0</ele><time>2026-05-03T10:17:06.001Z</time></trkpt><trkpt lat="46.492853380234784" lon="9.331565449386714"><ele>1962.0</ele><time>2026-05-03T10:17:07.001Z</time></trkpt><trkpt lat="46.49294128635453" lon="9.331402944652654"><ele>1966.3333333333335</ele><time>2026-05-03T10:17:08.001Z</time></trkpt><trkpt lat="46.49305426845292" lon="9.331254716275831"><ele>1970.6666666666667</ele><time>2026-05-03T10:17:09.001Z</time></trkpt><trkpt lat="46.49319060612055" lon="9.331124554510403"><ele>1975.0</ele><time>2026-05-03T10:17:10.001Z</time></trkpt><trkpt lat="46.493338724948494" lon="9.330996599674553"><ele>1975.0</ele><time>2026-05-03T10:17:11.001Z</time></trkpt><trkpt lat="46.4934936125702" lon="9.330882530509232"><ele>1975.0</ele><time>2026-05-03T10:17:12.001Z</time></trkpt><trkpt lat="46.49365722207899" lon="9.330773992586147"><ele>1975.0</ele><time>2026-05-03T10:17:13.001Z</time></trkpt><trkpt lat="46.49382419958183" lon="9.330681610141035"><ele>1978.0</ele><time>2026-05-03T10:17:14.001Z</time></trkpt><trkpt lat="46.49398451447731" lon="9.330664901668074"><ele>1981.0</ele><time>2026-05-03T10:17:15.001Z</time></trkpt><trkpt lat="46.49410461316984" lon="9.33061262996501"><ele>1984.0</ele><time>2026-05-03T10:17:16.001Z</time></trkpt><trkpt lat="46.49419300049591" lon="9.330587741140818"><ele>1987.0</ele><time>2026-05-03T10:17:17.001Z</time></trkpt><trkpt lat="46.494290766675235" lon="9.33064569040696"><ele>1987.0</ele><time>2026-05-03T10:17:19.001Z</time></trkpt><trkpt lat="46.494277587179475" lon="9.330747759040708"><ele>1986.9999999999998</ele><time>2026-05-03T10:17:20.001Z</time></trkpt><trkpt lat="46.49419658037357" lon="9.330824027368703"><ele>1986.9999999999998</ele><time>2026-05-03T10:17:21.001Z</time></trkpt><trkpt lat="46.49412152668155" lon="9.330963667345202"><ele>1987.0</ele><time>2026-05-03T10:17:22.001Z</time></trkpt><trkpt lat="46.49403615683856" lon="9.331140737818915"><ele>1987.0</ele><time>2026-05-03T10:17:23.001Z</time></trkpt><trkpt lat="46.49396348733916" lon="9.331300972330851"><ele>1986.3999999999999</ele><time>2026-05-03T10:17:24.001Z</time></trkpt><trkpt lat="46.493881021083375" lon="9.33144210379787"><ele>1985.7999999999997</ele><time>2026-05-03T10:17:25.001Z</time></trkpt><trkpt lat="46.49379869962026" lon="9.331557115797803"><ele>1985.2</ele><time>2026-05-03T10:17:26.001Z</time></trkpt><trkpt lat="46.49373027934686" lon="9.331650251304547"><ele>1984.6</ele><time>2026-05-03T10:17:27.001Z</time></trkpt><trkpt lat="46.49369482758347" lon="9.331768682788347"><ele>1984.0</ele><time>2026-05-03T10:17:29Z</time></trkpt><trkpt lat="46.49379468425496" lon="9.331817827631667"><ele>1988.25</ele><time>2026-05-03T10:17:31Z</time></trkpt><trkpt lat="46.49387334433379" lon="9.331740726964139"><ele>1992.5</ele><time>2026-05-03T10:17:32Z</time></trkpt><trkpt lat="46.4939583191355" lon="9.331615851058402"><ele>1996.75</ele><time>2026-05-03T10:17:33Z</time></trkpt><trkpt lat="46.49405444863529" lon="9.331487379140617"><ele>2001.0</ele><time>2026-05-03T10:17:34Z</time></trkpt><trkpt lat="46.49419038779506" lon="9.331409269515158"><ele>2001.0</ele><time>2026-05-03T10:17:35Z</time></trkpt><trkpt lat="46.494326288118195" lon="9.331382015547135"><ele>2001.0</ele><time>2026-05-03T10:17:36Z</time></trkpt><trkpt lat="46.49448170971715" lon="9.331368930604274"><ele>2001.0</ele><time>2026-05-03T10:17:37Z</time></trkpt><trkpt lat="46.494645430175126" lon="9.331336192670518"><ele>2001.0</ele><time>2026-05-03T10:17:38Z</time></trkpt><trkpt lat="46.494819346618925" lon="9.331335534387113"><ele>2001.0</ele><time>2026-05-03T10:17:39Z</time></trkpt><trkpt lat="46.495002386065536" lon="9.331322383603943"><ele>2001.0</ele><time>2026-05-03T10:17:40Z</time></trkpt><trkpt lat="46.49518545546995" lon="9.3313076473389"><ele>2001.0</ele><time>2026-05-03T10:17:41Z</time></trkpt><trkpt lat="46.49535815113852" lon="9.331295724269147"><ele>2001.0</ele><time>2026-05-03T10:17:42Z</time></trkpt><trkpt lat="46.49553178408934" lon="9.331292004270551"><ele>2001.0</ele><time>2026-05-03T10:17:43Z</time></trkpt><trkpt lat="46.49571018953866" lon="9.3312698698967"><ele>2004.0</ele><time>2026-05-03T10:17:44Z</time></trkpt><trkpt lat="46.49587689287501" lon="9.331202976911808"><ele>2007.0</ele><time>2026-05-03T10:17:45Z</time></trkpt><trkpt lat="46.49603291175202" lon="9.33109019878403"><ele>2010.0</ele><time>2026-05-03T10:17:46Z</time></trkpt><trkpt lat="46.49617721357747" lon="9.330935653768059"><ele>2014.2</ele><time>2026-05-03T10:17:47Z</time></trkpt><trkpt lat="46.49629784832062" lon="9.330801808441743"><ele>2018.4</ele><time>2026-05-03T10:17:48Z</time></trkpt><trkpt lat="46.49640414109188" lon="9.330697167594405"><ele>2022.6</ele><time>2026-05-03T10:17:49Z</time></trkpt><trkpt lat="46.49648583062966" lon="9.330614336969546"><ele>2026.8</ele><time>2026-05-03T10:17:50Z</time></trkpt><trkpt lat="46.49653782056931" lon="9.330559645443277"><ele>2031.0</ele><time>2026-05-03T10:17:51Z</time></trkpt><trkpt lat="46.496574215297194" lon="9.33064888008518"><ele>2031.0</ele><time>2026-05-03T10:17:53Z</time></trkpt><trkpt lat="46.49654620687692" lon="9.330738810401037"><ele>2031.0</ele><time>2026-05-03T10:17:54Z</time></trkpt><trkpt lat="46.49646487313887" lon="9.3308459181778"><ele>2031.0</ele><time>2026-05-03T10:17:55Z</time></trkpt><trkpt lat="46.49638742452785" lon="9.330980007832366"><ele>2031.0</ele><time>2026-05-03T10:17:56Z</time></trkpt><trkpt lat="46.496311203595525" lon="9.331116141476576"><ele>2031.0</ele><time>2026-05-03T10:17:57Z</time></trkpt><trkpt lat="46.49623479464252" lon="9.33123367279454"><ele>2030.1999999999998</ele><time>2026-05-03T10:17:58Z</time></trkpt><trkpt lat="46.496168376823306" lon="9.331308383572845"><ele>2029.3999999999999</ele><time>2026-05-03T10:17:59Z</time></trkpt><trkpt lat="46.49611480761884" lon="9.33136444023574"><ele>2028.6</ele><time>2026-05-03T10:18:00Z</time></trkpt><trkpt lat="46.49607532848548" lon="9.331501905343691"><ele>2027.8</ele><time>2026-05-03T10:18:02Z</time></trkpt><trkpt lat="46.496195517579025" lon="9.331511267814777"><ele>2027.0</ele><time>2026-05-03T10:18:04Z</time></trkpt><trkpt lat="46.49628002655341" lon="9.33140903400944"><ele>2028.0</ele><time>2026-05-03T10:18:05Z</time></trkpt><trkpt lat="46.496386943142795" lon="9.331299245834547"><ele>2029.0</ele><time>2026-05-03T10:18:06Z</time></trkpt><trkpt lat="46.49650641860551" lon="9.331162329085076"><ele>2030.0</ele><time>2026-05-03T10:18:07Z</time></trkpt><trkpt lat="46.496636834990824" lon="9.33101879905965"><ele>2031.0</ele><time>2026-05-03T10:18:08Z</time></trkpt><trkpt lat="46.496774280273165" lon="9.330850465427275"><ele>2031.0</ele><time>2026-05-03T10:18:09Z</time></trkpt><trkpt lat="46.496926269557896" lon="9.330715705865915"><ele>2031.0</ele><time>2026-05-03T10:18:10Z</time></trkpt><trkpt lat="46.49706597013815" lon="9.330575182924845"><ele>2031.0</ele><time>2026-05-03T10:18:11Z</time></trkpt><trkpt lat="46.497191903812684" lon="9.33046406626757"><ele>2032.5</ele><time>2026-05-03T10:18:12Z</time></trkpt><trkpt lat="46.49730486653872" lon="9.330368175403162"><ele>2034.0</ele><time>2026-05-03T10:18:13Z</time></trkpt><trkpt lat="46.49742934815329" lon="9.330318927782088"><ele>2035.5</ele><time>2026-05-03T10:18:14Z</time></trkpt><trkpt lat="46.49754386231703" lon="9.330251176236727"><ele>2037.0</ele><time>2026-05-03T10:18:15Z</time></trkpt><trkpt lat="46.49766041922091" lon="9.330210542135672"><ele>2037.0</ele><time>2026-05-03T10:18:16Z</time></trkpt><trkpt lat="46.497757172774634" lon="9.330175585227208"><ele>2037.0</ele><time>2026-05-03T10:18:17Z</time></trkpt><trkpt lat="46.49782683711311" lon="9.330149971768826"><ele>2037.0</ele><time>2026-05-03T10:18:18Z</time></trkpt><trkpt lat="46.49789077395841" lon="9.33014977343729"><ele>2037.0</ele><time>2026-05-03T10:18:20Z</time></trkpt><trkpt lat="46.49795600295303" lon="9.33011440752422"><ele>2037.0</ele><time>2026-05-03T10:18:23Z</time></trkpt><trkpt lat="46.49799797893164" lon="9.330195162923426"><ele>2037.0</ele><time>2026-05-03T10:18:26Z</time></trkpt><trkpt lat="46.49786795570625" lon="9.330270231923734"><ele>2037.0</ele><time>2026-05-03T10:18:28Z</time></trkpt><trkpt lat="46.49781170623169" lon="9.330339761507327"><ele>2037.0</ele><time>2026-05-03T10:18:29Z</time></trkpt><trkpt lat="46.49775268529053" lon="9.330383246240444"><ele>2037.0</ele><time>2026-05-03T10:18:30Z</time></trkpt><trkpt lat="46.497639716191735" lon="9.330439261929751"><ele>2037.0</ele><time>2026-05-03T10:18:32Z</time></trkpt><trkpt lat="46.4975882081006" lon="9.33056133252259"><ele>2037.0</ele><time>2026-05-03T10:18:34Z</time></trkpt><trkpt lat="46.49763402650668" lon="9.330676257259405"><ele>2037.0</ele><time>2026-05-03T10:18:36Z</time></trkpt><trkpt lat="46.49778756472042" lon="9.330621791981114"><ele>2037.0</ele><time>2026-05-03T10:18:38Z</time></trkpt><trkpt lat="46.49791085474398" lon="9.330522284297084"><ele>2037.0</ele><time>2026-05-03T10:18:39Z</time></trkpt><trkpt lat="46.49808238280976" lon="9.330450191715736"><ele>2037.0</ele><time>2026-05-03T10:18:40Z</time></trkpt><trkpt lat="46.498268954620066" lon="9.330381488782466"><ele>2041.0</ele><time>2026-05-03T10:18:41Z</time></trkpt><trkpt lat="46.49845877875483" lon="9.330320972714862"><ele>2045.0</ele><time>2026-05-03T10:18:42Z</time></trkpt><trkpt lat="46.498620662931465" lon="9.330266761979578"><ele>2049.0</ele><time>2026-05-03T10:18:43Z</time></trkpt><trkpt lat="46.49876497576872" lon="9.330212368761295"><ele>2052.0</ele><time>2026-05-03T10:18:44Z</time></trkpt><trkpt lat="46.498888804661426" lon="9.330165902263946"><ele>2055.0</ele><time>2026-05-03T10:18:45Z</time></trkpt><trkpt lat="46.49900862012192" lon="9.33012182791532"><ele>2058.0</ele><time>2026-05-03T10:18:46Z</time></trkpt><trkpt lat="46.49913135207272" lon="9.330080509514792"><ele>2061.0</ele><time>2026-05-03T10:18:47Z</time></trkpt><trkpt lat="46.49925963318689" lon="9.330046015765054"><ele>2061.0</ele><time>2026-05-03T10:18:48Z</time></trkpt><trkpt lat="46.49939483491728" lon="9.330012990510042"><ele>2061.0</ele><time>2026-05-03T10:18:49Z</time></trkpt><trkpt lat="46.499539965484594" lon="9.329973219180998"><ele>2061.0</ele><time>2026-05-03T10:18:50Z</time></trkpt><trkpt lat="46.499685854951444" lon="9.329952526461813"><ele>2061.0</ele><time>2026-05-03T10:18:51Z</time></trkpt><trkpt lat="46.49981944839213" lon="9.329927891733027"><ele>2063.0</ele><time>2026-05-03T10:18:52Z</time></trkpt><trkpt lat="46.49994680495868" lon="9.329900499117544"><ele>2065.0</ele><time>2026-05-03T10:18:53Z</time></trkpt><trkpt lat="46.50007539385108" lon="9.329872885900366"><ele>2067.0</ele><time>2026-05-03T10:18:54Z</time></trkpt><trkpt lat="46.500193983818214" lon="9.329836000707779"><ele>2069.0</ele><time>2026-05-03T10:18:55Z</time></trkpt><trkpt lat="46.5003493397345" lon="9.329761315745051"><ele>2070.6666666666665</ele><time>2026-05-03T10:18:56Z</time></trkpt><trkpt lat="46.50054836432149" lon="9.329690541226682"><ele>2072.3333333333335</ele><time>2026-05-03T10:18:57Z</time></trkpt><trkpt lat="46.500758870455606" lon="9.329589727548713"><ele>2074.0</ele><time>2026-05-03T10:18:58Z</time></trkpt><trkpt lat="46.50099805639881" lon="9.32948102171959"><ele>2074.0</ele><time>2026-05-03T10:18:59Z</time></trkpt><trkpt lat="46.50124797061439" lon="9.329351195273441"><ele>2074.0</ele><time>2026-05-03T10:19:00Z</time></trkpt><trkpt lat="46.50148973891675" lon="9.329231142135859"><ele>2075.0</ele><time>2026-05-03T10:19:01Z</time></trkpt><trkpt lat="46.50168801447189" lon="9.329134742197239"><ele>2076.0</ele><time>2026-05-03T10:19:02Z</time></trkpt><trkpt lat="46.501816234731116" lon="9.329061954401334"><ele>2077.0</ele><time>2026-05-03T10:19:03Z</time></trkpt><trkpt lat="46.50193504658568" lon="9.329011973805796"><ele>2077.0</ele><time>2026-05-03T10:19:04Z</time></trkpt><trkpt lat="46.50202906701798" lon="9.329073025610919"><ele>2077.0</ele><time>2026-05-03T10:19:05Z</time></trkpt><trkpt lat="46.50209585880463" lon="9.329175028997698"><ele>2077.0</ele><time>2026-05-03T10:19:06Z</time></trkpt><trkpt lat="46.50211999057026" lon="9.329371219073003"><ele>2077.0</ele><time>2026-05-03T10:19:07Z</time></trkpt><trkpt lat="46.5021942855916" lon="9.329578215709986"><ele>2077.5</ele><time>2026-05-03T10:19:08Z</time></trkpt><trkpt lat="46.50228302233397" lon="9.329772121484725"><ele>2078.0</ele><time>2026-05-03T10:19:09Z</time></trkpt><trkpt lat="46.50235735192808" lon="9.329931491033117"><ele>2078.5</ele><time>2026-05-03T10:19:10Z</time></trkpt><trkpt lat="46.5024413467559" lon="9.330039149456011"><ele>2079.0</ele><time>2026-05-03T10:19:11Z</time></trkpt><trkpt lat="46.5025415266447" lon="9.330082074089605"><ele>2079.0</ele><time>2026-05-03T10:19:12Z</time></trkpt><trkpt lat="46.50265295900531" lon="9.330070439834143"><ele>2079.0</ele><time>2026-05-03T10:19:13Z</time></trkpt><trkpt lat="46.50274888861871" lon="9.329971346156059"><ele>2079.0</ele><time>2026-05-03T10:19:14Z</time></trkpt><trkpt lat="46.50280442531786" lon="9.329819195511329"><ele>2079.0</ele><time>2026-05-03T10:19:15Z</time></trkpt><trkpt lat="46.502863017172444" lon="9.32970561374759"><ele>2079.0</ele><time>2026-05-03T10:19:16Z</time></trkpt><trkpt lat="46.502943849883955" lon="9.329707000647428"><ele>2084.75</ele><time>2026-05-03T10:19:17Z</time></trkpt><trkpt lat="46.503035293050814" lon="9.329822918061161"><ele>2090.5</ele><time>2026-05-03T10:19:18Z</time></trkpt><trkpt lat="46.5031244762785" lon="9.32994328943426"><ele>2096.25</ele><time>2026-05-03T10:19:19Z</time></trkpt><trkpt lat="46.50321574821348" lon="9.330065134045276"><ele>2102.0</ele><time>2026-05-03T10:19:20Z</time></trkpt><trkpt lat="46.50330173150052" lon="9.33017554530458"><ele>2102.0</ele><time>2026-05-03T10:19:21Z</time></trkpt><trkpt lat="46.50338919603478" lon="9.33029331960702"><ele>2102.0</ele><time>2026-05-03T10:19:22Z</time></trkpt><trkpt lat="46.50346891770769" lon="9.330397850901052"><ele>2102.0</ele><time>2026-05-03T10:19:23Z</time></trkpt><trkpt lat="46.50352051553336" lon="9.330500396854058"><ele>2102.0</ele><time>2026-05-03T10:19:24Z</time></trkpt><trkpt lat="46.503588421717" lon="9.330568739230593"><ele>2102.0</ele><time>2026-05-03T10:19:25Z</time></trkpt><trkpt lat="46.50364236330977" lon="9.330633742201318"><ele>2102.5</ele><time>2026-05-03T10:19:26Z</time></trkpt><trkpt lat="46.50367990502906" lon="9.330713010702087"><ele>2103.0</ele><time>2026-05-03T10:19:27Z</time></trkpt><trkpt lat="46.503742550132486" lon="9.330765773506865"><ele>2103.5</ele><time>2026-05-03T10:19:28Z</time></trkpt><trkpt lat="46.50380796775448" lon="9.330798037243918"><ele>2104.0</ele><time>2026-05-03T10:19:29Z</time></trkpt><trkpt lat="46.50389264655989" lon="9.330814639516348"><ele>2104.5</ele><time>2026-05-03T10:19:30Z</time></trkpt><trkpt lat="46.50398229785019" lon="9.330807838957517"><ele>2105.0</ele><time>2026-05-03T10:19:31Z</time></trkpt><trkpt lat="46.50408494170154" lon="9.33077722800195"><ele>2105.0</ele><time>2026-05-03T10:19:32Z</time></trkpt><trkpt lat="46.504172972579916" lon="9.330734815108945"><ele>2105.0</ele><time>2026-05-03T10:19:33Z</time></trkpt><trkpt lat="46.50426928865305" lon="9.330686405653719"><ele>2105.0</ele><time>2026-05-03T10:19:34Z</time></trkpt><trkpt lat="46.50435516919354" lon="9.330635689440221"><ele>2105.0</ele><time>2026-05-03T10:19:35Z</time></trkpt><trkpt lat="46.5044284164132" lon="9.330588024724918"><ele>2105.0</ele><time>2026-05-03T10:19:36Z</time></trkpt><trkpt lat="46.50449206152697" lon="9.330552760070455"><ele>2105.0</ele><time>2026-05-03T10:19:37Z</time></trkpt><trkpt lat="46.50460188509584" lon="9.3304876690995"><ele>2107.0</ele><time>2026-05-03T10:19:39Z</time></trkpt><trkpt lat="46.504669295533304" lon="9.330455771098315"><ele>2109.0</ele><time>2026-05-03T10:19:40Z</time></trkpt><trkpt lat="46.504764934568016" lon="9.330445246739446"><ele>2111.0</ele><time>2026-05-03T10:19:42Z</time></trkpt><trkpt lat="46.50486014319906" lon="9.330459645118333"><ele>2113.0</ele><time>2026-05-03T10:19:44Z</time></trkpt><trkpt lat="46.50492321001207" lon="9.330469568072573"><ele>2115.0</ele><time>2026-05-03T10:19:46Z</time></trkpt><trkpt lat="46.50501946119483" lon="9.330473143523317"><ele>2117.0</ele><time>2026-05-03T10:19:49Z</time></trkpt><trkpt lat="46.505113029686434" lon="9.330475102346558"><ele>2117.0</ele><time>2026-05-03T10:19:53Z</time></trkpt><trkpt lat="46.505210724112096" lon="9.330482288902338"><ele>2117.0</ele><time>2026-05-03T10:19:55Z</time></trkpt><trkpt lat="46.50528673307409" lon="9.330481063841097"><ele>2117.0</ele><time>2026-05-03T10:19:57Z</time></trkpt><trkpt lat="46.50536007196793" lon="9.33044424225961"><ele>2117.0</ele><time>2026-05-03T10:20:00Z</time></trkpt><trkpt lat="46.505436712861716" lon="9.330429576333731"><ele>2117.0</ele><time>2026-05-03T10:20:19Z</time></trkpt><trkpt lat="46.50552574754181" lon="9.330271169106966"><ele>2117.0</ele><time>2026-05-03T10:21:00Z</time></trkpt><trkpt lat="46.50546962024575" lon="9.330317421800542"><ele>2117.0</ele><time>2026-05-03T10:21:34Z</time></trkpt><trkpt lat="46.50560591505324" lon="9.330347686690713"><ele>2117.0</ele><time>2026-05-03T10:24:04Z</time></trkpt><trkpt lat="46.50573368859485" lon="9.330301176556057"><ele>2117.0</ele><time>2026-05-03T10:24:05Z</time></trkpt><trkpt lat="46.505843538821026" lon="9.330235038445869"><ele>2117.0</ele><time>2026-05-03T10:24:06Z</time></trkpt><trkpt lat="46.50594679061699" lon="9.330178705408283"><ele>2117.0</ele><time>2026-05-03T10:24:07Z</time></trkpt><trkpt lat="46.50606339306139" lon="9.330202494548976"><ele>2117.0</ele><time>2026-05-03T10:24:08Z</time></trkpt><trkpt lat="46.50618433646018" lon="9.330230405023418"><ele>2117.0</ele><time>2026-05-03T10:24:09Z</time></trkpt><trkpt lat="46.50630873594824" lon="9.330262300656834"><ele>2115.5</ele><time>2026-05-03T10:24:10Z</time></trkpt><trkpt lat="46.50642088622476" lon="9.33028006032497"><ele>2114.0</ele><time>2026-05-03T10:24:11Z</time></trkpt><trkpt lat="46.506535041555296" lon="9.330241631081405"><ele>2112.5</ele><time>2026-05-03T10:24:12Z</time></trkpt><trkpt lat="46.50665173474487" lon="9.330197932515105"><ele>2111.0</ele><time>2026-05-03T10:24:13Z</time></trkpt><trkpt lat="46.506787633664366" lon="9.330124899015999"><ele>2111.0</ele><time>2026-05-03T10:24:14Z</time></trkpt><trkpt lat="46.50691242155535" lon="9.330050801532314"><ele>2111.0</ele><time>2026-05-03T10:24:15Z</time></trkpt><trkpt lat="46.50703363197694" lon="9.329985217726366"><ele>2111.0</ele><time>2026-05-03T10:24:16Z</time></trkpt><trkpt lat="46.50715006286633" lon="9.329916502576399"><ele>2111.0</ele><time>2026-05-03T10:24:17Z</time></trkpt><trkpt lat="46.507268683425494" lon="9.329849013274831"><ele>2111.0</ele><time>2026-05-03T10:24:18Z</time></trkpt><trkpt lat="46.50739614320154" lon="9.329780252357148"><ele>2111.0</ele><time>2026-05-03T10:24:19Z</time></trkpt><trkpt lat="46.507532497344606" lon="9.329707312609848"><ele>2111.0</ele><time>2026-05-03T10:24:20Z</time></trkpt><trkpt lat="46.50767346940408" lon="9.329632948831959"><ele>2111.0</ele><time>2026-05-03T10:24:21Z</time></trkpt><trkpt lat="46.50781847232327" lon="9.329593395369578"><ele>2106.25</ele><time>2026-05-03T10:24:22Z</time></trkpt><trkpt lat="46.50796794674202" lon="9.32953003080554"><ele>2101.5</ele><time>2026-05-03T10:24:23Z</time></trkpt><trkpt lat="46.50810488908624" lon="9.32949757984342"><ele>2096.75</ele><time>2026-05-03T10:24:24Z</time></trkpt><trkpt lat="46.508232433441776" lon="9.329453560653727"><ele>2092.0</ele><time>2026-05-03T10:24:25Z</time></trkpt><trkpt lat="46.508357192806" lon="9.32938387089346"><ele>2092.0</ele><time>2026-05-03T10:24:26Z</time></trkpt><trkpt lat="46.50847934203079" lon="9.32929481822988"><ele>2092.0</ele><time>2026-05-03T10:24:27Z</time></trkpt><trkpt lat="46.50861411156341" lon="9.329199113319975"><ele>2092.0</ele><time>2026-05-03T10:24:28Z</time></trkpt><trkpt lat="46.50875320946348" lon="9.329109693770203"><ele>2092.0</ele><time>2026-05-03T10:24:29Z</time></trkpt><trkpt lat="46.50887183107881" lon="9.329038370480584"><ele>2088.7999999999997</ele><time>2026-05-03T10:24:30Z</time></trkpt><trkpt lat="46.5089618104134" lon="9.328973108037484"><ele>2085.6</ele><time>2026-05-03T10:24:31Z</time></trkpt><trkpt lat="46.50903172454286" lon="9.328886211141931"><ele>2082.3999999999996</ele><time>2026-05-03T10:24:32Z</time></trkpt><trkpt lat="46.50908298950479" lon="9.32877456103164"><ele>2079.2</ele><time>2026-05-03T10:24:33Z</time></trkpt><trkpt lat="46.509133755244335" lon="9.328658739329057"><ele>2076.0</ele><time>2026-05-03T10:24:34Z</time></trkpt><trkpt lat="46.50918676927416" lon="9.328542707728362"><ele>2076.0</ele><time>2026-05-03T10:24:35Z</time></trkpt><trkpt lat="46.5092424137536" lon="9.328424179351506"><ele>2076.0</ele><time>2026-05-03T10:24:36Z</time></trkpt><trkpt lat="46.50931321425633" lon="9.328287934593261"><ele>2076.0</ele><time>2026-05-03T10:24:37Z</time></trkpt><trkpt lat="46.50938826731534" lon="9.328141064997357"><ele>2076.0</ele><time>2026-05-03T10:24:38Z</time></trkpt><trkpt lat="46.50945317011183" lon="9.327988216548416"><ele>2079.0</ele><time>2026-05-03T10:24:39Z</time></trkpt><trkpt lat="46.50949807519509" lon="9.327836895256691"><ele>2082.0</ele><time>2026-05-03T10:24:40Z</time></trkpt><trkpt lat="46.50951050525564" lon="9.327670467492416"><ele>2085.0</ele><time>2026-05-03T10:24:41Z</time></trkpt><trkpt lat="46.50954367277973" lon="9.327501946008667"><ele>2088.0</ele><time>2026-05-03T10:24:42Z</time></trkpt><trkpt lat="46.50960674538263" lon="9.32736130793413"><ele>2084.75</ele><time>2026-05-03T10:24:43Z</time></trkpt><trkpt lat="46.509706994652554" lon="9.32725349815582"><ele>2081.5</ele><time>2026-05-03T10:24:44Z</time></trkpt><trkpt lat="46.50983667392414" lon="9.327162851829309"><ele>2078.25</ele><time>2026-05-03T10:24:45Z</time></trkpt><trkpt lat="46.509969590214396" lon="9.327075059615241"><ele>2075.0</ele><time>2026-05-03T10:24:46Z</time></trkpt><trkpt lat="46.510092197601274" lon="9.326989999527289"><ele>2075.0</ele><time>2026-05-03T10:24:47Z</time></trkpt><trkpt lat="46.51020356673738" lon="9.326890887297282"><ele>2075.0</ele><time>2026-05-03T10:24:48Z</time></trkpt><trkpt lat="46.510297004682606" lon="9.326780207482768"><ele>2075.0</ele><time>2026-05-03T10:24:49Z</time></trkpt><trkpt lat="46.51037941493462" lon="9.326649907266805"><ele>2075.0</ele><time>2026-05-03T10:24:50Z</time></trkpt><trkpt lat="46.51046259357022" lon="9.326524000863845"><ele>2070.8</ele><time>2026-05-03T10:24:51Z</time></trkpt><trkpt lat="46.51054140484202" lon="9.326420167463416"><ele>2066.6</ele><time>2026-05-03T10:24:52Z</time></trkpt><trkpt lat="46.51061659358392" lon="9.326319275044781"><ele>2062.4</ele><time>2026-05-03T10:24:53Z</time></trkpt><trkpt lat="46.51068844807023" lon="9.326217139790652"><ele>2058.2</ele><time>2026-05-03T10:24:54Z</time></trkpt><trkpt lat="46.51075134167648" lon="9.326131196554718"><ele>2054.0</ele><time>2026-05-03T10:24:55Z</time></trkpt><trkpt lat="46.51080051821021" lon="9.326038062082967"><ele>2054.0</ele><time>2026-05-03T10:24:56Z</time></trkpt><trkpt lat="46.51084401466733" lon="9.3259575790202"><ele>2054.0</ele><time>2026-05-03T10:24:57Z</time></trkpt><trkpt lat="46.510922267925345" lon="9.325829370602827"><ele>2054.0</ele><time>2026-05-03T10:24:59Z</time></trkpt><trkpt lat="46.51104304730442" lon="9.325798125571492"><ele>2054.0</ele><time>2026-05-03T10:25:01Z</time></trkpt><trkpt lat="46.51109317982955" lon="9.325883017713211"><ele>2054.0</ele><time>2026-05-03T10:25:02Z</time></trkpt><trkpt lat="46.51115860005973" lon="9.325948485775095"><ele>2054.0</ele><time>2026-05-03T10:25:03Z</time></trkpt><trkpt lat="46.51120861814885" lon="9.32603274012276"><ele>2054.0</ele><time>2026-05-03T10:25:04Z</time></trkpt><trkpt lat="46.51123984951844" lon="9.326145455079175"><ele>2054.0</ele><time>2026-05-03T10:25:05Z</time></trkpt><trkpt lat="46.51125918335345" lon="9.32628537540797"><ele>2054.0</ele><time>2026-05-03T10:25:06Z</time></trkpt><trkpt lat="46.51127364429099" lon="9.326396435376598"><ele>2054.0</ele><time>2026-05-03T10:25:07Z</time></trkpt><trkpt lat="46.511238616445844" lon="9.326536323928872"><ele>2054.0</ele><time>2026-05-03T10:25:09Z</time></trkpt><trkpt lat="46.51113181770425" lon="9.326562574107081"><ele>2052.0</ele><time>2026-05-03T10:25:11Z</time></trkpt><trkpt lat="46.51106129907179" lon="9.326566588972149"><ele>2050.0</ele><time>2026-05-03T10:25:12Z</time></trkpt><trkpt lat="46.510946537814476" lon="9.326566474181575"><ele>2048.0</ele><time>2026-05-03T10:25:14Z</time></trkpt><trkpt lat="46.510850787803825" lon="9.326577933553633"><ele>2046.0</ele><time>2026-05-03T10:25:16Z</time></trkpt><trkpt lat="46.510793620478886" lon="9.326726393982765"><ele>2044.0</ele><time>2026-05-03T10:25:18Z</time></trkpt><trkpt lat="46.51082436585423" lon="9.326806867131912"><ele>2044.0</ele><time>2026-05-03T10:25:19Z</time></trkpt><trkpt lat="46.51090747271174" lon="9.326824141324838"><ele>2044.0</ele><time>2026-05-03T10:25:20Z</time></trkpt><trkpt lat="46.51100537456622" lon="9.326802265086654"><ele>2044.0</ele><time>2026-05-03T10:25:21Z</time></trkpt><trkpt lat="46.51111366477785" lon="9.326791466110711"><ele>2044.0</ele><time>2026-05-03T10:25:22Z</time></trkpt><trkpt lat="46.51121907673354" lon="9.326796330653055"><ele>2044.0</ele><time>2026-05-03T10:25:23Z</time></trkpt><trkpt lat="46.51131670183095" lon="9.326790165093177"><ele>2041.0</ele><time>2026-05-03T10:25:24Z</time></trkpt><trkpt lat="46.511405173324086" lon="9.32677574871828"><ele>2038.0</ele><time>2026-05-03T10:25:25Z</time></trkpt><trkpt lat="46.511480435395455" lon="9.326732155629855"><ele>2035.0</ele><time>2026-05-03T10:25:26Z</time></trkpt><trkpt lat="46.51154928123866" lon="9.326670689833787"><ele>2032.0</ele><time>2026-05-03T10:25:27Z</time></trkpt><trkpt lat="46.51160892511297" lon="9.326601622216836"><ele>2029.0</ele><time>2026-05-03T10:25:28Z</time></trkpt><trkpt lat="46.51173038715625" lon="9.326547310782889"><ele>2029.0000000000002</ele><time>2026-05-03T10:25:30Z</time></trkpt><trkpt lat="46.51180132420614" lon="9.326584383735826"><ele>2029.0</ele><time>2026-05-03T10:25:31Z</time></trkpt><trkpt lat="46.511826440518554" lon="9.32669251352019"><ele>2029.0</ele><time>2026-05-03T10:25:32Z</time></trkpt><trkpt lat="46.51187088817886" lon="9.326769180308"><ele>2029.0</ele><time>2026-05-03T10:25:33Z</time></trkpt><trkpt lat="46.51195055569923" lon="9.326916985226031"><ele>2029.0000000000002</ele><time>2026-05-03T10:25:35Z</time></trkpt><trkpt lat="46.512000866010645" lon="9.32701148510119"><ele>2029.0</ele><time>2026-05-03T10:25:36Z</time></trkpt><trkpt lat="46.512055414326944" lon="9.327106626493805"><ele>2028.1666666666667</ele><time>2026-05-03T10:25:37Z</time></trkpt><trkpt lat="46.51210345824688" lon="9.327208924846538"><ele>2027.3333333333335</ele><time>2026-05-03T10:25:38Z</time></trkpt><trkpt lat="46.512148315797056" lon="9.327307897811057"><ele>2026.5</ele><time>2026-05-03T10:25:40Z</time></trkpt><trkpt lat="46.51219545402936" lon="9.327407812460782"><ele>2025.6666666666665</ele><time>2026-05-03T10:25:42Z</time></trkpt><trkpt lat="46.512203907515655" lon="9.327526501014153"><ele>2024.8333333333333</ele><time>2026-05-03T10:25:45Z</time></trkpt><trkpt lat="46.51214897622254" lon="9.327588134444687"><ele>2024.0</ele><time>2026-05-03T10:25:47Z</time></trkpt><trkpt lat="46.51197747191056" lon="9.327617199573604"><ele>2024.0</ele><time>2026-05-03T10:25:49Z</time></trkpt><trkpt lat="46.51182596333572" lon="9.327675405811833"><ele>2024.0</ele><time>2026-05-03T10:25:50Z</time></trkpt><trkpt lat="46.511671644674685" lon="9.327736932830911"><ele>2024.0</ele><time>2026-05-03T10:25:51Z</time></trkpt><trkpt lat="46.51152272224631" lon="9.327836966514624"><ele>2024.0</ele><time>2026-05-03T10:25:52Z</time></trkpt><trkpt lat="46.51139468705283" lon="9.327973655150409"><ele>2024.0</ele><time>2026-05-03T10:25:53Z</time></trkpt><trkpt lat="46.511279016185505" lon="9.328124069864607"><ele>2024.0</ele><time>2026-05-03T10:25:54Z</time></trkpt><trkpt lat="46.51121211271391" lon="9.328297089826215"><ele>2023.8000000000002</ele><time>2026-05-03T10:25:55Z</time></trkpt><trkpt lat="46.51116803312231" lon="9.328455889920274"><ele>2023.6000000000001</ele><time>2026-05-03T10:25:56Z</time></trkpt><trkpt lat="46.51115512794344" lon="9.328609638120266"><ele>2023.4</ele><time>2026-05-03T10:25:57Z</time></trkpt><trkpt lat="46.51111574722874" lon="9.328722055815494"><ele>2023.2</ele><time>2026-05-03T10:25:58Z</time></trkpt><trkpt lat="46.5110631338962" lon="9.328798459708059"><ele>2023.0</ele><time>2026-05-03T10:25:59Z</time></trkpt><trkpt lat="46.51099625670894" lon="9.328838080864887"><ele>2017.8000000000002</ele><time>2026-05-03T10:26:00Z</time></trkpt><trkpt lat="46.51092586266151" lon="9.328917807816305"><ele>2012.6000000000001</ele><time>2026-05-03T10:26:01Z</time></trkpt><trkpt lat="46.51086554958227" lon="9.329018282556973"><ele>2007.3999999999999</ele><time>2026-05-03T10:26:03Z</time></trkpt><trkpt lat="46.510935634526334" lon="9.329095286275047"><ele>2002.1999999999998</ele><time>2026-05-03T10:26:04Z</time></trkpt><trkpt lat="46.5110068235255" lon="9.329120373904864"><ele>1997.0</ele><time>2026-05-03T10:26:05Z</time></trkpt><trkpt lat="46.51109465007298" lon="9.329016791606731"><ele>1999.0</ele><time>2026-05-03T10:26:06Z</time></trkpt><trkpt lat="46.511191371807655" lon="9.328888214902326"><ele>2001.0</ele><time>2026-05-03T10:26:07Z</time></trkpt><trkpt lat="46.51128144025216" lon="9.32873611190323"><ele>2003.0</ele><time>2026-05-03T10:26:08Z</time></trkpt><trkpt lat="46.511371856927866" lon="9.328575289864704"><ele>2005.0</ele><time>2026-05-03T10:26:09Z</time></trkpt><trkpt lat="46.511495240424" lon="9.328489811648323"><ele>2005.0</ele><time>2026-05-03T10:26:10Z</time></trkpt><trkpt lat="46.51163634082299" lon="9.32841408730335"><ele>2005.0</ele><time>2026-05-03T10:26:11Z</time></trkpt><trkpt lat="46.511796236857336" lon="9.328341206975033"><ele>2005.0</ele><time>2026-05-03T10:26:12Z</time></trkpt><trkpt lat="46.51195577345181" lon="9.328280700507907"><ele>1999.25</ele><time>2026-05-03T10:26:13Z</time></trkpt><trkpt lat="46.51209149348522" lon="9.328247648679069"><ele>1993.5</ele><time>2026-05-03T10:26:14Z</time></trkpt><trkpt lat="46.51221350045575" lon="9.328202303216232"><ele>1987.75</ele><time>2026-05-03T10:26:15Z</time></trkpt><trkpt lat="46.51232157095135" lon="9.328191629026106"><ele>1982.0</ele><time>2026-05-03T10:26:16Z</time></trkpt><trkpt lat="46.51241951300026" lon="9.328172983754621"><ele>1982.0</ele><time>2026-05-03T10:26:17Z</time></trkpt><trkpt lat="46.51249770585271" lon="9.328152058156594"><ele>1981.9999999999998</ele><time>2026-05-03T10:26:18Z</time></trkpt><trkpt lat="46.51260257899801" lon="9.328190575587831"><ele>1981.9999999999998</ele><time>2026-05-03T10:26:20Z</time></trkpt><trkpt lat="46.5125451870904" lon="9.328283044835118"><ele>1982.0</ele><time>2026-05-03T10:26:22Z</time></trkpt><trkpt lat="46.51245297564937" lon="9.32825304920831"><ele>1982.0</ele><time>2026-05-03T10:26:23Z</time></trkpt><trkpt lat="46.512318494161434" lon="9.328316437470587"><ele>1982.0</ele><time>2026-05-03T10:26:24Z</time></trkpt><trkpt lat="46.51218751694878" lon="9.328346027621471"><ele>1982.0</ele><time>2026-05-03T10:26:25Z</time></trkpt><trkpt lat="46.51206243573048" lon="9.328362352133453"><ele>1982.0</ele><time>2026-05-03T10:26:26Z</time></trkpt><trkpt lat="46.51195991736836" lon="9.328375249634465"><ele>1982.0</ele><time>2026-05-03T10:26:27Z</time></trkpt><trkpt lat="46.51190342279621" lon="9.328793738403766"><ele>1982.25</ele><time>2026-05-03T10:26:28Z</time></trkpt><trkpt lat="46.5118168049316" lon="9.328967950355088"><ele>1982.5</ele><time>2026-05-03T10:26:29Z</time></trkpt><trkpt lat="46.51171719083799" lon="9.329113225902047"><ele>1982.75</ele><time>2026-05-03T10:26:30Z</time></trkpt><trkpt lat="46.51159988553098" lon="9.32925401764065"><ele>1983.0</ele><time>2026-05-03T10:26:31Z</time></trkpt><trkpt lat="46.51147672272067" lon="9.329393556662383"><ele>1983.0</ele><time>2026-05-03T10:26:32Z</time></trkpt><trkpt lat="46.511363224011085" lon="9.32950805604913"><ele>1983.0000000000002</ele><time>2026-05-03T10:26:33Z</time></trkpt><trkpt lat="46.51125944420631" lon="9.329598926580916"><ele>1983.0000000000002</ele><time>2026-05-03T10:26:34Z</time></trkpt><trkpt lat="46.5111641851538" lon="9.329693680620661"><ele>1983.0</ele><time>2026-05-03T10:26:35Z</time></trkpt><trkpt lat="46.511100049970274" lon="9.329733609543034"><ele>1983.0</ele><time>2026-05-03T10:26:36Z</time></trkpt><trkpt lat="46.511047816560755" lon="9.329845866769867"><ele>1983.0</ele><time>2026-05-03T10:26:38Z</time></trkpt><trkpt lat="46.511183247212585" lon="9.329937076651321"><ele>1983.0</ele><time>2026-05-03T10:26:39Z</time></trkpt><trkpt lat="46.51126892262623" lon="9.329909356648953"><ele>1983.0</ele><time>2026-05-03T10:26:40Z</time></trkpt><trkpt lat="46.51137674831506" lon="9.329797999960654"><ele>1983.0</ele><time>2026-05-03T10:26:41Z</time></trkpt><trkpt lat="46.511511664169916" lon="9.329668282542535"><ele>1983.0</ele><time>2026-05-03T10:26:42Z</time></trkpt><trkpt lat="46.51166996336341" lon="9.329621296988718"><ele>1983.0</ele><time>2026-05-03T10:26:43Z</time></trkpt><trkpt lat="46.51183658461238" lon="9.329609776452646"><ele>1983.0</ele><time>2026-05-03T10:26:44Z</time></trkpt><trkpt lat="46.511987812049284" lon="9.329582808464371"><ele>1977.25</ele><time>2026-05-03T10:26:45Z</time></trkpt><trkpt lat="46.51208976553757" lon="9.329571524190031"><ele>1971.5</ele><time>2026-05-03T10:26:46Z</time></trkpt><trkpt lat="46.512189853058224" lon="9.329503145285653"><ele>1965.75</ele><time>2026-05-03T10:26:47Z</time></trkpt><trkpt lat="46.5122966982643" lon="9.329367044985535"><ele>1960.0</ele><time>2026-05-03T10:26:48Z</time></trkpt><trkpt lat="46.51241928328727" lon="9.329223184308512"><ele>1960.0</ele><time>2026-05-03T10:26:49Z</time></trkpt><trkpt lat="46.51255080703049" lon="9.329110867946762"><ele>1960.0</ele><time>2026-05-03T10:26:50Z</time></trkpt><trkpt lat="46.51269618333262" lon="9.32910863328271"><ele>1960.0</ele><time>2026-05-03T10:26:51Z</time></trkpt><trkpt lat="46.51283769843952" lon="9.32910119136893"><ele>1960.0</ele><time>2026-05-03T10:26:52Z</time></trkpt><trkpt lat="46.51297219971448" lon="9.329080713851575"><ele>1961.0</ele><time>2026-05-03T10:26:53Z</time></trkpt><trkpt lat="46.51311000074325" lon="9.32907865433371"><ele>1962.0</ele><time>2026-05-03T10:26:54Z</time></trkpt><trkpt lat="46.51322758356009" lon="9.329025485016803"><ele>1963.0</ele><time>2026-05-03T10:26:55Z</time></trkpt><trkpt lat="46.513332258154676" lon="9.328929614451708"><ele>1964.0</ele><time>2026-05-03T10:26:56Z</time></trkpt><trkpt lat="46.51343597714192" lon="9.328840685420158"><ele>1963.9999999999998</ele><time>2026-05-03T10:26:57Z</time></trkpt><trkpt lat="46.51352962072199" lon="9.328764128598847"><ele>1964.0</ele><time>2026-05-03T10:26:58Z</time></trkpt><trkpt lat="46.51360660437989" lon="9.328707965362295"><ele>1964.0</ele><time>2026-05-03T10:26:59Z</time></trkpt><trkpt lat="46.51367095406951" lon="9.328706090335114"><ele>1964.0</ele><time>2026-05-03T10:27:00Z</time></trkpt><trkpt lat="46.51373165045641" lon="9.3287509396953"><ele>1963.9999999999998</ele><time>2026-05-03T10:27:01Z</time></trkpt><trkpt lat="46.51375225537766" lon="9.328893540726666"><ele>1964.0</ele><time>2026-05-03T10:27:02Z</time></trkpt><trkpt lat="46.51383258370683" lon="9.328998035157614"><ele>1958.0</ele><time>2026-05-03T10:27:03Z</time></trkpt><trkpt lat="46.51391372270086" lon="9.329087955782166"><ele>1952.0</ele><time>2026-05-03T10:27:04Z</time></trkpt><trkpt lat="46.51399773380443" lon="9.329136767907793"><ele>1946.0</ele><time>2026-05-03T10:27:05Z</time></trkpt><trkpt lat="46.514089867305124" lon="9.329139154555865"><ele>1940.0</ele><time>2026-05-03T10:27:06Z</time></trkpt><trkpt lat="46.51418561818701" lon="9.3290768057837"><ele>1934.0</ele><time>2026-05-03T10:27:07Z</time></trkpt><trkpt lat="46.51426369924668" lon="9.32897686805131"><ele>1935.9999999999998</ele><time>2026-05-03T10:27:08.001Z</time></trkpt><trkpt lat="46.51435256500354" lon="9.328887500782843"><ele>1938.0</ele><time>2026-05-03T10:27:09.001Z</time></trkpt><trkpt lat="46.51443656034337" lon="9.3288211765137"><ele>1940.0</ele><time>2026-05-03T10:27:10.001Z</time></trkpt><trkpt lat="46.5145125355403" lon="9.328770707637524"><ele>1942.0</ele><time>2026-05-03T10:27:11.001Z</time></trkpt><trkpt lat="46.51459032792175" lon="9.328732185792397"><ele>1943.9999999999998</ele><time>2026-05-03T10:27:12.001Z</time></trkpt><trkpt lat="46.514669001726475" lon="9.328748599542628"><ele>1946.0</ele><time>2026-05-03T10:27:13.001Z</time></trkpt><trkpt lat="46.514737024979105" lon="9.328800849063308"><ele>1945.9999999999998</ele><time>2026-05-03T10:27:14.001Z</time></trkpt><trkpt lat="46.51480984322491" lon="9.328834181948725"><ele>1946.0</ele><time>2026-05-03T10:27:15.001Z</time></trkpt><trkpt lat="46.51491213246194" lon="9.328887112129022"><ele>1946.0</ele><time>2026-05-03T10:27:16.001Z</time></trkpt><trkpt lat="46.514996852195125" lon="9.328931173973091"><ele>1946.0</ele><time>2026-05-03T10:27:17.001Z</time></trkpt><trkpt lat="46.51507935324047" lon="9.328956053459159"><ele>1945.9999999999998</ele><time>2026-05-03T10:27:18.001Z</time></trkpt><trkpt lat="46.51514749160427" lon="9.328950204268725"><ele>1946.0</ele><time>2026-05-03T10:27:19.001Z</time></trkpt><trkpt lat="46.51521595580933" lon="9.328932398682408"><ele>1946.0</ele><time>2026-05-03T10:27:21.001Z</time></trkpt><trkpt lat="46.51532257584142" lon="9.328834529133305"><ele>1946.0</ele><time>2026-05-03T10:27:23.001Z</time></trkpt><trkpt lat="46.515384012257385" lon="9.328764648306665"><ele>1946.0</ele><time>2026-05-03T10:27:24.001Z</time></trkpt><trkpt lat="46.51545057906487" lon="9.328701590132717"><ele>1946.0</ele><time>2026-05-03T10:27:25.001Z</time></trkpt><trkpt lat="46.51552474752326" lon="9.328651336812573"><ele>1946.0</ele><time>2026-05-03T10:27:26.001Z</time></trkpt><trkpt lat="46.515608223594114" lon="9.328625018996025"><ele>1943.1666666666665</ele><time>2026-05-03T10:27:27.001Z</time></trkpt><trkpt lat="46.515696161491654" lon="9.328633170283538"><ele>1940.3333333333333</ele><time>2026-05-03T10:27:28.001Z</time></trkpt><trkpt lat="46.51577991157236" lon="9.328655145376835"><ele>1937.5</ele><time>2026-05-03T10:27:29.001Z</time></trkpt><trkpt lat="46.51585829324458" lon="9.328658168513488"><ele>1934.6666666666665</ele><time>2026-05-03T10:27:30.001Z</time></trkpt><trkpt lat="46.51593008587643" lon="9.328632584691762"><ele>1931.8333333333333</ele><time>2026-05-03T10:27:31.001Z</time></trkpt><trkpt lat="46.51599569048449" lon="9.328593263787464"><ele>1929.0</ele><time>2026-05-03T10:27:32.001Z</time></trkpt><trkpt lat="46.516081189169434" lon="9.328516663343068"><ele>1929.0</ele><time>2026-05-03T10:27:34.001Z</time></trkpt><trkpt lat="46.51616578841082" lon="9.328517016454292"><ele>1929.0</ele><time>2026-05-03T10:27:37.001Z</time></trkpt><trkpt lat="46.51608622346347" lon="9.328619264509767"><ele>1929.0</ele><time>2026-05-03T10:27:39.001Z</time></trkpt><trkpt lat="46.515983685207814" lon="9.328687249633727"><ele>1929.0</ele><time>2026-05-03T10:27:40.001Z</time></trkpt><trkpt lat="46.51585529309587" lon="9.328772081872566"><ele>1929.0</ele><time>2026-05-03T10:27:41.001Z</time></trkpt><trkpt lat="46.51571001874024" lon="9.328844018659897"><ele>1927.0</ele><time>2026-05-03T10:27:42.001Z</time></trkpt><trkpt lat="46.51555883554525" lon="9.328943280199393"><ele>1925.0</ele><time>2026-05-03T10:27:43.001Z</time></trkpt><trkpt lat="46.51546818180447" lon="9.329107076456188"><ele>1923.0</ele><time>2026-05-03T10:27:44.001Z</time></trkpt><trkpt lat="46.51537866263292" lon="9.329224890411622"><ele>1921.0</ele><time>2026-05-03T10:27:45.001Z</time></trkpt><trkpt lat="46.51530196495829" lon="9.32928543434735"><ele>1921.0</ele><time>2026-05-03T10:27:46.001Z</time></trkpt><trkpt lat="46.51523300374744" lon="9.32938704538211"><ele>1921.0</ele><time>2026-05-03T10:27:48Z</time></trkpt><trkpt lat="46.515280244925876" lon="9.329479163489204"><ele>1921.0</ele><time>2026-05-03T10:27:49Z</time></trkpt><trkpt lat="46.51544838735517" lon="9.329412249993315"><ele>1921.0</ele><time>2026-05-03T10:27:51Z</time></trkpt><trkpt lat="46.51554545462323" lon="9.329288441448329"><ele>1915.3333333333335</ele><time>2026-05-03T10:27:52Z</time></trkpt><trkpt lat="46.5156766681096" lon="9.329215177596238"><ele>1909.6666666666665</ele><time>2026-05-03T10:27:53Z</time></trkpt><trkpt lat="46.51584223326829" lon="9.329163492578063"><ele>1904.0</ele><time>2026-05-03T10:27:54Z</time></trkpt><trkpt lat="46.51599412477722" lon="9.329119160947984"><ele>1904.0</ele><time>2026-05-03T10:27:55Z</time></trkpt><trkpt lat="46.51610165080705" lon="9.329066155416003"><ele>1904.0</ele><time>2026-05-03T10:27:56Z</time></trkpt><trkpt lat="46.51618118648355" lon="9.329022028392515"><ele>1904.0</ele><time>2026-05-03T10:27:57Z</time></trkpt><trkpt lat="46.51626542122502" lon="9.32902081645874"><ele>1904.0</ele><time>2026-05-03T10:27:59Z</time></trkpt><trkpt lat="46.516224936359116" lon="9.32915989562607"><ele>1904.0</ele><time>2026-05-03T10:28:01Z</time></trkpt><trkpt lat="46.516140751561366" lon="9.329125632395126"><ele>1904.0</ele><time>2026-05-03T10:28:02Z</time></trkpt><trkpt lat="46.516018089303344" lon="9.32924720186611"><ele>1904.0</ele><time>2026-05-03T10:28:03Z</time></trkpt><trkpt lat="46.51587383861093" lon="9.329327515362815"><ele>1904.0</ele><time>2026-05-03T10:28:04Z</time></trkpt><trkpt lat="46.51574145075111" lon="9.329449759151725"><ele>1904.0</ele><time>2026-05-03T10:28:05Z</time></trkpt><trkpt lat="46.51564076702021" lon="9.329591515211048"><ele>1904.0</ele><time>2026-05-03T10:28:06Z</time></trkpt><trkpt lat="46.51556033448817" lon="9.32970003079768"><ele>1904.0</ele><time>2026-05-03T10:28:07Z</time></trkpt><trkpt lat="46.51549714301798" lon="9.329767572593179"><ele>1904.0</ele><time>2026-05-03T10:28:08Z</time></trkpt><trkpt lat="46.515436520295616" lon="9.329861586257298"><ele>1904.0</ele><time>2026-05-03T10:28:10Z</time></trkpt><trkpt lat="46.51556196039309" lon="9.329945800572057"><ele>1904.0</ele><time>2026-05-03T10:28:12Z</time></trkpt><trkpt lat="46.51564339691445" lon="9.329863153697715"><ele>1904.0</ele><time>2026-05-03T10:28:13Z</time></trkpt><trkpt lat="46.51576155710572" lon="9.329748525613384"><ele>1904.0</ele><time>2026-05-03T10:28:14Z</time></trkpt><trkpt lat="46.51590381827022" lon="9.329658796817515"><ele>1904.0</ele><time>2026-05-03T10:28:15Z</time></trkpt><trkpt lat="46.516062818933726" lon="9.32958427751385"><ele>1904.0</ele><time>2026-05-03T10:28:16Z</time></trkpt><trkpt lat="46.51621816853475" lon="9.329524923438354"><ele>1904.0</ele><time>2026-05-03T10:28:17Z</time></trkpt><trkpt lat="46.516326542666995" lon="9.329476306281244"><ele>1904.0</ele><time>2026-05-03T10:28:18Z</time></trkpt><trkpt lat="46.51641834530967" lon="9.329418471087646"><ele>1904.0</ele><time>2026-05-03T10:28:20Z</time></trkpt><trkpt lat="46.516428209448414" lon="9.329529149101795"><ele>1904.0</ele><time>2026-05-03T10:28:22Z</time></trkpt><trkpt lat="46.51626539233167" lon="9.32963816210641"><ele>1904.0</ele><time>2026-05-03T10:28:24Z</time></trkpt><trkpt lat="46.51620961838285" lon="9.329694328126697"><ele>1904.0</ele><time>2026-05-03T10:28:25Z</time></trkpt><trkpt lat="46.51617150047837" lon="9.329780173631976"><ele>1904.0</ele><time>2026-05-03T10:28:28Z</time></trkpt><trkpt lat="46.51612413963971" lon="9.329848195170623"><ele>1904.0</ele><time>2026-05-03T10:28:51Z</time></trkpt><trkpt lat="46.51605605364862" lon="9.32992441857467"><ele>1900.6666666666665</ele><time>2026-05-03T10:28:53Z</time></trkpt><trkpt lat="46.516009944689" lon="9.329991166868945"><ele>1897.3333333333333</ele><time>2026-05-03T10:28:54Z</time></trkpt><trkpt lat="46.51595034911584" lon="9.330074883419814"><ele>1894.0</ele><time>2026-05-03T10:28:55Z</time></trkpt><trkpt lat="46.51588678719055" lon="9.330167101396682"><ele>1890.6666666666665</ele><time>2026-05-03T10:28:56Z</time></trkpt><trkpt lat="46.51582236890185" lon="9.33024683607462"><ele>1887.3333333333333</ele><time>2026-05-03T10:28:57Z</time></trkpt><trkpt lat="46.515766212947554" lon="9.330328675188257"><ele>1884.0</ele><time>2026-05-03T10:28:58Z</time></trkpt><trkpt lat="46.51571377931425" lon="9.33039337105669"><ele>1884.0</ele><time>2026-05-03T10:28:59Z</time></trkpt><trkpt lat="46.51563022775891" lon="9.330509707888163"><ele>1884.0</ele><time>2026-05-03T10:29:01Z</time></trkpt><trkpt lat="46.51567315388547" lon="9.330631106992712"><ele>1884.0</ele><time>2026-05-03T10:29:03Z</time></trkpt><trkpt lat="46.515738314791754" lon="9.330649944191391"><ele>1884.0</ele><time>2026-05-03T10:29:04Z</time></trkpt><trkpt lat="46.51582634414501" lon="9.330592809387099"><ele>1884.0</ele><time>2026-05-03T10:29:05Z</time></trkpt><trkpt lat="46.51593238781181" lon="9.330504132105421"><ele>1884.0</ele><time>2026-05-03T10:29:06Z</time></trkpt><trkpt lat="46.51605143387508" lon="9.3304139659597"><ele>1884.0</ele><time>2026-05-03T10:29:07Z</time></trkpt><trkpt lat="46.51617146190276" lon="9.330334272190527"><ele>1884.0</ele><time>2026-05-03T10:29:08Z</time></trkpt><trkpt lat="46.51627488499152" lon="9.330268074776596"><ele>1884.0</ele><time>2026-05-03T10:29:09Z</time></trkpt><trkpt lat="46.51635950272205" lon="9.330207296113146"><ele>1884.0</ele><time>2026-05-03T10:29:10Z</time></trkpt><trkpt lat="46.51641950180695" lon="9.330161332259548"><ele>1884.0</ele><time>2026-05-03T10:29:11Z</time></trkpt><trkpt lat="46.516494848147346" lon="9.330185270651157"><ele>1884.0</ele><time>2026-05-03T10:29:13Z</time></trkpt><trkpt lat="46.51640230182938" lon="9.330293112680984"><ele>1884.0</ele><time>2026-05-03T10:29:15Z</time></trkpt><trkpt lat="46.51629891163799" lon="9.330407201590155"><ele>1884.0</ele><time>2026-05-03T10:29:16Z</time></trkpt><trkpt lat="46.51622445467018" lon="9.33050802759012"><ele>1879.8000000000002</ele><time>2026-05-03T10:29:17Z</time></trkpt><trkpt lat="46.51616100770374" lon="9.33060996413687"><ele>1875.6000000000001</ele><time>2026-05-03T10:29:18Z</time></trkpt><trkpt lat="46.516091322790096" lon="9.330722683386554"><ele>1871.4</ele><time>2026-05-03T10:29:19Z</time></trkpt><trkpt lat="46.516018577377295" lon="9.330845691844322"><ele>1867.2</ele><time>2026-05-03T10:29:20Z</time></trkpt><trkpt lat="46.51596533501336" lon="9.33094426940742"><ele>1863.0</ele><time>2026-05-03T10:29:21Z</time></trkpt><trkpt lat="46.51595530716003" lon="9.331058059197039"><ele>1863.0</ele><time>2026-05-03T10:29:22Z</time></trkpt><trkpt lat="46.51606993881885" lon="9.331117291140854"><ele>1863.0</ele><time>2026-05-03T10:29:24Z</time></trkpt><trkpt lat="46.51617068188516" lon="9.331037327348703"><ele>1863.0</ele><time>2026-05-03T10:29:25Z</time></trkpt><trkpt lat="46.516291553693726" lon="9.330907647094552"><ele>1863.0</ele><time>2026-05-03T10:29:26Z</time></trkpt><trkpt lat="46.516436571668116" lon="9.330787997685768"><ele>1861.4</ele><time>2026-05-03T10:29:27Z</time></trkpt><trkpt lat="46.51656371476154" lon="9.33069849501968"><ele>1859.8000000000002</ele><time>2026-05-03T10:29:28Z</time></trkpt><trkpt lat="46.516655282011214" lon="9.330643610674063"><ele>1858.2</ele><time>2026-05-03T10:29:29Z</time></trkpt><trkpt lat="46.51672186801161" lon="9.330616123912959"><ele>1856.6</ele><time>2026-05-03T10:29:30Z</time></trkpt><trkpt lat="46.516772348974705" lon="9.330721734495889"><ele>1855.0</ele><time>2026-05-03T10:29:32Z</time></trkpt><trkpt lat="46.516608473189166" lon="9.330867887533033"><ele>1855.0</ele><time>2026-05-03T10:29:34Z</time></trkpt><trkpt lat="46.51653331444178" lon="9.33104074866066"><ele>1855.0</ele><time>2026-05-03T10:29:35Z</time></trkpt><trkpt lat="46.516455570470484" lon="9.331260653962328"><ele>1855.0</ele><time>2026-05-03T10:29:36Z</time></trkpt><trkpt lat="46.51641194022574" lon="9.331469856522798"><ele>1852.0</ele><time>2026-05-03T10:29:37Z</time></trkpt><trkpt lat="46.51637497586618" lon="9.331622488390007"><ele>1849.0</ele><time>2026-05-03T10:29:38Z</time></trkpt><trkpt lat="46.516342703280124" lon="9.331738486860104"><ele>1846.0</ele><time>2026-05-03T10:29:39Z</time></trkpt><trkpt lat="46.516330367744736" lon="9.331841530605422"><ele>1843.0</ele><time>2026-05-03T10:29:41Z</time></trkpt><trkpt lat="46.51649283169403" lon="9.331833552239365"><ele>1840.0</ele><time>2026-05-03T10:29:42Z</time></trkpt><trkpt lat="46.51659077292462" lon="9.331755028356508"><ele>1840.0</ele><time>2026-05-03T10:29:43Z</time></trkpt><trkpt lat="46.516713985813354" lon="9.331621751794694"><ele>1840.0</ele><time>2026-05-03T10:29:44Z</time></trkpt><trkpt lat="46.51686064472791" lon="9.3315061156325"><ele>1840.0</ele><time>2026-05-03T10:29:45Z</time></trkpt><trkpt lat="46.51703499401393" lon="9.33138965073996"><ele>1840.3333333333335</ele><time>2026-05-03T10:29:46Z</time></trkpt><trkpt lat="46.51721918075981" lon="9.331290507279018"><ele>1840.6666666666665</ele><time>2026-05-03T10:29:47Z</time></trkpt><trkpt lat="46.51742884871967" lon="9.331207141435838"><ele>1841.0</ele><time>2026-05-03T10:29:48Z</time></trkpt><trkpt lat="46.51768064849066" lon="9.331128299441092"><ele>1833.0</ele><time>2026-05-03T10:29:49Z</time></trkpt><trkpt lat="46.51795509753712" lon="9.331056472082475"><ele>1825.0</ele><time>2026-05-03T10:29:50Z</time></trkpt><trkpt lat="46.51822501981111" lon="9.330979525101556"><ele>1825.0</ele><time>2026-05-03T10:29:51.001Z</time></trkpt><trkpt lat="46.51850248364481" lon="9.330897049245527"><ele>1825.0</ele><time>2026-05-03T10:29:52.001Z</time></trkpt><trkpt lat="46.51876915279096" lon="9.330825149805642"><ele>1820.0</ele><time>2026-05-03T10:29:53Z</time></trkpt><trkpt lat="46.51902203715855" lon="9.33075847268346"><ele>1815.0</ele><time>2026-05-03T10:29:54Z</time></trkpt><trkpt lat="46.51925452820733" lon="9.330696359128396"><ele>1815.0</ele><time>2026-05-03T10:29:55Z</time></trkpt><trkpt lat="46.519489397957" lon="9.330629858074458"><ele>1815.0</ele><time>2026-05-03T10:29:56Z</time></trkpt><trkpt lat="46.51971167522656" lon="9.33056370276029"><ele>1815.0</ele><time>2026-05-03T10:29:57Z</time></trkpt><trkpt lat="46.51992819555659" lon="9.330501465918905"><ele>1815.0</ele><time>2026-05-03T10:29:58Z</time></trkpt><trkpt lat="46.520139635777575" lon="9.33043896723555"><ele>1815.0</ele><time>2026-05-03T10:29:59Z</time></trkpt><trkpt lat="46.52034076643597" lon="9.330382623988156"><ele>1813.3333333333335</ele><time>2026-05-03T10:30:00Z</time></trkpt><trkpt lat="46.520534097458174" lon="9.33032581907277"><ele>1811.6666666666667</ele><time>2026-05-03T10:30:01Z</time></trkpt><trkpt lat="46.5207226013129" lon="9.330271044280234"><ele>1810.0</ele><time>2026-05-03T10:30:02Z</time></trkpt><trkpt lat="46.52090787956121" lon="9.330213713250254"><ele>1810.0</ele><time>2026-05-03T10:30:03Z</time></trkpt><trkpt lat="46.521093269522964" lon="9.330156082256842"><ele>1810.0</ele><time>2026-05-03T10:30:04Z</time></trkpt><trkpt lat="46.521288259920624" lon="9.33009904674873"><ele>1810.0</ele><time>2026-05-03T10:30:05Z</time></trkpt><trkpt lat="46.52150489269396" lon="9.330018974559083"><ele>1804.0</ele><time>2026-05-03T10:30:06Z</time></trkpt><trkpt lat="46.52173586928955" lon="9.329943621945539"><ele>1798.0</ele><time>2026-05-03T10:30:07Z</time></trkpt><trkpt lat="46.522003165398445" lon="9.3298681791416"><ele>1792.0</ele><time>2026-05-03T10:30:08Z</time></trkpt><trkpt lat="46.52227079327434" lon="9.329799466681344"><ele>1786.0</ele><time>2026-05-03T10:30:09Z</time></trkpt><trkpt lat="46.52250840709987" lon="9.329738151587364"><ele>1789.3333333333335</ele><time>2026-05-03T10:30:10Z</time></trkpt><trkpt lat="46.522724768020495" lon="9.329691606992348"><ele>1792.6666666666665</ele><time>2026-05-03T10:30:11Z</time></trkpt><trkpt lat="46.522918233720596" lon="9.329628065310542"><ele>1796.0</ele><time>2026-05-03T10:30:12Z</time></trkpt><trkpt lat="46.523101395571246" lon="9.329581785836"><ele>1796.0</ele><time>2026-05-03T10:30:13Z</time></trkpt><trkpt lat="46.52326651644763" lon="9.32952969665966"><ele>1796.0</ele><time>2026-05-03T10:30:14Z</time></trkpt><trkpt lat="46.52342125039517" lon="9.329479104669742"><ele>1796.0</ele><time>2026-05-03T10:30:15Z</time></trkpt><trkpt lat="46.523567898859405" lon="9.329513421055971"><ele>1796.0</ele><time>2026-05-03T10:30:16Z</time></trkpt><trkpt lat="46.52369781476109" lon="9.32960935391115"><ele>1796.0</ele><time>2026-05-03T10:30:17Z</time></trkpt><trkpt lat="46.523854971881576" lon="9.329757864962486"><ele>1796.0</ele><time>2026-05-03T10:30:18Z</time></trkpt><trkpt lat="46.524012557745884" lon="9.329906200647466"><ele>1791.75</ele><time>2026-05-03T10:30:19.001Z</time></trkpt><trkpt lat="46.52415665323072" lon="9.330011168641574"><ele>1787.5</ele><time>2026-05-03T10:30:20.001Z</time></trkpt><trkpt lat="46.524275896351455" lon="9.330134518067894"><ele>1783.25</ele><time>2026-05-03T10:30:21.001Z</time></trkpt><trkpt lat="46.52439586425262" lon="9.33023180479931"><ele>1779.0</ele><time>2026-05-03T10:30:22.001Z</time></trkpt><trkpt lat="46.52451490868698" lon="9.330279762175994"><ele>1777.3333333333335</ele><time>2026-05-03T10:30:23.001Z</time></trkpt><trkpt lat="46.5246445425253" lon="9.330273175064589"><ele>1775.6666666666667</ele><time>2026-05-03T10:30:24.001Z</time></trkpt><trkpt lat="46.524791805969286" lon="9.330225051322099"><ele>1774.0</ele><time>2026-05-03T10:30:25.001Z</time></trkpt><trkpt lat="46.52495740292903" lon="9.330126143953185"><ele>1774.0</ele><time>2026-05-03T10:30:26.001Z</time></trkpt><trkpt lat="46.52513735555887" lon="9.330044649431125"><ele>1774.0</ele><time>2026-05-03T10:30:27.001Z</time></trkpt><trkpt lat="46.52533065670875" lon="9.32997678433358"><ele>1774.0</ele><time>2026-05-03T10:30:28.001Z</time></trkpt><trkpt lat="46.5255206916806" lon="9.329909501734168"><ele>1774.0</ele><time>2026-05-03T10:30:29.001Z</time></trkpt><trkpt lat="46.525717956163135" lon="9.329831923946129"><ele>1774.0</ele><time>2026-05-03T10:30:30.001Z</time></trkpt><trkpt lat="46.52591578757834" lon="9.329758970647674"><ele>1774.0</ele><time>2026-05-03T10:30:31.001Z</time></trkpt><trkpt lat="46.52611231886136" lon="9.329690206405859"><ele>1771.3333333333335</ele><time>2026-05-03T10:30:32.001Z</time></trkpt><trkpt lat="46.52629918725179" lon="9.32961941877361"><ele>1768.6666666666665</ele><time>2026-05-03T10:30:33.001Z</time></trkpt><trkpt lat="46.52647606597538" lon="9.329549045246457"><ele>1766.0</ele><time>2026-05-03T10:30:34.001Z</time></trkpt><trkpt lat="46.52665547818462" lon="9.329478385295618"><ele>1766.0</ele><time>2026-05-03T10:30:35.001Z</time></trkpt><trkpt lat="46.52683116076777" lon="9.329409978204945"><ele>1766.0</ele><time>2026-05-03T10:30:36.001Z</time></trkpt><trkpt lat="46.527008851980774" lon="9.32934209695847"><ele>1766.0</ele><time>2026-05-03T10:30:37.001Z</time></trkpt><trkpt lat="46.52718031999026" lon="9.329275277957123"><ele>1766.0</ele><time>2026-05-03T10:30:38.001Z</time></trkpt><trkpt lat="46.52733374239296" lon="9.329180020989963"><ele>1766.0</ele><time>2026-05-03T10:30:39.001Z</time></trkpt><trkpt lat="46.52746135256006" lon="9.329041070616219"><ele>1766.0</ele><time>2026-05-03T10:30:40.001Z</time></trkpt><trkpt lat="46.527575997707125" lon="9.328876209749685"><ele>1765.0</ele><time>2026-05-03T10:30:41.001Z</time></trkpt><trkpt lat="46.52767345442003" lon="9.328691624980443"><ele>1764.0</ele><time>2026-05-03T10:30:42.001Z</time></trkpt><trkpt lat="46.52774953999347" lon="9.32852471387995"><ele>1763.0</ele><time>2026-05-03T10:30:43.001Z</time></trkpt><trkpt lat="46.527836779123454" lon="9.328415033280946"><ele>1762.0</ele><time>2026-05-03T10:30:44.001Z</time></trkpt><trkpt lat="46.52794817425406" lon="9.328363705282326"><ele>1760.6666666666667</ele><time>2026-05-03T10:30:45.001Z</time></trkpt><trkpt lat="46.52808335972865" lon="9.328381278278997"><ele>1759.3333333333335</ele><time>2026-05-03T10:30:46.001Z</time></trkpt><trkpt lat="46.528240504233494" lon="9.328431957473782"><ele>1758.0</ele><time>2026-05-03T10:30:47.001Z</time></trkpt><trkpt lat="46.528418851194076" lon="9.328472779236627"><ele>1758.0</ele><time>2026-05-03T10:30:48.001Z</time></trkpt><trkpt lat="46.5285992141482" lon="9.328501098812247"><ele>1758.0</ele><time>2026-05-03T10:30:49.001Z</time></trkpt><trkpt lat="46.5287718820468" lon="9.328486502190652"><ele>1758.0</ele><time>2026-05-03T10:30:50.001Z</time></trkpt><trkpt lat="46.52894843255034" lon="9.328399738141783"><ele>1756.0</ele><time>2026-05-03T10:30:51.001Z</time></trkpt><trkpt lat="46.529120258226996" lon="9.328262848857044"><ele>1754.0</ele><time>2026-05-03T10:30:52.001Z</time></trkpt><trkpt lat="46.529270451695375" lon="9.328097453993713"><ele>1752.0</ele><time>2026-05-03T10:30:53.001Z</time></trkpt><trkpt lat="46.529421910205045" lon="9.327957991828207"><ele>1747.0</ele><time>2026-05-03T10:30:54.001Z</time></trkpt><trkpt lat="46.52958253667902" lon="9.327857940786636"><ele>1742.0</ele><time>2026-05-03T10:30:55.001Z</time></trkpt><trkpt lat="46.5297380143868" lon="9.327771527622406"><ele>1737.0</ele><time>2026-05-03T10:30:56.001Z</time></trkpt><trkpt lat="46.52988052826688" lon="9.327699078782528"><ele>1737.0</ele><time>2026-05-03T10:30:57.001Z</time></trkpt><trkpt lat="46.53001895239085" lon="9.327644265060826"><ele>1737.0</ele><time>2026-05-03T10:30:58.001Z</time></trkpt><trkpt lat="46.53017247614252" lon="9.327611918761919"><ele>1737.0</ele><time>2026-05-03T10:30:59.001Z</time></trkpt><trkpt lat="46.53033418957489" lon="9.327595672592546"><ele>1736.0</ele><time>2026-05-03T10:31:00.001Z</time></trkpt><trkpt lat="46.53050347777901" lon="9.327583475236265"><ele>1735.0</ele><time>2026-05-03T10:31:01.001Z</time></trkpt><trkpt lat="46.53067135447475" lon="9.327559146768674"><ele>1734.0</ele><time>2026-05-03T10:31:02.001Z</time></trkpt><trkpt lat="46.53084237364553" lon="9.327508247079603"><ele>1734.0</ele><time>2026-05-03T10:31:03.001Z</time></trkpt><trkpt lat="46.5310258479426" lon="9.327427410787173"><ele>1734.0</ele><time>2026-05-03T10:31:04.001Z</time></trkpt><trkpt lat="46.53120348834421" lon="9.327323130485242"><ele>1734.0</ele><time>2026-05-03T10:31:05.001Z</time></trkpt><trkpt lat="46.531383531705984" lon="9.32721374050862"><ele>1730.3333333333335</ele><time>2026-05-03T10:31:06.001Z</time></trkpt><trkpt lat="46.531567707111854" lon="9.32712252366971"><ele>1726.6666666666667</ele><time>2026-05-03T10:31:07.001Z</time></trkpt><trkpt lat="46.53174933586251" lon="9.327038295975512"><ele>1723.0</ele><time>2026-05-03T10:31:08.001Z</time></trkpt><trkpt lat="46.531928630540214" lon="9.326947131722577"><ele>1721.3333333333335</ele><time>2026-05-03T10:31:09.001Z</time></trkpt><trkpt lat="46.53210807353533" lon="9.326862940397062"><ele>1719.6666666666665</ele><time>2026-05-03T10:31:10.001Z</time></trkpt><trkpt lat="46.53229528352091" lon="9.326793346108609"><ele>1718.0</ele><time>2026-05-03T10:31:11.001Z</time></trkpt><trkpt lat="46.532482428968706" lon="9.326753287766886"><ele>1718.0</ele><time>2026-05-03T10:31:12.001Z</time></trkpt><trkpt lat="46.532673746764786" lon="9.326719027328346"><ele>1718.0</ele><time>2026-05-03T10:31:13.001Z</time></trkpt><trkpt lat="46.53285990479754" lon="9.326695451460413"><ele>1718.0</ele><time>2026-05-03T10:31:14.001Z</time></trkpt><trkpt lat="46.53304405105489" lon="9.326673690239712"><ele>1717.6666666666665</ele><time>2026-05-03T10:31:15.001Z</time></trkpt><trkpt lat="46.53322448154594" lon="9.326657227921928"><ele>1717.3333333333335</ele><time>2026-05-03T10:31:16.001Z</time></trkpt><trkpt lat="46.53340227124354" lon="9.326651745541048"><ele>1717.0</ele><time>2026-05-03T10:31:17.001Z</time></trkpt><trkpt lat="46.53357700665935" lon="9.326663492825881"><ele>1714.0</ele><time>2026-05-03T10:31:18.001Z</time></trkpt><trkpt lat="46.533747910494306" lon="9.326671169243033"><ele>1711.0</ele><time>2026-05-03T10:31:19.001Z</time></trkpt><trkpt lat="46.53390448769783" lon="9.32667488164907"><ele>1708.0</ele><time>2026-05-03T10:31:20.001Z</time></trkpt><trkpt lat="46.53404103536298" lon="9.326683890721613"><ele>1708.0</ele><time>2026-05-03T10:31:21.001Z</time></trkpt><trkpt lat="46.53416126648217" lon="9.326689678177697"><ele>1708.0000000000002</ele><time>2026-05-03T10:31:22.001Z</time></trkpt><trkpt lat="46.53426862062994" lon="9.326693961945066"><ele>1708.0000000000002</ele><time>2026-05-03T10:31:23.001Z</time></trkpt><trkpt lat="46.534373843003415" lon="9.32670248585995"><ele>1708.0</ele><time>2026-05-03T10:31:24.001Z</time></trkpt><trkpt lat="46.534455935645674" lon="9.326719828171871"><ele>1708.0</ele><time>2026-05-03T10:31:25.001Z</time></trkpt><trkpt lat="46.53451805538153" lon="9.326734848833688"><ele>1706.6666666666667</ele><time>2026-05-03T10:31:26.001Z</time></trkpt><trkpt lat="46.53458153784443" lon="9.326730980996055"><ele>1705.3333333333335</ele><time>2026-05-03T10:31:27.001Z</time></trkpt><trkpt lat="46.53464254267503" lon="9.326681050510626"><ele>1704.0</ele><time>2026-05-03T10:31:28.001Z</time></trkpt><trkpt lat="46.534676376430816" lon="9.32658297538435"><ele>1702.6666666666665</ele><time>2026-05-03T10:31:29.001Z</time></trkpt><trkpt lat="46.53468857111829" lon="9.32648499109619"><ele>1701.3333333333333</ele><time>2026-05-03T10:31:30.001Z</time></trkpt><trkpt lat="46.534714379561024" lon="9.32634134746735"><ele>1700.0</ele><time>2026-05-03T10:31:32.001Z</time></trkpt><trkpt lat="46.53481655004703" lon="9.326261192814208"><ele>1705.25</ele><time>2026-05-03T10:31:34.001Z</time></trkpt><trkpt lat="46.53490271986757" lon="9.32630479810342"><ele>1710.5</ele><time>2026-05-03T10:31:35.001Z</time></trkpt><trkpt lat="46.53501163318101" lon="9.326325827842476"><ele>1715.75</ele><time>2026-05-03T10:31:36.001Z</time></trkpt><trkpt lat="46.535132146373286" lon="9.326346026769881"><ele>1721.0</ele><time>2026-05-03T10:31:37.001Z</time></trkpt><trkpt lat="46.53525903427191" lon="9.326373033689041"><ele>1715.75</ele><time>2026-05-03T10:31:38.001Z</time></trkpt><trkpt lat="46.53538507028804" lon="9.326402016890427"><ele>1710.5</ele><time>2026-05-03T10:31:39.001Z</time></trkpt><trkpt lat="46.53549721648429" lon="9.326433510321694"><ele>1705.25</ele><time>2026-05-03T10:31:40.001Z</time></trkpt><trkpt lat="46.53561125167837" lon="9.326449337053967"><ele>1700.0</ele><time>2026-05-03T10:31:41.001Z</time></trkpt><trkpt lat="46.535736479172186" lon="9.326468809618133"><ele>1700.75</ele><time>2026-05-03T10:31:42.001Z</time></trkpt><trkpt lat="46.53585992454792" lon="9.32646438662393"><ele>1701.5</ele><time>2026-05-03T10:31:43.001Z</time></trkpt><trkpt lat="46.53599293959306" lon="9.326421709361988"><ele>1702.25</ele><time>2026-05-03T10:31:44.001Z</time></trkpt><trkpt lat="46.53616485148828" lon="9.326381862677346"><ele>1703.0</ele><time>2026-05-03T10:31:45.001Z</time></trkpt><trkpt lat="46.53635915100264" lon="9.326307497940206"><ele>1703.0</ele><time>2026-05-03T10:31:46.001Z</time></trkpt><trkpt lat="46.53654777357724" lon="9.32623515275887"><ele>1703.0</ele><time>2026-05-03T10:31:47.001Z</time></trkpt><trkpt lat="46.53671244671643" lon="9.32617474850612"><ele>1703.0</ele><time>2026-05-03T10:31:48.001Z</time></trkpt><trkpt lat="46.53686040424613" lon="9.326115587273836"><ele>1703.0</ele><time>2026-05-03T10:31:49.001Z</time></trkpt><trkpt lat="46.53697746461368" lon="9.326075259364167"><ele>1703.0</ele><time>2026-05-03T10:31:50.001Z</time></trkpt><trkpt lat="46.53708581771727" lon="9.326036347134398"><ele>1703.0</ele><time>2026-05-03T10:31:51.001Z</time></trkpt><trkpt lat="46.53718456415554" lon="9.326005065946761"><ele>1703.0</ele><time>2026-05-03T10:31:52.001Z</time></trkpt><trkpt lat="46.53728040047889" lon="9.325969201431228"><ele>1703.0</ele><time>2026-05-03T10:31:53.001Z</time></trkpt><trkpt lat="46.537370776588865" lon="9.325937287655137"><ele>1702.2</ele><time>2026-05-03T10:31:54.001Z</time></trkpt><trkpt lat="46.53746552702156" lon="9.325904516571308"><ele>1701.4</ele><time>2026-05-03T10:31:55.001Z</time></trkpt><trkpt lat="46.53756026478658" lon="9.325871535688941"><ele>1700.6000000000001</ele><time>2026-05-03T10:31:56.001Z</time></trkpt><trkpt lat="46.5376590394749" lon="9.325841331364606"><ele>1699.8000000000002</ele><time>2026-05-03T10:31:57.001Z</time></trkpt><trkpt lat="46.537754980981326" lon="9.325803227622973"><ele>1699.0</ele><time>2026-05-03T10:31:58Z</time></trkpt><trkpt lat="46.53784526397488" lon="9.325768872346899"><ele>1699.4</ele><time>2026-05-03T10:31:59Z</time></trkpt><trkpt lat="46.53793188170977" lon="9.32573236617461"><ele>1699.8000000000002</ele><time>2026-05-03T10:32:00Z</time></trkpt><trkpt lat="46.53801731433503" lon="9.325703325140843"><ele>1700.1999999999998</ele><time>2026-05-03T10:32:01Z</time></trkpt><trkpt lat="46.538107616952374" lon="9.325667437820616"><ele>1700.6</ele><time>2026-05-03T10:32:02Z</time></trkpt><trkpt lat="46.53821987464458" lon="9.325607511388519"><ele>1701.0</ele><time>2026-05-03T10:32:03Z</time></trkpt><trkpt lat="46.53835376952055" lon="9.325486496139503"><ele>1701.0</ele><time>2026-05-03T10:32:04Z</time></trkpt><trkpt lat="46.538511429255415" lon="9.325338272931916"><ele>1701.0</ele><time>2026-05-03T10:32:05Z</time></trkpt><trkpt lat="46.538654028305466" lon="9.325201252160674"><ele>1701.0</ele><time>2026-05-03T10:32:06Z</time></trkpt><trkpt lat="46.538791278977634" lon="9.325068450278875"><ele>1701.5</ele><time>2026-05-03T10:32:07Z</time></trkpt><trkpt lat="46.53892071753123" lon="9.324943875922319"><ele>1702.0</ele><time>2026-05-03T10:32:08Z</time></trkpt><trkpt lat="46.53904526390009" lon="9.32482431537242"><ele>1702.5</ele><time>2026-05-03T10:32:09Z</time></trkpt><trkpt lat="46.53915557111921" lon="9.324722565625866"><ele>1703.0</ele><time>2026-05-03T10:32:10Z</time></trkpt><trkpt lat="46.539257666760314" lon="9.324617106815225"><ele>1703.0</ele><time>2026-05-03T10:32:11Z</time></trkpt><trkpt lat="46.53936407566402" lon="9.324584616163639"><ele>1703.0</ele><time>2026-05-03T10:32:12Z</time></trkpt><trkpt lat="46.53947555584802" lon="9.32456775585665"><ele>1703.0</ele><time>2026-05-03T10:32:13Z</time></trkpt><trkpt lat="46.53959390111991" lon="9.324546303147814"><ele>1703.0</ele><time>2026-05-03T10:32:14Z</time></trkpt><trkpt lat="46.539764855677355" lon="9.324472492089386"><ele>1698.0</ele><time>2026-05-03T10:32:15Z</time></trkpt><trkpt lat="46.53992932550827" lon="9.324377014709807"><ele>1693.0</ele><time>2026-05-03T10:32:16Z</time></trkpt><trkpt lat="46.54008038630534" lon="9.324291462339618"><ele>1688.0</ele><time>2026-05-03T10:32:17Z</time></trkpt><trkpt lat="46.54022740555066" lon="9.324248794559113"><ele>1690.3333333333333</ele><time>2026-05-03T10:32:18Z</time></trkpt><trkpt lat="46.540383514699755" lon="9.324285762062948"><ele>1692.6666666666665</ele><time>2026-05-03T10:32:19Z</time></trkpt><trkpt lat="46.54054378032369" lon="9.324342287258105"><ele>1695.0</ele><time>2026-05-03T10:32:20Z</time></trkpt><trkpt lat="46.54069743799391" lon="9.3244046878218"><ele>1695.0</ele><time>2026-05-03T10:32:21Z</time></trkpt><trkpt lat="46.54083548331506" lon="9.324483352879815"><ele>1695.0</ele><time>2026-05-03T10:32:22Z</time></trkpt><trkpt lat="46.54096338472134" lon="9.32457671398615"><ele>1695.0</ele><time>2026-05-03T10:32:23Z</time></trkpt><trkpt lat="46.54108249428233" lon="9.324687931851068"><ele>1695.0</ele><time>2026-05-03T10:32:24Z</time></trkpt><trkpt lat="46.54119021989583" lon="9.324833873886474"><ele>1690.6666666666665</ele><time>2026-05-03T10:32:25Z</time></trkpt><trkpt lat="46.54131677096229" lon="9.325007243148233"><ele>1686.3333333333333</ele><time>2026-05-03T10:32:26Z</time></trkpt><trkpt lat="46.54146741701686" lon="9.325139214799067"><ele>1682.0</ele><time>2026-05-03T10:32:27Z</time></trkpt><trkpt lat="46.541594963135665" lon="9.325246013203229"><ele>1682.0</ele><time>2026-05-03T10:32:28Z</time></trkpt><trkpt lat="46.54170492561869" lon="9.325381225230684"><ele>1682.0</ele><time>2026-05-03T10:32:29Z</time></trkpt><trkpt lat="46.54180210103315" lon="9.325512864105983"><ele>1682.0</ele><time>2026-05-03T10:32:30Z</time></trkpt><trkpt lat="46.541875049615996" lon="9.325618846909776"><ele>1682.0</ele><time>2026-05-03T10:32:31Z</time></trkpt><trkpt lat="46.54192192237378" lon="9.325731257793795"><ele>1678.857142857143</ele><time>2026-05-03T10:32:32Z</time></trkpt><trkpt lat="46.54193970712203" lon="9.325852711103876"><ele>1675.7142857142856</ele><time>2026-05-03T10:32:33Z</time></trkpt><trkpt lat="46.541965999091005" lon="9.325945970905805"><ele>1672.5714285714284</ele><time>2026-05-03T10:32:34Z</time></trkpt><trkpt lat="46.541999932766615" lon="9.326046320284485"><ele>1669.4285714285716</ele><time>2026-05-03T10:32:35Z</time></trkpt><trkpt lat="46.542040461572846" lon="9.326130656850319"><ele>1666.2857142857142</ele><time>2026-05-03T10:32:36Z</time></trkpt><trkpt lat="46.54209261416918" lon="9.326191811922117"><ele>1663.142857142857</ele><time>2026-05-03T10:32:37Z</time></trkpt><trkpt lat="46.54215598445679" lon="9.326232788583134"><ele>1660.0</ele><time>2026-05-03T10:32:38Z</time></trkpt><trkpt lat="46.54223717307052" lon="9.326208952089214"><ele>1660.0</ele><time>2026-05-03T10:32:39Z</time></trkpt><trkpt lat="46.54230629032948" lon="9.326196111936543"><ele>1660.0</ele><time>2026-05-03T10:32:40Z</time></trkpt><trkpt lat="46.54237111345323" lon="9.326143964442066"><ele>1660.0</ele><time>2026-05-03T10:32:41Z</time></trkpt><trkpt lat="46.542421508532634" lon="9.326064623508135"><ele>1660.0</ele><time>2026-05-03T10:32:42Z</time></trkpt><trkpt lat="46.542456685211825" lon="9.325975508412354"><ele>1660.0</ele><time>2026-05-03T10:32:43Z</time></trkpt><trkpt lat="46.542482172308326" lon="9.325870367711744"><ele>1660.0</ele><time>2026-05-03T10:32:44Z</time></trkpt><trkpt lat="46.542501370951065" lon="9.325768965893175"><ele>1660.0</ele><time>2026-05-03T10:32:45Z</time></trkpt><trkpt lat="46.542536470864796" lon="9.32568674650453"><ele>1660.0000000000002</ele><time>2026-05-03T10:32:46Z</time></trkpt><trkpt lat="46.54259618233553" lon="9.325604881264718"><ele>1660.0</ele><time>2026-05-03T10:32:47Z</time></trkpt><trkpt lat="46.54263352290808" lon="9.325520331249276"><ele>1660.0</ele><time>2026-05-03T10:32:48Z</time></trkpt><trkpt lat="46.542650623889465" lon="9.325402128357231"><ele>1660.0</ele><time>2026-05-03T10:32:49Z</time></trkpt><trkpt lat="46.542656713938015" lon="9.325291943979666"><ele>1660.0000000000002</ele><time>2026-05-03T10:32:50Z</time></trkpt><trkpt lat="46.542652382964405" lon="9.32517956477601"><ele>1660.0</ele><time>2026-05-03T10:32:51Z</time></trkpt><trkpt lat="46.54265664826955" lon="9.325079376105482"><ele>1657.0000000000002</ele><time>2026-05-03T10:32:52.001Z</time></trkpt><trkpt lat="46.54267332326186" lon="9.324985230421992"><ele>1654.0</ele><time>2026-05-03T10:32:53.001Z</time></trkpt><trkpt lat="46.542703685597324" lon="9.324896944870648"><ele>1651.0</ele><time>2026-05-03T10:32:54.001Z</time></trkpt><trkpt lat="46.54276064903639" lon="9.324812289666115"><ele>1648.0</ele><time>2026-05-03T10:32:55.001Z</time></trkpt><trkpt lat="46.54283275076618" lon="9.32476031007238"><ele>1645.0000000000002</ele><time>2026-05-03T10:32:56.001Z</time></trkpt><trkpt lat="46.542912193921886" lon="9.324765712886379"><ele>1642.0</ele><time>2026-05-03T10:32:57.001Z</time></trkpt><trkpt lat="46.54299878989287" lon="9.324747020082823"><ele>1642.0</ele><time>2026-05-03T10:32:58.001Z</time></trkpt><trkpt lat="46.54309446087629" lon="9.324730158672677"><ele>1642.0</ele><time>2026-05-03T10:32:59.001Z</time></trkpt><trkpt lat="46.54318744134379" lon="9.324714560636307"><ele>1642.0</ele><time>2026-05-03T10:33:00.001Z</time></trkpt><trkpt lat="46.54327791513316" lon="9.324696252245467"><ele>1642.0</ele><time>2026-05-03T10:33:01.001Z</time></trkpt><trkpt lat="46.54336712346297" lon="9.3246384850631"><ele>1642.0</ele><time>2026-05-03T10:33:02.001Z</time></trkpt><trkpt lat="46.54344435643118" lon="9.324567504456276"><ele>1639.1999999999998</ele><time>2026-05-03T10:33:03.001Z</time></trkpt><trkpt lat="46.54351519793896" lon="9.32446112123169"><ele>1636.4</ele><time>2026-05-03T10:33:04.001Z</time></trkpt><trkpt lat="46.54358186696554" lon="9.32432579537766"><ele>1633.6</ele><time>2026-05-03T10:33:05.001Z</time></trkpt><trkpt lat="46.54364137969726" lon="9.32418612472861"><ele>1630.8000000000002</ele><time>2026-05-03T10:33:06.001Z</time></trkpt><trkpt lat="46.54372090582231" lon="9.32408291669137"><ele>1628.0</ele><time>2026-05-03T10:33:07.001Z</time></trkpt><trkpt lat="46.54381908750999" lon="9.323968491735581"><ele>1631.25</ele><time>2026-05-03T10:33:08.001Z</time></trkpt><trkpt lat="46.54394358284486" lon="9.323824213708306"><ele>1634.5</ele><time>2026-05-03T10:33:09.001Z</time></trkpt><trkpt lat="46.544050488713246" lon="9.323703326429758"><ele>1637.75</ele><time>2026-05-03T10:33:10.001Z</time></trkpt><trkpt lat="46.544135438531946" lon="9.323607294550868"><ele>1641.0</ele><time>2026-05-03T10:33:11.001Z</time></trkpt><trkpt lat="46.544205272466925" lon="9.323522004326476"><ele>1641.0</ele><time>2026-05-03T10:33:12.001Z</time></trkpt><trkpt lat="46.544249697626164" lon="9.323440043925952"><ele>1641.0</ele><time>2026-05-03T10:33:13.001Z</time></trkpt><trkpt lat="46.544289509761256" lon="9.323368933662787"><ele>1641.0</ele><time>2026-05-03T10:33:14.001Z</time></trkpt><trkpt lat="46.5443162105509" lon="9.323280212987559"><ele>1641.0</ele><time>2026-05-03T10:33:15.001Z</time></trkpt><trkpt lat="46.54432989713324" lon="9.323180401600803"><ele>1641.0</ele><time>2026-05-03T10:33:16.001Z</time></trkpt><trkpt lat="46.54432119161198" lon="9.323052523580115"><ele>1641.0</ele><time>2026-05-03T10:33:17.001Z</time></trkpt><trkpt lat="46.544301142151895" lon="9.322915977825637"><ele>1639.4</ele><time>2026-05-03T10:33:18.001Z</time></trkpt><trkpt lat="46.5442756687062" lon="9.32277889777114"><ele>1637.8</ele><time>2026-05-03T10:33:19.001Z</time></trkpt><trkpt lat="46.544246356236364" lon="9.322645393191333"><ele>1636.2</ele><time>2026-05-03T10:33:20.001Z</time></trkpt><trkpt lat="46.54420128681262" lon="9.322512946766969"><ele>1634.6000000000001</ele><time>2026-05-03T10:33:21.001Z</time></trkpt><trkpt lat="46.544138004354885" lon="9.322390710615766"><ele>1633.0</ele><time>2026-05-03T10:33:22.001Z</time></trkpt><trkpt lat="46.544070912128525" lon="9.322291306651238"><ele>1631.1666666666667</ele><time>2026-05-03T10:33:23.001Z</time></trkpt><trkpt lat="46.544009629998" lon="9.322207074706544"><ele>1629.3333333333335</ele><time>2026-05-03T10:33:24.001Z</time></trkpt><trkpt lat="46.543954551605104" lon="9.322124958523219"><ele>1627.5</ele><time>2026-05-03T10:33:25.001Z</time></trkpt><trkpt lat="46.54390476289113" lon="9.322026154354567"><ele>1625.6666666666665</ele><time>2026-05-03T10:33:26.001Z</time></trkpt><trkpt lat="46.54387278756565" lon="9.321911074150721"><ele>1623.8333333333333</ele><time>2026-05-03T10:33:27.001Z</time></trkpt><trkpt lat="46.54387192191941" lon="9.32178446658885"><ele>1622.0</ele><time>2026-05-03T10:33:28.001Z</time></trkpt><trkpt lat="46.54388607613781" lon="9.321654262809995"><ele>1622.0</ele><time>2026-05-03T10:33:29.001Z</time></trkpt><trkpt lat="46.543911714285" lon="9.321477185660266"><ele>1622.0</ele><time>2026-05-03T10:33:30.001Z</time></trkpt><trkpt lat="46.54395905112744" lon="9.32123325392056"><ele>1622.0</ele><time>2026-05-03T10:33:31.001Z</time></trkpt><trkpt lat="46.54402618298987" lon="9.320979970643252"><ele>1622.0</ele><time>2026-05-03T10:33:32.001Z</time></trkpt><trkpt lat="46.5440860662388" lon="9.320778224799662"><ele>1622.0</ele><time>2026-05-03T10:33:33.001Z</time></trkpt><trkpt lat="46.54411726820822" lon="9.320577175217982"><ele>1622.0</ele><time>2026-05-03T10:33:34.001Z</time></trkpt><trkpt lat="46.54413494214203" lon="9.320402478332383"><ele>1622.0</ele><time>2026-05-03T10:33:35.001Z</time></trkpt><trkpt lat="46.544132473013" lon="9.320253942746113"><ele>1622.0</ele><time>2026-05-03T10:33:36.001Z</time></trkpt><trkpt lat="46.54414352119669" lon="9.320147116811754"><ele>1622.0</ele><time>2026-05-03T10:33:37.001Z</time></trkpt><trkpt lat="46.54425640351143" lon="9.320147652459802"><ele>1622.0</ele><time>2026-05-03T10:33:39.001Z</time></trkpt><trkpt lat="46.54428992763095" lon="9.32041635014436"><ele>1622.0</ele><time>2026-05-03T10:33:41.001Z</time></trkpt><trkpt lat="46.54428629215486" lon="9.320639652139157"><ele>1622.0</ele><time>2026-05-03T10:33:42.001Z</time></trkpt><trkpt lat="46.544289987617134" lon="9.320888332268773"><ele>1622.0</ele><time>2026-05-03T10:33:43.001Z</time></trkpt><trkpt lat="46.544279616656716" lon="9.321149525875805"><ele>1622.0</ele><time>2026-05-03T10:33:44.001Z</time></trkpt><trkpt lat="46.5442762893742" lon="9.321409248707047"><ele>1622.0</ele><time>2026-05-03T10:33:45.001Z</time></trkpt><trkpt lat="46.544297462506506" lon="9.321592834292963"><ele>1622.0</ele><time>2026-05-03T10:33:46.001Z</time></trkpt><trkpt lat="46.54437576169995" lon="9.321756033643354"><ele>1622.0</ele><time>2026-05-03T10:33:47.001Z</time></trkpt><trkpt lat="46.54451797982251" lon="9.321883707519937"><ele>1622.0</ele><time>2026-05-03T10:33:48.001Z</time></trkpt><trkpt lat="46.54471046852835" lon="9.321982569438475"><ele>1615.6666666666665</ele><time>2026-05-03T10:33:49.001Z</time></trkpt><trkpt lat="46.544909789227624" lon="9.322113836048798"><ele>1609.3333333333335</ele><time>2026-05-03T10:33:50.001Z</time></trkpt><trkpt lat="46.545087438953026" lon="9.322275933345253"><ele>1603.0</ele><time>2026-05-03T10:33:51.001Z</time></trkpt><trkpt lat="46.54523901109554" lon="9.32244383680409"><ele>1603.0</ele><time>2026-05-03T10:33:52.001Z</time></trkpt><trkpt lat="46.54537503951209" lon="9.322606389355192"><ele>1603.0</ele><time>2026-05-03T10:33:53.001Z</time></trkpt><trkpt lat="46.545490245659934" lon="9.322766416680311"><ele>1603.0</ele><time>2026-05-03T10:33:54.001Z</time></trkpt><trkpt lat="46.54558391104817" lon="9.322935437965628"><ele>1596.5</ele><time>2026-05-03T10:33:55.001Z</time></trkpt><trkpt lat="46.54561395287712" lon="9.323134701879898"><ele>1590.0</ele><time>2026-05-03T10:33:56.001Z</time></trkpt><trkpt lat="46.5456328758684" lon="9.323310903247041"><ele>1583.5</ele><time>2026-05-03T10:33:57.001Z</time></trkpt><trkpt lat="46.54564955040913" lon="9.323479403854442"><ele>1577.0</ele><time>2026-05-03T10:33:58.001Z</time></trkpt><trkpt lat="46.54567333072531" lon="9.323606360521142"><ele>1577.0</ele><time>2026-05-03T10:33:59.001Z</time></trkpt><trkpt lat="46.54572247356436" lon="9.3237377180781"><ele>1577.0</ele><time>2026-05-03T10:34:01.001Z</time></trkpt><trkpt lat="46.54583778634509" lon="9.323607966656821"><ele>1577.0</ele><time>2026-05-03T10:34:03.001Z</time></trkpt><trkpt lat="46.545859620187855" lon="9.323450081302848"><ele>1577.0</ele><time>2026-05-03T10:34:04Z</time></trkpt><trkpt lat="46.54584786290902" lon="9.323245923374957"><ele>1573.0</ele><time>2026-05-03T10:34:05Z</time></trkpt><trkpt lat="46.54582014669464" lon="9.323023514245701"><ele>1569.0</ele><time>2026-05-03T10:34:06Z</time></trkpt><trkpt lat="46.54580008259899" lon="9.322809533775374"><ele>1565.0</ele><time>2026-05-03T10:34:07Z</time></trkpt><trkpt lat="46.54579133242639" lon="9.322588108893218"><ele>1565.0</ele><time>2026-05-03T10:34:08Z</time></trkpt><trkpt lat="46.54576929552259" lon="9.322381706746404"><ele>1565.0</ele><time>2026-05-03T10:34:09Z</time></trkpt><trkpt lat="46.54573215793357" lon="9.322189052376071"><ele>1565.0</ele><time>2026-05-03T10:34:10Z</time></trkpt><trkpt lat="46.5456868474294" lon="9.322009216050802"><ele>1565.0</ele><time>2026-05-03T10:34:11Z</time></trkpt><trkpt lat="46.54563972157559" lon="9.321830720517923"><ele>1561.0</ele><time>2026-05-03T10:34:12Z</time></trkpt><trkpt lat="46.54560262541587" lon="9.32163719332011"><ele>1557.0</ele><time>2026-05-03T10:34:13Z</time></trkpt><trkpt lat="46.54558350305312" lon="9.321420412640698"><ele>1553.0</ele><time>2026-05-03T10:34:14Z</time></trkpt><trkpt lat="46.545592757154985" lon="9.32118165636508"><ele>1553.0</ele><time>2026-05-03T10:34:15Z</time></trkpt><trkpt lat="46.54561379401923" lon="9.320950501173716"><ele>1553.0</ele><time>2026-05-03T10:34:16Z</time></trkpt><trkpt lat="46.545634155961835" lon="9.320741016185492"><ele>1553.0</ele><time>2026-05-03T10:34:17Z</time></trkpt><trkpt lat="46.54563854392169" lon="9.320571484317318"><ele>1553.0</ele><time>2026-05-03T10:34:18Z</time></trkpt><trkpt lat="46.54564273835638" lon="9.320434692272809"><ele>1552.9999999999998</ele><time>2026-05-03T10:34:19Z</time></trkpt><trkpt lat="46.54567701482228" lon="9.320338165437647"><ele>1553.0</ele><time>2026-05-03T10:34:20Z</time></trkpt><trkpt lat="46.545736326055994" lon="9.320306115838726"><ele>1553.0</ele><time>2026-05-03T10:34:21Z</time></trkpt><trkpt lat="46.54580024040017" lon="9.320344264975137"><ele>1553.0</ele><time>2026-05-03T10:34:22Z</time></trkpt><trkpt lat="46.545850671948706" lon="9.32044544511888"><ele>1552.9999999999998</ele><time>2026-05-03T10:34:23Z</time></trkpt><trkpt lat="46.54585303528771" lon="9.32063170353879"><ele>1553.0</ele><time>2026-05-03T10:34:24Z</time></trkpt><trkpt lat="46.54589527109778" lon="9.320866878053168"><ele>1553.0</ele><time>2026-05-03T10:34:25Z</time></trkpt><trkpt lat="46.54594409047449" lon="9.321108041644095"><ele>1553.0</ele><time>2026-05-03T10:34:26Z</time></trkpt><trkpt lat="46.54597941770501" lon="9.321355847342257"><ele>1553.0</ele><time>2026-05-03T10:34:27Z</time></trkpt><trkpt lat="46.54604136980769" lon="9.321586592001571"><ele>1553.0</ele><time>2026-05-03T10:34:28Z</time></trkpt><trkpt lat="46.54610979774059" lon="9.321802295207604"><ele>1553.0</ele><time>2026-05-03T10:34:29Z</time></trkpt><trkpt lat="46.54622752854522" lon="9.321978209118877"><ele>1553.0</ele><time>2026-05-03T10:34:30Z</time></trkpt><trkpt lat="46.546366960794195" lon="9.32212370511931"><ele>1549.0</ele><time>2026-05-03T10:34:31Z</time></trkpt><trkpt lat="46.54648381735681" lon="9.322268464303903"><ele>1545.0</ele><time>2026-05-03T10:34:32Z</time></trkpt><trkpt lat="46.54654145576441" lon="9.322463169732345"><ele>1541.0</ele><time>2026-05-03T10:34:33Z</time></trkpt><trkpt lat="46.54658228728392" lon="9.322638038899365"><ele>1537.0</ele><time>2026-05-03T10:34:34Z</time></trkpt><trkpt lat="46.54663128345757" lon="9.32276577672137"><ele>1537.0</ele><time>2026-05-03T10:34:35Z</time></trkpt><trkpt lat="46.54668037111993" lon="9.322850672029615"><ele>1537.0</ele><time>2026-05-03T10:34:36Z</time></trkpt><trkpt lat="46.54675842503986" lon="9.322882668589108"><ele>1537.0</ele><time>2026-05-03T10:34:37Z</time></trkpt><trkpt lat="46.54684347840516" lon="9.322832002537261"><ele>1537.0</ele><time>2026-05-03T10:34:38Z</time></trkpt><trkpt lat="46.54687238718249" lon="9.322558099120885"><ele>1537.0</ele><time>2026-05-03T10:34:40Z</time></trkpt><trkpt lat="46.54683187392022" lon="9.322369674179257"><ele>1535.3333333333335</ele><time>2026-05-03T10:34:41Z</time></trkpt><trkpt lat="46.5468053363759" lon="9.322151293299438"><ele>1533.6666666666667</ele><time>2026-05-03T10:34:42Z</time></trkpt><trkpt lat="46.54678529210114" lon="9.321905251620786"><ele>1532.0</ele><time>2026-05-03T10:34:43Z</time></trkpt><trkpt lat="46.546754589613585" lon="9.321652548647833"><ele>1532.0</ele><time>2026-05-03T10:34:44Z</time></trkpt><trkpt lat="46.546736547043196" lon="9.321413807752485"><ele>1532.0</ele><time>2026-05-03T10:34:45Z</time></trkpt><trkpt lat="46.5467127616173" lon="9.32117227643326"><ele>1532.0</ele><time>2026-05-03T10:34:46Z</time></trkpt><trkpt lat="46.54669280365913" lon="9.320940911320164"><ele>1530.75</ele><time>2026-05-03T10:34:47Z</time></trkpt><trkpt lat="46.546668881698665" lon="9.320720833601163"><ele>1529.5</ele><time>2026-05-03T10:34:48Z</time></trkpt><trkpt lat="46.546651392686194" lon="9.320528126516425"><ele>1528.25</ele><time>2026-05-03T10:34:49Z</time></trkpt><trkpt lat="46.546631231675065" lon="9.320384589531429"><ele>1527.0</ele><time>2026-05-03T10:34:50Z</time></trkpt><trkpt lat="46.54661629517652" lon="9.320281453961199"><ele>1527.0</ele><time>2026-05-03T10:34:51Z</time></trkpt><trkpt lat="46.54661681528896" lon="9.320189743387502"><ele>1527.0</ele><time>2026-05-03T10:34:52Z</time></trkpt><trkpt lat="46.54672420602918" lon="9.32017785985206"><ele>1527.0</ele><time>2026-05-03T10:34:54Z</time></trkpt><trkpt lat="46.54675970306572" lon="9.320332733261735"><ele>1527.0</ele><time>2026-05-03T10:34:55Z</time></trkpt><trkpt lat="46.54682529024733" lon="9.32051170571993"><ele>1527.0</ele><time>2026-05-03T10:34:56Z</time></trkpt><trkpt lat="46.54690163574683" lon="9.320706688863583"><ele>1527.0</ele><time>2026-05-03T10:34:57Z</time></trkpt><trkpt lat="46.54699062693996" lon="9.320905722423879"><ele>1527.0</ele><time>2026-05-03T10:34:58Z</time></trkpt><trkpt lat="46.547076097142416" lon="9.321105881826387"><ele>1527.0</ele><time>2026-05-03T10:34:59Z</time></trkpt><trkpt lat="46.54715585777716" lon="9.321306246773782"><ele>1521.25</ele><time>2026-05-03T10:35:00Z</time></trkpt><trkpt lat="46.54722644313264" lon="9.321488519038498"><ele>1515.5</ele><time>2026-05-03T10:35:01Z</time></trkpt><trkpt lat="46.54729498376919" lon="9.321661036300776"><ele>1509.75</ele><time>2026-05-03T10:35:02Z</time></trkpt><trkpt lat="46.54736170727626" lon="9.32183563680891"><ele>1504.0</ele><time>2026-05-03T10:35:03Z</time></trkpt><trkpt lat="46.547417883405146" lon="9.322009913612998"><ele>1504.0</ele><time>2026-05-03T10:35:04Z</time></trkpt><trkpt lat="46.54747258080876" lon="9.322198418267396"><ele>1504.0</ele><time>2026-05-03T10:35:05Z</time></trkpt><trkpt lat="46.54752250161534" lon="9.322404744903025"><ele>1504.0</ele><time>2026-05-03T10:35:06Z</time></trkpt><trkpt lat="46.54757380723366" lon="9.322603288972"><ele>1504.0</ele><time>2026-05-03T10:35:07Z</time></trkpt><trkpt lat="46.54761238700727" lon="9.322790347718383"><ele>1505.0</ele><time>2026-05-03T10:35:08Z</time></trkpt><trkpt lat="46.547650730908956" lon="9.322983569200336"><ele>1506.0</ele><time>2026-05-03T10:35:09Z</time></trkpt><trkpt lat="46.54769231903063" lon="9.323142245737326"><ele>1507.0</ele><time>2026-05-03T10:35:10Z</time></trkpt><trkpt lat="46.54773163274675" lon="9.3232870928066"><ele>1508.0</ele><time>2026-05-03T10:35:11Z</time></trkpt><trkpt lat="46.54777723894898" lon="9.323425222090274"><ele>1508.2</ele><time>2026-05-03T10:35:12Z</time></trkpt><trkpt lat="46.547837944894454" lon="9.32355420221462"><ele>1508.4</ele><time>2026-05-03T10:35:13Z</time></trkpt><trkpt lat="46.54790022748533" lon="9.32368510910783"><ele>1508.6000000000001</ele><time>2026-05-03T10:35:14Z</time></trkpt><trkpt lat="46.54797521157917" lon="9.323793828318799"><ele>1508.8000000000002</ele><time>2026-05-03T10:35:15Z</time></trkpt><trkpt lat="46.54806065412634" lon="9.32388963731286"><ele>1509.0</ele><time>2026-05-03T10:35:16Z</time></trkpt><trkpt lat="46.54814633097452" lon="9.323964771436227"><ele>1506.8000000000002</ele><time>2026-05-03T10:35:17Z</time></trkpt><trkpt lat="46.54823868166393" lon="9.323995796375545"><ele>1504.6000000000001</ele><time>2026-05-03T10:35:18Z</time></trkpt><trkpt lat="46.54834111271922" lon="9.323962512535449"><ele>1502.4</ele><time>2026-05-03T10:35:19Z</time></trkpt><trkpt lat="46.548433969408705" lon="9.32388043504743"><ele>1500.2</ele><time>2026-05-03T10:35:20Z</time></trkpt><trkpt lat="46.54850787888255" lon="9.323760279690449"><ele>1498.0</ele><time>2026-05-03T10:35:21Z</time></trkpt><trkpt lat="46.54857066490916" lon="9.32364705802212"><ele>1498.0</ele><time>2026-05-03T10:35:22Z</time></trkpt><trkpt lat="46.548635304716434" lon="9.323536435244883"><ele>1498.0</ele><time>2026-05-03T10:35:23Z</time></trkpt><trkpt lat="46.548700361491605" lon="9.323443362944028"><ele>1498.0</ele><time>2026-05-03T10:35:24Z</time></trkpt><trkpt lat="46.548775684511014" lon="9.323362337684786"><ele>1498.0</ele><time>2026-05-03T10:35:25Z</time></trkpt><trkpt lat="46.548880984663754" lon="9.323365549662087"><ele>1498.0</ele><time>2026-05-03T10:35:26Z</time></trkpt><trkpt lat="46.54899704060868" lon="9.323359956589439"><ele>1495.5</ele><time>2026-05-03T10:35:27Z</time></trkpt><trkpt lat="46.54911438198332" lon="9.32336071632785"><ele>1493.0</ele><time>2026-05-03T10:35:28Z</time></trkpt><trkpt lat="46.549231835488634" lon="9.323338506869073"><ele>1490.5</ele><time>2026-05-03T10:35:29Z</time></trkpt><trkpt lat="46.54935031225961" lon="9.323339990594668"><ele>1488.0</ele><time>2026-05-03T10:35:30.001Z</time></trkpt><trkpt lat="46.54947438498207" lon="9.323342465515884"><ele>1485.8000000000002</ele><time>2026-05-03T10:35:31.001Z</time></trkpt><trkpt lat="46.54960554283736" lon="9.323348291002803"><ele>1483.6</ele><time>2026-05-03T10:35:32.001Z</time></trkpt><trkpt lat="46.54970983665986" lon="9.323349954115818"><ele>1481.4</ele><time>2026-05-03T10:35:33.001Z</time></trkpt><trkpt lat="46.54981389476077" lon="9.323347571189592"><ele>1479.1999999999998</ele><time>2026-05-03T10:35:34.001Z</time></trkpt><trkpt lat="46.549907848894925" lon="9.3233507302391"><ele>1477.0</ele><time>2026-05-03T10:35:35.001Z</time></trkpt><trkpt lat="46.55000968046353" lon="9.323355237808613"><ele>1477.0</ele><time>2026-05-03T10:35:36.001Z</time></trkpt><trkpt lat="46.55010566579804" lon="9.323353381444452"><ele>1477.0</ele><time>2026-05-03T10:35:37.001Z</time></trkpt><trkpt lat="46.55020502287061" lon="9.323359754525596"><ele>1477.0</ele><time>2026-05-03T10:35:38.001Z</time></trkpt><trkpt lat="46.55031045209873" lon="9.323366602081427"><ele>1477.0</ele><time>2026-05-03T10:35:39.001Z</time></trkpt><trkpt lat="46.55041732170908" lon="9.323360275208664"><ele>1477.0</ele><time>2026-05-03T10:35:40.001Z</time></trkpt><trkpt lat="46.550521201001125" lon="9.323364193273388"><ele>1475.6</ele><time>2026-05-03T10:35:41.001Z</time></trkpt><trkpt lat="46.55062302643076" lon="9.323361103627432"><ele>1474.1999999999998</ele><time>2026-05-03T10:35:42.001Z</time></trkpt><trkpt lat="46.55072132797797" lon="9.323361892111425"><ele>1472.8</ele><time>2026-05-03T10:35:43.001Z</time></trkpt><trkpt lat="46.55080372966682" lon="9.323364642165075"><ele>1471.4</ele><time>2026-05-03T10:35:44.001Z</time></trkpt><trkpt lat="46.55091184914484" lon="9.32336059225079"><ele>1470.0</ele><time>2026-05-03T10:35:46.001Z</time></trkpt><trkpt lat="46.55097569375842" lon="9.32336270268294"><ele>1470.0</ele><time>2026-05-03T10:35:47.001Z</time></trkpt><trkpt lat="46.5510943229867" lon="9.32336703337121"><ele>1470.0</ele><time>2026-05-03T10:35:49.001Z</time></trkpt><trkpt lat="46.551159404453365" lon="9.323371069553158"><ele>1470.0</ele><time>2026-05-03T10:35:50.001Z</time></trkpt><trkpt lat="46.551226663118264" lon="9.323373102569693"><ele>1470.0</ele><time>2026-05-03T10:35:51.001Z</time></trkpt><trkpt lat="46.551296062511646" lon="9.323375715569128"><ele>1470.0</ele><time>2026-05-03T10:35:52.001Z</time></trkpt><trkpt lat="46.55135937195938" lon="9.323376651554181"><ele>1470.0</ele><time>2026-05-03T10:35:53.001Z</time></trkpt><trkpt lat="46.551488234475634" lon="9.323378687516064"><ele>1469.0</ele><time>2026-05-03T10:35:55.001Z</time></trkpt><trkpt lat="46.55155241579125" lon="9.323381890602642"><ele>1468.0</ele><time>2026-05-03T10:35:56.001Z</time></trkpt><trkpt lat="46.551624189078474" lon="9.323385253731406"><ele>1467.0</ele><time>2026-05-03T10:35:57.001Z</time></trkpt><trkpt lat="46.551696611550994" lon="9.32338270177435"><ele>1466.0</ele><time>2026-05-03T10:35:58.001Z</time></trkpt><trkpt lat="46.5517669242448" lon="9.323378108917984"><ele>1465.0</ele><time>2026-05-03T10:35:59.001Z</time></trkpt><trkpt lat="46.551835661534376" lon="9.323380467764016"><ele>1464.0</ele><time>2026-05-03T10:36:00.001Z</time></trkpt><trkpt lat="46.55190145951759" lon="9.323383363491331"><ele>1463.0</ele><time>2026-05-03T10:36:01.001Z</time></trkpt><trkpt lat="46.55196805110712" lon="9.323377417727995"><ele>1463.0</ele><time>2026-05-03T10:36:02.001Z</time></trkpt><trkpt lat="46.55203385548665" lon="9.323387053603335"><ele>1463.0</ele><time>2026-05-03T10:36:03.001Z</time></trkpt><trkpt lat="46.552100224892264" lon="9.32337588820101"><ele>1463.0</ele><time>2026-05-03T10:36:04.001Z</time></trkpt><trkpt lat="46.55217103056999" lon="9.323371377960713"><ele>1463.0</ele><time>2026-05-03T10:36:05.001Z</time></trkpt><trkpt lat="46.55224160786158" lon="9.323376521837092"><ele>1463.0</ele><time>2026-05-03T10:36:06.001Z</time></trkpt><trkpt lat="46.552310445983956" lon="9.323380202019692"><ele>1463.0</ele><time>2026-05-03T10:36:07.001Z</time></trkpt><trkpt lat="46.55237985957261" lon="9.323381197470283"><ele>1463.0</ele><time>2026-05-03T10:36:08.001Z</time></trkpt><trkpt lat="46.55245158768939" lon="9.323379564385357"><ele>1462.4</ele><time>2026-05-03T10:36:09.001Z</time></trkpt><trkpt lat="46.552524794502204" lon="9.323386462095236"><ele>1461.8000000000002</ele><time>2026-05-03T10:36:10Z</time></trkpt><trkpt lat="46.55264091925262" lon="9.32338525004575"><ele>1461.2</ele><time>2026-05-03T10:36:11.999Z</time></trkpt><trkpt lat="46.55273227225434" lon="9.323382404470427"><ele>1460.6</ele><time>2026-05-03T10:36:14Z</time></trkpt><trkpt lat="46.5528166163793" lon="9.32336699289276"><ele>1460.0</ele><time>2026-05-03T10:36:16Z</time></trkpt><trkpt lat="46.5528415669323" lon="9.323239377334756"><ele>1460.0</ele><time>2026-05-03T10:36:17Z</time></trkpt><trkpt lat="46.552850924978536" lon="9.323142370270874"><ele>1460.0</ele><time>2026-05-03T10:36:18Z</time></trkpt><trkpt lat="46.55284096291031" lon="9.322969107283116"><ele>1460.0</ele><time>2026-05-03T10:36:20Z</time></trkpt><trkpt lat="46.55284289350636" lon="9.322805984299004"><ele>1460.0</ele><time>2026-05-03T10:36:22Z</time></trkpt><trkpt lat="46.552840987307505" lon="9.32271177783311"><ele>1460.0</ele><time>2026-05-03T10:36:23Z</time></trkpt><trkpt lat="46.55283862601746" lon="9.322539350561224"><ele>1459.8</ele><time>2026-05-03T10:36:25Z</time></trkpt><trkpt lat="46.552837462136296" lon="9.322439554526662"><ele>1459.6</ele><time>2026-05-03T10:36:26Z</time></trkpt><trkpt lat="46.5528330860868" lon="9.322347526318966"><ele>1459.4</ele><time>2026-05-03T10:36:27Z</time></trkpt><trkpt lat="46.55282276646055" lon="9.322177097197752"><ele>1459.2</ele><time>2026-05-03T10:36:29Z</time></trkpt><trkpt lat="46.552814892718736" lon="9.322029509207889"><ele>1459.0</ele><time>2026-05-03T10:36:31Z</time></trkpt><trkpt lat="46.5527973113203" lon="9.321873105734664"><ele>1459.0</ele><time>2026-05-03T10:36:33Z</time></trkpt><trkpt lat="46.5527868070908" lon="9.321778184123852"><ele>1459.0</ele><time>2026-05-03T10:36:34Z</time></trkpt><trkpt lat="46.55277912086868" lon="9.321680109149606"><ele>1459.0</ele><time>2026-05-03T10:36:35Z</time></trkpt><trkpt lat="46.552762128398825" lon="9.321591289106689"><ele>1459.0</ele><time>2026-05-03T10:36:36Z</time></trkpt><trkpt lat="46.55272729721526" lon="9.32143961545672"><ele>1459.0</ele><time>2026-05-03T10:36:38Z</time></trkpt><trkpt lat="46.55269838270609" lon="9.321285683820404"><ele>1459.0</ele><time>2026-05-03T10:36:40Z</time></trkpt><trkpt lat="46.55266965576097" lon="9.32113971769752"><ele>1459.2</ele><time>2026-05-03T10:36:42Z</time></trkpt><trkpt lat="46.55264037972201" lon="9.321058128876729"><ele>1459.4</ele><time>2026-05-03T10:36:43Z</time></trkpt><trkpt lat="46.55261274752442" lon="9.32089008190836"><ele>1459.6</ele><time>2026-05-03T10:36:45Z</time></trkpt><trkpt lat="46.55257503657184" lon="9.32073092173459"><ele>1459.8</ele><time>2026-05-03T10:36:47Z</time></trkpt><trkpt lat="46.55254121088051" lon="9.320558924235149"><ele>1460.0</ele><time>2026-05-03T10:36:49Z</time></trkpt><trkpt lat="46.552495836459364" lon="9.320396421988162"><ele>1460.0</ele><time>2026-05-03T10:36:51Z</time></trkpt><trkpt lat="46.5524453888519" lon="9.320229753286707"><ele>1460.0</ele><time>2026-05-03T10:36:53Z</time></trkpt><trkpt lat="46.5523946972829" lon="9.320079544132572"><ele>1460.0</ele><time>2026-05-03T10:36:55Z</time></trkpt><trkpt lat="46.5523633198361" lon="9.319999639114435"><ele>1460.0</ele><time>2026-05-03T10:36:56Z</time></trkpt><trkpt lat="46.55230889641235" lon="9.319843551080737"><ele>1460.0</ele><time>2026-05-03T10:36:58Z</time></trkpt><trkpt lat="46.55227691305261" lon="9.319762907959605"><ele>1460.1666666666667</ele><time>2026-05-03T10:36:59Z</time></trkpt><trkpt lat="46.5522439405586" lon="9.31968335253721"><ele>1460.3333333333335</ele><time>2026-05-03T10:37:00Z</time></trkpt><trkpt lat="46.55221136378772" lon="9.319603246070747"><ele>1460.5</ele><time>2026-05-03T10:37:01Z</time></trkpt><trkpt lat="46.552144556037646" lon="9.319438277095461"><ele>1460.6666666666667</ele><time>2026-05-03T10:37:03Z</time></trkpt><trkpt lat="46.55211187733946" lon="9.319355261635291"><ele>1460.8333333333333</ele><time>2026-05-03T10:37:04Z</time></trkpt><trkpt lat="46.55207907953283" lon="9.319268663139608"><ele>1461.0</ele><time>2026-05-03T10:37:05Z</time></trkpt><trkpt lat="46.55202157819267" lon="9.319116190827499"><ele>1461.0</ele><time>2026-05-03T10:37:07Z</time></trkpt><trkpt lat="46.55198762285957" lon="9.319031143975883"><ele>1461.0</ele><time>2026-05-03T10:37:08Z</time></trkpt><trkpt lat="46.55195155276972" lon="9.318937747377168"><ele>1461.0</ele><time>2026-05-03T10:37:09Z</time></trkpt><trkpt lat="46.551911206134164" lon="9.318836081592593"><ele>1461.0</ele><time>2026-05-03T10:37:10Z</time></trkpt><trkpt lat="46.551871028607295" lon="9.31873527072488"><ele>1461.0</ele><time>2026-05-03T10:37:11Z</time></trkpt><trkpt lat="46.55183732173702" lon="9.318643209162659"><ele>1461.0</ele><time>2026-05-03T10:37:12Z</time></trkpt><trkpt lat="46.55179591473602" lon="9.318551251376144"><ele>1461.0</ele><time>2026-05-03T10:37:13Z</time></trkpt><trkpt lat="46.55176073493765" lon="9.318452781030789"><ele>1461.1666666666667</ele><time>2026-05-03T10:37:14Z</time></trkpt><trkpt lat="46.55172560432085" lon="9.3183568667804"><ele>1461.3333333333333</ele><time>2026-05-03T10:37:15Z</time></trkpt><trkpt lat="46.55169156528628" lon="9.31826966528352"><ele>1461.5</ele><time>2026-05-03T10:37:16Z</time></trkpt><trkpt lat="46.55165769370708" lon="9.31817937040811"><ele>1461.6666666666665</ele><time>2026-05-03T10:37:17Z</time></trkpt><trkpt lat="46.55161911138909" lon="9.318081615738768"><ele>1461.8333333333333</ele><time>2026-05-03T10:37:18Z</time></trkpt><trkpt lat="46.55157924885901" lon="9.317978034211277"><ele>1462.0</ele><time>2026-05-03T10:37:19Z</time></trkpt><trkpt lat="46.55153514292788" lon="9.317870884732667"><ele>1462.0</ele><time>2026-05-03T10:37:20Z</time></trkpt><trkpt lat="46.55148744200148" lon="9.317752875825029"><ele>1462.0</ele><time>2026-05-03T10:37:21Z</time></trkpt><trkpt lat="46.55144367121214" lon="9.317641515263249"><ele>1462.0</ele><time>2026-05-03T10:37:22Z</time></trkpt><trkpt lat="46.55139634893685" lon="9.317516553359567"><ele>1462.0</ele><time>2026-05-03T10:37:23Z</time></trkpt><trkpt lat="46.55134525864875" lon="9.317388003270363"><ele>1462.0</ele><time>2026-05-03T10:37:24Z</time></trkpt><trkpt lat="46.55129800450221" lon="9.317267285174538"><ele>1462.1999999999998</ele><time>2026-05-03T10:37:25Z</time></trkpt><trkpt lat="46.55125318389593" lon="9.317147990045223"><ele>1462.4</ele><time>2026-05-03T10:37:26Z</time></trkpt><trkpt lat="46.55121211749081" lon="9.317036410634412"><ele>1462.6</ele><time>2026-05-03T10:37:27Z</time></trkpt><trkpt lat="46.55116942183582" lon="9.316925870257112"><ele>1462.8000000000002</ele><time>2026-05-03T10:37:28Z</time></trkpt><trkpt lat="46.55112199614515" lon="9.316810479217487"><ele>1463.0</ele><time>2026-05-03T10:37:29Z</time></trkpt><trkpt lat="46.55107655096693" lon="9.31668637665642"><ele>1463.0</ele><time>2026-05-03T10:37:30Z</time></trkpt><trkpt lat="46.55102866148553" lon="9.316563621794662"><ele>1463.0</ele><time>2026-05-03T10:37:31Z</time></trkpt><trkpt lat="46.55097898207388" lon="9.316430481267805"><ele>1463.0</ele><time>2026-05-03T10:37:32Z</time></trkpt><trkpt lat="46.550925485743704" lon="9.316294855588797"><ele>1463.0</ele><time>2026-05-03T10:37:33Z</time></trkpt><trkpt lat="46.55086434324736" lon="9.31615131984779"><ele>1463.0</ele><time>2026-05-03T10:37:34Z</time></trkpt><trkpt lat="46.55080251058214" lon="9.31599443997694"><ele>1463.25</ele><time>2026-05-03T10:37:35Z</time></trkpt><trkpt lat="46.550748338050994" lon="9.31585171031378"><ele>1463.5</ele><time>2026-05-03T10:37:36Z</time></trkpt><trkpt lat="46.55068866664014" lon="9.315708401652666"><ele>1463.75</ele><time>2026-05-03T10:37:37Z</time></trkpt><trkpt lat="46.55062968255239" lon="9.315550241467204"><ele>1464.0</ele><time>2026-05-03T10:37:38Z</time></trkpt><trkpt lat="46.550561050060004" lon="9.31538011279739"><ele>1464.0</ele><time>2026-05-03T10:37:39Z</time></trkpt><trkpt lat="46.55048718188868" lon="9.315201043589575"><ele>1464.0</ele><time>2026-05-03T10:37:40Z</time></trkpt><trkpt lat="46.55041164789948" lon="9.315020695512064"><ele>1464.0</ele><time>2026-05-03T10:37:41Z</time></trkpt><trkpt lat="46.55033503292024" lon="9.31484009235559"><ele>1464.0</ele><time>2026-05-03T10:37:42Z</time></trkpt><trkpt lat="46.55026928535188" lon="9.314655281041007"><ele>1464.0</ele><time>2026-05-03T10:37:43Z</time></trkpt><trkpt lat="46.55019473402754" lon="9.314469147657778"><ele>1464.0</ele><time>2026-05-03T10:37:44Z</time></trkpt><trkpt lat="46.55012664947916" lon="9.314294746584311"><ele>1464.0</ele><time>2026-05-03T10:37:45Z</time></trkpt><trkpt lat="46.55006071142631" lon="9.314117192188595"><ele>1464.0</ele><time>2026-05-03T10:37:46Z</time></trkpt><trkpt lat="46.549987520835636" lon="9.31393408433953"><ele>1464.0</ele><time>2026-05-03T10:37:47Z</time></trkpt><trkpt lat="46.54991570121189" lon="9.313749577719708"><ele>1464.0</ele><time>2026-05-03T10:37:48Z</time></trkpt><trkpt lat="46.549841637011596" lon="9.313556083422185"><ele>1464.0</ele><time>2026-05-03T10:37:49Z</time></trkpt><trkpt lat="46.5497592626057" lon="9.31335266265271"><ele>1464.0</ele><time>2026-05-03T10:37:50Z</time></trkpt><trkpt lat="46.54966622904154" lon="9.313133533075554"><ele>1464.0</ele><time>2026-05-03T10:37:51.001Z</time></trkpt><trkpt lat="46.54958017196631" lon="9.31290096262773"><ele>1464.0</ele><time>2026-05-03T10:37:52.001Z</time></trkpt><trkpt lat="46.549479312780186" lon="9.312648413856987"><ele>1464.3333333333333</ele><time>2026-05-03T10:37:53.001Z</time></trkpt><trkpt lat="46.54937214894278" lon="9.312392349688789"><ele>1464.6666666666665</ele><time>2026-05-03T10:37:54.001Z</time></trkpt><trkpt lat="46.549273849884564" lon="9.31213203332495"><ele>1465.0</ele><time>2026-05-03T10:37:55.001Z</time></trkpt><trkpt lat="46.54917332051519" lon="9.311873015041906"><ele>1466.0</ele><time>2026-05-03T10:37:56.001Z</time></trkpt><trkpt lat="46.54907304165753" lon="9.311620004810026"><ele>1467.0</ele><time>2026-05-03T10:37:57.001Z</time></trkpt><trkpt lat="46.548973337231125" lon="9.311369719354984"><ele>1468.0</ele><time>2026-05-03T10:37:58.001Z</time></trkpt><trkpt lat="46.54887519298431" lon="9.311122576818624"><ele>1468.0</ele><time>2026-05-03T10:37:59.001Z</time></trkpt><trkpt lat="46.548780926206554" lon="9.31087990749541"><ele>1468.0</ele><time>2026-05-03T10:38:00.001Z</time></trkpt><trkpt lat="46.54868459798186" lon="9.310636807619028"><ele>1468.0</ele><time>2026-05-03T10:38:01.001Z</time></trkpt><trkpt lat="46.54859342422348" lon="9.310394760893812"><ele>1469.3333333333333</ele><time>2026-05-03T10:38:02.001Z</time></trkpt><trkpt lat="46.5485009547438" lon="9.310154307823241"><ele>1470.6666666666667</ele><time>2026-05-03T10:38:03.001Z</time></trkpt><trkpt lat="46.54841174006036" lon="9.30991662419677"><ele>1472.0</ele><time>2026-05-03T10:38:04.001Z</time></trkpt><trkpt lat="46.548318381351315" lon="9.30967770473134"><ele>1472.0</ele><time>2026-05-03T10:38:05.001Z</time></trkpt><trkpt lat="46.548223899942194" lon="9.30943928820376"><ele>1472.0</ele><time>2026-05-03T10:38:06.001Z</time></trkpt><trkpt lat="46.548134268864324" lon="9.309203210052917"><ele>1472.0</ele><time>2026-05-03T10:38:07.001Z</time></trkpt><trkpt lat="46.548042198436185" lon="9.308969865601837"><ele>1472.0</ele><time>2026-05-03T10:38:08.001Z</time></trkpt><trkpt lat="46.54795110052263" lon="9.308740929034068"><ele>1472.0</ele><time>2026-05-03T10:38:09.001Z</time></trkpt><trkpt lat="46.54786055571329" lon="9.3085097894267"><ele>1472.0</ele><time>2026-05-03T10:38:10.001Z</time></trkpt><trkpt lat="46.54777105603457" lon="9.308282586653288"><ele>1473.3333333333335</ele><time>2026-05-03T10:38:11.001Z</time></trkpt><trkpt lat="46.547682057918635" lon="9.308059769471207"><ele>1474.6666666666667</ele><time>2026-05-03T10:38:12.001Z</time></trkpt><trkpt lat="46.54759153955835" lon="9.307837297526376"><ele>1476.0</ele><time>2026-05-03T10:38:13.001Z</time></trkpt><trkpt lat="46.547500113304224" lon="9.307611080843778"><ele>1476.0</ele><time>2026-05-03T10:38:14.001Z</time></trkpt><trkpt lat="46.54740914886719" lon="9.30738162742606"><ele>1476.0</ele><time>2026-05-03T10:38:15.001Z</time></trkpt><trkpt lat="46.5473335090103" lon="9.307131822471318"><ele>1476.0</ele><time>2026-05-03T10:38:16Z</time></trkpt><trkpt lat="46.54728665521116" lon="9.306872249301632"><ele>1477.6666666666667</ele><time>2026-05-03T10:38:17Z</time></trkpt><trkpt lat="46.54726102490077" lon="9.306606970926898"><ele>1479.3333333333335</ele><time>2026-05-03T10:38:18Z</time></trkpt><trkpt lat="46.54725613202188" lon="9.306334725254892"><ele>1481.0</ele><time>2026-05-03T10:38:19Z</time></trkpt><trkpt lat="46.5472598204737" lon="9.30605384481241"><ele>1482.0</ele><time>2026-05-03T10:38:20Z</time></trkpt><trkpt lat="46.547262456094835" lon="9.305772337465077"><ele>1483.0</ele><time>2026-05-03T10:38:21Z</time></trkpt><trkpt lat="46.5472634691532" lon="9.305487496409993"><ele>1484.0</ele><time>2026-05-03T10:38:22Z</time></trkpt><trkpt lat="46.54726132136881" lon="9.305200988221676"><ele>1485.0</ele><time>2026-05-03T10:38:22.999Z</time></trkpt><trkpt lat="46.54725331186415" lon="9.304919222126024"><ele>1486.0</ele><time>2026-05-03T10:38:23.999Z</time></trkpt><trkpt lat="46.547242654921114" lon="9.304634510280243"><ele>1487.0</ele><time>2026-05-03T10:38:25Z</time></trkpt><trkpt lat="46.54722579109919" lon="9.304355213939742"><ele>1489.0</ele><time>2026-05-03T10:38:26Z</time></trkpt><trkpt lat="46.54720976764295" lon="9.304078289669867"><ele>1491.0</ele><time>2026-05-03T10:38:27Z</time></trkpt><trkpt lat="46.54718499952323" lon="9.303806540879142"><ele>1493.0</ele><time>2026-05-03T10:38:28Z</time></trkpt><trkpt lat="46.54714905196047" lon="9.303542312717719"><ele>1493.0</ele><time>2026-05-03T10:38:29Z</time></trkpt><trkpt lat="46.54710493574546" lon="9.303284018877768"><ele>1493.0</ele><time>2026-05-03T10:38:30Z</time></trkpt><trkpt lat="46.54705865762214" lon="9.303030087229645"><ele>1493.0</ele><time>2026-05-03T10:38:31Z</time></trkpt><trkpt lat="46.54700344288417" lon="9.302773930943653"><ele>1491.6666666666667</ele><time>2026-05-03T10:38:32Z</time></trkpt><trkpt lat="46.54693752558484" lon="9.302522427772121"><ele>1490.3333333333333</ele><time>2026-05-03T10:38:33Z</time></trkpt><trkpt lat="46.54686561566002" lon="9.302266846171507"><ele>1489.0</ele><time>2026-05-03T10:38:34Z</time></trkpt><trkpt lat="46.546780249019434" lon="9.302020973626135"><ele>1489.0</ele><time>2026-05-03T10:38:35Z</time></trkpt><trkpt lat="46.546686223983905" lon="9.301773335419304"><ele>1489.0</ele><time>2026-05-03T10:38:36Z</time></trkpt><trkpt lat="46.54658771449338" lon="9.30152720712354"><ele>1489.0</ele><time>2026-05-03T10:38:37Z</time></trkpt><trkpt lat="46.54648981212605" lon="9.301289407787252"><ele>1488.3333333333333</ele><time>2026-05-03T10:38:38Z</time></trkpt><trkpt lat="46.546391583402766" lon="9.301050993899588"><ele>1487.6666666666667</ele><time>2026-05-03T10:38:39Z</time></trkpt><trkpt lat="46.546299396530216" lon="9.300821353710797"><ele>1487.0</ele><time>2026-05-03T10:38:40Z</time></trkpt><trkpt lat="46.54620593197103" lon="9.300594731632417"><ele>1489.3333333333335</ele><time>2026-05-03T10:38:41Z</time></trkpt><trkpt lat="46.546114812994645" lon="9.300372818487462"><ele>1491.6666666666667</ele><time>2026-05-03T10:38:42Z</time></trkpt><trkpt lat="46.546020798995606" lon="9.300154983558777"><ele>1494.0</ele><time>2026-05-03T10:38:43Z</time></trkpt><trkpt lat="46.545925345401564" lon="9.299935857280715"><ele>1496.6666666666667</ele><time>2026-05-03T10:38:44Z</time></trkpt><trkpt lat="46.54582607317473" lon="9.299711442556125"><ele>1499.3333333333335</ele><time>2026-05-03T10:38:45Z</time></trkpt><trkpt lat="46.545722889460265" lon="9.299482487495322"><ele>1502.0</ele><time>2026-05-03T10:38:46Z</time></trkpt><trkpt lat="46.54563583848327" lon="9.299239091753577"><ele>1502.0</ele><time>2026-05-03T10:38:47Z</time></trkpt><trkpt lat="46.54555074173713" lon="9.298993220854726"><ele>1502.0</ele><time>2026-05-03T10:38:48Z</time></trkpt><trkpt lat="46.54546383407073" lon="9.298743985550898"><ele>1502.0</ele><time>2026-05-03T10:38:49Z</time></trkpt><trkpt lat="46.54537650859811" lon="9.298495936063285"><ele>1500.6666666666667</ele><time>2026-05-03T10:38:50Z</time></trkpt><trkpt lat="46.54529259277588" lon="9.29825045902529"><ele>1499.3333333333333</ele><time>2026-05-03T10:38:51Z</time></trkpt><trkpt lat="46.5452128113149" lon="9.298007041568214"><ele>1498.0</ele><time>2026-05-03T10:38:52Z</time></trkpt><trkpt lat="46.54514144425377" lon="9.297772846460807"><ele>1498.0</ele><time>2026-05-03T10:38:53Z</time></trkpt><trkpt lat="46.545082486861915" lon="9.297543926404309"><ele>1498.0</ele><time>2026-05-03T10:38:54Z</time></trkpt><trkpt lat="46.54503016976475" lon="9.297325057102393"><ele>1498.0</ele><time>2026-05-03T10:38:55Z</time></trkpt><trkpt lat="46.54499083933559" lon="9.2971258293909"><ele>1499.25</ele><time>2026-05-03T10:38:56Z</time></trkpt><trkpt lat="46.5449595725627" lon="9.296943152246188"><ele>1500.5</ele><time>2026-05-03T10:38:57Z</time></trkpt><trkpt lat="46.544937964057006" lon="9.296778149266409"><ele>1501.75</ele><time>2026-05-03T10:38:58Z</time></trkpt><trkpt lat="46.54491610655206" lon="9.29662496882312"><ele>1503.0</ele><time>2026-05-03T10:38:59Z</time></trkpt><trkpt lat="46.54489733594297" lon="9.29647118707983"><ele>1503.0</ele><time>2026-05-03T10:39:00Z</time></trkpt><trkpt lat="46.544877306972644" lon="9.296313766834382"><ele>1503.0</ele><time>2026-05-03T10:39:01Z</time></trkpt><trkpt lat="46.544849750750096" lon="9.296146066864921"><ele>1503.0</ele><time>2026-05-03T10:39:02Z</time></trkpt><trkpt lat="46.54481095344963" lon="9.295968660908677"><ele>1503.0</ele><time>2026-05-03T10:39:03Z</time></trkpt><trkpt lat="46.54476382219978" lon="9.295782026698086"><ele>1505.3333333333333</ele><time>2026-05-03T10:39:04Z</time></trkpt><trkpt lat="46.5447079616815" lon="9.295585384945493"><ele>1507.6666666666665</ele><time>2026-05-03T10:39:05Z</time></trkpt><trkpt lat="46.54465032709537" lon="9.295382096796613"><ele>1510.0</ele><time>2026-05-03T10:39:06Z</time></trkpt><trkpt lat="46.5445954229995" lon="9.295160662520635"><ele>1510.0</ele><time>2026-05-03T10:39:07Z</time></trkpt><trkpt lat="46.54455182132529" lon="9.294928787813502"><ele>1510.0</ele><time>2026-05-03T10:39:08Z</time></trkpt><trkpt lat="46.54452355157153" lon="9.294687689775074"><ele>1510.0</ele><time>2026-05-03T10:39:09Z</time></trkpt><trkpt lat="46.54451248234552" lon="9.294438374033673"><ele>1509.3333333333333</ele><time>2026-05-03T10:39:10Z</time></trkpt><trkpt lat="46.5445181009904" lon="9.294176874058502"><ele>1508.6666666666667</ele><time>2026-05-03T10:39:11Z</time></trkpt><trkpt lat="46.5445330153965" lon="9.293904980855558"><ele>1508.0</ele><time>2026-05-03T10:39:12Z</time></trkpt><trkpt lat="46.5445507881783" lon="9.293629693713699"><ele>1508.0</ele><time>2026-05-03T10:39:13Z</time></trkpt><trkpt lat="46.544563223158065" lon="9.2933593032347"><ele>1508.0</ele><time>2026-05-03T10:39:14Z</time></trkpt><trkpt lat="46.54457656116999" lon="9.293102037433155"><ele>1508.0</ele><time>2026-05-03T10:39:15Z</time></trkpt><trkpt lat="46.54459847866339" lon="9.292854480982783"><ele>1507.0</ele><time>2026-05-03T10:39:16Z</time></trkpt><trkpt lat="46.54462910711585" lon="9.292616343446307"><ele>1506.0</ele><time>2026-05-03T10:39:17Z</time></trkpt><trkpt lat="46.544666779396195" lon="9.29237390361078"><ele>1505.0</ele><time>2026-05-03T10:39:18Z</time></trkpt><trkpt lat="46.544714901198546" lon="9.29213808543068"><ele>1503.6666666666667</ele><time>2026-05-03T10:39:19Z</time></trkpt><trkpt lat="46.54476168241281" lon="9.291892742864327"><ele>1502.3333333333333</ele><time>2026-05-03T10:39:20Z</time></trkpt><trkpt lat="46.54481425146428" lon="9.29165051014001"><ele>1501.0</ele><time>2026-05-03T10:39:21Z</time></trkpt><trkpt lat="46.5448690015634" lon="9.291411319018739"><ele>1500.6666666666665</ele><time>2026-05-03T10:39:22Z</time></trkpt><trkpt lat="46.54492243314152" lon="9.291171083433504"><ele>1500.3333333333333</ele><time>2026-05-03T10:39:23Z</time></trkpt><trkpt lat="46.544979415356174" lon="9.290934810164506"><ele>1500.0</ele><time>2026-05-03T10:39:24Z</time></trkpt><trkpt lat="46.54502623907931" lon="9.29071721059766"><ele>1499.0</ele><time>2026-05-03T10:39:25.001Z</time></trkpt><trkpt lat="46.545070182209976" lon="9.290515176109853"><ele>1498.0</ele><time>2026-05-03T10:39:26.001Z</time></trkpt><trkpt lat="46.54511326970647" lon="9.290318660950385"><ele>1497.0</ele><time>2026-05-03T10:39:27.001Z</time></trkpt><trkpt lat="46.545159132544946" lon="9.29011455565856"><ele>1496.0</ele><time>2026-05-03T10:39:28.001Z</time></trkpt><trkpt lat="46.54520380943695" lon="9.289908419248997"><ele>1495.3333333333335</ele><time>2026-05-03T10:39:29.001Z</time></trkpt><trkpt lat="46.545248728777665" lon="9.289698845820855"><ele>1494.6666666666667</ele><time>2026-05-03T10:39:30.001Z</time></trkpt><trkpt lat="46.545289051595375" lon="9.289486610618583"><ele>1494.0</ele><time>2026-05-03T10:39:31.001Z</time></trkpt><trkpt lat="46.54532527761112" lon="9.28927161353077"><ele>1494.0</ele><time>2026-05-03T10:39:32.001Z</time></trkpt><trkpt lat="46.545356381131484" lon="9.289056207459701"><ele>1494.0</ele><time>2026-05-03T10:39:33.001Z</time></trkpt><trkpt lat="46.54538190313929" lon="9.288836053010295"><ele>1494.0</ele><time>2026-05-03T10:39:34.001Z</time></trkpt><trkpt lat="46.54540198256792" lon="9.288620668091584"><ele>1499.3333333333333</ele><time>2026-05-03T10:39:35.001Z</time></trkpt><trkpt lat="46.54541200023976" lon="9.288401211561645"><ele>1504.6666666666665</ele><time>2026-05-03T10:39:36.001Z</time></trkpt><trkpt lat="46.54541853419089" lon="9.28817384396107"><ele>1510.0</ele><time>2026-05-03T10:39:37.001Z</time></trkpt><trkpt lat="46.545412968843856" lon="9.287940631359204"><ele>1510.0</ele><time>2026-05-03T10:39:38.001Z</time></trkpt><trkpt lat="46.5453957326951" lon="9.287699889283992"><ele>1510.0</ele><time>2026-05-03T10:39:39.001Z</time></trkpt><trkpt lat="46.545369587749065" lon="9.287458148855853"><ele>1510.0</ele><time>2026-05-03T10:39:40.001Z</time></trkpt><trkpt lat="46.54533301586953" lon="9.287219184780952"><ele>1505.3333333333333</ele><time>2026-05-03T10:39:41.001Z</time></trkpt><trkpt lat="46.54528978829822" lon="9.286984368306006"><ele>1500.6666666666667</ele><time>2026-05-03T10:39:42.001Z</time></trkpt><trkpt lat="46.54524115513426" lon="9.286749103669802"><ele>1496.0</ele><time>2026-05-03T10:39:43.001Z</time></trkpt><trkpt lat="46.545188439331454" lon="9.28651349834495"><ele>1497.0</ele><time>2026-05-03T10:39:44.001Z</time></trkpt><trkpt lat="46.5451323705907" lon="9.286280286747846"><ele>1498.0</ele><time>2026-05-03T10:39:45.001Z</time></trkpt><trkpt lat="46.545076811855886" lon="9.286045117197839"><ele>1499.0</ele><time>2026-05-03T10:39:46.001Z</time></trkpt><trkpt lat="46.54502461855117" lon="9.28579885564214"><ele>1501.3333333333335</ele><time>2026-05-03T10:39:47.001Z</time></trkpt><trkpt lat="46.54496889204538" lon="9.285553247288732"><ele>1503.6666666666667</ele><time>2026-05-03T10:39:48.001Z</time></trkpt><trkpt lat="46.5449100803468" lon="9.285302863736902"><ele>1506.0</ele><time>2026-05-03T10:39:49.001Z</time></trkpt><trkpt lat="46.544850558012875" lon="9.285057236355808"><ele>1506.0</ele><time>2026-05-03T10:39:50.001Z</time></trkpt><trkpt lat="46.5447921780795" lon="9.28480833918944"><ele>1506.0</ele><time>2026-05-03T10:39:51.001Z</time></trkpt><trkpt lat="46.54473690247613" lon="9.284565813265722"><ele>1506.0</ele><time>2026-05-03T10:39:52.001Z</time></trkpt><trkpt lat="46.54468402345814" lon="9.284326587256711"><ele>1505.6666666666667</ele><time>2026-05-03T10:39:53.001Z</time></trkpt><trkpt lat="46.54463127967754" lon="9.284094012273286"><ele>1505.3333333333335</ele><time>2026-05-03T10:39:54.001Z</time></trkpt><trkpt lat="46.54458048036048" lon="9.283877943006305"><ele>1505.0</ele><time>2026-05-03T10:39:55.001Z</time></trkpt><trkpt lat="46.54453265120918" lon="9.283673823594473"><ele>1505.0</ele><time>2026-05-03T10:39:56.001Z</time></trkpt><trkpt lat="46.54449211182789" lon="9.283471921720936"><ele>1505.0</ele><time>2026-05-03T10:39:57.001Z</time></trkpt><trkpt lat="46.54445030857836" lon="9.283277841010285"><ele>1505.0</ele><time>2026-05-03T10:39:58.001Z</time></trkpt><trkpt lat="46.54440557518272" lon="9.283081528172383"><ele>1505.0</ele><time>2026-05-03T10:39:59.001Z</time></trkpt><trkpt lat="46.54435952724469" lon="9.282885641293888"><ele>1505.6666666666667</ele><time>2026-05-03T10:40:00.001Z</time></trkpt><trkpt lat="46.54430526800589" lon="9.282683458751974"><ele>1506.3333333333333</ele><time>2026-05-03T10:40:01.001Z</time></trkpt><trkpt lat="46.544241737994575" lon="9.28247586146363"><ele>1507.0</ele><time>2026-05-03T10:40:02.001Z</time></trkpt><trkpt lat="46.54416556432872" lon="9.282255877873514"><ele>1508.0</ele><time>2026-05-03T10:40:03.001Z</time></trkpt><trkpt lat="46.544088991192574" lon="9.282040249740456"><ele>1509.0</ele><time>2026-05-03T10:40:04.001Z</time></trkpt><trkpt lat="46.54400301581638" lon="9.28183396036855"><ele>1510.0</ele><time>2026-05-03T10:40:05.001Z</time></trkpt><trkpt lat="46.54391383185163" lon="9.281632905298283"><ele>1510.0</ele><time>2026-05-03T10:40:06.001Z</time></trkpt><trkpt lat="46.54382158312298" lon="9.28143977642658"><ele>1510.0</ele><time>2026-05-03T10:40:07.001Z</time></trkpt><trkpt lat="46.54372695769995" lon="9.281246750667139"><ele>1510.0</ele><time>2026-05-03T10:40:08.001Z</time></trkpt><trkpt lat="46.54363118528538" lon="9.2810493813583"><ele>1509.6666666666665</ele><time>2026-05-03T10:40:09.001Z</time></trkpt><trkpt lat="46.54353734250535" lon="9.280850592200402"><ele>1509.3333333333333</ele><time>2026-05-03T10:40:10.001Z</time></trkpt><trkpt lat="46.543445776635494" lon="9.280657188114258"><ele>1509.0</ele><time>2026-05-03T10:40:11.001Z</time></trkpt><trkpt lat="46.54336860954028" lon="9.280447219746158"><ele>1509.0</ele><time>2026-05-03T10:40:12.001Z</time></trkpt><trkpt lat="46.54328905922073" lon="9.280249552602747"><ele>1509.0</ele><time>2026-05-03T10:40:13.001Z</time></trkpt><trkpt lat="46.54321080493508" lon="9.280052296632384"><ele>1509.0</ele><time>2026-05-03T10:40:14.001Z</time></trkpt><trkpt lat="46.543131085852956" lon="9.27985413020103"><ele>1509.6666666666667</ele><time>2026-05-03T10:40:15.001Z</time></trkpt><trkpt lat="46.543048522992144" lon="9.279653534611372"><ele>1510.3333333333335</ele><time>2026-05-03T10:40:16.001Z</time></trkpt><trkpt lat="46.54296849525976" lon="9.279453615665018"><ele>1511.0</ele><time>2026-05-03T10:40:17.001Z</time></trkpt><trkpt lat="46.542889449093565" lon="9.279247071705075"><ele>1509.6666666666667</ele><time>2026-05-03T10:40:18.001Z</time></trkpt><trkpt lat="46.54280437144684" lon="9.27903721581449"><ele>1508.3333333333333</ele><time>2026-05-03T10:40:19.001Z</time></trkpt><trkpt lat="46.54271726356459" lon="9.278823045431558"><ele>1507.0</ele><time>2026-05-03T10:40:20.001Z</time></trkpt><trkpt lat="46.54263029563319" lon="9.278607254629655"><ele>1507.0</ele><time>2026-05-03T10:40:21.001Z</time></trkpt><trkpt lat="46.5425439671594" lon="9.278391678369326"><ele>1507.0</ele><time>2026-05-03T10:40:22Z</time></trkpt><trkpt lat="46.542461328166866" lon="9.27817420540827"><ele>1507.0</ele><time>2026-05-03T10:40:23Z</time></trkpt><trkpt lat="46.54238936626288" lon="9.27795108971379"><ele>1507.0</ele><time>2026-05-03T10:40:24Z</time></trkpt><trkpt lat="46.542314650700185" lon="9.277718201143433"><ele>1507.0</ele><time>2026-05-03T10:40:25Z</time></trkpt><trkpt lat="46.54224406241281" lon="9.277475918526939"><ele>1507.0</ele><time>2026-05-03T10:40:26Z</time></trkpt><trkpt lat="46.54217447773715" lon="9.277229585598706"><ele>1507.0</ele><time>2026-05-03T10:40:27Z</time></trkpt><trkpt lat="46.54211834131358" lon="9.276999154022912"><ele>1507.0</ele><time>2026-05-03T10:40:28Z</time></trkpt><trkpt lat="46.54206372220529" lon="9.276782636244409"><ele>1507.0</ele><time>2026-05-03T10:40:29Z</time></trkpt><trkpt lat="46.542011207494916" lon="9.276562120202176"><ele>1506.3333333333333</ele><time>2026-05-03T10:40:30Z</time></trkpt><trkpt lat="46.54195696144324" lon="9.27633497126243"><ele>1505.6666666666667</ele><time>2026-05-03T10:40:31Z</time></trkpt><trkpt lat="46.54189466192396" lon="9.27610897104303"><ele>1505.0</ele><time>2026-05-03T10:40:32Z</time></trkpt><trkpt lat="46.541841203663985" lon="9.275877950501894"><ele>1505.0</ele><time>2026-05-03T10:40:33Z</time></trkpt><trkpt lat="46.54179123649567" lon="9.275646483884108"><ele>1505.0</ele><time>2026-05-03T10:40:34Z</time></trkpt><trkpt lat="46.5417377684727" lon="9.275415364667815"><ele>1505.0</ele><time>2026-05-03T10:40:35Z</time></trkpt><trkpt lat="46.54168460537787" lon="9.275181983328675"><ele>1505.3333333333335</ele><time>2026-05-03T10:40:36Z</time></trkpt><trkpt lat="46.541639400333885" lon="9.274949757528772"><ele>1505.6666666666667</ele><time>2026-05-03T10:40:37Z</time></trkpt><trkpt lat="46.541582860344704" lon="9.274708068288223"><ele>1506.0</ele><time>2026-05-03T10:40:38Z</time></trkpt><trkpt lat="46.541528659675" lon="9.274466312197811"><ele>1507.0</ele><time>2026-05-03T10:40:39Z</time></trkpt><trkpt lat="46.54147748016424" lon="9.274227754394559"><ele>1508.0</ele><time>2026-05-03T10:40:40Z</time></trkpt><trkpt lat="46.54143132900816" lon="9.273988089777662"><ele>1509.0</ele><time>2026-05-03T10:40:41Z</time></trkpt><trkpt lat="46.54139030023148" lon="9.27374331863267"><ele>1511.6666666666667</ele><time>2026-05-03T10:40:42Z</time></trkpt><trkpt lat="46.5413606564788" lon="9.273497120775499"><ele>1514.3333333333335</ele><time>2026-05-03T10:40:43Z</time></trkpt><trkpt lat="46.54133284621602" lon="9.273261942158895"><ele>1517.0</ele><time>2026-05-03T10:40:44Z</time></trkpt><trkpt lat="46.54131119820705" lon="9.273026439368214"><ele>1518.3333333333335</ele><time>2026-05-03T10:40:45Z</time></trkpt><trkpt lat="46.54129463190237" lon="9.272798459066193"><ele>1519.6666666666667</ele><time>2026-05-03T10:40:46Z</time></trkpt><trkpt lat="46.54128203096873" lon="9.272571990606394"><ele>1521.0</ele><time>2026-05-03T10:40:47Z</time></trkpt><trkpt lat="46.541273774286545" lon="9.272338483045601"><ele>1521.6666666666667</ele><time>2026-05-03T10:40:48Z</time></trkpt><trkpt lat="46.54127031738824" lon="9.272102060019932"><ele>1522.3333333333335</ele><time>2026-05-03T10:40:49Z</time></trkpt><trkpt lat="46.54127325299097" lon="9.27186282420602"><ele>1523.0</ele><time>2026-05-03T10:40:50Z</time></trkpt><trkpt lat="46.54128209465604" lon="9.271627555264766"><ele>1523.3333333333335</ele><time>2026-05-03T10:40:51Z</time></trkpt><trkpt lat="46.541286768943664" lon="9.271384843707219"><ele>1523.6666666666667</ele><time>2026-05-03T10:40:52Z</time></trkpt><trkpt lat="46.5412906402203" lon="9.271144103605728"><ele>1524.0</ele><time>2026-05-03T10:40:53Z</time></trkpt><trkpt lat="46.54129586948754" lon="9.270908190657192"><ele>1524.0</ele><time>2026-05-03T10:40:54Z</time></trkpt><trkpt lat="46.54129999437416" lon="9.270669382463863"><ele>1524.0</ele><time>2026-05-03T10:40:55Z</time></trkpt><trkpt lat="46.54130804652638" lon="9.270430961639072"><ele>1524.0</ele><time>2026-05-03T10:40:56Z</time></trkpt><trkpt lat="46.541315633404544" lon="9.270179689450524"><ele>1525.0</ele><time>2026-05-03T10:40:57Z</time></trkpt><trkpt lat="46.541324705625286" lon="9.269932652676006"><ele>1526.0</ele><time>2026-05-03T10:40:58Z</time></trkpt><trkpt lat="46.54133099563845" lon="9.269679947615716"><ele>1527.0</ele><time>2026-05-03T10:40:59Z</time></trkpt><trkpt lat="46.54133889019696" lon="9.269426710280852"><ele>1526.6666666666667</ele><time>2026-05-03T10:41:00Z</time></trkpt><trkpt lat="46.541343614798265" lon="9.26917089521835"><ele>1526.3333333333335</ele><time>2026-05-03T10:41:01Z</time></trkpt><trkpt lat="46.541348100470024" lon="9.268916161296552"><ele>1526.0</ele><time>2026-05-03T10:41:02Z</time></trkpt><trkpt lat="46.541352163734466" lon="9.268662662946848"><ele>1526.0</ele><time>2026-05-03T10:41:03Z</time></trkpt><trkpt lat="46.54135702949244" lon="9.26842127966789"><ele>1526.0</ele><time>2026-05-03T10:41:04Z</time></trkpt><trkpt lat="46.541361685081576" lon="9.268186950648705"><ele>1526.0</ele><time>2026-05-03T10:41:05Z</time></trkpt><trkpt lat="46.54136715825748" lon="9.267954258357802"><ele>1525.3333333333335</ele><time>2026-05-03T10:41:06Z</time></trkpt><trkpt lat="46.54137086136584" lon="9.26772015369176"><ele>1524.6666666666667</ele><time>2026-05-03T10:41:07Z</time></trkpt><trkpt lat="46.54137484738363" lon="9.267495324363237"><ele>1524.0</ele><time>2026-05-03T10:41:08Z</time></trkpt><trkpt lat="46.54138109985464" lon="9.267267010594823"><ele>1523.0</ele><time>2026-05-03T10:41:09Z</time></trkpt><trkpt lat="46.54138439764489" lon="9.26704054199721"><ele>1522.0</ele><time>2026-05-03T10:41:10Z</time></trkpt><trkpt lat="46.541389411887" lon="9.26681094425201"><ele>1521.0</ele><time>2026-05-03T10:41:11Z</time></trkpt><trkpt lat="46.54139314032503" lon="9.266575369549386"><ele>1520.6666666666667</ele><time>2026-05-03T10:41:12Z</time></trkpt><trkpt lat="46.541394577405164" lon="9.266344184722996"><ele>1520.3333333333335</ele><time>2026-05-03T10:41:13Z</time></trkpt><trkpt lat="46.54139614675434" lon="9.266111615412354"><ele>1520.0</ele><time>2026-05-03T10:41:14Z</time></trkpt><trkpt lat="46.5413991181188" lon="9.26587330082481"><ele>1520.0</ele><time>2026-05-03T10:41:15Z</time></trkpt><trkpt lat="46.541403345048934" lon="9.265640133705"><ele>1520.0</ele><time>2026-05-03T10:41:16Z</time></trkpt><trkpt lat="46.54141442548729" lon="9.265394170934442"><ele>1520.0</ele><time>2026-05-03T10:41:17Z</time></trkpt><trkpt lat="46.54142207458425" lon="9.265148082755529"><ele>1520.3333333333335</ele><time>2026-05-03T10:41:18Z</time></trkpt><trkpt lat="46.54142291657351" lon="9.264901276276833"><ele>1520.6666666666667</ele><time>2026-05-03T10:41:19Z</time></trkpt><trkpt lat="46.5413993418735" lon="9.264662340999463"><ele>1521.0</ele><time>2026-05-03T10:41:20Z</time></trkpt><trkpt lat="46.54134570196631" lon="9.26442746452718"><ele>1520.3333333333333</ele><time>2026-05-03T10:41:21Z</time></trkpt><trkpt lat="46.5412879885814" lon="9.264197766329325"><ele>1519.6666666666665</ele><time>2026-05-03T10:41:22Z</time></trkpt><trkpt lat="46.54124710331906" lon="9.263957328172225"><ele>1519.0</ele><time>2026-05-03T10:41:23Z</time></trkpt><trkpt lat="46.541207308111694" lon="9.263703061400065"><ele>1519.0</ele><time>2026-05-03T10:41:24Z</time></trkpt><trkpt lat="46.541172066504416" lon="9.263439675592057"><ele>1519.0</ele><time>2026-05-03T10:41:25Z</time></trkpt><trkpt lat="46.54113760552059" lon="9.263176008319903"><ele>1519.0</ele><time>2026-05-03T10:41:26Z</time></trkpt><trkpt lat="46.54109538959146" lon="9.262911445164677"><ele>1518.6666666666665</ele><time>2026-05-03T10:41:27Z</time></trkpt><trkpt lat="46.54104886105327" lon="9.262649359105481"><ele>1518.3333333333333</ele><time>2026-05-03T10:41:28Z</time></trkpt><trkpt lat="46.5409983067971" lon="9.26238977599761"><ele>1518.0</ele><time>2026-05-03T10:41:29Z</time></trkpt><trkpt lat="46.54094509336287" lon="9.26214056675908"><ele>1518.0</ele><time>2026-05-03T10:41:30Z</time></trkpt><trkpt lat="46.54089002700343" lon="9.26189555469375"><ele>1518.0</ele><time>2026-05-03T10:41:31Z</time></trkpt><trkpt lat="46.54083456234685" lon="9.26164974079135"><ele>1518.0</ele><time>2026-05-03T10:41:32Z</time></trkpt><trkpt lat="46.54077747342541" lon="9.261415215342128"><ele>1518.0</ele><time>2026-05-03T10:41:33Z</time></trkpt><trkpt lat="46.54071486030335" lon="9.261184681200803"><ele>1518.0</ele><time>2026-05-03T10:41:34Z</time></trkpt><trkpt lat="46.540650487334986" lon="9.260955668439463"><ele>1518.0</ele><time>2026-05-03T10:41:35Z</time></trkpt><trkpt lat="46.54058709828556" lon="9.260731296912226"><ele>1518.6666666666667</ele><time>2026-05-03T10:41:36Z</time></trkpt><trkpt lat="46.54051998015503" lon="9.260503460217121"><ele>1519.3333333333335</ele><time>2026-05-03T10:41:37Z</time></trkpt><trkpt lat="46.54045025293705" lon="9.26027466015125"><ele>1520.0</ele><time>2026-05-03T10:41:38Z</time></trkpt><trkpt lat="46.54037832719224" lon="9.26005071954977"><ele>1520.0</ele><time>2026-05-03T10:41:39Z</time></trkpt><trkpt lat="46.54030976981812" lon="9.259830960661674"><ele>1520.0</ele><time>2026-05-03T10:41:40Z</time></trkpt><trkpt lat="46.540244582139366" lon="9.259609840492658"><ele>1520.0</ele><time>2026-05-03T10:41:41.001Z</time></trkpt><trkpt lat="46.540180094052104" lon="9.259389671103508"><ele>1520.6666666666667</ele><time>2026-05-03T10:41:42.001Z</time></trkpt><trkpt lat="46.54011387220457" lon="9.259168674129722"><ele>1521.3333333333333</ele><time>2026-05-03T10:41:43.001Z</time></trkpt><trkpt lat="46.54005345194291" lon="9.25894244168106"><ele>1522.0</ele><time>2026-05-03T10:41:44.001Z</time></trkpt><trkpt lat="46.5400011000186" lon="9.25871638767427"><ele>1523.6666666666665</ele><time>2026-05-03T10:41:45.001Z</time></trkpt><trkpt lat="46.53994753286252" lon="9.258491970301012"><ele>1525.3333333333333</ele><time>2026-05-03T10:41:46.001Z</time></trkpt><trkpt lat="46.539887119768395" lon="9.258283675354747"><ele>1527.0</ele><time>2026-05-03T10:41:47.001Z</time></trkpt><trkpt lat="46.53982065573426" lon="9.25808187142187"><ele>1529.0</ele><time>2026-05-03T10:41:48.001Z</time></trkpt><trkpt lat="46.539762004620954" lon="9.257873989014676"><ele>1531.0</ele><time>2026-05-03T10:41:49.001Z</time></trkpt><trkpt lat="46.539715345762374" lon="9.257658117393518"><ele>1533.0</ele><time>2026-05-03T10:41:50.001Z</time></trkpt><trkpt lat="46.53968273519501" lon="9.257436951722395"><ele>1534.6666666666665</ele><time>2026-05-03T10:41:51.001Z</time></trkpt><trkpt lat="46.53965616627958" lon="9.257209009919395"><ele>1536.3333333333333</ele><time>2026-05-03T10:41:52.001Z</time></trkpt><trkpt lat="46.539642365840024" lon="9.256986647291807"><ele>1538.0</ele><time>2026-05-03T10:41:53.001Z</time></trkpt><trkpt lat="46.53963939731717" lon="9.256755414343713"><ele>1538.0</ele><time>2026-05-03T10:41:54.001Z</time></trkpt><trkpt lat="46.53964531213662" lon="9.256523155400886"><ele>1538.0</ele><time>2026-05-03T10:41:55.001Z</time></trkpt><trkpt lat="46.53965681674969" lon="9.256286521325894"><ele>1538.0</ele><time>2026-05-03T10:41:56.001Z</time></trkpt><trkpt lat="46.53967589956438" lon="9.256050666371356"><ele>1538.6666666666665</ele><time>2026-05-03T10:41:57.001Z</time></trkpt><trkpt lat="46.53970821733854" lon="9.255816056245674"><ele>1539.3333333333335</ele><time>2026-05-03T10:41:58.001Z</time></trkpt><trkpt lat="46.539742433275265" lon="9.25558417311444"><ele>1540.0</ele><time>2026-05-03T10:41:59.001Z</time></trkpt><trkpt lat="46.53977889018837" lon="9.255355919258612"><ele>1541.0</ele><time>2026-05-03T10:42:00.001Z</time></trkpt><trkpt lat="46.539812651397156" lon="9.255130758018865"><ele>1542.0</ele><time>2026-05-03T10:42:01.001Z</time></trkpt><trkpt lat="46.53983441983819" lon="9.254904523917736"><ele>1543.0</ele><time>2026-05-03T10:42:02.001Z</time></trkpt><trkpt lat="46.539852838101126" lon="9.254671460410583"><ele>1544.6666666666667</ele><time>2026-05-03T10:42:03.001Z</time></trkpt><trkpt lat="46.53985245321546" lon="9.254447313954884"><ele>1546.3333333333335</ele><time>2026-05-03T10:42:04.001Z</time></trkpt><trkpt lat="46.539847639725636" lon="9.254220780348112"><ele>1548.0</ele><time>2026-05-03T10:42:05.001Z</time></trkpt><trkpt lat="46.53982919251089" lon="9.25399570533531"><ele>1549.6666666666665</ele><time>2026-05-03T10:42:06.001Z</time></trkpt><trkpt lat="46.539793545498895" lon="9.253771597168837"><ele>1551.3333333333333</ele><time>2026-05-03T10:42:07.001Z</time></trkpt><trkpt lat="46.53974803188427" lon="9.253538472555105"><ele>1553.0</ele><time>2026-05-03T10:42:08.001Z</time></trkpt><trkpt lat="46.539690144308445" lon="9.25331869525002"><ele>1553.0</ele><time>2026-05-03T10:42:09.001Z</time></trkpt><trkpt lat="46.53961581325709" lon="9.253097446095795"><ele>1553.0</ele><time>2026-05-03T10:42:10.001Z</time></trkpt><trkpt lat="46.53953365488965" lon="9.25288783215688"><ele>1553.0</ele><time>2026-05-03T10:42:11.001Z</time></trkpt><trkpt lat="46.53944565792344" lon="9.252667083663757"><ele>1551.6666666666665</ele><time>2026-05-03T10:42:12.001Z</time></trkpt><trkpt lat="46.53936041421143" lon="9.25245040938687"><ele>1550.3333333333335</ele><time>2026-05-03T10:42:13.001Z</time></trkpt><trkpt lat="46.53926989805541" lon="9.25223652484329"><ele>1549.0</ele><time>2026-05-03T10:42:14.001Z</time></trkpt><trkpt lat="46.53919134442352" lon="9.252019346758749"><ele>1549.0</ele><time>2026-05-03T10:42:15.001Z</time></trkpt><trkpt lat="46.53911142823836" lon="9.251801835659819"><ele>1549.0</ele><time>2026-05-03T10:42:16.001Z</time></trkpt><trkpt lat="46.53903343199043" lon="9.2515912317527"><ele>1549.0</ele><time>2026-05-03T10:42:17.001Z</time></trkpt><trkpt lat="46.53896183281355" lon="9.251359331387967"><ele>1551.3333333333335</ele><time>2026-05-03T10:42:18.001Z</time></trkpt><trkpt lat="46.538908893587305" lon="9.251125398324705"><ele>1553.6666666666665</ele><time>2026-05-03T10:42:19.001Z</time></trkpt><trkpt lat="46.53885922896213" lon="9.250892737747376"><ele>1556.0</ele><time>2026-05-03T10:42:20.001Z</time></trkpt><trkpt lat="46.53882400950162" lon="9.250661817202094"><ele>1556.6666666666665</ele><time>2026-05-03T10:42:21.001Z</time></trkpt><trkpt lat="46.538814824703145" lon="9.250437074901976"><ele>1557.3333333333335</ele><time>2026-05-03T10:42:22.001Z</time></trkpt><trkpt lat="46.5388298610795" lon="9.250208097288713"><ele>1558.0</ele><time>2026-05-03T10:42:23.001Z</time></trkpt><trkpt lat="46.538866792546656" lon="9.249990934298124"><ele>1558.0</ele><time>2026-05-03T10:42:24.001Z</time></trkpt><trkpt lat="46.53889459511784" lon="9.24980653303818"><ele>1558.0</ele><time>2026-05-03T10:42:25.001Z</time></trkpt><trkpt lat="46.53892115782217" lon="9.24964811580809"><ele>1558.0</ele><time>2026-05-03T10:42:26.001Z</time></trkpt><trkpt lat="46.53894692227579" lon="9.249507114335994"><ele>1558.0</ele><time>2026-05-03T10:42:27.001Z</time></trkpt><trkpt lat="46.538967581266824" lon="9.249378735624909"><ele>1558.0</ele><time>2026-05-03T10:42:28Z</time></trkpt><trkpt lat="46.538987296179855" lon="9.24925847878209"><ele>1558.6666666666667</ele><time>2026-05-03T10:42:29Z</time></trkpt><trkpt lat="46.5390063579132" lon="9.249134948868615"><ele>1559.3333333333335</ele><time>2026-05-03T10:42:30Z</time></trkpt><trkpt lat="46.53902714575322" lon="9.249012330587266"><ele>1560.0</ele><time>2026-05-03T10:42:31Z</time></trkpt><trkpt lat="46.539045142097386" lon="9.248894775542992"><ele>1560.6666666666665</ele><time>2026-05-03T10:42:32Z</time></trkpt><trkpt lat="46.539059406390386" lon="9.248775135836869"><ele>1561.3333333333333</ele><time>2026-05-03T10:42:33Z</time></trkpt><trkpt lat="46.539075819149495" lon="9.24866514783915"><ele>1562.0</ele><time>2026-05-03T10:42:34Z</time></trkpt><trkpt lat="46.53909980322803" lon="9.248541081979903"><ele>1562.1666666666665</ele><time>2026-05-03T10:42:35Z</time></trkpt><trkpt lat="46.53911916694075" lon="9.248429549942534"><ele>1562.3333333333333</ele><time>2026-05-03T10:42:36Z</time></trkpt><trkpt lat="46.53913929381317" lon="9.248314676697238"><ele>1562.5</ele><time>2026-05-03T10:42:37Z</time></trkpt><trkpt lat="46.5391637432958" lon="9.248204215401481"><ele>1562.6666666666665</ele><time>2026-05-03T10:42:38Z</time></trkpt><trkpt lat="46.53918448889869" lon="9.248080170914468"><ele>1562.8333333333333</ele><time>2026-05-03T10:42:39Z</time></trkpt><trkpt lat="46.53920794380392" lon="9.247955402094455"><ele>1563.0</ele><time>2026-05-03T10:42:40Z</time></trkpt><trkpt lat="46.539229888443984" lon="9.247828398592295"><ele>1562.8000000000002</ele><time>2026-05-03T10:42:41Z</time></trkpt><trkpt lat="46.53925648964787" lon="9.247698566833487"><ele>1562.6</ele><time>2026-05-03T10:42:42Z</time></trkpt><trkpt lat="46.53928673625205" lon="9.247564526250073"><ele>1562.4</ele><time>2026-05-03T10:42:43Z</time></trkpt><trkpt lat="46.53930718379542" lon="9.247442745398828"><ele>1562.1999999999998</ele><time>2026-05-03T10:42:44Z</time></trkpt><trkpt lat="46.539324889183305" lon="9.24731400081157"><ele>1562.0</ele><time>2026-05-03T10:42:45Z</time></trkpt><trkpt lat="46.53934218968395" lon="9.247195742464175"><ele>1561.9999999999998</ele><time>2026-05-03T10:42:46Z</time></trkpt><trkpt lat="46.53935669335668" lon="9.247076196637165"><ele>1562.0</ele><time>2026-05-03T10:42:47Z</time></trkpt><trkpt lat="46.539366631936446" lon="9.246952288820435"><ele>1562.0</ele><time>2026-05-03T10:42:48Z</time></trkpt><trkpt lat="46.539373759626756" lon="9.246820333520482"><ele>1562.0</ele><time>2026-05-03T10:42:49Z</time></trkpt><trkpt lat="46.539373842008786" lon="9.246687593885682"><ele>1561.9999999999998</ele><time>2026-05-03T10:42:50Z</time></trkpt><trkpt lat="46.539367338444514" lon="9.246561310299892"><ele>1562.0</ele><time>2026-05-03T10:42:51Z</time></trkpt><trkpt lat="46.539359578492764" lon="9.246432333597092"><ele>1562.6666666666665</ele><time>2026-05-03T10:42:52Z</time></trkpt><trkpt lat="46.53935484519453" lon="9.246303533378043"><ele>1563.3333333333333</ele><time>2026-05-03T10:42:53Z</time></trkpt><trkpt lat="46.539352933308436" lon="9.246170776214719"><ele>1564.0</ele><time>2026-05-03T10:42:54Z</time></trkpt><trkpt lat="46.53934890255806" lon="9.246062131580018"><ele>1564.6666666666665</ele><time>2026-05-03T10:42:55Z</time></trkpt><trkpt lat="46.539349382626256" lon="9.245933435243973"><ele>1565.3333333333333</ele><time>2026-05-03T10:42:56Z</time></trkpt><trkpt lat="46.5393404484723" lon="9.245829910337319"><ele>1566.0</ele><time>2026-05-03T10:42:57Z</time></trkpt><trkpt lat="46.53933189821778" lon="9.245723977217143"><ele>1566.5</ele><time>2026-05-03T10:42:58Z</time></trkpt><trkpt lat="46.53932631701943" lon="9.245601162337147"><ele>1567.0</ele><time>2026-05-03T10:42:59Z</time></trkpt><trkpt lat="46.53932201120073" lon="9.245484696204237"><ele>1567.5</ele><time>2026-05-03T10:43:00Z</time></trkpt><trkpt lat="46.5393123663333" lon="9.24536424268783"><ele>1568.0</ele><time>2026-05-03T10:43:01Z</time></trkpt><trkpt lat="46.539323572907534" lon="9.245251382173416"><ele>1568.5</ele><time>2026-05-03T10:43:02Z</time></trkpt><trkpt lat="46.53932597775691" lon="9.245152925000228"><ele>1569.0</ele><time>2026-05-03T10:43:03Z</time></trkpt><trkpt lat="46.53932938559698" lon="9.245027700276905"><ele>1569.0</ele><time>2026-05-03T10:43:04Z</time></trkpt><trkpt lat="46.5393416593807" lon="9.244911863276512"><ele>1569.0</ele><time>2026-05-03T10:43:05Z</time></trkpt><trkpt lat="46.5393564600193" lon="9.244800485687461"><ele>1569.0</ele><time>2026-05-03T10:43:06Z</time></trkpt><trkpt lat="46.53937445759715" lon="9.244672539601211"><ele>1569.0</ele><time>2026-05-03T10:43:07Z</time></trkpt><trkpt lat="46.53939541526445" lon="9.24455421068882"><ele>1569.0</ele><time>2026-05-03T10:43:08Z</time></trkpt><trkpt lat="46.53941167356144" lon="9.244426350794667"><ele>1569.0</ele><time>2026-05-03T10:43:09Z</time></trkpt><trkpt lat="46.539427693741246" lon="9.244306184179647"><ele>1569.0</ele><time>2026-05-03T10:43:10Z</time></trkpt><trkpt lat="46.539441557412296" lon="9.244197578691507"><ele>1569.0</ele><time>2026-05-03T10:43:11Z</time></trkpt><trkpt lat="46.53945954292505" lon="9.244089479363998"><ele>1569.0</ele><time>2026-05-03T10:43:12Z</time></trkpt><trkpt lat="46.53947090876261" lon="9.24399505679682"><ele>1569.0</ele><time>2026-05-03T10:43:13Z</time></trkpt><trkpt lat="46.53949196506398" lon="9.243891050714588"><ele>1569.0</ele><time>2026-05-03T10:43:14Z</time></trkpt><trkpt lat="46.539506703063644" lon="9.243794498315987"><ele>1569.0</ele><time>2026-05-03T10:43:15Z</time></trkpt><trkpt lat="46.53951861407439" lon="9.243686245153917"><ele>1569.0</ele><time>2026-05-03T10:43:16Z</time></trkpt><trkpt lat="46.5395124036066" lon="9.243585407444106"><ele>1569.3333333333333</ele><time>2026-05-03T10:43:17Z</time></trkpt><trkpt lat="46.53947855937219" lon="9.243506109604304"><ele>1569.6666666666665</ele><time>2026-05-03T10:43:18Z</time></trkpt><trkpt lat="46.5394071019345" lon="9.243479996759913"><ele>1570.0</ele><time>2026-05-03T10:43:19Z</time></trkpt><trkpt lat="46.53932526879484" lon="9.24348384323579"><ele>1570.3333333333333</ele><time>2026-05-03T10:43:20Z</time></trkpt><trkpt lat="46.539234491678506" lon="9.243499744754706"><ele>1570.6666666666665</ele><time>2026-05-03T10:43:21Z</time></trkpt><trkpt lat="46.539139381289274" lon="9.24352736705361"><ele>1571.0</ele><time>2026-05-03T10:43:22Z</time></trkpt><trkpt lat="46.53904046070109" lon="9.24357303418366"><ele>1571.0</ele><time>2026-05-03T10:43:23Z</time></trkpt><trkpt lat="46.53894689814073" lon="9.243622382758492"><ele>1571.0</ele><time>2026-05-03T10:43:24Z</time></trkpt><trkpt lat="46.53885513945446" lon="9.243666462044098"><ele>1571.0</ele><time>2026-05-03T10:43:25.001Z</time></trkpt><trkpt lat="46.53875511132856" lon="9.243694530150579"><ele>1571.0</ele><time>2026-05-03T10:43:26.001Z</time></trkpt><trkpt lat="46.538645534983814" lon="9.243668400867245"><ele>1571.0</ele><time>2026-05-03T10:43:27.001Z</time></trkpt><trkpt lat="46.53852383943062" lon="9.243658893961634"><ele>1568.1999999999998</ele><time>2026-05-03T10:43:28.001Z</time></trkpt><trkpt lat="46.538418105738415" lon="9.243673613355703"><ele>1565.3999999999999</ele><time>2026-05-03T10:43:29.001Z</time></trkpt><trkpt lat="46.538324308778364" lon="9.24365894376989"><ele>1562.6</ele><time>2026-05-03T10:43:30.001Z</time></trkpt><trkpt lat="46.53825544959445" lon="9.243619416026052"><ele>1559.8</ele><time>2026-05-03T10:43:31.001Z</time></trkpt><trkpt lat="46.53825252997414" lon="9.24343859503491"><ele>1557.0</ele><time>2026-05-03T10:43:33.001Z</time></trkpt><trkpt lat="46.5383004818255" lon="9.24332224588397"><ele>1557.0</ele><time>2026-05-03T10:43:34.001Z</time></trkpt><trkpt lat="46.53833823866868" lon="9.243186141147845"><ele>1557.0</ele><time>2026-05-03T10:43:35.001Z</time></trkpt><trkpt lat="46.53835542110006" lon="9.24302026811221"><ele>1557.0</ele><time>2026-05-03T10:43:36.001Z</time></trkpt><trkpt lat="46.53835749353184" lon="9.242834388125281"><ele>1557.0</ele><time>2026-05-03T10:43:37.001Z</time></trkpt><trkpt lat="46.53836227589987" lon="9.242661413845111"><ele>1556.5</ele><time>2026-05-03T10:43:38.001Z</time></trkpt><trkpt lat="46.53836630867664" lon="9.242479022607919"><ele>1556.0</ele><time>2026-05-03T10:43:39.001Z</time></trkpt><trkpt lat="46.538366413756926" lon="9.24228214368538"><ele>1555.5</ele><time>2026-05-03T10:43:40.001Z</time></trkpt><trkpt lat="46.53835776523204" lon="9.2420771867559"><ele>1555.0</ele><time>2026-05-03T10:43:41.001Z</time></trkpt><trkpt lat="46.53834601582314" lon="9.241880331325952"><ele>1555.25</ele><time>2026-05-03T10:43:42.001Z</time></trkpt><trkpt lat="46.53833170632997" lon="9.241689305442199"><ele>1555.5</ele><time>2026-05-03T10:43:43.001Z</time></trkpt><trkpt lat="46.53830876522969" lon="9.241507320889284"><ele>1555.75</ele><time>2026-05-03T10:43:44.001Z</time></trkpt><trkpt lat="46.53828443960238" lon="9.241322738375217"><ele>1556.0</ele><time>2026-05-03T10:43:45.001Z</time></trkpt><trkpt lat="46.53826163912553" lon="9.241153073433109"><ele>1556.0</ele><time>2026-05-03T10:43:46.001Z</time></trkpt><trkpt lat="46.53823020215424" lon="9.240985966146253"><ele>1556.0</ele><time>2026-05-03T10:43:47.001Z</time></trkpt><trkpt lat="46.538201168183825" lon="9.240809987882347"><ele>1556.0</ele><time>2026-05-03T10:43:48.001Z</time></trkpt><trkpt lat="46.53816865292876" lon="9.24064128761745"><ele>1556.0</ele><time>2026-05-03T10:43:49.001Z</time></trkpt><trkpt lat="46.538135268726165" lon="9.240474948705804"><ele>1557.25</ele><time>2026-05-03T10:43:50.001Z</time></trkpt><trkpt lat="46.53809466687115" lon="9.2403120541595"><ele>1558.5</ele><time>2026-05-03T10:43:51.001Z</time></trkpt><trkpt lat="46.53805550164627" lon="9.240150576643222"><ele>1559.75</ele><time>2026-05-03T10:43:52.001Z</time></trkpt><trkpt lat="46.538011510473545" lon="9.239989038204993"><ele>1561.0</ele><time>2026-05-03T10:43:53.001Z</time></trkpt><trkpt lat="46.537977529024054" lon="9.239824255639693"><ele>1562.0</ele><time>2026-05-03T10:43:54.001Z</time></trkpt><trkpt lat="46.537939997926586" lon="9.239658499504419"><ele>1563.0</ele><time>2026-05-03T10:43:55.001Z</time></trkpt><trkpt lat="46.53789842107746" lon="9.239492256122968"><ele>1564.0</ele><time>2026-05-03T10:43:56.001Z</time></trkpt><trkpt lat="46.537862241695024" lon="9.239321283913657"><ele>1565.0</ele><time>2026-05-03T10:43:57.001Z</time></trkpt><trkpt lat="46.537824373543195" lon="9.239144462486683"><ele>1563.0</ele><time>2026-05-03T10:43:58.001Z</time></trkpt><trkpt lat="46.537790615539954" lon="9.238958225700136"><ele>1561.0</ele><time>2026-05-03T10:43:59.001Z</time></trkpt><trkpt lat="46.53776069047469" lon="9.238770860665683"><ele>1559.0</ele><time>2026-05-03T10:44:00.001Z</time></trkpt><trkpt lat="46.53773318737787" lon="9.238589024822414"><ele>1557.0</ele><time>2026-05-03T10:44:01.001Z</time></trkpt><trkpt lat="46.53770786176615" lon="9.238400930094445"><ele>1557.0</ele><time>2026-05-03T10:44:02.001Z</time></trkpt><trkpt lat="46.537688803383496" lon="9.238215643585244"><ele>1557.0</ele><time>2026-05-03T10:44:03.001Z</time></trkpt><trkpt lat="46.537674422241686" lon="9.238027448359462"><ele>1557.0</ele><time>2026-05-03T10:44:04.001Z</time></trkpt><trkpt lat="46.53766616303949" lon="9.237836895601303"><ele>1557.0</ele><time>2026-05-03T10:44:05.001Z</time></trkpt><trkpt lat="46.53766173464575" lon="9.237643910765062"><ele>1557.0</ele><time>2026-05-03T10:44:06.001Z</time></trkpt><trkpt lat="46.5376574327992" lon="9.237452067001954"><ele>1557.0</ele><time>2026-05-03T10:44:07.001Z</time></trkpt><trkpt lat="46.537661905589275" lon="9.237259789302666"><ele>1557.0</ele><time>2026-05-03T10:44:08.001Z</time></trkpt><trkpt lat="46.53766735842162" lon="9.237065888286438"><ele>1557.0</ele><time>2026-05-03T10:44:09.001Z</time></trkpt><trkpt lat="46.53767655093303" lon="9.236869682627637"><ele>1556.75</ele><time>2026-05-03T10:44:10.001Z</time></trkpt><trkpt lat="46.53768356063935" lon="9.236675170953868"><ele>1556.5</ele><time>2026-05-03T10:44:11.001Z</time></trkpt><trkpt lat="46.53769305835631" lon="9.236479334304462"><ele>1556.25</ele><time>2026-05-03T10:44:12.001Z</time></trkpt><trkpt lat="46.53770305908623" lon="9.236273069901575"><ele>1556.0</ele><time>2026-05-03T10:44:13.001Z</time></trkpt><trkpt lat="46.53771392321627" lon="9.236067119498166"><ele>1556.0</ele><time>2026-05-03T10:44:14.001Z</time></trkpt><trkpt lat="46.53772441139422" lon="9.235859469382394"><ele>1556.0</ele><time>2026-05-03T10:44:15.001Z</time></trkpt><trkpt lat="46.53773748471726" lon="9.235647381762295"><ele>1556.0</ele><time>2026-05-03T10:44:16.001Z</time></trkpt><trkpt lat="46.53775377144107" lon="9.235427693056481"><ele>1556.0</ele><time>2026-05-03T10:44:17.001Z</time></trkpt><trkpt lat="46.537774294778984" lon="9.235198089250307"><ele>1556.0</ele><time>2026-05-03T10:44:18.001Z</time></trkpt><trkpt lat="46.53779666534543" lon="9.234960344048135"><ele>1556.0</ele><time>2026-05-03T10:44:19.001Z</time></trkpt><trkpt lat="46.53781975503899" lon="9.234729899055122"><ele>1556.0</ele><time>2026-05-03T10:44:20.001Z</time></trkpt><trkpt lat="46.537834713374096" lon="9.234499249407033"><ele>1554.3333333333333</ele><time>2026-05-03T10:44:21.001Z</time></trkpt><trkpt lat="46.53784771056813" lon="9.234262465975238"><ele>1552.6666666666665</ele><time>2026-05-03T10:44:22.001Z</time></trkpt><trkpt lat="46.53785812662933" lon="9.234025442165704"><ele>1551.0</ele><time>2026-05-03T10:44:23.001Z</time></trkpt><trkpt lat="46.53786900769178" lon="9.233788500683506"><ele>1551.0</ele><time>2026-05-03T10:44:24.001Z</time></trkpt><trkpt lat="46.53787406188222" lon="9.233542574141001"><ele>1551.0</ele><time>2026-05-03T10:44:25.001Z</time></trkpt><trkpt lat="46.53788092457028" lon="9.233298749282572"><ele>1551.0</ele><time>2026-05-03T10:44:26.001Z</time></trkpt><trkpt lat="46.53788959591896" lon="9.233044537169217"><ele>1556.6666666666665</ele><time>2026-05-03T10:44:27.001Z</time></trkpt><trkpt lat="46.537900502467686" lon="9.232797403177944"><ele>1562.3333333333333</ele><time>2026-05-03T10:44:28.001Z</time></trkpt><trkpt lat="46.53791105785875" lon="9.232556426731664"><ele>1568.0</ele><time>2026-05-03T10:44:29.001Z</time></trkpt><trkpt lat="46.53792017376692" lon="9.232316102353716"><ele>1567.0</ele><time>2026-05-03T10:44:30.001Z</time></trkpt><trkpt lat="46.537925013365566" lon="9.232073259676692"><ele>1566.0</ele><time>2026-05-03T10:44:31.001Z</time></trkpt><trkpt lat="46.53792582338973" lon="9.231827461686173"><ele>1565.0</ele><time>2026-05-03T10:44:32.001Z</time></trkpt><trkpt lat="46.5379211213646" lon="9.23157345846736"><ele>1563.6666666666665</ele><time>2026-05-03T10:44:33.001Z</time></trkpt><trkpt lat="46.53790929847184" lon="9.23132279385357"><ele>1562.3333333333335</ele><time>2026-05-03T10:44:34Z</time></trkpt><trkpt lat="46.53789606512031" lon="9.231069296744435"><ele>1561.0</ele><time>2026-05-03T10:44:35Z</time></trkpt><trkpt lat="46.53788432357924" lon="9.230824922937135"><ele>1557.6666666666667</ele><time>2026-05-03T10:44:36Z</time></trkpt><trkpt lat="46.53786785924468" lon="9.230581029875067"><ele>1554.3333333333335</ele><time>2026-05-03T10:44:37Z</time></trkpt><trkpt lat="46.537847126558574" lon="9.230339734409093"><ele>1551.0</ele><time>2026-05-03T10:44:38Z</time></trkpt><trkpt lat="46.5378205391663" lon="9.230099767482637"><ele>1551.0</ele><time>2026-05-03T10:44:39Z</time></trkpt><trkpt lat="46.53779032030145" lon="9.229865457072574"><ele>1551.0</ele><time>2026-05-03T10:44:40Z</time></trkpt><trkpt lat="46.53775722177184" lon="9.229622625640499"><ele>1551.0</ele><time>2026-05-03T10:44:41Z</time></trkpt><trkpt lat="46.537723147306814" lon="9.229386495874582"><ele>1551.6666666666665</ele><time>2026-05-03T10:44:42Z</time></trkpt><trkpt lat="46.537685295413304" lon="9.22914758108437"><ele>1552.3333333333333</ele><time>2026-05-03T10:44:43Z</time></trkpt><trkpt lat="46.53764658542069" lon="9.22890872657226"><ele>1553.0</ele><time>2026-05-03T10:44:44Z</time></trkpt><trkpt lat="46.5376006610075" lon="9.228665831397443"><ele>1554.0</ele><time>2026-05-03T10:44:45Z</time></trkpt><trkpt lat="46.53755250890295" lon="9.228426576550822"><ele>1555.0</ele><time>2026-05-03T10:44:46Z</time></trkpt><trkpt lat="46.53750352567208" lon="9.228194930471531"><ele>1556.0</ele><time>2026-05-03T10:44:47Z</time></trkpt><trkpt lat="46.53745360453678" lon="9.227959492973248"><ele>1557.3333333333333</ele><time>2026-05-03T10:44:48Z</time></trkpt><trkpt lat="46.537400225416285" lon="9.227727121900795"><ele>1558.6666666666665</ele><time>2026-05-03T10:44:49Z</time></trkpt><trkpt lat="46.53734354874542" lon="9.227492049562143"><ele>1560.0</ele><time>2026-05-03T10:44:50Z</time></trkpt><trkpt lat="46.537278845263955" lon="9.227261418069995"><ele>1559.6666666666665</ele><time>2026-05-03T10:44:51Z</time></trkpt><trkpt lat="46.53720737489671" lon="9.227040499123872"><ele>1559.3333333333333</ele><time>2026-05-03T10:44:52Z</time></trkpt><trkpt lat="46.537129523677876" lon="9.226829145586754"><ele>1559.0</ele><time>2026-05-03T10:44:53Z</time></trkpt><trkpt lat="46.537051389725406" lon="9.226626561356674"><ele>1562.6666666666665</ele><time>2026-05-03T10:44:54Z</time></trkpt><trkpt lat="46.53697228796556" lon="9.226424850363582"><ele>1566.3333333333335</ele><time>2026-05-03T10:44:55Z</time></trkpt><trkpt lat="46.53689758053334" lon="9.226227878884739"><ele>1570.0</ele><time>2026-05-03T10:44:56Z</time></trkpt><trkpt lat="46.536812619722845" lon="9.226036884071624"><ele>1570.0</ele><time>2026-05-03T10:44:57Z</time></trkpt><trkpt lat="46.53672961998758" lon="9.225833588015234"><ele>1570.0</ele><time>2026-05-03T10:44:58Z</time></trkpt><trkpt lat="46.53664798901936" lon="9.22562895426491"><ele>1570.0</ele><time>2026-05-03T10:44:59Z</time></trkpt><trkpt lat="46.53657953321445" lon="9.225421533707854"><ele>1577.3333333333335</ele><time>2026-05-03T10:45:00Z</time></trkpt><trkpt lat="46.53651039217073" lon="9.225213717463111"><ele>1584.6666666666665</ele><time>2026-05-03T10:45:01Z</time></trkpt><trkpt lat="46.53643227912446" lon="9.225010187407403"><ele>1592.0</ele><time>2026-05-03T10:45:02Z</time></trkpt><trkpt lat="46.536375409664274" lon="9.224800082914678"><ele>1597.0</ele><time>2026-05-03T10:45:03Z</time></trkpt><trkpt lat="46.53629691790905" lon="9.224602737438547"><ele>1602.0</ele><time>2026-05-03T10:45:04Z</time></trkpt><trkpt lat="46.53622402170034" lon="9.224415947157302"><ele>1607.0</ele><time>2026-05-03T10:45:05Z</time></trkpt><trkpt lat="46.536163891863154" lon="9.22420379700025"><ele>1600.3333333333333</ele><time>2026-05-03T10:45:06Z</time></trkpt><trkpt lat="46.53609131753492" lon="9.224008454126572"><ele>1593.6666666666665</ele><time>2026-05-03T10:45:07Z</time></trkpt><trkpt lat="46.53601850705661" lon="9.223812475681866"><ele>1587.0</ele><time>2026-05-03T10:45:08Z</time></trkpt><trkpt lat="46.535945690223194" lon="9.223616480289918"><ele>1587.0</ele><time>2026-05-03T10:45:09Z</time></trkpt><trkpt lat="46.535869292894716" lon="9.223417431531422"><ele>1587.0</ele><time>2026-05-03T10:45:10Z</time></trkpt><trkpt lat="46.535788385649994" lon="9.22321137734897"><ele>1587.0</ele><time>2026-05-03T10:45:11Z</time></trkpt><trkpt lat="46.535692949370464" lon="9.223015116566389"><ele>1591.6666666666665</ele><time>2026-05-03T10:45:12Z</time></trkpt><trkpt lat="46.535609473766485" lon="9.222806681242835"><ele>1596.3333333333333</ele><time>2026-05-03T10:45:13Z</time></trkpt><trkpt lat="46.535523461909214" lon="9.22259943317812"><ele>1601.0</ele><time>2026-05-03T10:45:14Z</time></trkpt><trkpt lat="46.53543306788874" lon="9.222388211247317"><ele>1592.3333333333333</ele><time>2026-05-03T10:45:15Z</time></trkpt><trkpt lat="46.535345929173" lon="9.222178598204373"><ele>1583.6666666666665</ele><time>2026-05-03T10:45:16.001Z</time></trkpt><trkpt lat="46.535249037898225" lon="9.221966721357859"><ele>1575.0</ele><time>2026-05-03T10:45:17.001Z</time></trkpt><trkpt lat="46.535149458605325" lon="9.221766783620051"><ele>1575.0</ele><time>2026-05-03T10:45:18.001Z</time></trkpt><trkpt lat="46.53505545000549" lon="9.221561271052359"><ele>1575.0</ele><time>2026-05-03T10:45:19.001Z</time></trkpt><trkpt lat="46.534968694316255" lon="9.221351311278518"><ele>1575.0</ele><time>2026-05-03T10:45:20.001Z</time></trkpt><trkpt lat="46.534884704705654" lon="9.221135203401774"><ele>1583.0</ele><time>2026-05-03T10:45:21.001Z</time></trkpt><trkpt lat="46.53479466962186" lon="9.220933521643193"><ele>1591.0</ele><time>2026-05-03T10:45:22.001Z</time></trkpt><trkpt lat="46.53470070248009" lon="9.220728769861317"><ele>1599.0</ele><time>2026-05-03T10:45:23.001Z</time></trkpt><trkpt lat="46.53461056032704" lon="9.220536681527571"><ele>1591.6666666666665</ele><time>2026-05-03T10:45:24.001Z</time></trkpt><trkpt lat="46.53452133998497" lon="9.220347283895137"><ele>1584.3333333333333</ele><time>2026-05-03T10:45:25.001Z</time></trkpt><trkpt lat="46.534431255138124" lon="9.2201478255477"><ele>1577.0</ele><time>2026-05-03T10:45:26.001Z</time></trkpt><trkpt lat="46.53433966094651" lon="9.219959722169692"><ele>1585.6666666666665</ele><time>2026-05-03T10:45:27.001Z</time></trkpt><trkpt lat="46.53425303011784" lon="9.219772456948006"><ele>1594.3333333333335</ele><time>2026-05-03T10:45:28.001Z</time></trkpt><trkpt lat="46.53417305116517" lon="9.219584202243567"><ele>1603.0</ele><time>2026-05-03T10:45:29.001Z</time></trkpt><trkpt lat="46.53408872504745" lon="9.219397602857466"><ele>1603.0</ele><time>2026-05-03T10:45:30.001Z</time></trkpt><trkpt lat="46.53400150845316" lon="9.219203146606983"><ele>1603.0</ele><time>2026-05-03T10:45:31.001Z</time></trkpt><trkpt lat="46.533919609509816" lon="9.219013777549055"><ele>1603.0</ele><time>2026-05-03T10:45:32.001Z</time></trkpt><trkpt lat="46.533828166058434" lon="9.218821708388637"><ele>1595.6666666666667</ele><time>2026-05-03T10:45:33.001Z</time></trkpt><trkpt lat="46.53373396183694" lon="9.218619753103948"><ele>1588.3333333333335</ele><time>2026-05-03T10:45:34.001Z</time></trkpt><trkpt lat="46.533648728327286" lon="9.218428037847607"><ele>1581.0</ele><time>2026-05-03T10:45:35.001Z</time></trkpt><trkpt lat="46.53356305844201" lon="9.218220536343239"><ele>1586.6666666666665</ele><time>2026-05-03T10:45:36.001Z</time></trkpt><trkpt lat="46.5334684590236" lon="9.21801122741138"><ele>1592.3333333333333</ele><time>2026-05-03T10:45:37.001Z</time></trkpt><trkpt lat="46.53338030284011" lon="9.217805801097485"><ele>1598.0</ele><time>2026-05-03T10:45:38.001Z</time></trkpt><trkpt lat="46.53329149903956" lon="9.217599921159923"><ele>1598.0</ele><time>2026-05-03T10:45:39.001Z</time></trkpt><trkpt lat="46.5332155404596" lon="9.217380292756806"><ele>1598.0</ele><time>2026-05-03T10:45:40.001Z</time></trkpt><trkpt lat="46.53313175354321" lon="9.217167949045445"><ele>1598.0</ele><time>2026-05-03T10:45:41.001Z</time></trkpt><trkpt lat="46.533054970749895" lon="9.21696217722586"><ele>1601.5</ele><time>2026-05-03T10:45:42.001Z</time></trkpt><trkpt lat="46.53298792246082" lon="9.216767735339307"><ele>1605.0</ele><time>2026-05-03T10:45:43.001Z</time></trkpt><trkpt lat="46.53292079526809" lon="9.216575778310384"><ele>1608.5</ele><time>2026-05-03T10:45:44.001Z</time></trkpt><trkpt lat="46.532855559887324" lon="9.216379120191954"><ele>1612.0</ele><time>2026-05-03T10:45:45.001Z</time></trkpt><trkpt lat="46.53280699743622" lon="9.216174481281355"><ele>1605.0</ele><time>2026-05-03T10:45:46.001Z</time></trkpt><trkpt lat="46.53275140232398" lon="9.21597224853838"><ele>1598.0</ele><time>2026-05-03T10:45:47.001Z</time></trkpt><trkpt lat="46.53270609845241" lon="9.215760637801807"><ele>1591.0</ele><time>2026-05-03T10:45:48.001Z</time></trkpt><trkpt lat="46.532665253716374" lon="9.215541853531091"><ele>1591.0</ele><time>2026-05-03T10:45:49.001Z</time></trkpt><trkpt lat="46.5326303028369" lon="9.2153277206989"><ele>1591.0</ele><time>2026-05-03T10:45:50.001Z</time></trkpt><trkpt lat="46.532595317280524" lon="9.215113004493668"><ele>1591.0</ele><time>2026-05-03T10:45:51.001Z</time></trkpt><trkpt lat="46.532584971313646" lon="9.214895368922257"><ele>1592.0</ele><time>2026-05-03T10:45:52.001Z</time></trkpt><trkpt lat="46.53254882196704" lon="9.214680947470718"><ele>1593.0</ele><time>2026-05-03T10:45:53.001Z</time></trkpt><trkpt lat="46.53251421549983" lon="9.214467090929011"><ele>1594.0</ele><time>2026-05-03T10:45:54.001Z</time></trkpt><trkpt lat="46.532492417006964" lon="9.214255708658552"><ele>1594.0</ele><time>2026-05-03T10:45:55.001Z</time></trkpt><trkpt lat="46.532466597167996" lon="9.21404045875353"><ele>1594.0</ele><time>2026-05-03T10:45:56.001Z</time></trkpt><trkpt lat="46.53243722767409" lon="9.213817332844211"><ele>1594.0</ele><time>2026-05-03T10:45:57.001Z</time></trkpt><trkpt lat="46.53240425304987" lon="9.213592312210407"><ele>1597.6666666666667</ele><time>2026-05-03T10:45:58.001Z</time></trkpt><trkpt lat="46.5323574510354" lon="9.213365259097307"><ele>1601.3333333333335</ele><time>2026-05-03T10:45:59.001Z</time></trkpt><trkpt lat="46.53230330710863" lon="9.213148706286999"><ele>1605.0</ele><time>2026-05-03T10:46:00.001Z</time></trkpt><trkpt lat="46.53224488443862" lon="9.212935790963517"><ele>1610.3333333333335</ele><time>2026-05-03T10:46:01.001Z</time></trkpt><trkpt lat="46.53218222941723" lon="9.212727495375129"><ele>1615.6666666666667</ele><time>2026-05-03T10:46:02.001Z</time></trkpt><trkpt lat="46.53212570835642" lon="9.21252081677275"><ele>1621.0</ele><time>2026-05-03T10:46:03.001Z</time></trkpt><trkpt lat="46.53205802903788" lon="9.212311380503019"><ele>1612.0</ele><time>2026-05-03T10:46:04.001Z</time></trkpt><trkpt lat="46.531984259937126" lon="9.21210700798665"><ele>1603.0</ele><time>2026-05-03T10:46:05.001Z</time></trkpt><trkpt lat="46.531902259759015" lon="9.21190259901732"><ele>1594.0</ele><time>2026-05-03T10:46:06.001Z</time></trkpt><trkpt lat="46.53180912227741" lon="9.211717055401818"><ele>1594.0</ele><time>2026-05-03T10:46:07.001Z</time></trkpt><trkpt lat="46.53172816201461" lon="9.211512850772454"><ele>1594.0</ele><time>2026-05-03T10:46:08.001Z</time></trkpt><trkpt lat="46.53163870411835" lon="9.211295176346129"><ele>1594.0</ele><time>2026-05-03T10:46:09.001Z</time></trkpt><trkpt lat="46.531548563708554" lon="9.211080301597757"><ele>1600.0</ele><time>2026-05-03T10:46:10.001Z</time></trkpt><trkpt lat="46.53146469639313" lon="9.21085861942448"><ele>1606.0</ele><time>2026-05-03T10:46:11.001Z</time></trkpt><trkpt lat="46.531411266070876" lon="9.210630264707126"><ele>1612.0</ele><time>2026-05-03T10:46:12.001Z</time></trkpt><trkpt lat="46.531381795122776" lon="9.210413789061995"><ele>1614.75</ele><time>2026-05-03T10:46:13.001Z</time></trkpt><trkpt lat="46.53136549045402" lon="9.210194846384386"><ele>1617.5</ele><time>2026-05-03T10:46:14.001Z</time></trkpt><trkpt lat="46.53136757276926" lon="9.209973754267278"><ele>1620.25</ele><time>2026-05-03T10:46:15.001Z</time></trkpt><trkpt lat="46.53137228725312" lon="9.20976763983074"><ele>1623.0</ele><time>2026-05-03T10:46:16.001Z</time></trkpt><trkpt lat="46.53138527514062" lon="9.209568573601878"><ele>1623.0</ele><time>2026-05-03T10:46:17.001Z</time></trkpt><trkpt lat="46.53140707009803" lon="9.209369425844114"><ele>1623.0</ele><time>2026-05-03T10:46:18.001Z</time></trkpt><trkpt lat="46.531440377285804" lon="9.209182399371553"><ele>1623.0</ele><time>2026-05-03T10:46:19.001Z</time></trkpt><trkpt lat="46.53147959976543" lon="9.208996278066397"><ele>1623.0</ele><time>2026-05-03T10:46:20.001Z</time></trkpt><trkpt lat="46.53152612342015" lon="9.20882244717073"><ele>1621.8000000000002</ele><time>2026-05-03T10:46:21.001Z</time></trkpt><trkpt lat="46.53157291338923" lon="9.208655111103791"><ele>1620.6</ele><time>2026-05-03T10:46:22.001Z</time></trkpt><trkpt lat="46.531615531862954" lon="9.208513460861004"><ele>1619.4</ele><time>2026-05-03T10:46:23.001Z</time></trkpt><trkpt lat="46.531658094885046" lon="9.208402323738984"><ele>1618.1999999999998</ele><time>2026-05-03T10:46:24.001Z</time></trkpt><trkpt lat="46.531690674930196" lon="9.208300178992673"><ele>1617.0</ele><time>2026-05-03T10:46:25.001Z</time></trkpt><trkpt lat="46.53171768274741" lon="9.208187704006972"><ele>1615.0</ele><time>2026-05-03T10:46:26.001Z</time></trkpt><trkpt lat="46.5317378364396" lon="9.20803724221249"><ele>1613.0</ele><time>2026-05-03T10:46:27.001Z</time></trkpt><trkpt lat="46.53175855138064" lon="9.207897807725622"><ele>1611.0</ele><time>2026-05-03T10:46:28.001Z</time></trkpt><trkpt lat="46.531772682965396" lon="9.20776357905167"><ele>1609.0</ele><time>2026-05-03T10:46:29.001Z</time></trkpt><trkpt lat="46.531786104530184" lon="9.20760469368553"><ele>1607.0</ele><time>2026-05-03T10:46:30.001Z</time></trkpt><trkpt lat="46.531806895914784" lon="9.207436562910761"><ele>1607.5</ele><time>2026-05-03T10:46:31.001Z</time></trkpt><trkpt lat="46.53182385526486" lon="9.207229032277853"><ele>1608.0</ele><time>2026-05-03T10:46:32.001Z</time></trkpt><trkpt lat="46.5318265826036" lon="9.207014397536078"><ele>1608.5</ele><time>2026-05-03T10:46:33.001Z</time></trkpt><trkpt lat="46.53181660891747" lon="9.206806577731362"><ele>1609.0</ele><time>2026-05-03T10:46:34.001Z</time></trkpt><trkpt lat="46.53178829057242" lon="9.206600614750549"><ele>1610.5</ele><time>2026-05-03T10:46:35.001Z</time></trkpt><trkpt lat="46.53176470687962" lon="9.20640569607154"><ele>1612.0</ele><time>2026-05-03T10:46:36.001Z</time></trkpt><trkpt lat="46.531718286657636" lon="9.20620660862867"><ele>1613.5</ele><time>2026-05-03T10:46:37.001Z</time></trkpt><trkpt lat="46.53166621830075" lon="9.206008646324953"><ele>1615.0</ele><time>2026-05-03T10:46:38.001Z</time></trkpt><trkpt lat="46.5315997203624" lon="9.205810661941968"><ele>1614.5</ele><time>2026-05-03T10:46:39.001Z</time></trkpt><trkpt lat="46.53153953542594" lon="9.205638282379306"><ele>1614.0</ele><time>2026-05-03T10:46:40Z</time></trkpt><trkpt lat="46.531453933418184" lon="9.205463094071224"><ele>1613.5</ele><time>2026-05-03T10:46:41Z</time></trkpt><trkpt lat="46.531362572836656" lon="9.205277811333778"><ele>1613.0</ele><time>2026-05-03T10:46:42Z</time></trkpt><trkpt lat="46.531282569668974" lon="9.20510092925088"><ele>1612.6666666666665</ele><time>2026-05-03T10:46:43Z</time></trkpt><trkpt lat="46.531193193226486" lon="9.204908399298425"><ele>1612.3333333333335</ele><time>2026-05-03T10:46:44Z</time></trkpt><trkpt lat="46.53110435223507" lon="9.204721098396792"><ele>1612.0</ele><time>2026-05-03T10:46:45Z</time></trkpt><trkpt lat="46.531021007003204" lon="9.204529761568317"><ele>1612.0</ele><time>2026-05-03T10:46:46Z</time></trkpt><trkpt lat="46.53096692849277" lon="9.204341568933943"><ele>1612.0</ele><time>2026-05-03T10:46:47Z</time></trkpt><trkpt lat="46.53092293400875" lon="9.20414668654421"><ele>1612.0</ele><time>2026-05-03T10:46:48Z</time></trkpt><trkpt lat="46.53089153305309" lon="9.203945777062867"><ele>1612.0</ele><time>2026-05-03T10:46:49Z</time></trkpt><trkpt lat="46.53087510434607" lon="9.203750046969734"><ele>1612.8</ele><time>2026-05-03T10:46:50Z</time></trkpt><trkpt lat="46.530873672992115" lon="9.203569900707192"><ele>1613.6</ele><time>2026-05-03T10:46:51Z</time></trkpt><trkpt lat="46.53086868912065" lon="9.203414277001157"><ele>1614.3999999999999</ele><time>2026-05-03T10:46:52Z</time></trkpt><trkpt lat="46.53084844670229" lon="9.203271777460476"><ele>1615.1999999999998</ele><time>2026-05-03T10:46:53Z</time></trkpt><trkpt lat="46.53082884390657" lon="9.203123586734796"><ele>1616.0</ele><time>2026-05-03T10:46:54Z</time></trkpt><trkpt lat="46.53082238916999" lon="9.202967424044392"><ele>1616.0</ele><time>2026-05-03T10:46:55Z</time></trkpt><trkpt lat="46.530814883673955" lon="9.202807014332137"><ele>1616.0</ele><time>2026-05-03T10:46:56Z</time></trkpt><trkpt lat="46.530812485362084" lon="9.202639814541355"><ele>1616.0</ele><time>2026-05-03T10:46:57Z</time></trkpt><trkpt lat="46.53080205636937" lon="9.202471645394954"><ele>1616.0</ele><time>2026-05-03T10:46:58Z</time></trkpt><trkpt lat="46.53078496902842" lon="9.202297609653893"><ele>1617.25</ele><time>2026-05-03T10:46:59Z</time></trkpt><trkpt lat="46.5307606611712" lon="9.202123363782922"><ele>1618.5</ele><time>2026-05-03T10:47:00Z</time></trkpt><trkpt lat="46.53072812770302" lon="9.201947070603643"><ele>1619.75</ele><time>2026-05-03T10:47:01Z</time></trkpt><trkpt lat="46.53068879215389" lon="9.201772424908395"><ele>1621.0</ele><time>2026-05-03T10:47:02Z</time></trkpt><trkpt lat="46.530647379923195" lon="9.201592115493447"><ele>1622.5</ele><time>2026-05-03T10:47:03Z</time></trkpt><trkpt lat="46.53060422049381" lon="9.201409764793867"><ele>1624.0</ele><time>2026-05-03T10:47:04Z</time></trkpt><trkpt lat="46.530562288158606" lon="9.201229201576316"><ele>1625.5</ele><time>2026-05-03T10:47:05Z</time></trkpt><trkpt lat="46.530522185773336" lon="9.201049847483993"><ele>1627.0</ele><time>2026-05-03T10:47:06Z</time></trkpt><trkpt lat="46.530484230233945" lon="9.200877259174863"><ele>1627.0</ele><time>2026-05-03T10:47:07Z</time></trkpt><trkpt lat="46.53044887133161" lon="9.200710474572727"><ele>1627.0</ele><time>2026-05-03T10:47:08Z</time></trkpt><trkpt lat="46.53042269834067" lon="9.2005327457843"><ele>1627.0</ele><time>2026-05-03T10:47:09Z</time></trkpt><trkpt lat="46.53040626354926" lon="9.200352495727596"><ele>1627.0</ele><time>2026-05-03T10:47:10Z</time></trkpt><trkpt lat="46.53039507751264" lon="9.20016936101362"><ele>1626.25</ele><time>2026-05-03T10:47:11Z</time></trkpt><trkpt lat="46.53038713468402" lon="9.199987507110745"><ele>1625.5</ele><time>2026-05-03T10:47:12Z</time></trkpt><trkpt lat="46.530384222020295" lon="9.199810178114076"><ele>1624.75</ele><time>2026-05-03T10:47:13Z</time></trkpt><trkpt lat="46.530392781878355" lon="9.19962341639717"><ele>1624.0</ele><time>2026-05-03T10:47:14Z</time></trkpt><trkpt lat="46.53041221435733" lon="9.199437121173231"><ele>1624.0</ele><time>2026-05-03T10:47:15Z</time></trkpt><trkpt lat="46.53044160117995" lon="9.199254316837886"><ele>1624.0</ele><time>2026-05-03T10:47:16Z</time></trkpt><trkpt lat="46.530469251997026" lon="9.199072079219569"><ele>1624.0</ele><time>2026-05-03T10:47:17.001Z</time></trkpt><trkpt lat="46.53049408842768" lon="9.19888950142173"><ele>1624.0</ele><time>2026-05-03T10:47:18.001Z</time></trkpt><trkpt lat="46.530513425036524" lon="9.198707611257323"><ele>1624.0</ele><time>2026-05-03T10:47:19.001Z</time></trkpt><trkpt lat="46.530517356069915" lon="9.19852023535829"><ele>1624.0</ele><time>2026-05-03T10:47:20.001Z</time></trkpt><trkpt lat="46.53050915258559" lon="9.19833166726891"><ele>1624.0</ele><time>2026-05-03T10:47:21.001Z</time></trkpt><trkpt lat="46.530486001173195" lon="9.198147982993232"><ele>1624.0</ele><time>2026-05-03T10:47:22.001Z</time></trkpt><trkpt lat="46.53046190742112" lon="9.197968741685553"><ele>1624.25</ele><time>2026-05-03T10:47:23.001Z</time></trkpt><trkpt lat="46.530439481063574" lon="9.19778713346637"><ele>1624.5</ele><time>2026-05-03T10:47:24.001Z</time></trkpt><trkpt lat="46.53042164594771" lon="9.197601336763814"><ele>1624.75</ele><time>2026-05-03T10:47:25.001Z</time></trkpt><trkpt lat="46.530406002394784" lon="9.19739909242706"><ele>1625.0</ele><time>2026-05-03T10:47:26.001Z</time></trkpt><trkpt lat="46.53040183832402" lon="9.197193123816819"><ele>1625.3333333333333</ele><time>2026-05-03T10:47:27.001Z</time></trkpt><trkpt lat="46.530404551239606" lon="9.196971160042779"><ele>1625.6666666666665</ele><time>2026-05-03T10:47:28.001Z</time></trkpt><trkpt lat="46.53041324688917" lon="9.19675282068405"><ele>1626.0</ele><time>2026-05-03T10:47:29.001Z</time></trkpt><trkpt lat="46.53042390770641" lon="9.196530025765014"><ele>1627.0</ele><time>2026-05-03T10:47:30.001Z</time></trkpt><trkpt lat="46.53043386781438" lon="9.196307399810712"><ele>1628.0</ele><time>2026-05-03T10:47:31.001Z</time></trkpt><trkpt lat="46.53043829616501" lon="9.196085865411298"><ele>1629.0</ele><time>2026-05-03T10:47:32.001Z</time></trkpt><trkpt lat="46.5304410761159" lon="9.195862740350028"><ele>1630.0</ele><time>2026-05-03T10:47:33.001Z</time></trkpt><trkpt lat="46.530438915092134" lon="9.195639071791192"><ele>1631.0</ele><time>2026-05-03T10:47:34.001Z</time></trkpt><trkpt lat="46.53043406629335" lon="9.195416319387443"><ele>1632.0</ele><time>2026-05-03T10:47:35.001Z</time></trkpt><trkpt lat="46.53041960020836" lon="9.195195600871145"><ele>1632.0</ele><time>2026-05-03T10:47:36.001Z</time></trkpt><trkpt lat="46.53040010106305" lon="9.194975723456592"><ele>1632.0</ele><time>2026-05-03T10:47:37.001Z</time></trkpt><trkpt lat="46.53036945667576" lon="9.194757606376172"><ele>1632.0</ele><time>2026-05-03T10:47:38.001Z</time></trkpt><trkpt lat="46.53032763852049" lon="9.194546633004414"><ele>1628.0</ele><time>2026-05-03T10:47:39.001Z</time></trkpt><trkpt lat="46.530285802037696" lon="9.194332390197232"><ele>1624.0</ele><time>2026-05-03T10:47:40.001Z</time></trkpt><trkpt lat="46.53023787221728" lon="9.194119291413132"><ele>1620.0</ele><time>2026-05-03T10:47:41.001Z</time></trkpt><trkpt lat="46.530178994404004" lon="9.19391077264332"><ele>1620.0</ele><time>2026-05-03T10:47:42.001Z</time></trkpt><trkpt lat="46.530110682914064" lon="9.193705603064574"><ele>1620.0</ele><time>2026-05-03T10:47:43.001Z</time></trkpt><trkpt lat="46.53004611593916" lon="9.193506916337522"><ele>1620.0</ele><time>2026-05-03T10:47:44.001Z</time></trkpt><trkpt lat="46.52996327055169" lon="9.193303064566898"><ele>1621.6666666666665</ele><time>2026-05-03T10:47:45.001Z</time></trkpt><trkpt lat="46.529884339572284" lon="9.193106631082387"><ele>1623.3333333333333</ele><time>2026-05-03T10:47:46.001Z</time></trkpt><trkpt lat="46.529799207401254" lon="9.192910241435927"><ele>1625.0</ele><time>2026-05-03T10:47:47.001Z</time></trkpt><trkpt lat="46.529709579753025" lon="9.192715311069431"><ele>1625.0</ele><time>2026-05-03T10:47:48.001Z</time></trkpt><trkpt lat="46.52961825898092" lon="9.192520618697506"><ele>1625.0</ele><time>2026-05-03T10:47:49.001Z</time></trkpt><trkpt lat="46.529526470019896" lon="9.192325580472277"><ele>1625.0</ele><time>2026-05-03T10:47:50.001Z</time></trkpt><trkpt lat="46.52943937923675" lon="9.192131339355065"><ele>1622.3333333333333</ele><time>2026-05-03T10:47:51.001Z</time></trkpt><trkpt lat="46.52935236399322" lon="9.191935442226145"><ele>1619.6666666666665</ele><time>2026-05-03T10:47:52.001Z</time></trkpt><trkpt lat="46.52927286862131" lon="9.191738255876814"><ele>1617.0</ele><time>2026-05-03T10:47:53.001Z</time></trkpt><trkpt lat="46.529188329661274" lon="9.191534991144088"><ele>1619.0</ele><time>2026-05-03T10:47:54.001Z</time></trkpt><trkpt lat="46.52910231173296" lon="9.191334161654199"><ele>1621.0</ele><time>2026-05-03T10:47:55.001Z</time></trkpt><trkpt lat="46.52901269364532" lon="9.191137724690547"><ele>1623.0</ele><time>2026-05-03T10:47:56.001Z</time></trkpt><trkpt lat="46.5289211196555" lon="9.190939969227697"><ele>1623.0</ele><time>2026-05-03T10:47:57.001Z</time></trkpt><trkpt lat="46.528835529346644" lon="9.190738309433614"><ele>1623.0</ele><time>2026-05-03T10:47:58.001Z</time></trkpt><trkpt lat="46.5287518365795" lon="9.190539105539266"><ele>1623.0</ele><time>2026-05-03T10:47:59.001Z</time></trkpt><trkpt lat="46.528667656911644" lon="9.190345327373599"><ele>1620.3333333333335</ele><time>2026-05-03T10:48:00.001Z</time></trkpt><trkpt lat="46.52857830536751" lon="9.19015170626167"><ele>1617.6666666666667</ele><time>2026-05-03T10:48:01.001Z</time></trkpt><trkpt lat="46.528494550837394" lon="9.189963227552042"><ele>1615.0</ele><time>2026-05-03T10:48:02.001Z</time></trkpt><trkpt lat="46.52841250646408" lon="9.189772352029411"><ele>1615.0</ele><time>2026-05-03T10:48:03.001Z</time></trkpt><trkpt lat="46.5283249150084" lon="9.189582977328469"><ele>1615.0</ele><time>2026-05-03T10:48:04.001Z</time></trkpt><trkpt lat="46.52824085441815" lon="9.189389118741309"><ele>1615.0</ele><time>2026-05-03T10:48:05.001Z</time></trkpt><trkpt lat="46.52815561093804" lon="9.189190738183846"><ele>1617.6666666666667</ele><time>2026-05-03T10:48:06.001Z</time></trkpt><trkpt lat="46.52807295983811" lon="9.18899613704989"><ele>1620.3333333333335</ele><time>2026-05-03T10:48:07.001Z</time></trkpt><trkpt lat="46.52798766174823" lon="9.188802326757743"><ele>1623.0</ele><time>2026-05-03T10:48:08.001Z</time></trkpt><trkpt lat="46.52790190363963" lon="9.188620297886064"><ele>1620.75</ele><time>2026-05-03T10:48:09.001Z</time></trkpt><trkpt lat="46.5278098853146" lon="9.188451906839331"><ele>1618.5</ele><time>2026-05-03T10:48:10.001Z</time></trkpt><trkpt lat="46.52770418199185" lon="9.188302807638335"><ele>1616.25</ele><time>2026-05-03T10:48:11.001Z</time></trkpt><trkpt lat="46.52758094416747" lon="9.188176628451929"><ele>1614.0</ele><time>2026-05-03T10:48:12.001Z</time></trkpt><trkpt lat="46.52744221408578" lon="9.188078092480126"><ele>1614.0</ele><time>2026-05-03T10:48:13.001Z</time></trkpt><trkpt lat="46.52730457119345" lon="9.18798120998337"><ele>1614.0</ele><time>2026-05-03T10:48:14.001Z</time></trkpt><trkpt lat="46.52717943701758" lon="9.187877031402746"><ele>1614.0</ele><time>2026-05-03T10:48:15.001Z</time></trkpt><trkpt lat="46.52705194079457" lon="9.18782358335516"><ele>1614.0</ele><time>2026-05-03T10:48:16.001Z</time></trkpt><trkpt lat="46.52694964853601" lon="9.187736689150354"><ele>1613.0</ele><time>2026-05-03T10:48:17.001Z</time></trkpt><trkpt lat="46.52685169939561" lon="9.187690168232372"><ele>1612.0</ele><time>2026-05-03T10:48:18.001Z</time></trkpt><trkpt lat="46.52676201084844" lon="9.18763703303195"><ele>1611.0</ele><time>2026-05-03T10:48:19.001Z</time></trkpt><trkpt lat="46.526678587853034" lon="9.187585021881516"><ele>1610.0</ele><time>2026-05-03T10:48:20.001Z</time></trkpt><trkpt lat="46.526585529679615" lon="9.187530892422336"><ele>1609.0</ele><time>2026-05-03T10:48:21.001Z</time></trkpt><trkpt lat="46.52649046805941" lon="9.187471590360426"><ele>1609.0</ele><time>2026-05-03T10:48:22.001Z</time></trkpt><trkpt lat="46.52638569829645" lon="9.187399967878529"><ele>1609.0</ele><time>2026-05-03T10:48:23.001Z</time></trkpt><trkpt lat="46.52628005537993" lon="9.187340792367662"><ele>1609.0</ele><time>2026-05-03T10:48:24.001Z</time></trkpt><trkpt lat="46.526176560450025" lon="9.187272022623539"><ele>1609.0</ele><time>2026-05-03T10:48:25.001Z</time></trkpt><trkpt lat="46.52607648239649" lon="9.187211127513486"><ele>1609.4</ele><time>2026-05-03T10:48:26.001Z</time></trkpt><trkpt lat="46.52598874189295" lon="9.187151366213945"><ele>1609.8000000000002</ele><time>2026-05-03T10:48:27.001Z</time></trkpt><trkpt lat="46.52590882713301" lon="9.187085456147303"><ele>1610.1999999999998</ele><time>2026-05-03T10:48:28.001Z</time></trkpt><trkpt lat="46.52582835499031" lon="9.1870114833858"><ele>1610.6</ele><time>2026-05-03T10:48:29.001Z</time></trkpt><trkpt lat="46.52574916749309" lon="9.186923158723866"><ele>1611.0</ele><time>2026-05-03T10:48:30.001Z</time></trkpt><trkpt lat="46.52566931606163" lon="9.18682972053402"><ele>1611.0</ele><time>2026-05-03T10:48:31.001Z</time></trkpt><trkpt lat="46.52559153804239" lon="9.186741526086353"><ele>1611.0</ele><time>2026-05-03T10:48:32.001Z</time></trkpt><trkpt lat="46.52552326657332" lon="9.186665276732901"><ele>1611.0</ele><time>2026-05-03T10:48:33.001Z</time></trkpt><trkpt lat="46.52545936245722" lon="9.186618059546854"><ele>1611.0</ele><time>2026-05-03T10:48:34.001Z</time></trkpt><trkpt lat="46.52534709226934" lon="9.186626889010993"><ele>1611.0</ele><time>2026-05-03T10:48:36.001Z</time></trkpt><trkpt lat="46.52526807655109" lon="9.186752859161407"><ele>1611.0</ele><time>2026-05-03T10:48:38.001Z</time></trkpt><trkpt lat="46.525197739105415" lon="9.18689108113227"><ele>1611.0</ele><time>2026-05-03T10:48:40.001Z</time></trkpt><trkpt lat="46.52507633578703" lon="9.186891928939364"><ele>1611.0</ele><time>2026-05-03T10:48:42.001Z</time></trkpt><trkpt lat="46.52500987307593" lon="9.186891310681403"><ele>1611.0</ele><time>2026-05-03T10:48:43.001Z</time></trkpt><trkpt lat="46.52493273874664" lon="9.186890692825116"><ele>1611.0</ele><time>2026-05-03T10:48:44.001Z</time></trkpt><trkpt lat="46.52484212077336" lon="9.186890692825708"><ele>1611.0</ele><time>2026-05-03T10:48:45.001Z</time></trkpt><trkpt lat="46.524744018276635" lon="9.186890692826832"><ele>1611.0</ele><time>2026-05-03T10:48:46Z</time></trkpt><trkpt lat="46.52464675145734" lon="9.186890658276802"><ele>1611.0</ele><time>2026-05-03T10:48:47Z</time></trkpt><trkpt lat="46.524557810227385" lon="9.186880800385556"><ele>1611.0</ele><time>2026-05-03T10:48:48Z</time></trkpt><trkpt lat="46.52448560076198" lon="9.186802331487467"><ele>1611.0</ele><time>2026-05-03T10:48:49Z</time></trkpt><trkpt lat="46.52443196223777" lon="9.186688004854762"><ele>1611.75</ele><time>2026-05-03T10:48:50Z</time></trkpt><trkpt lat="46.52440286500671" lon="9.186534589376418"><ele>1612.5</ele><time>2026-05-03T10:48:51Z</time></trkpt><trkpt lat="46.52438102756362" lon="9.186353354714287"><ele>1613.25</ele><time>2026-05-03T10:48:52Z</time></trkpt><trkpt lat="46.52435313089425" lon="9.186174258891445"><ele>1614.0</ele><time>2026-05-03T10:48:53Z</time></trkpt><trkpt lat="46.52431885401706" lon="9.186012396365413"><ele>1614.0</ele><time>2026-05-03T10:48:54Z</time></trkpt><trkpt lat="46.52427734933749" lon="9.185855263776572"><ele>1614.0</ele><time>2026-05-03T10:48:55Z</time></trkpt><trkpt lat="46.52423027313575" lon="9.185697207972888"><ele>1614.0</ele><time>2026-05-03T10:48:56Z</time></trkpt><trkpt lat="46.52417750850066" lon="9.185537197288813"><ele>1614.0</ele><time>2026-05-03T10:48:57Z</time></trkpt><trkpt lat="46.52412337931526" lon="9.185377657219608"><ele>1613.75</ele><time>2026-05-03T10:48:58Z</time></trkpt><trkpt lat="46.52405474743305" lon="9.185223658411267"><ele>1613.5</ele><time>2026-05-03T10:48:59Z</time></trkpt><trkpt lat="46.523987028822106" lon="9.185072967882872"><ele>1613.25</ele><time>2026-05-03T10:49:00Z</time></trkpt><trkpt lat="46.52391538990034" lon="9.184915327468234"><ele>1613.0</ele><time>2026-05-03T10:49:01Z</time></trkpt><trkpt lat="46.52383898551632" lon="9.184764250393"><ele>1613.0</ele><time>2026-05-03T10:49:02Z</time></trkpt><trkpt lat="46.52375686673379" lon="9.184610995244533"><ele>1613.0</ele><time>2026-05-03T10:49:03Z</time></trkpt><trkpt lat="46.52367054345916" lon="9.184451230250293"><ele>1613.0</ele><time>2026-05-03T10:49:04Z</time></trkpt><trkpt lat="46.523581058314406" lon="9.18428912276078"><ele>1613.0</ele><time>2026-05-03T10:49:05Z</time></trkpt><trkpt lat="46.5234853029706" lon="9.184122488309903"><ele>1613.3333333333333</ele><time>2026-05-03T10:49:06Z</time></trkpt><trkpt lat="46.52338054624053" lon="9.183960699047473"><ele>1613.6666666666665</ele><time>2026-05-03T10:49:07Z</time></trkpt><trkpt lat="46.52327095591377" lon="9.183802637904083"><ele>1614.0</ele><time>2026-05-03T10:49:08Z</time></trkpt><trkpt lat="46.52316292788993" lon="9.183651634513081"><ele>1614.0</ele><time>2026-05-03T10:49:09Z</time></trkpt><trkpt lat="46.52305818178921" lon="9.183508235722357"><ele>1614.0</ele><time>2026-05-03T10:49:10Z</time></trkpt><trkpt lat="46.52295239155942" lon="9.183368028069356"><ele>1614.0</ele><time>2026-05-03T10:49:11Z</time></trkpt><trkpt lat="46.52284252507731" lon="9.18324103879879"><ele>1614.0</ele><time>2026-05-03T10:49:12Z</time></trkpt><trkpt lat="46.522715645662736" lon="9.183136087720504"><ele>1614.75</ele><time>2026-05-03T10:49:13Z</time></trkpt><trkpt lat="46.52257505325315" lon="9.183071586845568"><ele>1615.5</ele><time>2026-05-03T10:49:14Z</time></trkpt><trkpt lat="46.522432951150016" lon="9.183037827165347"><ele>1616.25</ele><time>2026-05-03T10:49:15.001Z</time></trkpt><trkpt lat="46.52228963128642" lon="9.183033649560688"><ele>1617.0</ele><time>2026-05-03T10:49:16.001Z</time></trkpt><trkpt lat="46.52214627306433" lon="9.183023286847511"><ele>1618.75</ele><time>2026-05-03T10:49:17.001Z</time></trkpt><trkpt lat="46.52200585859205" lon="9.182995545670948"><ele>1620.5</ele><time>2026-05-03T10:49:18.001Z</time></trkpt><trkpt lat="46.5218686743524" lon="9.182932560811203"><ele>1622.25</ele><time>2026-05-03T10:49:19.001Z</time></trkpt><trkpt lat="46.52174205186059" lon="9.18282591987837"><ele>1624.0</ele><time>2026-05-03T10:49:20.001Z</time></trkpt><trkpt lat="46.521622221945364" lon="9.182673058286346"><ele>1624.0</ele><time>2026-05-03T10:49:21.001Z</time></trkpt><trkpt lat="46.52152377673123" lon="9.18248726391091"><ele>1624.0</ele><time>2026-05-03T10:49:22.001Z</time></trkpt><trkpt lat="46.521444850838044" lon="9.182282646314839"><ele>1624.0</ele><time>2026-05-03T10:49:23.001Z</time></trkpt><trkpt lat="46.521384092998" lon="9.182079892103387"><ele>1623.2</ele><time>2026-05-03T10:49:24.001Z</time></trkpt><trkpt lat="46.52133854473595" lon="9.181901183474196"><ele>1622.4</ele><time>2026-05-03T10:49:25.001Z</time></trkpt><trkpt lat="46.52130448869332" lon="9.18175722244846"><ele>1621.6</ele><time>2026-05-03T10:49:26.001Z</time></trkpt><trkpt lat="46.521277416824105" lon="9.181651222413905"><ele>1620.8</ele><time>2026-05-03T10:49:27.001Z</time></trkpt><trkpt lat="46.521181666121954" lon="9.18155160715801"><ele>1620.0</ele><time>2026-05-03T10:49:29.001Z</time></trkpt><trkpt lat="46.52110121322211" lon="9.181678926072705"><ele>1625.0</ele><time>2026-05-03T10:49:30.001Z</time></trkpt><trkpt lat="46.52107391332002" lon="9.181837529944527"><ele>1630.0</ele><time>2026-05-03T10:49:31.001Z</time></trkpt><trkpt lat="46.52108399997384" lon="9.18202139307177"><ele>1635.0</ele><time>2026-05-03T10:49:32.001Z</time></trkpt><trkpt lat="46.5211044837651" lon="9.182221126201904"><ele>1640.0</ele><time>2026-05-03T10:49:33.001Z</time></trkpt><trkpt lat="46.52112062434018" lon="9.18243873437359"><ele>1643.0</ele><time>2026-05-03T10:49:34.001Z</time></trkpt><trkpt lat="46.52111216721592" lon="9.182673051756927"><ele>1646.0</ele><time>2026-05-03T10:49:35.001Z</time></trkpt><trkpt lat="46.52113593717964" lon="9.182900168328256"><ele>1649.0</ele><time>2026-05-03T10:49:36.001Z</time></trkpt><trkpt lat="46.52115182735147" lon="9.183126113920048"><ele>1653.0</ele><time>2026-05-03T10:49:37.001Z</time></trkpt><trkpt lat="46.52118928923034" lon="9.183364814492087"><ele>1657.0</ele><time>2026-05-03T10:49:38.001Z</time></trkpt><trkpt lat="46.52123951563615" lon="9.183616582147746"><ele>1661.0</ele><time>2026-05-03T10:49:39.001Z</time></trkpt><trkpt lat="46.52129694864827" lon="9.183882411276448"><ele>1652.3333333333333</ele><time>2026-05-03T10:49:40.001Z</time></trkpt><trkpt lat="46.52135311770272" lon="9.184145001870373"><ele>1643.6666666666665</ele><time>2026-05-03T10:49:41.001Z</time></trkpt><trkpt lat="46.52141322410073" lon="9.184409831411427"><ele>1635.0</ele><time>2026-05-03T10:49:42.001Z</time></trkpt><trkpt lat="46.52147276664116" lon="9.184675011121069"><ele>1639.0</ele><time>2026-05-03T10:49:43.001Z</time></trkpt><trkpt lat="46.521534079694995" lon="9.184927078530073"><ele>1643.0</ele><time>2026-05-03T10:49:44.001Z</time></trkpt><trkpt lat="46.52159667907968" lon="9.185156895872161"><ele>1647.0</ele><time>2026-05-03T10:49:45.001Z</time></trkpt><trkpt lat="46.52165058735951" lon="9.1853505838653"><ele>1647.0</ele><time>2026-05-03T10:49:46.001Z</time></trkpt><trkpt lat="46.521697704417804" lon="9.185504392800697"><ele>1647.0</ele><time>2026-05-03T10:49:47.001Z</time></trkpt><trkpt lat="46.52174625824294" lon="9.185609818748922"><ele>1647.0</ele><time>2026-05-03T10:49:48.001Z</time></trkpt><trkpt lat="46.521799464101" lon="9.185695077543599"><ele>1647.0</ele><time>2026-05-03T10:49:49.001Z</time></trkpt><trkpt lat="46.52184685932908" lon="9.185768628890369"><ele>1647.0</ele><time>2026-05-03T10:49:50.001Z</time></trkpt><trkpt lat="46.52190754115181" lon="9.18589334348392"><ele>1647.0</ele><time>2026-05-03T10:49:52.001Z</time></trkpt><trkpt lat="46.52189640982897" lon="9.185987009130985"><ele>1647.0</ele><time>2026-05-03T10:49:54.001Z</time></trkpt><trkpt lat="46.521799966776435" lon="9.185932932274676"><ele>1647.0</ele><time>2026-05-03T10:49:56.001Z</time></trkpt><trkpt lat="46.521773912339185" lon="9.185823420498853"><ele>1647.0</ele><time>2026-05-03T10:49:57.001Z</time></trkpt><trkpt lat="46.52170940337114" lon="9.18568465034096"><ele>1647.0</ele><time>2026-05-03T10:49:58.001Z</time></trkpt><trkpt lat="46.521615370629455" lon="9.185487952323149"><ele>1647.0</ele><time>2026-05-03T10:49:59.001Z</time></trkpt><trkpt lat="46.52153354531476" lon="9.185314918531457"><ele>1647.0</ele><time>2026-05-03T10:50:00.001Z</time></trkpt><trkpt lat="46.52144435149325" lon="9.185133045598196"><ele>1647.0</ele><time>2026-05-03T10:50:01.001Z</time></trkpt><trkpt lat="46.52134967834621" lon="9.184947319264273"><ele>1643.0</ele><time>2026-05-03T10:50:02.001Z</time></trkpt><trkpt lat="46.521259463892946" lon="9.184781686072393"><ele>1639.0</ele><time>2026-05-03T10:50:03.001Z</time></trkpt><trkpt lat="46.521160910826694" lon="9.184611739015143"><ele>1635.0</ele><time>2026-05-03T10:50:04.001Z</time></trkpt><trkpt lat="46.52105902680601" lon="9.18442713978422"><ele>1643.6666666666665</ele><time>2026-05-03T10:50:05.001Z</time></trkpt><trkpt lat="46.520961714479746" lon="9.184227483395551"><ele>1652.3333333333333</ele><time>2026-05-03T10:50:06.001Z</time></trkpt><trkpt lat="46.52087214693549" lon="9.184008818229074"><ele>1661.0</ele><time>2026-05-03T10:50:07.001Z</time></trkpt><trkpt lat="46.52078811055347" lon="9.18380486636951"><ele>1661.0</ele><time>2026-05-03T10:50:08.001Z</time></trkpt><trkpt lat="46.52072030966923" lon="9.183636402191185"><ele>1661.0</ele><time>2026-05-03T10:50:09.001Z</time></trkpt><trkpt lat="46.52067649358314" lon="9.1835017613296"><ele>1661.0</ele><time>2026-05-03T10:50:10.001Z</time></trkpt><trkpt lat="46.52065032770988" lon="9.183388126874386"><ele>1661.0</ele><time>2026-05-03T10:50:11.001Z</time></trkpt><trkpt lat="46.52063598355942" lon="9.18329354803749"><ele>1661.0</ele><time>2026-05-03T10:50:12.001Z</time></trkpt><trkpt lat="46.520558881769894" lon="9.183197326033442"><ele>1661.0</ele><time>2026-05-03T10:50:14.001Z</time></trkpt><trkpt lat="46.520462899107734" lon="9.183391464140287"><ele>1661.0</ele><time>2026-05-03T10:50:16.001Z</time></trkpt><trkpt lat="46.520508200959235" lon="9.183522933432192"><ele>1661.0</ele><time>2026-05-03T10:50:17.001Z</time></trkpt><trkpt lat="46.5205974116235" lon="9.183698624826611"><ele>1661.0</ele><time>2026-05-03T10:50:18.001Z</time></trkpt><trkpt lat="46.520663851826626" lon="9.183890417813334"><ele>1665.0</ele><time>2026-05-03T10:50:19.001Z</time></trkpt><trkpt lat="46.52071023670754" lon="9.184155337190555"><ele>1669.0</ele><time>2026-05-03T10:50:20.001Z</time></trkpt><trkpt lat="46.520778758604315" lon="9.184400057618996"><ele>1673.0</ele><time>2026-05-03T10:50:21.001Z</time></trkpt><trkpt lat="46.52085092443781" lon="9.184642367802725"><ele>1679.3333333333333</ele><time>2026-05-03T10:50:22.001Z</time></trkpt><trkpt lat="46.52093772778319" lon="9.184875455824221"><ele>1685.6666666666665</ele><time>2026-05-03T10:50:23.001Z</time></trkpt><trkpt lat="46.52103125732913" lon="9.18510741015738"><ele>1692.0</ele><time>2026-05-03T10:50:24.001Z</time></trkpt><trkpt lat="46.52110314549086" lon="9.185316917708013"><ele>1692.0</ele><time>2026-05-03T10:50:25.001Z</time></trkpt><trkpt lat="46.521135660472275" lon="9.18549359144332"><ele>1692.0</ele><time>2026-05-03T10:50:26.001Z</time></trkpt><trkpt lat="46.52118858473375" lon="9.185626816782506"><ele>1692.0</ele><time>2026-05-03T10:50:27.001Z</time></trkpt><trkpt lat="46.52119865768586" lon="9.185738853024857"><ele>1692.0</ele><time>2026-05-03T10:50:28.001Z</time></trkpt><trkpt lat="46.52121119893362" lon="9.185852732040965"><ele>1692.0</ele><time>2026-05-03T10:50:30.001Z</time></trkpt><trkpt lat="46.521122581111676" lon="9.185759403806443"><ele>1692.0</ele><time>2026-05-03T10:50:33.001Z</time></trkpt><trkpt lat="46.521073436108416" lon="9.185593270887127"><ele>1692.0</ele><time>2026-05-03T10:50:34.001Z</time></trkpt><trkpt lat="46.521025757369856" lon="9.185430538809198"><ele>1692.0</ele><time>2026-05-03T10:50:35.001Z</time></trkpt><trkpt lat="46.52096224431343" lon="9.185276148146118"><ele>1692.0</ele><time>2026-05-03T10:50:36.001Z</time></trkpt><trkpt lat="46.520894930039056" lon="9.185123077813612"><ele>1692.0</ele><time>2026-05-03T10:50:37.001Z</time></trkpt><trkpt lat="46.52083568286039" lon="9.184989534009675"><ele>1692.0</ele><time>2026-05-03T10:50:38.001Z</time></trkpt><trkpt lat="46.520788712301524" lon="9.184903090617775"><ele>1692.0</ele><time>2026-05-03T10:50:39.001Z</time></trkpt><trkpt lat="46.5206911286026" lon="9.18485642050366"><ele>1692.0</ele><time>2026-05-03T10:50:41.001Z</time></trkpt><trkpt lat="46.520633375586605" lon="9.184969143592484"><ele>1692.0</ele><time>2026-05-03T10:50:43.001Z</time></trkpt><trkpt lat="46.520695375960116" lon="9.18510696865312"><ele>1692.0</ele><time>2026-05-03T10:50:44.001Z</time></trkpt><trkpt lat="46.52076059908417" lon="9.185224527419187"><ele>1692.0</ele><time>2026-05-03T10:50:45.001Z</time></trkpt><trkpt lat="46.52081740013155" lon="9.185368140356738"><ele>1692.0</ele><time>2026-05-03T10:50:46.001Z</time></trkpt><trkpt lat="46.520870389991046" lon="9.185525341899103"><ele>1692.0</ele><time>2026-05-03T10:50:47.001Z</time></trkpt><trkpt lat="46.52091171223055" lon="9.185679870487633"><ele>1694.6666666666667</ele><time>2026-05-03T10:50:48.001Z</time></trkpt><trkpt lat="46.520937938797395" lon="9.185826414714395"><ele>1697.3333333333335</ele><time>2026-05-03T10:50:49.001Z</time></trkpt><trkpt lat="46.520954846246696" lon="9.185955533407078"><ele>1700.0</ele><time>2026-05-03T10:50:50.001Z</time></trkpt><trkpt lat="46.520979003138166" lon="9.186068856541757"><ele>1702.6666666666667</ele><time>2026-05-03T10:50:51.001Z</time></trkpt><trkpt lat="46.521007874892355" lon="9.186170022943502"><ele>1705.3333333333335</ele><time>2026-05-03T10:50:52.001Z</time></trkpt><trkpt lat="46.52103181646377" lon="9.186271560082165"><ele>1708.0</ele><time>2026-05-03T10:50:53.001Z</time></trkpt><trkpt lat="46.52106705123007" lon="9.186371276766167"><ele>1708.0</ele><time>2026-05-03T10:50:54.001Z</time></trkpt><trkpt lat="46.5211050346753" lon="9.186488465566264"><ele>1708.0000000000002</ele><time>2026-05-03T10:50:55.001Z</time></trkpt><trkpt lat="46.52113975898801" lon="9.186615266760308"><ele>1708.0000000000002</ele><time>2026-05-03T10:50:56.001Z</time></trkpt><trkpt lat="46.52116562955777" lon="9.186740171342882"><ele>1708.0</ele><time>2026-05-03T10:50:57.001Z</time></trkpt><trkpt lat="46.52118609787417" lon="9.186847748049548"><ele>1708.0</ele><time>2026-05-03T10:50:58.001Z</time></trkpt><trkpt lat="46.521212554595564" lon="9.187005293280883"><ele>1708.3333333333335</ele><time>2026-05-03T10:51:00.001Z</time></trkpt><trkpt lat="46.52124566676938" lon="9.187115031772116"><ele>1708.6666666666667</ele><time>2026-05-03T10:51:02Z</time></trkpt><trkpt lat="46.52128918737261" lon="9.187195834222123"><ele>1709.0</ele><time>2026-05-03T10:51:05Z</time></trkpt><trkpt lat="46.52135995703884" lon="9.18725299371625"><ele>1709.3333333333335</ele><time>2026-05-03T10:52:10.001Z</time></trkpt><trkpt lat="46.52141615513212" lon="9.187300932447998"><ele>1709.6666666666667</ele><time>2026-05-03T10:52:11.001Z</time></trkpt><trkpt lat="46.521491801508844" lon="9.18739155936465"><ele>1710.0</ele><time>2026-05-03T10:52:12.001Z</time></trkpt><trkpt lat="46.52157069444354" lon="9.187479454400018"><ele>1710.0</ele><time>2026-05-03T10:52:13.001Z</time></trkpt><trkpt lat="46.521660350475535" lon="9.187588599461117"><ele>1710.0</ele><time>2026-05-03T10:52:14.001Z</time></trkpt><trkpt lat="46.521744572692455" lon="9.18773216345798"><ele>1710.0</ele><time>2026-05-03T10:52:15.001Z</time></trkpt><trkpt lat="46.5218339402001" lon="9.187898107858318"><ele>1710.0</ele><time>2026-05-03T10:52:16.001Z</time></trkpt><trkpt lat="46.52191242400709" lon="9.18805585500045"><ele>1713.6</ele><time>2026-05-03T10:52:17.001Z</time></trkpt><trkpt lat="46.521971595848754" lon="9.188193268951387"><ele>1717.2</ele><time>2026-05-03T10:52:18.001Z</time></trkpt><trkpt lat="46.52201877925948" lon="9.188312984373923"><ele>1720.8000000000002</ele><time>2026-05-03T10:52:19.001Z</time></trkpt><trkpt lat="46.52206516319648" lon="9.188403852098439"><ele>1724.4</ele><time>2026-05-03T10:52:20.001Z</time></trkpt><trkpt lat="46.52208128548924" lon="9.188546130566731"><ele>1728.0</ele><time>2026-05-03T10:52:22.001Z</time></trkpt><trkpt lat="46.52200833468805" lon="9.18858337329552"><ele>1728.0</ele><time>2026-05-03T10:52:24.001Z</time></trkpt><trkpt lat="46.52197480729157" lon="9.1884851728141"><ele>1728.0000000000002</ele><time>2026-05-03T10:52:25.001Z</time></trkpt><trkpt lat="46.521941141045936" lon="9.188349409350678"><ele>1728.0000000000002</ele><time>2026-05-03T10:52:26.001Z</time></trkpt><trkpt lat="46.52188045415247" lon="9.188218756793454"><ele>1728.0</ele><time>2026-05-03T10:52:27.001Z</time></trkpt><trkpt lat="46.52179566358237" lon="9.188059943912432"><ele>1728.0</ele><time>2026-05-03T10:52:28.001Z</time></trkpt><trkpt lat="46.52168211890679" lon="9.187883613402262"><ele>1724.4</ele><time>2026-05-03T10:52:29.001Z</time></trkpt><trkpt lat="46.52157432279758" lon="9.187757767891167"><ele>1720.8000000000002</ele><time>2026-05-03T10:52:30.001Z</time></trkpt><trkpt lat="46.52148668807674" lon="9.18766533599259"><ele>1717.2</ele><time>2026-05-03T10:52:31.001Z</time></trkpt><trkpt lat="46.52141062514764" lon="9.187598018330183"><ele>1713.6</ele><time>2026-05-03T10:52:32.001Z</time></trkpt><trkpt lat="46.52131447125681" lon="9.18753091617972"><ele>1710.0</ele><time>2026-05-03T10:52:34.001Z</time></trkpt><trkpt lat="46.521288269095066" lon="9.187713920584377"><ele>1710.0</ele><time>2026-05-03T10:52:36.001Z</time></trkpt><trkpt lat="46.521346558650066" lon="9.187805288698293"><ele>1710.0</ele><time>2026-05-03T10:52:37.001Z</time></trkpt><trkpt lat="46.521441154755685" lon="9.187870481074727"><ele>1710.0</ele><time>2026-05-03T10:52:38.001Z</time></trkpt><trkpt lat="46.5215273761774" lon="9.187980949769123"><ele>1710.0</ele><time>2026-05-03T10:52:39.001Z</time></trkpt><trkpt lat="46.521606970991854" lon="9.188132008900153"><ele>1710.0</ele><time>2026-05-03T10:52:40.001Z</time></trkpt><trkpt lat="46.52168422297225" lon="9.18829986760627"><ele>1713.6</ele><time>2026-05-03T10:52:41.001Z</time></trkpt><trkpt lat="46.521752490243756" lon="9.188439855808427"><ele>1717.2</ele><time>2026-05-03T10:52:42.001Z</time></trkpt><trkpt lat="46.52182369407538" lon="9.188533934553217"><ele>1720.8000000000002</ele><time>2026-05-03T10:52:43.001Z</time></trkpt><trkpt lat="46.52187293977555" lon="9.188658040211429"><ele>1724.4</ele><time>2026-05-03T10:52:45.001Z</time></trkpt><trkpt lat="46.521799430506746" lon="9.188720158346346"><ele>1728.0</ele><time>2026-05-03T10:52:47.001Z</time></trkpt><trkpt lat="46.52176492715647" lon="9.188624413340857"><ele>1728.0</ele><time>2026-05-03T10:52:48.001Z</time></trkpt><trkpt lat="46.52171328889683" lon="9.188513099515667"><ele>1728.0</ele><time>2026-05-03T10:52:49.001Z</time></trkpt><trkpt lat="46.52164926473561" lon="9.188384481271495"><ele>1728.0</ele><time>2026-05-03T10:52:50.001Z</time></trkpt><trkpt lat="46.52156090036343" lon="9.188222750848924"><ele>1728.0</ele><time>2026-05-03T10:52:51.001Z</time></trkpt><trkpt lat="46.521456426334815" lon="9.18809347488772"><ele>1724.4</ele><time>2026-05-03T10:52:52.001Z</time></trkpt><trkpt lat="46.52137839264778" lon="9.187974706114211"><ele>1720.8000000000002</ele><time>2026-05-03T10:52:53.001Z</time></trkpt><trkpt lat="46.521309942599515" lon="9.187880457820802"><ele>1717.2</ele><time>2026-05-03T10:52:54.001Z</time></trkpt><trkpt lat="46.52125425740758" lon="9.187819103374482"><ele>1713.6</ele><time>2026-05-03T10:52:55.001Z</time></trkpt><trkpt lat="46.52117357671474" lon="9.187862890603306"><ele>1710.0</ele><time>2026-05-03T10:52:57.001Z</time></trkpt><trkpt lat="46.52121980153765" lon="9.188041100398953"><ele>1710.0</ele><time>2026-05-03T10:52:59.001Z</time></trkpt><trkpt lat="46.521309483121264" lon="9.188129251599308"><ele>1710.0</ele><time>2026-05-03T10:53:00.001Z</time></trkpt><trkpt lat="46.521390347000924" lon="9.1882578155594"><ele>1710.0</ele><time>2026-05-03T10:53:01Z</time></trkpt><trkpt lat="46.52146626411693" lon="9.188418931130007"><ele>1710.0</ele><time>2026-05-03T10:53:02Z</time></trkpt><trkpt lat="46.52152720923681" lon="9.188557558783256"><ele>1713.6</ele><time>2026-05-03T10:53:03.001Z</time></trkpt><trkpt lat="46.521562252500104" lon="9.188682386453486"><ele>1717.2</ele><time>2026-05-03T10:53:04.001Z</time></trkpt><trkpt lat="46.521594066071025" lon="9.18876958978429"><ele>1720.8000000000002</ele><time>2026-05-03T10:53:05.001Z</time></trkpt><trkpt lat="46.521629238305046" lon="9.188873066933283"><ele>1724.4</ele><time>2026-05-03T10:53:07.001Z</time></trkpt><trkpt lat="46.5215169294901" lon="9.188859247925178"><ele>1728.0</ele><time>2026-05-03T10:53:09.001Z</time></trkpt><trkpt lat="46.52145701777435" lon="9.18870832056145"><ele>1728.0</ele><time>2026-05-03T10:53:10.001Z</time></trkpt><trkpt lat="46.521367845850754" lon="9.188571688898097"><ele>1728.0</ele><time>2026-05-03T10:53:11.001Z</time></trkpt><trkpt lat="46.5212482328437" lon="9.188397128457476"><ele>1728.0</ele><time>2026-05-03T10:53:12.001Z</time></trkpt><trkpt lat="46.52111611470262" lon="9.188204440004807"><ele>1734.3333333333335</ele><time>2026-05-03T10:53:13.001Z</time></trkpt><trkpt lat="46.520988185037105" lon="9.188015147274788"><ele>1740.6666666666667</ele><time>2026-05-03T10:53:14.001Z</time></trkpt><trkpt lat="46.52085308909629" lon="9.187830515022508"><ele>1747.0</ele><time>2026-05-03T10:53:15.001Z</time></trkpt><trkpt lat="46.520771290786904" lon="9.187626465933675"><ele>1747.0</ele><time>2026-05-03T10:53:16.001Z</time></trkpt><trkpt lat="46.520706998041796" lon="9.187433700557039"><ele>1747.0</ele><time>2026-05-03T10:53:17.001Z</time></trkpt><trkpt lat="46.52064841048931" lon="9.187259011408955"><ele>1747.0</ele><time>2026-05-03T10:53:18.001Z</time></trkpt><trkpt lat="46.52059766357121" lon="9.18712562907735"><ele>1747.0</ele><time>2026-05-03T10:53:19.001Z</time></trkpt><trkpt lat="46.52055075113935" lon="9.187020856620299"><ele>1743.0</ele><time>2026-05-03T10:53:20.001Z</time></trkpt><trkpt lat="46.52052277893201" lon="9.186932950648492"><ele>1738.9999999999998</ele><time>2026-05-03T10:53:21.001Z</time></trkpt><trkpt lat="46.52045781533566" lon="9.18683378658427"><ele>1734.9999999999998</ele><time>2026-05-03T10:53:23.001Z</time></trkpt><trkpt lat="46.5203626690456" lon="9.186943709757372"><ele>1731.0</ele><time>2026-05-03T10:53:25.001Z</time></trkpt><trkpt lat="46.520408049891195" lon="9.187113527640802"><ele>1727.0</ele><time>2026-05-03T10:53:26.001Z</time></trkpt><trkpt lat="46.52048030445753" lon="9.187257519675393"><ele>1732.0</ele><time>2026-05-03T10:53:27.001Z</time></trkpt><trkpt lat="46.520541767854375" lon="9.18741358127144"><ele>1737.0</ele><time>2026-05-03T10:53:28.001Z</time></trkpt><trkpt lat="46.52058082093644" lon="9.187616134734622"><ele>1742.0</ele><time>2026-05-03T10:53:29.001Z</time></trkpt><trkpt lat="46.520582884697006" lon="9.187827641496181"><ele>1747.0</ele><time>2026-05-03T10:53:30.001Z</time></trkpt><trkpt lat="46.5206809414799" lon="9.187984231686787"><ele>1747.0</ele><time>2026-05-03T10:53:31.001Z</time></trkpt><trkpt lat="46.52077758262042" lon="9.188147326672476"><ele>1747.0</ele><time>2026-05-03T10:53:32.001Z</time></trkpt><trkpt lat="46.52086421861865" lon="9.188315464020121"><ele>1747.0</ele><time>2026-05-03T10:53:33.001Z</time></trkpt><trkpt lat="46.52093007461899" lon="9.188512682207827"><ele>1747.0</ele><time>2026-05-03T10:53:34.001Z</time></trkpt><trkpt lat="46.520980408646885" lon="9.188725364203087"><ele>1750.6</ele><time>2026-05-03T10:53:35.001Z</time></trkpt><trkpt lat="46.52103492423127" lon="9.188891359185412"><ele>1754.1999999999998</ele><time>2026-05-03T10:53:36.001Z</time></trkpt><trkpt lat="46.52110016774503" lon="9.189014495087743"><ele>1757.8</ele><time>2026-05-03T10:53:37.001Z</time></trkpt><trkpt lat="46.521149039003994" lon="9.189108752583692"><ele>1761.4</ele><time>2026-05-03T10:53:38.001Z</time></trkpt><trkpt lat="46.521199685156354" lon="9.189214229894391"><ele>1765.0</ele><time>2026-05-03T10:53:40.001Z</time></trkpt><trkpt lat="46.52112080480136" lon="9.189258697152136"><ele>1765.0</ele><time>2026-05-03T10:53:42.001Z</time></trkpt><trkpt lat="46.521081957804306" lon="9.189147958476228"><ele>1765.0</ele><time>2026-05-03T10:53:43.001Z</time></trkpt><trkpt lat="46.52101812624127" lon="9.189001580175761"><ele>1765.0</ele><time>2026-05-03T10:53:44.001Z</time></trkpt><trkpt lat="46.520933029694156" lon="9.18884560996076"><ele>1765.0</ele><time>2026-05-03T10:53:45.001Z</time></trkpt><trkpt lat="46.52085619099459" lon="9.188627439780204"><ele>1765.0</ele><time>2026-05-03T10:53:46.001Z</time></trkpt><trkpt lat="46.52073564611472" lon="9.188394119060606"><ele>1765.0</ele><time>2026-05-03T10:53:47.001Z</time></trkpt><trkpt lat="46.52060429883814" lon="9.18818534536728"><ele>1765.0</ele><time>2026-05-03T10:53:48.001Z</time></trkpt><trkpt lat="46.52047724323744" lon="9.187995386068907"><ele>1773.3333333333335</ele><time>2026-05-03T10:53:49.001Z</time></trkpt><trkpt lat="46.520385459766075" lon="9.187790814368311"><ele>1781.6666666666665</ele><time>2026-05-03T10:53:50.001Z</time></trkpt><trkpt lat="46.520328652567365" lon="9.187576276477898"><ele>1790.0</ele><time>2026-05-03T10:53:51.001Z</time></trkpt><trkpt lat="46.52024222837703" lon="9.187387875886031"><ele>1786.2</ele><time>2026-05-03T10:53:52.001Z</time></trkpt><trkpt lat="46.52016963264216" lon="9.187217988847742"><ele>1782.4</ele><time>2026-05-03T10:53:53.001Z</time></trkpt><trkpt lat="46.520109308874716" lon="9.187084488518016"><ele>1778.6</ele><time>2026-05-03T10:53:54.001Z</time></trkpt><trkpt lat="46.52007182934635" lon="9.186995560669287"><ele>1774.8</ele><time>2026-05-03T10:53:55.001Z</time></trkpt><trkpt lat="46.519980752737226" lon="9.186971986071008"><ele>1771.0</ele><time>2026-05-03T10:53:57.001Z</time></trkpt><trkpt lat="46.51993543095765" lon="9.187079000487579"><ele>1771.0</ele><time>2026-05-03T10:53:58.001Z</time></trkpt><trkpt lat="46.51998617276733" lon="9.187235621664477"><ele>1771.0</ele><time>2026-05-03T10:53:59.001Z</time></trkpt><trkpt lat="46.52006740401223" lon="9.18736901617822"><ele>1771.0</ele><time>2026-05-03T10:54:00.001Z</time></trkpt><trkpt lat="46.52013716717891" lon="9.187551898907833"><ele>1771.0</ele><time>2026-05-03T10:54:01.001Z</time></trkpt><trkpt lat="46.5201692994835" lon="9.187821646965602"><ele>1769.0</ele><time>2026-05-03T10:54:02.001Z</time></trkpt><trkpt lat="46.520272870887354" lon="9.188091570801618"><ele>1767.0</ele><time>2026-05-03T10:54:03.001Z</time></trkpt><trkpt lat="46.52039944188825" lon="9.188314283889369"><ele>1765.0</ele><time>2026-05-03T10:54:04.001Z</time></trkpt><trkpt lat="46.52048472025963" lon="9.188561516141327"><ele>1765.0</ele><time>2026-05-03T10:54:05.001Z</time></trkpt><trkpt lat="46.52055761037465" lon="9.188812595552639"><ele>1765.0</ele><time>2026-05-03T10:54:06.001Z</time></trkpt><trkpt lat="46.52062835547709" lon="9.18903232561257"><ele>1765.0</ele><time>2026-05-03T10:54:07.001Z</time></trkpt><trkpt lat="46.52068317910814" lon="9.189183372431307"><ele>1768.6</ele><time>2026-05-03T10:54:08.001Z</time></trkpt><trkpt lat="46.52072455480548" lon="9.189297031591398"><ele>1772.2</ele><time>2026-05-03T10:54:09.001Z</time></trkpt><trkpt lat="46.520730662343205" lon="9.189394797553991"><ele>1775.8000000000002</ele><time>2026-05-03T10:54:11.001Z</time></trkpt><trkpt lat="46.52065579528991" lon="9.189389965214326"><ele>1779.4</ele><time>2026-05-03T10:54:13.001Z</time></trkpt><trkpt lat="46.520616230763096" lon="9.189246946920035"><ele>1783.0</ele><time>2026-05-03T10:54:14.001Z</time></trkpt><trkpt lat="46.52055196035017" lon="9.18907668097287"><ele>1777.0</ele><time>2026-05-03T10:54:15.001Z</time></trkpt><trkpt lat="46.52049193646683" lon="9.18886641187428"><ele>1771.0</ele><time>2026-05-03T10:54:16.001Z</time></trkpt><trkpt lat="46.520403460117244" lon="9.188647053935432"><ele>1765.0</ele><time>2026-05-03T10:54:17.001Z</time></trkpt><trkpt lat="46.52032963344778" lon="9.188433658303104"><ele>1773.3333333333335</ele><time>2026-05-03T10:54:18.001Z</time></trkpt><trkpt lat="46.520206937736354" lon="9.188268085841061"><ele>1781.6666666666665</ele><time>2026-05-03T10:54:19.001Z</time></trkpt><trkpt lat="46.52006219589228" lon="9.18810443380159"><ele>1790.0</ele><time>2026-05-03T10:54:20.001Z</time></trkpt><trkpt lat="46.51990731293392" lon="9.187916754366263"><ele>1790.0</ele><time>2026-05-03T10:54:21.001Z</time></trkpt><trkpt lat="46.51979439848488" lon="9.187685894563064"><ele>1790.0</ele><time>2026-05-03T10:54:22.001Z</time></trkpt><trkpt lat="46.51967358990045" lon="9.187493402918905"><ele>1790.0</ele><time>2026-05-03T10:54:23.001Z</time></trkpt><trkpt lat="46.519573525547614" lon="9.187322126239946"><ele>1795.5</ele><time>2026-05-03T10:54:24.001Z</time></trkpt><trkpt lat="46.51950023798047" lon="9.18714624240993"><ele>1801.0</ele><time>2026-05-03T10:54:25.001Z</time></trkpt><trkpt lat="46.51945458973441" lon="9.186960111478"><ele>1806.5</ele><time>2026-05-03T10:54:26.001Z</time></trkpt><trkpt lat="46.51942846400468" lon="9.186779739725702"><ele>1812.0</ele><time>2026-05-03T10:54:27.001Z</time></trkpt><trkpt lat="46.51938125817521" lon="9.18662165213675"><ele>1807.75</ele><time>2026-05-03T10:54:28.001Z</time></trkpt><trkpt lat="46.519282131301736" lon="9.186479053749466"><ele>1803.5</ele><time>2026-05-03T10:54:29.001Z</time></trkpt><trkpt lat="46.51916384338284" lon="9.18633156111304"><ele>1799.25</ele><time>2026-05-03T10:54:30.001Z</time></trkpt><trkpt lat="46.51906313555811" lon="9.186211672164543"><ele>1795.0</ele><time>2026-05-03T10:54:31.001Z</time></trkpt><trkpt lat="46.519008543409825" lon="9.186119047106622"><ele>1795.0</ele><time>2026-05-03T10:54:32.001Z</time></trkpt><trkpt lat="46.518900410122995" lon="9.186233797362911"><ele>1795.0</ele><time>2026-05-03T10:54:35.001Z</time></trkpt><trkpt lat="46.51895266997155" lon="9.186357185505022"><ele>1795.0</ele><time>2026-05-03T10:54:36.001Z</time></trkpt><trkpt lat="46.51903354448944" lon="9.186462526214468"><ele>1795.0</ele><time>2026-05-03T10:54:37.001Z</time></trkpt><trkpt lat="46.51914504010074" lon="9.186577676384097"><ele>1799.25</ele><time>2026-05-03T10:54:38.001Z</time></trkpt><trkpt lat="46.51922811694168" lon="9.186754707502402"><ele>1803.5</ele><time>2026-05-03T10:54:39.001Z</time></trkpt><trkpt lat="46.519274947608466" lon="9.18696679253234"><ele>1807.75</ele><time>2026-05-03T10:54:40.001Z</time></trkpt><trkpt lat="46.51928003201495" lon="9.18718102532425"><ele>1812.0</ele><time>2026-05-03T10:54:41.001Z</time></trkpt><trkpt lat="46.51931980733972" lon="9.187407715589034"><ele>1817.0</ele><time>2026-05-03T10:54:42.001Z</time></trkpt><trkpt lat="46.51940118491656" lon="9.187623563877363"><ele>1822.0</ele><time>2026-05-03T10:54:43.001Z</time></trkpt><trkpt lat="46.519493781722524" lon="9.187870413271778"><ele>1827.0</ele><time>2026-05-03T10:54:44.001Z</time></trkpt><trkpt lat="46.51960483408471" lon="9.188121984136846"><ele>1820.3333333333335</ele><time>2026-05-03T10:54:45.001Z</time></trkpt><trkpt lat="46.51969893124678" lon="9.188374400085241"><ele>1813.6666666666667</ele><time>2026-05-03T10:54:46.001Z</time></trkpt><trkpt lat="46.519820840604694" lon="9.188605676314618"><ele>1807.0</ele><time>2026-05-03T10:54:47.001Z</time></trkpt><trkpt lat="46.519933550143264" lon="9.188825321862835"><ele>1812.6666666666667</ele><time>2026-05-03T10:54:48.001Z</time></trkpt><trkpt lat="46.52002880640351" lon="9.1890611115148"><ele>1818.3333333333335</ele><time>2026-05-03T10:54:49.001Z</time></trkpt><trkpt lat="46.520105952719724" lon="9.189294001803031"><ele>1824.0</ele><time>2026-05-03T10:54:50.001Z</time></trkpt><trkpt lat="46.52016291152307" lon="9.189507759970223"><ele>1824.0</ele><time>2026-05-03T10:54:51.001Z</time></trkpt><trkpt lat="46.52020993213878" lon="9.189681152964404"><ele>1824.0</ele><time>2026-05-03T10:54:52.001Z</time></trkpt><trkpt lat="46.5202455466629" lon="9.18980810655427"><ele>1824.0</ele><time>2026-05-03T10:54:53.001Z</time></trkpt><trkpt lat="46.520264063525936" lon="9.189901069728204"><ele>1824.0</ele><time>2026-05-03T10:54:54.001Z</time></trkpt><trkpt lat="46.52020665667054" lon="9.189967695028223"><ele>1824.0</ele><time>2026-05-03T10:54:57.001Z</time></trkpt><trkpt lat="46.52016649850652" lon="9.189878241642953"><ele>1824.0</ele><time>2026-05-03T10:54:58.001Z</time></trkpt><trkpt lat="46.52014942962356" lon="9.18971885849965"><ele>1824.0</ele><time>2026-05-03T10:54:59.001Z</time></trkpt><trkpt lat="46.52010239910902" lon="9.18956464596955"><ele>1824.0</ele><time>2026-05-03T10:55:00.001Z</time></trkpt><trkpt lat="46.520031067461666" lon="9.189374067416397"><ele>1824.0</ele><time>2026-05-03T10:55:01.001Z</time></trkpt><trkpt lat="46.51993255391537" lon="9.189174016742044"><ele>1824.0</ele><time>2026-05-03T10:55:02.001Z</time></trkpt><trkpt lat="46.519813153582824" lon="9.18897034423052"><ele>1818.3333333333335</ele><time>2026-05-03T10:55:03Z</time></trkpt><trkpt lat="46.5196655191137" lon="9.188793557932096"><ele>1812.6666666666667</ele><time>2026-05-03T10:55:04Z</time></trkpt><trkpt lat="46.51950992274247" lon="9.18862680946533"><ele>1807.0</ele><time>2026-05-03T10:55:05Z</time></trkpt><trkpt lat="46.51936978823893" lon="9.188438751862938"><ele>1813.6666666666667</ele><time>2026-05-03T10:55:06Z</time></trkpt><trkpt lat="46.5192333874972" lon="9.188257367143054"><ele>1820.3333333333335</ele><time>2026-05-03T10:55:07Z</time></trkpt><trkpt lat="46.519122364090485" lon="9.188033706645385"><ele>1827.0</ele><time>2026-05-03T10:55:08Z</time></trkpt><trkpt lat="46.519041339641774" lon="9.187782188361163"><ele>1827.0</ele><time>2026-05-03T10:55:09Z</time></trkpt><trkpt lat="46.51898854709954" lon="9.187535404078428"><ele>1827.0</ele><time>2026-05-03T10:55:10Z</time></trkpt><trkpt lat="46.518940290428795" lon="9.187319121782059"><ele>1827.0</ele><time>2026-05-03T10:55:11Z</time></trkpt><trkpt lat="46.5188731646978" lon="9.187138592806402"><ele>1822.0</ele><time>2026-05-03T10:55:12Z</time></trkpt><trkpt lat="46.518781565550476" lon="9.186958847473917"><ele>1817.0</ele><time>2026-05-03T10:55:13Z</time></trkpt><trkpt lat="46.518657757781305" lon="9.186788500468296"><ele>1812.0</ele><time>2026-05-03T10:55:14Z</time></trkpt><trkpt lat="46.51849380808796" lon="9.186637187444688"><ele>1820.3333333333335</ele><time>2026-05-03T10:55:15Z</time></trkpt><trkpt lat="46.51834381093049" lon="9.186469122432024"><ele>1828.6666666666667</ele><time>2026-05-03T10:55:16Z</time></trkpt><trkpt lat="46.518252490094056" lon="9.186232417110677"><ele>1837.0</ele><time>2026-05-03T10:55:17Z</time></trkpt><trkpt lat="46.51817786337975" lon="9.185992198711606"><ele>1837.0</ele><time>2026-05-03T10:55:18Z</time></trkpt><trkpt lat="46.51811099709917" lon="9.185792169120052"><ele>1837.0</ele><time>2026-05-03T10:55:19Z</time></trkpt><trkpt lat="46.51801754296729" lon="9.185604896626089"><ele>1837.0</ele><time>2026-05-03T10:55:20Z</time></trkpt><trkpt lat="46.51789332856407" lon="9.185404170793179"><ele>1836.3333333333335</ele><time>2026-05-03T10:55:21Z</time></trkpt><trkpt lat="46.51775152408134" lon="9.185184081984719"><ele>1835.6666666666665</ele><time>2026-05-03T10:55:22Z</time></trkpt><trkpt lat="46.517589226150996" lon="9.184959891032019"><ele>1835.0</ele><time>2026-05-03T10:55:23Z</time></trkpt><trkpt lat="46.51743744742616" lon="9.18475400319152"><ele>1835.0</ele><time>2026-05-03T10:55:24Z</time></trkpt><trkpt lat="46.51730324848513" lon="9.184586628593424"><ele>1835.0</ele><time>2026-05-03T10:55:25Z</time></trkpt><trkpt lat="46.51718202199419" lon="9.184458744106257"><ele>1835.0</ele><time>2026-05-03T10:55:26Z</time></trkpt><trkpt lat="46.51707208573372" lon="9.184363062250213"><ele>1841.0</ele><time>2026-05-03T10:55:27Z</time></trkpt><trkpt lat="46.51695434082208" lon="9.184299946903712"><ele>1847.0</ele><time>2026-05-03T10:55:28Z</time></trkpt><trkpt lat="46.51681762677901" lon="9.184283109438855"><ele>1853.0</ele><time>2026-05-03T10:55:29Z</time></trkpt><trkpt lat="46.51666093669502" lon="9.184326953850032"><ele>1859.0</ele><time>2026-05-03T10:55:30Z</time></trkpt><trkpt lat="46.51649652921524" lon="9.184346398161434"><ele>1859.0</ele><time>2026-05-03T10:55:31Z</time></trkpt><trkpt lat="46.51634506851886" lon="9.184326174699112"><ele>1859.0</ele><time>2026-05-03T10:55:32Z</time></trkpt><trkpt lat="46.51617406157617" lon="9.184269917900224"><ele>1859.0</ele><time>2026-05-03T10:55:33Z</time></trkpt><trkpt lat="46.51601923741336" lon="9.184160446966361"><ele>1857.0</ele><time>2026-05-03T10:55:34Z</time></trkpt><trkpt lat="46.515878646257875" lon="9.18403589439644"><ele>1855.0</ele><time>2026-05-03T10:55:35Z</time></trkpt><trkpt lat="46.51574991645041" lon="9.18391831029715"><ele>1853.0</ele><time>2026-05-03T10:55:36Z</time></trkpt><trkpt lat="46.51561775750065" lon="9.18386343599981"><ele>1853.0</ele><time>2026-05-03T10:55:37Z</time></trkpt><trkpt lat="46.51545313221136" lon="9.183853658784836"><ele>1853.0</ele><time>2026-05-03T10:55:38Z</time></trkpt><trkpt lat="46.51528615048215" lon="9.183873588722012"><ele>1853.0</ele><time>2026-05-03T10:55:39Z</time></trkpt><trkpt lat="46.51515122433563" lon="9.18383996318643"><ele>1857.6000000000001</ele><time>2026-05-03T10:55:40Z</time></trkpt><trkpt lat="46.51503426125841" lon="9.183806095264377"><ele>1862.2000000000003</ele><time>2026-05-03T10:55:41Z</time></trkpt><trkpt lat="46.514939384829816" lon="9.183759031986916"><ele>1866.8</ele><time>2026-05-03T10:55:42Z</time></trkpt><trkpt lat="46.51487020850848" lon="9.183704940691454"><ele>1871.4</ele><time>2026-05-03T10:55:43Z</time></trkpt><trkpt lat="46.514808039164315" lon="9.183614371866625"><ele>1876.0</ele><time>2026-05-03T10:55:44Z</time></trkpt><trkpt lat="46.51475722092798" lon="9.183488850463778"><ele>1876.0</ele><time>2026-05-03T10:55:45Z</time></trkpt><trkpt lat="46.51476453041336" lon="9.183313182005588"><ele>1876.0</ele><time>2026-05-03T10:55:46Z</time></trkpt><trkpt lat="46.51484631011845" lon="9.18315772495252"><ele>1876.0</ele><time>2026-05-03T10:55:47Z</time></trkpt><trkpt lat="46.51496759033819" lon="9.183009279020528"><ele>1876.0</ele><time>2026-05-03T10:55:48Z</time></trkpt><trkpt lat="46.51508173411761" lon="9.182831953227844"><ele>1879.6666666666667</ele><time>2026-05-03T10:55:49Z</time></trkpt><trkpt lat="46.51517722046253" lon="9.182616987516015"><ele>1883.3333333333335</ele><time>2026-05-03T10:55:50Z</time></trkpt><trkpt lat="46.515260013486014" lon="9.182418444916898"><ele>1887.0</ele><time>2026-05-03T10:55:51Z</time></trkpt><trkpt lat="46.51532221277654" lon="9.182272324924392"><ele>1889.1666666666667</ele><time>2026-05-03T10:55:52Z</time></trkpt><trkpt lat="46.51536975735111" lon="9.182167298925444"><ele>1891.3333333333335</ele><time>2026-05-03T10:55:53Z</time></trkpt><trkpt lat="46.515365773278845" lon="9.182014334189697"><ele>1893.5</ele><time>2026-05-03T10:55:55Z</time></trkpt><trkpt lat="46.51530535237761" lon="9.181986383232353"><ele>1895.6666666666667</ele><time>2026-05-03T10:55:56Z</time></trkpt><trkpt lat="46.51524743587825" lon="9.182023633802727"><ele>1897.8333333333335</ele><time>2026-05-03T10:55:57Z</time></trkpt><trkpt lat="46.515178808150786" lon="9.1821476327985"><ele>1900.0</ele><time>2026-05-03T10:55:58Z</time></trkpt><trkpt lat="46.51510284072091" lon="9.18227680094202"><ele>1896.75</ele><time>2026-05-03T10:55:59Z</time></trkpt><trkpt lat="46.51502048141328" lon="9.182403647615322"><ele>1893.5</ele><time>2026-05-03T10:56:00Z</time></trkpt><trkpt lat="46.51491553585725" lon="9.182558096354102"><ele>1890.25</ele><time>2026-05-03T10:56:01.001Z</time></trkpt><trkpt lat="46.51479760522984" lon="9.182731657157928"><ele>1887.0</ele><time>2026-05-03T10:56:02.001Z</time></trkpt><trkpt lat="46.51470995007212" lon="9.18285907628251"><ele>1887.0</ele><time>2026-05-03T10:56:03.001Z</time></trkpt><trkpt lat="46.514630090421704" lon="9.182974405174324"><ele>1886.9999999999998</ele><time>2026-05-03T10:56:04.001Z</time></trkpt><trkpt lat="46.51457547511214" lon="9.1830466786953"><ele>1886.9999999999998</ele><time>2026-05-03T10:56:05.001Z</time></trkpt><trkpt lat="46.51446949048215" lon="9.183038461280693"><ele>1887.0</ele><time>2026-05-03T10:56:07.001Z</time></trkpt><trkpt lat="46.51438910614343" lon="9.182919262270632"><ele>1887.0</ele><time>2026-05-03T10:56:08.001Z</time></trkpt><trkpt lat="46.51425991822206" lon="9.182779132593815"><ele>1890.3333333333335</ele><time>2026-05-03T10:56:09.001Z</time></trkpt><trkpt lat="46.51413984746839" lon="9.18261968797848"><ele>1893.6666666666667</ele><time>2026-05-03T10:56:10.001Z</time></trkpt><trkpt lat="46.51401722879877" lon="9.18245583246409"><ele>1897.0</ele><time>2026-05-03T10:56:11.001Z</time></trkpt><trkpt lat="46.51389016389311" lon="9.182303652991855"><ele>1902.0</ele><time>2026-05-03T10:56:12.001Z</time></trkpt><trkpt lat="46.513743799590905" lon="9.182135759859419"><ele>1907.0</ele><time>2026-05-03T10:56:13.001Z</time></trkpt><trkpt lat="46.51358957060737" lon="9.181977593395066"><ele>1912.0</ele><time>2026-05-03T10:56:14.001Z</time></trkpt><trkpt lat="46.513445648916786" lon="9.181833520556745"><ele>1912.0</ele><time>2026-05-03T10:56:15.001Z</time></trkpt><trkpt lat="46.51330246290316" lon="9.181728307327123"><ele>1912.0</ele><time>2026-05-03T10:56:16.001Z</time></trkpt><trkpt lat="46.513125819107174" lon="9.181666661622486"><ele>1912.0</ele><time>2026-05-03T10:56:17.001Z</time></trkpt><trkpt lat="46.51292225924427" lon="9.181643933996531"><ele>1911.6666666666667</ele><time>2026-05-03T10:56:18.001Z</time></trkpt><trkpt lat="46.51271144687783" lon="9.181625355656116"><ele>1911.3333333333335</ele><time>2026-05-03T10:56:19.001Z</time></trkpt><trkpt lat="46.51250632887109" lon="9.181602399116311"><ele>1911.0</ele><time>2026-05-03T10:56:20.001Z</time></trkpt><trkpt lat="46.5123150779508" lon="9.181604969967022"><ele>1911.0</ele><time>2026-05-03T10:56:21.001Z</time></trkpt><trkpt lat="46.512135287099994" lon="9.181600858712027"><ele>1911.0</ele><time>2026-05-03T10:56:22.001Z</time></trkpt><trkpt lat="46.511945497882266" lon="9.181572772021868"><ele>1911.0</ele><time>2026-05-03T10:56:23.001Z</time></trkpt><trkpt lat="46.511751326737695" lon="9.18153502954168"><ele>1915.3333333333335</ele><time>2026-05-03T10:56:24.001Z</time></trkpt><trkpt lat="46.51157592404415" lon="9.181492948975103"><ele>1919.6666666666667</ele><time>2026-05-03T10:56:25.001Z</time></trkpt><trkpt lat="46.511404493852986" lon="9.181419711979135"><ele>1924.0</ele><time>2026-05-03T10:56:26.001Z</time></trkpt><trkpt lat="46.51124292257756" lon="9.181254665855183"><ele>1922.3333333333335</ele><time>2026-05-03T10:56:27.001Z</time></trkpt><trkpt lat="46.51104807245329" lon="9.181140514856715"><ele>1920.6666666666665</ele><time>2026-05-03T10:56:28.001Z</time></trkpt><trkpt lat="46.51085544313718" lon="9.181005252524622"><ele>1919.0</ele><time>2026-05-03T10:56:29.001Z</time></trkpt><trkpt lat="46.51066866490076" lon="9.180905480266814"><ele>1919.0</ele><time>2026-05-03T10:56:30.001Z</time></trkpt><trkpt lat="46.51049664874083" lon="9.180823802943392"><ele>1919.0</ele><time>2026-05-03T10:56:31.001Z</time></trkpt><trkpt lat="46.510349085262064" lon="9.180748092869568"><ele>1919.0</ele><time>2026-05-03T10:56:32.001Z</time></trkpt><trkpt lat="46.51022133417716" lon="9.180678393439822"><ele>1922.4</ele><time>2026-05-03T10:56:33.001Z</time></trkpt><trkpt lat="46.510098468101" lon="9.18058491126811"><ele>1925.8000000000002</ele><time>2026-05-03T10:56:34.001Z</time></trkpt><trkpt lat="46.50998228959924" lon="9.18051900775595"><ele>1929.1999999999998</ele><time>2026-05-03T10:56:35.001Z</time></trkpt><trkpt lat="46.50988492490001" lon="9.18046349647548"><ele>1932.6</ele><time>2026-05-03T10:56:36.001Z</time></trkpt><trkpt lat="46.50982034198579" lon="9.180426675186556"><ele>1936.0</ele><time>2026-05-03T10:56:37.001Z</time></trkpt><trkpt lat="46.509811843805984" lon="9.180299675621647"><ele>1936.0000000000002</ele><time>2026-05-03T10:56:39.001Z</time></trkpt><trkpt lat="46.50989572776072" lon="9.180292510395377"><ele>1936.0</ele><time>2026-05-03T10:56:40.001Z</time></trkpt><trkpt lat="46.50998672752652" lon="9.180255582933741"><ele>1936.0</ele><time>2026-05-03T10:56:41.001Z</time></trkpt><trkpt lat="46.51005676156821" lon="9.180235871333041"><ele>1936.0</ele><time>2026-05-03T10:56:42.001Z</time></trkpt><trkpt lat="46.510061598533355" lon="9.180097449249528"><ele>1936.0000000000002</ele><time>2026-05-03T10:56:44.001Z</time></trkpt><trkpt lat="46.51000916887825" lon="9.180036733010054"><ele>1936.0</ele><time>2026-05-03T10:56:45.001Z</time></trkpt><trkpt lat="46.509912481442306" lon="9.18005400753634"><ele>1936.0</ele><time>2026-05-03T10:56:46.001Z</time></trkpt><trkpt lat="46.5097965442134" lon="9.180114540570333"><ele>1936.0</ele><time>2026-05-03T10:56:47.001Z</time></trkpt><trkpt lat="46.50966375153199" lon="9.180147245506799"><ele>1936.0</ele><time>2026-05-03T10:56:48.001Z</time></trkpt><trkpt lat="46.50951682876352" lon="9.180146985986164"><ele>1936.0</ele><time>2026-05-03T10:56:49.001Z</time></trkpt><trkpt lat="46.50938556586109" lon="9.180130637618761"><ele>1936.5</ele><time>2026-05-03T10:56:50.001Z</time></trkpt><trkpt lat="46.509261114644254" lon="9.180169690083387"><ele>1937.0</ele><time>2026-05-03T10:56:51.001Z</time></trkpt><trkpt lat="46.50912520251368" lon="9.180148106571304"><ele>1937.5</ele><time>2026-05-03T10:56:52.001Z</time></trkpt><trkpt lat="46.50899726095087" lon="9.180062472355257"><ele>1938.0</ele><time>2026-05-03T10:56:53.001Z</time></trkpt><trkpt lat="46.50888965912843" lon="9.180009646117263"><ele>1938.0</ele><time>2026-05-03T10:56:54.001Z</time></trkpt><trkpt lat="46.508825021050235" lon="9.179977205947065"><ele>1938.0000000000002</ele><time>2026-05-03T10:56:55.001Z</time></trkpt><trkpt lat="46.508874401697234" lon="9.179879409323423"><ele>1938.0000000000002</ele><time>2026-05-03T10:56:58.001Z</time></trkpt><trkpt lat="46.50892013439193" lon="9.179955206006333"><ele>1938.0</ele><time>2026-05-03T10:56:59.001Z</time></trkpt><trkpt lat="46.5089522421399" lon="9.180058519499077"><ele>1938.0</ele><time>2026-05-03T10:57:00.001Z</time></trkpt><trkpt lat="46.50914195192321" lon="9.179988418409913"><ele>1938.0</ele><time>2026-05-03T10:57:01.001Z</time></trkpt><trkpt lat="46.509241943710556" lon="9.179981568210586"><ele>1938.0000000000002</ele><time>2026-05-03T10:57:02.001Z</time></trkpt><trkpt lat="46.50931325703519" lon="9.179928299384956"><ele>1938.0000000000002</ele><time>2026-05-03T10:57:03.001Z</time></trkpt><trkpt lat="46.50933478809577" lon="9.179831965089196"><ele>1938.0</ele><time>2026-05-03T10:57:05.001Z</time></trkpt><trkpt lat="46.509229596405284" lon="9.179730815994539"><ele>1938.0</ele><time>2026-05-03T10:57:06.001Z</time></trkpt><trkpt lat="46.509131358712956" lon="9.179735437830065"><ele>1942.5</ele><time>2026-05-03T10:57:07.001Z</time></trkpt><trkpt lat="46.50902625620037" lon="9.179742181760417"><ele>1947.0</ele><time>2026-05-03T10:57:08.001Z</time></trkpt><trkpt lat="46.50889126974114" lon="9.179713323118898"><ele>1951.5</ele><time>2026-05-03T10:57:09Z</time></trkpt><trkpt lat="46.50875454662619" lon="9.179635974857595"><ele>1956.0</ele><time>2026-05-03T10:57:10Z</time></trkpt><trkpt lat="46.50861008705771" lon="9.179580316708098"><ele>1956.0</ele><time>2026-05-03T10:57:11Z</time></trkpt><trkpt lat="46.50846347924816" lon="9.179582841070708"><ele>1956.0</ele><time>2026-05-03T10:57:12Z</time></trkpt><trkpt lat="46.50832581464442" lon="9.179601202505607"><ele>1956.0</ele><time>2026-05-03T10:57:13Z</time></trkpt><trkpt lat="46.50820654363698" lon="9.179591600571044"><ele>1956.0</ele><time>2026-05-03T10:57:14Z</time></trkpt><trkpt lat="46.50810593161286" lon="9.179489901443372"><ele>1956.0</ele><time>2026-05-03T10:57:15Z</time></trkpt><trkpt lat="46.507978904303975" lon="9.179428669745656"><ele>1956.0</ele><time>2026-05-03T10:57:16Z</time></trkpt><trkpt lat="46.50783351228243" lon="9.179461568683639"><ele>1956.0</ele><time>2026-05-03T10:57:17Z</time></trkpt><trkpt lat="46.50769479215524" lon="9.17956433370091"><ele>1956.0</ele><time>2026-05-03T10:57:18Z</time></trkpt><trkpt lat="46.507564157536045" lon="9.179654030151461"><ele>1954.8</ele><time>2026-05-03T10:57:19Z</time></trkpt><trkpt lat="46.507484558634594" lon="9.17978771296449"><ele>1953.6</ele><time>2026-05-03T10:57:20Z</time></trkpt><trkpt lat="46.50745216981611" lon="9.17991372929297"><ele>1952.4</ele><time>2026-05-03T10:57:21Z</time></trkpt><trkpt lat="46.507405157530556" lon="9.179993353713252"><ele>1951.2</ele><time>2026-05-03T10:57:22Z</time></trkpt><trkpt lat="46.507343256153895" lon="9.179831782912604"><ele>1950.0</ele><time>2026-05-03T10:57:25Z</time></trkpt><trkpt lat="46.50740678192832" lon="9.179689881641435"><ele>1952.8</ele><time>2026-05-03T10:57:26Z</time></trkpt><trkpt lat="46.50748693706989" lon="9.179575104847572"><ele>1955.6</ele><time>2026-05-03T10:57:27Z</time></trkpt><trkpt lat="46.507541700350515" lon="9.179497570343408"><ele>1958.4</ele><time>2026-05-03T10:57:28Z</time></trkpt><trkpt lat="46.507501342057694" lon="9.179371839720053"><ele>1961.2</ele><time>2026-05-03T10:57:30Z</time></trkpt><trkpt lat="46.50742855437635" lon="9.179349734903798"><ele>1964.0</ele><time>2026-05-03T10:57:31Z</time></trkpt><trkpt lat="46.50732886343843" lon="9.179401787326626"><ele>1964.0</ele><time>2026-05-03T10:57:32Z</time></trkpt><trkpt lat="46.507199913943374" lon="9.179455646547405"><ele>1964.0</ele><time>2026-05-03T10:57:33Z</time></trkpt><trkpt lat="46.50706185347799" lon="9.179478077299551"><ele>1964.0</ele><time>2026-05-03T10:57:34Z</time></trkpt><trkpt lat="46.506912140049764" lon="9.17951119057737"><ele>1964.0</ele><time>2026-05-03T10:57:35Z</time></trkpt><trkpt lat="46.506793585646335" lon="9.179510378855774"><ele>1965.3333333333333</ele><time>2026-05-03T10:57:36Z</time></trkpt><trkpt lat="46.506685901680285" lon="9.179494162862568"><ele>1966.6666666666665</ele><time>2026-05-03T10:57:37Z</time></trkpt><trkpt lat="46.506592496823885" lon="9.179504268250838"><ele>1968.0</ele><time>2026-05-03T10:57:38Z</time></trkpt><trkpt lat="46.506521736536385" lon="9.179518744415246"><ele>1969.3333333333335</ele><time>2026-05-03T10:57:39Z</time></trkpt><trkpt lat="46.50643939173042" lon="9.179493359409113"><ele>1970.6666666666667</ele><time>2026-05-03T10:57:41Z</time></trkpt><trkpt lat="46.50645169082992" lon="9.17938927581606"><ele>1972.0</ele><time>2026-05-03T10:57:42Z</time></trkpt><trkpt lat="46.50654841821485" lon="9.179352726260438"><ele>1972.0</ele><time>2026-05-03T10:57:43Z</time></trkpt><trkpt lat="46.50665388480938" lon="9.17931316078666"><ele>1971.9999999999998</ele><time>2026-05-03T10:57:44Z</time></trkpt><trkpt lat="46.50676093353251" lon="9.17930124275575"><ele>1971.9999999999998</ele><time>2026-05-03T10:57:45Z</time></trkpt><trkpt lat="46.50683566808905" lon="9.17928192330294"><ele>1972.0</ele><time>2026-05-03T10:57:46Z</time></trkpt><trkpt lat="46.50689975087335" lon="9.179162709057886"><ele>1972.0</ele><time>2026-05-03T10:57:48Z</time></trkpt><trkpt lat="46.50677204021882" lon="9.1790620779337"><ele>1972.0</ele><time>2026-05-03T10:57:50Z</time></trkpt><trkpt lat="46.506655648649684" lon="9.179068662815038"><ele>1972.0</ele><time>2026-05-03T10:57:51Z</time></trkpt><trkpt lat="46.50652813776423" lon="9.179048382424662"><ele>1972.0</ele><time>2026-05-03T10:57:52Z</time></trkpt><trkpt lat="46.50636972085191" lon="9.179024989579625"><ele>1972.0</ele><time>2026-05-03T10:57:53Z</time></trkpt><trkpt lat="46.506199400200146" lon="9.179032442974892"><ele>1972.6666666666667</ele><time>2026-05-03T10:57:54Z</time></trkpt><trkpt lat="46.506052629742584" lon="9.179035685840418"><ele>1973.3333333333335</ele><time>2026-05-03T10:57:55Z</time></trkpt><trkpt lat="46.5059076235356" lon="9.179002798905596"><ele>1974.0</ele><time>2026-05-03T10:57:56Z</time></trkpt><trkpt lat="46.505755323722" lon="9.178932406702149"><ele>1978.3333333333335</ele><time>2026-05-03T10:57:57Z</time></trkpt><trkpt lat="46.50562101372325" lon="9.17882573798383"><ele>1982.6666666666667</ele><time>2026-05-03T10:57:58Z</time></trkpt><trkpt lat="46.50547895230351" lon="9.17871933928979"><ele>1987.0</ele><time>2026-05-03T10:57:59Z</time></trkpt><trkpt lat="46.50530437698322" lon="9.178657611157549"><ele>1987.0</ele><time>2026-05-03T10:58:00Z</time></trkpt><trkpt lat="46.50510572568031" lon="9.178665048712103"><ele>1987.0</ele><time>2026-05-03T10:58:01Z</time></trkpt><trkpt lat="46.50491620989026" lon="9.17869989113384"><ele>1987.0</ele><time>2026-05-03T10:58:02Z</time></trkpt><trkpt lat="46.50473394255086" lon="9.178762015235584"><ele>1987.6666666666667</ele><time>2026-05-03T10:58:03Z</time></trkpt><trkpt lat="46.50456505520112" lon="9.178821944993425"><ele>1988.3333333333335</ele><time>2026-05-03T10:58:04Z</time></trkpt><trkpt lat="46.50440737777697" lon="9.178866923507705"><ele>1989.0</ele><time>2026-05-03T10:58:05Z</time></trkpt><trkpt lat="46.50424236086898" lon="9.178869211282244"><ele>1989.0</ele><time>2026-05-03T10:58:06Z</time></trkpt><trkpt lat="46.50406802426297" lon="9.178823358871444"><ele>1989.0</ele><time>2026-05-03T10:58:07Z</time></trkpt><trkpt lat="46.50388433713128" lon="9.178733931699744"><ele>1989.0</ele><time>2026-05-03T10:58:08Z</time></trkpt><trkpt lat="46.50369170005861" lon="9.178732681395749"><ele>1989.0</ele><time>2026-05-03T10:58:09Z</time></trkpt><trkpt lat="46.50349961707789" lon="9.178767607832961"><ele>1989.0</ele><time>2026-05-03T10:58:10Z</time></trkpt><trkpt lat="46.503337369701875" lon="9.178699654050924"><ele>1989.0</ele><time>2026-05-03T10:58:11Z</time></trkpt><trkpt lat="46.50318012771967" lon="9.178608145214232"><ele>1989.0</ele><time>2026-05-03T10:58:12Z</time></trkpt><trkpt lat="46.50303629150994" lon="9.178476471704863"><ele>1989.0</ele><time>2026-05-03T10:58:13Z</time></trkpt><trkpt lat="46.50288296017034" lon="9.17831723006126"><ele>1989.0</ele><time>2026-05-03T10:58:14Z</time></trkpt><trkpt lat="46.50275123544867" lon="9.178140081848852"><ele>1992.0</ele><time>2026-05-03T10:58:15Z</time></trkpt><trkpt lat="46.50261658343842" lon="9.178003765980367"><ele>1995.0</ele><time>2026-05-03T10:58:16Z</time></trkpt><trkpt lat="46.50245102553682" lon="9.177921085321573"><ele>1998.0</ele><time>2026-05-03T10:58:17Z</time></trkpt><trkpt lat="46.50226811248786" lon="9.177863529635248"><ele>2000.0</ele><time>2026-05-03T10:58:18Z</time></trkpt><trkpt lat="46.50207608513902" lon="9.177807678999052"><ele>2002.0</ele><time>2026-05-03T10:58:19.001Z</time></trkpt><trkpt lat="46.501887684521364" lon="9.177718984677977"><ele>2004.0</ele><time>2026-05-03T10:58:20.001Z</time></trkpt><trkpt lat="46.50169207449547" lon="9.177645275957317"><ele>2004.0</ele><time>2026-05-03T10:58:21.001Z</time></trkpt><trkpt lat="46.5014949287802" lon="9.177563234784783"><ele>2004.0</ele><time>2026-05-03T10:58:22.001Z</time></trkpt><trkpt lat="46.50128697559123" lon="9.177489569684736"><ele>2004.0</ele><time>2026-05-03T10:58:23.001Z</time></trkpt><trkpt lat="46.50108372449437" lon="9.17737490402727"><ele>2007.0</ele><time>2026-05-03T10:58:24.001Z</time></trkpt><trkpt lat="46.50088685707463" lon="9.17724720765773"><ele>2010.0</ele><time>2026-05-03T10:58:25.001Z</time></trkpt><trkpt lat="46.5006965246433" lon="9.177097541269704"><ele>2013.0</ele><time>2026-05-03T10:58:26.001Z</time></trkpt><trkpt lat="46.500529402965746" lon="9.176896473893223"><ele>2015.0</ele><time>2026-05-03T10:58:27.001Z</time></trkpt><trkpt lat="46.50035605642628" lon="9.17674572497684"><ele>2017.0</ele><time>2026-05-03T10:58:28.001Z</time></trkpt><trkpt lat="46.50019526120442" lon="9.17659163376062"><ele>2019.0</ele><time>2026-05-03T10:58:29.001Z</time></trkpt><trkpt lat="46.50002338961463" lon="9.176444028064731"><ele>2020.6666666666665</ele><time>2026-05-03T10:58:30.001Z</time></trkpt><trkpt lat="46.49985249341045" lon="9.176296052679787"><ele>2022.3333333333333</ele><time>2026-05-03T10:58:31.001Z</time></trkpt><trkpt lat="46.499683122305306" lon="9.176157678905348"><ele>2024.0</ele><time>2026-05-03T10:58:32.001Z</time></trkpt><trkpt lat="46.4995158572955" lon="9.17603481365608"><ele>2024.0</ele><time>2026-05-03T10:58:33.001Z</time></trkpt><trkpt lat="46.4993428915479" lon="9.175921427815"><ele>2024.0</ele><time>2026-05-03T10:58:34.001Z</time></trkpt><trkpt lat="46.499177371120005" lon="9.175803491379128"><ele>2024.0</ele><time>2026-05-03T10:58:35.001Z</time></trkpt><trkpt lat="46.4990021019443" lon="9.17569162683839"><ele>2024.6666666666665</ele><time>2026-05-03T10:58:36.001Z</time></trkpt><trkpt lat="46.49882650677216" lon="9.175583313151677"><ele>2025.3333333333335</ele><time>2026-05-03T10:58:37.001Z</time></trkpt><trkpt lat="46.4986471334388" lon="9.175477061761637"><ele>2026.0</ele><time>2026-05-03T10:58:38.001Z</time></trkpt><trkpt lat="46.49846671670585" lon="9.175368848868825"><ele>2026.6666666666667</ele><time>2026-05-03T10:58:39.001Z</time></trkpt><trkpt lat="46.49828194515076" lon="9.175258438057803"><ele>2027.3333333333335</ele><time>2026-05-03T10:58:40.001Z</time></trkpt><trkpt lat="46.4980954500066" lon="9.175152061988632"><ele>2028.0</ele><time>2026-05-03T10:58:41.001Z</time></trkpt><trkpt lat="46.497910633547875" lon="9.175051563379334"><ele>2030.3333333333335</ele><time>2026-05-03T10:58:42.001Z</time></trkpt><trkpt lat="46.49774268645953" lon="9.174964363203658"><ele>2032.6666666666667</ele><time>2026-05-03T10:58:43.001Z</time></trkpt><trkpt lat="46.497597538998555" lon="9.174891282845218"><ele>2035.0</ele><time>2026-05-03T10:58:44.001Z</time></trkpt><trkpt lat="46.49746919054979" lon="9.174826500568463"><ele>2036.4</ele><time>2026-05-03T10:58:45.001Z</time></trkpt><trkpt lat="46.49735334299714" lon="9.174773074064579"><ele>2037.8</ele><time>2026-05-03T10:58:46.001Z</time></trkpt><trkpt lat="46.49725636724257" lon="9.174702597166542"><ele>2039.1999999999998</ele><time>2026-05-03T10:58:47.001Z</time></trkpt><trkpt lat="46.497169936505166" lon="9.174659181156386"><ele>2040.6</ele><time>2026-05-03T10:58:48.001Z</time></trkpt><trkpt lat="46.497087657894795" lon="9.174618262102163"><ele>2042.0</ele><time>2026-05-03T10:58:49.001Z</time></trkpt><trkpt lat="46.49701028687599" lon="9.174580232713788"><ele>2042.0</ele><time>2026-05-03T10:58:50.001Z</time></trkpt><trkpt lat="46.49694651459504" lon="9.174529582916902"><ele>2041.9999999999998</ele><time>2026-05-03T10:58:51.001Z</time></trkpt><trkpt lat="46.49695766322958" lon="9.17441205921637"><ele>2041.9999999999998</ele><time>2026-05-03T10:58:52.001Z</time></trkpt><trkpt lat="46.49705597281091" lon="9.174309321758015"><ele>2042.0</ele><time>2026-05-03T10:58:53.001Z</time></trkpt><trkpt lat="46.49713826690151" lon="9.17418435338015"><ele>2042.0</ele><time>2026-05-03T10:58:54.001Z</time></trkpt><trkpt lat="46.49723134422951" lon="9.174044435286346"><ele>2046.3333333333333</ele><time>2026-05-03T10:58:55.001Z</time></trkpt><trkpt lat="46.4973349366537" lon="9.173888485339335"><ele>2050.6666666666665</ele><time>2026-05-03T10:58:56.001Z</time></trkpt><trkpt lat="46.49745822195019" lon="9.173690273101457"><ele>2055.0</ele><time>2026-05-03T10:58:57.001Z</time></trkpt><trkpt lat="46.49759592767981" lon="9.173475093462235"><ele>2055.0</ele><time>2026-05-03T10:58:58.001Z</time></trkpt><trkpt lat="46.49774078732685" lon="9.173251714364449"><ele>2055.0</ele><time>2026-05-03T10:58:59.001Z</time></trkpt><trkpt lat="46.49787426657498" lon="9.17304907789406"><ele>2055.0</ele><time>2026-05-03T10:59:00.001Z</time></trkpt><trkpt lat="46.497982962869514" lon="9.17286929877924"><ele>2057.0</ele><time>2026-05-03T10:59:01.001Z</time></trkpt><trkpt lat="46.49808053367645" lon="9.172720398212425"><ele>2059.0</ele><time>2026-05-03T10:59:02.001Z</time></trkpt><trkpt lat="46.49815199423246" lon="9.172589001699654"><ele>2061.0</ele><time>2026-05-03T10:59:03.001Z</time></trkpt><trkpt lat="46.498181066951695" lon="9.172471636524998"><ele>2063.0</ele><time>2026-05-03T10:59:04.001Z</time></trkpt><trkpt lat="46.49818044700837" lon="9.172314243608236"><ele>2063.0</ele><time>2026-05-03T10:59:05.001Z</time></trkpt><trkpt lat="46.49813297484621" lon="9.172092226809067"><ele>2063.0</ele><time>2026-05-03T10:59:06.001Z</time></trkpt><trkpt lat="46.4981012547646" lon="9.171843623025538"><ele>2063.0</ele><time>2026-05-03T10:59:07.001Z</time></trkpt><trkpt lat="46.49808816615661" lon="9.171582252399043"><ele>2064.0</ele><time>2026-05-03T10:59:08.001Z</time></trkpt><trkpt lat="46.49807518937236" lon="9.171357769895929"><ele>2065.0</ele><time>2026-05-03T10:59:09.001Z</time></trkpt><trkpt lat="46.498022178145284" lon="9.17118361719619"><ele>2066.0</ele><time>2026-05-03T10:59:10.001Z</time></trkpt><trkpt lat="46.497936279735185" lon="9.171047078382761"><ele>2067.0</ele><time>2026-05-03T10:59:11.001Z</time></trkpt><trkpt lat="46.497797593027286" lon="9.170961865112224"><ele>2067.0</ele><time>2026-05-03T10:59:12.001Z</time></trkpt><trkpt lat="46.497650293810324" lon="9.170939777711387"><ele>2067.0</ele><time>2026-05-03T10:59:13.001Z</time></trkpt><trkpt lat="46.497503512472285" lon="9.171003642032419"><ele>2067.0</ele><time>2026-05-03T10:59:14.001Z</time></trkpt><trkpt lat="46.497382388704594" lon="9.17111660542929"><ele>2067.0</ele><time>2026-05-03T10:59:15Z</time></trkpt><trkpt lat="46.49729300402094" lon="9.171205540045761"><ele>2067.0</ele><time>2026-05-03T10:59:16Z</time></trkpt><trkpt lat="46.49718946357873" lon="9.171157596054693"><ele>2067.0</ele><time>2026-05-03T10:59:17Z</time></trkpt><trkpt lat="46.49706745165127" lon="9.171051299294001"><ele>2067.0</ele><time>2026-05-03T10:59:18Z</time></trkpt><trkpt lat="46.496908155640874" lon="9.170977362998128"><ele>2067.0</ele><time>2026-05-03T10:59:19Z</time></trkpt><trkpt lat="46.496738266921945" lon="9.170904761194514"><ele>2067.3333333333335</ele><time>2026-05-03T10:59:20Z</time></trkpt><trkpt lat="46.49655384247954" lon="9.170856051278909"><ele>2067.666666666667</ele><time>2026-05-03T10:59:21Z</time></trkpt><trkpt lat="46.496393861401366" lon="9.170804597965475"><ele>2068.0</ele><time>2026-05-03T10:59:22Z</time></trkpt><trkpt lat="46.49626372200436" lon="9.170760046239549"><ele>2067.666666666667</ele><time>2026-05-03T10:59:23Z</time></trkpt><trkpt lat="46.49615250979429" lon="9.170720403198104"><ele>2067.3333333333335</ele><time>2026-05-03T10:59:24Z</time></trkpt><trkpt lat="46.49605665274123" lon="9.170681824189103"><ele>2067.0</ele><time>2026-05-03T10:59:25Z</time></trkpt><trkpt lat="46.495993000743496" lon="9.170640461879609"><ele>2066.6666666666665</ele><time>2026-05-03T10:59:26Z</time></trkpt><trkpt lat="46.495924087503205" lon="9.170589619352192"><ele>2066.333333333333</ele><time>2026-05-03T10:59:28Z</time></trkpt><trkpt lat="46.495886261011556" lon="9.170516397098142"><ele>2066.0</ele><time>2026-05-03T10:59:31Z</time></trkpt><trkpt lat="46.495804078803666" lon="9.170428816638013"><ele>2066.6666666666665</ele><time>2026-05-03T11:01:12.001Z</time></trkpt><trkpt lat="46.49575080076937" lon="9.170326434123842"><ele>2067.333333333333</ele><time>2026-05-03T11:09:26.003Z</time></trkpt><trkpt lat="46.49569845665855" lon="9.17019715408216"><ele>2068.0</ele><time>2026-05-03T11:09:27.003Z</time></trkpt><trkpt lat="46.49565302382022" lon="9.1701256262992"><ele>2068.6666666666665</ele><time>2026-05-03T11:09:28.003Z</time></trkpt><trkpt lat="46.49560845083099" lon="9.17004782595477"><ele>2069.3333333333335</ele><time>2026-05-03T11:09:29.003Z</time></trkpt><trkpt lat="46.495556169113044" lon="9.169963129141516"><ele>2070.0</ele><time>2026-05-03T11:09:30.003Z</time></trkpt><trkpt lat="46.49550185708417" lon="9.169875408601547"><ele>2069.5</ele><time>2026-05-03T11:09:31.003Z</time></trkpt><trkpt lat="46.495445577989216" lon="9.169788059250182"><ele>2069.0</ele><time>2026-05-03T11:09:32.003Z</time></trkpt><trkpt lat="46.49538666892416" lon="9.169701669199663"><ele>2068.5</ele><time>2026-05-03T11:09:33.003Z</time></trkpt><trkpt lat="46.495326452138045" lon="9.169606747547034"><ele>2068.0</ele><time>2026-05-03T11:09:34.003Z</time></trkpt><trkpt lat="46.495262752919665" lon="9.169512403424813"><ele>2067.5</ele><time>2026-05-03T11:09:35.003Z</time></trkpt><trkpt lat="46.49519264419655" lon="9.16940594741121"><ele>2067.0</ele><time>2026-05-03T11:09:36.003Z</time></trkpt><trkpt lat="46.49511602997892" lon="9.169303552750133"><ele>2067.0</ele><time>2026-05-03T11:09:37.003Z</time></trkpt><trkpt lat="46.4950274098281" lon="9.169223360726155"><ele>2067.0</ele><time>2026-05-03T11:09:38.003Z</time></trkpt><trkpt lat="46.49492359190805" lon="9.169171319772897"><ele>2067.0</ele><time>2026-05-03T11:09:39.003Z</time></trkpt><trkpt lat="46.49480763858188" lon="9.169145779249382"><ele>2067.0</ele><time>2026-05-03T11:09:40.003Z</time></trkpt><trkpt lat="46.49468147094654" lon="9.169112601323912"><ele>2067.25</ele><time>2026-05-03T11:09:41.003Z</time></trkpt><trkpt lat="46.49455105597635" lon="9.169135764049523"><ele>2067.5</ele><time>2026-05-03T11:09:42.003Z</time></trkpt><trkpt lat="46.494429224893075" lon="9.169182874642836"><ele>2067.75</ele><time>2026-05-03T11:09:43.003Z</time></trkpt><trkpt lat="46.49430266449564" lon="9.169237573428001"><ele>2068.0</ele><time>2026-05-03T11:09:44.003Z</time></trkpt><trkpt lat="46.49416670752808" lon="9.169298474188173"><ele>2068.0</ele><time>2026-05-03T11:09:45.003Z</time></trkpt><trkpt lat="46.494023793706404" lon="9.169366197810286"><ele>2068.0</ele><time>2026-05-03T11:09:46.003Z</time></trkpt><trkpt lat="46.49388219462364" lon="9.169441371943131"><ele>2068.0</ele><time>2026-05-03T11:09:47.003Z</time></trkpt><trkpt lat="46.49374376089254" lon="9.169516335145019"><ele>2068.0</ele><time>2026-05-03T11:09:48.003Z</time></trkpt><trkpt lat="46.493612662256595" lon="9.169587439752467"><ele>2069.5</ele><time>2026-05-03T11:09:49.003Z</time></trkpt><trkpt lat="46.49349397066422" lon="9.16954847280446"><ele>2071.0</ele><time>2026-05-03T11:09:50.003Z</time></trkpt><trkpt lat="46.49336559218605" lon="9.169527728810085"><ele>2072.5</ele><time>2026-05-03T11:09:51.003Z</time></trkpt><trkpt lat="46.49323480236915" lon="9.16951382333908"><ele>2074.0</ele><time>2026-05-03T11:09:52.003Z</time></trkpt><trkpt lat="46.49310905710486" lon="9.169488133926325"><ele>2074.0</ele><time>2026-05-03T11:09:53.003Z</time></trkpt><trkpt lat="46.49299722701356" lon="9.169473618382343"><ele>2074.0</ele><time>2026-05-03T11:09:54.003Z</time></trkpt><trkpt lat="46.49288854276552" lon="9.169493569804656"><ele>2074.0</ele><time>2026-05-03T11:09:55.003Z</time></trkpt><trkpt lat="46.4927786561344" lon="9.169525966333566"><ele>2074.0</ele><time>2026-05-03T11:09:56.003Z</time></trkpt><trkpt lat="46.49268405269886" lon="9.169667242166238"><ele>2072.75</ele><time>2026-05-03T11:09:57.003Z</time></trkpt><trkpt lat="46.492576532282214" lon="9.169791207362895"><ele>2071.5</ele><time>2026-05-03T11:09:58.003Z</time></trkpt><trkpt lat="46.49246630098684" lon="9.169910240793833"><ele>2070.25</ele><time>2026-05-03T11:09:59.003Z</time></trkpt><trkpt lat="46.49235745975269" lon="9.170017534377951"><ele>2069.0</ele><time>2026-05-03T11:10:00.003Z</time></trkpt><trkpt lat="46.492257032231564" lon="9.170112877784442"><ele>2069.0</ele><time>2026-05-03T11:10:01.003Z</time></trkpt><trkpt lat="46.49216942328796" lon="9.170196502499484"><ele>2069.0</ele><time>2026-05-03T11:10:02.003Z</time></trkpt><trkpt lat="46.49208595602216" lon="9.170275838782436"><ele>2069.0</ele><time>2026-05-03T11:10:03.003Z</time></trkpt><trkpt lat="46.49201062455287" lon="9.17036851071873"><ele>2069.0</ele><time>2026-05-03T11:10:04.003Z</time></trkpt><trkpt lat="46.491927241439285" lon="9.170440807455769"><ele>2069.0</ele><time>2026-05-03T11:10:05.003Z</time></trkpt><trkpt lat="46.491814597205135" lon="9.17049738982013"><ele>2070.0</ele><time>2026-05-03T11:10:06.003Z</time></trkpt><trkpt lat="46.491687764246976" lon="9.170528016825479"><ele>2071.0</ele><time>2026-05-03T11:10:07.003Z</time></trkpt><trkpt lat="46.49154748911912" lon="9.170559841756928"><ele>2072.0</ele><time>2026-05-03T11:10:08.003Z</time></trkpt><trkpt lat="46.49140611475722" lon="9.170587882850159"><ele>2073.0</ele><time>2026-05-03T11:10:09.003Z</time></trkpt><trkpt lat="46.49125682873421" lon="9.170609620137496"><ele>2073.0</ele><time>2026-05-03T11:10:10.003Z</time></trkpt><trkpt lat="46.4911009092253" lon="9.170627903335665"><ele>2073.0</ele><time>2026-05-03T11:10:11.003Z</time></trkpt><trkpt lat="46.490935499617166" lon="9.170645382281421"><ele>2073.0</ele><time>2026-05-03T11:10:12.003Z</time></trkpt><trkpt lat="46.49076825648443" lon="9.170667143030618"><ele>2073.0</ele><time>2026-05-03T11:10:13.003Z</time></trkpt><trkpt lat="46.490621018976306" lon="9.170687004256319"><ele>2073.0</ele><time>2026-05-03T11:10:14.003Z</time></trkpt><trkpt lat="46.49047061539245" lon="9.17071168191922"><ele>2073.0</ele><time>2026-05-03T11:10:15.003Z</time></trkpt><trkpt lat="46.49032525237201" lon="9.170728580321645"><ele>2073.0</ele><time>2026-05-03T11:10:16.003Z</time></trkpt><trkpt lat="46.49017579260585" lon="9.170754050498187"><ele>2069.3333333333335</ele><time>2026-05-03T11:10:17.004Z</time></trkpt><trkpt lat="46.490027416267694" lon="9.170782334516451"><ele>2065.666666666667</ele><time>2026-05-03T11:10:18.004Z</time></trkpt><trkpt lat="46.48987111697587" lon="9.17081586706473"><ele>2062.0</ele><time>2026-05-03T11:10:19.004Z</time></trkpt><trkpt lat="46.489721315885106" lon="9.17084327660614"><ele>2061.0</ele><time>2026-05-03T11:10:20.004Z</time></trkpt><trkpt lat="46.48956568258328" lon="9.170871248513912"><ele>2060.0</ele><time>2026-05-03T11:10:21.004Z</time></trkpt><trkpt lat="46.48940864345374" lon="9.170906607304945"><ele>2059.0</ele><time>2026-05-03T11:10:22.004Z</time></trkpt><trkpt lat="46.489258482128406" lon="9.170940251898934"><ele>2059.0</ele><time>2026-05-03T11:10:23.004Z</time></trkpt><trkpt lat="46.48910864186377" lon="9.170967359617599"><ele>2059.0</ele><time>2026-05-03T11:10:24.004Z</time></trkpt><trkpt lat="46.48896540866106" lon="9.17099586782373"><ele>2059.0</ele><time>2026-05-03T11:10:25.004Z</time></trkpt><trkpt lat="46.488833045778485" lon="9.171018125015403"><ele>2059.0</ele><time>2026-05-03T11:10:26.004Z</time></trkpt><trkpt lat="46.488701206852014" lon="9.171035764822502"><ele>2058.25</ele><time>2026-05-03T11:10:27.004Z</time></trkpt><trkpt lat="46.48856865665167" lon="9.17105454057276"><ele>2057.5</ele><time>2026-05-03T11:10:28.004Z</time></trkpt><trkpt lat="46.48844522813859" lon="9.17106186976615"><ele>2056.75</ele><time>2026-05-03T11:10:29.004Z</time></trkpt><trkpt lat="46.48833736451021" lon="9.17109119048425"><ele>2056.0</ele><time>2026-05-03T11:10:30.004Z</time></trkpt><trkpt lat="46.48820433654579" lon="9.171095150815107"><ele>2056.0</ele><time>2026-05-03T11:10:31.004Z</time></trkpt><trkpt lat="46.48808241711185" lon="9.171105900319064"><ele>2056.0</ele><time>2026-05-03T11:10:32.004Z</time></trkpt><trkpt lat="46.48796009816179" lon="9.17109338710348"><ele>2056.0</ele><time>2026-05-03T11:10:33.004Z</time></trkpt><trkpt lat="46.487840293614866" lon="9.171048096886953"><ele>2056.0</ele><time>2026-05-03T11:10:34.004Z</time></trkpt><trkpt lat="46.487728696466384" lon="9.170948128775159"><ele>2051.75</ele><time>2026-05-03T11:10:35.004Z</time></trkpt><trkpt lat="46.48761426760068" lon="9.170847652336155"><ele>2047.5</ele><time>2026-05-03T11:10:36.004Z</time></trkpt><trkpt lat="46.487521036999844" lon="9.170696838196886"><ele>2043.25</ele><time>2026-05-03T11:10:37.004Z</time></trkpt><trkpt lat="46.48747765853179" lon="9.170511753538692"><ele>2039.0</ele><time>2026-05-03T11:10:38.004Z</time></trkpt><trkpt lat="46.48743412652485" lon="9.17032082584073"><ele>2039.0</ele><time>2026-05-03T11:10:39.004Z</time></trkpt><trkpt lat="46.48741008067008" lon="9.170144419237191"><ele>2039.0</ele><time>2026-05-03T11:10:40.004Z</time></trkpt><trkpt lat="46.48742190549645" lon="9.169948256863675"><ele>2039.0</ele><time>2026-05-03T11:10:41.004Z</time></trkpt><trkpt lat="46.48744923753207" lon="9.169747511480507"><ele>2039.0</ele><time>2026-05-03T11:10:42.004Z</time></trkpt><trkpt lat="46.48747394583704" lon="9.169567378856566"><ele>2038.6</ele><time>2026-05-03T11:10:43.004Z</time></trkpt><trkpt lat="46.48749953477016" lon="9.169416315875269"><ele>2038.2</ele><time>2026-05-03T11:10:44.004Z</time></trkpt><trkpt lat="46.4875445708239" lon="9.16928682706936"><ele>2037.7999999999997</ele><time>2026-05-03T11:10:45.004Z</time></trkpt><trkpt lat="46.48762011139092" lon="9.169160494244464"><ele>2037.3999999999999</ele><time>2026-05-03T11:10:46.004Z</time></trkpt><trkpt lat="46.48770044051095" lon="9.16904289566864"><ele>2037.0</ele><time>2026-05-03T11:10:47.004Z</time></trkpt><trkpt lat="46.48773782240738" lon="9.168922649153982"><ele>2036.6</ele><time>2026-05-03T11:10:48.004Z</time></trkpt><trkpt lat="46.487728650868235" lon="9.168807782823238"><ele>2036.1999999999998</ele><time>2026-05-03T11:10:49.004Z</time></trkpt><trkpt lat="46.48765921467483" lon="9.168684653469825"><ele>2035.8</ele><time>2026-05-03T11:10:50.004Z</time></trkpt><trkpt lat="46.48756819876015" lon="9.168580985979736"><ele>2035.4</ele><time>2026-05-03T11:10:51.004Z</time></trkpt><trkpt lat="46.48747021533021" lon="9.168469175595401"><ele>2035.0</ele><time>2026-05-03T11:10:52.004Z</time></trkpt><trkpt lat="46.48735665061847" lon="9.168385176384735"><ele>2035.0</ele><time>2026-05-03T11:10:53.004Z</time></trkpt><trkpt lat="46.487217969979255" lon="9.16834707807952"><ele>2035.0</ele><time>2026-05-03T11:10:54.004Z</time></trkpt><trkpt lat="46.48708562205808" lon="9.1683643851803"><ele>2035.0</ele><time>2026-05-03T11:10:55.004Z</time></trkpt><trkpt lat="46.48697615891158" lon="9.16839530427313"><ele>2035.0</ele><time>2026-05-03T11:10:56.004Z</time></trkpt><trkpt lat="46.4868714490642" lon="9.16837071189124"><ele>2032.0</ele><time>2026-05-03T11:10:57.004Z</time></trkpt><trkpt lat="46.486786543647696" lon="9.168282924775818"><ele>2029.0</ele><time>2026-05-03T11:10:58.004Z</time></trkpt><trkpt lat="46.48670807971546" lon="9.16820400904613"><ele>2026.0</ele><time>2026-05-03T11:10:59.004Z</time></trkpt><trkpt lat="46.48661888101626" lon="9.168215473640274"><ele>2023.0</ele><time>2026-05-03T11:11:00.004Z</time></trkpt><trkpt lat="46.486546898996735" lon="9.168311998126946"><ele>2020.0</ele><time>2026-05-03T11:11:01.004Z</time></trkpt><trkpt lat="46.486484284510766" lon="9.168465270867358"><ele>2020.0</ele><time>2026-05-03T11:11:02.004Z</time></trkpt><trkpt lat="46.4864316799826" lon="9.168638605506894"><ele>2020.0</ele><time>2026-05-03T11:11:03.004Z</time></trkpt><trkpt lat="46.48639012825247" lon="9.168819921402878"><ele>2020.0</ele><time>2026-05-03T11:11:04.004Z</time></trkpt><trkpt lat="46.48637316379073" lon="9.1689982773239"><ele>2020.0</ele><time>2026-05-03T11:11:05.004Z</time></trkpt><trkpt lat="46.48638200134037" lon="9.16917445499065"><ele>2020.0</ele><time>2026-05-03T11:11:06.004Z</time></trkpt><trkpt lat="46.486419801976815" lon="9.169341283786853"><ele>2020.0</ele><time>2026-05-03T11:11:07.004Z</time></trkpt><trkpt lat="46.48644518102036" lon="9.169516353036894"><ele>2020.0</ele><time>2026-05-03T11:11:08.004Z</time></trkpt><trkpt lat="46.48641956785473" lon="9.169704296159907"><ele>2020.0</ele><time>2026-05-03T11:11:09.004Z</time></trkpt><trkpt lat="46.486401467761375" lon="9.169889952558949"><ele>2020.0</ele><time>2026-05-03T11:11:10.004Z</time></trkpt><trkpt lat="46.48634970913406" lon="9.170040117691354"><ele>2020.0</ele><time>2026-05-03T11:11:11.004Z</time></trkpt><trkpt lat="46.48628234360899" lon="9.170177172542925"><ele>2020.0</ele><time>2026-05-03T11:11:12.004Z</time></trkpt><trkpt lat="46.48620770907208" lon="9.170310958795278"><ele>2020.0</ele><time>2026-05-03T11:11:13.004Z</time></trkpt><trkpt lat="46.486121971520525" lon="9.170457692471903"><ele>2019.25</ele><time>2026-05-03T11:11:14.004Z</time></trkpt><trkpt lat="46.48602479826996" lon="9.170589526855277"><ele>2018.5</ele><time>2026-05-03T11:11:15.004Z</time></trkpt><trkpt lat="46.48591128200616" lon="9.170713794654432"><ele>2017.75</ele><time>2026-05-03T11:11:16.004Z</time></trkpt><trkpt lat="46.485806143634015" lon="9.170827993552276"><ele>2017.0</ele><time>2026-05-03T11:11:17.004Z</time></trkpt><trkpt lat="46.48571650191305" lon="9.170925360541519"><ele>2015.3999999999999</ele><time>2026-05-03T11:11:18.004Z</time></trkpt><trkpt lat="46.485638635720996" lon="9.171011991207623"><ele>2013.7999999999997</ele><time>2026-05-03T11:11:19.004Z</time></trkpt><trkpt lat="46.48557825823772" lon="9.171088154681485"><ele>2012.2</ele><time>2026-05-03T11:11:20.004Z</time></trkpt><trkpt lat="46.48552053763007" lon="9.171148458610903"><ele>2010.6</ele><time>2026-05-03T11:11:21.004Z</time></trkpt><trkpt lat="46.485428172662445" lon="9.171056299095973"><ele>2009.0</ele><time>2026-05-03T11:11:23.004Z</time></trkpt><trkpt lat="46.48539958932176" lon="9.170925697087139"><ele>2006.2</ele><time>2026-05-03T11:11:24.004Z</time></trkpt><trkpt lat="46.485364520805604" lon="9.170767146061236"><ele>2003.4</ele><time>2026-05-03T11:11:25.004Z</time></trkpt><trkpt lat="46.485317135749675" lon="9.170608080094219"><ele>2000.6</ele><time>2026-05-03T11:11:26.004Z</time></trkpt><trkpt lat="46.485265860531925" lon="9.170485128804065"><ele>1997.8</ele><time>2026-05-03T11:11:27.004Z</time></trkpt><trkpt lat="46.48521527481152" lon="9.17040484182805"><ele>1995.0</ele><time>2026-05-03T11:11:28.004Z</time></trkpt><trkpt lat="46.48515278715381" lon="9.170370739801406"><ele>1995.0</ele><time>2026-05-03T11:11:29.004Z</time></trkpt><trkpt lat="46.48509617611672" lon="9.170416067645164"><ele>1995.0</ele><time>2026-05-03T11:11:30.004Z</time></trkpt><trkpt lat="46.48506341957925" lon="9.17049579779561"><ele>1995.0</ele><time>2026-05-03T11:11:31.004Z</time></trkpt><trkpt lat="46.485105869474594" lon="9.170641622748521"><ele>1995.0</ele><time>2026-05-03T11:11:32.004Z</time></trkpt><trkpt lat="46.48516800562693" lon="9.170786159433932"><ele>1995.0</ele><time>2026-05-03T11:11:33.004Z</time></trkpt><trkpt lat="46.485226102639565" lon="9.170961886525825"><ele>1994.6</ele><time>2026-05-03T11:11:34.004Z</time></trkpt><trkpt lat="46.48527676129835" lon="9.171106743333603"><ele>1994.2</ele><time>2026-05-03T11:11:35.004Z</time></trkpt><trkpt lat="46.48531587245756" lon="9.171240471011387"><ele>1993.8000000000002</ele><time>2026-05-03T11:11:36.004Z</time></trkpt><trkpt lat="46.485355572902535" lon="9.171355191469647"><ele>1993.4</ele><time>2026-05-03T11:11:37.004Z</time></trkpt><trkpt lat="46.485394368173694" lon="9.171438074731514"><ele>1993.0</ele><time>2026-05-03T11:11:38.004Z</time></trkpt><trkpt lat="46.48541333591137" lon="9.171562580749406"><ele>1993.0</ele><time>2026-05-03T11:11:40.004Z</time></trkpt><trkpt lat="46.48530485190025" lon="9.171509550292797"><ele>1993.0</ele><time>2026-05-03T11:11:42.004Z</time></trkpt><trkpt lat="46.485254630655305" lon="9.171365468886224"><ele>1993.0</ele><time>2026-05-03T11:11:43.004Z</time></trkpt><trkpt lat="46.485186683827116" lon="9.171221391713585"><ele>1993.0</ele><time>2026-05-03T11:11:44.004Z</time></trkpt><trkpt lat="46.485109376982166" lon="9.171077868410276"><ele>1993.0</ele><time>2026-05-03T11:11:45.004Z</time></trkpt><trkpt lat="46.48503570688475" lon="9.170954232106768"><ele>1993.0000000000002</ele><time>2026-05-03T11:11:46.004Z</time></trkpt><trkpt lat="46.48497432380597" lon="9.170843637889925"><ele>1993.0000000000002</ele><time>2026-05-03T11:11:47.004Z</time></trkpt><trkpt lat="46.48492601344763" lon="9.170761761798873"><ele>1993.0</ele><time>2026-05-03T11:11:48.004Z</time></trkpt><trkpt lat="46.4848017739223" lon="9.170733353679815"><ele>1993.0</ele><time>2026-05-03T11:11:50.004Z</time></trkpt><trkpt lat="46.48475181473214" lon="9.17081009237203"><ele>1993.0</ele><time>2026-05-03T11:11:51.004Z</time></trkpt><trkpt lat="46.4847688755848" lon="9.170962483373891"><ele>1993.0</ele><time>2026-05-03T11:11:52.004Z</time></trkpt><trkpt lat="46.48480212769052" lon="9.171115885244186"><ele>1993.0</ele><time>2026-05-03T11:11:53.004Z</time></trkpt><trkpt lat="46.48484309392865" lon="9.171284954698299"><ele>1993.0</ele><time>2026-05-03T11:11:54.004Z</time></trkpt><trkpt lat="46.48486214156993" lon="9.17146946402273"><ele>1991.5</ele><time>2026-05-03T11:11:55.004Z</time></trkpt><trkpt lat="46.48482397383536" lon="9.171653475278623"><ele>1990.0</ele><time>2026-05-03T11:11:56.004Z</time></trkpt><trkpt lat="46.48478742228606" lon="9.171846836845047"><ele>1988.5</ele><time>2026-05-03T11:11:57.004Z</time></trkpt><trkpt lat="46.484763418354824" lon="9.172066542467558"><ele>1987.0</ele><time>2026-05-03T11:11:58.004Z</time></trkpt><trkpt lat="46.484788283153655" lon="9.172290087127397"><ele>1986.5</ele><time>2026-05-03T11:11:59.004Z</time></trkpt><trkpt lat="46.484772564293564" lon="9.172501137754017"><ele>1986.0</ele><time>2026-05-03T11:12:00.004Z</time></trkpt><trkpt lat="46.48478209039848" lon="9.172701244991911"><ele>1985.5</ele><time>2026-05-03T11:12:01.004Z</time></trkpt><trkpt lat="46.48474198814911" lon="9.172878885271654"><ele>1985.0</ele><time>2026-05-03T11:12:02.004Z</time></trkpt><trkpt lat="46.484686981640394" lon="9.173057179193474"><ele>1987.3333333333333</ele><time>2026-05-03T11:12:03.004Z</time></trkpt><trkpt lat="46.48460599216486" lon="9.173226569456869"><ele>1989.6666666666665</ele><time>2026-05-03T11:12:04.004Z</time></trkpt><trkpt lat="46.48448828700244" lon="9.173374682564003"><ele>1992.0</ele><time>2026-05-03T11:12:05.004Z</time></trkpt><trkpt lat="46.484354965518506" lon="9.173500475836287"><ele>1984.6666666666665</ele><time>2026-05-03T11:12:06.004Z</time></trkpt><trkpt lat="46.48420412892059" lon="9.17360920854913"><ele>1977.3333333333333</ele><time>2026-05-03T11:12:07.005Z</time></trkpt><trkpt lat="46.48406279551857" lon="9.173714646618704"><ele>1970.0</ele><time>2026-05-03T11:12:08.005Z</time></trkpt><trkpt lat="46.48392747680546" lon="9.17382241701537"><ele>1970.0</ele><time>2026-05-03T11:12:09.005Z</time></trkpt><trkpt lat="46.48380843099221" lon="9.173951795965003"><ele>1970.0</ele><time>2026-05-03T11:12:10.005Z</time></trkpt><trkpt lat="46.48370395735877" lon="9.174072776683685"><ele>1970.0</ele><time>2026-05-03T11:12:11.005Z</time></trkpt><trkpt lat="46.483618409763274" lon="9.174175678829076"><ele>1970.0</ele><time>2026-05-03T11:12:12.005Z</time></trkpt><trkpt lat="46.48353144074593" lon="9.1742383381197"><ele>1968.6</ele><time>2026-05-03T11:12:13.005Z</time></trkpt><trkpt lat="46.48345890218925" lon="9.174272645729205"><ele>1967.2</ele><time>2026-05-03T11:12:14.005Z</time></trkpt><trkpt lat="46.48338315431279" lon="9.174232045239217"><ele>1965.8000000000002</ele><time>2026-05-03T11:12:15.005Z</time></trkpt><trkpt lat="46.483323111204534" lon="9.174097601609756"><ele>1964.4</ele><time>2026-05-03T11:12:16.005Z</time></trkpt><trkpt lat="46.48326737195279" lon="9.173907410574683"><ele>1963.0</ele><time>2026-05-03T11:12:17.005Z</time></trkpt><trkpt lat="46.483245497648056" lon="9.173691368006008"><ele>1961.25</ele><time>2026-05-03T11:12:18.005Z</time></trkpt><trkpt lat="46.48325913724213" lon="9.173485397930818"><ele>1959.5</ele><time>2026-05-03T11:12:19.005Z</time></trkpt><trkpt lat="46.483318253860105" lon="9.173289675536584"><ele>1957.75</ele><time>2026-05-03T11:12:20.005Z</time></trkpt><trkpt lat="46.48340240218159" lon="9.17313338857407"><ele>1956.0</ele><time>2026-05-03T11:12:21.005Z</time></trkpt><trkpt lat="46.48349956200825" lon="9.173017094044342"><ele>1957.1666666666667</ele><time>2026-05-03T11:12:22.005Z</time></trkpt><trkpt lat="46.48359088650944" lon="9.172938516494794"><ele>1958.3333333333335</ele><time>2026-05-03T11:12:23.005Z</time></trkpt><trkpt lat="46.48366710563297" lon="9.172876276277583"><ele>1959.5</ele><time>2026-05-03T11:12:24.005Z</time></trkpt><trkpt lat="46.48372890711128" lon="9.172812614698746"><ele>1960.6666666666667</ele><time>2026-05-03T11:12:25.005Z</time></trkpt><trkpt lat="46.48376551115523" lon="9.172729605158487"><ele>1961.8333333333335</ele><time>2026-05-03T11:12:26.005Z</time></trkpt><trkpt lat="46.483744832550066" lon="9.172636795233117"><ele>1963.0</ele><time>2026-05-03T11:12:27.005Z</time></trkpt><trkpt lat="46.4836797352193" lon="9.17258187373124"><ele>1960.0</ele><time>2026-05-03T11:12:28.005Z</time></trkpt><trkpt lat="46.483594706890784" lon="9.172612908762929"><ele>1957.0000000000002</ele><time>2026-05-03T11:12:29.005Z</time></trkpt><trkpt lat="46.48351295001626" lon="9.172703426423316"><ele>1954.0000000000002</ele><time>2026-05-03T11:12:30.005Z</time></trkpt><trkpt lat="46.48342491091177" lon="9.172835702436927"><ele>1951.0</ele><time>2026-05-03T11:12:31.005Z</time></trkpt><trkpt lat="46.48330815979741" lon="9.172926131373753"><ele>1948.0</ele><time>2026-05-03T11:12:32.005Z</time></trkpt><trkpt lat="46.483184576510034" lon="9.173016455003047"><ele>1948.0</ele><time>2026-05-03T11:12:33.005Z</time></trkpt><trkpt lat="46.483070662311604" lon="9.173098946928278"><ele>1948.0</ele><time>2026-05-03T11:12:34.005Z</time></trkpt><trkpt lat="46.4829588321398" lon="9.173179533345156"><ele>1948.0</ele><time>2026-05-03T11:12:35.005Z</time></trkpt><trkpt lat="46.48285572997683" lon="9.17327235533858"><ele>1948.0</ele><time>2026-05-03T11:12:36.005Z</time></trkpt><trkpt lat="46.482778754362215" lon="9.173407483510134"><ele>1947.0</ele><time>2026-05-03T11:12:37.005Z</time></trkpt><trkpt lat="46.48272010376" lon="9.173573826815469"><ele>1946.0</ele><time>2026-05-03T11:12:38.005Z</time></trkpt><trkpt lat="46.48266148376777" lon="9.173766666384628"><ele>1945.0</ele><time>2026-05-03T11:12:39.005Z</time></trkpt><trkpt lat="46.48260098860667" lon="9.173949983527294"><ele>1944.0</ele><time>2026-05-03T11:12:40.005Z</time></trkpt><trkpt lat="46.48254679452017" lon="9.174114356361311"><ele>1944.0</ele><time>2026-05-03T11:12:41.005Z</time></trkpt><trkpt lat="46.48248019415369" lon="9.174244155490424"><ele>1944.0</ele><time>2026-05-03T11:12:42.005Z</time></trkpt><trkpt lat="46.48241911153374" lon="9.174349973842084"><ele>1944.0</ele><time>2026-05-03T11:12:43.005Z</time></trkpt><trkpt lat="46.48235679143993" lon="9.174420263555845"><ele>1944.0</ele><time>2026-05-03T11:12:44.005Z</time></trkpt><trkpt lat="46.48228387031201" lon="9.174437928817605"><ele>1944.0</ele><time>2026-05-03T11:12:45.005Z</time></trkpt><trkpt lat="46.482234007606806" lon="9.1743750007471"><ele>1944.0</ele><time>2026-05-03T11:12:46.005Z</time></trkpt><trkpt lat="46.48221910615382" lon="9.174267948592442"><ele>1944.0</ele><time>2026-05-03T11:12:47.005Z</time></trkpt><trkpt lat="46.48224917049027" lon="9.174136175913372"><ele>1944.0</ele><time>2026-05-03T11:12:48.005Z</time></trkpt><trkpt lat="46.4822763303058" lon="9.173973496878412"><ele>1944.0</ele><time>2026-05-03T11:12:49.005Z</time></trkpt><trkpt lat="46.48230169708885" lon="9.1737671936575"><ele>1944.0</ele><time>2026-05-03T11:12:50.005Z</time></trkpt><trkpt lat="46.482329032081395" lon="9.173552297521958"><ele>1943.0</ele><time>2026-05-03T11:12:51.005Z</time></trkpt><trkpt lat="46.48235989982549" lon="9.17332861840534"><ele>1942.0</ele><time>2026-05-03T11:12:52.005Z</time></trkpt><trkpt lat="46.482391987883084" lon="9.173091034558436"><ele>1941.0</ele><time>2026-05-03T11:12:53.005Z</time></trkpt><trkpt lat="46.482422727406494" lon="9.17286891886158"><ele>1939.4</ele><time>2026-05-03T11:12:54.005Z</time></trkpt><trkpt lat="46.482451795386055" lon="9.17268413608643"><ele>1937.8</ele><time>2026-05-03T11:12:55.005Z</time></trkpt><trkpt lat="46.48247483767716" lon="9.172539861241773"><ele>1936.2000000000003</ele><time>2026-05-03T11:12:56.005Z</time></trkpt><trkpt lat="46.48249231092042" lon="9.172419441901132"><ele>1934.6000000000001</ele><time>2026-05-03T11:12:57.005Z</time></trkpt><trkpt lat="46.48248672277156" lon="9.172326459651645"><ele>1933.0</ele><time>2026-05-03T11:12:58.005Z</time></trkpt><trkpt lat="46.482360298235356" lon="9.172249794289506"><ele>1933.0</ele><time>2026-05-03T11:13:00.005Z</time></trkpt><trkpt lat="46.48227287110982" lon="9.172334637921642"><ele>1933.0000000000002</ele><time>2026-05-03T11:13:01.005Z</time></trkpt><trkpt lat="46.482187482375785" lon="9.172413003040623"><ele>1933.0000000000002</ele><time>2026-05-03T11:13:02.005Z</time></trkpt><trkpt lat="46.482085793412466" lon="9.172436313328095"><ele>1933.0</ele><time>2026-05-03T11:13:03.005Z</time></trkpt><trkpt lat="46.48199506294175" lon="9.172489940864118"><ele>1933.0</ele><time>2026-05-03T11:13:04.005Z</time></trkpt><trkpt lat="46.48190666625125" lon="9.172546655635237"><ele>1930.6666666666667</ele><time>2026-05-03T11:13:05.005Z</time></trkpt><trkpt lat="46.481824129206124" lon="9.172535971927188"><ele>1928.3333333333335</ele><time>2026-05-03T11:13:06.005Z</time></trkpt><trkpt lat="46.48175141339454" lon="9.172490141060944"><ele>1926.0</ele><time>2026-05-03T11:13:07.005Z</time></trkpt><trkpt lat="46.481706337990275" lon="9.17240606347097"><ele>1923.6666666666665</ele><time>2026-05-03T11:13:08.005Z</time></trkpt><trkpt lat="46.48171294009861" lon="9.172300738593217"><ele>1921.3333333333333</ele><time>2026-05-03T11:13:09.005Z</time></trkpt><trkpt lat="46.481779871387666" lon="9.172197215007373"><ele>1919.0</ele><time>2026-05-03T11:13:10.005Z</time></trkpt><trkpt lat="46.481869184343374" lon="9.172086055731224"><ele>1919.5</ele><time>2026-05-03T11:13:11.005Z</time></trkpt><trkpt lat="46.481955488212456" lon="9.171960832830989"><ele>1920.0</ele><time>2026-05-03T11:13:12.005Z</time></trkpt><trkpt lat="46.48206945718143" lon="9.171841646544742"><ele>1920.5</ele><time>2026-05-03T11:13:13.005Z</time></trkpt><trkpt lat="46.48219829120227" lon="9.171752924144156"><ele>1921.0</ele><time>2026-05-03T11:13:14.005Z</time></trkpt><trkpt lat="46.48232205075812" lon="9.171649077254912"><ele>1917.3333333333335</ele><time>2026-05-03T11:13:15.005Z</time></trkpt><trkpt lat="46.482437733830075" lon="9.171507352861592"><ele>1913.6666666666665</ele><time>2026-05-03T11:13:16.005Z</time></trkpt><trkpt lat="46.48253638576211" lon="9.171341516425107"><ele>1910.0</ele><time>2026-05-03T11:13:17.005Z</time></trkpt><trkpt lat="46.482620491438176" lon="9.171152961323896"><ele>1910.0</ele><time>2026-05-03T11:13:18.005Z</time></trkpt><trkpt lat="46.48269329309141" lon="9.170963130200743"><ele>1910.0</ele><time>2026-05-03T11:13:19.005Z</time></trkpt><trkpt lat="46.48277141374635" lon="9.170782752902904"><ele>1910.0</ele><time>2026-05-03T11:13:20.005Z</time></trkpt><trkpt lat="46.482855112435026" lon="9.170622654092828"><ele>1910.0</ele><time>2026-05-03T11:13:21.005Z</time></trkpt><trkpt lat="46.482945927379845" lon="9.170490293004951"><ele>1912.0</ele><time>2026-05-03T11:13:22.005Z</time></trkpt><trkpt lat="46.483039960273636" lon="9.17034399610892"><ele>1914.0</ele><time>2026-05-03T11:13:23.005Z</time></trkpt><trkpt lat="46.483119542371725" lon="9.17021760617705"><ele>1916.0</ele><time>2026-05-03T11:13:24.005Z</time></trkpt><trkpt lat="46.48319173056854" lon="9.170100002914106"><ele>1918.0</ele><time>2026-05-03T11:13:25.005Z</time></trkpt><trkpt lat="46.483247762655154" lon="9.170010607756272"><ele>1920.0</ele><time>2026-05-03T11:13:26.005Z</time></trkpt><trkpt lat="46.48328480196575" lon="9.169852701321751"><ele>1920.0</ele><time>2026-05-03T11:13:28.005Z</time></trkpt><trkpt lat="46.483236852815935" lon="9.169780350361052"><ele>1920.0</ele><time>2026-05-03T11:13:29.005Z</time></trkpt><trkpt lat="46.483158215780854" lon="9.169771009884409"><ele>1920.0</ele><time>2026-05-03T11:13:30.005Z</time></trkpt><trkpt lat="46.48306681853593" lon="9.169822028428527"><ele>1920.0</ele><time>2026-05-03T11:13:31.005Z</time></trkpt><trkpt lat="46.48300092541827" lon="9.169990237282885"><ele>1920.0</ele><time>2026-05-03T11:13:32.005Z</time></trkpt><trkpt lat="46.48291661408001" lon="9.170179057254668"><ele>1913.0</ele><time>2026-05-03T11:13:33.005Z</time></trkpt><trkpt lat="46.48280891056841" lon="9.170320372114713"><ele>1906.0</ele><time>2026-05-03T11:13:34.005Z</time></trkpt><trkpt lat="46.48270110938224" lon="9.170467543447797"><ele>1899.0</ele><time>2026-05-03T11:13:35.005Z</time></trkpt><trkpt lat="46.48257942626826" lon="9.170627034413418"><ele>1902.6666666666665</ele><time>2026-05-03T11:13:36.005Z</time></trkpt><trkpt lat="46.482451682406165" lon="9.170783362887546"><ele>1906.3333333333333</ele><time>2026-05-03T11:13:37.005Z</time></trkpt><trkpt lat="46.48230345255131" lon="9.17092176765337"><ele>1910.0</ele><time>2026-05-03T11:13:38.005Z</time></trkpt><trkpt lat="46.48215477352535" lon="9.171053227869908"><ele>1904.0</ele><time>2026-05-03T11:13:39.005Z</time></trkpt><trkpt lat="46.482009502922" lon="9.171183899943761"><ele>1898.0</ele><time>2026-05-03T11:13:40.005Z</time></trkpt><trkpt lat="46.48186521590767" lon="9.17131440773198"><ele>1892.0</ele><time>2026-05-03T11:13:41.005Z</time></trkpt><trkpt lat="46.481731103954765" lon="9.171435712682301"><ele>1896.6666666666665</ele><time>2026-05-03T11:13:42.005Z</time></trkpt><trkpt lat="46.48160862053634" lon="9.171545466121067"><ele>1901.3333333333335</ele><time>2026-05-03T11:13:43.005Z</time></trkpt><trkpt lat="46.48148180457371" lon="9.171656198977225"><ele>1906.0</ele><time>2026-05-03T11:13:44.005Z</time></trkpt><trkpt lat="46.48135620911853" lon="9.171795431114635"><ele>1901.3333333333335</ele><time>2026-05-03T11:13:45.005Z</time></trkpt><trkpt lat="46.48121697663047" lon="9.171919186935806"><ele>1896.6666666666665</ele><time>2026-05-03T11:13:46.005Z</time></trkpt><trkpt lat="46.48106858301104" lon="9.172043010687522"><ele>1892.0</ele><time>2026-05-03T11:13:47.005Z</time></trkpt><trkpt lat="46.480902936711765" lon="9.172136931687115"><ele>1892.0</ele><time>2026-05-03T11:13:48.005Z</time></trkpt><trkpt lat="46.48074294787271" lon="9.172238962432738"><ele>1892.0</ele><time>2026-05-03T11:13:49.005Z</time></trkpt><trkpt lat="46.480583986009925" lon="9.172340160715937"><ele>1892.0</ele><time>2026-05-03T11:13:50.005Z</time></trkpt><trkpt lat="46.48042706707824" lon="9.172461482825108"><ele>1891.3333333333333</ele><time>2026-05-03T11:13:51.005Z</time></trkpt><trkpt lat="46.48026416616602" lon="9.172543439714438"><ele>1890.6666666666665</ele><time>2026-05-03T11:13:52.005Z</time></trkpt><trkpt lat="46.48011476073985" lon="9.172635437027951"><ele>1890.0</ele><time>2026-05-03T11:13:53.005Z</time></trkpt><trkpt lat="46.47997125392913" lon="9.17273686226925"><ele>1890.0</ele><time>2026-05-03T11:13:54.005Z</time></trkpt><trkpt lat="46.47983390138042" lon="9.172854411698998"><ele>1890.0</ele><time>2026-05-03T11:13:55.005Z</time></trkpt><trkpt lat="46.479704077927785" lon="9.173006204694206"><ele>1890.0</ele><time>2026-05-03T11:13:56.005Z</time></trkpt><trkpt lat="46.479567021477806" lon="9.173177243324652"><ele>1888.3333333333335</ele><time>2026-05-03T11:13:57.005Z</time></trkpt><trkpt lat="46.479419112517505" lon="9.173356996434027"><ele>1886.6666666666667</ele><time>2026-05-03T11:13:58.005Z</time></trkpt><trkpt lat="46.47926616054614" lon="9.17354287804137"><ele>1885.0</ele><time>2026-05-03T11:13:59.006Z</time></trkpt><trkpt lat="46.47911379866759" lon="9.17372944427806"><ele>1885.0</ele><time>2026-05-03T11:14:00.006Z</time></trkpt><trkpt lat="46.478961754906734" lon="9.173916730748674"><ele>1885.0</ele><time>2026-05-03T11:14:01.006Z</time></trkpt><trkpt lat="46.478822186439906" lon="9.174090455827624"><ele>1885.0</ele><time>2026-05-03T11:14:02.006Z</time></trkpt><trkpt lat="46.47868514953779" lon="9.17426102983345"><ele>1880.6666666666667</ele><time>2026-05-03T11:14:03.006Z</time></trkpt><trkpt lat="46.47854744827421" lon="9.174432430745293"><ele>1876.3333333333335</ele><time>2026-05-03T11:14:04.006Z</time></trkpt><trkpt lat="46.47840770531765" lon="9.174606373225705"><ele>1872.0</ele><time>2026-05-03T11:14:05.006Z</time></trkpt><trkpt lat="46.47826932852328" lon="9.174778732430788"><ele>1875.0</ele><time>2026-05-03T11:14:06.006Z</time></trkpt><trkpt lat="46.47813267102834" lon="9.174950443668509"><ele>1878.0</ele><time>2026-05-03T11:14:07.006Z</time></trkpt><trkpt lat="46.477993234603126" lon="9.1751256467808"><ele>1881.0</ele><time>2026-05-03T11:14:08.006Z</time></trkpt><trkpt lat="46.477849058776265" lon="9.175306805009813"><ele>1875.0</ele><time>2026-05-03T11:14:09.006Z</time></trkpt><trkpt lat="46.477696657285996" lon="9.17549829848023"><ele>1869.0</ele><time>2026-05-03T11:14:10.006Z</time></trkpt><trkpt lat="46.47754067934814" lon="9.175689048053163"><ele>1863.0</ele><time>2026-05-03T11:14:11.006Z</time></trkpt><trkpt lat="46.47739597259403" lon="9.175865285595927"><ele>1863.0</ele><time>2026-05-03T11:14:12.006Z</time></trkpt><trkpt lat="46.47726517199145" lon="9.176032689734956"><ele>1863.0</ele><time>2026-05-03T11:14:13.006Z</time></trkpt><trkpt lat="46.47714307968438" lon="9.17618896058207"><ele>1863.0</ele><time>2026-05-03T11:14:14.006Z</time></trkpt><trkpt lat="46.477038033369496" lon="9.176318903496941"><ele>1857.5</ele><time>2026-05-03T11:14:15.006Z</time></trkpt><trkpt lat="46.47695242474335" lon="9.176428935253595"><ele>1852.0</ele><time>2026-05-03T11:14:16.006Z</time></trkpt><trkpt lat="46.47688630513136" lon="9.17655631830905"><ele>1846.5</ele><time>2026-05-03T11:14:17.006Z</time></trkpt><trkpt lat="46.47684039579576" lon="9.176712183854365"><ele>1841.0</ele><time>2026-05-03T11:14:18.006Z</time></trkpt><trkpt lat="46.47685492410329" lon="9.176908664886627"><ele>1841.0</ele><time>2026-05-03T11:14:19.006Z</time></trkpt><trkpt lat="46.476877554919774" lon="9.177118765941724"><ele>1841.0</ele><time>2026-05-03T11:14:20.006Z</time></trkpt><trkpt lat="46.47690538444475" lon="9.177355454832167"><ele>1841.0</ele><time>2026-05-03T11:14:21.006Z</time></trkpt><trkpt lat="46.47694221021977" lon="9.177553227709303"><ele>1841.3333333333333</ele><time>2026-05-03T11:14:22.006Z</time></trkpt><trkpt lat="46.476956821839444" lon="9.177708935857956"><ele>1841.6666666666665</ele><time>2026-05-03T11:14:23.006Z</time></trkpt><trkpt lat="46.47697121270701" lon="9.177812204571651"><ele>1842.0</ele><time>2026-05-03T11:14:24.006Z</time></trkpt><trkpt lat="46.476957900574995" lon="9.177967907504538"><ele>1842.3333333333335</ele><time>2026-05-03T11:14:26.006Z</time></trkpt><trkpt lat="46.47689843734079" lon="9.17800687563952"><ele>1842.6666666666667</ele><time>2026-05-03T11:14:27.006Z</time></trkpt><trkpt lat="46.476838565718275" lon="9.177941018121922"><ele>1843.0</ele><time>2026-05-03T11:14:28.006Z</time></trkpt><trkpt lat="46.47680226575922" lon="9.177804530107514"><ele>1843.0</ele><time>2026-05-03T11:14:29.006Z</time></trkpt><trkpt lat="46.47671585449802" lon="9.17763618068455"><ele>1843.0</ele><time>2026-05-03T11:14:30.006Z</time></trkpt><trkpt lat="46.4766505762309" lon="9.177436484771981"><ele>1843.0</ele><time>2026-05-03T11:14:31.006Z</time></trkpt><trkpt lat="46.476583253785535" lon="9.177255554724363"><ele>1843.0</ele><time>2026-05-03T11:14:32.006Z</time></trkpt><trkpt lat="46.47653540358321" lon="9.177118648948543"><ele>1843.0000000000002</ele><time>2026-05-03T11:14:33.006Z</time></trkpt><trkpt lat="46.47649640649812" lon="9.177041474564026"><ele>1843.0</ele><time>2026-05-03T11:14:34.006Z</time></trkpt><trkpt lat="46.476433472193044" lon="9.177019486191767"><ele>1843.0</ele><time>2026-05-03T11:14:35.006Z</time></trkpt><trkpt lat="46.47637233881012" lon="9.177054811975818"><ele>1843.0</ele><time>2026-05-03T11:14:36.006Z</time></trkpt><trkpt lat="46.47633032323181" lon="9.177145718942382"><ele>1843.0000000000002</ele><time>2026-05-03T11:14:37.006Z</time></trkpt><trkpt lat="46.476348762227886" lon="9.177309400250921"><ele>1843.0</ele><time>2026-05-03T11:14:38.006Z</time></trkpt><trkpt lat="46.476435644788815" lon="9.17748279319416"><ele>1843.0</ele><time>2026-05-03T11:14:39.006Z</time></trkpt><trkpt lat="46.47648512448572" lon="9.177681042251917"><ele>1843.0</ele><time>2026-05-03T11:14:40.006Z</time></trkpt><trkpt lat="46.47651999845535" lon="9.177878702565177"><ele>1843.0</ele><time>2026-05-03T11:14:41.006Z</time></trkpt><trkpt lat="46.476501647145255" lon="9.178075639461884"><ele>1843.0</ele><time>2026-05-03T11:14:42.006Z</time></trkpt><trkpt lat="46.47643358567753" lon="9.178271664932295"><ele>1844.3333333333335</ele><time>2026-05-03T11:14:43.006Z</time></trkpt><trkpt lat="46.476353771471594" lon="9.178505030094296"><ele>1845.6666666666665</ele><time>2026-05-03T11:14:44.006Z</time></trkpt><trkpt lat="46.47627549673191" lon="9.178763588410042"><ele>1847.0</ele><time>2026-05-03T11:14:45.006Z</time></trkpt><trkpt lat="46.476185874875405" lon="9.17898806462396"><ele>1838.3333333333333</ele><time>2026-05-03T11:14:46.006Z</time></trkpt><trkpt lat="46.47610245547816" lon="9.179202928582818"><ele>1829.6666666666665</ele><time>2026-05-03T11:14:47.006Z</time></trkpt><trkpt lat="46.47603036468644" lon="9.179401663143517"><ele>1821.0</ele><time>2026-05-03T11:14:48.006Z</time></trkpt><trkpt lat="46.47596799245426" lon="9.179589561141999"><ele>1821.0</ele><time>2026-05-03T11:14:49.006Z</time></trkpt><trkpt lat="46.47593669880057" lon="9.179774865993213"><ele>1821.0</ele><time>2026-05-03T11:14:50.006Z</time></trkpt><trkpt lat="46.47594732559505" lon="9.179962939779017"><ele>1821.0</ele><time>2026-05-03T11:14:51.006Z</time></trkpt><trkpt lat="46.47599413210562" lon="9.18016996145346"><ele>1821.0</ele><time>2026-05-03T11:14:52.006Z</time></trkpt><trkpt lat="46.47597674816863" lon="9.180373237086084"><ele>1822.6666666666665</ele><time>2026-05-03T11:14:53.006Z</time></trkpt><trkpt lat="46.475904499738895" lon="9.18051840258434"><ele>1824.3333333333333</ele><time>2026-05-03T11:14:54.006Z</time></trkpt><trkpt lat="46.475791832451456" lon="9.18067864324515"><ele>1826.0</ele><time>2026-05-03T11:14:55.006Z</time></trkpt><trkpt lat="46.47566052540036" lon="9.180871542589841"><ele>1828.0</ele><time>2026-05-03T11:14:56.006Z</time></trkpt><trkpt lat="46.47553226806436" lon="9.181042692581437"><ele>1830.0</ele><time>2026-05-03T11:14:57.006Z</time></trkpt><trkpt lat="46.475391235827274" lon="9.181155539811217"><ele>1832.0</ele><time>2026-05-03T11:14:58.006Z</time></trkpt><trkpt lat="46.47524604642959" lon="9.181234101042548"><ele>1827.25</ele><time>2026-05-03T11:14:59.006Z</time></trkpt><trkpt lat="46.47510637152465" lon="9.181289777163332"><ele>1822.5</ele><time>2026-05-03T11:15:00.006Z</time></trkpt><trkpt lat="46.47497261306742" lon="9.181289862307949"><ele>1817.75</ele><time>2026-05-03T11:15:01.006Z</time></trkpt><trkpt lat="46.47484512098446" lon="9.181240757328899"><ele>1813.0</ele><time>2026-05-03T11:15:02.006Z</time></trkpt><trkpt lat="46.47470617642449" lon="9.1811500080502"><ele>1808.0</ele><time>2026-05-03T11:15:03.006Z</time></trkpt><trkpt lat="46.474569877471716" lon="9.181054924910256"><ele>1803.0</ele><time>2026-05-03T11:15:04.006Z</time></trkpt><trkpt lat="46.47444933016469" lon="9.180987212192198"><ele>1798.0</ele><time>2026-05-03T11:15:05.006Z</time></trkpt><trkpt lat="46.47436280158247" lon="9.180920139586506"><ele>1793.0</ele><time>2026-05-03T11:15:06.006Z</time></trkpt><trkpt lat="46.474259711481956" lon="9.180964208607449"><ele>1793.0</ele><time>2026-05-03T11:15:08.006Z</time></trkpt><trkpt lat="46.47421856882335" lon="9.181047150698335"><ele>1793.0</ele><time>2026-05-03T11:15:09.006Z</time></trkpt><trkpt lat="46.47426660170508" lon="9.181210275829063"><ele>1793.0</ele><time>2026-05-03T11:15:10.006Z</time></trkpt><trkpt lat="46.47433517573243" lon="9.181366912207613"><ele>1793.0</ele><time>2026-05-03T11:15:11.006Z</time></trkpt><trkpt lat="46.4744354694772" lon="9.181523357765823"><ele>1793.1666666666665</ele><time>2026-05-03T11:15:12.006Z</time></trkpt><trkpt lat="46.47451477516923" lon="9.181649334587515"><ele>1793.3333333333333</ele><time>2026-05-03T11:15:13.006Z</time></trkpt><trkpt lat="46.47456057222145" lon="9.18174637254511"><ele>1793.5</ele><time>2026-05-03T11:15:14.006Z</time></trkpt><trkpt lat="46.47455592410646" lon="9.181842662760532"><ele>1793.6666666666665</ele><time>2026-05-03T11:15:15.006Z</time></trkpt><trkpt lat="46.47449237802615" lon="9.181906865965527"><ele>1793.8333333333333</ele><time>2026-05-03T11:15:16.006Z</time></trkpt><trkpt lat="46.474402500537" lon="9.181907804979556"><ele>1794.0</ele><time>2026-05-03T11:15:17.006Z</time></trkpt><trkpt lat="46.47432939242088" lon="9.181761333172677"><ele>1794.0</ele><time>2026-05-03T11:15:18.006Z</time></trkpt><trkpt lat="46.47422659829248" lon="9.181724571290577"><ele>1794.0</ele><time>2026-05-03T11:15:19.006Z</time></trkpt><trkpt lat="46.47412258925742" lon="9.181697234199348"><ele>1794.0</ele><time>2026-05-03T11:15:20.006Z</time></trkpt><trkpt lat="46.47403489125467" lon="9.181763156952348"><ele>1794.0</ele><time>2026-05-03T11:15:21.006Z</time></trkpt><trkpt lat="46.47396878480083" lon="9.181888532670278"><ele>1794.0</ele><time>2026-05-03T11:15:22.006Z</time></trkpt><trkpt lat="46.47395128390602" lon="9.182054308612122"><ele>1794.0</ele><time>2026-05-03T11:15:23.006Z</time></trkpt><trkpt lat="46.473976512319226" lon="9.182225548369074"><ele>1794.0</ele><time>2026-05-03T11:15:24.006Z</time></trkpt><trkpt lat="46.47403126041506" lon="9.182405537849847"><ele>1794.0</ele><time>2026-05-03T11:15:25.006Z</time></trkpt><trkpt lat="46.474071002494455" lon="9.18257530748114"><ele>1794.0</ele><time>2026-05-03T11:15:26.006Z</time></trkpt><trkpt lat="46.474071493064145" lon="9.182705438213507"><ele>1794.4</ele><time>2026-05-03T11:15:27.006Z</time></trkpt><trkpt lat="46.47402620941304" lon="9.182804370372512"><ele>1794.8000000000002</ele><time>2026-05-03T11:15:28.006Z</time></trkpt><trkpt lat="46.47393823938717" lon="9.182849771197745"><ele>1795.1999999999998</ele><time>2026-05-03T11:15:29.006Z</time></trkpt><trkpt lat="46.473837254570775" lon="9.182765574272546"><ele>1795.6</ele><time>2026-05-03T11:15:30.006Z</time></trkpt><trkpt lat="46.47379656777267" lon="9.182620302516066"><ele>1796.0</ele><time>2026-05-03T11:15:31.006Z</time></trkpt><trkpt lat="46.47376742550863" lon="9.182460396594383"><ele>1787.6666666666665</ele><time>2026-05-03T11:15:32.006Z</time></trkpt><trkpt lat="46.47372233352975" lon="9.182256320344937"><ele>1779.3333333333335</ele><time>2026-05-03T11:15:33.006Z</time></trkpt><trkpt lat="46.473673155540695" lon="9.182033758668492"><ele>1771.0</ele><time>2026-05-03T11:15:34.006Z</time></trkpt><trkpt lat="46.473622702605624" lon="9.181807132124394"><ele>1771.0</ele><time>2026-05-03T11:15:35.006Z</time></trkpt><trkpt lat="46.47358260343877" lon="9.181644516425752"><ele>1771.0</ele><time>2026-05-03T11:15:36.006Z</time></trkpt><trkpt lat="46.47352979132987" lon="9.181527467494387"><ele>1771.0</ele><time>2026-05-03T11:15:37.006Z</time></trkpt><trkpt lat="46.47345685409371" lon="9.181485007066602"><ele>1771.0</ele><time>2026-05-03T11:15:38.006Z</time></trkpt><trkpt lat="46.47335888206828" lon="9.181475154610625"><ele>1771.0</ele><time>2026-05-03T11:15:39.006Z</time></trkpt><trkpt lat="46.47326635121494" lon="9.181552396841694"><ele>1771.0</ele><time>2026-05-03T11:15:40.006Z</time></trkpt><trkpt lat="46.47318571473218" lon="9.181715000050398"><ele>1771.0</ele><time>2026-05-03T11:15:41.006Z</time></trkpt><trkpt lat="46.47308259224688" lon="9.18187875000738"><ele>1771.0</ele><time>2026-05-03T11:15:42.006Z</time></trkpt><trkpt lat="46.4729763494765" lon="9.182042782244586"><ele>1771.0</ele><time>2026-05-03T11:15:43.006Z</time></trkpt><trkpt lat="46.472891007769945" lon="9.182189187722056"><ele>1766.1999999999998</ele><time>2026-05-03T11:15:44.006Z</time></trkpt><trkpt lat="46.472821998409806" lon="9.182283543107026"><ele>1761.3999999999999</ele><time>2026-05-03T11:15:45.006Z</time></trkpt><trkpt lat="46.47275070912974" lon="9.182340516716375"><ele>1756.6</ele><time>2026-05-03T11:15:46.006Z</time></trkpt><trkpt lat="46.472641130305924" lon="9.182260802995527"><ele>1751.8</ele><time>2026-05-03T11:15:48.006Z</time></trkpt><trkpt lat="46.472629332472444" lon="9.182124506447847"><ele>1747.0</ele><time>2026-05-03T11:15:49.007Z</time></trkpt><trkpt lat="46.472669843567644" lon="9.18198922754366"><ele>1747.0</ele><time>2026-05-03T11:15:50.007Z</time></trkpt><trkpt lat="46.472768232728434" lon="9.18186951369022"><ele>1747.0</ele><time>2026-05-03T11:15:51.007Z</time></trkpt><trkpt lat="46.47285823975997" lon="9.181723593945108"><ele>1747.0</ele><time>2026-05-03T11:15:52.007Z</time></trkpt><trkpt lat="46.47297392922336" lon="9.181541346385716"><ele>1747.0</ele><time>2026-05-03T11:15:53.007Z</time></trkpt><trkpt lat="46.47309838450109" lon="9.181351149809583"><ele>1752.3333333333335</ele><time>2026-05-03T11:15:54.007Z</time></trkpt><trkpt lat="46.47322171961873" lon="9.181158275839334"><ele>1757.6666666666665</ele><time>2026-05-03T11:15:55.007Z</time></trkpt><trkpt lat="46.47333407054077" lon="9.180982949468538"><ele>1763.0</ele><time>2026-05-03T11:15:56.007Z</time></trkpt><trkpt lat="46.47341449146915" lon="9.180851510735348"><ele>1763.0</ele><time>2026-05-03T11:15:57.007Z</time></trkpt><trkpt lat="46.47342916160743" lon="9.180716523936105"><ele>1763.0000000000002</ele><time>2026-05-03T11:15:58.007Z</time></trkpt><trkpt lat="46.47342023953734" lon="9.180566714644682"><ele>1763.0000000000002</ele><time>2026-05-03T11:15:59.007Z</time></trkpt><trkpt lat="46.47333573450314" lon="9.180453785464321"><ele>1763.0</ele><time>2026-05-03T11:16:00.007Z</time></trkpt><trkpt lat="46.47323066042562" lon="9.180400109159436"><ele>1763.0</ele><time>2026-05-03T11:16:01.007Z</time></trkpt><trkpt lat="46.47308384990629" lon="9.180435291631582"><ele>1761.5</ele><time>2026-05-03T11:16:02.007Z</time></trkpt><trkpt lat="46.47294691752364" lon="9.180521732748504"><ele>1760.0</ele><time>2026-05-03T11:16:03.007Z</time></trkpt><trkpt lat="46.47280363684759" lon="9.180590416282294"><ele>1758.5</ele><time>2026-05-03T11:16:04.007Z</time></trkpt><trkpt lat="46.472687302094506" lon="9.180610528239121"><ele>1757.0</ele><time>2026-05-03T11:16:05.007Z</time></trkpt><trkpt lat="46.47258733976016" lon="9.180600692744393"><ele>1755.25</ele><time>2026-05-03T11:16:06.007Z</time></trkpt><trkpt lat="46.47251630674462" lon="9.180485230214204"><ele>1753.5</ele><time>2026-05-03T11:16:07.007Z</time></trkpt><trkpt lat="46.47238961288592" lon="9.180423938523244"><ele>1751.75</ele><time>2026-05-03T11:16:08.007Z</time></trkpt><trkpt lat="46.47223774404568" lon="9.180387821930427"><ele>1750.0</ele><time>2026-05-03T11:16:09.007Z</time></trkpt><trkpt lat="46.472078931288046" lon="9.180376182615436"><ele>1749.75</ele><time>2026-05-03T11:16:10.007Z</time></trkpt><trkpt lat="46.47192422496309" lon="9.180382648564382"><ele>1749.5</ele><time>2026-05-03T11:16:11.007Z</time></trkpt><trkpt lat="46.4717972004799" lon="9.1803950392287"><ele>1749.25</ele><time>2026-05-03T11:16:12.007Z</time></trkpt><trkpt lat="46.47166888029208" lon="9.180408022768411"><ele>1749.0</ele><time>2026-05-03T11:16:13.007Z</time></trkpt><trkpt lat="46.47154786169632" lon="9.180458645784013"><ele>1749.0</ele><time>2026-05-03T11:16:14.007Z</time></trkpt><trkpt lat="46.47142928975461" lon="9.180503494000142"><ele>1749.0</ele><time>2026-05-03T11:16:15.007Z</time></trkpt><trkpt lat="46.47136555765972" lon="9.180619943355389"><ele>1749.0</ele><time>2026-05-03T11:16:16.007Z</time></trkpt><trkpt lat="46.47133247902658" lon="9.180826041887045"><ele>1749.0</ele><time>2026-05-03T11:16:17.007Z</time></trkpt><trkpt lat="46.4713427569743" lon="9.181072095928881"><ele>1749.0</ele><time>2026-05-03T11:16:18.007Z</time></trkpt><trkpt lat="46.47132004548586" lon="9.181297892132699"><ele>1749.0</ele><time>2026-05-03T11:16:19.007Z</time></trkpt><trkpt lat="46.47124681690765" lon="9.181477894417494"><ele>1749.0</ele><time>2026-05-03T11:16:20.007Z</time></trkpt><trkpt lat="46.47116993183042" lon="9.181677955561451"><ele>1747.0</ele><time>2026-05-03T11:16:21.007Z</time></trkpt><trkpt lat="46.47109938475381" lon="9.18188457489049"><ele>1745.0</ele><time>2026-05-03T11:16:22.007Z</time></trkpt><trkpt lat="46.47102359103909" lon="9.182064932520623"><ele>1743.0</ele><time>2026-05-03T11:16:23.007Z</time></trkpt><trkpt lat="46.47088911913691" lon="9.182189108136287"><ele>1743.0</ele><time>2026-05-03T11:16:24.007Z</time></trkpt><trkpt lat="46.47077008673556" lon="9.18233606993115"><ele>1743.0</ele><time>2026-05-03T11:16:25.007Z</time></trkpt><trkpt lat="46.47065967827828" lon="9.182497375771108"><ele>1743.0</ele><time>2026-05-03T11:16:26.007Z</time></trkpt><trkpt lat="46.470542993345056" lon="9.182638009601211"><ele>1741.6666666666665</ele><time>2026-05-03T11:16:27.007Z</time></trkpt><trkpt lat="46.470427617554044" lon="9.182781712305509"><ele>1740.3333333333333</ele><time>2026-05-03T11:16:28.007Z</time></trkpt><trkpt lat="46.47031490714124" lon="9.182925121779851"><ele>1739.0</ele><time>2026-05-03T11:16:29.007Z</time></trkpt><trkpt lat="46.47020211078346" lon="9.183100937465175"><ele>1735.3333333333333</ele><time>2026-05-03T11:16:30.007Z</time></trkpt><trkpt lat="46.47012809504618" lon="9.183325770214159"><ele>1731.6666666666665</ele><time>2026-05-03T11:16:31.007Z</time></trkpt><trkpt lat="46.47006753304304" lon="9.1835756361171"><ele>1728.0</ele><time>2026-05-03T11:16:32.007Z</time></trkpt><trkpt lat="46.47000875703048" lon="9.183814792576529"><ele>1726.0</ele><time>2026-05-03T11:16:33.007Z</time></trkpt><trkpt lat="46.46994553121617" lon="9.184053036437545"><ele>1724.0</ele><time>2026-05-03T11:16:34.007Z</time></trkpt><trkpt lat="46.46987555627215" lon="9.184296103922856"><ele>1722.0</ele><time>2026-05-03T11:16:35.007Z</time></trkpt><trkpt lat="46.469848742065736" lon="9.184546983793258"><ele>1722.0</ele><time>2026-05-03T11:16:36.007Z</time></trkpt><trkpt lat="46.469829964815666" lon="9.184792632756178"><ele>1722.0</ele><time>2026-05-03T11:16:37.007Z</time></trkpt><trkpt lat="46.46976536724313" lon="9.184996323625292"><ele>1722.0</ele><time>2026-05-03T11:16:38.007Z</time></trkpt><trkpt lat="46.46970373081818" lon="9.185202159624117"><ele>1721.25</ele><time>2026-05-03T11:16:39.007Z</time></trkpt><trkpt lat="46.469637612181074" lon="9.185396559867728"><ele>1720.5</ele><time>2026-05-03T11:16:40.007Z</time></trkpt><trkpt lat="46.46958934647396" lon="9.185597161696434"><ele>1719.75</ele><time>2026-05-03T11:16:41.007Z</time></trkpt><trkpt lat="46.46951499032455" lon="9.18574071219991"><ele>1719.0</ele><time>2026-05-03T11:16:42.007Z</time></trkpt><trkpt lat="46.469403773537465" lon="9.185855338313269"><ele>1719.0</ele><time>2026-05-03T11:16:43.007Z</time></trkpt><trkpt lat="46.469271525581625" lon="9.18594789508079"><ele>1719.0</ele><time>2026-05-03T11:16:44.007Z</time></trkpt><trkpt lat="46.46916294439826" lon="9.186004187315977"><ele>1719.0</ele><time>2026-05-03T11:16:45.007Z</time></trkpt><trkpt lat="46.4690781439672" lon="9.18604009324489"><ele>1719.0</ele><time>2026-05-03T11:16:46.007Z</time></trkpt><trkpt lat="46.4690026053461" lon="9.186115261631919"><ele>1719.0</ele><time>2026-05-03T11:16:47.007Z</time></trkpt><trkpt lat="46.469033800478115" lon="9.18627604614144"><ele>1719.0</ele><time>2026-05-03T11:16:49.007Z</time></trkpt><trkpt lat="46.469118384674125" lon="9.186319385093974"><ele>1719.0</ele><time>2026-05-03T11:16:50.007Z</time></trkpt><trkpt lat="46.46922911131414" lon="9.186300003347094"><ele>1719.0</ele><time>2026-05-03T11:16:51.007Z</time></trkpt><trkpt lat="46.46933334999724" lon="9.186266825735627"><ele>1719.0</ele><time>2026-05-03T11:16:52.007Z</time></trkpt><trkpt lat="46.46937229085545" lon="9.186394353868504"><ele>1719.0</ele><time>2026-05-03T11:16:54.007Z</time></trkpt><trkpt lat="46.469248991512295" lon="9.186395330173053"><ele>1719.0</ele><time>2026-05-03T11:16:56.007Z</time></trkpt><trkpt lat="46.469142763228746" lon="9.18636558730317"><ele>1719.0</ele><time>2026-05-03T11:16:57.007Z</time></trkpt><trkpt lat="46.46898955436315" lon="9.186352050696087"><ele>1719.0</ele><time>2026-05-03T11:16:58.007Z</time></trkpt><trkpt lat="46.46883116969754" lon="9.18638200335656"><ele>1719.0</ele><time>2026-05-03T11:16:59.007Z</time></trkpt><trkpt lat="46.46868153276379" lon="9.186437694862978"><ele>1719.5</ele><time>2026-05-03T11:17:00.007Z</time></trkpt><trkpt lat="46.46853681746301" lon="9.1864852969348"><ele>1720.0</ele><time>2026-05-03T11:17:01.007Z</time></trkpt><trkpt lat="46.468386930869656" lon="9.186537265736193"><ele>1720.5</ele><time>2026-05-03T11:17:02.007Z</time></trkpt><trkpt lat="46.4682517946744" lon="9.18656729766781"><ele>1721.0</ele><time>2026-05-03T11:17:03.007Z</time></trkpt><trkpt lat="46.46811380876779" lon="9.186556747001251"><ele>1715.0</ele><time>2026-05-03T11:17:04.007Z</time></trkpt><trkpt lat="46.46798084174966" lon="9.186618953580085"><ele>1709.0</ele><time>2026-05-03T11:17:05.007Z</time></trkpt><trkpt lat="46.46786138793784" lon="9.186721408129527"><ele>1703.0</ele><time>2026-05-03T11:17:06.007Z</time></trkpt><trkpt lat="46.46773486128588" lon="9.186847790140229"><ele>1697.0</ele><time>2026-05-03T11:17:07.007Z</time></trkpt><trkpt lat="46.46760967165566" lon="9.186938317057482"><ele>1697.0</ele><time>2026-05-03T11:17:08.007Z</time></trkpt><trkpt lat="46.46749519813904" lon="9.187028131148455"><ele>1697.0</ele><time>2026-05-03T11:17:09.007Z</time></trkpt><trkpt lat="46.46739023082969" lon="9.187123430165315"><ele>1697.0</ele><time>2026-05-03T11:17:10.007Z</time></trkpt><trkpt lat="46.467280698254584" lon="9.187186982229205"><ele>1697.0</ele><time>2026-05-03T11:17:11.007Z</time></trkpt><trkpt lat="46.46716929542434" lon="9.187239358577104"><ele>1694.25</ele><time>2026-05-03T11:17:12.007Z</time></trkpt><trkpt lat="46.467050981573244" lon="9.187304210316075"><ele>1691.5</ele><time>2026-05-03T11:17:13.007Z</time></trkpt><trkpt lat="46.46693345527905" lon="9.187370964372674"><ele>1688.75</ele><time>2026-05-03T11:17:14.007Z</time></trkpt><trkpt lat="46.466812704694874" lon="9.18742284009789"><ele>1686.0</ele><time>2026-05-03T11:17:15.007Z</time></trkpt><trkpt lat="46.46668963830557" lon="9.187391597173347"><ele>1686.0</ele><time>2026-05-03T11:17:16.007Z</time></trkpt><trkpt lat="46.466552961028356" lon="9.187349278135903"><ele>1686.0</ele><time>2026-05-03T11:17:17.007Z</time></trkpt><trkpt lat="46.466423148013114" lon="9.187312308143882"><ele>1686.0</ele><time>2026-05-03T11:17:18.007Z</time></trkpt><trkpt lat="46.46627970706929" lon="9.187266099486619"><ele>1686.0</ele><time>2026-05-03T11:17:19.007Z</time></trkpt><trkpt lat="46.466146787631345" lon="9.187241208790699"><ele>1683.0</ele><time>2026-05-03T11:17:20.007Z</time></trkpt><trkpt lat="46.46601348548328" lon="9.187196688883974"><ele>1680.0</ele><time>2026-05-03T11:17:21.007Z</time></trkpt><trkpt lat="46.46587245317637" lon="9.187148392870311"><ele>1677.0</ele><time>2026-05-03T11:17:22.007Z</time></trkpt><trkpt lat="46.46574112683466" lon="9.187056092782761"><ele>1674.0</ele><time>2026-05-03T11:17:23.007Z</time></trkpt><trkpt lat="46.465613948529274" lon="9.186966207625701"><ele>1674.0</ele><time>2026-05-03T11:17:24.007Z</time></trkpt><trkpt lat="46.465502472702475" lon="9.186855451736855"><ele>1674.0</ele><time>2026-05-03T11:17:25.007Z</time></trkpt><trkpt lat="46.46542293767658" lon="9.186750848446636"><ele>1674.0</ele><time>2026-05-03T11:17:26.007Z</time></trkpt><trkpt lat="46.465418451714754" lon="9.186624291483206"><ele>1674.0</ele><time>2026-05-03T11:17:27.007Z</time></trkpt><trkpt lat="46.46542090333827" lon="9.186469002902102"><ele>1674.0</ele><time>2026-05-03T11:17:28.007Z</time></trkpt><trkpt lat="46.465429893520884" lon="9.186276021593402"><ele>1673.5</ele><time>2026-05-03T11:17:29.007Z</time></trkpt><trkpt lat="46.465450184776955" lon="9.186062499426715"><ele>1673.0</ele><time>2026-05-03T11:17:30.007Z</time></trkpt><trkpt lat="46.465498607644186" lon="9.185878678038915"><ele>1672.5</ele><time>2026-05-03T11:17:31.007Z</time></trkpt><trkpt lat="46.46554891311026" lon="9.185734133764104"><ele>1672.0</ele><time>2026-05-03T11:17:32.007Z</time></trkpt><trkpt lat="46.46558783368464" lon="9.185612817297752"><ele>1673.0000000000002</ele><time>2026-05-03T11:17:33.007Z</time></trkpt><trkpt lat="46.46557711488547" lon="9.185496801566508"><ele>1674.0</ele><time>2026-05-03T11:17:34.007Z</time></trkpt><trkpt lat="46.46551970406139" lon="9.185400046456861"><ele>1675.0</ele><time>2026-05-03T11:17:35.007Z</time></trkpt><trkpt lat="46.46543023409332" lon="9.185371173861949"><ele>1676.0</ele><time>2026-05-03T11:17:36.007Z</time></trkpt><trkpt lat="46.465353582127214" lon="9.185441406059017"><ele>1677.0000000000002</ele><time>2026-05-03T11:17:37.007Z</time></trkpt><trkpt lat="46.465306137944886" lon="9.18556459743013"><ele>1678.0</ele><time>2026-05-03T11:17:38.007Z</time></trkpt><trkpt lat="46.465276304805364" lon="9.18572642090063"><ele>1670.25</ele><time>2026-05-03T11:17:39.007Z</time></trkpt><trkpt lat="46.46522579025122" lon="9.18589044013519"><ele>1662.5</ele><time>2026-05-03T11:17:40.008Z</time></trkpt><trkpt lat="46.46514766053409" lon="9.186054420534429"><ele>1654.75</ele><time>2026-05-03T11:17:41.008Z</time></trkpt><trkpt lat="46.465060653096515" lon="9.186234713743985"><ele>1647.0</ele><time>2026-05-03T11:17:42.008Z</time></trkpt><trkpt lat="46.46497207710791" lon="9.186418256724275"><ele>1649.0</ele><time>2026-05-03T11:17:43.008Z</time></trkpt><trkpt lat="46.46486178120623" lon="9.186637331080185"><ele>1651.0</ele><time>2026-05-03T11:17:44.008Z</time></trkpt><trkpt lat="46.4647435424363" lon="9.186828161867346"><ele>1653.0</ele><time>2026-05-03T11:17:45.008Z</time></trkpt><trkpt lat="46.46462482852049" lon="9.18699428263827"><ele>1649.75</ele><time>2026-05-03T11:17:46.008Z</time></trkpt><trkpt lat="46.46453450988519" lon="9.187178972829836"><ele>1646.5</ele><time>2026-05-03T11:17:47.008Z</time></trkpt><trkpt lat="46.46443851884746" lon="9.187338717099399"><ele>1643.25</ele><time>2026-05-03T11:17:48.008Z</time></trkpt><trkpt lat="46.464349700807624" lon="9.187506133750032"><ele>1640.0</ele><time>2026-05-03T11:17:49.008Z</time></trkpt><trkpt lat="46.464265082627975" lon="9.187627791885227"><ele>1640.0</ele><time>2026-05-03T11:17:50.008Z</time></trkpt><trkpt lat="46.46415944545409" lon="9.187685866479853"><ele>1640.0</ele><time>2026-05-03T11:17:51.008Z</time></trkpt><trkpt lat="46.46407256265565" lon="9.187729745960237"><ele>1640.0</ele><time>2026-05-03T11:17:52.008Z</time></trkpt><trkpt lat="46.46399077291538" lon="9.187751306241488"><ele>1640.0</ele><time>2026-05-03T11:17:53.008Z</time></trkpt><trkpt lat="46.46391144045926" lon="9.18775088005478"><ele>1640.0</ele><time>2026-05-03T11:17:54.008Z</time></trkpt><trkpt lat="46.46382323883637" lon="9.187747494969793"><ele>1639.9999999999998</ele><time>2026-05-03T11:17:56.008Z</time></trkpt><trkpt lat="46.46375567866426" lon="9.187728101018525"><ele>1640.0</ele><time>2026-05-03T11:18:01.008Z</time></trkpt><trkpt lat="46.463713541167046" lon="9.18763809256368"><ele>1640.0</ele><time>2026-05-03T11:18:10.008Z</time></trkpt><trkpt lat="46.4637792133404" lon="9.187636966850693"><ele>1640.0</ele><time>2026-05-03T11:18:13.008Z</time></trkpt><trkpt lat="46.46384240814301" lon="9.187627568994692"><ele>1639.9999999999998</ele><time>2026-05-03T11:18:18.008Z</time></trkpt><trkpt lat="46.46392803754077" lon="9.187642160955633"><ele>1640.0</ele><time>2026-05-03T11:19:39.009Z</time></trkpt><trkpt lat="46.46401606761408" lon="9.18759805076107"><ele>1639.9999999999998</ele><time>2026-05-03T11:19:41.009Z</time></trkpt><trkpt lat="46.464103182024395" lon="9.187532490562099"><ele>1640.0</ele><time>2026-05-03T11:19:43.009Z</time></trkpt><trkpt lat="46.464168289952156" lon="9.187479798910834"><ele>1640.0</ele><time>2026-05-03T11:19:45.009Z</time></trkpt><trkpt lat="46.464237978103114" lon="9.187414707033817"><ele>1640.0</ele><time>2026-05-03T11:19:48.009Z</time></trkpt><trkpt lat="46.46429863359335" lon="9.187354688889172"><ele>1639.9999999999998</ele><time>2026-05-03T11:19:51.009Z</time></trkpt><trkpt lat="46.46424376591483" lon="9.187408980156649"><ele>1640.0</ele><time>2026-05-03T11:20:26.009Z</time></trkpt><trkpt lat="46.46419078043587" lon="9.187351999770568"><ele>1640.0</ele><time>2026-05-03T11:20:32.009Z</time></trkpt><trkpt lat="46.46388136046711" lon="9.187406080958441"><ele>1640.0</ele><time>2026-05-03T11:21:14.17Z</time></trkpt><trkpt lat="46.4640468380473" lon="9.187344582490544"><ele>1639.9999999999998</ele><time>2026-05-03T11:21:23.01Z</time></trkpt><trkpt lat="46.46415326071414" lon="9.187280904605128"><ele>1640.0</ele><time>2026-05-03T11:21:25.01Z</time></trkpt><trkpt lat="46.46421258448544" lon="9.18723441619122"><ele>1640.0</ele><time>2026-05-03T11:21:32.01Z</time></trkpt><trkpt lat="46.4641943670105" lon="9.187326162395214"><ele>1640.0</ele><time>2026-05-03T11:26:26.007Z</time></trkpt><trkpt lat="46.464144388680275" lon="9.187433194971826"><ele>1639.9999999999998</ele><time>2026-05-03T11:26:28.007Z</time></trkpt><trkpt lat="46.46406827197153" lon="9.187503838039616"><ele>1640.0</ele><time>2026-05-03T11:26:30.007Z</time></trkpt><trkpt lat="46.46399424108036" lon="9.187536786049783"><ele>1640.0</ele><time>2026-05-03T11:26:32.007Z</time></trkpt><trkpt lat="46.463922845368096" lon="9.18747323267981"><ele>1640.0</ele><time>2026-05-03T11:26:35.006Z</time></trkpt><trkpt lat="46.463874939072554" lon="9.187408910568125"><ele>1640.0</ele><time>2026-05-03T11:26:39.007Z</time></trkpt><trkpt lat="46.46393005784101" lon="9.187467529166433"><ele>1640.0</ele><time>2026-05-03T11:27:10.007Z</time></trkpt><trkpt lat="46.4638942396981" lon="9.187392220586066"><ele>1640.0</ele><time>2026-05-03T11:28:34.008Z</time></trkpt><trkpt lat="46.463938969465914" lon="9.18748932977357"><ele>1640.0</ele><time>2026-05-03T11:35:32.008Z</time></trkpt><trkpt lat="46.46387424193085" lon="9.187464024026887"><ele>1640.0</ele><time>2026-05-03T11:35:42.151Z</time></trkpt><trkpt lat="46.46385455644694" lon="9.187577042877848"><ele>1640.0</ele><time>2026-05-03T11:36:23.008Z</time></trkpt><trkpt lat="46.46380657427305" lon="9.187506956653055"><ele>1640.0</ele><time>2026-05-03T11:36:35.008Z</time></trkpt><trkpt lat="46.46386059407291" lon="9.187427332146962"><ele>1640.0</ele><time>2026-05-03T11:36:57.145Z</time></trkpt><trkpt lat="46.46390835230675" lon="9.187494681078263"><ele>1640.0</ele><time>2026-05-03T11:40:34.009Z</time></trkpt><trkpt lat="46.46390651584556" lon="9.187586091176662"><ele>1640.0</ele><time>2026-05-03T11:52:15Z</time></trkpt><trkpt lat="46.463849303703036" lon="9.187633817615492"><ele>1640.0</ele><time>2026-05-03T11:53:12.999Z</time></trkpt><trkpt lat="46.463909291582155" lon="9.187503544996883"><ele>1640.0</ele><time>2026-05-03T11:56:45Z</time></trkpt><trkpt lat="46.46390324172702" lon="9.187401739659451"><ele>1638.9999999999998</ele><time>2026-05-03T11:56:55Z</time></trkpt><trkpt lat="46.463838327082435" lon="9.187343073845186"><ele>1638.0</ele><time>2026-05-03T11:56:58Z</time></trkpt><trkpt lat="46.46377363148129" lon="9.187370907978716"><ele>1637.0</ele><time>2026-05-03T11:57:00Z</time></trkpt><trkpt lat="46.46369771287372" lon="9.187475907538339"><ele>1636.0</ele><time>2026-05-03T11:57:02Z</time></trkpt><trkpt lat="46.46370185386561" lon="9.187628237405896"><ele>1634.9999999999998</ele><time>2026-05-03T11:57:04Z</time></trkpt><trkpt lat="46.463670540824324" lon="9.18772507943675"><ele>1634.0</ele><time>2026-05-03T11:57:06Z</time></trkpt><trkpt lat="46.46357366506816" lon="9.187802809664843"><ele>1633.6</ele><time>2026-05-03T11:57:08Z</time></trkpt><trkpt lat="46.46348320053114" lon="9.18782625350557"><ele>1633.2</ele><time>2026-05-03T11:57:09Z</time></trkpt><trkpt lat="46.463385403702034" lon="9.187854406591553"><ele>1632.8</ele><time>2026-05-03T11:57:10Z</time></trkpt><trkpt lat="46.463289700462575" lon="9.187898814671303"><ele>1632.3999999999999</ele><time>2026-05-03T11:57:11Z</time></trkpt><trkpt lat="46.463199778137835" lon="9.187958814978805"><ele>1632.0</ele><time>2026-05-03T11:57:12Z</time></trkpt><trkpt lat="46.46310620972816" lon="9.188033428911613"><ele>1632.0</ele><time>2026-05-03T11:57:13Z</time></trkpt><trkpt lat="46.463015715138724" lon="9.188116980156321"><ele>1632.0</ele><time>2026-05-03T11:57:14Z</time></trkpt><trkpt lat="46.46293231851033" lon="9.188205656276587"><ele>1632.0</ele><time>2026-05-03T11:57:15.001Z</time></trkpt><trkpt lat="46.46287539007583" lon="9.188303287562627"><ele>1632.0</ele><time>2026-05-03T11:57:16Z</time></trkpt><trkpt lat="46.46282928820762" lon="9.188409442462367"><ele>1632.0</ele><time>2026-05-03T11:57:17Z</time></trkpt><trkpt lat="46.46278131080467" lon="9.18852822548954"><ele>1632.0</ele><time>2026-05-03T11:57:18Z</time></trkpt><trkpt lat="46.46276229383859" lon="9.188673458170088"><ele>1632.0</ele><time>2026-05-03T11:57:19Z</time></trkpt><trkpt lat="46.46272087311925" lon="9.1887960541239"><ele>1632.0</ele><time>2026-05-03T11:57:19.998Z</time></trkpt><trkpt lat="46.46270381278864" lon="9.188944757437506"><ele>1632.0</ele><time>2026-05-03T11:57:20.998Z</time></trkpt><trkpt lat="46.462710375155474" lon="9.189101332462752"><ele>1632.0</ele><time>2026-05-03T11:57:21.998Z</time></trkpt><trkpt lat="46.46271629712846" lon="9.189260873033618"><ele>1630.6</ele><time>2026-05-03T11:57:22.998Z</time></trkpt><trkpt lat="46.46273393683665" lon="9.189416096596423"><ele>1629.1999999999998</ele><time>2026-05-03T11:57:23.998Z</time></trkpt><trkpt lat="46.46274794136129" lon="9.18956186335991"><ele>1627.8</ele><time>2026-05-03T11:57:24.998Z</time></trkpt><trkpt lat="46.46275829724794" lon="9.18969446551364"><ele>1626.4</ele><time>2026-05-03T11:57:25.998Z</time></trkpt><trkpt lat="46.46276606640975" lon="9.189815891830317"><ele>1625.0</ele><time>2026-05-03T11:57:26.998Z</time></trkpt><trkpt lat="46.46277872023135" lon="9.189939712114558"><ele>1624.0</ele><time>2026-05-03T11:57:27.998Z</time></trkpt><trkpt lat="46.462841784811644" lon="9.190201350313217"><ele>1623.0</ele><time>2026-05-03T11:57:29.998Z</time></trkpt><trkpt lat="46.462898771531826" lon="9.19032044804344"><ele>1622.0</ele><time>2026-05-03T11:57:30.998Z</time></trkpt><trkpt lat="46.46295726661344" lon="9.190446445001974"><ele>1621.0</ele><time>2026-05-03T11:57:31.998Z</time></trkpt><trkpt lat="46.46302612119017" lon="9.190560118136213"><ele>1621.0</ele><time>2026-05-03T11:57:32.998Z</time></trkpt><trkpt lat="46.463080133068004" lon="9.190669513641188"><ele>1621.0</ele><time>2026-05-03T11:57:33.998Z</time></trkpt><trkpt lat="46.46311910319203" lon="9.190765069170702"><ele>1621.0</ele><time>2026-05-03T11:57:34.999Z</time></trkpt><trkpt lat="46.46315250093834" lon="9.190875618128192"><ele>1621.0</ele><time>2026-05-03T11:57:35.998Z</time></trkpt><trkpt lat="46.46313801103471" lon="9.191010735565627"><ele>1621.0</ele><time>2026-05-03T11:57:36.998Z</time></trkpt><trkpt lat="46.46307641549575" lon="9.191231390522251"><ele>1620.4</ele><time>2026-05-03T11:57:38.998Z</time></trkpt><trkpt lat="46.46302300510777" lon="9.19135141438461"><ele>1619.8</ele><time>2026-05-03T11:57:39.998Z</time></trkpt><trkpt lat="46.46296020976514" lon="9.191462124929608"><ele>1619.2</ele><time>2026-05-03T11:57:40.998Z</time></trkpt><trkpt lat="46.46290089879236" lon="9.191568100157458"><ele>1618.6000000000001</ele><time>2026-05-03T11:57:41.999Z</time></trkpt><trkpt lat="46.46284120030411" lon="9.191668991483352"><ele>1618.0</ele><time>2026-05-03T11:57:42.999Z</time></trkpt><trkpt lat="46.46278288153104" lon="9.191766540981341"><ele>1617.0</ele><time>2026-05-03T11:57:43.999Z</time></trkpt><trkpt lat="46.46272245231667" lon="9.191851959551128"><ele>1616.0</ele><time>2026-05-03T11:57:45Z</time></trkpt><trkpt lat="46.462574155224125" lon="9.19196895613463"><ele>1615.0</ele><time>2026-05-03T11:57:46.999Z</time></trkpt><trkpt lat="46.462398125240846" lon="9.19200785066117"><ele>1614.0</ele><time>2026-05-03T11:57:48.999Z</time></trkpt><trkpt lat="46.46229733653877" lon="9.192046333767266"><ele>1614.0</ele><time>2026-05-03T11:57:49.999Z</time></trkpt><trkpt lat="46.46220318009779" lon="9.192095664214802"><ele>1614.0</ele><time>2026-05-03T11:57:50.999Z</time></trkpt><trkpt lat="46.46210064656938" lon="9.192153582092374"><ele>1614.0</ele><time>2026-05-03T11:57:51.999Z</time></trkpt><trkpt lat="46.46199635611098" lon="9.192234447623607"><ele>1614.0</ele><time>2026-05-03T11:57:52.999Z</time></trkpt><trkpt lat="46.46188712663743" lon="9.192298207705196"><ele>1614.0</ele><time>2026-05-03T11:57:53.999Z</time></trkpt><trkpt lat="46.46177533535105" lon="9.192361154410598"><ele>1613.8000000000002</ele><time>2026-05-03T11:57:54.999Z</time></trkpt><trkpt lat="46.461672576155294" lon="9.192425246799978"><ele>1613.6000000000001</ele><time>2026-05-03T11:57:56Z</time></trkpt><trkpt lat="46.46157580279981" lon="9.192484591970873"><ele>1613.4</ele><time>2026-05-03T11:57:56.999Z</time></trkpt><trkpt lat="46.461467403926385" lon="9.19254327338679"><ele>1613.2</ele><time>2026-05-03T11:57:57.999Z</time></trkpt><trkpt lat="46.46136439517891" lon="9.192606356057127"><ele>1613.0</ele><time>2026-05-03T11:57:58.999Z</time></trkpt><trkpt lat="46.46126334922735" lon="9.192671524459174"><ele>1612.8000000000002</ele><time>2026-05-03T11:57:59.999Z</time></trkpt><trkpt lat="46.461174837992154" lon="9.192735863099072"><ele>1612.6</ele><time>2026-05-03T11:58:00.999Z</time></trkpt><trkpt lat="46.46108700410784" lon="9.192767495942357"><ele>1612.4</ele><time>2026-05-03T11:58:01.999Z</time></trkpt><trkpt lat="46.461003739038375" lon="9.192818091354416"><ele>1612.1999999999998</ele><time>2026-05-03T11:58:02.999Z</time></trkpt><trkpt lat="46.46091371408597" lon="9.192873057669479"><ele>1612.0</ele><time>2026-05-03T11:58:03.999Z</time></trkpt><trkpt lat="46.46081481659016" lon="9.192915335802557"><ele>1612.0</ele><time>2026-05-03T11:58:04.999Z</time></trkpt><trkpt lat="46.4607105508895" lon="9.192971764162387"><ele>1612.0</ele><time>2026-05-03T11:58:05.999Z</time></trkpt><trkpt lat="46.46059778480729" lon="9.193016566103543"><ele>1612.0</ele><time>2026-05-03T11:58:06.999Z</time></trkpt><trkpt lat="46.46048085689871" lon="9.193059633266488"><ele>1612.0</ele><time>2026-05-03T11:58:07.999Z</time></trkpt><trkpt lat="46.46036201163002" lon="9.193094953821312"><ele>1611.5</ele><time>2026-05-03T11:58:08.999Z</time></trkpt><trkpt lat="46.460250430393266" lon="9.19314165024182"><ele>1611.0</ele><time>2026-05-03T11:58:09.999Z</time></trkpt><trkpt lat="46.46013641083365" lon="9.193188457534175"><ele>1610.5</ele><time>2026-05-03T11:58:11Z</time></trkpt><trkpt lat="46.460018848336375" lon="9.193227662741828"><ele>1610.0</ele><time>2026-05-03T11:58:11.999Z</time></trkpt><trkpt lat="46.459898154997525" lon="9.1932474477972"><ele>1610.0</ele><time>2026-05-03T11:58:12.999Z</time></trkpt><trkpt lat="46.45978397244646" lon="9.193193754823964"><ele>1610.0</ele><time>2026-05-03T11:58:14Z</time></trkpt><trkpt lat="46.459670547180984" lon="9.193156913610911"><ele>1610.0</ele><time>2026-05-03T11:58:14.999Z</time></trkpt><trkpt lat="46.45955859636316" lon="9.193138488736109"><ele>1610.0</ele><time>2026-05-03T11:58:15.999Z</time></trkpt><trkpt lat="46.45944820493113" lon="9.193113356030137"><ele>1610.75</ele><time>2026-05-03T11:58:16.999Z</time></trkpt><trkpt lat="46.45932761790249" lon="9.193130652455851"><ele>1611.5</ele><time>2026-05-03T11:58:17.999Z</time></trkpt><trkpt lat="46.4592077278409" lon="9.193184057973294"><ele>1612.25</ele><time>2026-05-03T11:58:18.999Z</time></trkpt><trkpt lat="46.45909309056673" lon="9.19326331593708"><ele>1613.0</ele><time>2026-05-03T11:58:19.999Z</time></trkpt><trkpt lat="46.45897785401965" lon="9.193339985913001"><ele>1615.0</ele><time>2026-05-03T11:58:20.999Z</time></trkpt><trkpt lat="46.4588577086304" lon="9.19342687490275"><ele>1617.0</ele><time>2026-05-03T11:58:21.999Z</time></trkpt><trkpt lat="46.458741569785815" lon="9.193516758201094"><ele>1619.0</ele><time>2026-05-03T11:58:22.999Z</time></trkpt><trkpt lat="46.45864645111638" lon="9.193610476757264"><ele>1621.0</ele><time>2026-05-03T11:58:24Z</time></trkpt><trkpt lat="46.458541764315" lon="9.193714508563524"><ele>1621.0</ele><time>2026-05-03T11:58:25Z</time></trkpt><trkpt lat="46.458446191795744" lon="9.19386392147596"><ele>1621.0</ele><time>2026-05-03T11:58:26Z</time></trkpt><trkpt lat="46.4583574065622" lon="9.194026090066743"><ele>1621.0</ele><time>2026-05-03T11:58:27Z</time></trkpt><trkpt lat="46.458265883494" lon="9.19418275988047"><ele>1621.0</ele><time>2026-05-03T11:58:28Z</time></trkpt><trkpt lat="46.45816849732768" lon="9.194348668995524"><ele>1621.0</ele><time>2026-05-03T11:58:29Z</time></trkpt><trkpt lat="46.458081030524035" lon="9.194501323360212"><ele>1621.0</ele><time>2026-05-03T11:58:30Z</time></trkpt><trkpt lat="46.4579892298549" lon="9.194656047588792"><ele>1621.0</ele><time>2026-05-03T11:58:31Z</time></trkpt><trkpt lat="46.457893591189865" lon="9.194814172155734"><ele>1621.0</ele><time>2026-05-03T11:58:32Z</time></trkpt><trkpt lat="46.457800632195394" lon="9.194971609575147"><ele>1623.25</ele><time>2026-05-03T11:58:33Z</time></trkpt><trkpt lat="46.45769856439838" lon="9.19511235070438"><ele>1625.5</ele><time>2026-05-03T11:58:34Z</time></trkpt><trkpt lat="46.457606830555726" lon="9.195266931581852"><ele>1627.75</ele><time>2026-05-03T11:58:35Z</time></trkpt><trkpt lat="46.45751034796488" lon="9.195426745361615"><ele>1630.0</ele><time>2026-05-03T11:58:36Z</time></trkpt><trkpt lat="46.457415210602115" lon="9.195577619007862"><ele>1631.5</ele><time>2026-05-03T11:58:37Z</time></trkpt><trkpt lat="46.45730572110225" lon="9.195712530301742"><ele>1633.0</ele><time>2026-05-03T11:58:38Z</time></trkpt><trkpt lat="46.457194169811345" lon="9.195841644215452"><ele>1634.5</ele><time>2026-05-03T11:58:39Z</time></trkpt><trkpt lat="46.45708028910784" lon="9.195960618058155"><ele>1636.0</ele><time>2026-05-03T11:58:40Z</time></trkpt><trkpt lat="46.45696714458423" lon="9.196079687549727"><ele>1636.0</ele><time>2026-05-03T11:58:41Z</time></trkpt><trkpt lat="46.45684248578664" lon="9.196201928110382"><ele>1636.0</ele><time>2026-05-03T11:58:42Z</time></trkpt><trkpt lat="46.45672820455553" lon="9.196334067044413"><ele>1636.0</ele><time>2026-05-03T11:58:43Z</time></trkpt><trkpt lat="46.45660862503962" lon="9.196465767246908"><ele>1636.0</ele><time>2026-05-03T11:58:44Z</time></trkpt><trkpt lat="46.45649115544869" lon="9.196596369843462"><ele>1640.0</ele><time>2026-05-03T11:58:45Z</time></trkpt><trkpt lat="46.45599751269042" lon="9.197105930067584"><ele>1640.0</ele><time>2026-05-03T11:58:49Z</time></trkpt><trkpt lat="46.455870329112024" lon="9.197246284651568"><ele>1640.0</ele><time>2026-05-03T11:58:50Z</time></trkpt><trkpt lat="46.455742748702775" lon="9.19738934745698"><ele>1640.0</ele><time>2026-05-03T11:58:51Z</time></trkpt><trkpt lat="46.45561025468298" lon="9.197524677052382"><ele>1639.6666666666665</ele><time>2026-05-03T11:58:52Z</time></trkpt><trkpt lat="46.45549243341304" lon="9.197676969501435"><ele>1639.3333333333335</ele><time>2026-05-03T11:58:53Z</time></trkpt><trkpt lat="46.45536266829326" lon="9.197809543770989"><ele>1639.0</ele><time>2026-05-03T11:58:54Z</time></trkpt><trkpt lat="46.45521940120378" lon="9.197901063666107"><ele>1640.0</ele><time>2026-05-03T11:58:55Z</time></trkpt><trkpt lat="46.45508078629838" lon="9.197994579729086"><ele>1641.0</ele><time>2026-05-03T11:58:56Z</time></trkpt><trkpt lat="46.454938178755" lon="9.198074602340428"><ele>1642.0</ele><time>2026-05-03T11:58:57Z</time></trkpt><trkpt lat="46.45479337907724" lon="9.198140756609442"><ele>1643.0</ele><time>2026-05-03T11:58:58Z</time></trkpt><trkpt lat="46.454647606482844" lon="9.198202009722523"><ele>1644.0</ele><time>2026-05-03T11:58:59Z</time></trkpt><trkpt lat="46.45450708603876" lon="9.198284801627594"><ele>1645.0</ele><time>2026-05-03T11:59:00Z</time></trkpt><trkpt lat="46.454366305427406" lon="9.198340412087585"><ele>1646.0</ele><time>2026-05-03T11:59:01Z</time></trkpt><trkpt lat="46.45422155350601" lon="9.198382397964352"><ele>1644.0</ele><time>2026-05-03T11:59:02Z</time></trkpt><trkpt lat="46.45408780638679" lon="9.198442825586184"><ele>1642.0</ele><time>2026-05-03T11:59:03Z</time></trkpt><trkpt lat="46.45395124962678" lon="9.198496589955086"><ele>1640.0</ele><time>2026-05-03T11:59:04Z</time></trkpt><trkpt lat="46.453812161172" lon="9.198562214795377"><ele>1638.0</ele><time>2026-05-03T11:59:05Z</time></trkpt><trkpt lat="46.4536693104287" lon="9.19861769683342"><ele>1637.3333333333335</ele><time>2026-05-03T11:59:06Z</time></trkpt><trkpt lat="46.453523597685034" lon="9.198681886945701"><ele>1636.6666666666667</ele><time>2026-05-03T11:59:07Z</time></trkpt><trkpt lat="46.453371915379726" lon="9.198746200873167"><ele>1636.0</ele><time>2026-05-03T11:59:08Z</time></trkpt><trkpt lat="46.453221339612874" lon="9.198804753972635"><ele>1636.0</ele><time>2026-05-03T11:59:09Z</time></trkpt><trkpt lat="46.4530626089258" lon="9.198870570622498"><ele>1636.0</ele><time>2026-05-03T11:59:10Z</time></trkpt><trkpt lat="46.45290919151982" lon="9.19893966435611"><ele>1636.0</ele><time>2026-05-03T11:59:11Z</time></trkpt><trkpt lat="46.45275394893761" lon="9.19899946609687"><ele>1638.75</ele><time>2026-05-03T11:59:12Z</time></trkpt><trkpt lat="46.45261050123024" lon="9.199063975284178"><ele>1641.5</ele><time>2026-05-03T11:59:13Z</time></trkpt><trkpt lat="46.45247054076565" lon="9.199092930692261"><ele>1644.25</ele><time>2026-05-03T11:59:14Z</time></trkpt><trkpt lat="46.45231830956351" lon="9.1991184812489"><ele>1647.0</ele><time>2026-05-03T11:59:15Z</time></trkpt><trkpt lat="46.452164553381536" lon="9.199155412548217"><ele>1646.3333333333335</ele><time>2026-05-03T11:59:16Z</time></trkpt><trkpt lat="46.45201317855423" lon="9.199183203498086"><ele>1645.6666666666667</ele><time>2026-05-03T11:59:17Z</time></trkpt><trkpt lat="46.45185352286362" lon="9.19922991615051"><ele>1645.0</ele><time>2026-05-03T11:59:18Z</time></trkpt><trkpt lat="46.451714113725416" lon="9.199294927935556"><ele>1645.0</ele><time>2026-05-03T11:59:19Z</time></trkpt><trkpt lat="46.45155749397366" lon="9.19938094597486"><ele>1645.0</ele><time>2026-05-03T11:59:20Z</time></trkpt><trkpt lat="46.451404171042476" lon="9.199438823413901"><ele>1645.0</ele><time>2026-05-03T11:59:21Z</time></trkpt><trkpt lat="46.45125054881965" lon="9.199500825033766"><ele>1647.3333333333335</ele><time>2026-05-03T11:59:22Z</time></trkpt><trkpt lat="46.451087313202" lon="9.199553299990338"><ele>1649.6666666666665</ele><time>2026-05-03T11:59:23Z</time></trkpt><trkpt lat="46.45092353065481" lon="9.199609403590246"><ele>1652.0</ele><time>2026-05-03T11:59:24Z</time></trkpt><trkpt lat="46.450758364988545" lon="9.199671522398694"><ele>1652.0</ele><time>2026-05-03T11:59:24.995Z</time></trkpt><trkpt lat="46.45059098019797" lon="9.199733846482411"><ele>1652.0</ele><time>2026-05-03T11:59:25.995Z</time></trkpt><trkpt lat="46.450418511822114" lon="9.199794760173527"><ele>1652.0</ele><time>2026-05-03T11:59:26.995Z</time></trkpt><trkpt lat="46.450244911847776" lon="9.199854316843004"><ele>1653.0</ele><time>2026-05-03T11:59:27.995Z</time></trkpt><trkpt lat="46.45006329337807" lon="9.199917329818657"><ele>1654.0</ele><time>2026-05-03T11:59:28.995Z</time></trkpt><trkpt lat="46.44989544960429" lon="9.199979873414076"><ele>1655.0</ele><time>2026-05-03T11:59:29.995Z</time></trkpt><trkpt lat="46.44974537722931" lon="9.200035189808688"><ele>1656.25</ele><time>2026-05-03T11:59:30.995Z</time></trkpt><trkpt lat="46.44960378795039" lon="9.20008688444529"><ele>1657.5</ele><time>2026-05-03T11:59:31.995Z</time></trkpt><trkpt lat="46.44946491704067" lon="9.20013898265432"><ele>1658.75</ele><time>2026-05-03T11:59:32.995Z</time></trkpt><trkpt lat="46.44932364933735" lon="9.200195354553497"><ele>1660.0</ele><time>2026-05-03T11:59:33.995Z</time></trkpt><trkpt lat="46.44917624666359" lon="9.200249742880851"><ele>1660.0</ele><time>2026-05-03T11:59:34.996Z</time></trkpt><trkpt lat="46.449027821642886" lon="9.200298358161103"><ele>1660.0</ele><time>2026-05-03T11:59:35.996Z</time></trkpt><trkpt lat="46.448876552208354" lon="9.200349285074317"><ele>1660.0</ele><time>2026-05-03T11:59:36.996Z</time></trkpt><trkpt lat="46.44872787745205" lon="9.200400063820279"><ele>1659.5</ele><time>2026-05-03T11:59:37.996Z</time></trkpt><trkpt lat="46.44858250229086" lon="9.200459222215093"><ele>1659.0</ele><time>2026-05-03T11:59:38.996Z</time></trkpt><trkpt lat="46.44844608421317" lon="9.200550923451312"><ele>1658.5</ele><time>2026-05-03T11:59:39.996Z</time></trkpt><trkpt lat="46.44832191484618" lon="9.200653316760372"><ele>1658.0</ele><time>2026-05-03T11:59:40.996Z</time></trkpt><trkpt lat="46.44819618377468" lon="9.20077259405416"><ele>1658.0</ele><time>2026-05-03T11:59:41.997Z</time></trkpt><trkpt lat="46.44808977270817" lon="9.200901233746162"><ele>1658.0</ele><time>2026-05-03T11:59:42.997Z</time></trkpt><trkpt lat="46.447984607263905" lon="9.201022128309083"><ele>1658.0</ele><time>2026-05-03T11:59:43.997Z</time></trkpt><trkpt lat="46.44788712578662" lon="9.20113049523234"><ele>1658.0</ele><time>2026-05-03T11:59:44.997Z</time></trkpt><trkpt lat="46.44780541903332" lon="9.20122147025816"><ele>1658.8333333333333</ele><time>2026-05-03T11:59:45.997Z</time></trkpt><trkpt lat="46.44772553082451" lon="9.201249359901043"><ele>1659.6666666666665</ele><time>2026-05-03T11:59:46.997Z</time></trkpt><trkpt lat="46.44766222443253" lon="9.201219938190906"><ele>1660.5</ele><time>2026-05-03T11:59:47.997Z</time></trkpt><trkpt lat="46.44761979122711" lon="9.201145438404014"><ele>1661.3333333333335</ele><time>2026-05-03T11:59:48.997Z</time></trkpt><trkpt lat="46.44757941915033" lon="9.20103640728535"><ele>1662.1666666666667</ele><time>2026-05-03T11:59:49.997Z</time></trkpt><trkpt lat="46.4475427621221" lon="9.200882961277559"><ele>1663.0</ele><time>2026-05-03T11:59:50.997Z</time></trkpt><trkpt lat="46.44747721735936" lon="9.200715269429976"><ele>1666.0</ele><time>2026-05-03T11:59:51.998Z</time></trkpt><trkpt lat="46.447392668814196" lon="9.200583105441282"><ele>1669.0</ele><time>2026-05-03T11:59:52.998Z</time></trkpt><trkpt lat="46.44729049427197" lon="9.200515077582503"><ele>1672.0</ele><time>2026-05-03T11:59:53.998Z</time></trkpt><trkpt lat="46.4471881773273" lon="9.200506669602689"><ele>1675.0</ele><time>2026-05-03T11:59:54.998Z</time></trkpt><trkpt lat="46.44708858386166" lon="9.2005559609756"><ele>1678.0</ele><time>2026-05-03T11:59:55.998Z</time></trkpt><trkpt lat="46.44699270580235" lon="9.200663231771676"><ele>1673.75</ele><time>2026-05-03T11:59:56.998Z</time></trkpt><trkpt lat="46.44690779225294" lon="9.200795081091444"><ele>1669.5</ele><time>2026-05-03T11:59:57.998Z</time></trkpt><trkpt lat="46.4468300716344" lon="9.200926095590864"><ele>1665.25</ele><time>2026-05-03T11:59:58.998Z</time></trkpt><trkpt lat="46.446744110221765" lon="9.201036797520418"><ele>1661.0</ele><time>2026-05-03T11:59:59.998Z</time></trkpt><trkpt lat="46.44664149563073" lon="9.201108547376107"><ele>1661.0</ele><time>2026-05-03T12:00:00.998Z</time></trkpt><trkpt lat="46.44651982985054" lon="9.201111663912457"><ele>1661.0</ele><time>2026-05-03T12:00:01.998Z</time></trkpt><trkpt lat="46.446404316677814" lon="9.201145053194452"><ele>1661.0</ele><time>2026-05-03T12:00:02.998Z</time></trkpt><trkpt lat="46.44628989948319" lon="9.201176010869034"><ele>1661.0</ele><time>2026-05-03T12:00:03.998Z</time></trkpt><trkpt lat="46.44617186727767" lon="9.20120837924511"><ele>1660.75</ele><time>2026-05-03T12:00:04.998Z</time></trkpt><trkpt lat="46.446053465467806" lon="9.201239513034983"><ele>1660.5</ele><time>2026-05-03T12:00:05.998Z</time></trkpt><trkpt lat="46.44593685063679" lon="9.201269863311305"><ele>1660.25</ele><time>2026-05-03T12:00:06.998Z</time></trkpt><trkpt lat="46.44582749329572" lon="9.2012982363353"><ele>1660.0</ele><time>2026-05-03T12:00:07.998Z</time></trkpt><trkpt lat="46.44570703517417" lon="9.201328152696323"><ele>1660.0</ele><time>2026-05-03T12:00:08.998Z</time></trkpt><trkpt lat="46.44556202186778" lon="9.201364167436113"><ele>1660.0</ele><time>2026-05-03T12:00:09.998Z</time></trkpt><trkpt lat="46.44540543560948" lon="9.20140303080226"><ele>1660.0</ele><time>2026-05-03T12:00:10.998Z</time></trkpt><trkpt lat="46.44523233659756" lon="9.201445790662731"><ele>1660.3333333333335</ele><time>2026-05-03T12:00:11.999Z</time></trkpt><trkpt lat="46.44504201853218" lon="9.201493157634618"><ele>1660.6666666666665</ele><time>2026-05-03T12:00:12.999Z</time></trkpt><trkpt lat="46.44485485388015" lon="9.201541626563683"><ele>1661.0</ele><time>2026-05-03T12:00:13.999Z</time></trkpt><trkpt lat="46.44466704396983" lon="9.201591967906579"><ele>1652.6666666666665</ele><time>2026-05-03T12:00:14.999Z</time></trkpt><trkpt lat="46.44448531301586" lon="9.201667685140013"><ele>1644.3333333333335</ele><time>2026-05-03T12:00:15.999Z</time></trkpt><trkpt lat="46.444311197393375" lon="9.201720277382478"><ele>1636.0</ele><time>2026-05-03T12:00:16.999Z</time></trkpt><trkpt lat="46.44414537059813" lon="9.201796557956786"><ele>1636.0</ele><time>2026-05-03T12:00:17.999Z</time></trkpt><trkpt lat="46.44399195524643" lon="9.201886841144816"><ele>1636.0</ele><time>2026-05-03T12:00:18.999Z</time></trkpt><trkpt lat="46.44382820118908" lon="9.201969290626257"><ele>1636.0</ele><time>2026-05-03T12:00:19.999Z</time></trkpt><trkpt lat="46.443659172233964" lon="9.202046893680103"><ele>1637.3333333333335</ele><time>2026-05-03T12:00:20.999Z</time></trkpt><trkpt lat="46.4434865362826" lon="9.202117471601383"><ele>1638.6666666666665</ele><time>2026-05-03T12:00:21.999Z</time></trkpt><trkpt lat="46.44330138124046" lon="9.202183071119912"><ele>1640.0</ele><time>2026-05-03T12:00:22.999Z</time></trkpt><trkpt lat="46.44312673969653" lon="9.20222526165772"><ele>1643.3333333333333</ele><time>2026-05-03T12:00:23.999Z</time></trkpt><trkpt lat="46.442956853712325" lon="9.20227255320394"><ele>1646.6666666666665</ele><time>2026-05-03T12:00:24.999Z</time></trkpt><trkpt lat="46.44278986947657" lon="9.202362109889405"><ele>1650.0</ele><time>2026-05-03T12:00:25.999Z</time></trkpt><trkpt lat="46.44262599406338" lon="9.202489651791735"><ele>1640.0</ele><time>2026-05-03T12:00:26.999Z</time></trkpt><trkpt lat="46.44245508568486" lon="9.202616619365838"><ele>1630.0</ele><time>2026-05-03T12:00:27.999Z</time></trkpt><trkpt lat="46.44227001243509" lon="9.202703340821277"><ele>1620.0</ele><time>2026-05-03T12:00:28.999Z</time></trkpt><trkpt lat="46.4420734827769" lon="9.202761093953436"><ele>1620.0</ele><time>2026-05-03T12:00:29.999Z</time></trkpt><trkpt lat="46.441882283885526" lon="9.202821282668687"><ele>1620.0</ele><time>2026-05-03T12:00:30.999Z</time></trkpt><trkpt lat="46.44169522908117" lon="9.20288411844783"><ele>1620.0</ele><time>2026-05-03T12:00:31.999Z</time></trkpt><trkpt lat="46.44151076804552" lon="9.202948540532763"><ele>1620.0</ele><time>2026-05-03T12:00:32.999Z</time></trkpt><trkpt lat="46.44133054903601" lon="9.203014795197955"><ele>1620.0</ele><time>2026-05-03T12:00:33.999Z</time></trkpt><trkpt lat="46.44114928406521" lon="9.203070996215326"><ele>1620.0</ele><time>2026-05-03T12:00:34.999Z</time></trkpt><trkpt lat="46.44096176345093" lon="9.203086405423791"><ele>1620.3333333333335</ele><time>2026-05-03T12:00:35.999Z</time></trkpt><trkpt lat="46.44077253855023" lon="9.203069330877657"><ele>1620.6666666666667</ele><time>2026-05-03T12:00:36.999Z</time></trkpt><trkpt lat="46.440595005938626" lon="9.203054946964668"><ele>1621.0</ele><time>2026-05-03T12:00:37.999Z</time></trkpt><trkpt lat="46.440417959343506" lon="9.20310024581337"><ele>1608.0</ele><time>2026-05-03T12:00:38.999Z</time></trkpt><trkpt lat="46.4402339356328" lon="9.20319226707031"><ele>1595.0</ele><time>2026-05-03T12:00:39.999Z</time></trkpt><trkpt lat="46.44004333008888" lon="9.203294599312771"><ele>1582.0</ele><time>2026-05-03T12:00:40.999Z</time></trkpt><trkpt lat="46.439841902601614" lon="9.203391316449151"><ele>1582.0</ele><time>2026-05-03T12:00:41.999Z</time></trkpt><trkpt lat="46.43964799187935" lon="9.203466197045037"><ele>1582.0</ele><time>2026-05-03T12:00:42.999Z</time></trkpt><trkpt lat="46.43945643517556" lon="9.203489169006478"><ele>1582.0</ele><time>2026-05-03T12:00:43.999Z</time></trkpt><trkpt lat="46.43927851775588" lon="9.203465738881969"><ele>1582.0</ele><time>2026-05-03T12:00:44.999Z</time></trkpt><trkpt lat="46.439101281042085" lon="9.203404542246725"><ele>1582.0</ele><time>2026-05-03T12:00:45.999Z</time></trkpt><trkpt lat="46.438915409678245" lon="9.203344876761753"><ele>1582.0</ele><time>2026-05-03T12:00:46.999Z</time></trkpt><trkpt lat="46.4387203392759" lon="9.20333471738399"><ele>1579.3333333333335</ele><time>2026-05-03T12:00:48Z</time></trkpt><trkpt lat="46.43853517489237" lon="9.203315977876786"><ele>1576.6666666666665</ele><time>2026-05-03T12:00:49Z</time></trkpt><trkpt lat="46.4383620777163" lon="9.203269466875522"><ele>1574.0</ele><time>2026-05-03T12:00:50Z</time></trkpt><trkpt lat="46.438213899949616" lon="9.203240077704423"><ele>1574.0</ele><time>2026-05-03T12:00:51Z</time></trkpt><trkpt lat="46.43807008445947" lon="9.203266546904077"><ele>1574.0</ele><time>2026-05-03T12:00:52Z</time></trkpt><trkpt lat="46.437935761139094" lon="9.203322134901079"><ele>1574.0</ele><time>2026-05-03T12:00:53Z</time></trkpt><trkpt lat="46.43782430795765" lon="9.203445784542108"><ele>1574.0</ele><time>2026-05-03T12:00:54Z</time></trkpt><trkpt lat="46.43772524551781" lon="9.203636945317223"><ele>1576.3333333333333</ele><time>2026-05-03T12:00:55Z</time></trkpt><trkpt lat="46.43759939280165" lon="9.203738234199697"><ele>1578.6666666666665</ele><time>2026-05-03T12:00:56Z</time></trkpt><trkpt lat="46.43742897796982" lon="9.20381208738966"><ele>1581.0</ele><time>2026-05-03T12:00:57Z</time></trkpt><trkpt lat="46.43725416283893" lon="9.203853147102915"><ele>1582.6666666666665</ele><time>2026-05-03T12:00:58Z</time></trkpt><trkpt lat="46.437063370462404" lon="9.203855754217557"><ele>1584.3333333333333</ele><time>2026-05-03T12:00:59Z</time></trkpt><trkpt lat="46.43686786792415" lon="9.203857922369659"><ele>1586.0</ele><time>2026-05-03T12:01:00Z</time></trkpt><trkpt lat="46.436687458491555" lon="9.203863636463296"><ele>1586.0</ele><time>2026-05-03T12:01:01Z</time></trkpt><trkpt lat="46.436493527677484" lon="9.203895501698147"><ele>1586.0</ele><time>2026-05-03T12:01:02Z</time></trkpt><trkpt lat="46.436302520187034" lon="9.203948224754585"><ele>1586.0</ele><time>2026-05-03T12:01:03Z</time></trkpt><trkpt lat="46.436119610432655" lon="9.204028241627443"><ele>1575.0</ele><time>2026-05-03T12:01:04Z</time></trkpt><trkpt lat="46.43593719502071" lon="9.204084305955538"><ele>1564.0</ele><time>2026-05-03T12:01:05Z</time></trkpt><trkpt lat="46.43576171356529" lon="9.204173606046467"><ele>1553.0</ele><time>2026-05-03T12:01:06Z</time></trkpt><trkpt lat="46.43560780873902" lon="9.204271873062483"><ele>1553.0</ele><time>2026-05-03T12:01:07Z</time></trkpt><trkpt lat="46.43548257192187" lon="9.204387898224752"><ele>1553.0</ele><time>2026-05-03T12:01:08Z</time></trkpt><trkpt lat="46.43536990555155" lon="9.20451436368994"><ele>1553.0</ele><time>2026-05-03T12:01:09Z</time></trkpt><trkpt lat="46.43525935255666" lon="9.204615642923853"><ele>1553.0</ele><time>2026-05-03T12:01:10Z</time></trkpt><trkpt lat="46.435156748146156" lon="9.204680535822641"><ele>1555.6000000000001</ele><time>2026-05-03T12:01:11Z</time></trkpt><trkpt lat="46.43504931351846" lon="9.204734606870302"><ele>1558.2</ele><time>2026-05-03T12:01:12Z</time></trkpt><trkpt lat="46.43496924371032" lon="9.204746481168407"><ele>1560.8</ele><time>2026-05-03T12:01:13Z</time></trkpt><trkpt lat="46.43490980117819" lon="9.204792096551072"><ele>1563.4</ele><time>2026-05-03T12:01:14Z</time></trkpt><trkpt lat="46.43492096701893" lon="9.204998667887287"><ele>1566.0</ele><time>2026-05-03T12:01:16Z</time></trkpt><trkpt lat="46.43500786387638" lon="9.205061743269617"><ele>1559.5</ele><time>2026-05-03T12:01:17Z</time></trkpt><trkpt lat="46.43514029048324" lon="9.205039687923037"><ele>1553.0</ele><time>2026-05-03T12:01:18Z</time></trkpt><trkpt lat="46.43527743594764" lon="9.205002206436369"><ele>1546.5</ele><time>2026-05-03T12:01:19Z</time></trkpt><trkpt lat="46.43543228566914" lon="9.204986216815058"><ele>1540.0</ele><time>2026-05-03T12:01:20Z</time></trkpt><trkpt lat="46.43559028946765" lon="9.204999118779487"><ele>1538.25</ele><time>2026-05-03T12:01:21Z</time></trkpt><trkpt lat="46.43574142905055" lon="9.20503171655072"><ele>1536.5</ele><time>2026-05-03T12:01:22Z</time></trkpt><trkpt lat="46.43587122482773" lon="9.20506557617145"><ele>1534.75</ele><time>2026-05-03T12:01:23Z</time></trkpt><trkpt lat="46.435975345456136" lon="9.205099686150056"><ele>1533.0</ele><time>2026-05-03T12:01:24Z</time></trkpt><trkpt lat="46.4360364193305" lon="9.205140750458103"><ele>1533.0</ele><time>2026-05-03T12:01:25Z</time></trkpt><trkpt lat="46.43606566517373" lon="9.205299806198818"><ele>1533.0</ele><time>2026-05-03T12:01:27Z</time></trkpt><trkpt lat="46.436007922906086" lon="9.20536836303402"><ele>1533.0</ele><time>2026-05-03T12:01:28Z</time></trkpt><trkpt lat="46.4359046219701" lon="9.205362349174044"><ele>1533.0</ele><time>2026-05-03T12:01:29Z</time></trkpt><trkpt lat="46.43578865851226" lon="9.205415536580805"><ele>1533.0</ele><time>2026-05-03T12:01:30Z</time></trkpt><trkpt lat="46.435651122418456" lon="9.20544370332046"><ele>1533.0</ele><time>2026-05-03T12:01:30.996Z</time></trkpt><trkpt lat="46.435487909440404" lon="9.2055062096274"><ele>1533.0</ele><time>2026-05-03T12:01:31.996Z</time></trkpt><trkpt lat="46.43531617153486" lon="9.205570235432955"><ele>1533.0</ele><time>2026-05-03T12:01:32.996Z</time></trkpt><trkpt lat="46.4351454801182" lon="9.205594983582213"><ele>1535.3333333333335</ele><time>2026-05-03T12:01:33.996Z</time></trkpt><trkpt lat="46.43498140488305" lon="9.205593329489522"><ele>1537.6666666666667</ele><time>2026-05-03T12:01:34.996Z</time></trkpt><trkpt lat="46.434828346078646" lon="9.205574390058667"><ele>1540.0</ele><time>2026-05-03T12:01:35.996Z</time></trkpt><trkpt lat="46.43468088077332" lon="9.205546876399803"><ele>1540.0</ele><time>2026-05-03T12:01:36.996Z</time></trkpt><trkpt lat="46.43455515901863" lon="9.20549239231252"><ele>1540.0</ele><time>2026-05-03T12:01:37.996Z</time></trkpt><trkpt lat="46.4344519036519" lon="9.205431060563445"><ele>1540.0</ele><time>2026-05-03T12:01:38.997Z</time></trkpt><trkpt lat="46.43436556981754" lon="9.20537708706951"><ele>1540.0</ele><time>2026-05-03T12:01:39.996Z</time></trkpt><trkpt lat="46.43428804998283" lon="9.2053788933298"><ele>1540.0</ele><time>2026-05-03T12:01:40.997Z</time></trkpt><trkpt lat="46.43423854368737" lon="9.205445046681554"><ele>1540.0</ele><time>2026-05-03T12:01:41.997Z</time></trkpt><trkpt lat="46.434230104481585" lon="9.205541340104546"><ele>1540.0</ele><time>2026-05-03T12:01:42.997Z</time></trkpt><trkpt lat="46.434277983369455" lon="9.205633354275603"><ele>1540.0</ele><time>2026-05-03T12:01:43.997Z</time></trkpt><trkpt lat="46.43437633426452" lon="9.205673800059962"><ele>1540.0</ele><time>2026-05-03T12:01:44.997Z</time></trkpt><trkpt lat="46.434491524675614" lon="9.205711535209753"><ele>1540.0</ele><time>2026-05-03T12:01:45.997Z</time></trkpt><trkpt lat="46.434617740784915" lon="9.205800519237451"><ele>1534.3333333333335</ele><time>2026-05-03T12:01:46.997Z</time></trkpt><trkpt lat="46.43472436813463" lon="9.205937797122848"><ele>1528.6666666666667</ele><time>2026-05-03T12:01:47.997Z</time></trkpt><trkpt lat="46.43482635456876" lon="9.206103320003843"><ele>1523.0</ele><time>2026-05-03T12:01:48.997Z</time></trkpt><trkpt lat="46.43493505189056" lon="9.206279801826716"><ele>1523.0</ele><time>2026-05-03T12:01:49.997Z</time></trkpt><trkpt lat="46.43505329131368" lon="9.206451959859082"><ele>1523.0</ele><time>2026-05-03T12:01:50.997Z</time></trkpt><trkpt lat="46.43515167815965" lon="9.206646673051392"><ele>1523.0</ele><time>2026-05-03T12:01:51.998Z</time></trkpt><trkpt lat="46.43521913769554" lon="9.20687073768399"><ele>1504.0</ele><time>2026-05-03T12:01:52.998Z</time></trkpt><trkpt lat="46.435659419946866" lon="9.20804629223117"><ele>1504.0</ele><time>2026-05-03T12:01:58.998Z</time></trkpt><trkpt lat="46.435736000982" lon="9.208173876200751"><ele>1504.0</ele><time>2026-05-03T12:01:59.998Z</time></trkpt><trkpt lat="46.43580426011979" lon="9.208252963669038"><ele>1504.0</ele><time>2026-05-03T12:02:00.998Z</time></trkpt><trkpt lat="46.4358832572462" lon="9.208256513825628"><ele>1504.0</ele><time>2026-05-03T12:02:01.998Z</time></trkpt><trkpt lat="46.43595133138539" lon="9.208183706245858"><ele>1504.0</ele><time>2026-05-03T12:02:02.998Z</time></trkpt><trkpt lat="46.436007158097766" lon="9.208066296692309"><ele>1504.0</ele><time>2026-05-03T12:02:03.998Z</time></trkpt><trkpt lat="46.436083259194945" lon="9.207914788718206"><ele>1504.0</ele><time>2026-05-03T12:02:04.998Z</time></trkpt><trkpt lat="46.43619346776458" lon="9.207739007566314"><ele>1504.0</ele><time>2026-05-03T12:02:05.998Z</time></trkpt><trkpt lat="46.43629689702542" lon="9.207582968862324"><ele>1504.0</ele><time>2026-05-03T12:02:06.999Z</time></trkpt><trkpt lat="46.43640479883173" lon="9.207442595893301"><ele>1503.0</ele><time>2026-05-03T12:02:07.999Z</time></trkpt><trkpt lat="46.43648961592889" lon="9.20734725799755"><ele>1502.0</ele><time>2026-05-03T12:02:08.999Z</time></trkpt><trkpt lat="46.43653510219234" lon="9.20727308066593"><ele>1501.0</ele><time>2026-05-03T12:02:09.999Z</time></trkpt><trkpt lat="46.43664434055172" lon="9.207237638976096"><ele>1500.0</ele><time>2026-05-03T12:02:11.999Z</time></trkpt><trkpt lat="46.436609985857544" lon="9.207368009836602"><ele>1499.0</ele><time>2026-05-03T12:02:13.999Z</time></trkpt><trkpt lat="46.43654720252922" lon="9.207466704546166"><ele>1496.5</ele><time>2026-05-03T12:02:14.999Z</time></trkpt><trkpt lat="46.436504937622864" lon="9.207593297530073"><ele>1494.0</ele><time>2026-05-03T12:02:15.999Z</time></trkpt><trkpt lat="46.43653996790797" lon="9.207741308148746"><ele>1491.5</ele><time>2026-05-03T12:02:16.999Z</time></trkpt><trkpt lat="46.43662751499125" lon="9.20786404463531"><ele>1489.0</ele><time>2026-05-03T12:02:17.999Z</time></trkpt><trkpt lat="46.43676654589942" lon="9.207971883771949"><ele>1489.0</ele><time>2026-05-03T12:02:18.999Z</time></trkpt><trkpt lat="46.436911319596945" lon="9.208073171935826"><ele>1489.0</ele><time>2026-05-03T12:02:19.999Z</time></trkpt><trkpt lat="46.43701842135119" lon="9.208183923282135"><ele>1489.0</ele><time>2026-05-03T12:02:20.999Z</time></trkpt><trkpt lat="46.43708781860182" lon="9.208329116951179"><ele>1489.0</ele><time>2026-05-03T12:02:21.999Z</time></trkpt><trkpt lat="46.43711962282184" lon="9.208516647022645"><ele>1489.0</ele><time>2026-05-03T12:02:22.999Z</time></trkpt><trkpt lat="46.43712236244604" lon="9.208735286458417"><ele>1489.0</ele><time>2026-05-03T12:02:23.999Z</time></trkpt><trkpt lat="46.43711226847196" lon="9.208950927273898"><ele>1489.0</ele><time>2026-05-03T12:02:24.999Z</time></trkpt><trkpt lat="46.437083518762016" lon="9.209146143929845"><ele>1489.0</ele><time>2026-05-03T12:02:25.999Z</time></trkpt><trkpt lat="46.43704895837352" lon="9.209269831276195"><ele>1489.0</ele><time>2026-05-03T12:02:26.999Z</time></trkpt><trkpt lat="46.437045572340466" lon="9.209379171937998"><ele>1489.0</ele><time>2026-05-03T12:02:27.999Z</time></trkpt><trkpt lat="46.437102017813515" lon="9.209489079193709"><ele>1489.0</ele><time>2026-05-03T12:02:28.999Z</time></trkpt><trkpt lat="46.437244399275954" lon="9.209483453919848"><ele>1489.0</ele><time>2026-05-03T12:02:31Z</time></trkpt><trkpt lat="46.43727685392929" lon="9.209268910692387"><ele>1484.5</ele><time>2026-05-03T12:02:32Z</time></trkpt><trkpt lat="46.43727814560366" lon="9.209116247600026"><ele>1480.0</ele><time>2026-05-03T12:02:33Z</time></trkpt><trkpt lat="46.43728867126496" lon="9.208945995793524"><ele>1475.5</ele><time>2026-05-03T12:02:34Z</time></trkpt><trkpt lat="46.43731338470901" lon="9.208740118111901"><ele>1471.0</ele><time>2026-05-03T12:02:35Z</time></trkpt><trkpt lat="46.43734584475702" lon="9.208520221879608"><ele>1471.0</ele><time>2026-05-03T12:02:36Z</time></trkpt><trkpt lat="46.43737038706784" lon="9.208285422687808"><ele>1471.0</ele><time>2026-05-03T12:02:37Z</time></trkpt><trkpt lat="46.43737947138872" lon="9.208046769388819"><ele>1471.0</ele><time>2026-05-03T12:02:38Z</time></trkpt><trkpt lat="46.43737989063826" lon="9.207838605125444"><ele>1470.8</ele><time>2026-05-03T12:02:39Z</time></trkpt><trkpt lat="46.43737444917492" lon="9.207658655472923"><ele>1470.6</ele><time>2026-05-03T12:02:40Z</time></trkpt><trkpt lat="46.437370168033006" lon="9.207507592070074"><ele>1470.4</ele><time>2026-05-03T12:02:41Z</time></trkpt><trkpt lat="46.43736967316437" lon="9.207397221487797"><ele>1470.2</ele><time>2026-05-03T12:02:42Z</time></trkpt><trkpt lat="46.43743670144783" lon="9.20732751217169"><ele>1470.0</ele><time>2026-05-03T12:02:44Z</time></trkpt><trkpt lat="46.43748543385079" lon="9.207402087246086"><ele>1470.0</ele><time>2026-05-03T12:02:45Z</time></trkpt><trkpt lat="46.43749221999603" lon="9.20755445910228"><ele>1470.0</ele><time>2026-05-03T12:02:46Z</time></trkpt><trkpt lat="46.43749930195579" lon="9.207750990730798"><ele>1470.0</ele><time>2026-05-03T12:02:47Z</time></trkpt><trkpt lat="46.437518192030865" lon="9.207996707153049"><ele>1470.0</ele><time>2026-05-03T12:02:48Z</time></trkpt><trkpt lat="46.437538727622375" lon="9.20823566594363"><ele>1470.3333333333333</ele><time>2026-05-03T12:02:49Z</time></trkpt><trkpt lat="46.43755977640488" lon="9.208478764426406"><ele>1470.6666666666665</ele><time>2026-05-03T12:02:50Z</time></trkpt><trkpt lat="46.43758181543658" lon="9.208748509252418"><ele>1471.0</ele><time>2026-05-03T12:02:51.001Z</time></trkpt><trkpt lat="46.437586657248445" lon="9.20900291215075"><ele>1470.0</ele><time>2026-05-03T12:02:52Z</time></trkpt><trkpt lat="46.43758333575033" lon="9.209232476444619"><ele>1469.0</ele><time>2026-05-03T12:02:53Z</time></trkpt><trkpt lat="46.437563541135894" lon="9.209444167117406"><ele>1468.0</ele><time>2026-05-03T12:02:54.001Z</time></trkpt><trkpt lat="46.43752543664828" lon="9.20966272622744"><ele>1465.0</ele><time>2026-05-03T12:02:55Z</time></trkpt><trkpt lat="46.437479143056066" lon="9.209896903224589"><ele>1462.0</ele><time>2026-05-03T12:02:56.001Z</time></trkpt><trkpt lat="46.437438305575704" lon="9.21010577070606"><ele>1459.0</ele><time>2026-05-03T12:02:57Z</time></trkpt><trkpt lat="46.43741301774293" lon="9.210300392520008"><ele>1459.0</ele><time>2026-05-03T12:02:58Z</time></trkpt><trkpt lat="46.437341747113" lon="9.210414793145276"><ele>1459.0</ele><time>2026-05-03T12:02:59Z</time></trkpt><trkpt lat="46.43724783157324" lon="9.21048987414918"><ele>1459.0</ele><time>2026-05-03T12:03:00Z</time></trkpt><trkpt lat="46.43709184079579" lon="9.2105873008212"><ele>1459.0</ele><time>2026-05-03T12:03:01Z</time></trkpt><trkpt lat="46.436948049350654" lon="9.210736196443985"><ele>1456.0</ele><time>2026-05-03T12:03:02Z</time></trkpt><trkpt lat="46.43685757218173" lon="9.21089865466393"><ele>1453.0</ele><time>2026-05-03T12:03:03.001Z</time></trkpt><trkpt lat="46.43679474361574" lon="9.21107415748814"><ele>1450.0</ele><time>2026-05-03T12:03:04.001Z</time></trkpt><trkpt lat="46.4367785314359" lon="9.211235891415157"><ele>1447.0</ele><time>2026-05-03T12:03:05.001Z</time></trkpt><trkpt lat="46.4367953512665" lon="9.211366785150025"><ele>1447.0</ele><time>2026-05-03T12:03:06.001Z</time></trkpt><trkpt lat="46.43684709948999" lon="9.211461878925576"><ele>1447.0</ele><time>2026-05-03T12:03:07.001Z</time></trkpt><trkpt lat="46.4369238388662" lon="9.211497261475674"><ele>1447.0</ele><time>2026-05-03T12:03:08.001Z</time></trkpt><trkpt lat="46.437023239566656" lon="9.211471356605214"><ele>1447.0</ele><time>2026-05-03T12:03:09.001Z</time></trkpt><trkpt lat="46.43713730920811" lon="9.211385869091691"><ele>1447.0</ele><time>2026-05-03T12:03:10.001Z</time></trkpt><trkpt lat="46.437278963326385" lon="9.211280540266422"><ele>1446.0</ele><time>2026-05-03T12:03:11.001Z</time></trkpt><trkpt lat="46.43742997929508" lon="9.211162444913075"><ele>1445.0</ele><time>2026-05-03T12:03:12.001Z</time></trkpt><trkpt lat="46.437554372224014" lon="9.21106267605325"><ele>1444.0</ele><time>2026-05-03T12:03:13.001Z</time></trkpt><trkpt lat="46.437656195247" lon="9.21098234353848"><ele>1443.0</ele><time>2026-05-03T12:03:14.001Z</time></trkpt><trkpt lat="46.43774393117055" lon="9.21094295533358"><ele>1443.0</ele><time>2026-05-03T12:03:15.001Z</time></trkpt><trkpt lat="46.43784219840715" lon="9.210909095922107"><ele>1443.0</ele><time>2026-05-03T12:03:17.001Z</time></trkpt><trkpt lat="46.43781911606662" lon="9.211070692921416"><ele>1443.0</ele><time>2026-05-03T12:03:19.001Z</time></trkpt><trkpt lat="46.437707618627385" lon="9.211145337461707"><ele>1443.0</ele><time>2026-05-03T12:03:20.001Z</time></trkpt><trkpt lat="46.437584855605735" lon="9.211199861071401"><ele>1443.0</ele><time>2026-05-03T12:03:21.001Z</time></trkpt><trkpt lat="46.437444987816136" lon="9.211284445666442"><ele>1443.0</ele><time>2026-05-03T12:03:22.001Z</time></trkpt><trkpt lat="46.43729604424194" lon="9.211393830565472"><ele>1443.0</ele><time>2026-05-03T12:03:23.001Z</time></trkpt><trkpt lat="46.437155387360015" lon="9.211534152908332"><ele>1436.6666666666667</ele><time>2026-05-03T12:03:24.001Z</time></trkpt><trkpt lat="46.43701150140548" lon="9.211694040786416"><ele>1430.3333333333335</ele><time>2026-05-03T12:03:25.001Z</time></trkpt><trkpt lat="46.43688004536925" lon="9.21184183508625"><ele>1424.0</ele><time>2026-05-03T12:03:26.001Z</time></trkpt><trkpt lat="46.43675239491053" lon="9.211951847759096"><ele>1424.0</ele><time>2026-05-03T12:03:27.001Z</time></trkpt><trkpt lat="46.43660126795328" lon="9.211997286960083"><ele>1424.0</ele><time>2026-05-03T12:03:28.001Z</time></trkpt><trkpt lat="46.43646643202883" lon="9.21198890352505"><ele>1424.0</ele><time>2026-05-03T12:03:29.001Z</time></trkpt><trkpt lat="46.43636526087273" lon="9.211851556540969"><ele>1424.0</ele><time>2026-05-03T12:03:30.001Z</time></trkpt><trkpt lat="46.436234165351976" lon="9.211736363343709"><ele>1422.5</ele><time>2026-05-03T12:03:31.001Z</time></trkpt><trkpt lat="46.43608866607515" lon="9.211707394029034"><ele>1421.0</ele><time>2026-05-03T12:03:32.001Z</time></trkpt><trkpt lat="46.435925362456246" lon="9.211732699966548"><ele>1419.5</ele><time>2026-05-03T12:03:33.001Z</time></trkpt><trkpt lat="46.435817307753865" lon="9.211758566709115"><ele>1418.0</ele><time>2026-05-03T12:03:34.001Z</time></trkpt><trkpt lat="46.43574131732762" lon="9.211797579993906"><ele>1418.0</ele><time>2026-05-03T12:03:35.001Z</time></trkpt><trkpt lat="46.43566469935537" lon="9.211831353093569"><ele>1418.0</ele><time>2026-05-03T12:03:36.001Z</time></trkpt><trkpt lat="46.43563540374993" lon="9.2119134193868"><ele>1418.0</ele><time>2026-05-03T12:03:36.997Z</time></trkpt><trkpt lat="46.435657271497945" lon="9.212010354262233"><ele>1418.0</ele><time>2026-05-03T12:03:37.997Z</time></trkpt><trkpt lat="46.435717275566454" lon="9.212078800105816"><ele>1418.0</ele><time>2026-05-03T12:03:38.997Z</time></trkpt><trkpt lat="46.43579041547879" lon="9.212088546384143"><ele>1418.0</ele><time>2026-05-03T12:03:39.997Z</time></trkpt><trkpt lat="46.43587828137895" lon="9.212035927133794"><ele>1418.0</ele><time>2026-05-03T12:03:40.997Z</time></trkpt><trkpt lat="46.435976219099494" lon="9.212018650283564"><ele>1418.0</ele><time>2026-05-03T12:03:41.998Z</time></trkpt><trkpt lat="46.43609152226412" lon="9.212114295151043"><ele>1418.0</ele><time>2026-05-03T12:03:42.998Z</time></trkpt><trkpt lat="46.43620114195145" lon="9.212256170528244"><ele>1418.0</ele><time>2026-05-03T12:03:43.997Z</time></trkpt><trkpt lat="46.43631037576415" lon="9.212350447801109"><ele>1410.6666666666667</ele><time>2026-05-03T12:03:44.997Z</time></trkpt><trkpt lat="46.43646629681054" lon="9.212401261898055"><ele>1403.3333333333333</ele><time>2026-05-03T12:03:45.997Z</time></trkpt><trkpt lat="46.43663457121406" lon="9.21241256633774"><ele>1396.0</ele><time>2026-05-03T12:03:46.997Z</time></trkpt><trkpt lat="46.43679910225853" lon="9.21238269662509"><ele>1401.6666666666665</ele><time>2026-05-03T12:03:47.997Z</time></trkpt><trkpt lat="46.43696037985198" lon="9.2123022584947"><ele>1407.3333333333333</ele><time>2026-05-03T12:03:48.998Z</time></trkpt><trkpt lat="46.43711254007502" lon="9.212222711975915"><ele>1413.0</ele><time>2026-05-03T12:03:49.998Z</time></trkpt><trkpt lat="46.43724632791051" lon="9.212153317378885"><ele>1413.0</ele><time>2026-05-03T12:03:50.998Z</time></trkpt><trkpt lat="46.4373512510491" lon="9.212093926153296"><ele>1413.0</ele><time>2026-05-03T12:03:51.998Z</time></trkpt><trkpt lat="46.43743630003223" lon="9.212039888872264"><ele>1413.0</ele><time>2026-05-03T12:03:52.999Z</time></trkpt><trkpt lat="46.43749765964451" lon="9.212004153267054"><ele>1413.0</ele><time>2026-05-03T12:03:53.998Z</time></trkpt><trkpt lat="46.437496482696304" lon="9.212102918747727"><ele>1413.0</ele><time>2026-05-03T12:03:56.998Z</time></trkpt><trkpt lat="46.437431421839555" lon="9.212142897388512"><ele>1413.0</ele><time>2026-05-03T12:03:57.999Z</time></trkpt><trkpt lat="46.4373034408926" lon="9.212188528203836"><ele>1413.0</ele><time>2026-05-03T12:03:58.999Z</time></trkpt><trkpt lat="46.43716223853784" lon="9.212287011567739"><ele>1413.0</ele><time>2026-05-03T12:03:59.999Z</time></trkpt><trkpt lat="46.43702006374789" lon="9.212402571192193"><ele>1413.0</ele><time>2026-05-03T12:04:00.999Z</time></trkpt><trkpt lat="46.43687529397303" lon="9.212532904254289"><ele>1407.3333333333333</ele><time>2026-05-03T12:04:01.999Z</time></trkpt><trkpt lat="46.43672606764052" lon="9.212652430682445"><ele>1401.6666666666665</ele><time>2026-05-03T12:04:02.999Z</time></trkpt><trkpt lat="46.4365672124598" lon="9.212733656053908"><ele>1396.0</ele><time>2026-05-03T12:04:03.999Z</time></trkpt><trkpt lat="46.43640182367077" lon="9.212784651907585"><ele>1392.0</ele><time>2026-05-03T12:04:04.999Z</time></trkpt><trkpt lat="46.43623800256121" lon="9.212822215072691"><ele>1388.0</ele><time>2026-05-03T12:04:05.999Z</time></trkpt><trkpt lat="46.436067119503825" lon="9.2128478872053"><ele>1384.0</ele><time>2026-05-03T12:04:06.999Z</time></trkpt><trkpt lat="46.435901458723016" lon="9.212850265539325"><ele>1384.0</ele><time>2026-05-03T12:04:07.999Z</time></trkpt><trkpt lat="46.43574381691965" lon="9.212799398104893"><ele>1384.0</ele><time>2026-05-03T12:04:09Z</time></trkpt><trkpt lat="46.43560250222377" lon="9.212756189049395"><ele>1384.0</ele><time>2026-05-03T12:04:09.999Z</time></trkpt><trkpt lat="46.435457239438904" lon="9.212778595434651"><ele>1383.0</ele><time>2026-05-03T12:04:10.999Z</time></trkpt><trkpt lat="46.4352966755693" lon="9.212821249000479"><ele>1382.0</ele><time>2026-05-03T12:04:11.999Z</time></trkpt><trkpt lat="46.435133729059395" lon="9.212883804166854"><ele>1381.0</ele><time>2026-05-03T12:04:12.999Z</time></trkpt><trkpt lat="46.43499975955928" lon="9.212927107694494"><ele>1381.0</ele><time>2026-05-03T12:04:13.999Z</time></trkpt><trkpt lat="46.434879242803056" lon="9.212967295906811"><ele>1381.0</ele><time>2026-05-03T12:04:14.999Z</time></trkpt><trkpt lat="46.434772368484154" lon="9.213006041755467"><ele>1381.0</ele><time>2026-05-03T12:04:15.999Z</time></trkpt><trkpt lat="46.43469168873732" lon="9.213041036424464"><ele>1381.0</ele><time>2026-05-03T12:04:17Z</time></trkpt><trkpt lat="46.43464379952678" lon="9.213120011556924"><ele>1381.0</ele><time>2026-05-03T12:04:18Z</time></trkpt><trkpt lat="46.434643552305126" lon="9.213214247191216"><ele>1381.0</ele><time>2026-05-03T12:04:19Z</time></trkpt><trkpt lat="46.434756371327815" lon="9.213295535302416"><ele>1381.0</ele><time>2026-05-03T12:04:21.001Z</time></trkpt><trkpt lat="46.43485087498406" lon="9.213247324363952"><ele>1381.0</ele><time>2026-05-03T12:04:22Z</time></trkpt><trkpt lat="46.43496561275754" lon="9.213184667154344"><ele>1381.0</ele><time>2026-05-03T12:04:23Z</time></trkpt><trkpt lat="46.43511198194482" lon="9.213131369068792"><ele>1381.0</ele><time>2026-05-03T12:04:24.001Z</time></trkpt><trkpt lat="46.4352526051928" lon="9.213100294315188"><ele>1381.0</ele><time>2026-05-03T12:04:25Z</time></trkpt><trkpt lat="46.43537198681637" lon="9.21308966811406"><ele>1381.0</ele><time>2026-05-03T12:04:26Z</time></trkpt><trkpt lat="46.43546829911599" lon="9.213115553285201"><ele>1381.0</ele><time>2026-05-03T12:04:27Z</time></trkpt><trkpt lat="46.43553623286517" lon="9.21326126192963"><ele>1374.6666666666665</ele><time>2026-05-03T12:04:28Z</time></trkpt><trkpt lat="46.43558772668359" lon="9.213465073616568"><ele>1368.3333333333333</ele><time>2026-05-03T12:04:29Z</time></trkpt><trkpt lat="46.43563580087124" lon="9.213701699110727"><ele>1362.0</ele><time>2026-05-03T12:04:30Z</time></trkpt><trkpt lat="46.435681132868936" lon="9.21394613205392"><ele>1360.0</ele><time>2026-05-03T12:04:31Z</time></trkpt><trkpt lat="46.43570714679353" lon="9.214210015841921"><ele>1358.0</ele><time>2026-05-03T12:04:32Z</time></trkpt><trkpt lat="46.435704355077405" lon="9.214492260034763"><ele>1356.0</ele><time>2026-05-03T12:04:33Z</time></trkpt><trkpt lat="46.43566812772351" lon="9.214752414702032"><ele>1355.0</ele><time>2026-05-03T12:04:34Z</time></trkpt><trkpt lat="46.43564027088218" lon="9.214992008328952"><ele>1354.0</ele><time>2026-05-03T12:04:35Z</time></trkpt><trkpt lat="46.435614335597535" lon="9.215207398354842"><ele>1353.0</ele><time>2026-05-03T12:04:36Z</time></trkpt><trkpt lat="46.43561896163824" lon="9.21538178671982"><ele>1352.0</ele><time>2026-05-03T12:04:37Z</time></trkpt><trkpt lat="46.435638627930814" lon="9.215534734848172"><ele>1355.5</ele><time>2026-05-03T12:04:38Z</time></trkpt><trkpt lat="46.43562256032614" lon="9.215673535391078"><ele>1359.0</ele><time>2026-05-03T12:04:39Z</time></trkpt><trkpt lat="46.43554251882811" lon="9.215775321186868"><ele>1362.5</ele><time>2026-05-03T12:04:40Z</time></trkpt><trkpt lat="46.4354193419745" lon="9.215801814554935"><ele>1366.0</ele><time>2026-05-03T12:04:41Z</time></trkpt><trkpt lat="46.43526386479487" lon="9.215780497107794"><ele>1357.5</ele><time>2026-05-03T12:04:42Z</time></trkpt><trkpt lat="46.43514140517143" lon="9.215744026607574"><ele>1349.0</ele><time>2026-05-03T12:04:43Z</time></trkpt><trkpt lat="46.435002097252614" lon="9.215702625749323"><ele>1340.5</ele><time>2026-05-03T12:04:44Z</time></trkpt><trkpt lat="46.43486498080606" lon="9.21568467968142"><ele>1332.0</ele><time>2026-05-03T12:04:45.001Z</time></trkpt><trkpt lat="46.434739975342666" lon="9.215697669982061"><ele>1332.0</ele><time>2026-05-03T12:04:46.001Z</time></trkpt><trkpt lat="46.434642440349116" lon="9.215765013325855"><ele>1332.0</ele><time>2026-05-03T12:04:47.001Z</time></trkpt><trkpt lat="46.43457592378135" lon="9.215864269821601"><ele>1332.0</ele><time>2026-05-03T12:04:48.001Z</time></trkpt><trkpt lat="46.43451416735239" lon="9.2159251725223"><ele>1332.0</ele><time>2026-05-03T12:04:49.001Z</time></trkpt><trkpt lat="46.434437163330514" lon="9.215844777937738"><ele>1332.0</ele><time>2026-05-03T12:04:51.001Z</time></trkpt><trkpt lat="46.434470427153926" lon="9.215738405921025"><ele>1325.0</ele><time>2026-05-03T12:04:52.001Z</time></trkpt><trkpt lat="46.43489799177929" lon="9.215009005736611"><ele>1325.0</ele><time>2026-05-03T12:04:57.002Z</time></trkpt><trkpt lat="46.43495612773093" lon="9.214837874861523"><ele>1325.0</ele><time>2026-05-03T12:04:58.001Z</time></trkpt><trkpt lat="46.435004371242584" lon="9.214686883162203"><ele>1325.0</ele><time>2026-05-03T12:04:59.001Z</time></trkpt><trkpt lat="46.435012169201755" lon="9.214572276945406"><ele>1325.0</ele><time>2026-05-03T12:05:00.001Z</time></trkpt><trkpt lat="46.43496677476767" lon="9.214466993910454"><ele>1325.0</ele><time>2026-05-03T12:05:01.001Z</time></trkpt><trkpt lat="46.434848473715206" lon="9.214390749912107"><ele>1326.3333333333335</ele><time>2026-05-03T12:05:02.002Z</time></trkpt><trkpt lat="46.43469351803259" lon="9.214405286419659"><ele>1327.6666666666667</ele><time>2026-05-03T12:05:03.001Z</time></trkpt><trkpt lat="46.434527533569494" lon="9.214463569263271"><ele>1329.0</ele><time>2026-05-03T12:05:04.001Z</time></trkpt><trkpt lat="46.43434756218292" lon="9.214492700367952"><ele>1324.6666666666667</ele><time>2026-05-03T12:05:05.001Z</time></trkpt><trkpt lat="46.43417892847282" lon="9.214497173993504"><ele>1320.3333333333335</ele><time>2026-05-03T12:05:06.001Z</time></trkpt><trkpt lat="46.434029588233216" lon="9.214533647226135"><ele>1316.0</ele><time>2026-05-03T12:05:07.001Z</time></trkpt><trkpt lat="46.43390760746884" lon="9.214647880460399"><ele>1311.3333333333335</ele><time>2026-05-03T12:05:08.002Z</time></trkpt><trkpt lat="46.43380518295878" lon="9.214847467404446"><ele>1306.6666666666667</ele><time>2026-05-03T12:05:09.001Z</time></trkpt><trkpt lat="46.43368989303101" lon="9.215079645469563"><ele>1302.0</ele><time>2026-05-03T12:05:10.001Z</time></trkpt><trkpt lat="46.433517676472356" lon="9.215225052299422"><ele>1302.0</ele><time>2026-05-03T12:05:11.001Z</time></trkpt><trkpt lat="46.433335785807735" lon="9.215321566161444"><ele>1302.0</ele><time>2026-05-03T12:05:12.001Z</time></trkpt><trkpt lat="46.43313382505093" lon="9.21543233356113"><ele>1302.0</ele><time>2026-05-03T12:05:13.001Z</time></trkpt><trkpt lat="46.43293362293549" lon="9.215537840501057"><ele>1300.0</ele><time>2026-05-03T12:05:14.001Z</time></trkpt><trkpt lat="46.43274073498385" lon="9.215639492860593"><ele>1298.0</ele><time>2026-05-03T12:05:15.001Z</time></trkpt><trkpt lat="46.43257183380198" lon="9.215729342999392"><ele>1296.0</ele><time>2026-05-03T12:05:16.001Z</time></trkpt><trkpt lat="46.43243986104393" lon="9.2158066407315"><ele>1296.0</ele><time>2026-05-03T12:05:17.002Z</time></trkpt><trkpt lat="46.432332774789" lon="9.215913448776899"><ele>1296.0</ele><time>2026-05-03T12:05:18.002Z</time></trkpt><trkpt lat="46.43224785520537" lon="9.216015286032446"><ele>1296.0</ele><time>2026-05-03T12:05:19.002Z</time></trkpt><trkpt lat="46.43219241061876" lon="9.216147905160254"><ele>1296.0</ele><time>2026-05-03T12:05:20.002Z</time></trkpt><trkpt lat="46.4321649392384" lon="9.21626199312"><ele>1296.0</ele><time>2026-05-03T12:05:21.002Z</time></trkpt><trkpt lat="46.43207874288227" lon="9.216290997944915"><ele>1296.0</ele><time>2026-05-03T12:05:23.002Z</time></trkpt><trkpt lat="46.43204269973753" lon="9.216119095909313"><ele>1296.0</ele><time>2026-05-03T12:05:25.002Z</time></trkpt><trkpt lat="46.43212031068382" lon="9.215971467432473"><ele>1296.0</ele><time>2026-05-03T12:05:26.002Z</time></trkpt><trkpt lat="46.43217751883832" lon="9.215783741188519"><ele>1296.0</ele><time>2026-05-03T12:05:27.002Z</time></trkpt><trkpt lat="46.43222705441913" lon="9.215534156653959"><ele>1293.0</ele><time>2026-05-03T12:05:28.002Z</time></trkpt><trkpt lat="46.4322770067717" lon="9.21529935539646"><ele>1290.0</ele><time>2026-05-03T12:05:29.002Z</time></trkpt><trkpt lat="46.432340480900166" lon="9.215083784270012"><ele>1287.0</ele><time>2026-05-03T12:05:30.002Z</time></trkpt><trkpt lat="46.432402647537145" lon="9.214925174403334"><ele>1284.8</ele><time>2026-05-03T12:05:31.003Z</time></trkpt><trkpt lat="46.43246221751696" lon="9.214773151425822"><ele>1282.6</ele><time>2026-05-03T12:05:32.002Z</time></trkpt><trkpt lat="46.432502308186436" lon="9.214652895927529"><ele>1280.3999999999999</ele><time>2026-05-03T12:05:33.002Z</time></trkpt><trkpt lat="46.43251676765169" lon="9.214546891888876"><ele>1278.1999999999998</ele><time>2026-05-03T12:05:34.002Z</time></trkpt><trkpt lat="46.43239171856712" lon="9.21441672730807"><ele>1276.0</ele><time>2026-05-03T12:05:36.002Z</time></trkpt><trkpt lat="46.43229008890627" lon="9.21455205764021"><ele>1276.0</ele><time>2026-05-03T12:05:37.002Z</time></trkpt><trkpt lat="46.43217762656972" lon="9.21465797958431"><ele>1276.0</ele><time>2026-05-03T12:05:38.002Z</time></trkpt><trkpt lat="46.43203482835974" lon="9.214786171450083"><ele>1276.0</ele><time>2026-05-03T12:05:39.002Z</time></trkpt><trkpt lat="46.43190259560001" lon="9.214923432655961"><ele>1275.5</ele><time>2026-05-03T12:05:40.002Z</time></trkpt><trkpt lat="46.431776902985874" lon="9.215031773363256"><ele>1275.0</ele><time>2026-05-03T12:05:41.002Z</time></trkpt><trkpt lat="46.43170915294464" lon="9.215175013282206"><ele>1274.5</ele><time>2026-05-03T12:05:42.002Z</time></trkpt><trkpt lat="46.43166486695355" lon="9.215284198646168"><ele>1274.0</ele><time>2026-05-03T12:05:42.998Z</time></trkpt><trkpt lat="46.43157236080248" lon="9.215353821555006"><ele>1274.0</ele><time>2026-05-03T12:05:44.998Z</time></trkpt><trkpt lat="46.43152662818517" lon="9.21528751025513"><ele>1274.0</ele><time>2026-05-03T12:05:45.998Z</time></trkpt><trkpt lat="46.43155058802035" lon="9.215166431192964"><ele>1274.0</ele><time>2026-05-03T12:05:46.998Z</time></trkpt><trkpt lat="46.43160492957072" lon="9.215000871616853"><ele>1274.0</ele><time>2026-05-03T12:05:47.998Z</time></trkpt><trkpt lat="46.43165867559719" lon="9.214831058372907"><ele>1274.0</ele><time>2026-05-03T12:05:48.998Z</time></trkpt><trkpt lat="46.43171209578212" lon="9.214652570419746"><ele>1271.2</ele><time>2026-05-03T12:05:49.998Z</time></trkpt><trkpt lat="46.4317421585994" lon="9.214501381415932"><ele>1268.4</ele><time>2026-05-03T12:05:50.999Z</time></trkpt><trkpt lat="46.431798810076565" lon="9.21438484367713"><ele>1265.6</ele><time>2026-05-03T12:05:51.998Z</time></trkpt><trkpt lat="46.431825682987444" lon="9.214265859471846"><ele>1262.8</ele><time>2026-05-03T12:05:52.998Z</time></trkpt><trkpt lat="46.43186207414823" lon="9.214149845421586"><ele>1260.0</ele><time>2026-05-03T12:05:54Z</time></trkpt><trkpt lat="46.43190744168995" lon="9.214041562407326"><ele>1259.6</ele><time>2026-05-03T12:05:54.999Z</time></trkpt><trkpt lat="46.431939340177166" lon="9.213957281155468"><ele>1259.2</ele><time>2026-05-03T12:05:55.999Z</time></trkpt><trkpt lat="46.43196701618296" lon="9.21382885675042"><ele>1258.8</ele><time>2026-05-03T12:05:57.999Z</time></trkpt><trkpt lat="46.43192661424323" lon="9.213711595921895"><ele>1258.4</ele><time>2026-05-03T12:06:00Z</time></trkpt><trkpt lat="46.43178789745881" lon="9.213687824862719"><ele>1258.0</ele><time>2026-05-03T12:06:01.999Z</time></trkpt><trkpt lat="46.43172209950943" lon="9.213777382379252"><ele>1258.0</ele><time>2026-05-03T12:06:03Z</time></trkpt><trkpt lat="46.43163781675438" lon="9.21385349590438"><ele>1258.0</ele><time>2026-05-03T12:06:04Z</time></trkpt><trkpt lat="46.43153872238395" lon="9.213935431324712"><ele>1258.0</ele><time>2026-05-03T12:06:05Z</time></trkpt><trkpt lat="46.43142809898906" lon="9.214012742188052"><ele>1258.0</ele><time>2026-05-03T12:06:06Z</time></trkpt><trkpt lat="46.43132942156877" lon="9.214089068098987"><ele>1258.0</ele><time>2026-05-03T12:06:07Z</time></trkpt><trkpt lat="46.43121642031823" lon="9.214176190791342"><ele>1252.3333333333333</ele><time>2026-05-03T12:06:08Z</time></trkpt><trkpt lat="46.431085204736384" lon="9.21430566892093"><ele>1246.6666666666667</ele><time>2026-05-03T12:06:09Z</time></trkpt><trkpt lat="46.43090169048034" lon="9.214458930090661"><ele>1241.0</ele><time>2026-05-03T12:06:10Z</time></trkpt><trkpt lat="46.4307161677969" lon="9.214600086373242"><ele>1241.0</ele><time>2026-05-03T12:06:11Z</time></trkpt><trkpt lat="46.430536439455565" lon="9.214743510242483"><ele>1241.0</ele><time>2026-05-03T12:06:12Z</time></trkpt><trkpt lat="46.430362749524285" lon="9.214889824116215"><ele>1241.0</ele><time>2026-05-03T12:06:13Z</time></trkpt><trkpt lat="46.43020760568317" lon="9.215040030191814"><ele>1241.6666666666667</ele><time>2026-05-03T12:06:14Z</time></trkpt><trkpt lat="46.43005241144643" lon="9.215184615867923"><ele>1242.3333333333333</ele><time>2026-05-03T12:06:15Z</time></trkpt><trkpt lat="46.4298992277443" lon="9.215332923175193"><ele>1243.0</ele><time>2026-05-03T12:06:16Z</time></trkpt><trkpt lat="46.42974999027808" lon="9.21548998167423"><ele>1239.6666666666665</ele><time>2026-05-03T12:06:17Z</time></trkpt><trkpt lat="46.42960649898385" lon="9.215659770491502"><ele>1236.3333333333333</ele><time>2026-05-03T12:06:18Z</time></trkpt><trkpt lat="46.4294756423102" lon="9.215865074628377"><ele>1233.0</ele><time>2026-05-03T12:06:19.001Z</time></trkpt><trkpt lat="46.42936915972416" lon="9.216108261085148"><ele>1233.0</ele><time>2026-05-03T12:06:20.001Z</time></trkpt><trkpt lat="46.42926200268648" lon="9.216351184931025"><ele>1233.0</ele><time>2026-05-03T12:06:21.001Z</time></trkpt><trkpt lat="46.429164349400914" lon="9.216588364154525"><ele>1233.0</ele><time>2026-05-03T12:06:22.001Z</time></trkpt><trkpt lat="46.429067330365555" lon="9.21682576227896"><ele>1234.6666666666667</ele><time>2026-05-03T12:06:23.001Z</time></trkpt><trkpt lat="46.428971086254236" lon="9.217063690562313"><ele>1236.3333333333335</ele><time>2026-05-03T12:06:24.001Z</time></trkpt><trkpt lat="46.42886890499906" lon="9.2172954352721"><ele>1238.0</ele><time>2026-05-03T12:06:25.001Z</time></trkpt><trkpt lat="46.428757778590075" lon="9.217534986125587"><ele>1233.3333333333335</ele><time>2026-05-03T12:06:26.001Z</time></trkpt><trkpt lat="46.42865509033403" lon="9.21775667589412"><ele>1228.6666666666667</ele><time>2026-05-03T12:06:27.001Z</time></trkpt><trkpt lat="46.42855258848094" lon="9.217974948586452"><ele>1224.0</ele><time>2026-05-03T12:06:28.001Z</time></trkpt><trkpt lat="46.42843777163658" lon="9.218181315271456"><ele>1224.0</ele><time>2026-05-03T12:06:29.001Z</time></trkpt><trkpt lat="46.42832065227014" lon="9.218396662311784"><ele>1224.0</ele><time>2026-05-03T12:06:30.001Z</time></trkpt><trkpt lat="46.428202369533864" lon="9.218593924367402"><ele>1224.0</ele><time>2026-05-03T12:06:31.001Z</time></trkpt><trkpt lat="46.42808974555339" lon="9.218777547414673"><ele>1224.0</ele><time>2026-05-03T12:06:32.001Z</time></trkpt><trkpt lat="46.42798241222532" lon="9.218948197107583"><ele>1224.0</ele><time>2026-05-03T12:06:33.001Z</time></trkpt><trkpt lat="46.42787557312606" lon="9.219117537036272"><ele>1224.0</ele><time>2026-05-03T12:06:34.001Z</time></trkpt><trkpt lat="46.427766316251265" lon="9.21930578664585"><ele>1221.3333333333333</ele><time>2026-05-03T12:06:35.001Z</time></trkpt><trkpt lat="46.42767415616875" lon="9.219538496754646"><ele>1218.6666666666665</ele><time>2026-05-03T12:06:36.001Z</time></trkpt><trkpt lat="46.42765559523632" lon="9.219848771884875"><ele>1216.0</ele><time>2026-05-03T12:06:37.001Z</time></trkpt><trkpt lat="46.427647060900874" lon="9.22016332705025"><ele>1216.0</ele><time>2026-05-03T12:06:38.001Z</time></trkpt><trkpt lat="46.42762390811747" lon="9.220476017805273"><ele>1216.0</ele><time>2026-05-03T12:06:39.001Z</time></trkpt><trkpt lat="46.42757454543024" lon="9.220777048093233"><ele>1216.0</ele><time>2026-05-03T12:06:40.001Z</time></trkpt><trkpt lat="46.42750136167453" lon="9.221057047080095"><ele>1216.3333333333333</ele><time>2026-05-03T12:06:41.001Z</time></trkpt><trkpt lat="46.42742894600333" lon="9.22132994823984"><ele>1216.6666666666667</ele><time>2026-05-03T12:06:42.001Z</time></trkpt><trkpt lat="46.427369827598326" lon="9.221594182280668"><ele>1217.0</ele><time>2026-05-03T12:06:43.001Z</time></trkpt><trkpt lat="46.42731292775672" lon="9.22186014446958"><ele>1215.3333333333335</ele><time>2026-05-03T12:06:44.002Z</time></trkpt><trkpt lat="46.42725269286508" lon="9.222122947900347"><ele>1213.6666666666667</ele><time>2026-05-03T12:06:45.002Z</time></trkpt><trkpt lat="46.42718894177475" lon="9.222376305769151"><ele>1212.0</ele><time>2026-05-03T12:06:46.002Z</time></trkpt><trkpt lat="46.42710617047812" lon="9.222621035856548"><ele>1207.3333333333333</ele><time>2026-05-03T12:06:47.002Z</time></trkpt><trkpt lat="46.427018163303885" lon="9.222852224418906"><ele>1202.6666666666665</ele><time>2026-05-03T12:06:48.002Z</time></trkpt><trkpt lat="46.4269153694617" lon="9.223076255788472"><ele>1198.0</ele><time>2026-05-03T12:06:49.002Z</time></trkpt><trkpt lat="46.4268223016188" lon="9.223280139943798"><ele>1195.5</ele><time>2026-05-03T12:06:50.002Z</time></trkpt><trkpt lat="46.42674710288813" lon="9.223449470943947"><ele>1193.0</ele><time>2026-05-03T12:06:51.002Z</time></trkpt><trkpt lat="46.426665896086696" lon="9.223604329413927"><ele>1190.5</ele><time>2026-05-03T12:06:52.002Z</time></trkpt><trkpt lat="46.426572746463805" lon="9.223733142628976"><ele>1188.0</ele><time>2026-05-03T12:06:53.002Z</time></trkpt><trkpt lat="46.42647028227284" lon="9.223831971180674"><ele>1188.0</ele><time>2026-05-03T12:06:54.002Z</time></trkpt><trkpt lat="46.42635999377479" lon="9.22390064641993"><ele>1188.0</ele><time>2026-05-03T12:06:55.002Z</time></trkpt><trkpt lat="46.42623846737855" lon="9.223914187313506"><ele>1188.0</ele><time>2026-05-03T12:06:56.002Z</time></trkpt><trkpt lat="46.42611941163789" lon="9.223930012006516"><ele>1188.0</ele><time>2026-05-03T12:06:57.002Z</time></trkpt><trkpt lat="46.42599827191881" lon="9.223950010607323"><ele>1186.75</ele><time>2026-05-03T12:06:58.002Z</time></trkpt><trkpt lat="46.4258739747594" lon="9.223973375983439"><ele>1185.5</ele><time>2026-05-03T12:06:59.003Z</time></trkpt><trkpt lat="46.42575090119796" lon="9.224003640638154"><ele>1184.25</ele><time>2026-05-03T12:07:00.002Z</time></trkpt><trkpt lat="46.425621132273136" lon="9.224036502268392"><ele>1183.0</ele><time>2026-05-03T12:07:01.002Z</time></trkpt><trkpt lat="46.4254933040085" lon="9.224065501368058"><ele>1183.0</ele><time>2026-05-03T12:07:02.002Z</time></trkpt><trkpt lat="46.42536794518662" lon="9.224094227062984"><ele>1183.0</ele><time>2026-05-03T12:07:03.002Z</time></trkpt><trkpt lat="46.425241290791135" lon="9.224123739266107"><ele>1183.0</ele><time>2026-05-03T12:07:04.002Z</time></trkpt><trkpt lat="46.42512091048904" lon="9.224144396552633"><ele>1183.0</ele><time>2026-05-03T12:07:05.002Z</time></trkpt><trkpt lat="46.424996250616196" lon="9.224166451933629"><ele>1183.0</ele><time>2026-05-03T12:07:06.002Z</time></trkpt><trkpt lat="46.42487047789977" lon="9.22419138039066"><ele>1183.0</ele><time>2026-05-03T12:07:07.002Z</time></trkpt><trkpt lat="46.42474318857381" lon="9.224215444795487"><ele>1183.0</ele><time>2026-05-03T12:07:08.003Z</time></trkpt><trkpt lat="46.42461972635945" lon="9.224240017630578"><ele>1183.0</ele><time>2026-05-03T12:07:09.002Z</time></trkpt><trkpt lat="46.42449349480825" lon="9.224265193768508"><ele>1181.5</ele><time>2026-05-03T12:07:10.002Z</time></trkpt><trkpt lat="46.42436675767039" lon="9.224290116539693"><ele>1180.0</ele><time>2026-05-03T12:07:11.002Z</time></trkpt><trkpt lat="46.424238873809976" lon="9.22430506671981"><ele>1178.5</ele><time>2026-05-03T12:07:12.002Z</time></trkpt><trkpt lat="46.42411292793396" lon="9.224331462822624"><ele>1177.0</ele><time>2026-05-03T12:07:13.002Z</time></trkpt><trkpt lat="46.42398692007028" lon="9.224354593364739"><ele>1177.0</ele><time>2026-05-03T12:07:14.002Z</time></trkpt><trkpt lat="46.42386452412882" lon="9.224380400087872"><ele>1177.0</ele><time>2026-05-03T12:07:15.002Z</time></trkpt><trkpt lat="46.42375175409131" lon="9.22440770797073"><ele>1177.0</ele><time>2026-05-03T12:07:16.003Z</time></trkpt><trkpt lat="46.42363848124921" lon="9.224428446292649"><ele>1177.0</ele><time>2026-05-03T12:07:17.003Z</time></trkpt><trkpt lat="46.42352971105381" lon="9.224465340522642"><ele>1175.75</ele><time>2026-05-03T12:07:18.003Z</time></trkpt><trkpt lat="46.42341902069102" lon="9.224513095771943"><ele>1174.5</ele><time>2026-05-03T12:07:19.003Z</time></trkpt><trkpt lat="46.423306695830924" lon="9.224564522271255"><ele>1173.25</ele><time>2026-05-03T12:07:20.003Z</time></trkpt><trkpt lat="46.42318832701474" lon="9.224621238330661"><ele>1172.0</ele><time>2026-05-03T12:07:21.003Z</time></trkpt><trkpt lat="46.42306285252877" lon="9.224684047217352"><ele>1171.75</ele><time>2026-05-03T12:07:22.003Z</time></trkpt><trkpt lat="46.42293300323308" lon="9.224750234100716"><ele>1171.5</ele><time>2026-05-03T12:07:23.003Z</time></trkpt><trkpt lat="46.42279932325133" lon="9.224813676851761"><ele>1171.25</ele><time>2026-05-03T12:07:24.003Z</time></trkpt><trkpt lat="46.42266628233743" lon="9.224876299676014"><ele>1171.0</ele><time>2026-05-03T12:07:25.003Z</time></trkpt><trkpt lat="46.42254870493634" lon="9.224937473235059"><ele>1170.75</ele><time>2026-05-03T12:07:26.003Z</time></trkpt><trkpt lat="46.42243803998204" lon="9.22499295567915"><ele>1170.5</ele><time>2026-05-03T12:07:27.003Z</time></trkpt><trkpt lat="46.422323215405505" lon="9.225047324924684"><ele>1170.25</ele><time>2026-05-03T12:07:28.003Z</time></trkpt><trkpt lat="46.422200918350306" lon="9.225097972259093"><ele>1170.0</ele><time>2026-05-03T12:07:29.003Z</time></trkpt><trkpt lat="46.422078320462916" lon="9.225151265346204"><ele>1170.0</ele><time>2026-05-03T12:07:30.003Z</time></trkpt><trkpt lat="46.421954615826536" lon="9.225203195197885"><ele>1170.0</ele><time>2026-05-03T12:07:31.003Z</time></trkpt><trkpt lat="46.421829594492536" lon="9.225251014745293"><ele>1170.0</ele><time>2026-05-03T12:07:32.003Z</time></trkpt><trkpt lat="46.42170782512768" lon="9.225297543602894"><ele>1170.0</ele><time>2026-05-03T12:07:33.003Z</time></trkpt><trkpt lat="46.42158650091459" lon="9.225340746726907"><ele>1170.0</ele><time>2026-05-03T12:07:34.003Z</time></trkpt><trkpt lat="46.42146451077971" lon="9.22537957238782"><ele>1170.0</ele><time>2026-05-03T12:07:35.003Z</time></trkpt><trkpt lat="46.421340673745846" lon="9.225409702702912"><ele>1170.0</ele><time>2026-05-03T12:07:36.003Z</time></trkpt><trkpt lat="46.421216177636865" lon="9.2254267359053"><ele>1170.0</ele><time>2026-05-03T12:07:37.003Z</time></trkpt><trkpt lat="46.42109227761053" lon="9.225434002569125"><ele>1169.75</ele><time>2026-05-03T12:07:38.003Z</time></trkpt><trkpt lat="46.42096733425416" lon="9.225426692033428"><ele>1169.5</ele><time>2026-05-03T12:07:39.003Z</time></trkpt><trkpt lat="46.42084565276825" lon="9.22543013115915"><ele>1169.25</ele><time>2026-05-03T12:07:40.003Z</time></trkpt><trkpt lat="46.42072176215866" lon="9.225433267422607"><ele>1169.0</ele><time>2026-05-03T12:07:41.003Z</time></trkpt><trkpt lat="46.4205963702838" lon="9.225435294651032"><ele>1169.25</ele><time>2026-05-03T12:07:42.004Z</time></trkpt><trkpt lat="46.42047240598697" lon="9.225438700960712"><ele>1169.5</ele><time>2026-05-03T12:07:43.003Z</time></trkpt><trkpt lat="46.42034785229799" lon="9.225440101019949"><ele>1169.75</ele><time>2026-05-03T12:07:44.003Z</time></trkpt><trkpt lat="46.42022787836116" lon="9.225439441801745"><ele>1170.0</ele><time>2026-05-03T12:07:45.005Z</time></trkpt><trkpt lat="46.420110483704654" lon="9.225444894875096"><ele>1170.0</ele><time>2026-05-03T12:07:46.003Z</time></trkpt><trkpt lat="46.419985288812754" lon="9.225446003189337"><ele>1170.0</ele><time>2026-05-03T12:07:47.003Z</time></trkpt><trkpt lat="46.4198603390154" lon="9.2254733439991"><ele>1170.0</ele><time>2026-05-03T12:07:48.003Z</time></trkpt><trkpt lat="46.41973449455063" lon="9.225494468912304"><ele>1170.0</ele><time>2026-05-03T12:07:49.004Z</time></trkpt><trkpt lat="46.41960633976499" lon="9.225512527305735"><ele>1170.0</ele><time>2026-05-03T12:07:50.004Z</time></trkpt><trkpt lat="46.41947918553214" lon="9.22553840448394"><ele>1170.0</ele><time>2026-05-03T12:07:51.004Z</time></trkpt><trkpt lat="46.41935316848023" lon="9.22556331085112"><ele>1170.0</ele><time>2026-05-03T12:07:52.004Z</time></trkpt><trkpt lat="46.41922707378305" lon="9.22559253086794"><ele>1170.0</ele><time>2026-05-03T12:07:53.004Z</time></trkpt><trkpt lat="46.41910447980598" lon="9.225633749191942"><ele>1170.75</ele><time>2026-05-03T12:07:54.004Z</time></trkpt><trkpt lat="46.41898726983673" lon="9.225697605176007"><ele>1171.5</ele><time>2026-05-03T12:07:55.004Z</time></trkpt><trkpt lat="46.41887614261638" lon="9.225794571682226"><ele>1172.25</ele><time>2026-05-03T12:07:56.004Z</time></trkpt><trkpt lat="46.418767540052116" lon="9.225904164885401"><ele>1173.0</ele><time>2026-05-03T12:07:57.004Z</time></trkpt><trkpt lat="46.418663131373904" lon="9.226035644215715"><ele>1173.0</ele><time>2026-05-03T12:07:58.004Z</time></trkpt><trkpt lat="46.418545006864754" lon="9.226146668138941"><ele>1173.0</ele><time>2026-05-03T12:07:59.004Z</time></trkpt><trkpt lat="46.41841290488261" lon="9.226214474313844"><ele>1173.0</ele><time>2026-05-03T12:08:00.004Z</time></trkpt><trkpt lat="46.41826771472151" lon="9.226216783477424"><ele>1173.0</ele><time>2026-05-03T12:08:01.004Z</time></trkpt><trkpt lat="46.41812448304667" lon="9.226179189358783"><ele>1172.25</ele><time>2026-05-03T12:08:02.004Z</time></trkpt><trkpt lat="46.4179830566244" lon="9.226153249659717"><ele>1171.5</ele><time>2026-05-03T12:08:03.004Z</time></trkpt><trkpt lat="46.417839101117394" lon="9.226112124848683"><ele>1170.75</ele><time>2026-05-03T12:08:04.004Z</time></trkpt><trkpt lat="46.41769038744388" lon="9.226069490091374"><ele>1170.0</ele><time>2026-05-03T12:08:05.004Z</time></trkpt><trkpt lat="46.417530924201344" lon="9.226027792908976"><ele>1170.0</ele><time>2026-05-03T12:08:06.004Z</time></trkpt><trkpt lat="46.417366498914106" lon="9.22599890541629"><ele>1170.0</ele><time>2026-05-03T12:08:07.004Z</time></trkpt><trkpt lat="46.41720575103298" lon="9.22600566984131"><ele>1170.0</ele><time>2026-05-03T12:08:08.004Z</time></trkpt><trkpt lat="46.41705712178852" lon="9.22603075105135"><ele>1167.25</ele><time>2026-05-03T12:08:09.004Z</time></trkpt><trkpt lat="46.416913986845145" lon="9.226058973710478"><ele>1164.5</ele><time>2026-05-03T12:08:10.004Z</time></trkpt><trkpt lat="46.41677302626162" lon="9.226042874346515"><ele>1161.75</ele><time>2026-05-03T12:08:11.004Z</time></trkpt><trkpt lat="46.41664274084412" lon="9.225993321573565"><ele>1159.0</ele><time>2026-05-03T12:08:12.004Z</time></trkpt><trkpt lat="46.41650479543367" lon="9.225902858317214"><ele>1159.0</ele><time>2026-05-03T12:08:13.005Z</time></trkpt><trkpt lat="46.41634713879682" lon="9.225844253529425"><ele>1159.0</ele><time>2026-05-03T12:08:14.004Z</time></trkpt><trkpt lat="46.41621754841221" lon="9.225798174988473"><ele>1159.0</ele><time>2026-05-03T12:08:15.004Z</time></trkpt><trkpt lat="46.416111788991174" lon="9.225780240666056"><ele>1159.0</ele><time>2026-05-03T12:08:16.004Z</time></trkpt><trkpt lat="46.41601810234644" lon="9.225740663734154"><ele>1164.4</ele><time>2026-05-03T12:08:17.004Z</time></trkpt><trkpt lat="46.41594857547959" lon="9.225641641591686"><ele>1169.8000000000002</ele><time>2026-05-03T12:08:18.004Z</time></trkpt><trkpt lat="46.41591967142714" lon="9.225502002667426"><ele>1175.1999999999998</ele><time>2026-05-03T12:08:19.005Z</time></trkpt><trkpt lat="46.41589519616487" lon="9.225329109122022"><ele>1180.6</ele><time>2026-05-03T12:08:20.005Z</time></trkpt><trkpt lat="46.41582293392836" lon="9.22527508190973"><ele>1186.0</ele><time>2026-05-03T12:08:21.004Z</time></trkpt><trkpt lat="46.41572246884335" lon="9.225306449692281"><ele>1186.0</ele><time>2026-05-03T12:08:22.005Z</time></trkpt><trkpt lat="46.41559157343307" lon="9.225398685184688"><ele>1186.0</ele><time>2026-05-03T12:08:23.005Z</time></trkpt><trkpt lat="46.41544362023356" lon="9.225548711919247"><ele>1186.0</ele><time>2026-05-03T12:08:24.005Z</time></trkpt><trkpt lat="46.41527517807494" lon="9.225628735732277"><ele>1172.6666666666665</ele><time>2026-05-03T12:08:25.005Z</time></trkpt><trkpt lat="46.41510585407241" lon="9.225699005961216"><ele>1159.3333333333333</ele><time>2026-05-03T12:08:26.005Z</time></trkpt><trkpt lat="46.41491994439224" lon="9.22574868196105"><ele>1146.0</ele><time>2026-05-03T12:08:27.005Z</time></trkpt><trkpt lat="46.41474133098947" lon="9.225763687139493"><ele>1147.6666666666667</ele><time>2026-05-03T12:08:28.005Z</time></trkpt><trkpt lat="46.4145747069898" lon="9.225776525987865"><ele>1149.3333333333335</ele><time>2026-05-03T12:08:29.005Z</time></trkpt><trkpt lat="46.4144099237389" lon="9.225791058527541"><ele>1151.0</ele><time>2026-05-03T12:08:30.005Z</time></trkpt><trkpt lat="46.41425975936948" lon="9.225806397236537"><ele>1151.0</ele><time>2026-05-03T12:08:31.005Z</time></trkpt><trkpt lat="46.41412272815619" lon="9.225820394430254"><ele>1151.0</ele><time>2026-05-03T12:08:32.005Z</time></trkpt><trkpt lat="46.413980643295496" lon="9.22583266097535"><ele>1151.0</ele><time>2026-05-03T12:08:33.005Z</time></trkpt><trkpt lat="46.41386435576621" lon="9.225842593463161"><ele>1151.0</ele><time>2026-05-03T12:08:34.005Z</time></trkpt><trkpt lat="46.41375723485785" lon="9.22585184840746"><ele>1155.2</ele><time>2026-05-03T12:08:35.005Z</time></trkpt><trkpt lat="46.41365815627079" lon="9.225857627567304"><ele>1159.3999999999999</ele><time>2026-05-03T12:08:36.005Z</time></trkpt><trkpt lat="46.41357447401618" lon="9.22588536751264"><ele>1163.6</ele><time>2026-05-03T12:08:37.005Z</time></trkpt><trkpt lat="46.41352146371725" lon="9.226055758872564"><ele>1167.8</ele><time>2026-05-03T12:08:39.005Z</time></trkpt><trkpt lat="46.413579231627274" lon="9.226141343583812"><ele>1172.0</ele><time>2026-05-03T12:08:40.005Z</time></trkpt><trkpt lat="46.41364984042354" lon="9.226147000231464"><ele>1172.0</ele><time>2026-05-03T12:08:41.006Z</time></trkpt><trkpt lat="46.4137648645831" lon="9.226113206470158"><ele>1172.0</ele><time>2026-05-03T12:08:42.005Z</time></trkpt><trkpt lat="46.413919713180896" lon="9.226100810060464"><ele>1172.0</ele><time>2026-05-03T12:08:43.005Z</time></trkpt><trkpt lat="46.414061126048054" lon="9.22609914530405"><ele>1172.0</ele><time>2026-05-03T12:08:44.005Z</time></trkpt><trkpt lat="46.414227374318656" lon="9.226135569233632"><ele>1166.75</ele><time>2026-05-03T12:08:45.005Z</time></trkpt><trkpt lat="46.41435237974389" lon="9.22621816695577"><ele>1161.5</ele><time>2026-05-03T12:08:46.005Z</time></trkpt><trkpt lat="46.41446426561526" lon="9.226300308362879"><ele>1156.25</ele><time>2026-05-03T12:08:47.006Z</time></trkpt><trkpt lat="46.41456745000915" lon="9.226387539715995"><ele>1151.0</ele><time>2026-05-03T12:08:48.005Z</time></trkpt><trkpt lat="46.414651548563924" lon="9.226458480855946"><ele>1144.0</ele><time>2026-05-03T12:08:49.005Z</time></trkpt><trkpt lat="46.41471423868392" lon="9.226525625956915"><ele>1137.0</ele><time>2026-05-03T12:08:50.005Z</time></trkpt><trkpt lat="46.4147160726885" lon="9.226644945049367"><ele>1130.0</ele><time>2026-05-03T12:08:51.005Z</time></trkpt><trkpt lat="46.41465550879073" lon="9.226745240986697"><ele>1123.0</ele><time>2026-05-03T12:08:52.005Z</time></trkpt><trkpt lat="46.41455186542642" lon="9.226782227799776"><ele>1116.0</ele><time>2026-05-03T12:08:53.005Z</time></trkpt><trkpt lat="46.41444363247158" lon="9.226714645342927"><ele>1114.0</ele><time>2026-05-03T12:08:54.005Z</time></trkpt><trkpt lat="46.41433307360696" lon="9.226620362180975"><ele>1112.0</ele><time>2026-05-03T12:08:55.006Z</time></trkpt><trkpt lat="46.41420947275661" lon="9.226522445130671"><ele>1110.0</ele><time>2026-05-03T12:08:56.006Z</time></trkpt><trkpt lat="46.41407997552576" lon="9.226450628901095"><ele>1108.0</ele><time>2026-05-03T12:08:57.006Z</time></trkpt><trkpt lat="46.41393218234471" lon="9.226451658674927"><ele>1112.3333333333333</ele><time>2026-05-03T12:08:58.006Z</time></trkpt><trkpt lat="46.41376384480725" lon="9.22651016609398"><ele>1116.6666666666667</ele><time>2026-05-03T12:08:59.006Z</time></trkpt><trkpt lat="46.41360241621481" lon="9.226608036764405"><ele>1121.0</ele><time>2026-05-03T12:09:00.006Z</time></trkpt><trkpt lat="46.413439773743605" lon="9.226712437213994"><ele>1121.0</ele><time>2026-05-03T12:09:01.006Z</time></trkpt><trkpt lat="46.41328135840113" lon="9.226805081813737"><ele>1121.0</ele><time>2026-05-03T12:09:02.006Z</time></trkpt><trkpt lat="46.413130439290434" lon="9.226897330222746"><ele>1121.0</ele><time>2026-05-03T12:09:03.006Z</time></trkpt><trkpt lat="46.412980837387806" lon="9.226988463954282"><ele>1124.0</ele><time>2026-05-03T12:09:04.006Z</time></trkpt><trkpt lat="46.412833612321194" lon="9.227074491313195"><ele>1127.0</ele><time>2026-05-03T12:09:05.006Z</time></trkpt><trkpt lat="46.41269008191516" lon="9.227153012792423"><ele>1130.0</ele><time>2026-05-03T12:09:06.006Z</time></trkpt><trkpt lat="46.41254508668157" lon="9.227202100897985"><ele>1130.0</ele><time>2026-05-03T12:09:07.006Z</time></trkpt><trkpt lat="46.412398662380774" lon="9.227187935513912"><ele>1130.0</ele><time>2026-05-03T12:09:08.006Z</time></trkpt><trkpt lat="46.41224847157655" lon="9.227124153682048"><ele>1130.0</ele><time>2026-05-03T12:09:09.006Z</time></trkpt><trkpt lat="46.4120933824736" lon="9.227096875968456"><ele>1128.0</ele><time>2026-05-03T12:09:10.006Z</time></trkpt><trkpt lat="46.41191388119205" lon="9.227110174202954"><ele>1126.0</ele><time>2026-05-03T12:09:11.006Z</time></trkpt><trkpt lat="46.41173823994242" lon="9.227140896529722"><ele>1124.0</ele><time>2026-05-03T12:09:12.006Z</time></trkpt><trkpt lat="46.41158013778256" lon="9.227173261583102"><ele>1124.0</ele><time>2026-05-03T12:09:13.006Z</time></trkpt><trkpt lat="46.4114190727873" lon="9.227185801504287"><ele>1124.0</ele><time>2026-05-03T12:09:14.006Z</time></trkpt><trkpt lat="46.41132380321925" lon="9.22723425038952"><ele>1124.0</ele><time>2026-05-03T12:09:15.006Z</time></trkpt><trkpt lat="46.41121977732668" lon="9.227190863653117"><ele>1124.0</ele><time>2026-05-03T12:09:16.006Z</time></trkpt><trkpt lat="46.411135751328196" lon="9.227149016079476"><ele>1120.0</ele><time>2026-05-03T12:09:17.006Z</time></trkpt><trkpt lat="46.41107515099094" lon="9.227094909883453"><ele>1116.0</ele><time>2026-05-03T12:09:18.006Z</time></trkpt><trkpt lat="46.410992383068894" lon="9.227097378176937"><ele>1112.0</ele><time>2026-05-03T12:09:20.006Z</time></trkpt><trkpt lat="46.41095951756397" lon="9.227242135418987"><ele>1108.0</ele><time>2026-05-03T12:09:21.006Z</time></trkpt><trkpt lat="46.41113539264188" lon="9.227432768246201"><ele>1099.5</ele><time>2026-05-03T12:09:23.006Z</time></trkpt><trkpt lat="46.411280965187906" lon="9.227498163767633"><ele>1091.0</ele><time>2026-05-03T12:09:24.006Z</time></trkpt><trkpt lat="46.41141694609099" lon="9.227523040084131"><ele>1082.5</ele><time>2026-05-03T12:09:25.006Z</time></trkpt><trkpt lat="46.41155562426439" lon="9.22756075025521"><ele>1074.0</ele><time>2026-05-03T12:09:26.006Z</time></trkpt><trkpt lat="46.41165748898102" lon="9.227636928462042"><ele>1074.0</ele><time>2026-05-03T12:09:27.006Z</time></trkpt><trkpt lat="46.41172620836716" lon="9.227694965100948"><ele>1074.0</ele><time>2026-05-03T12:09:28.006Z</time></trkpt><trkpt lat="46.41171974692249" lon="9.227795250218577"><ele>1074.0</ele><time>2026-05-03T12:09:30.007Z</time></trkpt><trkpt lat="46.41165832184057" lon="9.227768359834101"><ele>1074.0</ele><time>2026-05-03T12:09:31.007Z</time></trkpt><trkpt lat="46.411507811662986" lon="9.227760411383583"><ele>1074.0</ele><time>2026-05-03T12:09:32.007Z</time></trkpt><trkpt lat="46.41136804829771" lon="9.227693003013723"><ele>1068.6666666666667</ele><time>2026-05-03T12:09:33.007Z</time></trkpt><trkpt lat="46.41120528371969" lon="9.227657367369448"><ele>1063.3333333333335</ele><time>2026-05-03T12:09:34.007Z</time></trkpt><trkpt lat="46.411022006568146" lon="9.22767431430284"><ele>1058.0</ele><time>2026-05-03T12:09:35.007Z</time></trkpt><trkpt lat="46.41086497215129" lon="9.227649773053978"><ele>1058.0</ele><time>2026-05-03T12:09:36.007Z</time></trkpt><trkpt lat="46.41072549684031" lon="9.227545257654471"><ele>1058.0</ele><time>2026-05-03T12:09:37.007Z</time></trkpt><trkpt lat="46.410579752772584" lon="9.22747089629517"><ele>1058.0</ele><time>2026-05-03T12:09:38.007Z</time></trkpt><trkpt lat="46.410453495625994" lon="9.227412445220688"><ele>1058.0</ele><time>2026-05-03T12:09:39.007Z</time></trkpt><trkpt lat="46.41030375597268" lon="9.227441628484776"><ele>1058.6666666666667</ele><time>2026-05-03T12:09:40.007Z</time></trkpt><trkpt lat="46.410197589454825" lon="9.227445981058452"><ele>1059.3333333333335</ele><time>2026-05-03T12:09:41.007Z</time></trkpt><trkpt lat="46.41010860966053" lon="9.227461006968703"><ele>1060.0</ele><time>2026-05-03T12:09:42.007Z</time></trkpt><trkpt lat="46.41003849317044" lon="9.22749431682741"><ele>1060.6666666666667</ele><time>2026-05-03T12:09:43.007Z</time></trkpt><trkpt lat="46.409989440259984" lon="9.227570355909446"><ele>1061.3333333333333</ele><time>2026-05-03T12:09:44.007Z</time></trkpt><trkpt lat="46.40997898046736" lon="9.227666559707503"><ele>1062.0</ele><time>2026-05-03T12:09:45.007Z</time></trkpt><trkpt lat="46.410036497367976" lon="9.227735219586545"><ele>1062.0</ele><time>2026-05-03T12:09:46.007Z</time></trkpt><trkpt lat="46.41017585393027" lon="9.227750922376295"><ele>1062.0</ele><time>2026-05-03T12:09:47.007Z</time></trkpt><trkpt lat="46.41033883866646" lon="9.227734958645259"><ele>1062.0</ele><time>2026-05-03T12:09:48.007Z</time></trkpt><trkpt lat="46.41049639833664" lon="9.227771190346436"><ele>1061.0</ele><time>2026-05-03T12:09:49.007Z</time></trkpt><trkpt lat="46.410606328934485" lon="9.227858935714938"><ele>1060.0</ele><time>2026-05-03T12:09:50.007Z</time></trkpt><trkpt lat="46.4106944213608" lon="9.228006789038657"><ele>1059.0</ele><time>2026-05-03T12:09:51.007Z</time></trkpt><trkpt lat="46.41077803213301" lon="9.2281788567829"><ele>1058.0</ele><time>2026-05-03T12:09:52.007Z</time></trkpt><trkpt lat="46.41082802649228" lon="9.228378884575696"><ele>1054.8</ele><time>2026-05-03T12:09:53.007Z</time></trkpt><trkpt lat="46.41086311839107" lon="9.228559380833024"><ele>1051.6</ele><time>2026-05-03T12:09:54.007Z</time></trkpt><trkpt lat="46.41089535968996" lon="9.2287171999309"><ele>1048.4</ele><time>2026-05-03T12:09:55.007Z</time></trkpt><trkpt lat="46.410918783813486" lon="9.228827670895809"><ele>1045.2</ele><time>2026-05-03T12:09:56.007Z</time></trkpt><trkpt lat="46.41093457614296" lon="9.228957836808164"><ele>1042.0</ele><time>2026-05-03T12:09:58.007Z</time></trkpt><trkpt lat="46.410873446092786" lon="9.228918355263502"><ele>1042.0</ele><time>2026-05-03T12:10:00.007Z</time></trkpt><trkpt lat="46.41083705648095" lon="9.228792912883504"><ele>1042.0</ele><time>2026-05-03T12:10:01.007Z</time></trkpt><trkpt lat="46.410801851370515" lon="9.228645568964094"><ele>1042.0</ele><time>2026-05-03T12:10:02.008Z</time></trkpt><trkpt lat="46.410757058404734" lon="9.22843431682355"><ele>1042.0</ele><time>2026-05-03T12:10:03.008Z</time></trkpt><trkpt lat="46.41059043233113" lon="9.228341256042953"><ele>1035.0</ele><time>2026-05-03T12:10:04.008Z</time></trkpt><trkpt lat="46.41023355313235" lon="9.22830873165603"><ele>1028.0</ele><time>2026-05-03T12:10:06.008Z</time></trkpt><trkpt lat="46.410038881922844" lon="9.228357351612438"><ele>1028.0</ele><time>2026-05-03T12:10:07.008Z</time></trkpt><trkpt lat="46.40987764224694" lon="9.228367907663625"><ele>1028.0</ele><time>2026-05-03T12:10:08.008Z</time></trkpt><trkpt lat="46.40971102334571" lon="9.228358662381076"><ele>1028.0</ele><time>2026-05-03T12:10:09.009Z</time></trkpt><trkpt lat="46.40956397041992" lon="9.228352713218316"><ele>1033.0</ele><time>2026-05-03T12:10:10.008Z</time></trkpt><trkpt lat="46.40939824948793" lon="9.22835917713264"><ele>1038.0</ele><time>2026-05-03T12:10:11.008Z</time></trkpt><trkpt lat="46.40924618672044" lon="9.228389273414185"><ele>1043.0</ele><time>2026-05-03T12:10:12.008Z</time></trkpt><trkpt lat="46.40908494703359" lon="9.228465507879498"><ele>1043.0</ele><time>2026-05-03T12:10:13.008Z</time></trkpt><trkpt lat="46.408900608641865" lon="9.228590846651224"><ele>1043.0</ele><time>2026-05-03T12:10:14.008Z</time></trkpt><trkpt lat="46.40872890770413" lon="9.22868890267962"><ele>1043.0</ele><time>2026-05-03T12:10:15.008Z</time></trkpt><trkpt lat="46.40858045701687" lon="9.22878568881803"><ele>1046.6666666666667</ele><time>2026-05-03T12:10:16.008Z</time></trkpt><trkpt lat="46.40841004287021" lon="9.228881808345934"><ele>1050.3333333333333</ele><time>2026-05-03T12:10:17.008Z</time></trkpt><trkpt lat="46.40823661827106" lon="9.228989073862607"><ele>1054.0</ele><time>2026-05-03T12:10:18.008Z</time></trkpt><trkpt lat="46.40805755794143" lon="9.229075175703144"><ele>1037.6666666666665</ele><time>2026-05-03T12:10:19.008Z</time></trkpt><trkpt lat="46.40788010624111" lon="9.229158925318677"><ele>1021.3333333333333</ele><time>2026-05-03T12:10:20.008Z</time></trkpt><trkpt lat="46.40772345634981" lon="9.229287038769584"><ele>1005.0</ele><time>2026-05-03T12:10:21.008Z</time></trkpt><trkpt lat="46.40756389072519" lon="9.229423534322521"><ele>1005.0</ele><time>2026-05-03T12:10:22.008Z</time></trkpt><trkpt lat="46.40740497504264" lon="9.229557487295667"><ele>1005.0</ele><time>2026-05-03T12:10:23.008Z</time></trkpt><trkpt lat="46.40725808729504" lon="9.229678260224478"><ele>1005.0</ele><time>2026-05-03T12:10:24.008Z</time></trkpt><trkpt lat="46.407114489636015" lon="9.2297671105236"><ele>996.0</ele><time>2026-05-03T12:10:25.008Z</time></trkpt><trkpt lat="46.40695180010202" lon="9.229824154082115"><ele>987.0</ele><time>2026-05-03T12:10:26.008Z</time></trkpt><trkpt lat="46.40676842650415" lon="9.22985540337743"><ele>978.0</ele><time>2026-05-03T12:10:27.008Z</time></trkpt><trkpt lat="46.4065947183713" lon="9.229826070266041"><ele>983.0</ele><time>2026-05-03T12:10:28.008Z</time></trkpt><trkpt lat="46.40640883837293" lon="9.229807162996087"><ele>988.0</ele><time>2026-05-03T12:10:29.008Z</time></trkpt><trkpt lat="46.40624481574901" lon="9.229802635420596"><ele>993.0</ele><time>2026-05-03T12:10:30.008Z</time></trkpt><trkpt lat="46.406089765634114" lon="9.229716225435622"><ele>993.0</ele><time>2026-05-03T12:10:31.008Z</time></trkpt><trkpt lat="46.405931631986206" lon="9.229619780306734"><ele>993.0</ele><time>2026-05-03T12:10:32.008Z</time></trkpt><trkpt lat="46.40575484028683" lon="9.229542916911026"><ele>993.0</ele><time>2026-05-03T12:10:33.008Z</time></trkpt><trkpt lat="46.405576548540004" lon="9.229438847053865"><ele>982.0</ele><time>2026-05-03T12:10:34.008Z</time></trkpt><trkpt lat="46.40540157016779" lon="9.229318805016854"><ele>971.0</ele><time>2026-05-03T12:10:35.008Z</time></trkpt><trkpt lat="46.40524731922824" lon="9.229148561020304"><ele>960.0</ele><time>2026-05-03T12:10:36.009Z</time></trkpt><trkpt lat="46.405091709677215" lon="9.228997593284792"><ele>965.0</ele><time>2026-05-03T12:10:37.009Z</time></trkpt><trkpt lat="46.4049277927709" lon="9.228868291080753"><ele>970.0</ele><time>2026-05-03T12:10:38.009Z</time></trkpt><trkpt lat="46.404780679878186" lon="9.228726782654661"><ele>975.0</ele><time>2026-05-03T12:10:39.009Z</time></trkpt><trkpt lat="46.404645214372934" lon="9.228611697065737"><ele>975.0</ele><time>2026-05-03T12:10:40.009Z</time></trkpt><trkpt lat="46.404505500194034" lon="9.22855435605185"><ele>975.0</ele><time>2026-05-03T12:10:41.009Z</time></trkpt><trkpt lat="46.40436862751263" lon="9.228491919720454"><ele>975.0</ele><time>2026-05-03T12:10:42.01Z</time></trkpt><trkpt lat="46.404206456289565" lon="9.228562100716788"><ele>975.0</ele><time>2026-05-03T12:10:43.009Z</time></trkpt><trkpt lat="46.40403719147876" lon="9.22867326044728"><ele>975.0</ele><time>2026-05-03T12:10:44.009Z</time></trkpt><trkpt lat="46.403874459329984" lon="9.228679694464345"><ele>975.0</ele><time>2026-05-03T12:10:45.009Z</time></trkpt><trkpt lat="46.40372835092972" lon="9.228605202498358"><ele>970.6666666666667</ele><time>2026-05-03T12:10:46.009Z</time></trkpt><trkpt lat="46.40355635281561" lon="9.228508883174968"><ele>966.3333333333334</ele><time>2026-05-03T12:10:47.009Z</time></trkpt><trkpt lat="46.403379011483175" lon="9.228408003909683"><ele>962.0</ele><time>2026-05-03T12:10:48.009Z</time></trkpt><trkpt lat="46.40320899125991" lon="9.228319329034154"><ele>962.0</ele><time>2026-05-03T12:10:49.009Z</time></trkpt><trkpt lat="46.40304999580899" lon="9.22824368688396"><ele>962.0</ele><time>2026-05-03T12:10:50.009Z</time></trkpt><trkpt lat="46.402893014112706" lon="9.228171279973187"><ele>962.0</ele><time>2026-05-03T12:10:51.009Z</time></trkpt><trkpt lat="46.40272554797475" lon="9.228098411453276"><ele>965.0</ele><time>2026-05-03T12:10:52.009Z</time></trkpt><trkpt lat="46.40255977248812" lon="9.228039246432024"><ele>968.0</ele><time>2026-05-03T12:10:53.009Z</time></trkpt><trkpt lat="46.40240679303109" lon="9.22801362868828"><ele>971.0</ele><time>2026-05-03T12:10:54.009Z</time></trkpt><trkpt lat="46.40226179058632" lon="9.227998926883927"><ele>964.5999999999999</ele><time>2026-05-03T12:10:55.009Z</time></trkpt><trkpt lat="46.40213767983834" lon="9.227994700630084"><ele>958.1999999999999</ele><time>2026-05-03T12:10:56.009Z</time></trkpt><trkpt lat="46.40204157035583" lon="9.227979518401533"><ele>951.8000000000001</ele><time>2026-05-03T12:10:57.009Z</time></trkpt><trkpt lat="46.40196604940247" lon="9.227962512121229"><ele>945.4000000000001</ele><time>2026-05-03T12:10:58.009Z</time></trkpt><trkpt lat="46.40190127283911" lon="9.227981213800325"><ele>939.0</ele><time>2026-05-03T12:10:59.009Z</time></trkpt><trkpt lat="46.40186996482878" lon="9.228154003845427"><ele>939.4000000000001</ele><time>2026-05-03T12:11:01.009Z</time></trkpt><trkpt lat="46.401901417961405" lon="9.228246001237336"><ele>939.8000000000001</ele><time>2026-05-03T12:11:02.009Z</time></trkpt><trkpt lat="46.40198618397664" lon="9.228262434298689"><ele>940.1999999999999</ele><time>2026-05-03T12:11:03.009Z</time></trkpt><trkpt lat="46.4021115378506" lon="9.228227037836021"><ele>940.5999999999999</ele><time>2026-05-03T12:11:04.009Z</time></trkpt><trkpt lat="46.4022722700303" lon="9.228204853370189"><ele>941.0</ele><time>2026-05-03T12:11:05.009Z</time></trkpt><trkpt lat="46.402439513832164" lon="9.228280970940714"><ele>941.0</ele><time>2026-05-03T12:11:06.009Z</time></trkpt><trkpt lat="46.40261278376834" lon="9.228392266492147"><ele>941.0</ele><time>2026-05-03T12:11:07.009Z</time></trkpt><trkpt lat="46.40280411694697" lon="9.2284859031934"><ele>941.0</ele><time>2026-05-03T12:11:08.009Z</time></trkpt><trkpt lat="46.40295996458692" lon="9.228567935705446"><ele>945.1999999999999</ele><time>2026-05-03T12:11:09.01Z</time></trkpt><trkpt lat="46.403080165257606" lon="9.22860328869007"><ele>949.3999999999999</ele><time>2026-05-03T12:11:10.01Z</time></trkpt><trkpt lat="46.403171384037925" lon="9.228623415988189"><ele>953.6</ele><time>2026-05-03T12:11:11.01Z</time></trkpt><trkpt lat="46.40327087401267" lon="9.228659738119436"><ele>957.8</ele><time>2026-05-03T12:11:13.01Z</time></trkpt><trkpt lat="46.40324345192087" lon="9.228773720876042"><ele>962.0</ele><time>2026-05-03T12:11:15.01Z</time></trkpt><trkpt lat="46.40317492939423" lon="9.228768467632534"><ele>962.0</ele><time>2026-05-03T12:11:16.01Z</time></trkpt><trkpt lat="46.40306117404805" lon="9.228693695110199"><ele>962.0</ele><time>2026-05-03T12:11:17.01Z</time></trkpt><trkpt lat="46.40293705178439" lon="9.228655324331974"><ele>962.0</ele><time>2026-05-03T12:11:18.01Z</time></trkpt><trkpt lat="46.402772547638556" lon="9.2286204628723"><ele>962.0</ele><time>2026-05-03T12:11:19.01Z</time></trkpt><trkpt lat="46.402614997908664" lon="9.22860427252698"><ele>955.0</ele><time>2026-05-03T12:11:20.01Z</time></trkpt><trkpt lat="46.402446261300234" lon="9.22860045422983"><ele>948.0</ele><time>2026-05-03T12:11:21.01Z</time></trkpt><trkpt lat="46.40226438654581" lon="9.228623011168201"><ele>941.0</ele><time>2026-05-03T12:11:22.01Z</time></trkpt><trkpt lat="46.402099131119854" lon="9.228676297998302"><ele>936.75</ele><time>2026-05-03T12:11:23.01Z</time></trkpt><trkpt lat="46.401948290418055" lon="9.228739261485803"><ele>932.5</ele><time>2026-05-03T12:11:24.01Z</time></trkpt><trkpt lat="46.40182018891777" lon="9.228739317479032"><ele>928.25</ele><time>2026-05-03T12:11:25.01Z</time></trkpt><trkpt lat="46.40170900232257" lon="9.228669017467663"><ele>924.0</ele><time>2026-05-03T12:11:26.01Z</time></trkpt><trkpt lat="46.40161676618127" lon="9.228531804948158"><ele>924.0</ele><time>2026-05-03T12:11:27.01Z</time></trkpt><trkpt lat="46.40154164783268" lon="9.228325631404907"><ele>924.0</ele><time>2026-05-03T12:11:28.01Z</time></trkpt><trkpt lat="46.40146718667641" lon="9.228134012348011"><ele>924.0</ele><time>2026-05-03T12:11:29.01Z</time></trkpt><trkpt lat="46.40140959825217" lon="9.228013260525268"><ele>924.0</ele><time>2026-05-03T12:11:30.01Z</time></trkpt><trkpt lat="46.401342383924806" lon="9.227928866136297"><ele>924.0</ele><time>2026-05-03T12:11:31.01Z</time></trkpt><trkpt lat="46.401268359008256" lon="9.227919405386185"><ele>924.0000000000001</ele><time>2026-05-03T12:11:32.01Z</time></trkpt><trkpt lat="46.401175480212856" lon="9.22801875520477"><ele>924.0000000000001</ele><time>2026-05-03T12:11:34.01Z</time></trkpt><trkpt lat="46.401200598077295" lon="9.228212410277491"><ele>924.0</ele><time>2026-05-03T12:11:35.01Z</time></trkpt><trkpt lat="46.401276379945706" lon="9.228341622078755"><ele>924.0</ele><time>2026-05-03T12:11:36.011Z</time></trkpt><trkpt lat="46.401364588410466" lon="9.22848397400405"><ele>924.0</ele><time>2026-05-03T12:11:37.01Z</time></trkpt><trkpt lat="46.40144562922055" lon="9.22861870512398"><ele>924.0000000000001</ele><time>2026-05-03T12:11:38.01Z</time></trkpt><trkpt lat="46.40149268613646" lon="9.228725692852908"><ele>924.0000000000001</ele><time>2026-05-03T12:11:39.01Z</time></trkpt><trkpt lat="46.40149357298407" lon="9.228854095726751"><ele>924.0</ele><time>2026-05-03T12:11:41.01Z</time></trkpt><trkpt lat="46.40142335411923" lon="9.228849590501245"><ele>924.0</ele><time>2026-05-03T12:11:42.011Z</time></trkpt><trkpt lat="46.40134499962738" lon="9.228761147465084"><ele>916.25</ele><time>2026-05-03T12:11:43.011Z</time></trkpt><trkpt lat="46.40126904294011" lon="9.22859422723222"><ele>908.5</ele><time>2026-05-03T12:11:44.011Z</time></trkpt><trkpt lat="46.401159403007576" lon="9.228433834867168"><ele>900.75</ele><time>2026-05-03T12:11:45.011Z</time></trkpt><trkpt lat="46.40105300995883" lon="9.22828217772089"><ele>893.0</ele><time>2026-05-03T12:11:46.011Z</time></trkpt><trkpt lat="46.40093660233575" lon="9.228147935140935"><ele>895.25</ele><time>2026-05-03T12:11:47.011Z</time></trkpt><trkpt lat="46.40086112941782" lon="9.227981981461696"><ele>897.5</ele><time>2026-05-03T12:11:48.011Z</time></trkpt><trkpt lat="46.40084204040632" lon="9.227784834552834"><ele>899.75</ele><time>2026-05-03T12:11:49.011Z</time></trkpt><trkpt lat="46.40081743165686" lon="9.22761293161437"><ele>902.0</ele><time>2026-05-03T12:11:50.011Z</time></trkpt><trkpt lat="46.40076709052693" lon="9.22745406730888"><ele>902.0</ele><time>2026-05-03T12:11:51.011Z</time></trkpt><trkpt lat="46.40069535887938" lon="9.227325244591373"><ele>902.0</ele><time>2026-05-03T12:11:52.011Z</time></trkpt><trkpt lat="46.40058134612764" lon="9.227259199753833"><ele>902.0</ele><time>2026-05-03T12:11:53.011Z</time></trkpt><trkpt lat="46.40045209265513" lon="9.227262381305335"><ele>902.0</ele><time>2026-05-03T12:11:54.012Z</time></trkpt><trkpt lat="46.4003304629028" lon="9.22730780682167"><ele>899.6666666666667</ele><time>2026-05-03T12:11:55.012Z</time></trkpt><trkpt lat="46.400214978301136" lon="9.227449970442345"><ele>897.3333333333333</ele><time>2026-05-03T12:11:56.011Z</time></trkpt><trkpt lat="46.4001428700871" lon="9.227666332004448"><ele>895.0</ele><time>2026-05-03T12:11:57.011Z</time></trkpt><trkpt lat="46.40008499852246" lon="9.227901078489545"><ele>891.3333333333333</ele><time>2026-05-03T12:11:58.011Z</time></trkpt><trkpt lat="46.40002353956201" lon="9.22816588537523"><ele>887.6666666666667</ele><time>2026-05-03T12:11:59.011Z</time></trkpt><trkpt lat="46.399966137916415" lon="9.228417126101872"><ele>884.0</ele><time>2026-05-03T12:12:00.011Z</time></trkpt><trkpt lat="46.399962919653255" lon="9.228674949659894"><ele>884.0</ele><time>2026-05-03T12:12:01.011Z</time></trkpt><trkpt lat="46.39991722220492" lon="9.228907399442758"><ele>884.0</ele><time>2026-05-03T12:12:02.011Z</time></trkpt><trkpt lat="46.39991362290716" lon="9.229124373087613"><ele>884.0</ele><time>2026-05-03T12:12:03.011Z</time></trkpt><trkpt lat="46.39992660123994" lon="9.2293424305758"><ele>881.25</ele><time>2026-05-03T12:12:04.011Z</time></trkpt><trkpt lat="46.39995595452724" lon="9.229552138961266"><ele>878.5</ele><time>2026-05-03T12:12:05.011Z</time></trkpt><trkpt lat="46.399991940997666" lon="9.229760690507222"><ele>875.75</ele><time>2026-05-03T12:12:06.011Z</time></trkpt><trkpt lat="46.400012270212976" lon="9.229937723899686"><ele>873.0</ele><time>2026-05-03T12:12:07.011Z</time></trkpt><trkpt lat="46.399996450675424" lon="9.230121996650848"><ele>871.75</ele><time>2026-05-03T12:12:08.011Z</time></trkpt><trkpt lat="46.39995535987442" lon="9.230301215336047"><ele>870.5</ele><time>2026-05-03T12:12:09.011Z</time></trkpt><trkpt lat="46.399885821269365" lon="9.230460937621775"><ele>869.25</ele><time>2026-05-03T12:12:10.011Z</time></trkpt><trkpt lat="46.39978670991895" lon="9.23059696397087"><ele>868.0</ele><time>2026-05-03T12:12:11.011Z</time></trkpt><trkpt lat="46.399652498194065" lon="9.230703688611607"><ele>864.3333333333333</ele><time>2026-05-03T12:12:12.011Z</time></trkpt><trkpt lat="46.39949725701835" lon="9.230773476097292"><ele>860.6666666666667</ele><time>2026-05-03T12:12:13.011Z</time></trkpt><trkpt lat="46.399342404377876" lon="9.230839188342216"><ele>857.0</ele><time>2026-05-03T12:12:14.011Z</time></trkpt><trkpt lat="46.39921617207074" lon="9.230879625143578"><ele>857.0</ele><time>2026-05-03T12:12:15.011Z</time></trkpt><trkpt lat="46.39910238536832" lon="9.23087547410391"><ele>857.0</ele><time>2026-05-03T12:12:16.012Z</time></trkpt><trkpt lat="46.39898268947654" lon="9.230816802295712"><ele>857.0</ele><time>2026-05-03T12:12:17.012Z</time></trkpt><trkpt lat="46.39890090232116" lon="9.230700599510227"><ele>857.0</ele><time>2026-05-03T12:12:18.012Z</time></trkpt><trkpt lat="46.39884161700618" lon="9.230525899449868"><ele>856.5</ele><time>2026-05-03T12:12:19.012Z</time></trkpt><trkpt lat="46.39882914779403" lon="9.230334914528978"><ele>856.0</ele><time>2026-05-03T12:12:20.012Z</time></trkpt><trkpt lat="46.398821230751366" lon="9.230111522112939"><ele>855.5</ele><time>2026-05-03T12:12:21.012Z</time></trkpt><trkpt lat="46.39877999439633" lon="9.229958663068834"><ele>855.0</ele><time>2026-05-03T12:12:22.012Z</time></trkpt><trkpt lat="46.3987024785677" lon="9.229865068342567"><ele>855.0</ele><time>2026-05-03T12:12:23.013Z</time></trkpt><trkpt lat="46.398589385333686" lon="9.229833776928698"><ele>855.0</ele><time>2026-05-03T12:12:24.012Z</time></trkpt><trkpt lat="46.39846452220336" lon="9.229885788690753"><ele>855.0</ele><time>2026-05-03T12:12:25.012Z</time></trkpt><trkpt lat="46.39830845088429" lon="9.22989800546074"><ele>855.0</ele><time>2026-05-03T12:12:26.012Z</time></trkpt><trkpt lat="46.398198112593825" lon="9.230164640273621"><ele>855.0</ele><time>2026-05-03T12:12:27.012Z</time></trkpt><trkpt lat="46.398056183818525" lon="9.23029647071394"><ele>855.0</ele><time>2026-05-03T12:12:28.012Z</time></trkpt><trkpt lat="46.397904151052174" lon="9.230361764263012"><ele>855.0</ele><time>2026-05-03T12:12:29.012Z</time></trkpt><trkpt lat="46.39776067157394" lon="9.230363657369423"><ele>852.0</ele><time>2026-05-03T12:12:30.012Z</time></trkpt><trkpt lat="46.397608442983376" lon="9.230305892799306"><ele>849.0</ele><time>2026-05-03T12:12:31.012Z</time></trkpt><trkpt lat="46.39745854577622" lon="9.230325241013448"><ele>846.0</ele><time>2026-05-03T12:12:32.012Z</time></trkpt><trkpt lat="46.397296548734374" lon="9.230323888609659"><ele>844.0</ele><time>2026-05-03T12:12:33.012Z</time></trkpt><trkpt lat="46.397133068009545" lon="9.230325266352711"><ele>842.0</ele><time>2026-05-03T12:12:34.012Z</time></trkpt><trkpt lat="46.396959980789696" lon="9.230342181306037"><ele>840.0</ele><time>2026-05-03T12:12:35.012Z</time></trkpt><trkpt lat="46.39679994776161" lon="9.23039132427626"><ele>840.0</ele><time>2026-05-03T12:12:36.012Z</time></trkpt><trkpt lat="46.39665709326877" lon="9.230472683519713"><ele>840.0</ele><time>2026-05-03T12:12:37.012Z</time></trkpt><trkpt lat="46.39651019844985" lon="9.230550366785797"><ele>840.0</ele><time>2026-05-03T12:12:38.013Z</time></trkpt><trkpt lat="46.39637267391115" lon="9.23067096448075"><ele>837.5</ele><time>2026-05-03T12:12:39.012Z</time></trkpt><trkpt lat="46.39626291196185" lon="9.230779059311384"><ele>835.0</ele><time>2026-05-03T12:12:40.012Z</time></trkpt><trkpt lat="46.39616763982104" lon="9.23088193193552"><ele>832.5</ele><time>2026-05-03T12:12:41.012Z</time></trkpt><trkpt lat="46.396069577839135" lon="9.231013055215769"><ele>830.0</ele><time>2026-05-03T12:12:42.012Z</time></trkpt><trkpt lat="46.395971986579866" lon="9.231130588640927"><ele>830.0</ele><time>2026-05-03T12:12:43.013Z</time></trkpt><trkpt lat="46.395869111895365" lon="9.231250172657058"><ele>830.0</ele><time>2026-05-03T12:12:44.012Z</time></trkpt><trkpt lat="46.39574100381313" lon="9.231334708783065"><ele>830.0</ele><time>2026-05-03T12:12:45.012Z</time></trkpt><trkpt lat="46.3956072519894" lon="9.231394105867487"><ele>830.0</ele><time>2026-05-03T12:12:46.012Z</time></trkpt><trkpt lat="46.39546899948105" lon="9.23144895030313"><ele>825.75</ele><time>2026-05-03T12:12:47.012Z</time></trkpt><trkpt lat="46.39535198658864" lon="9.231491857405695"><ele>821.5</ele><time>2026-05-03T12:12:48.012Z</time></trkpt><trkpt lat="46.39522930988463" lon="9.231518291097213"><ele>817.25</ele><time>2026-05-03T12:12:49.013Z</time></trkpt><trkpt lat="46.39510730419617" lon="9.23154456666147"><ele>813.0</ele><time>2026-05-03T12:12:50.013Z</time></trkpt><trkpt lat="46.394987923216355" lon="9.231601768587257"><ele>813.0</ele><time>2026-05-03T12:12:51.013Z</time></trkpt><trkpt lat="46.394861515073636" lon="9.2316739454802"><ele>813.0</ele><time>2026-05-03T12:12:52.013Z</time></trkpt><trkpt lat="46.39472650668285" lon="9.231733473474344"><ele>813.0</ele><time>2026-05-03T12:12:53.013Z</time></trkpt><trkpt lat="46.39460226734501" lon="9.231781166247528"><ele>813.0</ele><time>2026-05-03T12:12:54.013Z</time></trkpt><trkpt lat="46.39448656246369" lon="9.231829722777873"><ele>812.0</ele><time>2026-05-03T12:12:55.013Z</time></trkpt><trkpt lat="46.39437012521585" lon="9.231876655933045"><ele>811.0</ele><time>2026-05-03T12:12:56.013Z</time></trkpt><trkpt lat="46.394257170571805" lon="9.231913850081359"><ele>810.0</ele><time>2026-05-03T12:12:57.013Z</time></trkpt><trkpt lat="46.39414447620512" lon="9.231951142169931"><ele>809.0</ele><time>2026-05-03T12:12:58.013Z</time></trkpt><trkpt lat="46.394035467897055" lon="9.23198474094231"><ele>808.5</ele><time>2026-05-03T12:12:59.014Z</time></trkpt><trkpt lat="46.393829341628596" lon="9.232063556077176"><ele>808.0</ele><time>2026-05-03T12:13:01.013Z</time></trkpt><trkpt lat="46.39372287933066" lon="9.232102168289714"><ele>807.5</ele><time>2026-05-03T12:13:02.013Z</time></trkpt><trkpt lat="46.393616840675165" lon="9.232144021257486"><ele>807.0</ele><time>2026-05-03T12:13:03.013Z</time></trkpt><trkpt lat="46.39350809230902" lon="9.232187755018316"><ele>807.0</ele><time>2026-05-03T12:13:04.013Z</time></trkpt><trkpt lat="46.39340047302252" lon="9.232222813777497"><ele>807.0</ele><time>2026-05-03T12:13:05.013Z</time></trkpt><trkpt lat="46.39329299466565" lon="9.232264702345576"><ele>807.0</ele><time>2026-05-03T12:13:06.013Z</time></trkpt><trkpt lat="46.39319103246382" lon="9.232312282871439"><ele>807.0</ele><time>2026-05-03T12:13:07.013Z</time></trkpt><trkpt lat="46.39307451685024" lon="9.232334175461938"><ele>807.0</ele><time>2026-05-03T12:13:08.013Z</time></trkpt><trkpt lat="46.392964262478316" lon="9.232381360341055"><ele>803.5</ele><time>2026-05-03T12:13:09.013Z</time></trkpt><trkpt lat="46.39284159361266" lon="9.232411415595125"><ele>800.0</ele><time>2026-05-03T12:13:10.013Z</time></trkpt><trkpt lat="46.39273413460284" lon="9.232457484635026"><ele>796.5</ele><time>2026-05-03T12:13:11.014Z</time></trkpt><trkpt lat="46.392617070151125" lon="9.232488764943819"><ele>793.0</ele><time>2026-05-03T12:13:12.013Z</time></trkpt><trkpt lat="46.392512800828364" lon="9.232526223239054"><ele>792.9999999999999</ele><time>2026-05-03T12:13:13.013Z</time></trkpt><trkpt lat="46.392422502928376" lon="9.232566890049291"><ele>793.0</ele><time>2026-05-03T12:13:14.013Z</time></trkpt><trkpt lat="46.39233457299528" lon="9.232607682410936"><ele>793.0</ele><time>2026-05-03T12:13:15.013Z</time></trkpt><trkpt lat="46.39224971416792" lon="9.232638847748998"><ele>793.0</ele><time>2026-05-03T12:13:16.013Z</time></trkpt><trkpt lat="46.39217356474024" lon="9.232668440217148"><ele>792.9999999999999</ele><time>2026-05-03T12:13:17.013Z</time></trkpt><trkpt lat="46.39209120894167" lon="9.232698381375627"><ele>793.0</ele><time>2026-05-03T12:13:18.013Z</time></trkpt><trkpt lat="46.3920110261601" lon="9.232728375156702"><ele>792.8333333333333</ele><time>2026-05-03T12:13:19.013Z</time></trkpt><trkpt lat="46.39193941255024" lon="9.232756012873471"><ele>792.6666666666666</ele><time>2026-05-03T12:13:20.013Z</time></trkpt><trkpt lat="46.39186255671833" lon="9.232788426037429"><ele>792.5</ele><time>2026-05-03T12:13:21.013Z</time></trkpt><trkpt lat="46.39177980517506" lon="9.232824747486909"><ele>792.3333333333333</ele><time>2026-05-03T12:13:22.013Z</time></trkpt><trkpt lat="46.39168540173661" lon="9.232859604582162"><ele>792.1666666666666</ele><time>2026-05-03T12:13:23.014Z</time></trkpt><trkpt lat="46.391605478436304" lon="9.2329060905551"><ele>792.0</ele><time>2026-05-03T12:13:24.014Z</time></trkpt><trkpt lat="46.3915174755017" lon="9.23295109942485"><ele>792.0</ele><time>2026-05-03T12:13:25.014Z</time></trkpt><trkpt lat="46.39144054385224" lon="9.232995722280565"><ele>792.0</ele><time>2026-05-03T12:13:26.014Z</time></trkpt><trkpt lat="46.391356128661606" lon="9.23303743901212"><ele>792.0</ele><time>2026-05-03T12:13:27.014Z</time></trkpt><trkpt lat="46.39127159305985" lon="9.233056806717576"><ele>792.0</ele><time>2026-05-03T12:13:28.014Z</time></trkpt><trkpt lat="46.39117298604918" lon="9.23307532759613"><ele>792.0</ele><time>2026-05-03T12:13:29.014Z</time></trkpt><trkpt lat="46.3910830136571" lon="9.233065978181868"><ele>792.0</ele><time>2026-05-03T12:13:30.014Z</time></trkpt><trkpt lat="46.39098695007506" lon="9.233055462456832"><ele>791.8</ele><time>2026-05-03T12:13:31.014Z</time></trkpt><trkpt lat="46.39088598977432" lon="9.233038890846178"><ele>791.6</ele><time>2026-05-03T12:13:32.014Z</time></trkpt><trkpt lat="46.39077444541336" lon="9.233045043984882"><ele>791.4</ele><time>2026-05-03T12:13:33.014Z</time></trkpt><trkpt lat="46.39067628760043" lon="9.233068783914133"><ele>791.1999999999999</ele><time>2026-05-03T12:13:34.014Z</time></trkpt><trkpt lat="46.39057070951197" lon="9.233072535841774"><ele>791.0</ele><time>2026-05-03T12:13:35.015Z</time></trkpt><trkpt lat="46.39046082119364" lon="9.233052259922145"><ele>790.1666666666667</ele><time>2026-05-03T12:13:36.014Z</time></trkpt><trkpt lat="46.39037448100668" lon="9.233037645547988"><ele>789.3333333333334</ele><time>2026-05-03T12:13:37.014Z</time></trkpt><trkpt lat="46.390305312416835" lon="9.233085301090387"><ele>788.5</ele><time>2026-05-03T12:13:38.014Z</time></trkpt><trkpt lat="46.39022865855233" lon="9.233128271902995"><ele>787.6666666666667</ele><time>2026-05-03T12:13:39.014Z</time></trkpt><trkpt lat="46.390141988499906" lon="9.233128367020804"><ele>786.8333333333334</ele><time>2026-05-03T12:13:40.014Z</time></trkpt><trkpt lat="46.39005443627894" lon="9.23312068661852"><ele>786.0</ele><time>2026-05-03T12:13:41.014Z</time></trkpt><trkpt lat="46.38996840859311" lon="9.2330896876463"><ele>786.0</ele><time>2026-05-03T12:13:42.014Z</time></trkpt><trkpt lat="46.38986873205362" lon="9.233053556760222"><ele>786.0</ele><time>2026-05-03T12:13:43.014Z</time></trkpt><trkpt lat="46.38975968287178" lon="9.233045042625957"><ele>786.0</ele><time>2026-05-03T12:13:44.014Z</time></trkpt><trkpt lat="46.3896706500943" lon="9.23303878836111"><ele>786.0</ele><time>2026-05-03T12:13:45.014Z</time></trkpt><trkpt lat="46.38957142964678" lon="9.233052137583492"><ele>786.0</ele><time>2026-05-03T12:13:46.014Z</time></trkpt><trkpt lat="46.38947138860081" lon="9.233065821933716"><ele>785.75</ele><time>2026-05-03T12:13:47.014Z</time></trkpt><trkpt lat="46.3893640475454" lon="9.23307619183963"><ele>785.5</ele><time>2026-05-03T12:13:48.014Z</time></trkpt><trkpt lat="46.389244727850055" lon="9.233104200470306"><ele>785.25</ele><time>2026-05-03T12:13:49.014Z</time></trkpt><trkpt lat="46.389127557665006" lon="9.233148029238594"><ele>785.0</ele><time>2026-05-03T12:13:50.015Z</time></trkpt><trkpt lat="46.38900216157712" lon="9.233213855226209"><ele>782.5</ele><time>2026-05-03T12:13:51.014Z</time></trkpt><trkpt lat="46.38888245431766" lon="9.233289140116927"><ele>780.0</ele><time>2026-05-03T12:13:52.014Z</time></trkpt><trkpt lat="46.388752858987836" lon="9.233370999467539"><ele>777.5</ele><time>2026-05-03T12:13:53.014Z</time></trkpt><trkpt lat="46.38863075419567" lon="9.233461825248819"><ele>775.0</ele><time>2026-05-03T12:13:54.014Z</time></trkpt><trkpt lat="46.388518526882926" lon="9.233553138783487"><ele>775.0</ele><time>2026-05-03T12:13:55.014Z</time></trkpt><trkpt lat="46.388401554311685" lon="9.233647372247528"><ele>775.0</ele><time>2026-05-03T12:13:56.015Z</time></trkpt><trkpt lat="46.3882885363023" lon="9.233730544403725"><ele>775.0</ele><time>2026-05-03T12:13:57.016Z</time></trkpt><trkpt lat="46.3881815424577" lon="9.233803276751301"><ele>775.0</ele><time>2026-05-03T12:13:58.015Z</time></trkpt><trkpt lat="46.38807598934529" lon="9.233864195545731"><ele>774.4</ele><time>2026-05-03T12:13:59.015Z</time></trkpt><trkpt lat="46.387970221106805" lon="9.233901272637791"><ele>773.8</ele><time>2026-05-03T12:14:00.015Z</time></trkpt><trkpt lat="46.38786625997713" lon="9.233915730630335"><ele>773.2</ele><time>2026-05-03T12:14:01.015Z</time></trkpt><trkpt lat="46.387756617847536" lon="9.233873485400647"><ele>772.6</ele><time>2026-05-03T12:14:02.015Z</time></trkpt><trkpt lat="46.387663295806625" lon="9.233819462937056"><ele>772.0</ele><time>2026-05-03T12:14:03.015Z</time></trkpt><trkpt lat="46.3875372488344" lon="9.233753580794623"><ele>772.0</ele><time>2026-05-03T12:14:04.015Z</time></trkpt><trkpt lat="46.38728745645932" lon="9.233627441977832"><ele>772.0</ele><time>2026-05-03T12:14:06.015Z</time></trkpt><trkpt lat="46.38716173648672" lon="9.233566119962175"><ele>772.0</ele><time>2026-05-03T12:14:07.015Z</time></trkpt><trkpt lat="46.38702434911141" lon="9.233506840031929"><ele>766.3333333333333</ele><time>2026-05-03T12:14:08.015Z</time></trkpt><trkpt lat="46.38688391846214" lon="9.233447490829258"><ele>760.6666666666666</ele><time>2026-05-03T12:14:09.015Z</time></trkpt><trkpt lat="46.386729399393516" lon="9.233377246102409"><ele>755.0</ele><time>2026-05-03T12:14:10.015Z</time></trkpt><trkpt lat="46.38658565990182" lon="9.23332388293258"><ele>755.0</ele><time>2026-05-03T12:14:11.015Z</time></trkpt><trkpt lat="46.386446498273855" lon="9.233287264003259"><ele>755.0</ele><time>2026-05-03T12:14:12.015Z</time></trkpt><trkpt lat="46.38631210613898" lon="9.23327323103398"><ele>755.0</ele><time>2026-05-03T12:14:13.015Z</time></trkpt><trkpt lat="46.38616646376871" lon="9.233271185948274"><ele>755.0</ele><time>2026-05-03T12:14:14.016Z</time></trkpt><trkpt lat="46.3858881279856" lon="9.233280300153162"><ele>752.0</ele><time>2026-05-03T12:14:16.015Z</time></trkpt><trkpt lat="46.385742951366005" lon="9.233277948181492"><ele>749.0</ele><time>2026-05-03T12:14:17.015Z</time></trkpt><trkpt lat="46.38559583295219" lon="9.233224532924504"><ele>746.0</ele><time>2026-05-03T12:14:18.015Z</time></trkpt><trkpt lat="46.38544228014982" lon="9.233175112377078"><ele>746.0</ele><time>2026-05-03T12:14:19.015Z</time></trkpt><trkpt lat="46.38529558357382" lon="9.233119601577975"><ele>746.0</ele><time>2026-05-03T12:14:20.015Z</time></trkpt><trkpt lat="46.38514714986695" lon="9.233063649746725"><ele>746.0</ele><time>2026-05-03T12:14:21.016Z</time></trkpt><trkpt lat="46.38500501058972" lon="9.233010070565497"><ele>746.0</ele><time>2026-05-03T12:14:22.015Z</time></trkpt><trkpt lat="46.38487621558012" lon="9.232954044774743"><ele>746.0</ele><time>2026-05-03T12:14:23.015Z</time></trkpt><trkpt lat="46.3847688194865" lon="9.23285757961285"><ele>746.0</ele><time>2026-05-03T12:14:24.015Z</time></trkpt><trkpt lat="46.38469724285559" lon="9.232747681301852"><ele>746.0</ele><time>2026-05-03T12:14:25.015Z</time></trkpt><trkpt lat="46.38459459115512" lon="9.232621416946696"><ele>743.5</ele><time>2026-05-03T12:14:26.015Z</time></trkpt><trkpt lat="46.3844935380594" lon="9.232539414787434"><ele>741.0</ele><time>2026-05-03T12:14:27.015Z</time></trkpt><trkpt lat="46.38435522589633" lon="9.232563413288746"><ele>738.5</ele><time>2026-05-03T12:14:28.015Z</time></trkpt><trkpt lat="46.3842047563351" lon="9.232526971998366"><ele>736.0</ele><time>2026-05-03T12:14:29.016Z</time></trkpt><trkpt lat="46.38408117719723" lon="9.232795002054454"><ele>736.0</ele><time>2026-05-03T12:14:30.016Z</time></trkpt><trkpt lat="46.383948072484884" lon="9.232889982186101"><ele>736.0</ele><time>2026-05-03T12:14:31.016Z</time></trkpt><trkpt lat="46.38378981773748" lon="9.232901828172174"><ele>736.0</ele><time>2026-05-03T12:14:32.016Z</time></trkpt><trkpt lat="46.38362937597256" lon="9.232860843392322"><ele>731.6666666666667</ele><time>2026-05-03T12:14:33.016Z</time></trkpt><trkpt lat="46.383467129082256" lon="9.23278404668602"><ele>727.3333333333334</ele><time>2026-05-03T12:14:34.016Z</time></trkpt><trkpt lat="46.38330769217045" lon="9.232702941826428"><ele>723.0</ele><time>2026-05-03T12:14:35.016Z</time></trkpt><trkpt lat="46.38315497993687" lon="9.232622594314956"><ele>723.0</ele><time>2026-05-03T12:14:36.016Z</time></trkpt><trkpt lat="46.383015692395205" lon="9.232532016706653"><ele>723.0</ele><time>2026-05-03T12:14:37.016Z</time></trkpt><trkpt lat="46.38288829364537" lon="9.232443484934528"><ele>723.0</ele><time>2026-05-03T12:14:38.016Z</time></trkpt><trkpt lat="46.3827407303134" lon="9.232352897813636"><ele>723.3333333333334</ele><time>2026-05-03T12:14:39.016Z</time></trkpt><trkpt lat="46.38258890398759" lon="9.232255491463793"><ele>723.6666666666667</ele><time>2026-05-03T12:14:40.016Z</time></trkpt><trkpt lat="46.382428555896276" lon="9.232166123217647"><ele>724.0</ele><time>2026-05-03T12:14:41.016Z</time></trkpt><trkpt lat="46.38226511931719" lon="9.232087492401027"><ele>720.6666666666667</ele><time>2026-05-03T12:14:42.016Z</time></trkpt><trkpt lat="46.38209965365066" lon="9.231997801402002"><ele>717.3333333333334</ele><time>2026-05-03T12:14:43.016Z</time></trkpt><trkpt lat="46.38193190919795" lon="9.23189422692995"><ele>714.0</ele><time>2026-05-03T12:14:44.016Z</time></trkpt><trkpt lat="46.38176598208863" lon="9.231827598899983"><ele>714.0</ele><time>2026-05-03T12:14:45.016Z</time></trkpt><trkpt lat="46.38159381070637" lon="9.231793054022829"><ele>714.0</ele><time>2026-05-03T12:14:46.016Z</time></trkpt><trkpt lat="46.38142337192772" lon="9.231728731605491"><ele>714.0</ele><time>2026-05-03T12:14:47.016Z</time></trkpt><trkpt lat="46.381247663270685" lon="9.231663399303995"><ele>712.0</ele><time>2026-05-03T12:14:48.016Z</time></trkpt><trkpt lat="46.38106810447467" lon="9.231585019750346"><ele>710.0</ele><time>2026-05-03T12:14:49.016Z</time></trkpt><trkpt lat="46.380899587765526" lon="9.231499936911618"><ele>708.0</ele><time>2026-05-03T12:14:50.016Z</time></trkpt><trkpt lat="46.380734227949624" lon="9.231400228069946"><ele>706.3333333333334</ele><time>2026-05-03T12:14:51.016Z</time></trkpt><trkpt lat="46.380574089075935" lon="9.231311343800098"><ele>704.6666666666667</ele><time>2026-05-03T12:14:52.016Z</time></trkpt><trkpt lat="46.38041071117895" lon="9.231213533809203"><ele>703.0</ele><time>2026-05-03T12:14:53.016Z</time></trkpt><trkpt lat="46.380262329204896" lon="9.231102182064035"><ele>703.0</ele><time>2026-05-03T12:14:54.016Z</time></trkpt><trkpt lat="46.38010324623759" lon="9.230997780227217"><ele>703.0</ele><time>2026-05-03T12:14:55.017Z</time></trkpt><trkpt lat="46.379933448949934" lon="9.230898699592753"><ele>703.0</ele><time>2026-05-03T12:14:56.016Z</time></trkpt><trkpt lat="46.379759873142405" lon="9.230806160381153"><ele>706.3333333333334</ele><time>2026-05-03T12:14:57.016Z</time></trkpt><trkpt lat="46.379576690096606" lon="9.230721518615844"><ele>709.6666666666666</ele><time>2026-05-03T12:14:58.016Z</time></trkpt><trkpt lat="46.37938189380311" lon="9.230646658828098"><ele>713.0</ele><time>2026-05-03T12:14:59.016Z</time></trkpt><trkpt lat="46.37920794426498" lon="9.230571065421854"><ele>713.0</ele><time>2026-05-03T12:15:00.016Z</time></trkpt><trkpt lat="46.37903844002173" lon="9.230489250562057"><ele>713.0</ele><time>2026-05-03T12:15:01.016Z</time></trkpt><trkpt lat="46.3788559465165" lon="9.230412399145596"><ele>713.0</ele><time>2026-05-03T12:15:02.017Z</time></trkpt><trkpt lat="46.3786812651386" lon="9.230342313091473"><ele>702.0</ele><time>2026-05-03T12:15:03.017Z</time></trkpt><trkpt lat="46.3785163133465" lon="9.230265082540843"><ele>691.0</ele><time>2026-05-03T12:15:04.017Z</time></trkpt><trkpt lat="46.378364945917674" lon="9.230167680078324"><ele>680.0</ele><time>2026-05-03T12:15:05.017Z</time></trkpt><trkpt lat="46.378221533847174" lon="9.230027952454643"><ele>680.0</ele><time>2026-05-03T12:15:06.017Z</time></trkpt><trkpt lat="46.37806755465715" lon="9.229890967407357"><ele>680.0</ele><time>2026-05-03T12:15:07.017Z</time></trkpt><trkpt lat="46.3778884610361" lon="9.229781397844691"><ele>680.0</ele><time>2026-05-03T12:15:08.017Z</time></trkpt><trkpt lat="46.37770874221755" lon="9.22970147279634"><ele>683.0</ele><time>2026-05-03T12:15:09.017Z</time></trkpt><trkpt lat="46.377535833173525" lon="9.229600401040441"><ele>686.0</ele><time>2026-05-03T12:15:10.017Z</time></trkpt><trkpt lat="46.3773633976934" lon="9.229544723548601"><ele>689.0</ele><time>2026-05-03T12:15:11.017Z</time></trkpt><trkpt lat="46.37720453301316" lon="9.229484457577481"><ele>673.3333333333333</ele><time>2026-05-03T12:15:12.017Z</time></trkpt><trkpt lat="46.37707502543452" lon="9.2293740769403"><ele>657.6666666666666</ele><time>2026-05-03T12:15:13.017Z</time></trkpt><trkpt lat="46.37694307537386" lon="9.22922332646659"><ele>642.0</ele><time>2026-05-03T12:15:14.017Z</time></trkpt><trkpt lat="46.376789537642026" lon="9.22903446576422"><ele>638.3333333333334</ele><time>2026-05-03T12:15:15.017Z</time></trkpt><trkpt lat="46.376640999007336" lon="9.228850902568464"><ele>634.6666666666667</ele><time>2026-05-03T12:15:16.017Z</time></trkpt><trkpt lat="46.376484624444885" lon="9.228658490287042"><ele>631.0</ele><time>2026-05-03T12:15:17.017Z</time></trkpt><trkpt lat="46.37633671340582" lon="9.228480132701236"><ele>631.0</ele><time>2026-05-03T12:15:18.017Z</time></trkpt><trkpt lat="46.37619197493633" lon="9.228316487580264"><ele>631.0</ele><time>2026-05-03T12:15:19.017Z</time></trkpt><trkpt lat="46.37603972545702" lon="9.228160750838315"><ele>631.0</ele><time>2026-05-03T12:15:20.017Z</time></trkpt><trkpt lat="46.375878866303" lon="9.228022256775931"><ele>632.6666666666667</ele><time>2026-05-03T12:15:21.017Z</time></trkpt><trkpt lat="46.37570492319412" lon="9.227895515875828"><ele>634.3333333333334</ele><time>2026-05-03T12:15:22.017Z</time></trkpt><trkpt lat="46.37552329136947" lon="9.227798970745802"><ele>636.0</ele><time>2026-05-03T12:15:23.017Z</time></trkpt><trkpt lat="46.37533344598829" lon="9.227742547108383"><ele>636.0</ele><time>2026-05-03T12:15:24.017Z</time></trkpt><trkpt lat="46.37514724080124" lon="9.227718252607348"><ele>636.0</ele><time>2026-05-03T12:15:25.018Z</time></trkpt><trkpt lat="46.37497839327153" lon="9.22771077188164"><ele>636.0</ele><time>2026-05-03T12:15:26.017Z</time></trkpt><trkpt lat="46.37480169634406" lon="9.22769929779225"><ele>629.0</ele><time>2026-05-03T12:15:27.017Z</time></trkpt><trkpt lat="46.37461941397818" lon="9.227660651202816"><ele>622.0</ele><time>2026-05-03T12:15:28.017Z</time></trkpt><trkpt lat="46.37443325712024" lon="9.227593912718488"><ele>615.0</ele><time>2026-05-03T12:15:29.017Z</time></trkpt><trkpt lat="46.37425549443938" lon="9.227493738895424"><ele>615.0</ele><time>2026-05-03T12:15:30.017Z</time></trkpt><trkpt lat="46.37407597880535" lon="9.227371228575441"><ele>615.0</ele><time>2026-05-03T12:15:31.017Z</time></trkpt><trkpt lat="46.37390364872458" lon="9.227252556570873"><ele>615.0</ele><time>2026-05-03T12:15:32.017Z</time></trkpt><trkpt lat="46.3737339297787" lon="9.227129570002743"><ele>613.6666666666666</ele><time>2026-05-03T12:15:33.017Z</time></trkpt><trkpt lat="46.3735775613275" lon="9.226994059930782"><ele>612.3333333333333</ele><time>2026-05-03T12:15:34.017Z</time></trkpt><trkpt lat="46.37343326468523" lon="9.22684189148584"><ele>611.0</ele><time>2026-05-03T12:15:35.017Z</time></trkpt><trkpt lat="46.37330040067094" lon="9.226670897891264"><ele>612.6666666666666</ele><time>2026-05-03T12:15:36.018Z</time></trkpt><trkpt lat="46.37315857367434" lon="9.226476443224584"><ele>614.3333333333334</ele><time>2026-05-03T12:15:37.018Z</time></trkpt><trkpt lat="46.37301625780087" lon="9.22628028789559"><ele>616.0</ele><time>2026-05-03T12:15:38.018Z</time></trkpt><trkpt lat="46.37287202712623" lon="9.226083452516185"><ele>617.3333333333334</ele><time>2026-05-03T12:15:39.018Z</time></trkpt><trkpt lat="46.372729653545115" lon="9.22588930289587"><ele>618.6666666666666</ele><time>2026-05-03T12:15:40.018Z</time></trkpt><trkpt lat="46.37258834991206" lon="9.225697378653503"><ele>620.0</ele><time>2026-05-03T12:15:41.018Z</time></trkpt><trkpt lat="46.37245927154584" lon="9.225519702084156"><ele>620.0</ele><time>2026-05-03T12:15:42.018Z</time></trkpt><trkpt lat="46.37231607551409" lon="9.225354076568072"><ele>620.0</ele><time>2026-05-03T12:15:43.018Z</time></trkpt><trkpt lat="46.372176129953154" lon="9.225171746101523"><ele>620.0</ele><time>2026-05-03T12:15:44.018Z</time></trkpt><trkpt lat="46.37201642211551" lon="9.225008188299729"><ele>615.0</ele><time>2026-05-03T12:15:45.018Z</time></trkpt><trkpt lat="46.371855757870094" lon="9.224863203096552"><ele>610.0</ele><time>2026-05-03T12:15:46.018Z</time></trkpt><trkpt lat="46.37170408168709" lon="9.224742625884334"><ele>605.0</ele><time>2026-05-03T12:15:47.018Z</time></trkpt><trkpt lat="46.37154972927794" lon="9.224619097917968"><ele>608.0</ele><time>2026-05-03T12:15:48.018Z</time></trkpt><trkpt lat="46.37136942589596" lon="9.224547447464362"><ele>611.0</ele><time>2026-05-03T12:15:49.018Z</time></trkpt><trkpt lat="46.3711815706314" lon="9.224556409249969"><ele>614.0</ele><time>2026-05-03T12:15:50.018Z</time></trkpt><trkpt lat="46.37101251380395" lon="9.224552865493518"><ele>614.0</ele><time>2026-05-03T12:15:51.018Z</time></trkpt><trkpt lat="46.37085203414324" lon="9.22458663518991"><ele>614.0</ele><time>2026-05-03T12:15:52.018Z</time></trkpt><trkpt lat="46.37068439360886" lon="9.224629155723145"><ele>614.0</ele><time>2026-05-03T12:15:53.018Z</time></trkpt><trkpt lat="46.3705101855422" lon="9.224675639757981"><ele>608.5</ele><time>2026-05-03T12:15:54.018Z</time></trkpt><trkpt lat="46.370335991406236" lon="9.224717840192218"><ele>603.0</ele><time>2026-05-03T12:15:55.018Z</time></trkpt><trkpt lat="46.368557080208845" lon="9.224410253348205"><ele>600.6666666666666</ele><time>2026-05-03T12:16:05.018Z</time></trkpt><trkpt lat="46.36837718659691" lon="9.224530650158595"><ele>598.3333333333333</ele><time>2026-05-03T12:16:06.019Z</time></trkpt><trkpt lat="46.36820689202497" lon="9.224720418862528"><ele>596.0</ele><time>2026-05-03T12:16:07.018Z</time></trkpt><trkpt lat="46.36802923612206" lon="9.224876223759383"><ele>597.6666666666666</ele><time>2026-05-03T12:16:08.018Z</time></trkpt><trkpt lat="46.36785994884131" lon="9.225035766004504"><ele>599.3333333333334</ele><time>2026-05-03T12:16:09.018Z</time></trkpt><trkpt lat="46.367700408199966" lon="9.22517672253422"><ele>601.0</ele><time>2026-05-03T12:16:10.019Z</time></trkpt><trkpt lat="46.367544725421084" lon="9.225307558085905"><ele>601.0</ele><time>2026-05-03T12:16:11.019Z</time></trkpt><trkpt lat="46.36738245720056" lon="9.225437063348357"><ele>601.0</ele><time>2026-05-03T12:16:12.019Z</time></trkpt><trkpt lat="46.36721963669595" lon="9.225542405586388"><ele>601.0</ele><time>2026-05-03T12:16:13.019Z</time></trkpt><trkpt lat="46.36704334132862" lon="9.225570897914192"><ele>602.6666666666667</ele><time>2026-05-03T12:16:14.019Z</time></trkpt><trkpt lat="46.36686014230819" lon="9.225580651449103"><ele>604.3333333333334</ele><time>2026-05-03T12:16:15.019Z</time></trkpt><trkpt lat="46.3666767175733" lon="9.225540364031628"><ele>606.0</ele><time>2026-05-03T12:16:16.019Z</time></trkpt><trkpt lat="46.366487665800385" lon="9.225502250536303"><ele>598.3333333333334</ele><time>2026-05-03T12:16:17.019Z</time></trkpt><trkpt lat="46.366293841335946" lon="9.22546118663645"><ele>590.6666666666667</ele><time>2026-05-03T12:16:18.019Z</time></trkpt><trkpt lat="46.36610884646927" lon="9.225419457448098"><ele>583.0</ele><time>2026-05-03T12:16:19.019Z</time></trkpt><trkpt lat="46.36593970621772" lon="9.225315537678162"><ele>583.0</ele><time>2026-05-03T12:16:20.021Z</time></trkpt><trkpt lat="46.36580281290442" lon="9.225163920901458"><ele>583.0</ele><time>2026-05-03T12:16:21.019Z</time></trkpt><trkpt lat="46.365679782724335" lon="9.224969180877435"><ele>583.0</ele><time>2026-05-03T12:16:22.019Z</time></trkpt><trkpt lat="46.36554545758367" lon="9.224761496100678"><ele>580.0</ele><time>2026-05-03T12:16:23.019Z</time></trkpt><trkpt lat="46.36540663344133" lon="9.224592573250304"><ele>577.0</ele><time>2026-05-03T12:16:24.02Z</time></trkpt><trkpt lat="46.365253964678764" lon="9.22446778121864"><ele>574.0</ele><time>2026-05-03T12:16:25.019Z</time></trkpt><trkpt lat="46.36509108303977" lon="9.224377385940942"><ele>574.0</ele><time>2026-05-03T12:16:26.019Z</time></trkpt><trkpt lat="46.36491759729937" lon="9.224365210580288"><ele>574.0</ele><time>2026-05-03T12:16:27.019Z</time></trkpt><trkpt lat="46.36473728103517" lon="9.224366055445717"><ele>574.0</ele><time>2026-05-03T12:16:28.019Z</time></trkpt><trkpt lat="46.36454862405315" lon="9.224430400734358"><ele>577.0</ele><time>2026-05-03T12:16:29.02Z</time></trkpt><trkpt lat="46.364358429254494" lon="9.224507297589676"><ele>580.0</ele><time>2026-05-03T12:16:30.019Z</time></trkpt><trkpt lat="46.36416662976225" lon="9.224563032575084"><ele>583.0</ele><time>2026-05-03T12:16:31.019Z</time></trkpt><trkpt lat="46.36398094982626" lon="9.224553660809189"><ele>578.3333333333334</ele><time>2026-05-03T12:16:32.019Z</time></trkpt><trkpt lat="46.36380486588495" lon="9.224527574412447"><ele>573.6666666666666</ele><time>2026-05-03T12:16:33.019Z</time></trkpt><trkpt lat="46.363630416924" lon="9.22446503859803"><ele>569.0</ele><time>2026-05-03T12:16:34.019Z</time></trkpt><trkpt lat="46.363458594167966" lon="9.224373157776244"><ele>569.0</ele><time>2026-05-03T12:16:35.019Z</time></trkpt><trkpt lat="46.36327888264267" lon="9.224271432957787"><ele>569.0</ele><time>2026-05-03T12:16:36.019Z</time></trkpt><trkpt lat="46.36309791162759" lon="9.22416712996317"><ele>569.0</ele><time>2026-05-03T12:16:37.019Z</time></trkpt><trkpt lat="46.36293606054406" lon="9.224037584544085"><ele>565.0</ele><time>2026-05-03T12:16:38.019Z</time></trkpt><trkpt lat="46.36280747870162" lon="9.22388021409541"><ele>561.0</ele><time>2026-05-03T12:16:39.019Z</time></trkpt><trkpt lat="46.36270266905339" lon="9.223695580010986"><ele>557.0</ele><time>2026-05-03T12:16:40.019Z</time></trkpt><trkpt lat="46.36261940874426" lon="9.223483492027922"><ele>557.0</ele><time>2026-05-03T12:16:41.019Z</time></trkpt><trkpt lat="46.362528671176" lon="9.22323180657222"><ele>557.0</ele><time>2026-05-03T12:16:42.019Z</time></trkpt><trkpt lat="46.36243928304527" lon="9.222980119066982"><ele>557.0</ele><time>2026-05-03T12:16:43.02Z</time></trkpt><trkpt lat="46.362343316439734" lon="9.222721746957468"><ele>559.3333333333333</ele><time>2026-05-03T12:16:44.02Z</time></trkpt><trkpt lat="46.36223350407346" lon="9.222470176814788"><ele>561.6666666666666</ele><time>2026-05-03T12:16:45.02Z</time></trkpt><trkpt lat="46.36210730490157" lon="9.222244472321176"><ele>564.0</ele><time>2026-05-03T12:16:46.02Z</time></trkpt><trkpt lat="46.36195669653509" lon="9.222029712014656"><ele>564.0</ele><time>2026-05-03T12:16:47.02Z</time></trkpt><trkpt lat="46.361791029428055" lon="9.221850363104616"><ele>564.0</ele><time>2026-05-03T12:16:48.02Z</time></trkpt><trkpt lat="46.36161663424053" lon="9.221708487406808"><ele>564.0</ele><time>2026-05-03T12:16:49.02Z</time></trkpt><trkpt lat="46.3614233630469" lon="9.221585302652462"><ele>569.3333333333334</ele><time>2026-05-03T12:16:50.02Z</time></trkpt><trkpt lat="46.36122154350091" lon="9.221489181446183"><ele>574.6666666666667</ele><time>2026-05-03T12:16:51.02Z</time></trkpt><trkpt lat="46.361016428251595" lon="9.221397388299053"><ele>580.0</ele><time>2026-05-03T12:16:52.02Z</time></trkpt><trkpt lat="46.360819994087855" lon="9.221310265607293"><ele>580.0</ele><time>2026-05-03T12:16:53.02Z</time></trkpt><trkpt lat="46.36062392099019" lon="9.221223303078588"><ele>580.0</ele><time>2026-05-03T12:16:54.02Z</time></trkpt><trkpt lat="46.360421365518754" lon="9.22113418904191"><ele>580.0</ele><time>2026-05-03T12:16:55.02Z</time></trkpt><trkpt lat="46.36022168834384" lon="9.22104817824778"><ele>572.6666666666667</ele><time>2026-05-03T12:16:56.02Z</time></trkpt><trkpt lat="46.36002367835324" lon="9.220960044269377"><ele>565.3333333333334</ele><time>2026-05-03T12:16:57.02Z</time></trkpt><trkpt lat="46.3598303596855" lon="9.22087301220898"><ele>558.0</ele><time>2026-05-03T12:16:58.02Z</time></trkpt><trkpt lat="46.359635680168076" lon="9.220787641366774"><ele>553.3333333333334</ele><time>2026-05-03T12:16:59.02Z</time></trkpt><trkpt lat="46.35945289402743" lon="9.22070716013162"><ele>548.6666666666667</ele><time>2026-05-03T12:17:00.02Z</time></trkpt><trkpt lat="46.35927505950945" lon="9.2206282154489"><ele>544.0</ele><time>2026-05-03T12:17:01.02Z</time></trkpt><trkpt lat="46.359096579416736" lon="9.220549653051798"><ele>550.3333333333334</ele><time>2026-05-03T12:17:02.02Z</time></trkpt><trkpt lat="46.35891160011161" lon="9.220497636371778"><ele>556.6666666666666</ele><time>2026-05-03T12:17:03.02Z</time></trkpt><trkpt lat="46.35872927295857" lon="9.220414138707186"><ele>563.0</ele><time>2026-05-03T12:17:04.02Z</time></trkpt><trkpt lat="46.35854915854565" lon="9.220323402046152"><ele>563.0</ele><time>2026-05-03T12:17:05.02Z</time></trkpt><trkpt lat="46.358354373786575" lon="9.220239927057273"><ele>563.0</ele><time>2026-05-03T12:17:06.02Z</time></trkpt><trkpt lat="46.358160517196104" lon="9.220156907706071"><ele>563.0</ele><time>2026-05-03T12:17:07.02Z</time></trkpt><trkpt lat="46.3579622024826" lon="9.220072676015654"><ele>557.3333333333333</ele><time>2026-05-03T12:17:08.021Z</time></trkpt><trkpt lat="46.35778188880093" lon="9.219970799728806"><ele>551.6666666666666</ele><time>2026-05-03T12:17:09.02Z</time></trkpt><trkpt lat="46.357600183052305" lon="9.219891290064481"><ele>546.0</ele><time>2026-05-03T12:17:10.02Z</time></trkpt><trkpt lat="46.35742347431993" lon="9.219835394943045"><ele>546.0</ele><time>2026-05-03T12:17:11.02Z</time></trkpt><trkpt lat="46.35724604997877" lon="9.219829976848343"><ele>546.0</ele><time>2026-05-03T12:17:12.02Z</time></trkpt><trkpt lat="46.35704917915224" lon="9.219842909185441"><ele>546.0</ele><time>2026-05-03T12:17:13.02Z</time></trkpt><trkpt lat="46.356853567762606" lon="9.219865145569647"><ele>542.6666666666666</ele><time>2026-05-03T12:17:14.021Z</time></trkpt><trkpt lat="46.35665687243889" lon="9.219880210941781"><ele>539.3333333333333</ele><time>2026-05-03T12:17:15.02Z</time></trkpt><trkpt lat="46.35645417384075" lon="9.219890102454622"><ele>536.0</ele><time>2026-05-03T12:17:16.021Z</time></trkpt><trkpt lat="46.35624592092481" lon="9.219899472981954"><ele>533.6666666666666</ele><time>2026-05-03T12:17:17.021Z</time></trkpt><trkpt lat="46.35603633623143" lon="9.21990846570153"><ele>531.3333333333334</ele><time>2026-05-03T12:17:18.021Z</time></trkpt><trkpt lat="46.355833554556625" lon="9.219922208189564"><ele>529.0</ele><time>2026-05-03T12:17:19.021Z</time></trkpt><trkpt lat="46.35564111692913" lon="9.21992389105812"><ele>530.0</ele><time>2026-05-03T12:17:20.021Z</time></trkpt><trkpt lat="46.35544816572485" lon="9.219917107494204"><ele>531.0</ele><time>2026-05-03T12:17:21.021Z</time></trkpt><trkpt lat="46.35525340508853" lon="9.21987779873902"><ele>532.0</ele><time>2026-05-03T12:17:22.021Z</time></trkpt><trkpt lat="46.355065933776864" lon="9.219783946397394"><ele>532.0</ele><time>2026-05-03T12:17:23.021Z</time></trkpt><trkpt lat="46.354880832747135" lon="9.219674406314748"><ele>532.0</ele><time>2026-05-03T12:17:24.021Z</time></trkpt><trkpt lat="46.354699954837315" lon="9.219543381654276"><ele>532.0</ele><time>2026-05-03T12:17:25.021Z</time></trkpt><trkpt lat="46.35450864141494" lon="9.219429626064887"><ele>527.3333333333334</ele><time>2026-05-03T12:17:26.021Z</time></trkpt><trkpt lat="46.35432536550128" lon="9.219282422354725"><ele>522.6666666666666</ele><time>2026-05-03T12:17:27.021Z</time></trkpt><trkpt lat="46.35413998447968" lon="9.219145398597234"><ele>518.0</ele><time>2026-05-03T12:17:28.021Z</time></trkpt><trkpt lat="46.35395912581974" lon="9.219010492672313"><ele>516.0</ele><time>2026-05-03T12:17:29.021Z</time></trkpt><trkpt lat="46.35377186239427" lon="9.218878120882783"><ele>514.0</ele><time>2026-05-03T12:17:30.021Z</time></trkpt><trkpt lat="46.353585449728435" lon="9.218731006364806"><ele>512.0</ele><time>2026-05-03T12:17:31.021Z</time></trkpt><trkpt lat="46.35339452455069" lon="9.218592845796879"><ele>512.0</ele><time>2026-05-03T12:17:32.021Z</time></trkpt><trkpt lat="46.353200973406054" lon="9.218455862663921"><ele>512.0</ele><time>2026-05-03T12:17:33.021Z</time></trkpt><trkpt lat="46.352999645093725" lon="9.218317124459336"><ele>512.0</ele><time>2026-05-03T12:17:34.021Z</time></trkpt><trkpt lat="46.352812762021614" lon="9.218158377990973"><ele>509.5</ele><time>2026-05-03T12:17:35.021Z</time></trkpt><trkpt lat="46.35243792293198" lon="9.217873616530651"><ele>507.0</ele><time>2026-05-03T12:17:37.022Z</time></trkpt><trkpt lat="46.35224098549806" lon="9.217714273293115"><ele>507.0</ele><time>2026-05-03T12:17:38.021Z</time></trkpt><trkpt lat="46.352070188253265" lon="9.217566939977955"><ele>507.0</ele><time>2026-05-03T12:17:39.022Z</time></trkpt><trkpt lat="46.35191153315564" lon="9.217418836257979"><ele>507.0</ele><time>2026-05-03T12:17:40.021Z</time></trkpt><trkpt lat="46.35175042525803" lon="9.217261304455558"><ele>507.0</ele><time>2026-05-03T12:17:41.021Z</time></trkpt><trkpt lat="46.35159161960517" lon="9.217126878581434"><ele>507.0</ele><time>2026-05-03T12:17:42.021Z</time></trkpt><trkpt lat="46.35144569937522" lon="9.216969507984691"><ele>507.0</ele><time>2026-05-03T12:17:43.021Z</time></trkpt><trkpt lat="46.35128962205841" lon="9.21679249387293"><ele>506.5</ele><time>2026-05-03T12:17:44.021Z</time></trkpt><trkpt lat="46.35095415273155" lon="9.21643874852434"><ele>506.0</ele><time>2026-05-03T12:17:46.021Z</time></trkpt><trkpt lat="46.35079538584753" lon="9.216231772485825"><ele>506.0</ele><time>2026-05-03T12:17:47.022Z</time></trkpt><trkpt lat="46.35061998888931" lon="9.216078934635915"><ele>506.0</ele><time>2026-05-03T12:17:48.021Z</time></trkpt><trkpt lat="46.35042490339036" lon="9.215950434841405"><ele>506.0</ele><time>2026-05-03T12:17:49.022Z</time></trkpt><trkpt lat="46.350237072451776" lon="9.215845405235129"><ele>504.66666666666663</ele><time>2026-05-03T12:17:50.022Z</time></trkpt><trkpt lat="46.350057639176555" lon="9.215770335569873"><ele>503.33333333333337</ele><time>2026-05-03T12:17:51.022Z</time></trkpt><trkpt lat="46.349872957860114" lon="9.215690350780893"><ele>502.0</ele><time>2026-05-03T12:17:52.023Z</time></trkpt><trkpt lat="46.34953766081998" lon="9.215602212076258"><ele>502.0</ele><time>2026-05-03T12:17:54.022Z</time></trkpt><trkpt lat="46.34937160594158" lon="9.21554199436397"><ele>502.0</ele><time>2026-05-03T12:17:55.022Z</time></trkpt><trkpt lat="46.34919963783084" lon="9.215481087587827"><ele>502.0</ele><time>2026-05-03T12:17:56.022Z</time></trkpt><trkpt lat="46.34901956434469" lon="9.215423685058587"><ele>502.0</ele><time>2026-05-03T12:17:57.022Z</time></trkpt><trkpt lat="46.34884452808435" lon="9.215362046626675"><ele>502.0</ele><time>2026-05-03T12:17:58.022Z</time></trkpt><trkpt lat="46.34867246304631" lon="9.215312099967143"><ele>502.0</ele><time>2026-05-03T12:17:59.022Z</time></trkpt><trkpt lat="46.34852018802691" lon="9.215252691553424"><ele>502.0</ele><time>2026-05-03T12:18:00.022Z</time></trkpt><trkpt lat="46.3483727102743" lon="9.215203337556032"><ele>502.0</ele><time>2026-05-03T12:18:01.022Z</time></trkpt><trkpt lat="46.34822842997365" lon="9.215162506253536"><ele>502.0</ele><time>2026-05-03T12:18:02.022Z</time></trkpt><trkpt lat="46.348090673338525" lon="9.215105458577924"><ele>502.0</ele><time>2026-05-03T12:18:03.022Z</time></trkpt><trkpt lat="46.347958776515696" lon="9.215042872115534"><ele>501.5</ele><time>2026-05-03T12:18:04.022Z</time></trkpt><trkpt lat="46.347815112761666" lon="9.214985102538781"><ele>501.0</ele><time>2026-05-03T12:18:05.023Z</time></trkpt><trkpt lat="46.34767974628795" lon="9.214897390062832"><ele>500.5</ele><time>2026-05-03T12:18:06.022Z</time></trkpt><trkpt lat="46.34754741642658" lon="9.214823445290998"><ele>500.0</ele><time>2026-05-03T12:18:07.022Z</time></trkpt><trkpt lat="46.34740602132751" lon="9.214725673707774"><ele>501.3333333333333</ele><time>2026-05-03T12:18:08.022Z</time></trkpt><trkpt lat="46.34726017990759" lon="9.214604754760913"><ele>502.66666666666663</ele><time>2026-05-03T12:18:09.022Z</time></trkpt><trkpt lat="46.347108248346686" lon="9.214481195564604"><ele>504.0</ele><time>2026-05-03T12:18:10.022Z</time></trkpt><trkpt lat="46.34694027706672" lon="9.214345394159201"><ele>504.0</ele><time>2026-05-03T12:18:11.022Z</time></trkpt><trkpt lat="46.34676914847508" lon="9.214224721351286"><ele>504.0</ele><time>2026-05-03T12:18:12.022Z</time></trkpt><trkpt lat="46.34659733691645" lon="9.214092987978336"><ele>504.0</ele><time>2026-05-03T12:18:13.022Z</time></trkpt><trkpt lat="46.34642675593949" lon="9.213958398334436"><ele>506.66666666666663</ele><time>2026-05-03T12:18:14.022Z</time></trkpt><trkpt lat="46.346257858032935" lon="9.213817584230606"><ele>509.3333333333333</ele><time>2026-05-03T12:18:15.022Z</time></trkpt><trkpt lat="46.34608666859829" lon="9.21367942471583"><ele>512.0</ele><time>2026-05-03T12:18:16.022Z</time></trkpt><trkpt lat="46.34590588176691" lon="9.21355905781309"><ele>512.0</ele><time>2026-05-03T12:18:17.022Z</time></trkpt><trkpt lat="46.34574134694331" lon="9.213460234171801"><ele>512.0</ele><time>2026-05-03T12:18:18.022Z</time></trkpt><trkpt lat="46.34557809077511" lon="9.213397708120361"><ele>512.0</ele><time>2026-05-03T12:18:19.022Z</time></trkpt><trkpt lat="46.34540091601265" lon="9.21337169109143"><ele>508.3333333333333</ele><time>2026-05-03T12:18:20.022Z</time></trkpt><trkpt lat="46.345220912714346" lon="9.21338775948484"><ele>504.66666666666663</ele><time>2026-05-03T12:18:21.022Z</time></trkpt><trkpt lat="46.345026593646445" lon="9.213426475395538"><ele>501.0</ele><time>2026-05-03T12:18:22.022Z</time></trkpt><trkpt lat="46.34483456141557" lon="9.213465849941503"><ele>503.66666666666663</ele><time>2026-05-03T12:18:23.023Z</time></trkpt><trkpt lat="46.34463275199433" lon="9.213499796231423"><ele>506.3333333333333</ele><time>2026-05-03T12:18:24.023Z</time></trkpt><trkpt lat="46.344431438739846" lon="9.213530423643485"><ele>509.0</ele><time>2026-05-03T12:18:25.023Z</time></trkpt><trkpt lat="46.34422472089848" lon="9.213558642668602"><ele>509.0</ele><time>2026-05-03T12:18:26.023Z</time></trkpt><trkpt lat="46.34401860109544" lon="9.21357741332496"><ele>509.0</ele><time>2026-05-03T12:18:27.023Z</time></trkpt><trkpt lat="46.34380751252824" lon="9.21361669397504"><ele>509.0</ele><time>2026-05-03T12:18:28.023Z</time></trkpt><trkpt lat="46.34360505439004" lon="9.213666903115946"><ele>516.0</ele><time>2026-05-03T12:18:29.023Z</time></trkpt><trkpt lat="46.34342275101766" lon="9.213713743464858"><ele>523.0</ele><time>2026-05-03T12:18:30.023Z</time></trkpt><trkpt lat="46.343249109150285" lon="9.213766428583062"><ele>530.0</ele><time>2026-05-03T12:18:31.023Z</time></trkpt><trkpt lat="46.34308297056757" lon="9.213806646443118"><ele>528.3333333333333</ele><time>2026-05-03T12:18:32.023Z</time></trkpt><trkpt lat="46.34291121583125" lon="9.213843885566682"><ele>526.6666666666666</ele><time>2026-05-03T12:18:33.023Z</time></trkpt><trkpt lat="46.34273272694279" lon="9.213863024329376"><ele>525.0</ele><time>2026-05-03T12:18:34.023Z</time></trkpt><trkpt lat="46.34256572321723" lon="9.213868710132555"><ele>525.0</ele><time>2026-05-03T12:18:35.023Z</time></trkpt><trkpt lat="46.34240861060093" lon="9.213859857379987"><ele>525.0</ele><time>2026-05-03T12:18:36.023Z</time></trkpt><trkpt lat="46.34226177307317" lon="9.213819883063143"><ele>525.0</ele><time>2026-05-03T12:18:37.023Z</time></trkpt><trkpt lat="46.342096310600844" lon="9.213792822765052"><ele>515.6666666666666</ele><time>2026-05-03T12:18:38.023Z</time></trkpt><trkpt lat="46.34193594033917" lon="9.213766380724818"><ele>506.3333333333333</ele><time>2026-05-03T12:18:39.023Z</time></trkpt><trkpt lat="46.341767409664236" lon="9.21374092506469"><ele>497.0</ele><time>2026-05-03T12:18:40.023Z</time></trkpt><trkpt lat="46.341591891597915" lon="9.213720149950701"><ele>497.0</ele><time>2026-05-03T12:18:41.024Z</time></trkpt><trkpt lat="46.34141396150751" lon="9.21369475731419"><ele>497.0</ele><time>2026-05-03T12:18:42.023Z</time></trkpt><trkpt lat="46.34122875691373" lon="9.213674036325045"><ele>497.0</ele><time>2026-05-03T12:18:43.023Z</time></trkpt><trkpt lat="46.341039945220786" lon="9.213644196213142"><ele>492.66666666666663</ele><time>2026-05-03T12:18:44.023Z</time></trkpt><trkpt lat="46.34084939755981" lon="9.213615614352472"><ele>488.33333333333337</ele><time>2026-05-03T12:18:45.023Z</time></trkpt><trkpt lat="46.34065622608735" lon="9.213585712269346"><ele>484.0</ele><time>2026-05-03T12:18:46.023Z</time></trkpt><trkpt lat="46.34046688635762" lon="9.213556012933022"><ele>483.6666666666667</ele><time>2026-05-03T12:18:47.023Z</time></trkpt><trkpt lat="46.3402745544768" lon="9.213503990436624"><ele>483.33333333333337</ele><time>2026-05-03T12:18:48.023Z</time></trkpt><trkpt lat="46.340088503564054" lon="9.2134298185164"><ele>483.0</ele><time>2026-05-03T12:18:49.023Z</time></trkpt><trkpt lat="46.339904319006834" lon="9.213305016315571"><ele>482.0</ele><time>2026-05-03T12:18:50.023Z</time></trkpt><trkpt lat="46.33973192529893" lon="9.21315518656993"><ele>481.0</ele><time>2026-05-03T12:18:51.023Z</time></trkpt><trkpt lat="46.33957627016518" lon="9.212956735013007"><ele>480.0</ele><time>2026-05-03T12:18:52.023Z</time></trkpt><trkpt lat="46.339428724774116" lon="9.212735837822809"><ele>480.0</ele><time>2026-05-03T12:18:53.023Z</time></trkpt><trkpt lat="46.3393091553842" lon="9.21249671751165"><ele>480.0</ele><time>2026-05-03T12:18:54.023Z</time></trkpt><trkpt lat="46.33918498829142" lon="9.21224769616086"><ele>480.0</ele><time>2026-05-03T12:18:55.023Z</time></trkpt><trkpt lat="46.3390552178875" lon="9.212019000878652"><ele>482.0</ele><time>2026-05-03T12:18:56.024Z</time></trkpt><trkpt lat="46.33892193597448" lon="9.211786324535726"><ele>484.0</ele><time>2026-05-03T12:18:57.024Z</time></trkpt><trkpt lat="46.33879287451503" lon="9.211547401799974"><ele>486.0</ele><time>2026-05-03T12:18:58.024Z</time></trkpt><trkpt lat="46.33867165927021" lon="9.211306379687713"><ele>486.0</ele><time>2026-05-03T12:18:59.024Z</time></trkpt><trkpt lat="46.33854755140258" lon="9.21107001600609"><ele>486.0</ele><time>2026-05-03T12:19:00.024Z</time></trkpt><trkpt lat="46.338423950599434" lon="9.210826767923223"><ele>486.0</ele><time>2026-05-03T12:19:01.024Z</time></trkpt><trkpt lat="46.33830049476237" lon="9.210574183307735"><ele>488.33333333333337</ele><time>2026-05-03T12:19:02.024Z</time></trkpt><trkpt lat="46.3381954915303" lon="9.210308929728424"><ele>490.6666666666667</ele><time>2026-05-03T12:19:03.024Z</time></trkpt><trkpt lat="46.33806831580252" lon="9.210073498854356"><ele>493.0</ele><time>2026-05-03T12:19:04.024Z</time></trkpt><trkpt lat="46.337970379367086" lon="9.209828141825087"><ele>488.0</ele><time>2026-05-03T12:19:05.024Z</time></trkpt><trkpt lat="46.337850546581286" lon="9.209612680999232"><ele>483.0</ele><time>2026-05-03T12:19:06.024Z</time></trkpt><trkpt lat="46.337759656477296" lon="9.209381887186193"><ele>478.0</ele><time>2026-05-03T12:19:07.024Z</time></trkpt><trkpt lat="46.33766051587195" lon="9.209167514990508"><ele>480.33333333333337</ele><time>2026-05-03T12:19:08.024Z</time></trkpt><trkpt lat="46.33757630624221" lon="9.208957519515378"><ele>482.66666666666663</ele><time>2026-05-03T12:19:09.024Z</time></trkpt><trkpt lat="46.33751161489944" lon="9.208752320826303"><ele>485.0</ele><time>2026-05-03T12:19:10.024Z</time></trkpt><trkpt lat="46.337460182610094" lon="9.208521220620264"><ele>485.0</ele><time>2026-05-03T12:19:11.024Z</time></trkpt><trkpt lat="46.337398154270396" lon="9.208274398222402"><ele>485.0</ele><time>2026-05-03T12:19:12.024Z</time></trkpt><trkpt lat="46.33735013290662" lon="9.208011898057176"><ele>485.0</ele><time>2026-05-03T12:19:13.024Z</time></trkpt><trkpt lat="46.33728593404105" lon="9.207774191488088"><ele>483.0</ele><time>2026-05-03T12:19:14.024Z</time></trkpt><trkpt lat="46.33717697995942" lon="9.207558518682578"><ele>481.0</ele><time>2026-05-03T12:19:15.024Z</time></trkpt><trkpt lat="46.33702815357932" lon="9.207365434676117"><ele>479.0</ele><time>2026-05-03T12:19:16.024Z</time></trkpt><trkpt lat="46.33685879447325" lon="9.207227473259177"><ele>479.0</ele><time>2026-05-03T12:19:17.024Z</time></trkpt><trkpt lat="46.33667227131838" lon="9.207105383155751"><ele>479.0</ele><time>2026-05-03T12:19:18.024Z</time></trkpt><trkpt lat="46.336483380716345" lon="9.206981463036563"><ele>479.0</ele><time>2026-05-03T12:19:19.024Z</time></trkpt><trkpt lat="46.33628853874658" lon="9.206849927683155"><ele>482.66666666666663</ele><time>2026-05-03T12:19:20.024Z</time></trkpt><trkpt lat="46.33609882981193" lon="9.20669593907342"><ele>486.33333333333337</ele><time>2026-05-03T12:19:21.024Z</time></trkpt><trkpt lat="46.335896270480816" lon="9.206560867432268"><ele>490.0</ele><time>2026-05-03T12:19:22.024Z</time></trkpt><trkpt lat="46.33569171180072" lon="9.206423606914049"><ele>482.6666666666667</ele><time>2026-05-03T12:19:23.024Z</time></trkpt><trkpt lat="46.33549156462029" lon="9.206282510397104"><ele>475.33333333333337</ele><time>2026-05-03T12:19:24.024Z</time></trkpt><trkpt lat="46.3352942198018" lon="9.20613879028456"><ele>468.0</ele><time>2026-05-03T12:19:25.024Z</time></trkpt><trkpt lat="46.33510831129298" lon="9.205999813007601"><ele>468.0</ele><time>2026-05-03T12:19:26.024Z</time></trkpt><trkpt lat="46.33492471149992" lon="9.205866485635907"><ele>468.0</ele><time>2026-05-03T12:19:27.025Z</time></trkpt><trkpt lat="46.334738636190345" lon="9.205742978138932"><ele>468.0</ele><time>2026-05-03T12:19:28.024Z</time></trkpt><trkpt lat="46.33454110023609" lon="9.205645865694859"><ele>472.66666666666663</ele><time>2026-05-03T12:19:29.024Z</time></trkpt><trkpt lat="46.334338456316665" lon="9.205580586862414"><ele>477.3333333333333</ele><time>2026-05-03T12:19:30.025Z</time></trkpt><trkpt lat="46.334138245729996" lon="9.205542307644842"><ele>482.0</ele><time>2026-05-03T12:19:31.025Z</time></trkpt><trkpt lat="46.33393424918567" lon="9.205547613958975"><ele>484.3333333333333</ele><time>2026-05-03T12:19:32.025Z</time></trkpt><trkpt lat="46.33372937535365" lon="9.205575654309763"><ele>486.66666666666663</ele><time>2026-05-03T12:19:33.025Z</time></trkpt><trkpt lat="46.33352391855989" lon="9.205609143391458"><ele>489.0</ele><time>2026-05-03T12:19:34.025Z</time></trkpt><trkpt lat="46.33332170674374" lon="9.205640636389996"><ele>479.66666666666663</ele><time>2026-05-03T12:19:35.025Z</time></trkpt><trkpt lat="46.33311186350703" lon="9.205677713048063"><ele>470.3333333333333</ele><time>2026-05-03T12:19:36.025Z</time></trkpt><trkpt lat="46.33290218966968" lon="9.205693479507458"><ele>461.0</ele><time>2026-05-03T12:19:37.025Z</time></trkpt><trkpt lat="46.33269511993039" lon="9.20575985044988"><ele>460.3333333333333</ele><time>2026-05-03T12:19:38.025Z</time></trkpt><trkpt lat="46.33248726089034" lon="9.205798093242958"><ele>459.66666666666663</ele><time>2026-05-03T12:19:39.025Z</time></trkpt><trkpt lat="46.332289053142006" lon="9.20583305849437"><ele>459.0</ele><time>2026-05-03T12:19:40.025Z</time></trkpt><trkpt lat="46.33209993578289" lon="9.205852699017173"><ele>457.33333333333337</ele><time>2026-05-03T12:19:41.025Z</time></trkpt><trkpt lat="46.33191309009516" lon="9.205835623926477"><ele>455.6666666666667</ele><time>2026-05-03T12:19:42.025Z</time></trkpt><trkpt lat="46.331737191489786" lon="9.20578688777126"><ele>454.0</ele><time>2026-05-03T12:19:43.025Z</time></trkpt><trkpt lat="46.33157654435373" lon="9.205729574466"><ele>454.0</ele><time>2026-05-03T12:19:44.025Z</time></trkpt><trkpt lat="46.33142061377116" lon="9.205672644962975"><ele>454.0</ele><time>2026-05-03T12:19:45.025Z</time></trkpt><trkpt lat="46.33127314521361" lon="9.205617793268376"><ele>454.0</ele><time>2026-05-03T12:19:46.025Z</time></trkpt><trkpt lat="46.33113416398231" lon="9.205565764779681"><ele>454.5</ele><time>2026-05-03T12:19:47.025Z</time></trkpt><trkpt lat="46.33100428531991" lon="9.205517461198381"><ele>455.0</ele><time>2026-05-03T12:19:48.025Z</time></trkpt><trkpt lat="46.33087993537418" lon="9.205471554259752"><ele>455.5</ele><time>2026-05-03T12:19:49.025Z</time></trkpt><trkpt lat="46.33076172735149" lon="9.205428859003838"><ele>456.0</ele><time>2026-05-03T12:19:50.025Z</time></trkpt><trkpt lat="46.330645587109665" lon="9.20538477553301"><ele>454.0</ele><time>2026-05-03T12:19:51.025Z</time></trkpt><trkpt lat="46.33052617801948" lon="9.20533837695819"><ele>452.0</ele><time>2026-05-03T12:19:52.025Z</time></trkpt><trkpt lat="46.33040222928594" lon="9.205289313832244"><ele>450.0</ele><time>2026-05-03T12:19:53.025Z</time></trkpt><trkpt lat="46.3302733366092" lon="9.20524183913358"><ele>448.0</ele><time>2026-05-03T12:19:54.025Z</time></trkpt><trkpt lat="46.33013980787321" lon="9.205184282573278"><ele>448.0</ele><time>2026-05-03T12:19:55.025Z</time></trkpt><trkpt lat="46.33000550566883" lon="9.205128336781868"><ele>448.0</ele><time>2026-05-03T12:19:56.025Z</time></trkpt><trkpt lat="46.32987652957921" lon="9.20506898026296"><ele>448.0</ele><time>2026-05-03T12:19:57.025Z</time></trkpt><trkpt lat="46.329762400235914" lon="9.205010081748016"><ele>448.0</ele><time>2026-05-03T12:19:58.025Z</time></trkpt><trkpt lat="46.32965345300996" lon="9.204950593057548"><ele>447.5</ele><time>2026-05-03T12:19:59.025Z</time></trkpt><trkpt lat="46.329539130079205" lon="9.204884886214867"><ele>447.0</ele><time>2026-05-03T12:20:00.025Z</time></trkpt><trkpt lat="46.329421253654424" lon="9.20481769250202"><ele>446.5</ele><time>2026-05-03T12:20:01.026Z</time></trkpt><trkpt lat="46.32929851369061" lon="9.204747397960036"><ele>446.0</ele><time>2026-05-03T12:20:02.025Z</time></trkpt><trkpt lat="46.32917335679543" lon="9.204672282343958"><ele>446.0</ele><time>2026-05-03T12:20:03.026Z</time></trkpt><trkpt lat="46.32904598937783" lon="9.204593847557927"><ele>446.0</ele><time>2026-05-03T12:20:04.026Z</time></trkpt><trkpt lat="46.32891540755999" lon="9.204516901605377"><ele>446.0</ele><time>2026-05-03T12:20:05.026Z</time></trkpt><trkpt lat="46.32878626696781" lon="9.204442636933674"><ele>446.0</ele><time>2026-05-03T12:20:06.026Z</time></trkpt><trkpt lat="46.328657599229764" lon="9.204356147945068"><ele>446.0</ele><time>2026-05-03T12:20:07.026Z</time></trkpt><trkpt lat="46.328528873260865" lon="9.204276430675149"><ele>446.0</ele><time>2026-05-03T12:20:08.026Z</time></trkpt><trkpt lat="46.328404322393276" lon="9.204197025407279"><ele>446.0</ele><time>2026-05-03T12:20:09.027Z</time></trkpt><trkpt lat="46.328287900947956" lon="9.20412783840778"><ele>446.0</ele><time>2026-05-03T12:20:10.026Z</time></trkpt><trkpt lat="46.32817328863995" lon="9.204059901765845"><ele>446.0</ele><time>2026-05-03T12:20:11.026Z</time></trkpt><trkpt lat="46.32806434124432" lon="9.203965884854487"><ele>446.0</ele><time>2026-05-03T12:20:12.026Z</time></trkpt><trkpt lat="46.32795184758302" lon="9.203898153488812"><ele>446.0</ele><time>2026-05-03T12:20:13.026Z</time></trkpt><trkpt lat="46.327837352443936" lon="9.203827144938538"><ele>446.0</ele><time>2026-05-03T12:20:14.026Z</time></trkpt><trkpt lat="46.32771608784815" lon="9.203761610242852"><ele>445.5</ele><time>2026-05-03T12:20:15.026Z</time></trkpt><trkpt lat="46.327588970654986" lon="9.203688317974978"><ele>445.0</ele><time>2026-05-03T12:20:16.026Z</time></trkpt><trkpt lat="46.327459477347006" lon="9.203607831631132"><ele>444.5</ele><time>2026-05-03T12:20:17.026Z</time></trkpt><trkpt lat="46.327330901709495" lon="9.20353192837905"><ele>444.0</ele><time>2026-05-03T12:20:18.026Z</time></trkpt><trkpt lat="46.32721280673582" lon="9.203463907670967"><ele>444.0</ele><time>2026-05-03T12:20:19.026Z</time></trkpt><trkpt lat="46.32709806179653" lon="9.203396410841957"><ele>444.0</ele><time>2026-05-03T12:20:20.026Z</time></trkpt><trkpt lat="46.32697900008646" lon="9.203336737016437"><ele>444.0</ele><time>2026-05-03T12:20:21.026Z</time></trkpt><trkpt lat="46.32685348071833" lon="9.203288228883471"><ele>444.0</ele><time>2026-05-03T12:20:22.026Z</time></trkpt><trkpt lat="46.32672482414946" lon="9.203250524337431"><ele>444.0</ele><time>2026-05-03T12:20:23.026Z</time></trkpt><trkpt lat="46.32658960098501" lon="9.203235072045485"><ele>444.0</ele><time>2026-05-03T12:20:24.026Z</time></trkpt><trkpt lat="46.326458936060554" lon="9.203198509420034"><ele>444.0</ele><time>2026-05-03T12:20:25.026Z</time></trkpt><trkpt lat="46.32633221383536" lon="9.203208261918444"><ele>444.0</ele><time>2026-05-03T12:20:26.026Z</time></trkpt><trkpt lat="46.32621607748853" lon="9.20321361716223"><ele>444.75</ele><time>2026-05-03T12:20:27.026Z</time></trkpt><trkpt lat="46.32610701241291" lon="9.203218121282175"><ele>445.5</ele><time>2026-05-03T12:20:28.026Z</time></trkpt><trkpt lat="46.325991949715025" lon="9.203223405931295"><ele>446.25</ele><time>2026-05-03T12:20:29.026Z</time></trkpt><trkpt lat="46.325872519920416" lon="9.203231958830411"><ele>447.0</ele><time>2026-05-03T12:20:30.026Z</time></trkpt><trkpt lat="46.325749584767784" lon="9.203235963571656"><ele>447.0</ele><time>2026-05-03T12:20:31.026Z</time></trkpt><trkpt lat="46.325623478480644" lon="9.203244335400145"><ele>447.0</ele><time>2026-05-03T12:20:32.026Z</time></trkpt><trkpt lat="46.32549403379349" lon="9.203251713132856"><ele>447.0</ele><time>2026-05-03T12:20:33.026Z</time></trkpt><trkpt lat="46.325359874365176" lon="9.203260635247963"><ele>447.0</ele><time>2026-05-03T12:20:34.026Z</time></trkpt><trkpt lat="46.32522539645867" lon="9.203265759409005"><ele>447.5</ele><time>2026-05-03T12:20:35.026Z</time></trkpt><trkpt lat="46.32508926495992" lon="9.203268557122907"><ele>448.0</ele><time>2026-05-03T12:20:36.026Z</time></trkpt><trkpt lat="46.32495808102138" lon="9.203272044153268"><ele>448.5</ele><time>2026-05-03T12:20:37.027Z</time></trkpt><trkpt lat="46.324825836651364" lon="9.20328557438551"><ele>449.0</ele><time>2026-05-03T12:20:38.027Z</time></trkpt><trkpt lat="46.32469146721389" lon="9.203306353647886"><ele>447.25</ele><time>2026-05-03T12:20:39.027Z</time></trkpt><trkpt lat="46.324553176334625" lon="9.203325514057244"><ele>445.5</ele><time>2026-05-03T12:20:40.027Z</time></trkpt><trkpt lat="46.324415175110296" lon="9.203366703697274"><ele>443.75</ele><time>2026-05-03T12:20:41.027Z</time></trkpt><trkpt lat="46.32427595130942" lon="9.203414951109304"><ele>442.0</ele><time>2026-05-03T12:20:42.027Z</time></trkpt><trkpt lat="46.32413563571717" lon="9.203465019753073"><ele>442.0</ele><time>2026-05-03T12:20:43.027Z</time></trkpt><trkpt lat="46.323997992521434" lon="9.203517788514503"><ele>442.0</ele><time>2026-05-03T12:20:44.027Z</time></trkpt><trkpt lat="46.323858573713665" lon="9.203570760869969"><ele>442.0</ele><time>2026-05-03T12:20:45.027Z</time></trkpt><trkpt lat="46.323718245200084" lon="9.203629548057599"><ele>442.0</ele><time>2026-05-03T12:20:46.027Z</time></trkpt><trkpt lat="46.32356923117616" lon="9.20369025103048"><ele>440.33333333333337</ele><time>2026-05-03T12:20:47.028Z</time></trkpt><trkpt lat="46.32342238728218" lon="9.203748263065673"><ele>438.66666666666663</ele><time>2026-05-03T12:20:48.027Z</time></trkpt><trkpt lat="46.32326536727294" lon="9.2038106091143"><ele>437.0</ele><time>2026-05-03T12:20:49.027Z</time></trkpt><trkpt lat="46.323108286239936" lon="9.20387120715702"><ele>436.3333333333333</ele><time>2026-05-03T12:20:50.027Z</time></trkpt><trkpt lat="46.32294981231579" lon="9.203929646423884"><ele>435.66666666666663</ele><time>2026-05-03T12:20:51.027Z</time></trkpt><trkpt lat="46.32278961183781" lon="9.203983472543406"><ele>435.0</ele><time>2026-05-03T12:20:52.027Z</time></trkpt><trkpt lat="46.322626293390634" lon="9.204034300107617"><ele>435.0</ele><time>2026-05-03T12:20:53.027Z</time></trkpt><trkpt lat="46.32245536925164" lon="9.204072312358562"><ele>435.0</ele><time>2026-05-03T12:20:54.027Z</time></trkpt><trkpt lat="46.32227978232838" lon="9.20409091009182"><ele>435.0</ele><time>2026-05-03T12:20:55.027Z</time></trkpt><trkpt lat="46.32210441512602" lon="9.20408050890185"><ele>429.0</ele><time>2026-05-03T12:20:56.027Z</time></trkpt><trkpt lat="46.32135627010093" lon="9.203570167243853"><ele>429.0</ele><time>2026-05-03T12:21:01.027Z</time></trkpt><trkpt lat="46.32122722527141" lon="9.203407723530649"><ele>429.0</ele><time>2026-05-03T12:21:02.027Z</time></trkpt><trkpt lat="46.32082428016556" lon="9.20287677751511"><ele>429.0</ele><time>2026-05-03T12:21:05.027Z</time></trkpt><trkpt lat="46.32068199499123" lon="9.202689293445324"><ele>429.0</ele><time>2026-05-03T12:21:06.027Z</time></trkpt><trkpt lat="46.32054470692634" lon="9.202507883702047"><ele>429.0</ele><time>2026-05-03T12:21:07.027Z</time></trkpt><trkpt lat="46.32040949189692" lon="9.202327970431291"><ele>429.0</ele><time>2026-05-03T12:21:08.027Z</time></trkpt><trkpt lat="46.32027313017803" lon="9.202146531398997"><ele>429.0</ele><time>2026-05-03T12:21:09.027Z</time></trkpt><trkpt lat="46.320001243190646" lon="9.201784766404813"><ele>429.0</ele><time>2026-05-03T12:21:11.028Z</time></trkpt><trkpt lat="46.31986606411365" lon="9.201604901362195"><ele>429.0</ele><time>2026-05-03T12:21:12.028Z</time></trkpt><trkpt lat="46.31971846853676" lon="9.201439763866942"><ele>429.0</ele><time>2026-05-03T12:21:13.028Z</time></trkpt><trkpt lat="46.319580947430225" lon="9.20125146122594"><ele>429.0</ele><time>2026-05-03T12:21:14.028Z</time></trkpt><trkpt lat="46.319440665984516" lon="9.201058458336346"><ele>429.0</ele><time>2026-05-03T12:21:15.028Z</time></trkpt><trkpt lat="46.319298085369525" lon="9.200869067766899"><ele>429.0</ele><time>2026-05-03T12:21:16.028Z</time></trkpt><trkpt lat="46.31915950052959" lon="9.200681459760318"><ele>428.0</ele><time>2026-05-03T12:21:17.028Z</time></trkpt><trkpt lat="46.319023231473984" lon="9.20050275211341"><ele>427.0</ele><time>2026-05-03T12:21:18.028Z</time></trkpt><trkpt lat="46.31888707167485" lon="9.200321261689439"><ele>426.0</ele><time>2026-05-03T12:21:19.028Z</time></trkpt><trkpt lat="46.318760403758716" lon="9.200156441659633"><ele>426.25</ele><time>2026-05-03T12:21:20.028Z</time></trkpt><trkpt lat="46.31864975263384" lon="9.200004386999625"><ele>426.5</ele><time>2026-05-03T12:21:21.028Z</time></trkpt><trkpt lat="46.31854564879955" lon="9.19986323641109"><ele>426.75</ele><time>2026-05-03T12:21:22.028Z</time></trkpt><trkpt lat="46.31844497279301" lon="9.199734070279856"><ele>427.0</ele><time>2026-05-03T12:21:23.028Z</time></trkpt><trkpt lat="46.31834194561167" lon="9.199592517020486"><ele>427.0</ele><time>2026-05-03T12:21:24.028Z</time></trkpt><trkpt lat="46.318237532044314" lon="9.199452321263566"><ele>427.0</ele><time>2026-05-03T12:21:25.028Z</time></trkpt><trkpt lat="46.318119360281806" lon="9.199312208783722"><ele>427.0</ele><time>2026-05-03T12:21:26.028Z</time></trkpt><trkpt lat="46.31800363247314" lon="9.199178280614898"><ele>427.0</ele><time>2026-05-03T12:21:27.028Z</time></trkpt><trkpt lat="46.3178741537609" lon="9.199060114824134"><ele>427.0</ele><time>2026-05-03T12:21:28.028Z</time></trkpt><trkpt lat="46.31774105001105" lon="9.198947205112606"><ele>427.0</ele><time>2026-05-03T12:21:29.028Z</time></trkpt><trkpt lat="46.31761319633715" lon="9.19884103788511"><ele>427.0</ele><time>2026-05-03T12:21:30.028Z</time></trkpt><trkpt lat="46.317493757371665" lon="9.198743537835401"><ele>427.0</ele><time>2026-05-03T12:21:31.028Z</time></trkpt><trkpt lat="46.31738734321577" lon="9.1986567981824"><ele>427.0</ele><time>2026-05-03T12:21:32.028Z</time></trkpt><trkpt lat="46.317287203068545" lon="9.198577519673936"><ele>427.00000000000006</ele><time>2026-05-03T12:21:33.028Z</time></trkpt><trkpt lat="46.317196336359665" lon="9.19850395253783"><ele>427.00000000000006</ele><time>2026-05-03T12:21:34.028Z</time></trkpt><trkpt lat="46.317106329019126" lon="9.198431225734918"><ele>427.0</ele><time>2026-05-03T12:21:35.028Z</time></trkpt><trkpt lat="46.317018361864115" lon="9.198365655132664"><ele>427.0</ele><time>2026-05-03T12:21:36.028Z</time></trkpt><trkpt lat="46.3169356446237" lon="9.198300891815386"><ele>427.20000000000005</ele><time>2026-05-03T12:21:37.028Z</time></trkpt><trkpt lat="46.31684652298867" lon="9.198234675883404"><ele>427.40000000000003</ele><time>2026-05-03T12:21:38.028Z</time></trkpt><trkpt lat="46.316761178675016" lon="9.19813679114253"><ele>427.59999999999997</ele><time>2026-05-03T12:21:39.028Z</time></trkpt><trkpt lat="46.31667120096426" lon="9.198058651264477"><ele>427.79999999999995</ele><time>2026-05-03T12:21:40.028Z</time></trkpt><trkpt lat="46.316577455570496" lon="9.197978416068489"><ele>428.0</ele><time>2026-05-03T12:21:41.028Z</time></trkpt><trkpt lat="46.31647669221145" lon="9.197900024485525"><ele>427.75</ele><time>2026-05-03T12:21:42.028Z</time></trkpt><trkpt lat="46.31637006560685" lon="9.1978228680523"><ele>427.5</ele><time>2026-05-03T12:21:43.028Z</time></trkpt><trkpt lat="46.31626255241732" lon="9.197739621435222"><ele>427.25</ele><time>2026-05-03T12:21:44.029Z</time></trkpt><trkpt lat="46.31614892668993" lon="9.197650935461722"><ele>427.0</ele><time>2026-05-03T12:21:45.029Z</time></trkpt><trkpt lat="46.3160347861399" lon="9.197560641262621"><ele>427.0</ele><time>2026-05-03T12:21:46.029Z</time></trkpt><trkpt lat="46.31591720271464" lon="9.197469341419609"><ele>427.0</ele><time>2026-05-03T12:21:47.029Z</time></trkpt><trkpt lat="46.31580128282915" lon="9.19737578675638"><ele>427.0</ele><time>2026-05-03T12:21:48.029Z</time></trkpt><trkpt lat="46.315686315769746" lon="9.197280375051646"><ele>427.0</ele><time>2026-05-03T12:21:49.029Z</time></trkpt><trkpt lat="46.315577082305715" lon="9.197187416472431"><ele>428.25</ele><time>2026-05-03T12:21:50.029Z</time></trkpt><trkpt lat="46.31546974447302" lon="9.197101861997071"><ele>429.5</ele><time>2026-05-03T12:21:51.029Z</time></trkpt><trkpt lat="46.315365883253016" lon="9.19702254884989"><ele>430.75</ele><time>2026-05-03T12:21:52.029Z</time></trkpt><trkpt lat="46.31526615808302" lon="9.196942873812544"><ele>432.0</ele><time>2026-05-03T12:21:53.029Z</time></trkpt><trkpt lat="46.315171610961514" lon="9.196867382335297"><ele>432.0</ele><time>2026-05-03T12:21:54.029Z</time></trkpt><trkpt lat="46.31507340095582" lon="9.196794331284044"><ele>432.00000000000006</ele><time>2026-05-03T12:21:55.029Z</time></trkpt><trkpt lat="46.31497663954619" lon="9.196721656156578"><ele>432.00000000000006</ele><time>2026-05-03T12:21:56.029Z</time></trkpt><trkpt lat="46.3148741894846" lon="9.196655398567927"><ele>432.0</ele><time>2026-05-03T12:21:57.029Z</time></trkpt><trkpt lat="46.314778248625586" lon="9.196575578513638"><ele>432.0</ele><time>2026-05-03T12:21:58.029Z</time></trkpt><trkpt lat="46.314662399540616" lon="9.196531706863126"><ele>432.25</ele><time>2026-05-03T12:21:59.029Z</time></trkpt><trkpt lat="46.31455341896394" lon="9.196477327902283"><ele>432.5</ele><time>2026-05-03T12:22:00.029Z</time></trkpt><trkpt lat="46.314438966469105" lon="9.196434735498023"><ele>432.75</ele><time>2026-05-03T12:22:01.029Z</time></trkpt><trkpt lat="46.314317921182706" lon="9.196391038547262"><ele>433.0</ele><time>2026-05-03T12:22:02.029Z</time></trkpt><trkpt lat="46.31419559942431" lon="9.196349898579983"><ele>433.0</ele><time>2026-05-03T12:22:03.029Z</time></trkpt><trkpt lat="46.314073533439455" lon="9.196308985594252"><ele>433.0</ele><time>2026-05-03T12:22:04.029Z</time></trkpt><trkpt lat="46.313950334492816" lon="9.196265935446872"><ele>433.0</ele><time>2026-05-03T12:22:05.029Z</time></trkpt><trkpt lat="46.313827605600416" lon="9.196226078304573"><ele>433.0</ele><time>2026-05-03T12:22:06.029Z</time></trkpt><trkpt lat="46.31371088706665" lon="9.196185435239501"><ele>431.5</ele><time>2026-05-03T12:22:07.029Z</time></trkpt><trkpt lat="46.31359674990232" lon="9.196142736108674"><ele>430.0</ele><time>2026-05-03T12:22:08.029Z</time></trkpt><trkpt lat="46.31348306450523" lon="9.196099386064045"><ele>428.5</ele><time>2026-05-03T12:22:09.029Z</time></trkpt><trkpt lat="46.3133675022706" lon="9.196062721463726"><ele>427.0</ele><time>2026-05-03T12:22:10.029Z</time></trkpt><trkpt lat="46.31324937288757" lon="9.196019510545485"><ele>427.0</ele><time>2026-05-03T12:22:11.029Z</time></trkpt><trkpt lat="46.313126476178454" lon="9.19597768551299"><ele>427.0</ele><time>2026-05-03T12:22:12.029Z</time></trkpt><trkpt lat="46.31300489681386" lon="9.195938463513714"><ele>427.0</ele><time>2026-05-03T12:22:13.029Z</time></trkpt><trkpt lat="46.31288171069865" lon="9.195900669542182"><ele>427.0</ele><time>2026-05-03T12:22:14.029Z</time></trkpt><trkpt lat="46.31276125948296" lon="9.195864565551917"><ele>426.75</ele><time>2026-05-03T12:22:15.029Z</time></trkpt><trkpt lat="46.31263400586369" lon="9.195820585205746"><ele>426.5</ele><time>2026-05-03T12:22:16.029Z</time></trkpt><trkpt lat="46.31250900447972" lon="9.195761331749992"><ele>426.25</ele><time>2026-05-03T12:22:17.03Z</time></trkpt><trkpt lat="46.31238194551323" lon="9.195687441776956"><ele>426.0</ele><time>2026-05-03T12:22:18.03Z</time></trkpt><trkpt lat="46.31226081222656" lon="9.195596991872023"><ele>425.0</ele><time>2026-05-03T12:22:19.03Z</time></trkpt><trkpt lat="46.31214330339931" lon="9.195508203348224"><ele>424.0</ele><time>2026-05-03T12:22:20.03Z</time></trkpt><trkpt lat="46.31202796739155" lon="9.195425040783244"><ele>423.0</ele><time>2026-05-03T12:22:21.03Z</time></trkpt><trkpt lat="46.311914653202855" lon="9.195343316032677"><ele>422.0</ele><time>2026-05-03T12:22:22.03Z</time></trkpt><trkpt lat="46.31180078641978" lon="9.195260918441816"><ele>422.0</ele><time>2026-05-03T12:22:23.03Z</time></trkpt><trkpt lat="46.311685198014914" lon="9.195180174673077"><ele>422.0</ele><time>2026-05-03T12:22:24.03Z</time></trkpt><trkpt lat="46.31156992567097" lon="9.19509589432672"><ele>422.0</ele><time>2026-05-03T12:22:25.03Z</time></trkpt><trkpt lat="46.311444795298186" lon="9.195020334078304"><ele>422.0</ele><time>2026-05-03T12:22:26.03Z</time></trkpt><trkpt lat="46.311320770301755" lon="9.194937223559796"><ele>422.0</ele><time>2026-05-03T12:22:27.03Z</time></trkpt><trkpt lat="46.31119810533764" lon="9.194848054596786"><ele>422.0</ele><time>2026-05-03T12:22:28.03Z</time></trkpt><trkpt lat="46.311081723226785" lon="9.194756602778842"><ele>422.0</ele><time>2026-05-03T12:22:29.03Z</time></trkpt><trkpt lat="46.31096676397071" lon="9.194669236677761"><ele>422.0</ele><time>2026-05-03T12:22:30.03Z</time></trkpt><trkpt lat="46.31085567738537" lon="9.194578525898818"><ele>422.0</ele><time>2026-05-03T12:22:31.03Z</time></trkpt><trkpt lat="46.31073591488815" lon="9.194496242010333"><ele>422.0</ele><time>2026-05-03T12:22:32.03Z</time></trkpt><trkpt lat="46.31061331003808" lon="9.19440833255842"><ele>422.0</ele><time>2026-05-03T12:22:33.03Z</time></trkpt><trkpt lat="46.31048668681023" lon="9.19432515995793"><ele>422.0</ele><time>2026-05-03T12:22:34.03Z</time></trkpt><trkpt lat="46.31035487141969" lon="9.194237715743597"><ele>422.66666666666663</ele><time>2026-05-03T12:22:35.03Z</time></trkpt><trkpt lat="46.310219136165216" lon="9.194144574601756"><ele>423.33333333333337</ele><time>2026-05-03T12:22:36.03Z</time></trkpt><trkpt lat="46.31007964100574" lon="9.194049648709887"><ele>424.0</ele><time>2026-05-03T12:22:37.03Z</time></trkpt><trkpt lat="46.309943044395624" lon="9.19395270599186"><ele>424.0</ele><time>2026-05-03T12:22:38.03Z</time></trkpt><trkpt lat="46.30980107646536" lon="9.193859033381715"><ele>424.0</ele><time>2026-05-03T12:22:39.03Z</time></trkpt><trkpt lat="46.30966936161819" lon="9.193735623050395"><ele>424.0</ele><time>2026-05-03T12:22:40.03Z</time></trkpt><trkpt lat="46.309528210030514" lon="9.19363224636366"><ele>422.0</ele><time>2026-05-03T12:22:41.03Z</time></trkpt><trkpt lat="46.30937542762437" lon="9.19354666177554"><ele>420.0</ele><time>2026-05-03T12:22:42.03Z</time></trkpt><trkpt lat="46.30922867795058" lon="9.193432356936212"><ele>418.0</ele><time>2026-05-03T12:22:43.03Z</time></trkpt><trkpt lat="46.30908162550114" lon="9.193323608777428"><ele>418.0</ele><time>2026-05-03T12:22:44.03Z</time></trkpt><trkpt lat="46.30893187943027" lon="9.193210356486496"><ele>418.0</ele><time>2026-05-03T12:22:45.03Z</time></trkpt><trkpt lat="46.30878072246633" lon="9.193103091069416"><ele>418.0</ele><time>2026-05-03T12:22:46.03Z</time></trkpt><trkpt lat="46.308623713475235" lon="9.192985187440748"><ele>417.33333333333337</ele><time>2026-05-03T12:22:47.03Z</time></trkpt><trkpt lat="46.30846123625769" lon="9.192860152226585"><ele>416.66666666666663</ele><time>2026-05-03T12:22:48.03Z</time></trkpt><trkpt lat="46.30828764157663" lon="9.19273453681363"><ele>416.0</ele><time>2026-05-03T12:22:49.03Z</time></trkpt><trkpt lat="46.308111523714715" lon="9.192610598591614"><ele>415.3333333333333</ele><time>2026-05-03T12:22:50.031Z</time></trkpt><trkpt lat="46.307929786706374" lon="9.192481483513022"><ele>414.66666666666663</ele><time>2026-05-03T12:22:51.031Z</time></trkpt><trkpt lat="46.30774541379935" lon="9.192344715473533"><ele>414.0</ele><time>2026-05-03T12:22:52.031Z</time></trkpt><trkpt lat="46.3075568417417" lon="9.192205244318451"><ele>414.0</ele><time>2026-05-03T12:22:53.031Z</time></trkpt><trkpt lat="46.30737310396821" lon="9.192063311711165"><ele>414.0</ele><time>2026-05-03T12:22:54.031Z</time></trkpt><trkpt lat="46.30718758819109" lon="9.191925971552415"><ele>414.0</ele><time>2026-05-03T12:22:55.031Z</time></trkpt><trkpt lat="46.30700093339787" lon="9.19179086928835"><ele>414.0</ele><time>2026-05-03T12:22:56.031Z</time></trkpt><trkpt lat="46.306807713150825" lon="9.191655404627806"><ele>414.0</ele><time>2026-05-03T12:22:57.031Z</time></trkpt><trkpt lat="46.3066154306732" lon="9.191519371778796"><ele>414.0</ele><time>2026-05-03T12:22:58.031Z</time></trkpt><trkpt lat="46.30642426626179" lon="9.191382103746111"><ele>413.33333333333337</ele><time>2026-05-03T12:22:59.031Z</time></trkpt><trkpt lat="46.306233199473276" lon="9.191246055481587"><ele>412.6666666666667</ele><time>2026-05-03T12:23:00.031Z</time></trkpt><trkpt lat="46.30604311088901" lon="9.191108928501158"><ele>412.0</ele><time>2026-05-03T12:23:01.031Z</time></trkpt><trkpt lat="46.30585657986987" lon="9.190970900948285"><ele>412.0</ele><time>2026-05-03T12:23:02.031Z</time></trkpt><trkpt lat="46.305675537557555" lon="9.190835856291775"><ele>412.0</ele><time>2026-05-03T12:23:03.031Z</time></trkpt><trkpt lat="46.30549535239019" lon="9.190710931937529"><ele>412.0</ele><time>2026-05-03T12:23:04.031Z</time></trkpt><trkpt lat="46.30531819379011" lon="9.190587028149377"><ele>413.33333333333337</ele><time>2026-05-03T12:23:05.031Z</time></trkpt><trkpt lat="46.305140647010326" lon="9.190460121718903"><ele>414.66666666666663</ele><time>2026-05-03T12:23:06.031Z</time></trkpt><trkpt lat="46.30496989361814" lon="9.19030945082989"><ele>416.0</ele><time>2026-05-03T12:23:07.031Z</time></trkpt><trkpt lat="46.30479335723426" lon="9.19018400630939"><ele>413.66666666666663</ele><time>2026-05-03T12:23:08.031Z</time></trkpt><trkpt lat="46.30461835349075" lon="9.19005455493848"><ele>411.33333333333337</ele><time>2026-05-03T12:23:09.031Z</time></trkpt><trkpt lat="46.30444290766987" lon="9.189921388276584"><ele>409.0</ele><time>2026-05-03T12:23:10.031Z</time></trkpt><trkpt lat="46.30426542779988" lon="9.189797038903865"><ele>408.6666666666667</ele><time>2026-05-03T12:23:11.031Z</time></trkpt><trkpt lat="46.3040842625807" lon="9.189673706012135"><ele>408.33333333333337</ele><time>2026-05-03T12:23:12.031Z</time></trkpt><trkpt lat="46.30390662355052" lon="9.189541668686756"><ele>408.0</ele><time>2026-05-03T12:23:13.031Z</time></trkpt><trkpt lat="46.303732437734595" lon="9.189401506998003"><ele>408.0</ele><time>2026-05-03T12:23:14.031Z</time></trkpt><trkpt lat="46.3035592016401" lon="9.189254268900592"><ele>408.0</ele><time>2026-05-03T12:23:15.031Z</time></trkpt><trkpt lat="46.30339249673072" lon="9.18910034176599"><ele>408.0</ele><time>2026-05-03T12:23:16.031Z</time></trkpt><trkpt lat="46.303224973763086" lon="9.188944422774892"><ele>407.66666666666663</ele><time>2026-05-03T12:23:17.031Z</time></trkpt><trkpt lat="46.30306162776169" lon="9.188787099213926"><ele>407.3333333333333</ele><time>2026-05-03T12:23:18.031Z</time></trkpt><trkpt lat="46.30290355789596" lon="9.188618693553826"><ele>407.0</ele><time>2026-05-03T12:23:19.031Z</time></trkpt><trkpt lat="46.30274709111357" lon="9.188440688454653"><ele>407.0</ele><time>2026-05-03T12:23:20.031Z</time></trkpt><trkpt lat="46.302593323665214" lon="9.188262084806953"><ele>407.0</ele><time>2026-05-03T12:23:21.031Z</time></trkpt><trkpt lat="46.30244020131339" lon="9.188080369249084"><ele>407.0</ele><time>2026-05-03T12:23:22.031Z</time></trkpt><trkpt lat="46.30228874491534" lon="9.187898358043133"><ele>407.3333333333333</ele><time>2026-05-03T12:23:23.031Z</time></trkpt><trkpt lat="46.30213556430202" lon="9.187714940987131"><ele>407.66666666666663</ele><time>2026-05-03T12:23:24.032Z</time></trkpt><trkpt lat="46.30197617945086" lon="9.187526804863017"><ele>408.0</ele><time>2026-05-03T12:23:25.032Z</time></trkpt><trkpt lat="46.3018205014478" lon="9.187345095233965"><ele>408.0</ele><time>2026-05-03T12:23:26.032Z</time></trkpt><trkpt lat="46.30166443552792" lon="9.187158321380828"><ele>408.0</ele><time>2026-05-03T12:23:27.032Z</time></trkpt><trkpt lat="46.30150369556273" lon="9.186969625996433"><ele>408.0</ele><time>2026-05-03T12:23:28.032Z</time></trkpt><trkpt lat="46.30134257570967" lon="9.186779024524098"><ele>408.0</ele><time>2026-05-03T12:23:29.032Z</time></trkpt><trkpt lat="46.30118062098913" lon="9.186582213841726"><ele>408.0</ele><time>2026-05-03T12:23:30.032Z</time></trkpt><trkpt lat="46.301019015832466" lon="9.186389263832123"><ele>408.0</ele><time>2026-05-03T12:23:31.032Z</time></trkpt><trkpt lat="46.30085636843142" lon="9.186194168593829"><ele>407.33333333333337</ele><time>2026-05-03T12:23:32.032Z</time></trkpt><trkpt lat="46.30069227859244" lon="9.186006436534914"><ele>406.6666666666667</ele><time>2026-05-03T12:23:33.032Z</time></trkpt><trkpt lat="46.30053806830912" lon="9.185818050431482"><ele>406.0</ele><time>2026-05-03T12:23:34.032Z</time></trkpt><trkpt lat="46.3003901344557" lon="9.185635691655111"><ele>405.0</ele><time>2026-05-03T12:23:35.032Z</time></trkpt><trkpt lat="46.30024459353336" lon="9.185456418498879"><ele>404.0</ele><time>2026-05-03T12:23:36.032Z</time></trkpt><trkpt lat="46.300097757032425" lon="9.185278373433116"><ele>403.0</ele><time>2026-05-03T12:23:37.032Z</time></trkpt><trkpt lat="46.29995394010029" lon="9.18510308025247"><ele>403.0</ele><time>2026-05-03T12:23:38.032Z</time></trkpt><trkpt lat="46.29980660969727" lon="9.184933038590472"><ele>403.0</ele><time>2026-05-03T12:23:39.032Z</time></trkpt><trkpt lat="46.299667151058536" lon="9.184760840640367"><ele>403.0</ele><time>2026-05-03T12:23:40.032Z</time></trkpt><trkpt lat="46.2995279966536" lon="9.184588283950005"><ele>403.0</ele><time>2026-05-03T12:23:41.032Z</time></trkpt><trkpt lat="46.29938614873599" lon="9.18441059569512"><ele>403.0</ele><time>2026-05-03T12:23:42.032Z</time></trkpt><trkpt lat="46.29923855599712" lon="9.184242807370353"><ele>403.0</ele><time>2026-05-03T12:23:43.032Z</time></trkpt><trkpt lat="46.299091900046214" lon="9.184070190964695"><ele>402.6666666666667</ele><time>2026-05-03T12:23:44.032Z</time></trkpt><trkpt lat="46.298947334482655" lon="9.183896065109156"><ele>402.33333333333337</ele><time>2026-05-03T12:23:45.032Z</time></trkpt><trkpt lat="46.298803641833835" lon="9.183721415306987"><ele>402.0</ele><time>2026-05-03T12:23:46.032Z</time></trkpt><trkpt lat="46.29865965130979" lon="9.183547314511351"><ele>402.0</ele><time>2026-05-03T12:23:47.032Z</time></trkpt><trkpt lat="46.29851643411609" lon="9.183371519831029"><ele>402.0</ele><time>2026-05-03T12:23:48.032Z</time></trkpt><trkpt lat="46.29837276907943" lon="9.18320230156118"><ele>402.0</ele><time>2026-05-03T12:23:49.032Z</time></trkpt><trkpt lat="46.29822954165492" lon="9.183029486538233"><ele>402.0</ele><time>2026-05-03T12:23:50.032Z</time></trkpt><trkpt lat="46.298085360790196" lon="9.182852905333217"><ele>402.0</ele><time>2026-05-03T12:23:51.032Z</time></trkpt><trkpt lat="46.297939459481704" lon="9.182680279281326"><ele>402.0</ele><time>2026-05-03T12:23:52.032Z</time></trkpt><trkpt lat="46.29779303298835" lon="9.182508606014757"><ele>401.33333333333337</ele><time>2026-05-03T12:23:53.032Z</time></trkpt><trkpt lat="46.29765146052667" lon="9.182337243561237"><ele>400.6666666666667</ele><time>2026-05-03T12:23:54.032Z</time></trkpt><trkpt lat="46.2975109918999" lon="9.182163577873029"><ele>400.0</ele><time>2026-05-03T12:23:55.032Z</time></trkpt><trkpt lat="46.29736938729566" lon="9.181993918442494"><ele>400.0</ele><time>2026-05-03T12:23:56.032Z</time></trkpt><trkpt lat="46.29722586923077" lon="9.181825657697358"><ele>400.0</ele><time>2026-05-03T12:23:57.033Z</time></trkpt><trkpt lat="46.29708247466686" lon="9.181656118965323"><ele>400.0</ele><time>2026-05-03T12:23:58.033Z</time></trkpt><trkpt lat="46.29694315101368" lon="9.181486188964762"><ele>400.0</ele><time>2026-05-03T12:23:59.033Z</time></trkpt><trkpt lat="46.296804137077125" lon="9.181317112821935"><ele>400.0</ele><time>2026-05-03T12:24:00.033Z</time></trkpt><trkpt lat="46.2966601450048" lon="9.181143279321821"><ele>400.0</ele><time>2026-05-03T12:24:01.033Z</time></trkpt><trkpt lat="46.29651524326652" lon="9.180974119852538"><ele>400.0</ele><time>2026-05-03T12:24:02.033Z</time></trkpt><trkpt lat="46.29637492572056" lon="9.180793794044217"><ele>400.0</ele><time>2026-05-03T12:24:03.033Z</time></trkpt><trkpt lat="46.29622905545952" lon="9.180622461567438"><ele>400.0</ele><time>2026-05-03T12:24:04.033Z</time></trkpt><trkpt lat="46.29608462936001" lon="9.18045022473329"><ele>400.0</ele><time>2026-05-03T12:24:05.033Z</time></trkpt><trkpt lat="46.295950082329675" lon="9.180282534527176"><ele>400.0</ele><time>2026-05-03T12:24:06.033Z</time></trkpt><trkpt lat="46.29581500708981" lon="9.180127717513445"><ele>400.0</ele><time>2026-05-03T12:24:07.033Z</time></trkpt><trkpt lat="46.29567869700981" lon="9.17998168314611"><ele>400.6666666666667</ele><time>2026-05-03T12:24:08.033Z</time></trkpt><trkpt lat="46.29553445658856" lon="9.179865195094731"><ele>401.33333333333337</ele><time>2026-05-03T12:24:09.033Z</time></trkpt><trkpt lat="46.29537275748085" lon="9.179779276353123"><ele>402.0</ele><time>2026-05-03T12:24:10.033Z</time></trkpt><trkpt lat="46.295208415679866" lon="9.179732168341587"><ele>403.0</ele><time>2026-05-03T12:24:11.033Z</time></trkpt><trkpt lat="46.295044847124565" lon="9.179718009987557"><ele>404.0</ele><time>2026-05-03T12:24:12.033Z</time></trkpt><trkpt lat="46.29489158835678" lon="9.179724460168394"><ele>405.0</ele><time>2026-05-03T12:24:13.033Z</time></trkpt><trkpt lat="46.294742083456384" lon="9.179743757560692"><ele>405.75</ele><time>2026-05-03T12:24:14.033Z</time></trkpt><trkpt lat="46.29460116490081" lon="9.179758005706898"><ele>406.5</ele><time>2026-05-03T12:24:15.033Z</time></trkpt><trkpt lat="46.29447445905081" lon="9.179774240881777"><ele>407.25</ele><time>2026-05-03T12:24:16.033Z</time></trkpt><trkpt lat="46.294353713628475" lon="9.179772626284384"><ele>408.0</ele><time>2026-05-03T12:24:17.033Z</time></trkpt><trkpt lat="46.294235905209526" lon="9.179770007058245"><ele>408.0</ele><time>2026-05-03T12:24:18.033Z</time></trkpt><trkpt lat="46.294118336780656" lon="9.17977736616054"><ele>408.0</ele><time>2026-05-03T12:24:19.033Z</time></trkpt><trkpt lat="46.294003278377716" lon="9.179774190712264"><ele>408.0</ele><time>2026-05-03T12:24:20.033Z</time></trkpt><trkpt lat="46.29389079288728" lon="9.179782083582744"><ele>408.0</ele><time>2026-05-03T12:24:21.033Z</time></trkpt><trkpt lat="46.29378204644967" lon="9.179789986620618"><ele>408.59999999999997</ele><time>2026-05-03T12:24:22.033Z</time></trkpt><trkpt lat="46.29367518666118" lon="9.179807671667417"><ele>409.2</ele><time>2026-05-03T12:24:23.033Z</time></trkpt><trkpt lat="46.29358269093023" lon="9.17979559876637"><ele>409.8</ele><time>2026-05-03T12:24:24.033Z</time></trkpt><trkpt lat="46.29348597020197" lon="9.179799393333854"><ele>410.4</ele><time>2026-05-03T12:24:25.033Z</time></trkpt><trkpt lat="46.293389885390575" lon="9.179802509465425"><ele>411.0</ele><time>2026-05-03T12:24:26.033Z</time></trkpt><trkpt lat="46.29329384539862" lon="9.179809424877353"><ele>411.0</ele><time>2026-05-03T12:24:27.033Z</time></trkpt><trkpt lat="46.29319952006716" lon="9.179815485438365"><ele>411.0</ele><time>2026-05-03T12:24:28.033Z</time></trkpt><trkpt lat="46.29310061036526" lon="9.179823571858876"><ele>411.0</ele><time>2026-05-03T12:24:29.033Z</time></trkpt><trkpt lat="46.29300465817145" lon="9.179826814539709"><ele>411.0</ele><time>2026-05-03T12:24:30.034Z</time></trkpt><trkpt lat="46.29290628731484" lon="9.179834670558957"><ele>411.0</ele><time>2026-05-03T12:24:31.034Z</time></trkpt><trkpt lat="46.29279915661012" lon="9.17983745565816"><ele>410.5</ele><time>2026-05-03T12:24:32.034Z</time></trkpt><trkpt lat="46.29267230142064" lon="9.179840372683971"><ele>410.0</ele><time>2026-05-03T12:24:33.034Z</time></trkpt><trkpt lat="46.29254151390511" lon="9.179824929227504"><ele>409.5</ele><time>2026-05-03T12:24:34.034Z</time></trkpt><trkpt lat="46.29241150297784" lon="9.179794246642935"><ele>409.0</ele><time>2026-05-03T12:24:35.034Z</time></trkpt><trkpt lat="46.29228235850984" lon="9.17974740037175"><ele>409.5</ele><time>2026-05-03T12:24:36.034Z</time></trkpt><trkpt lat="46.292158764739554" lon="9.179703031746907"><ele>410.0</ele><time>2026-05-03T12:24:37.034Z</time></trkpt><trkpt lat="46.29204626100557" lon="9.17966366142595"><ele>410.5</ele><time>2026-05-03T12:24:38.034Z</time></trkpt><trkpt lat="46.291934411672486" lon="9.179626913339552"><ele>411.0</ele><time>2026-05-03T12:24:39.034Z</time></trkpt><trkpt lat="46.29181388014869" lon="9.179593625691545"><ele>411.0</ele><time>2026-05-03T12:24:40.034Z</time></trkpt><trkpt lat="46.291688333903124" lon="9.179568501569301"><ele>411.0</ele><time>2026-05-03T12:24:41.034Z</time></trkpt><trkpt lat="46.29155978619387" lon="9.179560685111205"><ele>411.0</ele><time>2026-05-03T12:24:42.034Z</time></trkpt><trkpt lat="46.29143269447471" lon="9.179567433720246"><ele>411.0</ele><time>2026-05-03T12:24:43.034Z</time></trkpt><trkpt lat="46.291306405448765" lon="9.179578311357458"><ele>410.0</ele><time>2026-05-03T12:24:44.034Z</time></trkpt><trkpt lat="46.29117600343214" lon="9.17959608700566"><ele>409.0</ele><time>2026-05-03T12:24:45.034Z</time></trkpt><trkpt lat="46.29104445671296" lon="9.179614865367347"><ele>408.0</ele><time>2026-05-03T12:24:46.034Z</time></trkpt><trkpt lat="46.2909139673836" lon="9.17963554399649"><ele>407.0</ele><time>2026-05-03T12:24:47.034Z</time></trkpt><trkpt lat="46.29077742424736" lon="9.179650259448453"><ele>407.0</ele><time>2026-05-03T12:24:48.034Z</time></trkpt><trkpt lat="46.29063427418775" lon="9.179664449445575"><ele>407.0</ele><time>2026-05-03T12:24:49.034Z</time></trkpt><trkpt lat="46.29048624530439" lon="9.179675971157051"><ele>407.0</ele><time>2026-05-03T12:24:50.034Z</time></trkpt><trkpt lat="46.2903257312261" lon="9.17965011360785"><ele>404.0</ele><time>2026-05-03T12:24:51.034Z</time></trkpt><trkpt lat="46.29016341471145" lon="9.179604042830919"><ele>401.0</ele><time>2026-05-03T12:24:52.034Z</time></trkpt><trkpt lat="46.29001606416352" lon="9.179524019399281"><ele>398.0</ele><time>2026-05-03T12:24:53.034Z</time></trkpt><trkpt lat="46.28987410246381" lon="9.179409560501279"><ele>395.0</ele><time>2026-05-03T12:24:54.034Z</time></trkpt><trkpt lat="46.28973984473115" lon="9.179261614131885"><ele>392.0</ele><time>2026-05-03T12:24:55.034Z</time></trkpt><trkpt lat="46.28961777469643" lon="9.179083396816655"><ele>389.0</ele><time>2026-05-03T12:24:56.034Z</time></trkpt><trkpt lat="46.28950202111141" lon="9.17889488280058"><ele>389.0</ele><time>2026-05-03T12:24:57.034Z</time></trkpt><trkpt lat="46.289392584706675" lon="9.178695553104035"><ele>389.0</ele><time>2026-05-03T12:24:58.034Z</time></trkpt><trkpt lat="46.289288165000755" lon="9.178490434766514"><ele>389.0</ele><time>2026-05-03T12:24:59.034Z</time></trkpt><trkpt lat="46.289188686492864" lon="9.178285205648574"><ele>388.0</ele><time>2026-05-03T12:25:00.034Z</time></trkpt><trkpt lat="46.28909718551149" lon="9.178088706084385"><ele>387.0</ele><time>2026-05-03T12:25:01.034Z</time></trkpt><trkpt lat="46.28900689121124" lon="9.177901452062928"><ele>386.0</ele><time>2026-05-03T12:25:02.034Z</time></trkpt><trkpt lat="46.288915203766074" lon="9.177733484972865"><ele>386.0</ele><time>2026-05-03T12:25:03.034Z</time></trkpt><trkpt lat="46.28881789665673" lon="9.177574404652455"><ele>386.0</ele><time>2026-05-03T12:25:04.035Z</time></trkpt><trkpt lat="46.288709029024" lon="9.177418097419054"><ele>386.0</ele><time>2026-05-03T12:25:05.035Z</time></trkpt><trkpt lat="46.288584332499305" lon="9.177260032808466"><ele>386.3333333333333</ele><time>2026-05-03T12:25:06.035Z</time></trkpt><trkpt lat="46.28846073145794" lon="9.17709012901591"><ele>386.66666666666663</ele><time>2026-05-03T12:25:07.035Z</time></trkpt><trkpt lat="46.288337250890535" lon="9.17691310660398"><ele>387.0</ele><time>2026-05-03T12:25:08.035Z</time></trkpt><trkpt lat="46.28821357782456" lon="9.176737987978962"><ele>385.0</ele><time>2026-05-03T12:25:09.035Z</time></trkpt><trkpt lat="46.28809001548146" lon="9.176564266896284"><ele>383.0</ele><time>2026-05-03T12:25:10.035Z</time></trkpt><trkpt lat="46.28796450737931" lon="9.176398114285352"><ele>381.0</ele><time>2026-05-03T12:25:11.035Z</time></trkpt><trkpt lat="46.287843086719" lon="9.176227242311763"><ele>381.0</ele><time>2026-05-03T12:25:12.035Z</time></trkpt><trkpt lat="46.287719775073576" lon="9.176058854752915"><ele>381.0</ele><time>2026-05-03T12:25:13.035Z</time></trkpt><trkpt lat="46.28760154761875" lon="9.175886395572334"><ele>381.0</ele><time>2026-05-03T12:25:14.035Z</time></trkpt><trkpt lat="46.28749358658048" lon="9.175702996248289"><ele>381.3333333333333</ele><time>2026-05-03T12:25:15.035Z</time></trkpt><trkpt lat="46.2874038513581" lon="9.175505282852024"><ele>381.66666666666663</ele><time>2026-05-03T12:25:16.035Z</time></trkpt><trkpt lat="46.287331908184065" lon="9.175289697670129"><ele>382.0</ele><time>2026-05-03T12:25:17.035Z</time></trkpt><trkpt lat="46.2872799603191" lon="9.17506508855546"><ele>379.3333333333333</ele><time>2026-05-03T12:25:18.035Z</time></trkpt><trkpt lat="46.28725006247696" lon="9.174827814324912"><ele>376.6666666666667</ele><time>2026-05-03T12:25:19.035Z</time></trkpt><trkpt lat="46.28722702352726" lon="9.174592193708941"><ele>374.0</ele><time>2026-05-03T12:25:20.035Z</time></trkpt><trkpt lat="46.28716623798571" lon="9.174110084383633"><ele>377.5</ele><time>2026-05-03T12:25:22.035Z</time></trkpt><trkpt lat="46.28712803126142" lon="9.173888507645989"><ele>381.0</ele><time>2026-05-03T12:25:23.035Z</time></trkpt><trkpt lat="46.287069560081115" lon="9.17369763207476"><ele>384.5</ele><time>2026-05-03T12:25:24.035Z</time></trkpt><trkpt lat="46.286978922529954" lon="9.173535743877466"><ele>388.0</ele><time>2026-05-03T12:25:25.035Z</time></trkpt><trkpt lat="46.28685766305201" lon="9.173414746803292"><ele>388.0</ele><time>2026-05-03T12:25:26.035Z</time></trkpt><trkpt lat="46.28670604239927" lon="9.173351486959529"><ele>388.0</ele><time>2026-05-03T12:25:27.035Z</time></trkpt><trkpt lat="46.286537823863576" lon="9.173347861516643"><ele>388.0</ele><time>2026-05-03T12:25:28.035Z</time></trkpt><trkpt lat="46.28635678701553" lon="9.1733790246474"><ele>385.0</ele><time>2026-05-03T12:25:29.035Z</time></trkpt><trkpt lat="46.28617363973829" lon="9.173412716491704"><ele>382.0</ele><time>2026-05-03T12:25:30.035Z</time></trkpt><trkpt lat="46.285991864941906" lon="9.1734370943767"><ele>379.0</ele><time>2026-05-03T12:25:31.035Z</time></trkpt><trkpt lat="46.28580822986308" lon="9.173427689853296"><ele>379.0</ele><time>2026-05-03T12:25:32.035Z</time></trkpt><trkpt lat="46.285638287243124" lon="9.173396056768535"><ele>379.0</ele><time>2026-05-03T12:25:33.035Z</time></trkpt><trkpt lat="46.28549892318226" lon="9.173347409100979"><ele>379.0</ele><time>2026-05-03T12:25:34.035Z</time></trkpt><trkpt lat="46.28538190176164" lon="9.173312907576104"><ele>379.0</ele><time>2026-05-03T12:25:35.035Z</time></trkpt><trkpt lat="46.28527394040437" lon="9.173281677534758"><ele>379.66666666666663</ele><time>2026-05-03T12:25:36.035Z</time></trkpt><trkpt lat="46.285176469500925" lon="9.173255218922447"><ele>380.3333333333333</ele><time>2026-05-03T12:25:37.036Z</time></trkpt><trkpt lat="46.285089643479" lon="9.173229738008908"><ele>381.0</ele><time>2026-05-03T12:25:38.036Z</time></trkpt><trkpt lat="46.28500895207805" lon="9.173211631305335"><ele>381.6666666666667</ele><time>2026-05-03T12:25:39.036Z</time></trkpt><trkpt lat="46.28494486682125" lon="9.17319455360564"><ele>382.33333333333337</ele><time>2026-05-03T12:25:40.036Z</time></trkpt><trkpt lat="46.28484065375884" lon="9.173164199904017"><ele>383.0</ele><time>2026-05-03T12:25:42.036Z</time></trkpt><trkpt lat="46.28477457325799" lon="9.173153073760847"><ele>380.0</ele><time>2026-05-03T12:25:44.036Z</time></trkpt><trkpt lat="46.28470600531455" lon="9.173132393897918"><ele>377.0</ele><time>2026-05-03T12:25:50.036Z</time></trkpt><trkpt lat="46.284596863563394" lon="9.173085717016606"><ele>374.0</ele><time>2026-05-03T12:25:54.036Z</time></trkpt><trkpt lat="46.28450728147409" lon="9.173066261161033"><ele>371.0</ele><time>2026-05-03T12:25:55.036Z</time></trkpt><trkpt lat="46.2844141671802" lon="9.173047625383582"><ele>368.0</ele><time>2026-05-03T12:25:55.991Z</time></trkpt><trkpt lat="46.284307596374944" lon="9.173041330950095"><ele>368.0</ele><time>2026-05-03T12:25:56.991Z</time></trkpt><trkpt lat="46.2841897954739" lon="9.173043181892936"><ele>368.0</ele><time>2026-05-03T12:25:57.992Z</time></trkpt><trkpt lat="46.28407926271032" lon="9.173058827490081"><ele>368.0</ele><time>2026-05-03T12:25:58.992Z</time></trkpt><trkpt lat="46.283963695163166" lon="9.173088927135792"><ele>368.0</ele><time>2026-05-03T12:25:59.992Z</time></trkpt><trkpt lat="46.28384418148217" lon="9.173130023600034"><ele>368.25</ele><time>2026-05-03T12:26:00.992Z</time></trkpt><trkpt lat="46.28372394753399" lon="9.173178813987668"><ele>368.5</ele><time>2026-05-03T12:26:01.992Z</time></trkpt><trkpt lat="46.28360933104514" lon="9.173212647544002"><ele>368.75</ele><time>2026-05-03T12:26:02.992Z</time></trkpt><trkpt lat="46.28350660891915" lon="9.173263677500305"><ele>369.0</ele><time>2026-05-03T12:26:03.992Z</time></trkpt><trkpt lat="46.28340230910862" lon="9.173310111180358"><ele>368.2</ele><time>2026-05-03T12:26:04.992Z</time></trkpt><trkpt lat="46.28330552253667" lon="9.17335504795275"><ele>367.4</ele><time>2026-05-03T12:26:05.992Z</time></trkpt><trkpt lat="46.283200780270775" lon="9.173398999868194"><ele>366.6</ele><time>2026-05-03T12:26:06.992Z</time></trkpt><trkpt lat="46.283088657247795" lon="9.173432654978164"><ele>365.8</ele><time>2026-05-03T12:26:07.992Z</time></trkpt><trkpt lat="46.28296903659472" lon="9.173457194175517"><ele>365.0</ele><time>2026-05-03T12:26:08.992Z</time></trkpt><trkpt lat="46.28284091595227" lon="9.173471001389382"><ele>365.0</ele><time>2026-05-03T12:26:09.992Z</time></trkpt><trkpt lat="46.28271108299122" lon="9.173475844252398"><ele>365.0</ele><time>2026-05-03T12:26:10.992Z</time></trkpt><trkpt lat="46.28258338521767" lon="9.17347060288477"><ele>365.0</ele><time>2026-05-03T12:26:11.992Z</time></trkpt><trkpt lat="46.28245778798374" lon="9.173461594504912"><ele>365.0</ele><time>2026-05-03T12:26:12.992Z</time></trkpt><trkpt lat="46.28233187865415" lon="9.173457664051286"><ele>365.25</ele><time>2026-05-03T12:26:13.992Z</time></trkpt><trkpt lat="46.2822135358088" lon="9.173449539318604"><ele>365.5</ele><time>2026-05-03T12:26:14.992Z</time></trkpt><trkpt lat="46.28209859213497" lon="9.173443850858021"><ele>365.75</ele><time>2026-05-03T12:26:15.992Z</time></trkpt><trkpt lat="46.281983707818284" lon="9.173421507387271"><ele>366.0</ele><time>2026-05-03T12:26:16.992Z</time></trkpt><trkpt lat="46.281863819718595" lon="9.173417599877538"><ele>366.0</ele><time>2026-05-03T12:26:17.992Z</time></trkpt><trkpt lat="46.28173502078947" lon="9.17341331357527"><ele>366.0</ele><time>2026-05-03T12:26:18.992Z</time></trkpt><trkpt lat="46.281608058449535" lon="9.17340556416036"><ele>366.0</ele><time>2026-05-03T12:26:19.992Z</time></trkpt><trkpt lat="46.28147645160926" lon="9.173405325387586"><ele>366.0</ele><time>2026-05-03T12:26:20.992Z</time></trkpt><trkpt lat="46.28134110260468" lon="9.173399056533096"><ele>366.25</ele><time>2026-05-03T12:26:21.992Z</time></trkpt><trkpt lat="46.28120556021046" lon="9.173390377114744"><ele>366.5</ele><time>2026-05-03T12:26:22.992Z</time></trkpt><trkpt lat="46.28108096903899" lon="9.17337908591328"><ele>366.75</ele><time>2026-05-03T12:26:23.992Z</time></trkpt><trkpt lat="46.280959020286296" lon="9.17337233157904"><ele>367.0</ele><time>2026-05-03T12:26:24.992Z</time></trkpt><trkpt lat="46.280830971703345" lon="9.173373157148104"><ele>367.0</ele><time>2026-05-03T12:26:25.992Z</time></trkpt><trkpt lat="46.280697547604824" lon="9.173378665949508"><ele>367.0</ele><time>2026-05-03T12:26:26.992Z</time></trkpt><trkpt lat="46.28056536540022" lon="9.173369586720556"><ele>367.0</ele><time>2026-05-03T12:26:27.992Z</time></trkpt><trkpt lat="46.28043306452726" lon="9.173362629760929"><ele>367.0</ele><time>2026-05-03T12:26:28.992Z</time></trkpt><trkpt lat="46.28029884480317" lon="9.173357931259483"><ele>367.0</ele><time>2026-05-03T12:26:29.992Z</time></trkpt><trkpt lat="46.280163964334356" lon="9.173354210319784"><ele>367.0</ele><time>2026-05-03T12:26:30.993Z</time></trkpt><trkpt lat="46.280029601822456" lon="9.173351864892062"><ele>367.0</ele><time>2026-05-03T12:26:31.993Z</time></trkpt><trkpt lat="46.27989139030753" lon="9.173345129840621"><ele>367.0</ele><time>2026-05-03T12:26:32.993Z</time></trkpt><trkpt lat="46.27975038481747" lon="9.173334836932797"><ele>365.75</ele><time>2026-05-03T12:26:33.993Z</time></trkpt><trkpt lat="46.279610315811404" lon="9.173315509167617"><ele>364.5</ele><time>2026-05-03T12:26:34.993Z</time></trkpt><trkpt lat="46.27946581707449" lon="9.173293951536076"><ele>363.25</ele><time>2026-05-03T12:26:35.992Z</time></trkpt><trkpt lat="46.279317283603056" lon="9.173273486491263"><ele>362.0</ele><time>2026-05-03T12:26:36.992Z</time></trkpt><trkpt lat="46.279167434615175" lon="9.173250849767776"><ele>362.0</ele><time>2026-05-03T12:26:37.992Z</time></trkpt><trkpt lat="46.279012899396356" lon="9.17322903350043"><ele>362.0</ele><time>2026-05-03T12:26:38.991Z</time></trkpt><trkpt lat="46.278862154757896" lon="9.173204255526313"><ele>362.0</ele><time>2026-05-03T12:26:39.991Z</time></trkpt><trkpt lat="46.27871425999265" lon="9.173182743476444"><ele>365.6666666666667</ele><time>2026-05-03T12:26:40.991Z</time></trkpt><trkpt lat="46.27856417950616" lon="9.173160275823676"><ele>369.3333333333333</ele><time>2026-05-03T12:26:41.989Z</time></trkpt><trkpt lat="46.27841273282042" lon="9.173142262336226"><ele>373.0</ele><time>2026-05-03T12:26:42.988Z</time></trkpt><trkpt lat="46.278259594742956" lon="9.173107885815256"><ele>373.0</ele><time>2026-05-03T12:26:43.988Z</time></trkpt><trkpt lat="46.278105943198796" lon="9.17310568612893"><ele>373.0</ele><time>2026-05-03T12:26:44.988Z</time></trkpt><trkpt lat="46.27795635580135" lon="9.173162278675624"><ele>373.0</ele><time>2026-05-03T12:26:45.988Z</time></trkpt><trkpt lat="46.27779803266509" lon="9.173199171213376"><ele>369.0</ele><time>2026-05-03T12:26:46.988Z</time></trkpt><trkpt lat="46.277655573131696" lon="9.17327180892397"><ele>365.0</ele><time>2026-05-03T12:26:47.988Z</time></trkpt><trkpt lat="46.277515878656885" lon="9.173305057644988"><ele>361.0</ele><time>2026-05-03T12:26:48.987Z</time></trkpt><trkpt lat="46.277381023099366" lon="9.173328445164104"><ele>357.0</ele><time>2026-05-03T12:26:49.987Z</time></trkpt><trkpt lat="46.27724863281224" lon="9.173307012893469"><ele>356.0</ele><time>2026-05-03T12:26:50.987Z</time></trkpt><trkpt lat="46.27711538940723" lon="9.173290695097426"><ele>355.0</ele><time>2026-05-03T12:26:51.987Z</time></trkpt><trkpt lat="46.27695657152744" lon="9.173255721989564"><ele>354.0</ele><time>2026-05-03T12:26:52.987Z</time></trkpt><trkpt lat="46.27680027822945" lon="9.173206308220886"><ele>354.6666666666667</ele><time>2026-05-03T12:26:53.987Z</time></trkpt><trkpt lat="46.27663982138133" lon="9.173154464847817"><ele>355.33333333333337</ele><time>2026-05-03T12:26:54.986Z</time></trkpt><trkpt lat="46.27647537381938" lon="9.173124417186079"><ele>356.0</ele><time>2026-05-03T12:26:55.986Z</time></trkpt><trkpt lat="46.27631802470412" lon="9.173070908168219"><ele>356.0</ele><time>2026-05-03T12:26:56.986Z</time></trkpt><trkpt lat="46.276170443456145" lon="9.172999115637808"><ele>356.0</ele><time>2026-05-03T12:26:57.986Z</time></trkpt><trkpt lat="46.276032080280004" lon="9.172943458693448"><ele>356.0</ele><time>2026-05-03T12:26:58.986Z</time></trkpt><trkpt lat="46.275901044405664" lon="9.172905988721837"><ele>356.0</ele><time>2026-05-03T12:26:59.986Z</time></trkpt><trkpt lat="46.27577451766513" lon="9.172842448301536"><ele>356.0</ele><time>2026-05-03T12:27:00.986Z</time></trkpt><trkpt lat="46.2756537240021" lon="9.172745231011138"><ele>356.0</ele><time>2026-05-03T12:27:01.986Z</time></trkpt><trkpt lat="46.27552576519317" lon="9.172667379991482"><ele>356.0</ele><time>2026-05-03T12:27:02.986Z</time></trkpt><trkpt lat="46.275398746219615" lon="9.172584464462581"><ele>356.0</ele><time>2026-05-03T12:27:03.986Z</time></trkpt><trkpt lat="46.2752693045131" lon="9.172492876556799"><ele>355.75</ele><time>2026-05-03T12:27:04.986Z</time></trkpt><trkpt lat="46.27513987844814" lon="9.172391347827094"><ele>355.5</ele><time>2026-05-03T12:27:05.986Z</time></trkpt><trkpt lat="46.27500749340942" lon="9.17229247772441"><ele>355.25</ele><time>2026-05-03T12:27:06.986Z</time></trkpt><trkpt lat="46.27487385436665" lon="9.172193954580615"><ele>355.0</ele><time>2026-05-03T12:27:07.986Z</time></trkpt><trkpt lat="46.274739211221544" lon="9.172095285506586"><ele>353.25</ele><time>2026-05-03T12:27:08.986Z</time></trkpt><trkpt lat="46.27460571087369" lon="9.171995603728867"><ele>351.5</ele><time>2026-05-03T12:27:09.986Z</time></trkpt><trkpt lat="46.274480419749736" lon="9.171895317613725"><ele>349.75</ele><time>2026-05-03T12:27:10.986Z</time></trkpt><trkpt lat="46.274366295087134" lon="9.171798487999892"><ele>348.0</ele><time>2026-05-03T12:27:11.986Z</time></trkpt><trkpt lat="46.274256168246254" lon="9.171702295729157"><ele>348.0</ele><time>2026-05-03T12:27:12.986Z</time></trkpt><trkpt lat="46.27415003282482" lon="9.171603520501314"><ele>348.0</ele><time>2026-05-03T12:27:13.986Z</time></trkpt><trkpt lat="46.274046405535536" lon="9.171503910013879"><ele>348.0</ele><time>2026-05-03T12:27:14.986Z</time></trkpt><trkpt lat="46.27394183597679" lon="9.171403717096661"><ele>348.0</ele><time>2026-05-03T12:27:15.986Z</time></trkpt><trkpt lat="46.273842512829276" lon="9.171300259376777"><ele>347.75</ele><time>2026-05-03T12:27:16.986Z</time></trkpt><trkpt lat="46.273742648398844" lon="9.171193437383813"><ele>347.5</ele><time>2026-05-03T12:27:17.986Z</time></trkpt><trkpt lat="46.273642239687724" lon="9.171081398762569"><ele>347.25</ele><time>2026-05-03T12:27:18.986Z</time></trkpt><trkpt lat="46.27354324046204" lon="9.170968100447416"><ele>347.0</ele><time>2026-05-03T12:27:19.986Z</time></trkpt><trkpt lat="46.27344774025089" lon="9.17084974764933"><ele>347.0</ele><time>2026-05-03T12:27:20.986Z</time></trkpt><trkpt lat="46.27335687542648" lon="9.170724576833782"><ele>347.0</ele><time>2026-05-03T12:27:21.986Z</time></trkpt><trkpt lat="46.27327187668703" lon="9.170590293315989"><ele>347.0</ele><time>2026-05-03T12:27:22.986Z</time></trkpt><trkpt lat="46.273208431887014" lon="9.17045706969056"><ele>347.0</ele><time>2026-05-03T12:27:23.986Z</time></trkpt><trkpt lat="46.27315794790442" lon="9.1703329488942"><ele>347.0</ele><time>2026-05-03T12:27:24.986Z</time></trkpt><trkpt lat="46.27310255706762" lon="9.170214966081074"><ele>347.0</ele><time>2026-05-03T12:27:25.986Z</time></trkpt><trkpt lat="46.273032091452485" lon="9.170101740856282"><ele>347.0</ele><time>2026-05-03T12:27:26.986Z</time></trkpt><trkpt lat="46.27295136586155" lon="9.16999626384684"><ele>347.0</ele><time>2026-05-03T12:27:27.986Z</time></trkpt><trkpt lat="46.27285642743954" lon="9.169897244489231"><ele>347.0</ele><time>2026-05-03T12:27:28.986Z</time></trkpt><trkpt lat="46.272749407458406" lon="9.169808105657248"><ele>347.0</ele><time>2026-05-03T12:27:29.986Z</time></trkpt><trkpt lat="46.272635332148155" lon="9.169719047516745"><ele>347.0</ele><time>2026-05-03T12:27:30.986Z</time></trkpt><trkpt lat="46.27251592962519" lon="9.169640964360394"><ele>347.0</ele><time>2026-05-03T12:27:31.986Z</time></trkpt><trkpt lat="46.27239491545992" lon="9.169568780761017"><ele>347.0</ele><time>2026-05-03T12:27:32.986Z</time></trkpt><trkpt lat="46.27227195418866" lon="9.169495842166612"><ele>347.0</ele><time>2026-05-03T12:27:33.986Z</time></trkpt><trkpt lat="46.27214821599871" lon="9.169419539799264"><ele>347.0</ele><time>2026-05-03T12:27:34.986Z</time></trkpt><trkpt lat="46.27203140863339" lon="9.16934492901667"><ele>347.0</ele><time>2026-05-03T12:27:35.986Z</time></trkpt><trkpt lat="46.271920321721524" lon="9.169289769441583"><ele>347.0</ele><time>2026-05-03T12:27:36.986Z</time></trkpt><trkpt lat="46.27180975345703" lon="9.169250285510811"><ele>347.0</ele><time>2026-05-03T12:27:37.986Z</time></trkpt><trkpt lat="46.27170802565954" lon="9.16922686095638"><ele>347.0</ele><time>2026-05-03T12:27:38.986Z</time></trkpt><trkpt lat="46.27161015047264" lon="9.169205922513584"><ele>347.0</ele><time>2026-05-03T12:27:39.986Z</time></trkpt><trkpt lat="46.27150564644585" lon="9.169190683875135"><ele>347.0</ele><time>2026-05-03T12:27:40.986Z</time></trkpt><trkpt lat="46.27139046440302" lon="9.169176090475313"><ele>347.0</ele><time>2026-05-03T12:27:41.986Z</time></trkpt><trkpt lat="46.27127452189998" lon="9.169158921817429"><ele>346.5</ele><time>2026-05-03T12:27:42.986Z</time></trkpt><trkpt lat="46.27115584314214" lon="9.16913642121379"><ele>346.0</ele><time>2026-05-03T12:27:43.986Z</time></trkpt><trkpt lat="46.271037040141984" lon="9.169117596607888"><ele>345.5</ele><time>2026-05-03T12:27:44.986Z</time></trkpt><trkpt lat="46.27091064455993" lon="9.169094945450054"><ele>345.0</ele><time>2026-05-03T12:27:45.986Z</time></trkpt><trkpt lat="46.27078556558301" lon="9.169069750365159"><ele>345.0</ele><time>2026-05-03T12:27:46.986Z</time></trkpt><trkpt lat="46.270663049665494" lon="9.169046947970228"><ele>345.0</ele><time>2026-05-03T12:27:47.986Z</time></trkpt><trkpt lat="46.27053879052417" lon="9.169025013988252"><ele>345.0</ele><time>2026-05-03T12:27:48.986Z</time></trkpt><trkpt lat="46.27041478699399" lon="9.16900810496973"><ele>345.0</ele><time>2026-05-03T12:27:49.986Z</time></trkpt><trkpt lat="46.27029382921299" lon="9.168989618860486"><ele>348.25</ele><time>2026-05-03T12:27:50.986Z</time></trkpt><trkpt lat="46.270180782838835" lon="9.168964920903385"><ele>351.5</ele><time>2026-05-03T12:27:51.986Z</time></trkpt><trkpt lat="46.270064628909246" lon="9.16892385577716"><ele>354.75</ele><time>2026-05-03T12:27:52.986Z</time></trkpt><trkpt lat="46.269945588385745" lon="9.168858032476638"><ele>358.0</ele><time>2026-05-03T12:27:53.986Z</time></trkpt><trkpt lat="46.26982866844593" lon="9.16879974846209"><ele>355.75</ele><time>2026-05-03T12:27:54.986Z</time></trkpt><trkpt lat="46.269708397539524" lon="9.168734221190446"><ele>353.5</ele><time>2026-05-03T12:27:55.986Z</time></trkpt><trkpt lat="46.26959017916179" lon="9.168650829988733"><ele>351.25</ele><time>2026-05-03T12:27:56.986Z</time></trkpt><trkpt lat="46.269466387630594" lon="9.168581639783467"><ele>349.0</ele><time>2026-05-03T12:27:57.986Z</time></trkpt><trkpt lat="46.26934404905335" lon="9.168513261696866"><ele>349.0</ele><time>2026-05-03T12:27:58.986Z</time></trkpt><trkpt lat="46.26922086039522" lon="9.168442646323108"><ele>349.0</ele><time>2026-05-03T12:27:59.986Z</time></trkpt><trkpt lat="46.26909320417352" lon="9.168368741100752"><ele>349.0</ele><time>2026-05-03T12:28:00.986Z</time></trkpt><trkpt lat="46.26896507280439" lon="9.168300535052234"><ele>349.0</ele><time>2026-05-03T12:28:01.986Z</time></trkpt><trkpt lat="46.26884053184531" lon="9.168226965275755"><ele>349.3333333333333</ele><time>2026-05-03T12:28:02.986Z</time></trkpt><trkpt lat="46.26870509915552" lon="9.168149285303123"><ele>349.6666666666667</ele><time>2026-05-03T12:28:03.986Z</time></trkpt><trkpt lat="46.26856502770369" lon="9.168067500121369"><ele>350.0</ele><time>2026-05-03T12:28:04.986Z</time></trkpt><trkpt lat="46.26842199361235" lon="9.167973401217584"><ele>350.0</ele><time>2026-05-03T12:28:05.986Z</time></trkpt><trkpt lat="46.26827505826224" lon="9.167876380248991"><ele>350.0</ele><time>2026-05-03T12:28:06.986Z</time></trkpt><trkpt lat="46.26812697415495" lon="9.167771361663322"><ele>350.0</ele><time>2026-05-03T12:28:07.987Z</time></trkpt><trkpt lat="46.26797676757892" lon="9.167656981016188"><ele>351.0</ele><time>2026-05-03T12:28:08.987Z</time></trkpt><trkpt lat="46.267822743097696" lon="9.167534771630944"><ele>352.0</ele><time>2026-05-03T12:28:09.987Z</time></trkpt><trkpt lat="46.26766734620224" lon="9.167409251990568"><ele>353.0</ele><time>2026-05-03T12:28:10.987Z</time></trkpt><trkpt lat="46.26751679870699" lon="9.167276711432695"><ele>353.0</ele><time>2026-05-03T12:28:11.987Z</time></trkpt><trkpt lat="46.26737031503286" lon="9.16713477674257"><ele>353.0</ele><time>2026-05-03T12:28:12.987Z</time></trkpt><trkpt lat="46.26722881241213" lon="9.16698473720471"><ele>353.0</ele><time>2026-05-03T12:28:13.987Z</time></trkpt><trkpt lat="46.26709367010558" lon="9.166843410442608"><ele>349.33333333333337</ele><time>2026-05-03T12:28:14.987Z</time></trkpt><trkpt lat="46.26697054418368" lon="9.166675269354883"><ele>345.6666666666667</ele><time>2026-05-03T12:28:15.987Z</time></trkpt><trkpt lat="46.26683843593419" lon="9.166522016097241"><ele>342.0</ele><time>2026-05-03T12:28:16.987Z</time></trkpt><trkpt lat="46.266695505088684" lon="9.166392590575482"><ele>344.3333333333333</ele><time>2026-05-03T12:28:17.987Z</time></trkpt><trkpt lat="46.2665509642502" lon="9.166293684446769"><ele>346.66666666666663</ele><time>2026-05-03T12:28:18.987Z</time></trkpt><trkpt lat="46.26640626158693" lon="9.16620511965351"><ele>349.0</ele><time>2026-05-03T12:28:19.987Z</time></trkpt><trkpt lat="46.26626652555386" lon="9.166128415472922"><ele>349.0</ele><time>2026-05-03T12:28:20.987Z</time></trkpt><trkpt lat="46.26612955933559" lon="9.166050977437994"><ele>349.0</ele><time>2026-05-03T12:28:21.987Z</time></trkpt><trkpt lat="46.265988540028935" lon="9.165969710488472"><ele>349.0</ele><time>2026-05-03T12:28:22.987Z</time></trkpt><trkpt lat="46.26584707943941" lon="9.165888040981978"><ele>349.0</ele><time>2026-05-03T12:28:23.987Z</time></trkpt><trkpt lat="46.26569881010274" lon="9.165828901351214"><ele>349.0</ele><time>2026-05-03T12:28:24.987Z</time></trkpt><trkpt lat="46.26555281390479" lon="9.16575439895467"><ele>349.0</ele><time>2026-05-03T12:28:25.987Z</time></trkpt><trkpt lat="46.26540121068252" lon="9.165688750541175"><ele>350.75</ele><time>2026-05-03T12:28:26.987Z</time></trkpt><trkpt lat="46.26526447623015" lon="9.165656828093153"><ele>352.5</ele><time>2026-05-03T12:28:27.987Z</time></trkpt><trkpt lat="46.26514124795395" lon="9.165626463167941"><ele>354.25</ele><time>2026-05-03T12:28:28.987Z</time></trkpt><trkpt lat="46.265022602368624" lon="9.165617366126922"><ele>356.0</ele><time>2026-05-03T12:28:29.987Z</time></trkpt><trkpt lat="46.264911454319176" lon="9.165600143761583"><ele>356.0</ele><time>2026-05-03T12:28:30.987Z</time></trkpt><trkpt lat="46.26480042095359" lon="9.165565302872277"><ele>356.0</ele><time>2026-05-03T12:28:31.987Z</time></trkpt><trkpt lat="46.26468639352633" lon="9.165515700934922"><ele>356.0</ele><time>2026-05-03T12:28:32.987Z</time></trkpt><trkpt lat="46.264574979853215" lon="9.165443907988355"><ele>356.0</ele><time>2026-05-03T12:28:33.987Z</time></trkpt><trkpt lat="46.264464902752394" lon="9.165353255611304"><ele>354.0</ele><time>2026-05-03T12:28:34.987Z</time></trkpt><trkpt lat="46.264337878208046" lon="9.165262698688618"><ele>352.0</ele><time>2026-05-03T12:28:35.987Z</time></trkpt><trkpt lat="46.26422568139198" lon="9.16515342344667"><ele>350.0</ele><time>2026-05-03T12:28:36.987Z</time></trkpt><trkpt lat="46.264106224140285" lon="9.165076247330143"><ele>348.0</ele><time>2026-05-03T12:28:37.987Z</time></trkpt><trkpt lat="46.26399267214622" lon="9.16499770630571"><ele>347.5</ele><time>2026-05-03T12:28:38.987Z</time></trkpt><trkpt lat="46.263884378644015" lon="9.164910239830148"><ele>347.0</ele><time>2026-05-03T12:28:39.987Z</time></trkpt><trkpt lat="46.263776272119344" lon="9.164819780211033"><ele>346.5</ele><time>2026-05-03T12:28:40.987Z</time></trkpt><trkpt lat="46.26366810385813" lon="9.16473667981575"><ele>346.0</ele><time>2026-05-03T12:28:41.987Z</time></trkpt><trkpt lat="46.26355874145271" lon="9.164660863657321"><ele>346.0</ele><time>2026-05-03T12:28:42.987Z</time></trkpt><trkpt lat="46.26344880481315" lon="9.164579498519227"><ele>346.0</ele><time>2026-05-03T12:28:43.987Z</time></trkpt><trkpt lat="46.26334129236412" lon="9.164509798734851"><ele>346.0</ele><time>2026-05-03T12:28:44.987Z</time></trkpt><trkpt lat="46.26323072674951" lon="9.164440303515027"><ele>346.0</ele><time>2026-05-03T12:28:45.987Z</time></trkpt><trkpt lat="46.263123753555114" lon="9.164361300389956"><ele>343.25</ele><time>2026-05-03T12:28:46.987Z</time></trkpt><trkpt lat="46.26301901672858" lon="9.16427235067038"><ele>340.5</ele><time>2026-05-03T12:28:47.986Z</time></trkpt><trkpt lat="46.262907495043294" lon="9.164194199856274"><ele>337.75</ele><time>2026-05-03T12:28:48.986Z</time></trkpt><trkpt lat="46.262794653596764" lon="9.164114756743167"><ele>335.0</ele><time>2026-05-03T12:28:49.986Z</time></trkpt><trkpt lat="46.26268043822015" lon="9.164035770985251"><ele>334.0</ele><time>2026-05-03T12:28:50.986Z</time></trkpt><trkpt lat="46.26256846891862" lon="9.163954913933914"><ele>333.0</ele><time>2026-05-03T12:28:51.985Z</time></trkpt><trkpt lat="46.26245558643307" lon="9.163873280976116"><ele>332.0</ele><time>2026-05-03T12:28:52.985Z</time></trkpt><trkpt lat="46.26233699460418" lon="9.163790334592187"><ele>331.0</ele><time>2026-05-03T12:28:53.986Z</time></trkpt><trkpt lat="46.26222221136717" lon="9.163703911004378"><ele>331.0</ele><time>2026-05-03T12:28:54.987Z</time></trkpt><trkpt lat="46.26210821647204" lon="9.163609541512523"><ele>331.0</ele><time>2026-05-03T12:28:55.987Z</time></trkpt><trkpt lat="46.26199766337531" lon="9.163515641118908"><ele>331.0</ele><time>2026-05-03T12:28:56.986Z</time></trkpt><trkpt lat="46.26187109479364" lon="9.163424723957473"><ele>331.0</ele><time>2026-05-03T12:28:57.986Z</time></trkpt><trkpt lat="46.26175195049964" lon="9.163328429017788"><ele>331.0</ele><time>2026-05-03T12:28:58.986Z</time></trkpt><trkpt lat="46.26163725428492" lon="9.163215556020889"><ele>331.0</ele><time>2026-05-03T12:28:59.986Z</time></trkpt><trkpt lat="46.26152827281475" lon="9.16309409592138"><ele>331.0</ele><time>2026-05-03T12:29:00.986Z</time></trkpt><trkpt lat="46.2614323919011" lon="9.162968759545716"><ele>331.0</ele><time>2026-05-03T12:29:01.986Z</time></trkpt><trkpt lat="46.26135529540422" lon="9.16283363890888"><ele>330.5</ele><time>2026-05-03T12:29:02.986Z</time></trkpt><trkpt lat="46.26127000462213" lon="9.162696699790247"><ele>330.0</ele><time>2026-05-03T12:29:03.986Z</time></trkpt><trkpt lat="46.26117537436763" lon="9.162568634831999"><ele>329.5</ele><time>2026-05-03T12:29:04.986Z</time></trkpt><trkpt lat="46.26106722990747" lon="9.162445094395922"><ele>329.0</ele><time>2026-05-03T12:29:05.986Z</time></trkpt><trkpt lat="46.26095289862836" lon="9.162326695769401"><ele>330.25</ele><time>2026-05-03T12:29:06.986Z</time></trkpt><trkpt lat="46.26083095469322" lon="9.162213332606163"><ele>331.5</ele><time>2026-05-03T12:29:07.986Z</time></trkpt><trkpt lat="46.26070304956915" lon="9.162106248891105"><ele>332.75</ele><time>2026-05-03T12:29:08.986Z</time></trkpt><trkpt lat="46.260573205912166" lon="9.16200168821019"><ele>334.0</ele><time>2026-05-03T12:29:09.986Z</time></trkpt><trkpt lat="46.260435200349065" lon="9.161906737309991"><ele>334.0</ele><time>2026-05-03T12:29:10.986Z</time></trkpt><trkpt lat="46.26029043025851" lon="9.161816287046952"><ele>334.0</ele><time>2026-05-03T12:29:11.986Z</time></trkpt><trkpt lat="46.26013649644731" lon="9.16173387645165"><ele>334.0</ele><time>2026-05-03T12:29:12.986Z</time></trkpt><trkpt lat="46.259975537056214" lon="9.161666303880775"><ele>334.0</ele><time>2026-05-03T12:29:13.987Z</time></trkpt><trkpt lat="46.259813433324354" lon="9.161600502209712"><ele>334.0</ele><time>2026-05-03T12:29:14.987Z</time></trkpt><trkpt lat="46.259644184976054" lon="9.161537549936968"><ele>334.0</ele><time>2026-05-03T12:29:15.987Z</time></trkpt><trkpt lat="46.2594756765887" lon="9.161471613412727"><ele>336.66666666666663</ele><time>2026-05-03T12:29:16.987Z</time></trkpt><trkpt lat="46.25931658047094" lon="9.16141964660702"><ele>339.3333333333333</ele><time>2026-05-03T12:29:17.987Z</time></trkpt><trkpt lat="46.259158434886146" lon="9.16135381939489"><ele>342.0</ele><time>2026-05-03T12:29:18.987Z</time></trkpt><trkpt lat="46.259004145513074" lon="9.161283477847043"><ele>338.6666666666667</ele><time>2026-05-03T12:29:19.987Z</time></trkpt><trkpt lat="46.25885284509256" lon="9.161195697255963"><ele>335.33333333333337</ele><time>2026-05-03T12:29:20.987Z</time></trkpt><trkpt lat="46.25871700328105" lon="9.161065868305544"><ele>332.0</ele><time>2026-05-03T12:29:21.987Z</time></trkpt><trkpt lat="46.2585800875645" lon="9.160937341699299"><ele>332.0</ele><time>2026-05-03T12:29:22.987Z</time></trkpt><trkpt lat="46.25843668846746" lon="9.160815421700374"><ele>332.0</ele><time>2026-05-03T12:29:23.987Z</time></trkpt><trkpt lat="46.258297016631644" lon="9.160669142784364"><ele>332.0</ele><time>2026-05-03T12:29:24.987Z</time></trkpt><trkpt lat="46.258152418457534" lon="9.160526975170997"><ele>332.0</ele><time>2026-05-03T12:29:25.987Z</time></trkpt><trkpt lat="46.25800394633862" lon="9.160395202091346"><ele>332.0</ele><time>2026-05-03T12:29:26.987Z</time></trkpt><trkpt lat="46.25786269366723" lon="9.160260215052231"><ele>332.0</ele><time>2026-05-03T12:29:27.987Z</time></trkpt><trkpt lat="46.25770729872578" lon="9.160127257953977"><ele>332.0</ele><time>2026-05-03T12:29:28.987Z</time></trkpt><trkpt lat="46.25755460580461" lon="9.15999876677093"><ele>332.0</ele><time>2026-05-03T12:29:29.987Z</time></trkpt><trkpt lat="46.25740912987227" lon="9.159855809237772"><ele>332.0</ele><time>2026-05-03T12:29:30.987Z</time></trkpt><trkpt lat="46.25724652964007" lon="9.159734250797005"><ele>334.0</ele><time>2026-05-03T12:29:31.987Z</time></trkpt><trkpt lat="46.25709938827125" lon="9.15960210916971"><ele>336.0</ele><time>2026-05-03T12:29:32.987Z</time></trkpt><trkpt lat="46.256947641766885" lon="9.159472560293539"><ele>338.0</ele><time>2026-05-03T12:29:33.987Z</time></trkpt><trkpt lat="46.25680817815654" lon="9.159319326921965"><ele>338.0</ele><time>2026-05-03T12:29:34.987Z</time></trkpt><trkpt lat="46.25666003403805" lon="9.159192189884555"><ele>338.0</ele><time>2026-05-03T12:29:35.987Z</time></trkpt><trkpt lat="46.25651045552382" lon="9.159049429035466"><ele>338.0</ele><time>2026-05-03T12:29:36.987Z</time></trkpt><trkpt lat="46.256365501309965" lon="9.158896414735167"><ele>338.33333333333337</ele><time>2026-05-03T12:29:37.987Z</time></trkpt><trkpt lat="46.25621702836391" lon="9.158759986961199"><ele>338.6666666666667</ele><time>2026-05-03T12:29:38.987Z</time></trkpt><trkpt lat="46.25607414499757" lon="9.158614428709127"><ele>339.0</ele><time>2026-05-03T12:29:39.987Z</time></trkpt><trkpt lat="46.25593141529806" lon="9.15846740017719"><ele>339.0</ele><time>2026-05-03T12:29:40.987Z</time></trkpt><trkpt lat="46.2557867445511" lon="9.158331146548816"><ele>339.0</ele><time>2026-05-03T12:29:41.987Z</time></trkpt><trkpt lat="46.255634650199916" lon="9.158199246855286"><ele>339.0</ele><time>2026-05-03T12:29:42.987Z</time></trkpt><trkpt lat="46.25546869743987" lon="9.1580896495854"><ele>341.3333333333333</ele><time>2026-05-03T12:29:43.987Z</time></trkpt><trkpt lat="46.25529934994137" lon="9.158000948990567"><ele>343.66666666666663</ele><time>2026-05-03T12:29:44.987Z</time></trkpt><trkpt lat="46.25512435875469" lon="9.157931431960417"><ele>346.0</ele><time>2026-05-03T12:29:45.987Z</time></trkpt><trkpt lat="46.254953231338746" lon="9.157854497218697"><ele>341.0</ele><time>2026-05-03T12:29:46.987Z</time></trkpt><trkpt lat="46.254777420536655" lon="9.157775709716887"><ele>336.0</ele><time>2026-05-03T12:29:47.987Z</time></trkpt><trkpt lat="46.25461971883696" lon="9.157691127919914"><ele>331.0</ele><time>2026-05-03T12:29:48.987Z</time></trkpt><trkpt lat="46.25446727223275" lon="9.157603234563412"><ele>331.0</ele><time>2026-05-03T12:29:49.987Z</time></trkpt><trkpt lat="46.25431320911513" lon="9.157519546194056"><ele>331.0</ele><time>2026-05-03T12:29:50.987Z</time></trkpt><trkpt lat="46.254162973366235" lon="9.157436553949015"><ele>331.0</ele><time>2026-05-03T12:29:51.987Z</time></trkpt><trkpt lat="46.25400892805764" lon="9.157360486297748"><ele>332.66666666666663</ele><time>2026-05-03T12:29:52.987Z</time></trkpt><trkpt lat="46.25385194357133" lon="9.157280011289876"><ele>334.3333333333333</ele><time>2026-05-03T12:29:53.988Z</time></trkpt><trkpt lat="46.253696311985514" lon="9.157189390219585"><ele>336.0</ele><time>2026-05-03T12:29:54.988Z</time></trkpt><trkpt lat="46.25354419971919" lon="9.157083774526106"><ele>336.0</ele><time>2026-05-03T12:29:55.988Z</time></trkpt><trkpt lat="46.25339690072164" lon="9.156967039313477"><ele>336.0</ele><time>2026-05-03T12:29:56.988Z</time></trkpt><trkpt lat="46.25325243869532" lon="9.156828566588185"><ele>336.0</ele><time>2026-05-03T12:29:57.988Z</time></trkpt><trkpt lat="46.25313037568826" lon="9.15669607870956"><ele>335.5</ele><time>2026-05-03T12:29:58.988Z</time></trkpt><trkpt lat="46.253012548353176" lon="9.156575416470297"><ele>335.0</ele><time>2026-05-03T12:29:59.988Z</time></trkpt><trkpt lat="46.25289289194045" lon="9.156454763857646"><ele>334.5</ele><time>2026-05-03T12:30:00.988Z</time></trkpt><trkpt lat="46.25277143590191" lon="9.15634204058695"><ele>334.0</ele><time>2026-05-03T12:30:01.988Z</time></trkpt><trkpt lat="46.252652511207636" lon="9.156228821012562"><ele>334.0</ele><time>2026-05-03T12:30:02.988Z</time></trkpt><trkpt lat="46.25254580461796" lon="9.156114967149612"><ele>334.0</ele><time>2026-05-03T12:30:03.988Z</time></trkpt><trkpt lat="46.252450777335106" lon="9.15601489234314"><ele>334.0</ele><time>2026-05-03T12:30:04.988Z</time></trkpt><trkpt lat="46.25234067058146" lon="9.155906566391327"><ele>334.0</ele><time>2026-05-03T12:30:05.988Z</time></trkpt><trkpt lat="46.252236425673935" lon="9.155792713439698"><ele>331.79999999999995</ele><time>2026-05-03T12:30:06.988Z</time></trkpt><trkpt lat="46.25215543592204" lon="9.155665964028218"><ele>329.59999999999997</ele><time>2026-05-03T12:30:07.988Z</time></trkpt><trkpt lat="46.25206791121499" lon="9.155567536441247"><ele>327.4</ele><time>2026-05-03T12:30:08.988Z</time></trkpt><trkpt lat="46.251988729053146" lon="9.155473073603453"><ele>325.2</ele><time>2026-05-03T12:30:09.988Z</time></trkpt><trkpt lat="46.25191315150459" lon="9.15536843678465"><ele>323.0</ele><time>2026-05-03T12:30:10.988Z</time></trkpt><trkpt lat="46.25183732569532" lon="9.15525502990982"><ele>323.0</ele><time>2026-05-03T12:30:11.988Z</time></trkpt><trkpt lat="46.25174723891203" lon="9.155135925288592"><ele>323.0</ele><time>2026-05-03T12:30:12.988Z</time></trkpt><trkpt lat="46.251662932079725" lon="9.15500820017308"><ele>323.0</ele><time>2026-05-03T12:30:13.988Z</time></trkpt><trkpt lat="46.25157690980786" lon="9.154887403213563"><ele>323.0</ele><time>2026-05-03T12:30:14.988Z</time></trkpt><trkpt lat="46.25149915036973" lon="9.154755332378349"><ele>322.5</ele><time>2026-05-03T12:30:15.988Z</time></trkpt><trkpt lat="46.251412292229" lon="9.154635846529038"><ele>322.0</ele><time>2026-05-03T12:30:16.988Z</time></trkpt><trkpt lat="46.25132504983606" lon="9.154525659135818"><ele>321.5</ele><time>2026-05-03T12:30:17.988Z</time></trkpt><trkpt lat="46.25123851348035" lon="9.154427298169207"><ele>321.0</ele><time>2026-05-03T12:30:18.988Z</time></trkpt><trkpt lat="46.25115706051184" lon="9.154313067383736"><ele>321.0</ele><time>2026-05-03T12:30:19.988Z</time></trkpt><trkpt lat="46.25109270766257" lon="9.154194361001434"><ele>321.0</ele><time>2026-05-03T12:30:20.988Z</time></trkpt><trkpt lat="46.25101606203921" lon="9.154054980226087"><ele>321.0</ele><time>2026-05-03T12:30:21.988Z</time></trkpt><trkpt lat="46.25095278741909" lon="9.153905905036696"><ele>321.0</ele><time>2026-05-03T12:30:22.988Z</time></trkpt><trkpt lat="46.25089288321632" lon="9.153747725210073"><ele>322.25</ele><time>2026-05-03T12:30:23.988Z</time></trkpt><trkpt lat="46.25083175285707" lon="9.153583167894636"><ele>323.5</ele><time>2026-05-03T12:30:24.988Z</time></trkpt><trkpt lat="46.25075865494001" lon="9.153415782397584"><ele>324.75</ele><time>2026-05-03T12:30:25.988Z</time></trkpt><trkpt lat="46.25068809003872" lon="9.153254867012887"><ele>326.0</ele><time>2026-05-03T12:30:26.988Z</time></trkpt><trkpt lat="46.25062597774192" lon="9.153102153016636"><ele>325.5</ele><time>2026-05-03T12:30:27.988Z</time></trkpt><trkpt lat="46.25056362252503" lon="9.152956100886296"><ele>325.0</ele><time>2026-05-03T12:30:28.988Z</time></trkpt><trkpt lat="46.2505025061396" lon="9.152804031653023"><ele>324.5</ele><time>2026-05-03T12:30:29.988Z</time></trkpt><trkpt lat="46.250431386052945" lon="9.152663420729914"><ele>324.0</ele><time>2026-05-03T12:30:30.988Z</time></trkpt><trkpt lat="46.25036853256699" lon="9.152506653188933"><ele>326.0</ele><time>2026-05-03T12:30:31.988Z</time></trkpt><trkpt lat="46.25030778501019" lon="9.152355275059774"><ele>328.0</ele><time>2026-05-03T12:30:32.988Z</time></trkpt><trkpt lat="46.25025290876635" lon="9.152207656490262"><ele>330.0</ele><time>2026-05-03T12:30:33.989Z</time></trkpt><trkpt lat="46.25019386459217" lon="9.152059588141933"><ele>332.0</ele><time>2026-05-03T12:30:34.989Z</time></trkpt><trkpt lat="46.25013059727915" lon="9.151909726803341"><ele>332.0</ele><time>2026-05-03T12:30:35.989Z</time></trkpt><trkpt lat="46.25006854007904" lon="9.151759888008321"><ele>332.0</ele><time>2026-05-03T12:30:36.989Z</time></trkpt><trkpt lat="46.250003808473885" lon="9.151613402118551"><ele>332.0</ele><time>2026-05-03T12:30:37.989Z</time></trkpt><trkpt lat="46.249936285775526" lon="9.151455825170606"><ele>332.0</ele><time>2026-05-03T12:30:38.989Z</time></trkpt><trkpt lat="46.24987617924624" lon="9.151305181330171"><ele>331.75</ele><time>2026-05-03T12:30:39.989Z</time></trkpt><trkpt lat="46.24981478102068" lon="9.151155783315932"><ele>331.5</ele><time>2026-05-03T12:30:40.989Z</time></trkpt><trkpt lat="46.24975095800737" lon="9.151003309765954"><ele>331.25</ele><time>2026-05-03T12:30:41.989Z</time></trkpt><trkpt lat="46.24968869908524" lon="9.150853769880857"><ele>331.0</ele><time>2026-05-03T12:30:42.989Z</time></trkpt><trkpt lat="46.24962852841805" lon="9.150705673564817"><ele>332.25</ele><time>2026-05-03T12:30:43.989Z</time></trkpt><trkpt lat="46.24956817126502" lon="9.150562240154144"><ele>333.5</ele><time>2026-05-03T12:30:44.989Z</time></trkpt><trkpt lat="46.24950176723678" lon="9.150419952380844"><ele>334.75</ele><time>2026-05-03T12:30:45.989Z</time></trkpt><trkpt lat="46.24945085685705" lon="9.150273970060095"><ele>336.0</ele><time>2026-05-03T12:30:46.989Z</time></trkpt><trkpt lat="46.24938869591608" lon="9.150130168652776"><ele>336.0</ele><time>2026-05-03T12:30:47.989Z</time></trkpt><trkpt lat="46.24933104662007" lon="9.149985686238365"><ele>336.0</ele><time>2026-05-03T12:30:48.989Z</time></trkpt><trkpt lat="46.249270858444305" lon="9.14984095976848"><ele>336.0</ele><time>2026-05-03T12:30:49.989Z</time></trkpt><trkpt lat="46.24921717333269" lon="9.149688048997705"><ele>336.0</ele><time>2026-05-03T12:30:50.989Z</time></trkpt><trkpt lat="46.24916718508422" lon="9.149519762285511"><ele>336.75</ele><time>2026-05-03T12:30:51.989Z</time></trkpt><trkpt lat="46.24911351289917" lon="9.14935556211663"><ele>337.5</ele><time>2026-05-03T12:30:52.989Z</time></trkpt><trkpt lat="46.24905550104508" lon="9.149204787354947"><ele>338.25</ele><time>2026-05-03T12:30:53.987Z</time></trkpt><trkpt lat="46.24899960074912" lon="9.149048105997716"><ele>339.0</ele><time>2026-05-03T12:30:54.987Z</time></trkpt><trkpt lat="46.24892586287912" lon="9.148910947733546"><ele>339.0</ele><time>2026-05-03T12:30:55.987Z</time></trkpt><trkpt lat="46.2488597782894" lon="9.148765200464895"><ele>339.0</ele><time>2026-05-03T12:30:56.987Z</time></trkpt><trkpt lat="46.248798269333406" lon="9.148619439186312"><ele>339.0</ele><time>2026-05-03T12:30:57.986Z</time></trkpt><trkpt lat="46.248732559124115" lon="9.14847372176193"><ele>339.0</ele><time>2026-05-03T12:30:58.986Z</time></trkpt><trkpt lat="46.248669630068875" lon="9.14833245955463"><ele>339.75</ele><time>2026-05-03T12:30:59.987Z</time></trkpt><trkpt lat="46.24860570709256" lon="9.148186549323812"><ele>340.5</ele><time>2026-05-03T12:31:00.987Z</time></trkpt><trkpt lat="46.248555440895046" lon="9.148028330970877"><ele>341.25</ele><time>2026-05-03T12:31:01.987Z</time></trkpt><trkpt lat="46.24848727146266" lon="9.147886908630277"><ele>342.0</ele><time>2026-05-03T12:31:02.987Z</time></trkpt><trkpt lat="46.248416475218455" lon="9.147735459213319"><ele>342.0</ele><time>2026-05-03T12:31:03.987Z</time></trkpt><trkpt lat="46.24834617941022" lon="9.147589775372813"><ele>342.0</ele><time>2026-05-03T12:31:04.987Z</time></trkpt><trkpt lat="46.248280429679234" lon="9.147446719138069"><ele>342.0</ele><time>2026-05-03T12:31:05.987Z</time></trkpt><trkpt lat="46.248220734334836" lon="9.14730339958231"><ele>342.0</ele><time>2026-05-03T12:31:06.987Z</time></trkpt><trkpt lat="46.24816325760272" lon="9.1471708165236"><ele>341.5</ele><time>2026-05-03T12:31:07.987Z</time></trkpt><trkpt lat="46.24810218237601" lon="9.1470318243753"><ele>341.0</ele><time>2026-05-03T12:31:08.987Z</time></trkpt><trkpt lat="46.248037046125106" lon="9.146893966554773"><ele>340.5</ele><time>2026-05-03T12:31:09.987Z</time></trkpt><trkpt lat="46.247974544043664" lon="9.146756033792938"><ele>340.0</ele><time>2026-05-03T12:31:10.988Z</time></trkpt><trkpt lat="46.24790808428944" lon="9.146619518962858"><ele>340.8</ele><time>2026-05-03T12:31:11.988Z</time></trkpt><trkpt lat="46.2478459079068" lon="9.146484162860666"><ele>341.6</ele><time>2026-05-03T12:31:12.988Z</time></trkpt><trkpt lat="46.24779478204426" lon="9.146347840572677"><ele>342.4</ele><time>2026-05-03T12:31:13.988Z</time></trkpt><trkpt lat="46.24774962595219" lon="9.146239383456704"><ele>343.2</ele><time>2026-05-03T12:31:14.988Z</time></trkpt><trkpt lat="46.247723706853" lon="9.146124955687533"><ele>344.0</ele><time>2026-05-03T12:31:15.988Z</time></trkpt><trkpt lat="46.24771513627949" lon="9.145985521776128"><ele>344.0</ele><time>2026-05-03T12:31:16.988Z</time></trkpt><trkpt lat="46.24767062558723" lon="9.145850242154738"><ele>344.0</ele><time>2026-05-03T12:31:17.988Z</time></trkpt><trkpt lat="46.247597923325344" lon="9.145731676894357"><ele>344.0</ele><time>2026-05-03T12:31:18.988Z</time></trkpt><trkpt lat="46.24755144227476" lon="9.145599145066312"><ele>344.0</ele><time>2026-05-03T12:31:19.988Z</time></trkpt><trkpt lat="46.247505318528674" lon="9.145486070510543"><ele>344.0</ele><time>2026-05-03T12:31:20.988Z</time></trkpt><trkpt lat="46.24746775996594" lon="9.145380915646836"><ele>344.0</ele><time>2026-05-03T12:31:21.988Z</time></trkpt><trkpt lat="46.24743326665175" lon="9.145274869469663"><ele>344.0</ele><time>2026-05-03T12:31:22.988Z</time></trkpt><trkpt lat="46.24740246665935" lon="9.145173196856728"><ele>344.0</ele><time>2026-05-03T12:31:23.988Z</time></trkpt><trkpt lat="46.247371276033554" lon="9.145062024239936"><ele>344.0</ele><time>2026-05-03T12:31:24.988Z</time></trkpt><trkpt lat="46.247355401536815" lon="9.144933145069635"><ele>344.0</ele><time>2026-05-03T12:31:25.988Z</time></trkpt><trkpt lat="46.24731703248441" lon="9.144803669764846"><ele>344.0</ele><time>2026-05-03T12:31:26.988Z</time></trkpt><trkpt lat="46.24725138274731" lon="9.144652029507043"><ele>342.75</ele><time>2026-05-03T12:31:27.988Z</time></trkpt><trkpt lat="46.24719114273389" lon="9.144522042431792"><ele>341.5</ele><time>2026-05-03T12:31:28.988Z</time></trkpt><trkpt lat="46.24711467312483" lon="9.14435615081094"><ele>340.25</ele><time>2026-05-03T12:31:29.988Z</time></trkpt><trkpt lat="46.247042693524406" lon="9.14419734288834"><ele>339.0</ele><time>2026-05-03T12:31:30.988Z</time></trkpt><trkpt lat="46.246976644867566" lon="9.144047869978069"><ele>339.25</ele><time>2026-05-03T12:31:31.988Z</time></trkpt><trkpt lat="46.24691082033784" lon="9.14389890425986"><ele>339.5</ele><time>2026-05-03T12:31:32.988Z</time></trkpt><trkpt lat="46.246841776426365" lon="9.143742644309707"><ele>339.75</ele><time>2026-05-03T12:31:33.988Z</time></trkpt><trkpt lat="46.24677772497367" lon="9.143592872192759"><ele>340.0</ele><time>2026-05-03T12:31:34.988Z</time></trkpt><trkpt lat="46.24668841605531" lon="9.143452894724534"><ele>340.0</ele><time>2026-05-03T12:31:35.988Z</time></trkpt><trkpt lat="46.24661721273638" lon="9.143296391609852"><ele>340.0</ele><time>2026-05-03T12:31:36.988Z</time></trkpt><trkpt lat="46.246551188866015" lon="9.143143884349696"><ele>340.0</ele><time>2026-05-03T12:31:37.988Z</time></trkpt><trkpt lat="46.24649412553479" lon="9.142991387496854"><ele>340.0</ele><time>2026-05-03T12:31:38.988Z</time></trkpt><trkpt lat="46.24645518557243" lon="9.142831003979376"><ele>338.5</ele><time>2026-05-03T12:31:39.988Z</time></trkpt><trkpt lat="46.24641431323611" lon="9.142676446347542"><ele>337.0</ele><time>2026-05-03T12:31:40.988Z</time></trkpt><trkpt lat="46.24639502238339" lon="9.142503577362456"><ele>335.5</ele><time>2026-05-03T12:31:41.988Z</time></trkpt><trkpt lat="46.24637408050488" lon="9.142330858239953"><ele>334.0</ele><time>2026-05-03T12:31:42.988Z</time></trkpt><trkpt lat="46.246330781165184" lon="9.142166449966512"><ele>333.0</ele><time>2026-05-03T12:31:43.988Z</time></trkpt><trkpt lat="46.246304314681126" lon="9.142009837407043"><ele>332.0</ele><time>2026-05-03T12:31:44.988Z</time></trkpt><trkpt lat="46.246254423239705" lon="9.141852515740467"><ele>331.0</ele><time>2026-05-03T12:31:45.988Z</time></trkpt><trkpt lat="46.24620328429112" lon="9.141713793664527"><ele>330.0</ele><time>2026-05-03T12:31:46.988Z</time></trkpt><trkpt lat="46.24613388428724" lon="9.14158172269258"><ele>331.0</ele><time>2026-05-03T12:31:47.988Z</time></trkpt><trkpt lat="46.24604280364128" lon="9.141457261684288"><ele>332.0</ele><time>2026-05-03T12:31:48.988Z</time></trkpt><trkpt lat="46.24593997613277" lon="9.141350197852562"><ele>333.0</ele><time>2026-05-03T12:31:49.988Z</time></trkpt><trkpt lat="46.24584446986468" lon="9.141234626940875"><ele>334.0</ele><time>2026-05-03T12:31:50.989Z</time></trkpt><trkpt lat="46.24575444780716" lon="9.14112899240033"><ele>334.0</ele><time>2026-05-03T12:31:51.989Z</time></trkpt><trkpt lat="46.24565844447402" lon="9.141018889141806"><ele>334.0</ele><time>2026-05-03T12:31:52.989Z</time></trkpt><trkpt lat="46.245563534045566" lon="9.14089674130634"><ele>334.0</ele><time>2026-05-03T12:31:53.989Z</time></trkpt><trkpt lat="46.24546160488616" lon="9.140791330669051"><ele>334.0</ele><time>2026-05-03T12:31:54.989Z</time></trkpt><trkpt lat="46.24535926036477" lon="9.14068887560183"><ele>334.25</ele><time>2026-05-03T12:31:55.989Z</time></trkpt><trkpt lat="46.24525945950108" lon="9.140587820411163"><ele>334.5</ele><time>2026-05-03T12:31:56.989Z</time></trkpt><trkpt lat="46.24515664684885" lon="9.140497612040251"><ele>334.75</ele><time>2026-05-03T12:31:57.989Z</time></trkpt><trkpt lat="46.24504755245132" lon="9.140432863932016"><ele>335.0</ele><time>2026-05-03T12:31:58.989Z</time></trkpt><trkpt lat="46.24494227884049" lon="9.14035668947189"><ele>335.0</ele><time>2026-05-03T12:31:59.989Z</time></trkpt><trkpt lat="46.24483529998606" lon="9.14028124908097"><ele>335.0</ele><time>2026-05-03T12:32:00.989Z</time></trkpt><trkpt lat="46.244727734625926" lon="9.140210837055847"><ele>335.0</ele><time>2026-05-03T12:32:01.989Z</time></trkpt><trkpt lat="46.24462006545226" lon="9.140142262023387"><ele>335.0</ele><time>2026-05-03T12:32:02.989Z</time></trkpt><trkpt lat="46.24451849612455" lon="9.140059383314105"><ele>333.75</ele><time>2026-05-03T12:32:03.989Z</time></trkpt><trkpt lat="46.24441619969349" lon="9.139982930223493"><ele>332.5</ele><time>2026-05-03T12:32:04.989Z</time></trkpt><trkpt lat="46.2443068940494" lon="9.13992011211108"><ele>331.25</ele><time>2026-05-03T12:32:05.989Z</time></trkpt><trkpt lat="46.24420497614456" lon="9.139856004208093"><ele>330.0</ele><time>2026-05-03T12:32:06.989Z</time></trkpt><trkpt lat="46.24410444257695" lon="9.139789279157156"><ele>330.0</ele><time>2026-05-03T12:32:07.989Z</time></trkpt><trkpt lat="46.244006678900824" lon="9.13972369358554"><ele>330.0</ele><time>2026-05-03T12:32:08.989Z</time></trkpt><trkpt lat="46.24390772714106" lon="9.139662359593578"><ele>330.0</ele><time>2026-05-03T12:32:09.989Z</time></trkpt><trkpt lat="46.24380590458354" lon="9.13960815017101"><ele>330.0</ele><time>2026-05-03T12:32:10.989Z</time></trkpt><trkpt lat="46.24370029855042" lon="9.139551746082768"><ele>330.0</ele><time>2026-05-03T12:32:11.989Z</time></trkpt><trkpt lat="46.243595335742114" lon="9.139492314290841"><ele>327.75</ele><time>2026-05-03T12:32:12.989Z</time></trkpt><trkpt lat="46.2434851800993" lon="9.13942886496479"><ele>325.5</ele><time>2026-05-03T12:32:13.989Z</time></trkpt><trkpt lat="46.24337121831696" lon="9.139360419918539"><ele>323.25</ele><time>2026-05-03T12:32:14.989Z</time></trkpt><trkpt lat="46.24325245428098" lon="9.139290771281344"><ele>321.0</ele><time>2026-05-03T12:32:15.989Z</time></trkpt><trkpt lat="46.243129776293884" lon="9.139222812282297"><ele>320.75</ele><time>2026-05-03T12:32:16.989Z</time></trkpt><trkpt lat="46.24300782473782" lon="9.139154255098358"><ele>320.5</ele><time>2026-05-03T12:32:17.989Z</time></trkpt><trkpt lat="46.24288362933425" lon="9.139080403603815"><ele>320.25</ele><time>2026-05-03T12:32:18.989Z</time></trkpt><trkpt lat="46.24276039974752" lon="9.139006790455259"><ele>320.0</ele><time>2026-05-03T12:32:19.989Z</time></trkpt><trkpt lat="46.242637463085266" lon="9.138937423290109"><ele>320.0</ele><time>2026-05-03T12:32:20.989Z</time></trkpt><trkpt lat="46.242522227971676" lon="9.138870432093832"><ele>320.0</ele><time>2026-05-03T12:32:21.989Z</time></trkpt><trkpt lat="46.24241178492738" lon="9.138804852071754"><ele>320.0</ele><time>2026-05-03T12:32:22.989Z</time></trkpt><trkpt lat="46.24230457671435" lon="9.138738724953084"><ele>320.0</ele><time>2026-05-03T12:32:23.989Z</time></trkpt><trkpt lat="46.24219893563665" lon="9.138674532833358"><ele>318.75</ele><time>2026-05-03T12:32:24.989Z</time></trkpt><trkpt lat="46.24209497142894" lon="9.138609719011576"><ele>317.5</ele><time>2026-05-03T12:32:25.989Z</time></trkpt><trkpt lat="46.241990235281605" lon="9.138553944013623"><ele>316.25</ele><time>2026-05-03T12:32:26.989Z</time></trkpt><trkpt lat="46.241884192107264" lon="9.138492174369143"><ele>315.0</ele><time>2026-05-03T12:32:27.989Z</time></trkpt><trkpt lat="46.24178161646633" lon="9.138431293018257"><ele>315.0</ele><time>2026-05-03T12:32:28.989Z</time></trkpt><trkpt lat="46.24168079218268" lon="9.13837055489375"><ele>315.0</ele><time>2026-05-03T12:32:29.989Z</time></trkpt><trkpt lat="46.24157989044772" lon="9.138303010550764"><ele>315.0</ele><time>2026-05-03T12:32:30.989Z</time></trkpt><trkpt lat="46.241480978406585" lon="9.1382350253348"><ele>315.0</ele><time>2026-05-03T12:32:31.99Z</time></trkpt><trkpt lat="46.24137760500519" lon="9.138171598141685"><ele>315.0</ele><time>2026-05-03T12:32:32.99Z</time></trkpt><trkpt lat="46.24127478983922" lon="9.13810413316879"><ele>314.5</ele><time>2026-05-03T12:32:33.99Z</time></trkpt><trkpt lat="46.241168893116246" lon="9.138041708086806"><ele>314.0</ele><time>2026-05-03T12:32:34.99Z</time></trkpt><trkpt lat="46.241060399106054" lon="9.137965762792701"><ele>313.5</ele><time>2026-05-03T12:32:35.99Z</time></trkpt><trkpt lat="46.2409504234055" lon="9.137895801899356"><ele>313.0</ele><time>2026-05-03T12:32:36.99Z</time></trkpt><trkpt lat="46.24084093027034" lon="9.13783920124629"><ele>313.0</ele><time>2026-05-03T12:32:37.99Z</time></trkpt><trkpt lat="46.24072923790654" lon="9.137809660913257"><ele>313.0</ele><time>2026-05-03T12:32:38.99Z</time></trkpt><trkpt lat="46.240632126472256" lon="9.137818819713747"><ele>313.0</ele><time>2026-05-03T12:32:39.99Z</time></trkpt><trkpt lat="46.24054642801363" lon="9.137846889698642"><ele>313.0</ele><time>2026-05-03T12:32:40.99Z</time></trkpt><trkpt lat="46.24047623491811" lon="9.137897744453996"><ele>313.0</ele><time>2026-05-03T12:32:41.99Z</time></trkpt><trkpt lat="46.24041563560368" lon="9.137944572931236"><ele>313.0</ele><time>2026-05-03T12:32:42.99Z</time></trkpt><trkpt lat="46.24036100467975" lon="9.13799874556501"><ele>311.8</ele><time>2026-05-03T12:32:43.99Z</time></trkpt><trkpt lat="46.24027688692276" lon="9.138093031735734"><ele>310.6</ele><time>2026-05-03T12:32:45.99Z</time></trkpt><trkpt lat="46.24015215868213" lon="9.138116710173906"><ele>309.4</ele><time>2026-05-03T12:32:47.99Z</time></trkpt><trkpt lat="46.2400791228863" lon="9.138112554009378"><ele>308.2</ele><time>2026-05-03T12:32:48.99Z</time></trkpt><trkpt lat="46.23999314278398" lon="9.138030791692588"><ele>307.0</ele><time>2026-05-03T12:32:49.99Z</time></trkpt><trkpt lat="46.23990290991482" lon="9.137947606560118"><ele>307.0</ele><time>2026-05-03T12:32:50.99Z</time></trkpt><trkpt lat="46.239812910615655" lon="9.137857237387184"><ele>307.0</ele><time>2026-05-03T12:32:51.99Z</time></trkpt><trkpt lat="46.23972723675737" lon="9.13776904715519"><ele>307.0</ele><time>2026-05-03T12:32:52.99Z</time></trkpt><trkpt lat="46.239643100627454" lon="9.137680088105615"><ele>307.0</ele><time>2026-05-03T12:32:53.99Z</time></trkpt><trkpt lat="46.2395531036871" lon="9.137593641621"><ele>307.0</ele><time>2026-05-03T12:32:54.99Z</time></trkpt><trkpt lat="46.23946359077247" lon="9.137503978996692"><ele>306.25</ele><time>2026-05-03T12:32:55.99Z</time></trkpt><trkpt lat="46.23937597448702" lon="9.137407760086765"><ele>305.5</ele><time>2026-05-03T12:32:56.99Z</time></trkpt><trkpt lat="46.239287574665404" lon="9.137305655086632"><ele>304.75</ele><time>2026-05-03T12:32:57.99Z</time></trkpt><trkpt lat="46.23920142789419" lon="9.13719844805436"><ele>304.0</ele><time>2026-05-03T12:32:58.99Z</time></trkpt><trkpt lat="46.23911527820162" lon="9.13708695117391"><ele>304.0</ele><time>2026-05-03T12:32:59.988Z</time></trkpt><trkpt lat="46.23903036399694" lon="9.136972155208927"><ele>304.0</ele><time>2026-05-03T12:33:00.989Z</time></trkpt><trkpt lat="46.23894662549265" lon="9.136857073837438"><ele>304.0</ele><time>2026-05-03T12:33:01.989Z</time></trkpt><trkpt lat="46.23886828312289" lon="9.136747991249349"><ele>304.0</ele><time>2026-05-03T12:33:02.989Z</time></trkpt><trkpt lat="46.23879746759179" lon="9.136641052309946"><ele>304.0</ele><time>2026-05-03T12:33:03.988Z</time></trkpt><trkpt lat="46.23873597449959" lon="9.136541263208345"><ele>304.0</ele><time>2026-05-03T12:33:04.988Z</time></trkpt><trkpt lat="46.238698923044595" lon="9.13643453597185"><ele>304.0</ele><time>2026-05-03T12:33:05.988Z</time></trkpt><trkpt lat="46.238673050698104" lon="9.136330020572688"><ele>304.0</ele><time>2026-05-03T12:33:06.988Z</time></trkpt><trkpt lat="46.23864062875548" lon="9.136240037719377"><ele>304.0</ele><time>2026-05-03T12:33:07.989Z</time></trkpt><trkpt lat="46.23859836717455" lon="9.1361640379088"><ele>304.0</ele><time>2026-05-03T12:33:08.988Z</time></trkpt><trkpt lat="46.238537217152064" lon="9.136114836047733"><ele>304.0</ele><time>2026-05-03T12:33:09.988Z</time></trkpt><trkpt lat="46.23846482079515" lon="9.136050073948075"><ele>304.0</ele><time>2026-05-03T12:33:10.988Z</time></trkpt><trkpt lat="46.23838873736695" lon="9.135969526241052"><ele>304.0</ele><time>2026-05-03T12:33:11.989Z</time></trkpt><trkpt lat="46.238310973058844" lon="9.135861625356924"><ele>304.0</ele><time>2026-05-03T12:33:12.989Z</time></trkpt><trkpt lat="46.23824238656983" lon="9.135734065915635"><ele>304.0</ele><time>2026-05-03T12:33:13.989Z</time></trkpt><trkpt lat="46.23818436744954" lon="9.135592653491011"><ele>304.0</ele><time>2026-05-03T12:33:14.989Z</time></trkpt><trkpt lat="46.23813587389881" lon="9.135450219246804"><ele>303.0</ele><time>2026-05-03T12:33:15.989Z</time></trkpt><trkpt lat="46.23809357804873" lon="9.135308376611281"><ele>302.0</ele><time>2026-05-03T12:33:16.989Z</time></trkpt><trkpt lat="46.238061699589174" lon="9.13516305688612"><ele>301.0</ele><time>2026-05-03T12:33:17.989Z</time></trkpt><trkpt lat="46.23803835938629" lon="9.13501950940574"><ele>300.0</ele><time>2026-05-03T12:33:18.989Z</time></trkpt><trkpt lat="46.238025885797995" lon="9.134885202436315"><ele>299.0</ele><time>2026-05-03T12:33:19.989Z</time></trkpt><trkpt lat="46.238023044480414" lon="9.134759989157606"><ele>299.0</ele><time>2026-05-03T12:33:20.989Z</time></trkpt><trkpt lat="46.23802266727346" lon="9.134651224470291"><ele>299.0</ele><time>2026-05-03T12:33:21.989Z</time></trkpt><trkpt lat="46.23802560479997" lon="9.134559963766241"><ele>299.0</ele><time>2026-05-03T12:33:22.989Z</time></trkpt><trkpt lat="46.23803983021125" lon="9.134435371141288"><ele>299.0</ele><time>2026-05-03T12:33:25.989Z</time></trkpt><trkpt lat="46.238069305977824" lon="9.134329802159348"><ele>299.0</ele><time>2026-05-03T12:33:27.989Z</time></trkpt><trkpt lat="46.238133059528685" lon="9.134161808315277"><ele>299.0</ele><time>2026-05-03T12:33:29.989Z</time></trkpt><trkpt lat="46.238138179606764" lon="9.134053245954627"><ele>298.59999999999997</ele><time>2026-05-03T12:33:30.989Z</time></trkpt><trkpt lat="46.23812391683004" lon="9.133937702944028"><ele>298.2</ele><time>2026-05-03T12:33:31.989Z</time></trkpt><trkpt lat="46.23810766091253" lon="9.1337976091134"><ele>297.79999999999995</ele><time>2026-05-03T12:33:32.989Z</time></trkpt><trkpt lat="46.23809899992573" lon="9.133639024996967"><ele>297.4</ele><time>2026-05-03T12:33:33.989Z</time></trkpt><trkpt lat="46.23809633177708" lon="9.133474030957062"><ele>297.0</ele><time>2026-05-03T12:33:34.989Z</time></trkpt><trkpt lat="46.23809375337754" lon="9.13331304473675"><ele>296.5</ele><time>2026-05-03T12:33:35.989Z</time></trkpt><trkpt lat="46.2380886456702" lon="9.133142325798403"><ele>296.0</ele><time>2026-05-03T12:33:36.989Z</time></trkpt><trkpt lat="46.23808102408478" lon="9.13296697762144"><ele>295.5</ele><time>2026-05-03T12:33:37.989Z</time></trkpt><trkpt lat="46.23807592426129" lon="9.13279053134391"><ele>295.0</ele><time>2026-05-03T12:33:38.989Z</time></trkpt><trkpt lat="46.23807192188788" lon="9.132624497596915"><ele>295.0</ele><time>2026-05-03T12:33:39.989Z</time></trkpt><trkpt lat="46.238067770065065" lon="9.132449958208056"><ele>295.0</ele><time>2026-05-03T12:33:40.989Z</time></trkpt><trkpt lat="46.2380663104827" lon="9.132264582581277"><ele>295.0</ele><time>2026-05-03T12:33:41.989Z</time></trkpt><trkpt lat="46.238069862007656" lon="9.132075692646428"><ele>295.0</ele><time>2026-05-03T12:33:42.989Z</time></trkpt><trkpt lat="46.23806890864958" lon="9.131898930465264"><ele>295.0</ele><time>2026-05-03T12:33:43.989Z</time></trkpt><trkpt lat="46.238070169023175" lon="9.131714342782372"><ele>295.0</ele><time>2026-05-03T12:33:44.989Z</time></trkpt><trkpt lat="46.23809699351418" lon="9.13153754287666"><ele>295.0</ele><time>2026-05-03T12:33:45.989Z</time></trkpt><trkpt lat="46.23813951118814" lon="9.131365644989204"><ele>295.0</ele><time>2026-05-03T12:33:46.989Z</time></trkpt><trkpt lat="46.23818811646907" lon="9.131200577832692"><ele>295.0</ele><time>2026-05-03T12:33:47.989Z</time></trkpt><trkpt lat="46.23823980022149" lon="9.131037082684395"><ele>295.0</ele><time>2026-05-03T12:33:48.989Z</time></trkpt><trkpt lat="46.238288822278484" lon="9.130871133955747"><ele>295.0</ele><time>2026-05-03T12:33:49.989Z</time></trkpt><trkpt lat="46.23832971677907" lon="9.130705083451838"><ele>295.0</ele><time>2026-05-03T12:33:50.989Z</time></trkpt><trkpt lat="46.238371008372134" lon="9.130548058294885"><ele>295.2</ele><time>2026-05-03T12:33:51.989Z</time></trkpt><trkpt lat="46.23840094003555" lon="9.130414847604834"><ele>295.4</ele><time>2026-05-03T12:33:52.99Z</time></trkpt><trkpt lat="46.238421100032106" lon="9.130278929656768"><ele>295.6</ele><time>2026-05-03T12:33:53.99Z</time></trkpt><trkpt lat="46.23843518573436" lon="9.13013902178066"><ele>295.8</ele><time>2026-05-03T12:33:54.99Z</time></trkpt><trkpt lat="46.23845094649647" lon="9.12998833026428"><ele>296.0</ele><time>2026-05-03T12:33:55.99Z</time></trkpt><trkpt lat="46.238467241104324" lon="9.129834568682616"><ele>296.2</ele><time>2026-05-03T12:33:56.99Z</time></trkpt><trkpt lat="46.23847801981013" lon="9.129687065579917"><ele>296.40000000000003</ele><time>2026-05-03T12:33:57.99Z</time></trkpt><trkpt lat="46.23848983389269" lon="9.129539598870645"><ele>296.6</ele><time>2026-05-03T12:33:58.99Z</time></trkpt><trkpt lat="46.238499508636025" lon="9.129381235018045"><ele>296.8</ele><time>2026-05-03T12:33:59.99Z</time></trkpt><trkpt lat="46.23850833966993" lon="9.129215386471728"><ele>297.0</ele><time>2026-05-03T12:34:00.99Z</time></trkpt><trkpt lat="46.23851699192269" lon="9.12904818839008"><ele>296.5</ele><time>2026-05-03T12:34:01.99Z</time></trkpt><trkpt lat="46.23852724884771" lon="9.12888251790936"><ele>296.0</ele><time>2026-05-03T12:34:02.99Z</time></trkpt><trkpt lat="46.238535672493136" lon="9.128706713470388"><ele>295.5</ele><time>2026-05-03T12:34:03.99Z</time></trkpt><trkpt lat="46.23854591083606" lon="9.128520354428712"><ele>295.0</ele><time>2026-05-03T12:34:04.99Z</time></trkpt><trkpt lat="46.23855676675301" lon="9.128329930253717"><ele>294.0</ele><time>2026-05-03T12:34:05.99Z</time></trkpt><trkpt lat="46.2385661976892" lon="9.12814719006338"><ele>293.0</ele><time>2026-05-03T12:34:06.99Z</time></trkpt><trkpt lat="46.238574920133495" lon="9.127975846136659"><ele>292.0</ele><time>2026-05-03T12:34:07.99Z</time></trkpt><trkpt lat="46.238586594238136" lon="9.127816338858441"><ele>291.0</ele><time>2026-05-03T12:34:08.99Z</time></trkpt><trkpt lat="46.2385978933041" lon="9.12766617505315"><ele>291.0</ele><time>2026-05-03T12:34:09.99Z</time></trkpt><trkpt lat="46.23860751822911" lon="9.12751217559056"><ele>291.0</ele><time>2026-05-03T12:34:10.99Z</time></trkpt><trkpt lat="46.23861846098406" lon="9.127349575191955"><ele>291.0</ele><time>2026-05-03T12:34:11.99Z</time></trkpt><trkpt lat="46.238632767196876" lon="9.127179399965339"><ele>291.0</ele><time>2026-05-03T12:34:12.99Z</time></trkpt><trkpt lat="46.23864635254527" lon="9.12700241276186"><ele>290.75</ele><time>2026-05-03T12:34:13.99Z</time></trkpt><trkpt lat="46.23865619606606" lon="9.126825294542767"><ele>290.5</ele><time>2026-05-03T12:34:14.99Z</time></trkpt><trkpt lat="46.23866753481149" lon="9.126640874620325"><ele>290.25</ele><time>2026-05-03T12:34:15.99Z</time></trkpt><trkpt lat="46.23867454577483" lon="9.126455103839865"><ele>290.0</ele><time>2026-05-03T12:34:16.99Z</time></trkpt><trkpt lat="46.23866951553792" lon="9.126266877181001"><ele>290.0</ele><time>2026-05-03T12:34:17.99Z</time></trkpt><trkpt lat="46.23866552222277" lon="9.126075560189825"><ele>290.0</ele><time>2026-05-03T12:34:18.99Z</time></trkpt><trkpt lat="46.238658451734985" lon="9.125881159887847"><ele>290.0</ele><time>2026-05-03T12:34:19.99Z</time></trkpt><trkpt lat="46.2386471826991" lon="9.125688365916172"><ele>290.0</ele><time>2026-05-03T12:34:20.99Z</time></trkpt><trkpt lat="46.23864005102435" lon="9.125494717597391"><ele>290.5</ele><time>2026-05-03T12:34:21.99Z</time></trkpt><trkpt lat="46.238630474935306" lon="9.125296725115092"><ele>291.0</ele><time>2026-05-03T12:34:22.99Z</time></trkpt><trkpt lat="46.238615813517825" lon="9.125098075672687"><ele>291.5</ele><time>2026-05-03T12:34:23.99Z</time></trkpt><trkpt lat="46.23861633175625" lon="9.12490848057867"><ele>292.0</ele><time>2026-05-03T12:34:24.99Z</time></trkpt><trkpt lat="46.238606049593514" lon="9.124717198059377"><ele>291.0</ele><time>2026-05-03T12:34:25.99Z</time></trkpt><trkpt lat="46.238603649812724" lon="9.12453772201658"><ele>290.0</ele><time>2026-05-03T12:34:26.99Z</time></trkpt><trkpt lat="46.23860207500066" lon="9.124353427158944"><ele>289.0</ele><time>2026-05-03T12:34:27.99Z</time></trkpt><trkpt lat="46.238602206116326" lon="9.124172408218104"><ele>288.0</ele><time>2026-05-03T12:34:28.99Z</time></trkpt><trkpt lat="46.23860658539683" lon="9.123996992215037"><ele>287.25</ele><time>2026-05-03T12:34:29.99Z</time></trkpt><trkpt lat="46.238609034671775" lon="9.123825757960905"><ele>286.5</ele><time>2026-05-03T12:34:30.99Z</time></trkpt><trkpt lat="46.238614785689116" lon="9.123655770658122"><ele>285.75</ele><time>2026-05-03T12:34:31.99Z</time></trkpt><trkpt lat="46.238623810951296" lon="9.12348803215333"><ele>285.0</ele><time>2026-05-03T12:34:32.991Z</time></trkpt><trkpt lat="46.23863316323191" lon="9.123318998443235"><ele>285.25</ele><time>2026-05-03T12:34:33.991Z</time></trkpt><trkpt lat="46.23864835493303" lon="9.123146210109777"><ele>285.5</ele><time>2026-05-03T12:34:34.991Z</time></trkpt><trkpt lat="46.23866474322951" lon="9.122971812610665"><ele>285.75</ele><time>2026-05-03T12:34:35.991Z</time></trkpt><trkpt lat="46.23868044455092" lon="9.12279666139743"><ele>286.0</ele><time>2026-05-03T12:34:36.991Z</time></trkpt><trkpt lat="46.23870270696153" lon="9.122615898715358"><ele>286.0</ele><time>2026-05-03T12:34:37.991Z</time></trkpt><trkpt lat="46.23872660510841" lon="9.12243339814428"><ele>286.0</ele><time>2026-05-03T12:34:38.991Z</time></trkpt><trkpt lat="46.23875408805693" lon="9.122250994540709"><ele>286.0</ele><time>2026-05-03T12:34:39.991Z</time></trkpt><trkpt lat="46.238779879042916" lon="9.122065133094116"><ele>286.0</ele><time>2026-05-03T12:34:40.991Z</time></trkpt><trkpt lat="46.23881049111794" lon="9.1218758445735"><ele>286.25</ele><time>2026-05-03T12:34:41.991Z</time></trkpt><trkpt lat="46.23883933074608" lon="9.121680301712216"><ele>286.5</ele><time>2026-05-03T12:34:42.991Z</time></trkpt><trkpt lat="46.238864307478345" lon="9.121475001096004"><ele>286.75</ele><time>2026-05-03T12:34:43.991Z</time></trkpt><trkpt lat="46.23888214639111" lon="9.121261540245985"><ele>287.0</ele><time>2026-05-03T12:34:44.991Z</time></trkpt><trkpt lat="46.238885923824284" lon="9.121042775980785"><ele>286.33333333333337</ele><time>2026-05-03T12:34:45.991Z</time></trkpt><trkpt lat="46.23888763989136" lon="9.120820256397737"><ele>285.6666666666667</ele><time>2026-05-03T12:34:46.991Z</time></trkpt><trkpt lat="46.238882468283144" lon="9.120589726158554"><ele>285.0</ele><time>2026-05-03T12:34:47.991Z</time></trkpt><trkpt lat="46.23885681460835" lon="9.120379820294444"><ele>285.0</ele><time>2026-05-03T12:34:48.991Z</time></trkpt><trkpt lat="46.23881799055697" lon="9.120180928790706"><ele>285.0</ele><time>2026-05-03T12:34:49.991Z</time></trkpt><trkpt lat="46.23877529527599" lon="9.11998703290544"><ele>285.0</ele><time>2026-05-03T12:34:50.991Z</time></trkpt><trkpt lat="46.23873713330379" lon="9.11978126979989"><ele>285.0</ele><time>2026-05-03T12:34:51.991Z</time></trkpt><trkpt lat="46.23871265959553" lon="9.11956489900892"><ele>286.3333333333333</ele><time>2026-05-03T12:34:52.991Z</time></trkpt><trkpt lat="46.23869042823186" lon="9.119347593733691"><ele>287.66666666666663</ele><time>2026-05-03T12:34:53.991Z</time></trkpt><trkpt lat="46.238643505701425" lon="9.119124266477558"><ele>289.0</ele><time>2026-05-03T12:34:54.991Z</time></trkpt><trkpt lat="46.238586092910566" lon="9.1189000434999"><ele>291.25</ele><time>2026-05-03T12:34:55.991Z</time></trkpt><trkpt lat="46.23852980749818" lon="9.118687137377647"><ele>293.5</ele><time>2026-05-03T12:34:56.991Z</time></trkpt><trkpt lat="46.23847715596222" lon="9.118489693405582"><ele>295.75</ele><time>2026-05-03T12:34:57.991Z</time></trkpt><trkpt lat="46.23842873500656" lon="9.118300207865298"><ele>298.0</ele><time>2026-05-03T12:34:58.991Z</time></trkpt><trkpt lat="46.23837856952782" lon="9.118121301223708"><ele>301.75</ele><time>2026-05-03T12:34:59.991Z</time></trkpt><trkpt lat="46.23831494264815" lon="9.117953099654201"><ele>305.5</ele><time>2026-05-03T12:35:00.991Z</time></trkpt><trkpt lat="46.238251069448296" lon="9.117790150166421"><ele>309.25</ele><time>2026-05-03T12:35:01.991Z</time></trkpt><trkpt lat="46.238188471771686" lon="9.117640891463232"><ele>313.0</ele><time>2026-05-03T12:35:02.991Z</time></trkpt><trkpt lat="46.238143876631376" lon="9.117504553382073"><ele>308.16666666666663</ele><time>2026-05-03T12:35:03.991Z</time></trkpt><trkpt lat="46.23811498412684" lon="9.117379312787982"><ele>303.3333333333333</ele><time>2026-05-03T12:35:04.991Z</time></trkpt><trkpt lat="46.23809612060443" lon="9.117252240868352"><ele>298.5</ele><time>2026-05-03T12:35:05.989Z</time></trkpt><trkpt lat="46.2380955580178" lon="9.117127231314296"><ele>293.6666666666667</ele><time>2026-05-03T12:35:06.989Z</time></trkpt><trkpt lat="46.238102666360724" lon="9.116998377787437"><ele>288.83333333333337</ele><time>2026-05-03T12:35:07.989Z</time></trkpt><trkpt lat="46.238110212125754" lon="9.116867076430122"><ele>284.0</ele><time>2026-05-03T12:35:08.989Z</time></trkpt><trkpt lat="46.238105160611205" lon="9.116738729518724"><ele>284.0</ele><time>2026-05-03T12:35:09.99Z</time></trkpt><trkpt lat="46.238086262237225" lon="9.116623824662787"><ele>284.0</ele><time>2026-05-03T12:35:10.99Z</time></trkpt><trkpt lat="46.238060664645175" lon="9.116531464296948"><ele>284.0</ele><time>2026-05-03T12:35:11.99Z</time></trkpt><trkpt lat="46.23801512829744" lon="9.116459629649473"><ele>284.0</ele><time>2026-05-03T12:35:13.989Z</time></trkpt><trkpt lat="46.23793787946966" lon="9.116376604490549"><ele>284.0</ele><time>2026-05-03T12:35:19.99Z</time></trkpt><trkpt lat="46.23788230621687" lon="9.116298227081069"><ele>284.0</ele><time>2026-05-03T12:35:20.99Z</time></trkpt><trkpt lat="46.23782114005405" lon="9.11622699289379"><ele>284.2</ele><time>2026-05-03T12:35:21.99Z</time></trkpt><trkpt lat="46.23773812097892" lon="9.116213150233786"><ele>284.4</ele><time>2026-05-03T12:35:22.99Z</time></trkpt><trkpt lat="46.237646017138275" lon="9.116225243367907"><ele>284.6</ele><time>2026-05-03T12:35:23.99Z</time></trkpt><trkpt lat="46.23755028465273" lon="9.116185282359881"><ele>284.8</ele><time>2026-05-03T12:35:24.99Z</time></trkpt><trkpt lat="46.237447440231726" lon="9.116092714227525"><ele>285.0</ele><time>2026-05-03T12:35:25.99Z</time></trkpt><trkpt lat="46.23734817383063" lon="9.11595545577625"><ele>283.0</ele><time>2026-05-03T12:35:26.99Z</time></trkpt><trkpt lat="46.23725713684513" lon="9.115789744778576"><ele>281.0</ele><time>2026-05-03T12:35:27.99Z</time></trkpt><trkpt lat="46.23716586698986" lon="9.115608166006403"><ele>279.0</ele><time>2026-05-03T12:35:28.99Z</time></trkpt><trkpt lat="46.237071033859316" lon="9.11541264524703"><ele>279.0</ele><time>2026-05-03T12:35:29.99Z</time></trkpt><trkpt lat="46.236976904975116" lon="9.115202756007848"><ele>279.0</ele><time>2026-05-03T12:35:30.99Z</time></trkpt><trkpt lat="46.23688179339977" lon="9.114972251710673"><ele>279.0</ele><time>2026-05-03T12:35:31.99Z</time></trkpt><trkpt lat="46.23678477544973" lon="9.114740942924337"><ele>279.0</ele><time>2026-05-03T12:35:32.99Z</time></trkpt><trkpt lat="46.236687680966284" lon="9.114513126404486"><ele>279.0</ele><time>2026-05-03T12:35:33.99Z</time></trkpt><trkpt lat="46.23659221731299" lon="9.11428472598666"><ele>279.0</ele><time>2026-05-03T12:35:34.99Z</time></trkpt><trkpt lat="46.236490319374944" lon="9.114052802376914"><ele>278.3333333333333</ele><time>2026-05-03T12:35:35.99Z</time></trkpt><trkpt lat="46.236382673135076" lon="9.113817534627696"><ele>277.66666666666663</ele><time>2026-05-03T12:35:36.99Z</time></trkpt><trkpt lat="46.23626907455847" lon="9.113587836910595"><ele>277.0</ele><time>2026-05-03T12:35:37.99Z</time></trkpt><trkpt lat="46.236153057079925" lon="9.113348905925369"><ele>277.0</ele><time>2026-05-03T12:35:38.99Z</time></trkpt><trkpt lat="46.23603132500184" lon="9.11311377799327"><ele>277.0</ele><time>2026-05-03T12:35:39.99Z</time></trkpt><trkpt lat="46.23590570660791" lon="9.112881776154836"><ele>277.0</ele><time>2026-05-03T12:35:40.99Z</time></trkpt><trkpt lat="46.2357752944729" lon="9.112655856600577"><ele>277.0</ele><time>2026-05-03T12:35:41.99Z</time></trkpt><trkpt lat="46.23563993795258" lon="9.112431284125712"><ele>277.0</ele><time>2026-05-03T12:35:42.99Z</time></trkpt><trkpt lat="46.23550945982282" lon="9.112208520710675"><ele>277.0</ele><time>2026-05-03T12:35:43.99Z</time></trkpt><trkpt lat="46.23537684730008" lon="9.111999448443552"><ele>276.3333333333333</ele><time>2026-05-03T12:35:44.99Z</time></trkpt><trkpt lat="46.235243934234724" lon="9.111803462682335"><ele>275.6666666666667</ele><time>2026-05-03T12:35:45.99Z</time></trkpt><trkpt lat="46.2351204212928" lon="9.111622577806875"><ele>275.0</ele><time>2026-05-03T12:35:46.99Z</time></trkpt><trkpt lat="46.23498306176433" lon="9.111445696538256"><ele>275.0</ele><time>2026-05-03T12:35:47.99Z</time></trkpt><trkpt lat="46.2348425472688" lon="9.111276788688537"><ele>275.0</ele><time>2026-05-03T12:35:48.991Z</time></trkpt><trkpt lat="46.23469801489688" lon="9.11111487871141"><ele>275.0</ele><time>2026-05-03T12:35:49.991Z</time></trkpt><trkpt lat="46.23455022610251" lon="9.110955980305375"><ele>275.0</ele><time>2026-05-03T12:35:50.991Z</time></trkpt><trkpt lat="46.23440896853501" lon="9.110806094367678"><ele>275.0</ele><time>2026-05-03T12:35:51.991Z</time></trkpt><trkpt lat="46.23427459116811" lon="9.110671901372125"><ele>275.0</ele><time>2026-05-03T12:35:52.991Z</time></trkpt><trkpt lat="46.23414538975289" lon="9.110542551189846"><ele>275.0</ele><time>2026-05-03T12:35:53.991Z</time></trkpt><trkpt lat="46.234016120533504" lon="9.110413051818842"><ele>275.0</ele><time>2026-05-03T12:35:54.991Z</time></trkpt><trkpt lat="46.23387832167995" lon="9.110276145559364"><ele>275.0</ele><time>2026-05-03T12:35:55.991Z</time></trkpt><trkpt lat="46.23373845798146" lon="9.11013516308268"><ele>275.0</ele><time>2026-05-03T12:35:56.991Z</time></trkpt><trkpt lat="46.23359740742475" lon="9.10998717590392"><ele>275.0</ele><time>2026-05-03T12:35:57.991Z</time></trkpt><trkpt lat="46.233451038302654" lon="9.109840638809866"><ele>275.0</ele><time>2026-05-03T12:35:58.991Z</time></trkpt><trkpt lat="46.23330458075836" lon="9.109692959754632"><ele>275.0</ele><time>2026-05-03T12:35:59.991Z</time></trkpt><trkpt lat="46.23315625630205" lon="9.10954297824992"><ele>275.0</ele><time>2026-05-03T12:36:00.991Z</time></trkpt><trkpt lat="46.23300457698515" lon="9.109389509928352"><ele>275.0</ele><time>2026-05-03T12:36:01.991Z</time></trkpt><trkpt lat="46.232865283332906" lon="9.10922870996337"><ele>274.33333333333337</ele><time>2026-05-03T12:36:02.991Z</time></trkpt><trkpt lat="46.232740686696694" lon="9.109051605321374"><ele>273.6666666666667</ele><time>2026-05-03T12:36:03.991Z</time></trkpt><trkpt lat="46.232633590146605" lon="9.108848320726024"><ele>273.0</ele><time>2026-05-03T12:36:04.991Z</time></trkpt><trkpt lat="46.23254796952287" lon="9.108624911907041"><ele>273.0</ele><time>2026-05-03T12:36:05.991Z</time></trkpt><trkpt lat="46.23248037150068" lon="9.108384982236085"><ele>273.0</ele><time>2026-05-03T12:36:06.991Z</time></trkpt><trkpt lat="46.23243511663824" lon="9.10813346778329"><ele>273.0</ele><time>2026-05-03T12:36:07.991Z</time></trkpt><trkpt lat="46.23240151637098" lon="9.10787871545013"><ele>273.0</ele><time>2026-05-03T12:36:08.991Z</time></trkpt><trkpt lat="46.23237716896655" lon="9.107621864574835"><ele>273.0</ele><time>2026-05-03T12:36:09.991Z</time></trkpt><trkpt lat="46.23235429309058" lon="9.107370770494605"><ele>273.0</ele><time>2026-05-03T12:36:10.991Z</time></trkpt><trkpt lat="46.23233430422768" lon="9.107130762027682"><ele>273.0</ele><time>2026-05-03T12:36:11.991Z</time></trkpt><trkpt lat="46.2323142551359" lon="9.106895038976472"><ele>273.0</ele><time>2026-05-03T12:36:12.991Z</time></trkpt><trkpt lat="46.232289998025756" lon="9.106666642844022"><ele>273.0</ele><time>2026-05-03T12:36:13.991Z</time></trkpt><trkpt lat="46.23227467496822" lon="9.106430238467194"><ele>273.3333333333333</ele><time>2026-05-03T12:36:14.991Z</time></trkpt><trkpt lat="46.2322708736983" lon="9.106191428060072"><ele>273.66666666666663</ele><time>2026-05-03T12:36:15.991Z</time></trkpt><trkpt lat="46.23229725677292" lon="9.105954737901586"><ele>274.0</ele><time>2026-05-03T12:36:16.991Z</time></trkpt><trkpt lat="46.232349211323594" lon="9.105723819041684"><ele>273.3333333333333</ele><time>2026-05-03T12:36:17.991Z</time></trkpt><trkpt lat="46.232423898415604" lon="9.105498989260331"><ele>272.6666666666667</ele><time>2026-05-03T12:36:18.991Z</time></trkpt><trkpt lat="46.232516508747864" lon="9.105286259692548"><ele>272.0</ele><time>2026-05-03T12:36:19.991Z</time></trkpt><trkpt lat="46.232630012181886" lon="9.105082396212417"><ele>271.33333333333337</ele><time>2026-05-03T12:36:20.991Z</time></trkpt><trkpt lat="46.2327468776596" lon="9.104882708864128"><ele>270.6666666666667</ele><time>2026-05-03T12:36:21.991Z</time></trkpt><trkpt lat="46.23284866449127" lon="9.104695714349916"><ele>270.0</ele><time>2026-05-03T12:36:22.991Z</time></trkpt><trkpt lat="46.23293722841147" lon="9.104510998738142"><ele>270.0</ele><time>2026-05-03T12:36:23.991Z</time></trkpt><trkpt lat="46.233003167141305" lon="9.10433535050429"><ele>270.0</ele><time>2026-05-03T12:36:24.991Z</time></trkpt><trkpt lat="46.233050887974805" lon="9.104150412415546"><ele>270.0</ele><time>2026-05-03T12:36:25.991Z</time></trkpt><trkpt lat="46.23306677561611" lon="9.103963162052526"><ele>270.0</ele><time>2026-05-03T12:36:26.991Z</time></trkpt><trkpt lat="46.23305879290366" lon="9.103770889108224"><ele>269.5</ele><time>2026-05-03T12:36:27.991Z</time></trkpt><trkpt lat="46.23302856617314" lon="9.103578319925852"><ele>269.0</ele><time>2026-05-03T12:36:28.991Z</time></trkpt><trkpt lat="46.232977843045674" lon="9.103387223268912"><ele>268.5</ele><time>2026-05-03T12:36:29.992Z</time></trkpt><trkpt lat="46.23292243402516" lon="9.10319294740692"><ele>268.0</ele><time>2026-05-03T12:36:30.992Z</time></trkpt><trkpt lat="46.23286366847489" lon="9.102993227282958"><ele>268.0</ele><time>2026-05-03T12:36:31.992Z</time></trkpt><trkpt lat="46.23280593900441" lon="9.102789466004348"><ele>268.0</ele><time>2026-05-03T12:36:32.992Z</time></trkpt><trkpt lat="46.23274573211914" lon="9.10257764977444"><ele>268.0</ele><time>2026-05-03T12:36:33.992Z</time></trkpt><trkpt lat="46.232693931270745" lon="9.102383985202737"><ele>267.75</ele><time>2026-05-03T12:36:34.992Z</time></trkpt><trkpt lat="46.232640510138985" lon="9.102200490527517"><ele>267.5</ele><time>2026-05-03T12:36:35.992Z</time></trkpt><trkpt lat="46.23258996454341" lon="9.102025294338203"><ele>267.25</ele><time>2026-05-03T12:36:36.992Z</time></trkpt><trkpt lat="46.232543746321134" lon="9.101846917429372"><ele>267.0</ele><time>2026-05-03T12:36:37.992Z</time></trkpt><trkpt lat="46.232496816309784" lon="9.10166794377655"><ele>266.75</ele><time>2026-05-03T12:36:38.992Z</time></trkpt><trkpt lat="46.23245952203716" lon="9.101497106312749"><ele>266.5</ele><time>2026-05-03T12:36:39.992Z</time></trkpt><trkpt lat="46.23243115755801" lon="9.101328733854722"><ele>266.25</ele><time>2026-05-03T12:36:40.992Z</time></trkpt><trkpt lat="46.23241039841736" lon="9.101168748313754"><ele>266.0</ele><time>2026-05-03T12:36:41.992Z</time></trkpt><trkpt lat="46.232408342286945" lon="9.101025614016635"><ele>266.0</ele><time>2026-05-03T12:36:42.992Z</time></trkpt><trkpt lat="46.232428800883454" lon="9.100891629807712"><ele>266.0</ele><time>2026-05-03T12:36:43.992Z</time></trkpt><trkpt lat="46.232461787578636" lon="9.100763877498286"><ele>266.0</ele><time>2026-05-03T12:36:44.992Z</time></trkpt><trkpt lat="46.232456693228336" lon="9.100664960457003"><ele>266.0</ele><time>2026-05-03T12:36:45.992Z</time></trkpt><trkpt lat="46.232362937524655" lon="9.100565952871182"><ele>266.0</ele><time>2026-05-03T12:36:47.992Z</time></trkpt><trkpt lat="46.23228571822676" lon="9.10060237835277"><ele>266.5</ele><time>2026-05-03T12:36:48.992Z</time></trkpt><trkpt lat="46.23221568095186" lon="9.100684902646993"><ele>267.0</ele><time>2026-05-03T12:36:49.992Z</time></trkpt><trkpt lat="46.232140513578145" lon="9.10073128541857"><ele>267.5</ele><time>2026-05-03T12:36:50.992Z</time></trkpt><trkpt lat="46.23206710996592" lon="9.100733148594427"><ele>268.0</ele><time>2026-05-03T12:36:51.992Z</time></trkpt><trkpt lat="46.232008509823935" lon="9.100690572443517"><ele>268.5</ele><time>2026-05-03T12:36:52.992Z</time></trkpt><trkpt lat="46.231954499873524" lon="9.1005916395815"><ele>269.0</ele><time>2026-05-03T12:36:53.992Z</time></trkpt><trkpt lat="46.23191393761553" lon="9.100428361431272"><ele>269.0</ele><time>2026-05-03T12:36:54.992Z</time></trkpt><trkpt lat="46.23187127885741" lon="9.100207816427103"><ele>269.0</ele><time>2026-05-03T12:36:55.992Z</time></trkpt><trkpt lat="46.2318316407358" lon="9.099990220497032"><ele>269.0</ele><time>2026-05-03T12:36:56.992Z</time></trkpt><trkpt lat="46.231797493635696" lon="9.099746370398309"><ele>269.0</ele><time>2026-05-03T12:36:57.992Z</time></trkpt><trkpt lat="46.231765743364534" lon="9.099481144293335"><ele>269.0</ele><time>2026-05-03T12:36:58.992Z</time></trkpt><trkpt lat="46.23174065453012" lon="9.09922772720368"><ele>269.0</ele><time>2026-05-03T12:36:59.992Z</time></trkpt><trkpt lat="46.231704029963886" lon="9.09896456559973"><ele>268.0</ele><time>2026-05-03T12:37:00.992Z</time></trkpt><trkpt lat="46.23166101920112" lon="9.098693635057355"><ele>267.0</ele><time>2026-05-03T12:37:01.992Z</time></trkpt><trkpt lat="46.23162462181344" lon="9.098415671665103"><ele>266.0</ele><time>2026-05-03T12:37:02.992Z</time></trkpt><trkpt lat="46.23159328149563" lon="9.09812933524144"><ele>265.6666666666667</ele><time>2026-05-03T12:37:03.992Z</time></trkpt><trkpt lat="46.23156453278628" lon="9.097828775382125"><ele>265.3333333333333</ele><time>2026-05-03T12:37:04.992Z</time></trkpt><trkpt lat="46.23153188278614" lon="9.097519662635554"><ele>265.0</ele><time>2026-05-03T12:37:05.992Z</time></trkpt><trkpt lat="46.23149592828456" lon="9.097189433133417"><ele>265.5</ele><time>2026-05-03T12:37:06.992Z</time></trkpt><trkpt lat="46.23146208686359" lon="9.096840316855927"><ele>266.0</ele><time>2026-05-03T12:37:07.992Z</time></trkpt><trkpt lat="46.231427925898636" lon="9.096498323681057"><ele>266.0</ele><time>2026-05-03T12:37:08.992Z</time></trkpt><trkpt lat="46.23139751013966" lon="9.096135307554587"><ele>266.0</ele><time>2026-05-03T12:37:09.993Z</time></trkpt><trkpt lat="46.2313601395148" lon="9.095762895134438"><ele>264.5</ele><time>2026-05-03T12:37:10.993Z</time></trkpt><trkpt lat="46.23132044727709" lon="9.095409460340331"><ele>263.0</ele><time>2026-05-03T12:37:11.99Z</time></trkpt><trkpt lat="46.23127869561616" lon="9.095062097458362"><ele>263.0</ele><time>2026-05-03T12:37:12.991Z</time></trkpt><trkpt lat="46.231239585117734" lon="9.094721210514768"><ele>263.0</ele><time>2026-05-03T12:37:13.991Z</time></trkpt><trkpt lat="46.231202723670435" lon="9.094376132746225"><ele>262.5</ele><time>2026-05-03T12:37:14.99Z</time></trkpt><trkpt lat="46.2311680321768" lon="9.094033693039641"><ele>262.0</ele><time>2026-05-03T12:37:15.991Z</time></trkpt><trkpt lat="46.23113360035506" lon="9.093691112576638"><ele>262.0</ele><time>2026-05-03T12:37:16.991Z</time></trkpt><trkpt lat="46.23110351133757" lon="9.09335091152"><ele>262.0</ele><time>2026-05-03T12:37:17.99Z</time></trkpt><trkpt lat="46.23107385755061" lon="9.0930111242292"><ele>262.0</ele><time>2026-05-03T12:37:18.99Z</time></trkpt><trkpt lat="46.23104494427538" lon="9.092670244150385"><ele>262.0</ele><time>2026-05-03T12:37:19.99Z</time></trkpt><trkpt lat="46.23101992809629" lon="9.092329378630117"><ele>261.5</ele><time>2026-05-03T12:37:20.99Z</time></trkpt><trkpt lat="46.23100359948475" lon="9.091987013048636"><ele>261.0</ele><time>2026-05-03T12:37:21.99Z</time></trkpt><trkpt lat="46.23099690104643" lon="9.091649699963828"><ele>261.5</ele><time>2026-05-03T12:37:22.99Z</time></trkpt><trkpt lat="46.23099470683282" lon="9.091312070862385"><ele>262.0</ele><time>2026-05-03T12:37:23.991Z</time></trkpt><trkpt lat="46.23099810963596" lon="9.090974213415606"><ele>262.0</ele><time>2026-05-03T12:37:24.99Z</time></trkpt><trkpt lat="46.231005519521844" lon="9.090636371793611"><ele>262.0</ele><time>2026-05-03T12:37:25.99Z</time></trkpt><trkpt lat="46.23102136033932" lon="9.090297241293865"><ele>262.0</ele><time>2026-05-03T12:37:26.99Z</time></trkpt><trkpt lat="46.23104164491583" lon="9.089958501441266"><ele>262.0</ele><time>2026-05-03T12:37:27.99Z</time></trkpt><trkpt lat="46.23106947003549" lon="9.089618135649555"><ele>262.0</ele><time>2026-05-03T12:37:28.99Z</time></trkpt><trkpt lat="46.23110430817" lon="9.08928641400359"><ele>262.0</ele><time>2026-05-03T12:37:29.99Z</time></trkpt><trkpt lat="46.231144459910695" lon="9.088955699259074"><ele>262.0</ele><time>2026-05-03T12:37:30.99Z</time></trkpt><trkpt lat="46.231189365961086" lon="9.088624766825735"><ele>262.0</ele><time>2026-05-03T12:37:31.99Z</time></trkpt><trkpt lat="46.23122651041007" lon="9.088292215024971"><ele>261.0</ele><time>2026-05-03T12:37:32.99Z</time></trkpt><trkpt lat="46.231265185433145" lon="9.087962903305248"><ele>260.0</ele><time>2026-05-03T12:37:33.99Z</time></trkpt><trkpt lat="46.2313031861118" lon="9.08763632465754"><ele>260.0</ele><time>2026-05-03T12:37:34.99Z</time></trkpt><trkpt lat="46.23134099563702" lon="9.087320690580354"><ele>260.0</ele><time>2026-05-03T12:37:35.99Z</time></trkpt><trkpt lat="46.23137789536849" lon="9.087005693688107"><ele>260.0</ele><time>2026-05-03T12:37:36.99Z</time></trkpt><trkpt lat="46.231418023575024" lon="9.086686169495584"><ele>260.5</ele><time>2026-05-03T12:37:37.99Z</time></trkpt><trkpt lat="46.23146167933099" lon="9.086356802413537"><ele>261.0</ele><time>2026-05-03T12:37:38.991Z</time></trkpt><trkpt lat="46.23150255567887" lon="9.08603359390657"><ele>260.5</ele><time>2026-05-03T12:37:39.991Z</time></trkpt><trkpt lat="46.23154456072847" lon="9.085709280454306"><ele>260.0</ele><time>2026-05-03T12:37:40.991Z</time></trkpt><trkpt lat="46.23158584980331" lon="9.085380605058184"><ele>260.0</ele><time>2026-05-03T12:37:41.991Z</time></trkpt><trkpt lat="46.231626067312675" lon="9.085053655278923"><ele>260.0</ele><time>2026-05-03T12:37:42.991Z</time></trkpt><trkpt lat="46.23165984900082" lon="9.084726314068268"><ele>260.0</ele><time>2026-05-03T12:37:43.991Z</time></trkpt><trkpt lat="46.23169742883683" lon="9.084403219275716"><ele>260.0</ele><time>2026-05-03T12:37:44.991Z</time></trkpt><trkpt lat="46.231728649153936" lon="9.084078632841184"><ele>259.6666666666667</ele><time>2026-05-03T12:37:45.991Z</time></trkpt><trkpt lat="46.2317544070886" lon="9.083753243932309"><ele>259.3333333333333</ele><time>2026-05-03T12:37:46.991Z</time></trkpt><trkpt lat="46.23176525158018" lon="9.083434977130366"><ele>259.0</ele><time>2026-05-03T12:37:47.991Z</time></trkpt><trkpt lat="46.23177488025691" lon="9.083118036796584"><ele>259.0</ele><time>2026-05-03T12:37:48.991Z</time></trkpt><trkpt lat="46.23177668765888" lon="9.082796404616372"><ele>259.0</ele><time>2026-05-03T12:37:49.991Z</time></trkpt><trkpt lat="46.231770840736196" lon="9.082466017027423"><ele>258.5</ele><time>2026-05-03T12:37:50.991Z</time></trkpt><trkpt lat="46.2317524064248" lon="9.082139206096501"><ele>258.0</ele><time>2026-05-03T12:37:51.991Z</time></trkpt><trkpt lat="46.231720343486366" lon="9.081802569018647"><ele>258.5</ele><time>2026-05-03T12:37:52.991Z</time></trkpt><trkpt lat="46.231678000631454" lon="9.081464571436417"><ele>259.0</ele><time>2026-05-03T12:37:53.991Z</time></trkpt><trkpt lat="46.23163730002875" lon="9.081127136241752"><ele>259.0</ele><time>2026-05-03T12:37:54.991Z</time></trkpt><trkpt lat="46.23157616780591" lon="9.080790287370448"><ele>259.0</ele><time>2026-05-03T12:37:55.991Z</time></trkpt><trkpt lat="46.23150428622915" lon="9.080457909173003"><ele>258.5</ele><time>2026-05-03T12:37:56.991Z</time></trkpt><trkpt lat="46.23142453818994" lon="9.080122129203934"><ele>258.0</ele><time>2026-05-03T12:37:57.991Z</time></trkpt><trkpt lat="46.23134106320706" lon="9.079793102727441"><ele>256.5</ele><time>2026-05-03T12:37:58.991Z</time></trkpt><trkpt lat="46.23124506445864" lon="9.079469156481846"><ele>255.0</ele><time>2026-05-03T12:37:59.991Z</time></trkpt><trkpt lat="46.231143158001444" lon="9.079147050679591"><ele>255.5</ele><time>2026-05-03T12:38:00.991Z</time></trkpt><trkpt lat="46.23102285214221" lon="9.07883410795592"><ele>256.0</ele><time>2026-05-03T12:38:01.991Z</time></trkpt><trkpt lat="46.230900284696986" lon="9.0785213640806"><ele>255.5</ele><time>2026-05-03T12:38:02.991Z</time></trkpt><trkpt lat="46.230769273961144" lon="9.078217324203663"><ele>255.0</ele><time>2026-05-03T12:38:03.991Z</time></trkpt><trkpt lat="46.23063455413423" lon="9.077916068061876"><ele>255.0</ele><time>2026-05-03T12:38:04.991Z</time></trkpt><trkpt lat="46.230498167093174" lon="9.077615191769125"><ele>255.0</ele><time>2026-05-03T12:38:05.991Z</time></trkpt><trkpt lat="46.23036095385938" lon="9.077314653696527"><ele>255.0</ele><time>2026-05-03T12:38:06.991Z</time></trkpt><trkpt lat="46.230229446114194" lon="9.077003492295386"><ele>255.0</ele><time>2026-05-03T12:38:07.991Z</time></trkpt><trkpt lat="46.23009283858081" lon="9.076707136302321"><ele>257.0</ele><time>2026-05-03T12:38:08.991Z</time></trkpt><trkpt lat="46.229958281861215" lon="9.076403975621531"><ele>259.0</ele><time>2026-05-03T12:38:09.991Z</time></trkpt><trkpt lat="46.22981940052" lon="9.076104349164753"><ele>256.5</ele><time>2026-05-03T12:38:10.991Z</time></trkpt><trkpt lat="46.22968065834867" lon="9.075800926190732"><ele>254.0</ele><time>2026-05-03T12:38:11.991Z</time></trkpt><trkpt lat="46.22954267452327" lon="9.075496125528892"><ele>254.0</ele><time>2026-05-03T12:38:12.991Z</time></trkpt><trkpt lat="46.22940335945399" lon="9.075185195192702"><ele>254.0</ele><time>2026-05-03T12:38:13.991Z</time></trkpt><trkpt lat="46.229263743224315" lon="9.074874890333765"><ele>255.5</ele><time>2026-05-03T12:38:14.991Z</time></trkpt><trkpt lat="46.22912731184015" lon="9.074575124106122"><ele>257.0</ele><time>2026-05-03T12:38:15.991Z</time></trkpt><trkpt lat="46.22899729135091" lon="9.074271501810196"><ele>255.5</ele><time>2026-05-03T12:38:16.991Z</time></trkpt><trkpt lat="46.22886471359265" lon="9.073967595827325"><ele>254.0</ele><time>2026-05-03T12:38:17.991Z</time></trkpt><trkpt lat="46.2287355392903" lon="9.07366244472067"><ele>254.0</ele><time>2026-05-03T12:38:18.992Z</time></trkpt><trkpt lat="46.228609094789405" lon="9.073352209864133"><ele>254.0</ele><time>2026-05-03T12:38:19.992Z</time></trkpt><trkpt lat="46.228503108846475" lon="9.073040670528385"><ele>254.0</ele><time>2026-05-03T12:38:20.992Z</time></trkpt><trkpt lat="46.22840860234648" lon="9.072726925574152"><ele>254.0</ele><time>2026-05-03T12:38:21.992Z</time></trkpt><trkpt lat="46.22831859421587" lon="9.072406164431035"><ele>255.0</ele><time>2026-05-03T12:38:22.992Z</time></trkpt><trkpt lat="46.228242465925334" lon="9.072080513524046"><ele>256.0</ele><time>2026-05-03T12:38:23.992Z</time></trkpt><trkpt lat="46.22816666428172" lon="9.07175348433048"><ele>253.5</ele><time>2026-05-03T12:38:24.992Z</time></trkpt><trkpt lat="46.22809889244699" lon="9.07142131982709"><ele>251.0</ele><time>2026-05-03T12:38:25.992Z</time></trkpt><trkpt lat="46.228040423851965" lon="9.071085822278974"><ele>251.5</ele><time>2026-05-03T12:38:26.992Z</time></trkpt><trkpt lat="46.227990875349256" lon="9.070743675825566"><ele>252.0</ele><time>2026-05-03T12:38:27.992Z</time></trkpt><trkpt lat="46.22793995214432" lon="9.070397439610831"><ele>252.0</ele><time>2026-05-03T12:38:28.992Z</time></trkpt><trkpt lat="46.22790263643296" lon="9.070044551990444"><ele>252.0</ele><time>2026-05-03T12:38:29.992Z</time></trkpt><trkpt lat="46.22787136513961" lon="9.069688320187058"><ele>252.0</ele><time>2026-05-03T12:38:30.992Z</time></trkpt><trkpt lat="46.22783895575935" lon="9.069326773968186"><ele>252.0</ele><time>2026-05-03T12:38:31.992Z</time></trkpt><trkpt lat="46.22780243539581" lon="9.068964757777616"><ele>252.0</ele><time>2026-05-03T12:38:32.992Z</time></trkpt><trkpt lat="46.22776117785059" lon="9.068613636088902"><ele>252.0</ele><time>2026-05-03T12:38:33.992Z</time></trkpt><trkpt lat="46.22771637456388" lon="9.068252106128577"><ele>251.5</ele><time>2026-05-03T12:38:34.992Z</time></trkpt><trkpt lat="46.22766257781701" lon="9.06790871572306"><ele>251.0</ele><time>2026-05-03T12:38:35.992Z</time></trkpt><trkpt lat="46.22760130160587" lon="9.067582237788761"><ele>250.0</ele><time>2026-05-03T12:38:36.992Z</time></trkpt><trkpt lat="46.227539154772074" lon="9.067259094538052"><ele>249.0</ele><time>2026-05-03T12:38:37.992Z</time></trkpt><trkpt lat="46.22747370827115" lon="9.066949566876115"><ele>249.0</ele><time>2026-05-03T12:38:38.992Z</time></trkpt><trkpt lat="46.22740383827773" lon="9.06665168988965"><ele>249.0</ele><time>2026-05-03T12:38:39.992Z</time></trkpt><trkpt lat="46.22732831733889" lon="9.066355736596668"><ele>249.0</ele><time>2026-05-03T12:38:40.992Z</time></trkpt><trkpt lat="46.22724769303303" lon="9.066063805973801"><ele>248.5</ele><time>2026-05-03T12:38:41.992Z</time></trkpt><trkpt lat="46.22716251035531" lon="9.065759524005978"><ele>248.0</ele><time>2026-05-03T12:38:42.992Z</time></trkpt><trkpt lat="46.22706584578104" lon="9.06545873044299"><ele>248.0</ele><time>2026-05-03T12:38:43.992Z</time></trkpt><trkpt lat="46.226969146472534" lon="9.065156222372856"><ele>248.0</ele><time>2026-05-03T12:38:44.992Z</time></trkpt><trkpt lat="46.22686811741396" lon="9.064847106442969"><ele>248.5</ele><time>2026-05-03T12:38:45.992Z</time></trkpt><trkpt lat="46.22676469990763" lon="9.064538740911372"><ele>249.0</ele><time>2026-05-03T12:38:46.992Z</time></trkpt><trkpt lat="46.22666361099416" lon="9.064233669623995"><ele>248.5</ele><time>2026-05-03T12:38:47.992Z</time></trkpt><trkpt lat="46.22656311662254" lon="9.063931014698362"><ele>248.0</ele><time>2026-05-03T12:38:48.992Z</time></trkpt><trkpt lat="46.22645723991896" lon="9.063623844769008"><ele>247.0</ele><time>2026-05-03T12:38:49.992Z</time></trkpt><trkpt lat="46.22635427101378" lon="9.06331714741686"><ele>246.0</ele><time>2026-05-03T12:38:50.992Z</time></trkpt><trkpt lat="46.22625435621841" lon="9.06301658452124"><ele>246.0</ele><time>2026-05-03T12:38:51.992Z</time></trkpt><trkpt lat="46.2261542311155" lon="9.062715974631066"><ele>246.0</ele><time>2026-05-03T12:38:52.992Z</time></trkpt><trkpt lat="46.22605785751066" lon="9.062422394659688"><ele>246.0</ele><time>2026-05-03T12:38:53.992Z</time></trkpt><trkpt lat="46.22596182310194" lon="9.062130391064837"><ele>246.0</ele><time>2026-05-03T12:38:54.992Z</time></trkpt><trkpt lat="46.225864604371736" lon="9.06183474192027"><ele>246.5</ele><time>2026-05-03T12:38:55.992Z</time></trkpt><trkpt lat="46.22576471898822" lon="9.061536224121522"><ele>247.0</ele><time>2026-05-03T12:38:56.992Z</time></trkpt><trkpt lat="46.22566464378874" lon="9.061237709966388"><ele>246.5</ele><time>2026-05-03T12:38:57.992Z</time></trkpt><trkpt lat="46.22556375938735" lon="9.060939435421437"><ele>246.0</ele><time>2026-05-03T12:38:58.993Z</time></trkpt><trkpt lat="46.22546302900246" lon="9.060642817042726"><ele>245.0</ele><time>2026-05-03T12:38:59.993Z</time></trkpt><trkpt lat="46.22535808763549" lon="9.060343094105415"><ele>244.0</ele><time>2026-05-03T12:39:00.993Z</time></trkpt><trkpt lat="46.22525730579158" lon="9.060043272812047"><ele>244.0</ele><time>2026-05-03T12:39:01.993Z</time></trkpt><trkpt lat="46.225166269634606" lon="9.05975563159997"><ele>244.0</ele><time>2026-05-03T12:39:02.993Z</time></trkpt><trkpt lat="46.22507308161927" lon="9.059463084779054"><ele>244.0</ele><time>2026-05-03T12:39:03.993Z</time></trkpt><trkpt lat="46.22497307339045" lon="9.059168675919361"><ele>244.0</ele><time>2026-05-03T12:39:04.993Z</time></trkpt><trkpt lat="46.224874046618915" lon="9.058878561454916"><ele>244.0</ele><time>2026-05-03T12:39:05.993Z</time></trkpt><trkpt lat="46.22477454577814" lon="9.05858250329312"><ele>243.5</ele><time>2026-05-03T12:39:06.993Z</time></trkpt><trkpt lat="46.22467598328219" lon="9.058282426559057"><ele>243.0</ele><time>2026-05-03T12:39:07.993Z</time></trkpt><trkpt lat="46.22457674832587" lon="9.05797996240428"><ele>243.0</ele><time>2026-05-03T12:39:08.993Z</time></trkpt><trkpt lat="46.224475944989265" lon="9.057692207338548"><ele>243.0</ele><time>2026-05-03T12:39:09.993Z</time></trkpt><trkpt lat="46.224372268070404" lon="9.057393695090498"><ele>243.0</ele><time>2026-05-03T12:39:10.993Z</time></trkpt><trkpt lat="46.224270553783434" lon="9.057089841603183"><ele>243.0</ele><time>2026-05-03T12:39:11.993Z</time></trkpt><trkpt lat="46.22416693459897" lon="9.056778605763922"><ele>243.5</ele><time>2026-05-03T12:39:12.993Z</time></trkpt><trkpt lat="46.224064089497354" lon="9.056466227401073"><ele>244.0</ele><time>2026-05-03T12:39:13.993Z</time></trkpt><trkpt lat="46.22396059077979" lon="9.056150081863828"><ele>244.0</ele><time>2026-05-03T12:39:14.993Z</time></trkpt><trkpt lat="46.2238595016443" lon="9.055836853145157"><ele>244.0</ele><time>2026-05-03T12:39:15.993Z</time></trkpt><trkpt lat="46.223752538690555" lon="9.05551560841942"><ele>243.5</ele><time>2026-05-03T12:39:16.993Z</time></trkpt><trkpt lat="46.22364791726153" lon="9.055209855689263"><ele>243.0</ele><time>2026-05-03T12:39:17.992Z</time></trkpt><trkpt lat="46.22354883039319" lon="9.054895237313604"><ele>243.0</ele><time>2026-05-03T12:39:18.991Z</time></trkpt><trkpt lat="46.223445730833404" lon="9.054584089915421"><ele>243.0</ele><time>2026-05-03T12:39:19.991Z</time></trkpt><trkpt lat="46.22334237950267" lon="9.054269688897792"><ele>243.5</ele><time>2026-05-03T12:39:20.991Z</time></trkpt><trkpt lat="46.223242586163046" lon="9.053953776456108"><ele>244.0</ele><time>2026-05-03T12:39:21.991Z</time></trkpt><trkpt lat="46.2231452941472" lon="9.053636022865305"><ele>244.0</ele><time>2026-05-03T12:39:22.991Z</time></trkpt><trkpt lat="46.22304031698981" lon="9.053315958874677"><ele>244.0</ele><time>2026-05-03T12:39:23.992Z</time></trkpt><trkpt lat="46.22294070584496" lon="9.052995943080102"><ele>243.5</ele><time>2026-05-03T12:39:24.992Z</time></trkpt><trkpt lat="46.222843279329446" lon="9.052679771714937"><ele>243.0</ele><time>2026-05-03T12:39:25.992Z</time></trkpt><trkpt lat="46.22274442023107" lon="9.052365004428957"><ele>243.0</ele><time>2026-05-03T12:39:26.992Z</time></trkpt><trkpt lat="46.22264673142831" lon="9.052051352731626"><ele>243.0</ele><time>2026-05-03T12:39:27.991Z</time></trkpt><trkpt lat="46.222549640049735" lon="9.051733567474608"><ele>243.5</ele><time>2026-05-03T12:39:28.991Z</time></trkpt><trkpt lat="46.222458582414646" lon="9.051421131117614"><ele>244.0</ele><time>2026-05-03T12:39:29.992Z</time></trkpt><trkpt lat="46.22237150179269" lon="9.051105969602974"><ele>243.5</ele><time>2026-05-03T12:39:30.991Z</time></trkpt><trkpt lat="46.22229172069949" lon="9.050784334556562"><ele>243.0</ele><time>2026-05-03T12:39:31.991Z</time></trkpt><trkpt lat="46.22221328602661" lon="9.050457873826373"><ele>243.0</ele><time>2026-05-03T12:39:32.991Z</time></trkpt><trkpt lat="46.22212991664942" lon="9.050123959923546"><ele>243.0</ele><time>2026-05-03T12:39:33.991Z</time></trkpt><trkpt lat="46.222051284786545" lon="9.049794140858182"><ele>243.0</ele><time>2026-05-03T12:39:34.991Z</time></trkpt><trkpt lat="46.221980132777766" lon="9.049468193406847"><ele>243.0</ele><time>2026-05-03T12:39:35.991Z</time></trkpt><trkpt lat="46.22192177780911" lon="9.049143700304109"><ele>243.5</ele><time>2026-05-03T12:39:36.991Z</time></trkpt><trkpt lat="46.22186798062362" lon="9.048823765345947"><ele>244.0</ele><time>2026-05-03T12:39:37.991Z</time></trkpt><trkpt lat="46.22182126625799" lon="9.04850525164106"><ele>243.5</ele><time>2026-05-03T12:39:38.991Z</time></trkpt><trkpt lat="46.221772521322976" lon="9.048186311406253"><ele>243.0</ele><time>2026-05-03T12:39:39.991Z</time></trkpt><trkpt lat="46.221727765851526" lon="9.047858656455533"><ele>243.0</ele><time>2026-05-03T12:39:40.991Z</time></trkpt><trkpt lat="46.22169013919096" lon="9.047527525034937"><ele>243.0</ele><time>2026-05-03T12:39:41.991Z</time></trkpt><trkpt lat="46.22165888985309" lon="9.047192826228533"><ele>244.5</ele><time>2026-05-03T12:39:42.991Z</time></trkpt><trkpt lat="46.22162880607743" lon="9.04685041866808"><ele>246.0</ele><time>2026-05-03T12:39:43.991Z</time></trkpt><trkpt lat="46.22160028900092" lon="9.04650708617874"><ele>246.0</ele><time>2026-05-03T12:39:44.991Z</time></trkpt><trkpt lat="46.22157536969729" lon="9.046164442255904"><ele>246.0</ele><time>2026-05-03T12:39:45.991Z</time></trkpt><trkpt lat="46.2215506671394" lon="9.045814455433234"><ele>246.5</ele><time>2026-05-03T12:39:46.991Z</time></trkpt><trkpt lat="46.22152978024814" lon="9.045470513277962"><ele>247.0</ele><time>2026-05-03T12:39:47.991Z</time></trkpt><trkpt lat="46.22148089014076" lon="9.044776526901313"><ele>245.0</ele><time>2026-05-03T12:39:49.991Z</time></trkpt><trkpt lat="46.22145404248114" lon="9.0444359955282"><ele>243.0</ele><time>2026-05-03T12:39:50.991Z</time></trkpt><trkpt lat="46.22142831252968" lon="9.044092241364366"><ele>243.0</ele><time>2026-05-03T12:39:51.991Z</time></trkpt><trkpt lat="46.22140036869877" lon="9.043746307911247"><ele>243.0</ele><time>2026-05-03T12:39:52.991Z</time></trkpt><trkpt lat="46.221366582025105" lon="9.043405844715215"><ele>242.5</ele><time>2026-05-03T12:39:53.991Z</time></trkpt><trkpt lat="46.22132534751424" lon="9.043059922029572"><ele>242.0</ele><time>2026-05-03T12:39:54.991Z</time></trkpt><trkpt lat="46.22127701809672" lon="9.042722024979552"><ele>242.5</ele><time>2026-05-03T12:39:55.992Z</time></trkpt><trkpt lat="46.221231631328216" lon="9.042389829253057"><ele>243.0</ele><time>2026-05-03T12:39:56.992Z</time></trkpt><trkpt lat="46.22117954504975" lon="9.042062155827248"><ele>243.0</ele><time>2026-05-03T12:39:57.992Z</time></trkpt><trkpt lat="46.22112086956716" lon="9.041739025121391"><ele>243.0</ele><time>2026-05-03T12:39:58.992Z</time></trkpt><trkpt lat="46.221048849545035" lon="9.041413781165433"><ele>242.5</ele><time>2026-05-03T12:39:59.992Z</time></trkpt><trkpt lat="46.220972379789906" lon="9.041104318308637"><ele>242.0</ele><time>2026-05-03T12:40:00.992Z</time></trkpt><trkpt lat="46.220886510867885" lon="9.040790642773235"><ele>240.5</ele><time>2026-05-03T12:40:01.992Z</time></trkpt><trkpt lat="46.220786235131214" lon="9.040470290288564"><ele>239.0</ele><time>2026-05-03T12:40:02.992Z</time></trkpt><trkpt lat="46.22068587464683" lon="9.040181197949398"><ele>241.5</ele><time>2026-05-03T12:40:03.992Z</time></trkpt><trkpt lat="46.22056433793193" lon="9.03988672606073"><ele>244.0</ele><time>2026-05-03T12:40:04.992Z</time></trkpt><trkpt lat="46.22043997582267" lon="9.039603488419523"><ele>244.0</ele><time>2026-05-03T12:40:05.992Z</time></trkpt><trkpt lat="46.220302296185956" lon="9.039319634062291"><ele>244.0</ele><time>2026-05-03T12:40:06.992Z</time></trkpt><trkpt lat="46.22015473470551" lon="9.039047430886283"><ele>244.0</ele><time>2026-05-03T12:40:07.992Z</time></trkpt><trkpt lat="46.21999875858055" lon="9.038791963468046"><ele>244.0</ele><time>2026-05-03T12:40:08.992Z</time></trkpt><trkpt lat="46.21983386487692" lon="9.03854970624836"><ele>243.5</ele><time>2026-05-03T12:40:09.992Z</time></trkpt><trkpt lat="46.21966719600961" lon="9.038315414221044"><ele>243.0</ele><time>2026-05-03T12:40:10.992Z</time></trkpt><trkpt lat="46.21949118537433" lon="9.038100518707433"><ele>244.5</ele><time>2026-05-03T12:40:11.992Z</time></trkpt><trkpt lat="46.21930785440059" lon="9.037898503690746"><ele>246.0</ele><time>2026-05-03T12:40:12.992Z</time></trkpt><trkpt lat="46.21912262327971" lon="9.037708602465047"><ele>246.5</ele><time>2026-05-03T12:40:13.992Z</time></trkpt><trkpt lat="46.2189232995461" lon="9.037530632164252"><ele>247.0</ele><time>2026-05-03T12:40:14.992Z</time></trkpt><trkpt lat="46.218722713429266" lon="9.037368189353558"><ele>249.0</ele><time>2026-05-03T12:40:15.992Z</time></trkpt><trkpt lat="46.21850389117231" lon="9.037219091477944"><ele>251.0</ele><time>2026-05-03T12:40:16.992Z</time></trkpt><trkpt lat="46.218282448643464" lon="9.03707320903784"><ele>251.0</ele><time>2026-05-03T12:40:17.992Z</time></trkpt><trkpt lat="46.218045835630384" lon="9.036937740104447"><ele>251.0</ele><time>2026-05-03T12:40:18.992Z</time></trkpt><trkpt lat="46.21779864498419" lon="9.036827797315784"><ele>251.0</ele><time>2026-05-03T12:40:19.992Z</time></trkpt><trkpt lat="46.21754781660256" lon="9.036720507485626"><ele>251.0</ele><time>2026-05-03T12:40:20.992Z</time></trkpt><trkpt lat="46.21729921511636" lon="9.036621394922541"><ele>254.0</ele><time>2026-05-03T12:40:21.992Z</time></trkpt><trkpt lat="46.217048509819364" lon="9.036510445734313"><ele>257.0</ele><time>2026-05-03T12:40:22.992Z</time></trkpt><trkpt lat="46.216780605347275" lon="9.036445782497275"><ele>254.5</ele><time>2026-05-03T12:40:23.992Z</time></trkpt><trkpt lat="46.2164476140314" lon="9.03649382775497"><ele>252.0</ele><time>2026-05-03T12:40:24.992Z</time></trkpt><trkpt lat="46.216148135957106" lon="9.036553955902384"><ele>252.0</ele><time>2026-05-03T12:40:25.992Z</time></trkpt><trkpt lat="46.215840018907535" lon="9.036579997516702"><ele>252.0</ele><time>2026-05-03T12:40:26.992Z</time></trkpt><trkpt lat="46.21554969614202" lon="9.036609896921483"><ele>251.0</ele><time>2026-05-03T12:40:27.992Z</time></trkpt><trkpt lat="46.215261742318944" lon="9.036641525755217"><ele>250.0</ele><time>2026-05-03T12:40:28.992Z</time></trkpt><trkpt lat="46.21497793672517" lon="9.03665731240791"><ele>250.5</ele><time>2026-05-03T12:40:29.992Z</time></trkpt><trkpt lat="46.21470083953249" lon="9.036648526816391"><ele>251.0</ele><time>2026-05-03T12:40:30.992Z</time></trkpt><trkpt lat="46.21442234111542" lon="9.03661731383166"><ele>252.0</ele><time>2026-05-03T12:40:31.992Z</time></trkpt><trkpt lat="46.21413924089227" lon="9.036556638564678"><ele>253.0</ele><time>2026-05-03T12:40:32.992Z</time></trkpt><trkpt lat="46.2138715387444" lon="9.036458643966665"><ele>253.0</ele><time>2026-05-03T12:40:33.992Z</time></trkpt><trkpt lat="46.213617701763106" lon="9.036344657435995"><ele>253.0</ele><time>2026-05-03T12:40:34.992Z</time></trkpt><trkpt lat="46.21336511730796" lon="9.036212833126113"><ele>248.5</ele><time>2026-05-03T12:40:35.993Z</time></trkpt><trkpt lat="46.213117018051356" lon="9.036062831577812"><ele>244.0</ele><time>2026-05-03T12:40:36.993Z</time></trkpt><trkpt lat="46.212876416058805" lon="9.035899925627225"><ele>248.0</ele><time>2026-05-03T12:40:37.993Z</time></trkpt><trkpt lat="46.21263107937984" lon="9.035699750127963"><ele>252.0</ele><time>2026-05-03T12:40:38.993Z</time></trkpt><trkpt lat="46.21239531649123" lon="9.035506889967808"><ele>247.0</ele><time>2026-05-03T12:40:39.993Z</time></trkpt><trkpt lat="46.21216555884741" lon="9.035284549448539"><ele>242.0</ele><time>2026-05-03T12:40:40.993Z</time></trkpt><trkpt lat="46.21194354770604" lon="9.035042874847012"><ele>245.0</ele><time>2026-05-03T12:40:41.993Z</time></trkpt><trkpt lat="46.21172398177793" lon="9.03478443518943"><ele>248.0</ele><time>2026-05-03T12:40:42.993Z</time></trkpt><trkpt lat="46.21151209953757" lon="9.03450852502601"><ele>246.0</ele><time>2026-05-03T12:40:43.993Z</time></trkpt><trkpt lat="46.21131211262942" lon="9.034208159371792"><ele>244.0</ele><time>2026-05-03T12:40:44.993Z</time></trkpt><trkpt lat="46.21111414770058" lon="9.033895745855675"><ele>244.0</ele><time>2026-05-03T12:40:45.993Z</time></trkpt><trkpt lat="46.21092429554934" lon="9.033576170619776"><ele>244.0</ele><time>2026-05-03T12:40:46.993Z</time></trkpt><trkpt lat="46.210750729331714" lon="9.03323360970882"><ele>240.0</ele><time>2026-05-03T12:40:47.993Z</time></trkpt><trkpt lat="46.21057564894072" lon="9.032885577553968"><ele>236.0</ele><time>2026-05-03T12:40:48.993Z</time></trkpt><trkpt lat="46.21041540213387" lon="9.032507298219977"><ele>237.5</ele><time>2026-05-03T12:40:49.993Z</time></trkpt><trkpt lat="46.210271924354295" lon="9.032132984589664"><ele>239.0</ele><time>2026-05-03T12:40:50.993Z</time></trkpt><trkpt lat="46.21013384649658" lon="9.031754364325963"><ele>240.0</ele><time>2026-05-03T12:40:51.993Z</time></trkpt><trkpt lat="46.2100208002095" lon="9.03137009299101"><ele>241.0</ele><time>2026-05-03T12:40:52.993Z</time></trkpt><trkpt lat="46.209913397207266" lon="9.030974132526602"><ele>235.5</ele><time>2026-05-03T12:40:53.993Z</time></trkpt><trkpt lat="46.209818243549115" lon="9.030589138749662"><ele>230.0</ele><time>2026-05-03T12:40:54.993Z</time></trkpt><trkpt lat="46.20973108689444" lon="9.030204445663626"><ele>229.5</ele><time>2026-05-03T12:40:55.993Z</time></trkpt><trkpt lat="46.20965386722961" lon="9.029825710694832"><ele>229.0</ele><time>2026-05-03T12:40:56.993Z</time></trkpt><trkpt lat="46.20956820685049" lon="9.029448400311534"><ele>230.0</ele><time>2026-05-03T12:40:57.993Z</time></trkpt><trkpt lat="46.20947877590977" lon="9.029081582454594"><ele>231.0</ele><time>2026-05-03T12:40:58.993Z</time></trkpt><trkpt lat="46.20938641411355" lon="9.028718716900883"><ele>231.0</ele><time>2026-05-03T12:40:59.993Z</time></trkpt><trkpt lat="46.20928242431548" lon="9.028355257183375"><ele>231.0</ele><time>2026-05-03T12:41:00.993Z</time></trkpt><trkpt lat="46.20916741657289" lon="9.02799530611518"><ele>231.0</ele><time>2026-05-03T12:41:01.993Z</time></trkpt><trkpt lat="46.209048628835674" lon="9.027637373623898"><ele>231.0</ele><time>2026-05-03T12:41:02.993Z</time></trkpt><trkpt lat="46.208925607170514" lon="9.027284879592635"><ele>231.0</ele><time>2026-05-03T12:41:03.993Z</time></trkpt><trkpt lat="46.20879867541052" lon="9.026937170849719"><ele>231.0</ele><time>2026-05-03T12:41:04.993Z</time></trkpt><trkpt lat="46.2086621499343" lon="9.02658726232653"><ele>233.5</ele><time>2026-05-03T12:41:05.993Z</time></trkpt><trkpt lat="46.2085140713092" lon="9.02624088456959"><ele>236.0</ele><time>2026-05-03T12:41:06.993Z</time></trkpt><trkpt lat="46.20836221417137" lon="9.025898894223815"><ele>232.0</ele><time>2026-05-03T12:41:07.993Z</time></trkpt><trkpt lat="46.20821099723388" lon="9.025564056130587"><ele>228.0</ele><time>2026-05-03T12:41:08.993Z</time></trkpt><trkpt lat="46.208053531823566" lon="9.025225896536273"><ele>235.5</ele><time>2026-05-03T12:41:09.993Z</time></trkpt><trkpt lat="46.207897947298676" lon="9.02488606834169"><ele>243.0</ele><time>2026-05-03T12:41:10.993Z</time></trkpt><trkpt lat="46.207748708117364" lon="9.024542569305568"><ele>243.0</ele><time>2026-05-03T12:41:11.993Z</time></trkpt><trkpt lat="46.207606055768025" lon="9.024199657221827"><ele>243.0</ele><time>2026-05-03T12:41:12.993Z</time></trkpt><trkpt lat="46.20746964733908" lon="9.023859945671711"><ele>236.5</ele><time>2026-05-03T12:41:13.993Z</time></trkpt><trkpt lat="46.20732551406337" lon="9.023507687556963"><ele>230.0</ele><time>2026-05-03T12:41:14.993Z</time></trkpt><trkpt lat="46.207178488262905" lon="9.023163977592823"><ele>230.0</ele><time>2026-05-03T12:41:15.994Z</time></trkpt><trkpt lat="46.20703559604853" lon="9.022815943255933"><ele>230.0</ele><time>2026-05-03T12:41:16.994Z</time></trkpt><trkpt lat="46.206887964162284" lon="9.022459266546234"><ele>230.5</ele><time>2026-05-03T12:41:17.994Z</time></trkpt><trkpt lat="46.20674588873708" lon="9.022098370640027"><ele>231.0</ele><time>2026-05-03T12:41:18.994Z</time></trkpt><trkpt lat="46.20660454400845" lon="9.021730074492767"><ele>229.5</ele><time>2026-05-03T12:41:19.994Z</time></trkpt><trkpt lat="46.206470375096224" lon="9.021368009627277"><ele>228.0</ele><time>2026-05-03T12:41:20.994Z</time></trkpt><trkpt lat="46.2063236212769" lon="9.021006275894852"><ele>230.0</ele><time>2026-05-03T12:41:21.994Z</time></trkpt><trkpt lat="46.20618659056628" lon="9.020656093455473"><ele>232.0</ele><time>2026-05-03T12:41:22.994Z</time></trkpt><trkpt lat="46.20603967081637" lon="9.020312343241226"><ele>234.0</ele><time>2026-05-03T12:41:23.993Z</time></trkpt><trkpt lat="46.20588698231512" lon="9.019978244779672"><ele>236.0</ele><time>2026-05-03T12:41:24.992Z</time></trkpt><trkpt lat="46.205721121425356" lon="9.019653350468417"><ele>234.0</ele><time>2026-05-03T12:41:25.992Z</time></trkpt><trkpt lat="46.20554804734837" lon="9.019331230271844"><ele>232.0</ele><time>2026-05-03T12:41:26.992Z</time></trkpt><trkpt lat="46.20536682590862" lon="9.01901157921074"><ele>232.0</ele><time>2026-05-03T12:41:27.992Z</time></trkpt><trkpt lat="46.20518348425185" lon="9.01869497989262"><ele>232.0</ele><time>2026-05-03T12:41:28.992Z</time></trkpt><trkpt lat="46.204988426126754" lon="9.018385658468803"><ele>229.5</ele><time>2026-05-03T12:41:29.992Z</time></trkpt><trkpt lat="46.204785039953855" lon="9.018078036297672"><ele>227.0</ele><time>2026-05-03T12:41:30.992Z</time></trkpt><trkpt lat="46.20457300819837" lon="9.017781859213482"><ele>227.0</ele><time>2026-05-03T12:41:31.992Z</time></trkpt><trkpt lat="46.204357560062036" lon="9.017488376904037"><ele>227.0</ele><time>2026-05-03T12:41:32.993Z</time></trkpt><trkpt lat="46.204126415531775" lon="9.017210509642842"><ele>226.0</ele><time>2026-05-03T12:41:33.992Z</time></trkpt><trkpt lat="46.20389295130948" lon="9.016942536243384"><ele>225.0</ele><time>2026-05-03T12:41:34.992Z</time></trkpt><trkpt lat="46.20365031584056" lon="9.016683408838576"><ele>227.0</ele><time>2026-05-03T12:41:35.993Z</time></trkpt><trkpt lat="46.20340564398608" lon="9.016436174025385"><ele>229.0</ele><time>2026-05-03T12:41:36.992Z</time></trkpt><trkpt lat="46.20315557592789" lon="9.016193271619734"><ele>230.0</ele><time>2026-05-03T12:41:37.992Z</time></trkpt><trkpt lat="46.20290282479649" lon="9.015959865683564"><ele>231.0</ele><time>2026-05-03T12:41:38.992Z</time></trkpt><trkpt lat="46.202651954939775" lon="9.015726970301966"><ele>231.0</ele><time>2026-05-03T12:41:39.992Z</time></trkpt><trkpt lat="46.20239773839651" lon="9.015491457330638"><ele>231.0</ele><time>2026-05-03T12:41:40.992Z</time></trkpt><trkpt lat="46.202144699657836" lon="9.01525887880097"><ele>231.0</ele><time>2026-05-03T12:41:41.992Z</time></trkpt><trkpt lat="46.20189002819956" lon="9.015024785035173"><ele>231.0</ele><time>2026-05-03T12:41:42.992Z</time></trkpt><trkpt lat="46.20163583257731" lon="9.014788797335402"><ele>229.5</ele><time>2026-05-03T12:41:43.992Z</time></trkpt><trkpt lat="46.20137618776488" lon="9.01455116463703"><ele>228.0</ele><time>2026-05-03T12:41:44.993Z</time></trkpt><trkpt lat="46.20111590808641" lon="9.01431761433716"><ele>228.5</ele><time>2026-05-03T12:41:45.993Z</time></trkpt><trkpt lat="46.20085453815035" lon="9.014082710435106"><ele>229.0</ele><time>2026-05-03T12:41:46.993Z</time></trkpt><trkpt lat="46.20059499446322" lon="9.013849606131895"><ele>229.0</ele><time>2026-05-03T12:41:47.993Z</time></trkpt><trkpt lat="46.200341365395126" lon="9.013605043368228"><ele>229.0</ele><time>2026-05-03T12:41:48.993Z</time></trkpt><trkpt lat="46.20007699165272" lon="9.013379563491553"><ele>228.5</ele><time>2026-05-03T12:41:49.993Z</time></trkpt><trkpt lat="46.19982551187599" lon="9.01315586892744"><ele>228.0</ele><time>2026-05-03T12:41:50.993Z</time></trkpt><trkpt lat="46.19957146580253" lon="9.01293397270098"><ele>228.0</ele><time>2026-05-03T12:41:51.993Z</time></trkpt><trkpt lat="46.19932076233586" lon="9.012711546418913"><ele>228.0</ele><time>2026-05-03T12:41:52.993Z</time></trkpt><trkpt lat="46.199066467012884" lon="9.01249274758356"><ele>227.0</ele><time>2026-05-03T12:41:53.993Z</time></trkpt><trkpt lat="46.198810511835774" lon="9.012273548886661"><ele>226.0</ele><time>2026-05-03T12:41:54.993Z</time></trkpt><trkpt lat="46.19855804853904" lon="9.012058304534325"><ele>226.0</ele><time>2026-05-03T12:41:55.993Z</time></trkpt><trkpt lat="46.19830223501962" lon="9.01184894058582"><ele>226.0</ele><time>2026-05-03T12:41:56.993Z</time></trkpt><trkpt lat="46.198049064670634" lon="9.011643270304514"><ele>225.5</ele><time>2026-05-03T12:41:57.993Z</time></trkpt><trkpt lat="46.197791848274264" lon="9.011440437867344"><ele>225.0</ele><time>2026-05-03T12:41:58.993Z</time></trkpt><trkpt lat="46.197537825553574" lon="9.011239909384805"><ele>223.5</ele><time>2026-05-03T12:41:59.993Z</time></trkpt><trkpt lat="46.19727624867314" lon="9.011039653145488"><ele>222.0</ele><time>2026-05-03T12:42:00.993Z</time></trkpt><trkpt lat="46.19701577668799" lon="9.01084097251068"><ele>222.0</ele><time>2026-05-03T12:42:01.993Z</time></trkpt><trkpt lat="46.1967546750672" lon="9.010645270013855"><ele>222.0</ele><time>2026-05-03T12:42:02.993Z</time></trkpt><trkpt lat="46.19649124080208" lon="9.010458769170766"><ele>221.5</ele><time>2026-05-03T12:42:03.993Z</time></trkpt><trkpt lat="46.19622528668865" lon="9.010275253409601"><ele>221.0</ele><time>2026-05-03T12:42:04.993Z</time></trkpt><trkpt lat="46.195958806128324" lon="9.010090920273427"><ele>222.0</ele><time>2026-05-03T12:42:05.993Z</time></trkpt><trkpt lat="46.19568999739244" lon="9.009905784800484"><ele>223.0</ele><time>2026-05-03T12:42:06.993Z</time></trkpt><trkpt lat="46.19542274760058" lon="9.009724274079266"><ele>224.0</ele><time>2026-05-03T12:42:07.993Z</time></trkpt><trkpt lat="46.19515253232318" lon="9.009542853633235"><ele>225.0</ele><time>2026-05-03T12:42:08.993Z</time></trkpt><trkpt lat="46.1948890541384" lon="9.0093627307632"><ele>225.0</ele><time>2026-05-03T12:42:09.993Z</time></trkpt><trkpt lat="46.19462342002584" lon="9.009182792722314"><ele>225.0</ele><time>2026-05-03T12:42:10.993Z</time></trkpt><trkpt lat="46.19435720679104" lon="9.009005225405302"><ele>227.0</ele><time>2026-05-03T12:42:11.993Z</time></trkpt><trkpt lat="46.19409752901242" lon="9.008828217039582"><ele>229.0</ele><time>2026-05-03T12:42:12.993Z</time></trkpt><trkpt lat="46.19383524133724" lon="9.008653529900064"><ele>229.0</ele><time>2026-05-03T12:42:13.993Z</time></trkpt><trkpt lat="46.19357178053261" lon="9.00847928990114"><ele>229.0</ele><time>2026-05-03T12:42:14.993Z</time></trkpt><trkpt lat="46.19330763156051" lon="9.008304639158851"><ele>226.5</ele><time>2026-05-03T12:42:15.993Z</time></trkpt><trkpt lat="46.19304201718685" lon="9.008131266467156"><ele>224.0</ele><time>2026-05-03T12:42:16.993Z</time></trkpt><trkpt lat="46.19278057913991" lon="9.00795616377005"><ele>224.0</ele><time>2026-05-03T12:42:17.993Z</time></trkpt><trkpt lat="46.192518353372684" lon="9.007781304392426"><ele>224.0</ele><time>2026-05-03T12:42:18.993Z</time></trkpt><trkpt lat="46.19225450222312" lon="9.007608748665819"><ele>225.0</ele><time>2026-05-03T12:42:19.993Z</time></trkpt><trkpt lat="46.19199616391163" lon="9.007432524498684"><ele>226.0</ele><time>2026-05-03T12:42:20.993Z</time></trkpt><trkpt lat="46.1917349512271" lon="9.007262791502962"><ele>224.5</ele><time>2026-05-03T12:42:21.993Z</time></trkpt><trkpt lat="46.19147454983233" lon="9.00709677386983"><ele>223.0</ele><time>2026-05-03T12:42:22.993Z</time></trkpt><trkpt lat="46.19121459162096" lon="9.006936509479916"><ele>223.0</ele><time>2026-05-03T12:42:23.993Z</time></trkpt><trkpt lat="46.1909551029289" lon="9.006769902092726"><ele>223.0</ele><time>2026-05-03T12:42:24.994Z</time></trkpt><trkpt lat="46.19069611720401" lon="9.006598797114473"><ele>224.0</ele><time>2026-05-03T12:42:25.994Z</time></trkpt><trkpt lat="46.19043352021522" lon="9.006426620908424"><ele>225.0</ele><time>2026-05-03T12:42:26.994Z</time></trkpt><trkpt lat="46.19017075075304" lon="9.00626126036804"><ele>225.0</ele><time>2026-05-03T12:42:27.994Z</time></trkpt><trkpt lat="46.18990830818446" lon="9.006095104311377"><ele>225.0</ele><time>2026-05-03T12:42:28.994Z</time></trkpt><trkpt lat="46.189644224488845" lon="9.005931729180904"><ele>225.0</ele><time>2026-05-03T12:42:29.994Z</time></trkpt><trkpt lat="46.18937969621616" lon="9.00576310893607"><ele>225.0</ele><time>2026-05-03T12:42:30.994Z</time></trkpt><trkpt lat="46.18911089981786" lon="9.005593110144922"><ele>224.5</ele><time>2026-05-03T12:42:31.994Z</time></trkpt><trkpt lat="46.18884780215493" lon="9.005421875133699"><ele>224.0</ele><time>2026-05-03T12:42:32.994Z</time></trkpt><trkpt lat="46.18857780531077" lon="9.005244744566095"><ele>224.0</ele><time>2026-05-03T12:42:33.994Z</time></trkpt><trkpt lat="46.18830740486224" lon="9.005070920394582"><ele>224.0</ele><time>2026-05-03T12:42:34.994Z</time></trkpt><trkpt lat="46.18803626587163" lon="9.004898483267585"><ele>223.0</ele><time>2026-05-03T12:42:35.993Z</time></trkpt><trkpt lat="46.187767046395486" lon="9.004729241075822"><ele>222.0</ele><time>2026-05-03T12:42:36.992Z</time></trkpt><trkpt lat="46.187495262130014" lon="9.004564056388421"><ele>224.0</ele><time>2026-05-03T12:42:37.992Z</time></trkpt><trkpt lat="46.18722775752319" lon="9.004395768014572"><ele>226.0</ele><time>2026-05-03T12:42:38.991Z</time></trkpt><trkpt lat="46.18695814311409" lon="9.004227918700495"><ele>226.5</ele><time>2026-05-03T12:42:39.991Z</time></trkpt><trkpt lat="46.18668663123345" lon="9.004059780962049"><ele>227.0</ele><time>2026-05-03T12:42:40.99Z</time></trkpt><trkpt lat="46.18641540039179" lon="9.003894953712923"><ele>227.5</ele><time>2026-05-03T12:42:41.99Z</time></trkpt><trkpt lat="46.186140310335226" lon="9.003725051401958"><ele>228.0</ele><time>2026-05-03T12:42:42.989Z</time></trkpt><trkpt lat="46.18586862832902" lon="9.003559285978444"><ele>228.0</ele><time>2026-05-03T12:42:43.989Z</time></trkpt><trkpt lat="46.185594523823866" lon="9.003390005823343"><ele>228.0</ele><time>2026-05-03T12:42:44.988Z</time></trkpt><trkpt lat="46.18532172947675" lon="9.003218504214267"><ele>228.5</ele><time>2026-05-03T12:42:45.988Z</time></trkpt><trkpt lat="46.18505065448838" lon="9.003037583032153"><ele>229.0</ele><time>2026-05-03T12:42:46.988Z</time></trkpt><trkpt lat="46.18477865621029" lon="9.002849014522404"><ele>229.0</ele><time>2026-05-03T12:42:47.987Z</time></trkpt><trkpt lat="46.18450556360514" lon="9.002661447936863"><ele>229.0</ele><time>2026-05-03T12:42:48.987Z</time></trkpt><trkpt lat="46.18422848324034" lon="9.002475109537011"><ele>229.0</ele><time>2026-05-03T12:42:49.987Z</time></trkpt><trkpt lat="46.18395435762665" lon="9.002277341429975"><ele>229.0</ele><time>2026-05-03T12:42:50.987Z</time></trkpt><trkpt lat="46.183683030919745" lon="9.002076396349636"><ele>229.0</ele><time>2026-05-03T12:42:51.986Z</time></trkpt><trkpt lat="46.18341659207158" lon="9.001870905803916"><ele>229.0</ele><time>2026-05-03T12:42:52.986Z</time></trkpt><trkpt lat="46.183157843037435" lon="9.001665958544358"><ele>230.0</ele><time>2026-05-03T12:42:53.986Z</time></trkpt><trkpt lat="46.18289761353302" lon="9.001463682439478"><ele>231.0</ele><time>2026-05-03T12:42:54.986Z</time></trkpt><trkpt lat="46.182635407823796" lon="9.0012564832233"><ele>231.0</ele><time>2026-05-03T12:42:55.986Z</time></trkpt><trkpt lat="46.18237332006895" lon="9.001043042563424"><ele>231.0</ele><time>2026-05-03T12:42:56.985Z</time></trkpt><trkpt lat="46.18211553751556" lon="9.00082200962847"><ele>229.5</ele><time>2026-05-03T12:42:57.985Z</time></trkpt><trkpt lat="46.181857648075066" lon="9.000597277743799"><ele>228.0</ele><time>2026-05-03T12:42:58.985Z</time></trkpt><trkpt lat="46.181597278837295" lon="9.000367332886867"><ele>226.5</ele><time>2026-05-03T12:42:59.985Z</time></trkpt><trkpt lat="46.1813427042643" lon="9.000136385797017"><ele>225.0</ele><time>2026-05-03T12:43:00.985Z</time></trkpt><trkpt lat="46.18108788281474" lon="8.99990217288698"><ele>225.0</ele><time>2026-05-03T12:43:01.985Z</time></trkpt><trkpt lat="46.18083021953357" lon="8.999665139919935"><ele>225.0</ele><time>2026-05-03T12:43:02.985Z</time></trkpt><trkpt lat="46.18057830397267" lon="8.999420291191138"><ele>224.5</ele><time>2026-05-03T12:43:03.984Z</time></trkpt><trkpt lat="46.18032604289426" lon="8.999178021138052"><ele>224.0</ele><time>2026-05-03T12:43:04.984Z</time></trkpt><trkpt lat="46.1800761254223" lon="8.998930985752876"><ele>222.5</ele><time>2026-05-03T12:43:05.984Z</time></trkpt><trkpt lat="46.17983021643341" lon="8.998678384361515"><ele>221.0</ele><time>2026-05-03T12:43:06.984Z</time></trkpt><trkpt lat="46.17958700162646" lon="8.998422872470567"><ele>222.0</ele><time>2026-05-03T12:43:07.984Z</time></trkpt><trkpt lat="46.17934524974759" lon="8.99816819481698"><ele>223.0</ele><time>2026-05-03T12:43:08.984Z</time></trkpt><trkpt lat="46.17910027354357" lon="8.997915599696238"><ele>223.0</ele><time>2026-05-03T12:43:09.984Z</time></trkpt><trkpt lat="46.17885729010899" lon="8.99766323940456"><ele>223.0</ele><time>2026-05-03T12:43:10.984Z</time></trkpt><trkpt lat="46.178617920632966" lon="8.997404101083186"><ele>223.0</ele><time>2026-05-03T12:43:11.984Z</time></trkpt><trkpt lat="46.1783798489873" lon="8.997146672472871"><ele>223.0</ele><time>2026-05-03T12:43:12.984Z</time></trkpt><trkpt lat="46.17814151302254" lon="8.996890866787552"><ele>224.5</ele><time>2026-05-03T12:43:13.984Z</time></trkpt><trkpt lat="46.177905850457414" lon="8.996639579301942"><ele>226.0</ele><time>2026-05-03T12:43:14.984Z</time></trkpt><trkpt lat="46.177669878342165" lon="8.996385369278677"><ele>226.0</ele><time>2026-05-03T12:43:15.984Z</time></trkpt><trkpt lat="46.1774326207756" lon="8.996140092977306"><ele>226.0</ele><time>2026-05-03T12:43:16.984Z</time></trkpt><trkpt lat="46.1771991221598" lon="8.995888200679817"><ele>225.0</ele><time>2026-05-03T12:43:17.984Z</time></trkpt><trkpt lat="46.17696104196458" lon="8.995643034238572"><ele>224.0</ele><time>2026-05-03T12:43:18.984Z</time></trkpt><trkpt lat="46.17672032395827" lon="8.995400918634447"><ele>222.5</ele><time>2026-05-03T12:43:19.984Z</time></trkpt><trkpt lat="46.17647492774492" lon="8.99515785777371"><ele>221.0</ele><time>2026-05-03T12:43:20.984Z</time></trkpt><trkpt lat="46.1762295915515" lon="8.994916360549816"><ele>220.5</ele><time>2026-05-03T12:43:21.984Z</time></trkpt><trkpt lat="46.175979667264656" lon="8.99467639612328"><ele>220.0</ele><time>2026-05-03T12:43:22.984Z</time></trkpt><trkpt lat="46.17572533171646" lon="8.994438590425808"><ele>219.5</ele><time>2026-05-03T12:43:23.984Z</time></trkpt><trkpt lat="46.175471364239144" lon="8.994202368734346"><ele>219.0</ele><time>2026-05-03T12:43:24.984Z</time></trkpt><trkpt lat="46.17521189706227" lon="8.993985545554008"><ele>219.0</ele><time>2026-05-03T12:43:25.984Z</time></trkpt><trkpt lat="46.17495231231378" lon="8.993765599796278"><ele>219.0</ele><time>2026-05-03T12:43:26.984Z</time></trkpt><trkpt lat="46.17469100333526" lon="8.993542956389872"><ele>219.5</ele><time>2026-05-03T12:43:27.984Z</time></trkpt><trkpt lat="46.17443418383897" lon="8.99333632097233"><ele>220.0</ele><time>2026-05-03T12:43:28.984Z</time></trkpt><trkpt lat="46.17416646699122" lon="8.993145515926846"><ele>220.0</ele><time>2026-05-03T12:43:29.981Z</time></trkpt><trkpt lat="46.17390612551026" lon="8.992954576829968"><ele>220.0</ele><time>2026-05-03T12:43:30.982Z</time></trkpt><trkpt lat="46.17364457935399" lon="8.99277159617715"><ele>220.0</ele><time>2026-05-03T12:43:31.982Z</time></trkpt><trkpt lat="46.17338142680075" lon="8.992598403227497"><ele>220.0</ele><time>2026-05-03T12:43:32.981Z</time></trkpt><trkpt lat="46.17311731403517" lon="8.992432872715758"><ele>218.5</ele><time>2026-05-03T12:43:33.981Z</time></trkpt><trkpt lat="46.172855230289656" lon="8.99227514931143"><ele>217.0</ele><time>2026-05-03T12:43:34.981Z</time></trkpt><trkpt lat="46.172586846551425" lon="8.992121285605146"><ele>217.5</ele><time>2026-05-03T12:43:35.982Z</time></trkpt><trkpt lat="46.17231996337105" lon="8.991971587202793"><ele>218.0</ele><time>2026-05-03T12:43:36.981Z</time></trkpt><trkpt lat="46.17204788673679" lon="8.991830718862223"><ele>218.0</ele><time>2026-05-03T12:43:37.981Z</time></trkpt><trkpt lat="46.17177392446296" lon="8.991696479228558"><ele>218.0</ele><time>2026-05-03T12:43:38.981Z</time></trkpt><trkpt lat="46.17150222993352" lon="8.991564496204393"><ele>219.0</ele><time>2026-05-03T12:43:39.981Z</time></trkpt><trkpt lat="46.1712305904394" lon="8.991448125426091"><ele>220.0</ele><time>2026-05-03T12:43:40.981Z</time></trkpt><trkpt lat="46.170963174341765" lon="8.991345030229663"><ele>220.0</ele><time>2026-05-03T12:43:41.982Z</time></trkpt><trkpt lat="46.17069412847517" lon="8.991242193344158"><ele>220.0</ele><time>2026-05-03T12:43:42.981Z</time></trkpt><trkpt lat="46.1704288925906" lon="8.991142490985135"><ele>220.0</ele><time>2026-05-03T12:43:43.981Z</time></trkpt><trkpt lat="46.17015347694242" lon="8.991049961897183"><ele>220.0</ele><time>2026-05-03T12:43:44.981Z</time></trkpt><trkpt lat="46.16987593191132" lon="8.990973423635934"><ele>219.0</ele><time>2026-05-03T12:43:45.981Z</time></trkpt><trkpt lat="46.16959038848696" lon="8.990901959576643"><ele>218.0</ele><time>2026-05-03T12:43:46.981Z</time></trkpt><trkpt lat="46.169300681013084" lon="8.990829513738989"><ele>220.0</ele><time>2026-05-03T12:43:47.981Z</time></trkpt><trkpt lat="46.16901283676859" lon="8.990758527027264"><ele>222.0</ele><time>2026-05-03T12:43:48.981Z</time></trkpt><trkpt lat="46.16872281213034" lon="8.990695809332127"><ele>222.0</ele><time>2026-05-03T12:43:49.981Z</time></trkpt><trkpt lat="46.16843533808905" lon="8.990638511188608"><ele>222.0</ele><time>2026-05-03T12:43:50.981Z</time></trkpt><trkpt lat="46.16814767107345" lon="8.990588197272244"><ele>220.0</ele><time>2026-05-03T12:43:51.981Z</time></trkpt><trkpt lat="46.167861613674155" lon="8.990537622106185"><ele>218.0</ele><time>2026-05-03T12:43:52.981Z</time></trkpt><trkpt lat="46.16757420077107" lon="8.990508651885769"><ele>219.5</ele><time>2026-05-03T12:43:53.981Z</time></trkpt><trkpt lat="46.167290568157654" lon="8.99047977148298"><ele>221.0</ele><time>2026-05-03T12:43:54.981Z</time></trkpt><trkpt lat="46.16700348574484" lon="8.990459967841065"><ele>221.0</ele><time>2026-05-03T12:43:55.981Z</time></trkpt><trkpt lat="46.166721407177434" lon="8.990444651396583"><ele>221.0</ele><time>2026-05-03T12:43:56.981Z</time></trkpt><trkpt lat="46.16643612194526" lon="8.990433811494038"><ele>220.5</ele><time>2026-05-03T12:43:57.981Z</time></trkpt><trkpt lat="46.16615057388463" lon="8.99042989207807"><ele>220.0</ele><time>2026-05-03T12:43:58.981Z</time></trkpt><trkpt lat="46.16586061397957" lon="8.990429807279902"><ele>220.0</ele><time>2026-05-03T12:43:59.981Z</time></trkpt><trkpt lat="46.16556951675365" lon="8.990444201064983"><ele>220.0</ele><time>2026-05-03T12:44:00.981Z</time></trkpt><trkpt lat="46.16528014567477" lon="8.990465120397689"><ele>220.0</ele><time>2026-05-03T12:44:01.981Z</time></trkpt><trkpt lat="46.16499504240673" lon="8.990486859144932"><ele>220.0</ele><time>2026-05-03T12:44:02.981Z</time></trkpt><trkpt lat="46.16470521322052" lon="8.990523354921846"><ele>220.0</ele><time>2026-05-03T12:44:03.981Z</time></trkpt><trkpt lat="46.16441728448936" lon="8.9905630147045"><ele>220.0</ele><time>2026-05-03T12:44:04.981Z</time></trkpt><trkpt lat="46.16412657383276" lon="8.990607684910527"><ele>220.0</ele><time>2026-05-03T12:44:05.981Z</time></trkpt><trkpt lat="46.16383584019333" lon="8.990657093973795"><ele>220.0</ele><time>2026-05-03T12:44:06.981Z</time></trkpt><trkpt lat="46.16354416304295" lon="8.990709967291094"><ele>220.0</ele><time>2026-05-03T12:44:07.981Z</time></trkpt><trkpt lat="46.16325131544631" lon="8.990767992826765"><ele>220.0</ele><time>2026-05-03T12:44:08.981Z</time></trkpt><trkpt lat="46.16295830228635" lon="8.990824692891946"><ele>218.5</ele><time>2026-05-03T12:44:09.981Z</time></trkpt><trkpt lat="46.162668271218244" lon="8.990882094201323"><ele>217.0</ele><time>2026-05-03T12:44:10.981Z</time></trkpt><trkpt lat="46.162379945703485" lon="8.990945470666274"><ele>217.5</ele><time>2026-05-03T12:44:11.981Z</time></trkpt><trkpt lat="46.16209752619683" lon="8.990999909455804"><ele>218.0</ele><time>2026-05-03T12:44:12.981Z</time></trkpt><trkpt lat="46.16181351407646" lon="8.991054465753244"><ele>218.0</ele><time>2026-05-03T12:44:13.981Z</time></trkpt><trkpt lat="46.16152935183655" lon="8.99110160987584"><ele>218.0</ele><time>2026-05-03T12:44:14.981Z</time></trkpt><trkpt lat="46.161245420752905" lon="8.991129781044767"><ele>218.0</ele><time>2026-05-03T12:44:15.981Z</time></trkpt><trkpt lat="46.1609577316754" lon="8.991147041380884"><ele>218.0</ele><time>2026-05-03T12:44:16.981Z</time></trkpt><trkpt lat="46.16066998406641" lon="8.991151234763173"><ele>219.0</ele><time>2026-05-03T12:44:17.981Z</time></trkpt><trkpt lat="46.16038500105325" lon="8.991127347000608"><ele>220.0</ele><time>2026-05-03T12:44:18.981Z</time></trkpt><trkpt lat="46.16009991574354" lon="8.991084174691998"><ele>220.5</ele><time>2026-05-03T12:44:19.981Z</time></trkpt><trkpt lat="46.15981461029521" lon="8.991013067532391"><ele>221.0</ele><time>2026-05-03T12:44:20.981Z</time></trkpt><trkpt lat="46.15953547081759" lon="8.990910584563077"><ele>221.0</ele><time>2026-05-03T12:44:21.982Z</time></trkpt><trkpt lat="46.159253613020844" lon="8.99079341062"><ele>221.0</ele><time>2026-05-03T12:44:22.982Z</time></trkpt><trkpt lat="46.15897450135002" lon="8.990656233941463"><ele>224.0</ele><time>2026-05-03T12:44:23.982Z</time></trkpt><trkpt lat="46.15870889932106" lon="8.990483521749738"><ele>227.0</ele><time>2026-05-03T12:44:24.982Z</time></trkpt><trkpt lat="46.158443667334936" lon="8.99029919127572"><ele>228.5</ele><time>2026-05-03T12:44:25.982Z</time></trkpt><trkpt lat="46.15818709551695" lon="8.990091186959065"><ele>230.0</ele><time>2026-05-03T12:44:26.982Z</time></trkpt><trkpt lat="46.15793558140081" lon="8.989860993697807"><ele>230.0</ele><time>2026-05-03T12:44:27.982Z</time></trkpt><trkpt lat="46.15769821751071" lon="8.98960715274174"><ele>230.0</ele><time>2026-05-03T12:44:28.982Z</time></trkpt><trkpt lat="46.15746421809442" lon="8.989342330510407"><ele>236.0</ele><time>2026-05-03T12:44:29.982Z</time></trkpt><trkpt lat="46.157254680583186" lon="8.989040167257253"><ele>242.0</ele><time>2026-05-03T12:44:30.982Z</time></trkpt><trkpt lat="46.15703833933658" lon="8.988719526517256"><ele>242.0</ele><time>2026-05-03T12:44:31.982Z</time></trkpt><trkpt lat="46.15684244456533" lon="8.988379482424316"><ele>242.0</ele><time>2026-05-03T12:44:32.982Z</time></trkpt><trkpt lat="46.15666565617665" lon="8.988042408091717"><ele>254.5</ele><time>2026-05-03T12:44:33.982Z</time></trkpt><trkpt lat="46.1565009474482" lon="8.987696875785627"><ele>267.0</ele><time>2026-05-03T12:44:34.982Z</time></trkpt><trkpt lat="46.156335871107046" lon="8.987345895841663"><ele>267.0</ele><time>2026-05-03T12:44:35.982Z</time></trkpt><trkpt lat="46.156169806108906" lon="8.98699573070735"><ele>267.0</ele><time>2026-05-03T12:44:36.982Z</time></trkpt><trkpt lat="46.1559980843425" lon="8.986648950436383"><ele>274.0</ele><time>2026-05-03T12:44:37.982Z</time></trkpt><trkpt lat="46.155823114588486" lon="8.986311663914755"><ele>281.0</ele><time>2026-05-03T12:44:38.982Z</time></trkpt><trkpt lat="46.15564662058862" lon="8.985978252580326"><ele>271.5</ele><time>2026-05-03T12:44:39.982Z</time></trkpt><trkpt lat="46.15546477720322" lon="8.985650115767884"><ele>262.0</ele><time>2026-05-03T12:44:40.982Z</time></trkpt><trkpt lat="46.15528416060338" lon="8.985329759866033"><ele>262.0</ele><time>2026-05-03T12:44:41.982Z</time></trkpt><trkpt lat="46.15509081547427" lon="8.98501516962345"><ele>262.0</ele><time>2026-05-03T12:44:42.982Z</time></trkpt><trkpt lat="46.15489570481535" lon="8.984698824564454"><ele>263.5</ele><time>2026-05-03T12:44:43.982Z</time></trkpt><trkpt lat="46.15470054109935" lon="8.984390291303992"><ele>265.0</ele><time>2026-05-03T12:44:44.982Z</time></trkpt><trkpt lat="46.15449242211988" lon="8.984094049754669"><ele>265.0</ele><time>2026-05-03T12:44:45.982Z</time></trkpt><trkpt lat="46.154284327987114" lon="8.98379300697438"><ele>265.0</ele><time>2026-05-03T12:44:46.982Z</time></trkpt><trkpt lat="46.15407225250097" lon="8.983513975227323"><ele>267.5</ele><time>2026-05-03T12:44:47.982Z</time></trkpt><trkpt lat="46.153851356554014" lon="8.983230679570532"><ele>270.0</ele><time>2026-05-03T12:44:48.982Z</time></trkpt><trkpt lat="46.15362986368659" lon="8.982951989288752"><ele>270.0</ele><time>2026-05-03T12:44:49.982Z</time></trkpt><trkpt lat="46.1534104745254" lon="8.982681213181026"><ele>270.0</ele><time>2026-05-03T12:44:50.982Z</time></trkpt><trkpt lat="46.15317976396391" lon="8.982405412838173"><ele>274.0</ele><time>2026-05-03T12:44:51.982Z</time></trkpt><trkpt lat="46.152949199946896" lon="8.98213108188542"><ele>278.0</ele><time>2026-05-03T12:44:52.982Z</time></trkpt><trkpt lat="46.152725024691044" lon="8.981862169735281"><ele>274.0</ele><time>2026-05-03T12:44:53.982Z</time></trkpt><trkpt lat="46.1525007274021" lon="8.981579042651983"><ele>270.0</ele><time>2026-05-03T12:44:54.982Z</time></trkpt><trkpt lat="46.15227955011949" lon="8.981284146244997"><ele>274.0</ele><time>2026-05-03T12:44:55.982Z</time></trkpt><trkpt lat="46.15206453702697" lon="8.980981529635804"><ele>278.0</ele><time>2026-05-03T12:44:56.982Z</time></trkpt><trkpt lat="46.151862040228984" lon="8.98066480032628"><ele>278.0</ele><time>2026-05-03T12:44:57.982Z</time></trkpt><trkpt lat="46.15166756403694" lon="8.980337572114932"><ele>278.0</ele><time>2026-05-03T12:44:58.982Z</time></trkpt><trkpt lat="46.15148402756063" lon="8.980004662724014"><ele>288.0</ele><time>2026-05-03T12:44:59.982Z</time></trkpt><trkpt lat="46.151309269062104" lon="8.979655753749773"><ele>298.0</ele><time>2026-05-03T12:45:00.982Z</time></trkpt><trkpt lat="46.151154500474874" lon="8.979288068489069"><ele>293.5</ele><time>2026-05-03T12:45:01.982Z</time></trkpt><trkpt lat="46.15101280134226" lon="8.97891347094407"><ele>289.0</ele><time>2026-05-03T12:45:02.982Z</time></trkpt><trkpt lat="46.150881328188234" lon="8.978533977202218"><ele>285.5</ele><time>2026-05-03T12:45:03.982Z</time></trkpt><trkpt lat="46.150760862831966" lon="8.97814907075403"><ele>282.0</ele><time>2026-05-03T12:45:04.982Z</time></trkpt><trkpt lat="46.15065296833557" lon="8.977758735691852"><ele>302.0</ele><time>2026-05-03T12:45:05.982Z</time></trkpt><trkpt lat="46.150555272974294" lon="8.977362134622659"><ele>322.0</ele><time>2026-05-03T12:45:06.982Z</time></trkpt><trkpt lat="46.15047104685594" lon="8.976958132880261"><ele>320.0</ele><time>2026-05-03T12:45:07.982Z</time></trkpt><trkpt lat="46.15040909734564" lon="8.976548855242989"><ele>318.0</ele><time>2026-05-03T12:45:08.982Z</time></trkpt><trkpt lat="46.15035865764045" lon="8.976142991790182"><ele>314.0</ele><time>2026-05-03T12:45:09.982Z</time></trkpt><trkpt lat="46.15031628779786" lon="8.9757267678549"><ele>310.0</ele><time>2026-05-03T12:45:10.982Z</time></trkpt><trkpt lat="46.15028719728017" lon="8.97530903469324"><ele>306.0</ele><time>2026-05-03T12:45:11.982Z</time></trkpt><trkpt lat="46.15027727578137" lon="8.974885223887922"><ele>302.0</ele><time>2026-05-03T12:45:12.982Z</time></trkpt><trkpt lat="46.150280469071014" lon="8.974468336490347"><ele>303.5</ele><time>2026-05-03T12:45:13.983Z</time></trkpt><trkpt lat="46.150303371982254" lon="8.974045026478102"><ele>305.0</ele><time>2026-05-03T12:45:14.983Z</time></trkpt><trkpt lat="46.150330512007514" lon="8.973624448117473"><ele>309.0</ele><time>2026-05-03T12:45:15.983Z</time></trkpt><trkpt lat="46.15038514244913" lon="8.973206211900413"><ele>313.0</ele><time>2026-05-03T12:45:16.983Z</time></trkpt><trkpt lat="46.15043920461446" lon="8.97278981968774"><ele>320.0</ele><time>2026-05-03T12:45:17.983Z</time></trkpt><trkpt lat="46.150508060299195" lon="8.972360697576423"><ele>327.0</ele><time>2026-05-03T12:45:18.983Z</time></trkpt><trkpt lat="46.15057093046615" lon="8.97193583549497"><ele>335.5</ele><time>2026-05-03T12:45:19.983Z</time></trkpt><trkpt lat="46.150643926349424" lon="8.971509654513401"><ele>344.0</ele><time>2026-05-03T12:45:20.983Z</time></trkpt><trkpt lat="46.150725259948416" lon="8.971080629979857"><ele>325.0</ele><time>2026-05-03T12:45:21.983Z</time></trkpt><trkpt lat="46.150801458040206" lon="8.970651940130809"><ele>306.0</ele><time>2026-05-03T12:45:22.983Z</time></trkpt><trkpt lat="46.150861655891816" lon="8.970222629363196"><ele>308.0</ele><time>2026-05-03T12:45:23.983Z</time></trkpt><trkpt lat="46.15090710733441" lon="8.969790864383285"><ele>310.0</ele><time>2026-05-03T12:45:24.983Z</time></trkpt><trkpt lat="46.15093235351905" lon="8.969362686584073"><ele>313.5</ele><time>2026-05-03T12:45:25.983Z</time></trkpt><trkpt lat="46.15094706662612" lon="8.96893070072083"><ele>317.0</ele><time>2026-05-03T12:45:26.983Z</time></trkpt><trkpt lat="46.150943257676126" lon="8.96850286862313"><ele>317.5</ele><time>2026-05-03T12:45:27.983Z</time></trkpt><trkpt lat="46.15093103190462" lon="8.968070691733633"><ele>318.0</ele><time>2026-05-03T12:45:28.983Z</time></trkpt><trkpt lat="46.15090296562736" lon="8.967643147268594"><ele>316.5</ele><time>2026-05-03T12:45:29.983Z</time></trkpt><trkpt lat="46.150871653984844" lon="8.967214801245083"><ele>315.0</ele><time>2026-05-03T12:45:30.983Z</time></trkpt><trkpt lat="46.15083884662379" lon="8.966787258306814"><ele>314.0</ele><time>2026-05-03T12:45:31.983Z</time></trkpt><trkpt lat="46.150806117660025" lon="8.966362198597674"><ele>313.0</ele><time>2026-05-03T12:45:32.983Z</time></trkpt><trkpt lat="46.150768800411626" lon="8.965928342572768"><ele>311.0</ele><time>2026-05-03T12:45:33.983Z</time></trkpt><trkpt lat="46.15072432360738" lon="8.965500935763894"><ele>309.0</ele><time>2026-05-03T12:45:34.983Z</time></trkpt><trkpt lat="46.15067331239243" lon="8.965075481126295"><ele>333.5</ele><time>2026-05-03T12:45:35.981Z</time></trkpt><trkpt lat="46.150617319722414" lon="8.964647151116631"><ele>358.0</ele><time>2026-05-03T12:45:36.981Z</time></trkpt><trkpt lat="46.15055567850407" lon="8.96422109194748"><ele>353.0</ele><time>2026-05-03T12:45:37.981Z</time></trkpt><trkpt lat="46.15049312884791" lon="8.96379394010641"><ele>348.0</ele><time>2026-05-03T12:45:38.982Z</time></trkpt><trkpt lat="46.15042093176657" lon="8.963374923096403"><ele>344.5</ele><time>2026-05-03T12:45:39.98Z</time></trkpt><trkpt lat="46.15034834982521" lon="8.962955506225073"><ele>341.0</ele><time>2026-05-03T12:45:40.981Z</time></trkpt><trkpt lat="46.15027237064031" lon="8.962536790380952"><ele>341.5</ele><time>2026-05-03T12:45:41.981Z</time></trkpt><trkpt lat="46.15018731822394" lon="8.96212681783063"><ele>342.0</ele><time>2026-05-03T12:45:42.981Z</time></trkpt><trkpt lat="46.15009535127578" lon="8.961716909710939"><ele>342.0</ele><time>2026-05-03T12:45:43.981Z</time></trkpt><trkpt lat="46.149983692536665" lon="8.961320269200195"><ele>342.0</ele><time>2026-05-03T12:45:44.981Z</time></trkpt><trkpt lat="46.14985789389467" lon="8.96093131479178"><ele>355.5</ele><time>2026-05-03T12:45:45.981Z</time></trkpt><trkpt lat="46.14971213347032" lon="8.960553859113576"><ele>369.0</ele><time>2026-05-03T12:45:46.981Z</time></trkpt><trkpt lat="46.14955257550624" lon="8.960189129308722"><ele>362.5</ele><time>2026-05-03T12:45:47.982Z</time></trkpt><trkpt lat="46.14938004534105" lon="8.95984172315777"><ele>356.0</ele><time>2026-05-03T12:45:48.981Z</time></trkpt><trkpt lat="46.14918980346127" lon="8.959511674063636"><ele>358.0</ele><time>2026-05-03T12:45:49.981Z</time></trkpt><trkpt lat="46.148988644787224" lon="8.95919826109805"><ele>360.0</ele><time>2026-05-03T12:45:50.981Z</time></trkpt><trkpt lat="46.14877631064492" lon="8.958898781813083"><ele>360.0</ele><time>2026-05-03T12:45:51.981Z</time></trkpt><trkpt lat="46.14854820979437" lon="8.95861276850145"><ele>360.0</ele><time>2026-05-03T12:45:52.981Z</time></trkpt><trkpt lat="46.14830979161124" lon="8.958347175430191"><ele>364.0</ele><time>2026-05-03T12:45:53.981Z</time></trkpt><trkpt lat="46.14806548823234" lon="8.958098943058022"><ele>368.0</ele><time>2026-05-03T12:45:54.981Z</time></trkpt><trkpt lat="46.1478167238276" lon="8.957853489561044"><ele>368.0</ele><time>2026-05-03T12:45:55.981Z</time></trkpt><trkpt lat="46.14757159816776" lon="8.957595512053757"><ele>368.0</ele><time>2026-05-03T12:45:56.981Z</time></trkpt><trkpt lat="46.14732715464762" lon="8.957335870159863"><ele>371.0</ele><time>2026-05-03T12:45:57.981Z</time></trkpt><trkpt lat="46.147087579532574" lon="8.957066893365022"><ele>374.0</ele><time>2026-05-03T12:45:58.981Z</time></trkpt><trkpt lat="46.14685938689818" lon="8.956782562674224"><ele>367.0</ele><time>2026-05-03T12:45:59.981Z</time></trkpt><trkpt lat="46.146642880509205" lon="8.956486186527856"><ele>360.0</ele><time>2026-05-03T12:46:00.981Z</time></trkpt><trkpt lat="46.1464297177129" lon="8.95617893245489"><ele>357.5</ele><time>2026-05-03T12:46:01.981Z</time></trkpt><trkpt lat="46.14622848097364" lon="8.955862364811846"><ele>355.0</ele><time>2026-05-03T12:46:02.981Z</time></trkpt><trkpt lat="46.14602856708748" lon="8.95552330259772"><ele>355.0</ele><time>2026-05-03T12:46:03.981Z</time></trkpt><trkpt lat="46.145843961358466" lon="8.955179301287739"><ele>355.0</ele><time>2026-05-03T12:46:04.981Z</time></trkpt><trkpt lat="46.14566704855516" lon="8.954821636736563"><ele>378.0</ele><time>2026-05-03T12:46:05.981Z</time></trkpt><trkpt lat="46.145501817216356" lon="8.954460258301797"><ele>401.0</ele><time>2026-05-03T12:46:06.981Z</time></trkpt><trkpt lat="46.14534997761141" lon="8.954084221967644"><ele>401.0</ele><time>2026-05-03T12:46:07.981Z</time></trkpt><trkpt lat="46.14520969594896" lon="8.953699704766791"><ele>401.0</ele><time>2026-05-03T12:46:08.981Z</time></trkpt><trkpt lat="46.14508647677945" lon="8.953300902039967"><ele>392.5</ele><time>2026-05-03T12:46:09.982Z</time></trkpt><trkpt lat="46.14494924492601" lon="8.95290806471005"><ele>384.0</ele><time>2026-05-03T12:46:10.982Z</time></trkpt><trkpt lat="46.14483208153864" lon="8.952493422656632"><ele>391.5</ele><time>2026-05-03T12:46:11.982Z</time></trkpt><trkpt lat="46.144731752510964" lon="8.952076460611115"><ele>399.0</ele><time>2026-05-03T12:46:12.982Z</time></trkpt><trkpt lat="46.14464487178326" lon="8.951658285258008"><ele>399.0</ele><time>2026-05-03T12:46:13.982Z</time></trkpt><trkpt lat="46.14457517755213" lon="8.951226475201432"><ele>399.0</ele><time>2026-05-03T12:46:14.982Z</time></trkpt><trkpt lat="46.144519814451705" lon="8.95078697238178"><ele>393.5</ele><time>2026-05-03T12:46:15.982Z</time></trkpt><trkpt lat="46.14447514638723" lon="8.950345592795307"><ele>388.0</ele><time>2026-05-03T12:46:16.982Z</time></trkpt><trkpt lat="46.14443909736111" lon="8.949907022293516"><ele>385.5</ele><time>2026-05-03T12:46:17.982Z</time></trkpt><trkpt lat="46.14441461255768" lon="8.949467266801866"><ele>383.0</ele><time>2026-05-03T12:46:18.982Z</time></trkpt><trkpt lat="46.14440288058468" lon="8.949022733561932"><ele>383.0</ele><time>2026-05-03T12:46:19.982Z</time></trkpt><trkpt lat="46.144402330750516" lon="8.948578693470958"><ele>383.0</ele><time>2026-05-03T12:46:20.982Z</time></trkpt><trkpt lat="46.144421758814474" lon="8.948145652095624"><ele>391.5</ele><time>2026-05-03T12:46:21.982Z</time></trkpt><trkpt lat="46.14446511218154" lon="8.94771613048014"><ele>400.0</ele><time>2026-05-03T12:46:22.982Z</time></trkpt><trkpt lat="46.14452139161536" lon="8.947285373387626"><ele>406.0</ele><time>2026-05-03T12:46:23.982Z</time></trkpt><trkpt lat="46.144565397439976" lon="8.946864936291384"><ele>412.0</ele><time>2026-05-03T12:46:24.982Z</time></trkpt><trkpt lat="46.14460902768251" lon="8.94645311883103"><ele>415.0</ele><time>2026-05-03T12:46:25.982Z</time></trkpt><trkpt lat="46.144656625094356" lon="8.94603997223663"><ele>418.0</ele><time>2026-05-03T12:46:26.982Z</time></trkpt><trkpt lat="46.14469881145614" lon="8.945629121202439"><ele>419.5</ele><time>2026-05-03T12:46:27.982Z</time></trkpt><trkpt lat="46.144728506396945" lon="8.94522176301933"><ele>421.0</ele><time>2026-05-03T12:46:28.982Z</time></trkpt><trkpt lat="46.14474598218727" lon="8.944810834198993"><ele>424.5</ele><time>2026-05-03T12:46:29.982Z</time></trkpt><trkpt lat="46.14474927579936" lon="8.94439887787411"><ele>428.0</ele><time>2026-05-03T12:46:30.982Z</time></trkpt><trkpt lat="46.144738939755655" lon="8.943987557786166"><ele>431.5</ele><time>2026-05-03T12:46:31.982Z</time></trkpt><trkpt lat="46.14472052756387" lon="8.94357682568107"><ele>435.0</ele><time>2026-05-03T12:46:32.982Z</time></trkpt><trkpt lat="46.144690675453084" lon="8.943160296656844"><ele>436.0</ele><time>2026-05-03T12:46:33.982Z</time></trkpt><trkpt lat="46.144647080381056" lon="8.942745797590934"><ele>437.0</ele><time>2026-05-03T12:46:34.982Z</time></trkpt><trkpt lat="46.14459984172544" lon="8.942331385837463"><ele>435.5</ele><time>2026-05-03T12:46:35.982Z</time></trkpt><trkpt lat="46.1445468169216" lon="8.94191326561613"><ele>434.0</ele><time>2026-05-03T12:46:36.982Z</time></trkpt><trkpt lat="46.144493056227404" lon="8.941491591321016"><ele>434.0</ele><time>2026-05-03T12:46:37.982Z</time></trkpt><trkpt lat="46.14443677182606" lon="8.941073321860031"><ele>434.0</ele><time>2026-05-03T12:46:38.982Z</time></trkpt><trkpt lat="46.14437721891618" lon="8.940645793813994"><ele>433.0</ele><time>2026-05-03T12:46:39.982Z</time></trkpt><trkpt lat="46.14433100321107" lon="8.940225366577602"><ele>432.0</ele><time>2026-05-03T12:46:40.982Z</time></trkpt><trkpt lat="46.144279175508245" lon="8.93979550571498"><ele>431.0</ele><time>2026-05-03T12:46:41.982Z</time></trkpt><trkpt lat="46.14422569976177" lon="8.939376789627662"><ele>430.0</ele><time>2026-05-03T12:46:42.982Z</time></trkpt><trkpt lat="46.14418101179529" lon="8.938934147458118"><ele>429.5</ele><time>2026-05-03T12:46:43.982Z</time></trkpt><trkpt lat="46.144140500254544" lon="8.938504931344116"><ele>429.0</ele><time>2026-05-03T12:46:44.982Z</time></trkpt><trkpt lat="46.14410518600476" lon="8.938070633902964"><ele>428.5</ele><time>2026-05-03T12:46:45.982Z</time></trkpt><trkpt lat="46.14407268032439" lon="8.937638884799238"><ele>428.0</ele><time>2026-05-03T12:46:46.982Z</time></trkpt><trkpt lat="46.144041906359725" lon="8.937207291824846"><ele>445.0</ele><time>2026-05-03T12:46:47.982Z</time></trkpt><trkpt lat="46.14402754225831" lon="8.936775096522759"><ele>462.0</ele><time>2026-05-03T12:46:48.982Z</time></trkpt><trkpt lat="46.14401758075997" lon="8.936346212789728"><ele>465.5</ele><time>2026-05-03T12:46:49.982Z</time></trkpt><trkpt lat="46.14400787415093" lon="8.935910943950708"><ele>469.0</ele><time>2026-05-03T12:46:50.982Z</time></trkpt><trkpt lat="46.143998358560296" lon="8.935491672297177"><ele>470.0</ele><time>2026-05-03T12:46:51.982Z</time></trkpt><trkpt lat="46.14399694438734" lon="8.935071543827696"><ele>471.0</ele><time>2026-05-03T12:46:52.982Z</time></trkpt><trkpt lat="46.14399349783078" lon="8.934673006829511"><ele>471.0</ele><time>2026-05-03T12:46:53.982Z</time></trkpt><trkpt lat="46.14400162049965" lon="8.934285650457829"><ele>471.0</ele><time>2026-05-03T12:46:54.982Z</time></trkpt><trkpt lat="46.144011324613025" lon="8.933900909916694"><ele>474.0</ele><time>2026-05-03T12:46:55.982Z</time></trkpt><trkpt lat="46.14401613869334" lon="8.933519823836622"><ele>477.0</ele><time>2026-05-03T12:46:56.982Z</time></trkpt><trkpt lat="46.14402517241789" lon="8.933140301069635"><ele>477.5</ele><time>2026-05-03T12:46:57.982Z</time></trkpt><trkpt lat="46.14402937652657" lon="8.932764420291615"><ele>478.0</ele><time>2026-05-03T12:46:58.982Z</time></trkpt><trkpt lat="46.14403081094143" lon="8.932384806406235"><ele>478.5</ele><time>2026-05-03T12:46:59.982Z</time></trkpt><trkpt lat="46.14402511517971" lon="8.932013748713718"><ele>479.0</ele><time>2026-05-03T12:47:00.983Z</time></trkpt><trkpt lat="46.144018493458894" lon="8.931635509565693"><ele>479.0</ele><time>2026-05-03T12:47:01.983Z</time></trkpt><trkpt lat="46.144005980339806" lon="8.931259757978058"><ele>479.0</ele><time>2026-05-03T12:47:02.983Z</time></trkpt><trkpt lat="46.14398409358516" lon="8.930881087647247"><ele>479.0</ele><time>2026-05-03T12:47:03.983Z</time></trkpt><trkpt lat="46.14394959307377" lon="8.930503176905301"><ele>479.0</ele><time>2026-05-03T12:47:04.983Z</time></trkpt><trkpt lat="46.14390552117563" lon="8.930139860648575"><ele>479.0</ele><time>2026-05-03T12:47:05.983Z</time></trkpt><trkpt lat="46.14384801115041" lon="8.929799409099392"><ele>479.0</ele><time>2026-05-03T12:47:06.983Z</time></trkpt><trkpt lat="46.143785005821" lon="8.929485651032165"><ele>478.0</ele><time>2026-05-03T12:47:07.983Z</time></trkpt><trkpt lat="46.14371165199636" lon="8.92918008764899"><ele>477.0</ele><time>2026-05-03T12:47:08.983Z</time></trkpt><trkpt lat="46.14363708147066" lon="8.928876986381775"><ele>476.0</ele><time>2026-05-03T12:47:09.983Z</time></trkpt><trkpt lat="46.14354935932204" lon="8.928573972494101"><ele>477.66666666666663</ele><time>2026-05-03T12:47:10.983Z</time></trkpt><trkpt lat="46.14345708421352" lon="8.928279122434732"><ele>479.33333333333337</ele><time>2026-05-03T12:47:11.983Z</time></trkpt><trkpt lat="46.14336841247864" lon="8.92798618394491"><ele>481.0</ele><time>2026-05-03T12:47:12.983Z</time></trkpt><trkpt lat="46.143277576248025" lon="8.927702847984024"><ele>499.0</ele><time>2026-05-03T12:47:13.983Z</time></trkpt><trkpt lat="46.143186789267524" lon="8.927412415868435"><ele>517.0</ele><time>2026-05-03T12:47:14.983Z</time></trkpt><trkpt lat="46.14306735770238" lon="8.927150253996084"><ele>535.0</ele><time>2026-05-03T12:47:15.983Z</time></trkpt><trkpt lat="46.14294860118849" lon="8.926901334835938"><ele>534.6666666666667</ele><time>2026-05-03T12:47:16.983Z</time></trkpt><trkpt lat="46.14281990530295" lon="8.92665358735009"><ele>534.3333333333334</ele><time>2026-05-03T12:47:17.983Z</time></trkpt><trkpt lat="46.14268575761092" lon="8.926417117700087"><ele>534.0</ele><time>2026-05-03T12:47:18.983Z</time></trkpt><trkpt lat="46.142531159668955" lon="8.92616047280143"><ele>534.0</ele><time>2026-05-03T12:47:20.123Z</time></trkpt><trkpt lat="46.142391621138174" lon="8.925943065227665"><ele>534.0</ele><time>2026-05-03T12:47:21.123Z</time></trkpt><trkpt lat="46.141775142805315" lon="8.925235152337113"><ele>552.6666666666666</ele><time>2026-05-03T12:47:24.651Z</time></trkpt><trkpt lat="46.141604374688534" lon="8.925037469606535"><ele>571.3333333333333</ele><time>2026-05-03T12:47:25.651Z</time></trkpt><trkpt lat="46.14143011418627" lon="8.924846858770179"><ele>590.0</ele><time>2026-05-03T12:47:26.649Z</time></trkpt><trkpt lat="46.14125312483277" lon="8.92465995404213"><ele>613.0</ele><time>2026-05-03T12:47:27.651Z</time></trkpt><trkpt lat="46.141072992582586" lon="8.924482863527475"><ele>636.0</ele><time>2026-05-03T12:47:28.646Z</time></trkpt><trkpt lat="46.14088864826143" lon="8.924312068735919"><ele>659.0</ele><time>2026-05-03T12:47:29.646Z</time></trkpt><trkpt lat="46.1407014226164" lon="8.92414513466966"><ele>673.0</ele><time>2026-05-03T12:47:30.651Z</time></trkpt><trkpt lat="46.14051322584778" lon="8.923983304874938"><ele>687.0</ele><time>2026-05-03T12:47:31.651Z</time></trkpt><trkpt lat="46.14032290126185" lon="8.923826700399042"><ele>701.0</ele><time>2026-05-03T12:47:32.651Z</time></trkpt><trkpt lat="46.14012957354407" lon="8.923678148945228"><ele>701.0</ele><time>2026-05-03T12:47:33.651Z</time></trkpt><trkpt lat="46.13993416588331" lon="8.923537509344897"><ele>701.0</ele><time>2026-05-03T12:47:34.648Z</time></trkpt><trkpt lat="46.13973613698684" lon="8.923399703583735"><ele>701.0</ele><time>2026-05-03T12:47:35.651Z</time></trkpt><trkpt lat="46.13953801298827" lon="8.923266285447806"><ele>700.3333333333333</ele><time>2026-05-03T12:47:36.649Z</time></trkpt><trkpt lat="46.13933831742703" lon="8.923134456239495"><ele>699.6666666666666</ele><time>2026-05-03T12:47:37.651Z</time></trkpt><trkpt lat="46.13913836330744" lon="8.923005135807847"><ele>699.0</ele><time>2026-05-03T12:47:38.651Z</time></trkpt><trkpt lat="46.13893779709844" lon="8.922880438127631"><ele>697.0</ele><time>2026-05-03T12:47:39.648Z</time></trkpt><trkpt lat="46.13873460353369" lon="8.922760624621475"><ele>695.0</ele><time>2026-05-03T12:47:40.649Z</time></trkpt><trkpt lat="46.13853053165856" lon="8.922646608720973"><ele>693.0</ele><time>2026-05-03T12:47:41.648Z</time></trkpt><trkpt lat="46.138324830389706" lon="8.922534680877531"><ele>682.6666666666666</ele><time>2026-05-03T12:47:42.651Z</time></trkpt><trkpt lat="46.1381197703387" lon="8.922423101938742"><ele>672.3333333333333</ele><time>2026-05-03T12:47:43.651Z</time></trkpt><trkpt lat="46.13791470779429" lon="8.922311521643227"><ele>662.0</ele><time>2026-05-03T12:47:44.651Z</time></trkpt><trkpt lat="46.13770942900606" lon="8.92220063437615"><ele>662.0</ele><time>2026-05-03T12:47:45.651Z</time></trkpt><trkpt lat="46.137503625880285" lon="8.922092055591596"><ele>662.0</ele><time>2026-05-03T12:47:46.651Z</time></trkpt><trkpt lat="46.13729693754897" lon="8.921986843651762"><ele>662.0</ele><time>2026-05-03T12:47:47.651Z</time></trkpt><trkpt lat="46.13709079700832" lon="8.921882323729255"><ele>649.0</ele><time>2026-05-03T12:47:48.648Z</time></trkpt><trkpt lat="46.13688338193945" lon="8.921777157579704"><ele>636.0</ele><time>2026-05-03T12:47:49.651Z</time></trkpt><trkpt lat="46.13667686107952" lon="8.921671303989196"><ele>623.0</ele><time>2026-05-03T12:47:50.651Z</time></trkpt><trkpt lat="46.1364707684769" lon="8.921564829918193"><ele>606.3333333333333</ele><time>2026-05-03T12:47:51.65Z</time></trkpt><trkpt lat="46.13626439359735" lon="8.92145821001385"><ele>589.6666666666666</ele><time>2026-05-03T12:47:52.65Z</time></trkpt><trkpt lat="46.136057693599085" lon="8.921352119868546"><ele>573.0</ele><time>2026-05-03T12:47:53.651Z</time></trkpt><trkpt lat="46.13585211201832" lon="8.921246019286732"><ele>567.6666666666666</ele><time>2026-05-03T12:47:54.648Z</time></trkpt><trkpt lat="46.1356448370687" lon="8.921139638817772"><ele>562.3333333333333</ele><time>2026-05-03T12:47:55.651Z</time></trkpt><trkpt lat="46.13543832778153" lon="8.921033651312499"><ele>557.0</ele><time>2026-05-03T12:47:56.651Z</time></trkpt><trkpt lat="46.13523247326434" lon="8.920927999857188"><ele>550.6666666666666</ele><time>2026-05-03T12:47:57.648Z</time></trkpt><trkpt lat="46.135026245107035" lon="8.920822221880274"><ele>544.3333333333334</ele><time>2026-05-03T12:47:58.647Z</time></trkpt><trkpt lat="46.13481916103271" lon="8.920716030323112"><ele>538.0</ele><time>2026-05-03T12:47:59.65Z</time></trkpt><trkpt lat="46.13461228945888" lon="8.920609947735018"><ele>532.6666666666667</ele><time>2026-05-03T12:48:00.652Z</time></trkpt><trkpt lat="46.13440570389819" lon="8.920504410812645"><ele>527.3333333333334</ele><time>2026-05-03T12:48:01.652Z</time></trkpt><trkpt lat="46.13419899099359" lon="8.92039942413239"><ele>522.0</ele><time>2026-05-03T12:48:02.651Z</time></trkpt><trkpt lat="46.13399302321691" lon="8.920291349507092"><ele>518.3333333333334</ele><time>2026-05-03T12:48:03.652Z</time></trkpt><trkpt lat="46.1337866845922" lon="8.920188685198976"><ele>514.6666666666667</ele><time>2026-05-03T12:48:04.647Z</time></trkpt><trkpt lat="46.1335793508258" lon="8.920082176428474"><ele>511.0</ele><time>2026-05-03T12:48:05.652Z</time></trkpt><trkpt lat="46.13337356135138" lon="8.919975966617557"><ele>483.0</ele><time>2026-05-03T12:48:06.649Z</time></trkpt><trkpt lat="46.13288185875476" lon="8.919710901207313"><ele>483.0</ele><time>2026-05-03T12:48:07.984Z</time></trkpt><trkpt lat="46.13259767219373" lon="8.919482201463733"><ele>483.0</ele><time>2026-05-03T12:48:08.984Z</time></trkpt><trkpt lat="46.132181395996945" lon="8.919268839059853"><ele>482.5</ele><time>2026-05-03T12:48:09.984Z</time></trkpt><trkpt lat="46.1317620009855" lon="8.919061457242407"><ele>482.0</ele><time>2026-05-03T12:48:10.984Z</time></trkpt><trkpt lat="46.131377917101545" lon="8.918876293817952"><ele>481.0</ele><time>2026-05-03T12:48:11.984Z</time></trkpt><trkpt lat="46.130822612869295" lon="8.918651189818188"><ele>480.0</ele><time>2026-05-03T12:48:12.981Z</time></trkpt><trkpt lat="46.13063902517344" lon="8.918558356582865"><ele>479.0</ele><time>2026-05-03T12:48:13.982Z</time></trkpt><trkpt lat="46.130479478786455" lon="8.918476517708267"><ele>478.0</ele><time>2026-05-03T12:48:14.982Z</time></trkpt><trkpt lat="46.13034510154979" lon="8.918410927447184"><ele>478.0</ele><time>2026-05-03T12:48:15.982Z</time></trkpt><trkpt lat="46.13021126709867" lon="8.918342191502807"><ele>478.0</ele><time>2026-05-03T12:48:16.981Z</time></trkpt><trkpt lat="46.13010370715806" lon="8.918241566417159"><ele>478.0</ele><time>2026-05-03T12:48:17.981Z</time></trkpt><trkpt lat="46.13001597961151" lon="8.918099246521773"><ele>478.0</ele><time>2026-05-03T12:48:18.981Z</time></trkpt><trkpt lat="46.12996366485136" lon="8.917918451510625"><ele>478.0</ele><time>2026-05-03T12:48:19.981Z</time></trkpt><trkpt lat="46.12995951826377" lon="8.917719402321156"><ele>478.0</ele><time>2026-05-03T12:48:20.981Z</time></trkpt><trkpt lat="46.1300057953465" lon="8.917526954739376"><ele>478.0</ele><time>2026-05-03T12:48:21.981Z</time></trkpt><trkpt lat="46.130100226902556" lon="8.917370162312457"><ele>478.0</ele><time>2026-05-03T12:48:22.982Z</time></trkpt><trkpt lat="46.130225790335125" lon="8.917263803030876"><ele>480.6666666666667</ele><time>2026-05-03T12:48:23.982Z</time></trkpt><trkpt lat="46.13037319211823" lon="8.917213431328843"><ele>483.33333333333337</ele><time>2026-05-03T12:48:24.982Z</time></trkpt><trkpt lat="46.1305243427335" lon="8.917236098878723"><ele>486.0</ele><time>2026-05-03T12:48:25.981Z</time></trkpt><trkpt lat="46.13067421482003" lon="8.917314308336078"><ele>485.66666666666663</ele><time>2026-05-03T12:48:26.981Z</time></trkpt><trkpt lat="46.130823111612514" lon="8.917447663066685"><ele>485.3333333333333</ele><time>2026-05-03T12:48:27.981Z</time></trkpt><trkpt lat="46.13095563840964" lon="8.91757580389169"><ele>485.0</ele><time>2026-05-03T12:48:28.981Z</time></trkpt><trkpt lat="46.13107126502942" lon="8.917687736255232"><ele>485.0</ele><time>2026-05-03T12:48:29.981Z</time></trkpt><trkpt lat="46.13117545884938" lon="8.917780396592434"><ele>485.0</ele><time>2026-05-03T12:48:30.981Z</time></trkpt><trkpt lat="46.13127863383634" lon="8.917846379655085"><ele>485.0</ele><time>2026-05-03T12:48:31.981Z</time></trkpt><trkpt lat="46.13130920609162" lon="8.918014608201693"><ele>485.0</ele><time>2026-05-03T12:48:32.981Z</time></trkpt><trkpt lat="46.131334419034225" lon="8.91817083210947"><ele>485.0</ele><time>2026-05-03T12:48:33.981Z</time></trkpt><trkpt lat="46.131320336953735" lon="8.918326856895892"><ele>485.0</ele><time>2026-05-03T12:48:34.981Z</time></trkpt><trkpt lat="46.13126957276763" lon="8.918451337884827"><ele>485.0</ele><time>2026-05-03T12:48:35.981Z</time></trkpt><trkpt lat="46.13117298648763" lon="8.918535891555255"><ele>485.0</ele><time>2026-05-03T12:48:36.981Z</time></trkpt><trkpt lat="46.131081756109005" lon="8.918666366849184"><ele>483.66666666666663</ele><time>2026-05-03T12:48:37.981Z</time></trkpt><trkpt lat="46.13096108303431" lon="8.918788328423087"><ele>482.33333333333337</ele><time>2026-05-03T12:48:38.981Z</time></trkpt><trkpt lat="46.130832835404426" lon="8.91894356851672"><ele>481.0</ele><time>2026-05-03T12:48:39.981Z</time></trkpt><trkpt lat="46.13070776944481" lon="8.919103211286465"><ele>480.0</ele><time>2026-05-03T12:48:40.981Z</time></trkpt><trkpt lat="46.13058785607509" lon="8.919261649668911"><ele>479.0</ele><time>2026-05-03T12:48:41.981Z</time></trkpt><trkpt lat="46.13046504182292" lon="8.919392291120875"><ele>478.0</ele><time>2026-05-03T12:48:42.981Z</time></trkpt><trkpt lat="46.13036089959908" lon="8.91952728143563"><ele>478.0</ele><time>2026-05-03T12:48:43.981Z</time></trkpt><trkpt lat="46.13024933229865" lon="8.919654664143229"><ele>478.0</ele><time>2026-05-03T12:48:44.981Z</time></trkpt><trkpt lat="46.13014509910571" lon="8.919788962401997"><ele>478.0</ele><time>2026-05-03T12:48:45.981Z</time></trkpt><trkpt lat="46.1300378807868" lon="8.919918004266158"><ele>478.0</ele><time>2026-05-03T12:48:46.981Z</time></trkpt><trkpt lat="46.12993040976758" lon="8.920047524163076"><ele>478.25</ele><time>2026-05-03T12:48:47.981Z</time></trkpt><trkpt lat="46.129825254923695" lon="8.920171254863991"><ele>478.5</ele><time>2026-05-03T12:48:48.981Z</time></trkpt><trkpt lat="46.12971609585952" lon="8.920303398731752"><ele>478.75</ele><time>2026-05-03T12:48:49.981Z</time></trkpt><trkpt lat="46.12960547495524" lon="8.920438563939467"><ele>479.0</ele><time>2026-05-03T12:48:50.981Z</time></trkpt><trkpt lat="46.129499728673025" lon="8.92057135769674"><ele>479.0</ele><time>2026-05-03T12:48:51.981Z</time></trkpt><trkpt lat="46.129394449858644" lon="8.920708994101567"><ele>479.0</ele><time>2026-05-03T12:48:52.981Z</time></trkpt><trkpt lat="46.129288598950474" lon="8.92082765801486"><ele>479.0</ele><time>2026-05-03T12:48:53.981Z</time></trkpt><trkpt lat="46.129194649421756" lon="8.920936280167458"><ele>479.0</ele><time>2026-05-03T12:48:54.981Z</time></trkpt><trkpt lat="46.129098163454195" lon="8.921024570197513"><ele>479.25</ele><time>2026-05-03T12:48:55.981Z</time></trkpt><trkpt lat="46.12900893729654" lon="8.921132570797244"><ele>479.5</ele><time>2026-05-03T12:48:56.981Z</time></trkpt><trkpt lat="46.12891939331143" lon="8.92124682330176"><ele>479.75</ele><time>2026-05-03T12:48:57.981Z</time></trkpt><trkpt lat="46.1288225466678" lon="8.921350721458037"><ele>480.0</ele><time>2026-05-03T12:48:58.982Z</time></trkpt><trkpt lat="46.128740910662934" lon="8.921441389034964"><ele>480.0</ele><time>2026-05-03T12:48:59.982Z</time></trkpt><trkpt lat="46.128660331375634" lon="8.921533220959573"><ele>480.0</ele><time>2026-05-03T12:49:00.982Z</time></trkpt><trkpt lat="46.128576983777336" lon="8.92162511477248"><ele>480.0</ele><time>2026-05-03T12:49:01.982Z</time></trkpt><trkpt lat="46.128493909506226" lon="8.921716314517605"><ele>480.0</ele><time>2026-05-03T12:49:02.982Z</time></trkpt><trkpt lat="46.1284149390912" lon="8.921808885013814"><ele>480.0</ele><time>2026-05-03T12:49:03.982Z</time></trkpt><trkpt lat="46.128333137062604" lon="8.921903360326535"><ele>479.5</ele><time>2026-05-03T12:49:04.982Z</time></trkpt><trkpt lat="46.1282406382017" lon="8.922006960633645"><ele>479.0</ele><time>2026-05-03T12:49:05.982Z</time></trkpt><trkpt lat="46.128135289908364" lon="8.922131223522374"><ele>478.5</ele><time>2026-05-03T12:49:06.982Z</time></trkpt><trkpt lat="46.12803659382952" lon="8.922249139040604"><ele>478.0</ele><time>2026-05-03T12:49:07.982Z</time></trkpt><trkpt lat="46.12792870383071" lon="8.922351687545424"><ele>478.0</ele><time>2026-05-03T12:49:08.982Z</time></trkpt><trkpt lat="46.12782640162796" lon="8.92245558167335"><ele>478.0</ele><time>2026-05-03T12:49:09.982Z</time></trkpt><trkpt lat="46.127720521570375" lon="8.922555440042402"><ele>478.0</ele><time>2026-05-03T12:49:10.982Z</time></trkpt><trkpt lat="46.12762053679603" lon="8.922644255019433"><ele>478.0</ele><time>2026-05-03T12:49:11.982Z</time></trkpt><trkpt lat="46.127535936364275" lon="8.922720940932262"><ele>477.2</ele><time>2026-05-03T12:49:12.982Z</time></trkpt><trkpt lat="46.12746129153628" lon="8.922770061461684"><ele>476.4</ele><time>2026-05-03T12:49:13.982Z</time></trkpt><trkpt lat="46.127398533206424" lon="8.922813502514215"><ele>475.59999999999997</ele><time>2026-05-03T12:49:14.982Z</time></trkpt><trkpt lat="46.12731922324908" lon="8.9228563622703"><ele>474.79999999999995</ele><time>2026-05-03T12:49:15.982Z</time></trkpt><trkpt lat="46.12721307849101" lon="8.922919297478114"><ele>474.0</ele><time>2026-05-03T12:49:16.982Z</time></trkpt><trkpt lat="46.12710949011748" lon="8.92298521837962"><ele>473.5</ele><time>2026-05-03T12:49:17.982Z</time></trkpt><trkpt lat="46.12700608329166" lon="8.923050230235663"><ele>473.0</ele><time>2026-05-03T12:49:18.982Z</time></trkpt><trkpt lat="46.12689960140788" lon="8.92311250368887"><ele>472.5</ele><time>2026-05-03T12:49:19.982Z</time></trkpt><trkpt lat="46.12679136629112" lon="8.92317427970271"><ele>472.0</ele><time>2026-05-03T12:49:20.982Z</time></trkpt><trkpt lat="46.12667991832803" lon="8.923232313098055"><ele>472.0</ele><time>2026-05-03T12:49:21.982Z</time></trkpt><trkpt lat="46.126568455606176" lon="8.923292888347728"><ele>472.0</ele><time>2026-05-03T12:49:22.982Z</time></trkpt><trkpt lat="46.12645253328466" lon="8.923354123065636"><ele>472.0</ele><time>2026-05-03T12:49:23.982Z</time></trkpt><trkpt lat="46.12633590220879" lon="8.92341687663376"><ele>472.0</ele><time>2026-05-03T12:49:24.982Z</time></trkpt><trkpt lat="46.12621924822344" lon="8.923493734308922"><ele>472.25</ele><time>2026-05-03T12:49:25.982Z</time></trkpt><trkpt lat="46.12610486566756" lon="8.923565128323213"><ele>472.5</ele><time>2026-05-03T12:49:26.982Z</time></trkpt><trkpt lat="46.12599029042921" lon="8.923633475317553"><ele>472.75</ele><time>2026-05-03T12:49:27.982Z</time></trkpt><trkpt lat="46.125875285657024" lon="8.923698356113569"><ele>473.0</ele><time>2026-05-03T12:49:28.982Z</time></trkpt><trkpt lat="46.12576300836456" lon="8.923765124734231"><ele>473.0</ele><time>2026-05-03T12:49:29.982Z</time></trkpt><trkpt lat="46.12564396203087" lon="8.923836571589831"><ele>473.0</ele><time>2026-05-03T12:49:30.982Z</time></trkpt><trkpt lat="46.125520826678034" lon="8.923903898769867"><ele>473.0</ele><time>2026-05-03T12:49:31.982Z</time></trkpt><trkpt lat="46.125396265886444" lon="8.923968568771778"><ele>473.0</ele><time>2026-05-03T12:49:32.982Z</time></trkpt><trkpt lat="46.12527363599117" lon="8.924036606867888"><ele>473.0</ele><time>2026-05-03T12:49:33.982Z</time></trkpt><trkpt lat="46.12515241793999" lon="8.924105172527693"><ele>473.0</ele><time>2026-05-03T12:49:34.982Z</time></trkpt><trkpt lat="46.12503615558668" lon="8.924172579798395"><ele>473.0</ele><time>2026-05-03T12:49:35.982Z</time></trkpt><trkpt lat="46.124924946047436" lon="8.92424374157024"><ele>473.0</ele><time>2026-05-03T12:49:36.982Z</time></trkpt><trkpt lat="46.124809730121974" lon="8.924316465343644"><ele>473.5</ele><time>2026-05-03T12:49:37.982Z</time></trkpt><trkpt lat="46.124696628835395" lon="8.924384503615805"><ele>474.0</ele><time>2026-05-03T12:49:38.982Z</time></trkpt><trkpt lat="46.124582775774115" lon="8.924453209261866"><ele>474.5</ele><time>2026-05-03T12:49:39.982Z</time></trkpt><trkpt lat="46.124464531092485" lon="8.924501679693838"><ele>475.0</ele><time>2026-05-03T12:49:40.982Z</time></trkpt><trkpt lat="46.124356303001804" lon="8.924593391849294"><ele>475.0</ele><time>2026-05-03T12:49:41.982Z</time></trkpt><trkpt lat="46.12423777248442" lon="8.924641226032882"><ele>475.0</ele><time>2026-05-03T12:49:42.982Z</time></trkpt><trkpt lat="46.124126849894054" lon="8.924711622156842"><ele>475.0</ele><time>2026-05-03T12:49:43.982Z</time></trkpt><trkpt lat="46.12402197247222" lon="8.924779864552098"><ele>475.0</ele><time>2026-05-03T12:49:44.982Z</time></trkpt><trkpt lat="46.123921955539636" lon="8.924868987727109"><ele>475.0</ele><time>2026-05-03T12:49:45.982Z</time></trkpt><trkpt lat="46.12381269595193" lon="8.924920558805875"><ele>475.0</ele><time>2026-05-03T12:49:46.982Z</time></trkpt><trkpt lat="46.123708382867015" lon="8.92499687812862"><ele>475.0</ele><time>2026-05-03T12:49:47.982Z</time></trkpt><trkpt lat="46.12359443641429" lon="8.925070470640364"><ele>475.0</ele><time>2026-05-03T12:49:48.982Z</time></trkpt><trkpt lat="46.123485272913534" lon="8.925143488609978"><ele>474.75</ele><time>2026-05-03T12:49:49.983Z</time></trkpt><trkpt lat="46.12337413103655" lon="8.925220729407178"><ele>474.5</ele><time>2026-05-03T12:49:50.983Z</time></trkpt><trkpt lat="46.12325411395772" lon="8.92530743620714"><ele>474.25</ele><time>2026-05-03T12:49:51.983Z</time></trkpt><trkpt lat="46.12312996537597" lon="8.925380690010792"><ele>474.0</ele><time>2026-05-03T12:49:52.983Z</time></trkpt><trkpt lat="46.12301174012869" lon="8.925455247437087"><ele>473.75</ele><time>2026-05-03T12:49:53.983Z</time></trkpt><trkpt lat="46.12289856118982" lon="8.925542807333565"><ele>473.5</ele><time>2026-05-03T12:49:54.983Z</time></trkpt><trkpt lat="46.12277885302994" lon="8.925604012328886"><ele>473.25</ele><time>2026-05-03T12:49:55.983Z</time></trkpt><trkpt lat="46.122662201570606" lon="8.925704317596376"><ele>473.0</ele><time>2026-05-03T12:49:56.983Z</time></trkpt><trkpt lat="46.12253930708345" lon="8.925781621292165"><ele>473.0</ele><time>2026-05-03T12:49:57.983Z</time></trkpt><trkpt lat="46.12241216897374" lon="8.925859484058304"><ele>473.0</ele><time>2026-05-03T12:49:58.983Z</time></trkpt><trkpt lat="46.12228555606252" lon="8.925937020578932"><ele>473.0</ele><time>2026-05-03T12:49:59.983Z</time></trkpt><trkpt lat="46.122148757158136" lon="8.925991633775142"><ele>473.0</ele><time>2026-05-03T12:50:00.983Z</time></trkpt><trkpt lat="46.1220191376347" lon="8.926067566821702"><ele>472.75</ele><time>2026-05-03T12:50:01.983Z</time></trkpt><trkpt lat="46.12189045155704" lon="8.926142953041202"><ele>472.5</ele><time>2026-05-03T12:50:02.983Z</time></trkpt><trkpt lat="46.121758958531764" lon="8.926219983611677"><ele>472.25</ele><time>2026-05-03T12:50:03.983Z</time></trkpt><trkpt lat="46.12163418124711" lon="8.92629275739003"><ele>472.0</ele><time>2026-05-03T12:50:04.983Z</time></trkpt><trkpt lat="46.12150771794425" lon="8.926366402556159"><ele>472.5</ele><time>2026-05-03T12:50:05.983Z</time></trkpt><trkpt lat="46.121380335688734" lon="8.92644058603779"><ele>473.0</ele><time>2026-05-03T12:50:06.983Z</time></trkpt><trkpt lat="46.12125269081965" lon="8.926513744363705"><ele>473.5</ele><time>2026-05-03T12:50:07.983Z</time></trkpt><trkpt lat="46.12112448310188" lon="8.9265887122768"><ele>474.0</ele><time>2026-05-03T12:50:08.983Z</time></trkpt><trkpt lat="46.121002384515066" lon="8.926694090720032"><ele>473.5</ele><time>2026-05-03T12:50:09.983Z</time></trkpt><trkpt lat="46.1208718351914" lon="8.926766189862454"><ele>473.0</ele><time>2026-05-03T12:50:10.983Z</time></trkpt><trkpt lat="46.12073666873689" lon="8.926842447909221"><ele>472.5</ele><time>2026-05-03T12:50:11.983Z</time></trkpt><trkpt lat="46.12060258092505" lon="8.926922850547239"><ele>472.0</ele><time>2026-05-03T12:50:12.983Z</time></trkpt><trkpt lat="46.12046146426587" lon="8.926973525523364"><ele>471.75</ele><time>2026-05-03T12:50:13.983Z</time></trkpt><trkpt lat="46.120328731876825" lon="8.927050865522038"><ele>471.5</ele><time>2026-05-03T12:50:14.983Z</time></trkpt><trkpt lat="46.12019586934993" lon="8.927128281324087"><ele>471.25</ele><time>2026-05-03T12:50:15.983Z</time></trkpt><trkpt lat="46.12006031013173" lon="8.927207270385324"><ele>471.0</ele><time>2026-05-03T12:50:16.983Z</time></trkpt><trkpt lat="46.11992274276384" lon="8.927287427633807"><ele>471.0</ele><time>2026-05-03T12:50:17.983Z</time></trkpt><trkpt lat="46.11978554714891" lon="8.927367368243797"><ele>471.0</ele><time>2026-05-03T12:50:18.982Z</time></trkpt><trkpt lat="46.11964823130209" lon="8.927447378905281"><ele>471.0</ele><time>2026-05-03T12:50:19.981Z</time></trkpt><trkpt lat="46.119508459403214" lon="8.92752882064798"><ele>471.0</ele><time>2026-05-03T12:50:20.981Z</time></trkpt><trkpt lat="46.11936882302107" lon="8.92761018341594"><ele>469.33333333333337</ele><time>2026-05-03T12:50:21.982Z</time></trkpt><trkpt lat="46.11922703874505" lon="8.927692797717548"><ele>467.6666666666667</ele><time>2026-05-03T12:50:22.981Z</time></trkpt><trkpt lat="46.11908577851358" lon="8.927775152769167"><ele>466.0</ele><time>2026-05-03T12:50:23.981Z</time></trkpt><trkpt lat="46.11894639643967" lon="8.92785642047481"><ele>465.33333333333337</ele><time>2026-05-03T12:50:24.981Z</time></trkpt><trkpt lat="46.11880614213096" lon="8.927937564436121"><ele>464.66666666666663</ele><time>2026-05-03T12:50:25.982Z</time></trkpt><trkpt lat="46.11866556014317" lon="8.928018843364422"><ele>464.0</ele><time>2026-05-03T12:50:26.982Z</time></trkpt><trkpt lat="46.118528809030714" lon="8.928097907416108"><ele>464.0</ele><time>2026-05-03T12:50:27.981Z</time></trkpt><trkpt lat="46.118392340039335" lon="8.928176808397138"><ele>464.0</ele><time>2026-05-03T12:50:28.981Z</time></trkpt><trkpt lat="46.11826028780847" lon="8.92825315575387"><ele>464.0</ele><time>2026-05-03T12:50:29.981Z</time></trkpt><trkpt lat="46.118134348707045" lon="8.928351010178142"><ele>464.0</ele><time>2026-05-03T12:50:30.981Z</time></trkpt><trkpt lat="46.11800565879592" lon="8.928399765938499"><ele>463.0</ele><time>2026-05-03T12:50:31.981Z</time></trkpt><trkpt lat="46.117896040057055" lon="8.928462646686944"><ele>462.0</ele><time>2026-05-03T12:50:32.981Z</time></trkpt><trkpt lat="46.11780974884199" lon="8.92853728949961"><ele>461.0</ele><time>2026-05-03T12:50:33.981Z</time></trkpt><trkpt lat="46.11772219747154" lon="8.92858816236248"><ele>460.0</ele><time>2026-05-03T12:50:34.981Z</time></trkpt><trkpt lat="46.11764002528007" lon="8.92863517070053"><ele>459.0</ele><time>2026-05-03T12:50:35.981Z</time></trkpt><trkpt lat="46.11755527133756" lon="8.928683733403377"><ele>459.0</ele><time>2026-05-03T12:50:36.981Z</time></trkpt><trkpt lat="46.117452716363495" lon="8.928724915669214"><ele>459.0</ele><time>2026-05-03T12:50:37.981Z</time></trkpt><trkpt lat="46.117351259181575" lon="8.92879732161261"><ele>459.0</ele><time>2026-05-03T12:50:38.981Z</time></trkpt><trkpt lat="46.11724619950391" lon="8.928870614250018"><ele>459.0</ele><time>2026-05-03T12:50:39.981Z</time></trkpt><trkpt lat="46.11714089277136" lon="8.928936130688166"><ele>458.75</ele><time>2026-05-03T12:50:40.981Z</time></trkpt><trkpt lat="46.11703202978788" lon="8.929003752579433"><ele>458.5</ele><time>2026-05-03T12:50:41.981Z</time></trkpt><trkpt lat="46.11692206568418" lon="8.92907407718477"><ele>458.25</ele><time>2026-05-03T12:50:42.981Z</time></trkpt><trkpt lat="46.11680993266897" lon="8.929146816620966"><ele>458.0</ele><time>2026-05-03T12:50:43.981Z</time></trkpt><trkpt lat="46.116696529169474" lon="8.929219021923394"><ele>458.0</ele><time>2026-05-03T12:50:44.981Z</time></trkpt><trkpt lat="46.116583905204465" lon="8.929289400393591"><ele>458.0</ele><time>2026-05-03T12:50:45.981Z</time></trkpt><trkpt lat="46.11647511290289" lon="8.929361363015913"><ele>458.0</ele><time>2026-05-03T12:50:46.981Z</time></trkpt><trkpt lat="46.11636533731584" lon="8.929429219680369"><ele>458.0</ele><time>2026-05-03T12:50:47.981Z</time></trkpt><trkpt lat="46.116253690639844" lon="8.929502658479397"><ele>458.0</ele><time>2026-05-03T12:50:48.981Z</time></trkpt><trkpt lat="46.1161432531087" lon="8.92957608339909"><ele>458.0</ele><time>2026-05-03T12:50:49.981Z</time></trkpt><trkpt lat="46.11602474457076" lon="8.929631625801091"><ele>458.0</ele><time>2026-05-03T12:50:50.981Z</time></trkpt><trkpt lat="46.115911862034814" lon="8.92970794777287"><ele>458.0</ele><time>2026-05-03T12:50:51.981Z</time></trkpt><trkpt lat="46.11579804277552" lon="8.929785493617667"><ele>457.25</ele><time>2026-05-03T12:50:52.981Z</time></trkpt><trkpt lat="46.115684192373045" lon="8.929861536520148"><ele>456.5</ele><time>2026-05-03T12:50:53.981Z</time></trkpt><trkpt lat="46.11556601316686" lon="8.929919058823998"><ele>455.75</ele><time>2026-05-03T12:50:54.981Z</time></trkpt><trkpt lat="46.11545216214885" lon="8.92999531135211"><ele>455.0</ele><time>2026-05-03T12:50:55.982Z</time></trkpt><trkpt lat="46.11533842707478" lon="8.930068469992017"><ele>455.0</ele><time>2026-05-03T12:50:56.982Z</time></trkpt><trkpt lat="46.11522078438393" lon="8.930143406676498"><ele>455.0</ele><time>2026-05-03T12:50:57.982Z</time></trkpt><trkpt lat="46.115105562175486" lon="8.930217322060635"><ele>455.0</ele><time>2026-05-03T12:50:58.982Z</time></trkpt><trkpt lat="46.114990722965416" lon="8.930293780408135"><ele>455.0</ele><time>2026-05-03T12:50:59.982Z</time></trkpt><trkpt lat="46.11487403357438" lon="8.93036574490609"><ele>454.25</ele><time>2026-05-03T12:51:00.982Z</time></trkpt><trkpt lat="46.114755998088846" lon="8.930439344352504"><ele>453.5</ele><time>2026-05-03T12:51:01.982Z</time></trkpt><trkpt lat="46.11463891480132" lon="8.930512653954228"><ele>452.75</ele><time>2026-05-03T12:51:02.982Z</time></trkpt><trkpt lat="46.11452247149464" lon="8.930588360899558"><ele>452.0</ele><time>2026-05-03T12:51:03.982Z</time></trkpt><trkpt lat="46.11440705478273" lon="8.930665074490063"><ele>452.0</ele><time>2026-05-03T12:51:04.982Z</time></trkpt><trkpt lat="46.11428625278728" lon="8.93073868913868"><ele>452.0</ele><time>2026-05-03T12:51:05.982Z</time></trkpt><trkpt lat="46.11417294167354" lon="8.930816901674179"><ele>452.0</ele><time>2026-05-03T12:51:06.982Z</time></trkpt><trkpt lat="46.11405463865006" lon="8.930887588863257"><ele>452.0</ele><time>2026-05-03T12:51:07.982Z</time></trkpt><trkpt lat="46.113936856719405" lon="8.930959887291648"><ele>451.25</ele><time>2026-05-03T12:51:08.982Z</time></trkpt><trkpt lat="46.11381988637206" lon="8.931033625171004"><ele>450.5</ele><time>2026-05-03T12:51:09.982Z</time></trkpt><trkpt lat="46.11370306394513" lon="8.931106213847336"><ele>449.75</ele><time>2026-05-03T12:51:10.982Z</time></trkpt><trkpt lat="46.11358355255598" lon="8.931176894540112"><ele>449.0</ele><time>2026-05-03T12:51:11.982Z</time></trkpt><trkpt lat="46.1134623918159" lon="8.931242740120128"><ele>449.0</ele><time>2026-05-03T12:51:12.982Z</time></trkpt><trkpt lat="46.11333659547454" lon="8.931304446251175"><ele>449.0</ele><time>2026-05-03T12:51:13.982Z</time></trkpt><trkpt lat="46.113212388253565" lon="8.931356619369362"><ele>449.0</ele><time>2026-05-03T12:51:14.982Z</time></trkpt><trkpt lat="46.11308277237871" lon="8.931407655348977"><ele>449.0</ele><time>2026-05-03T12:51:15.982Z</time></trkpt><trkpt lat="46.11294939378694" lon="8.931449645690885"><ele>448.5</ele><time>2026-05-03T12:51:16.982Z</time></trkpt><trkpt lat="46.11281318294565" lon="8.931467574126058"><ele>448.0</ele><time>2026-05-03T12:51:17.982Z</time></trkpt><trkpt lat="46.11267721820064" lon="8.931502895426528"><ele>447.5</ele><time>2026-05-03T12:51:18.982Z</time></trkpt><trkpt lat="46.112537080302204" lon="8.93153289119085"><ele>447.0</ele><time>2026-05-03T12:51:19.982Z</time></trkpt><trkpt lat="46.112397077098834" lon="8.931566976882408"><ele>446.75</ele><time>2026-05-03T12:51:20.982Z</time></trkpt><trkpt lat="46.11225281169416" lon="8.931594553932058"><ele>446.5</ele><time>2026-05-03T12:51:21.982Z</time></trkpt><trkpt lat="46.1121106169002" lon="8.931624290593405"><ele>446.25</ele><time>2026-05-03T12:51:22.982Z</time></trkpt><trkpt lat="46.11196657469853" lon="8.931650373832422"><ele>446.0</ele><time>2026-05-03T12:51:23.982Z</time></trkpt><trkpt lat="46.111826618162446" lon="8.931680648853007"><ele>446.0</ele><time>2026-05-03T12:51:24.982Z</time></trkpt><trkpt lat="46.11166080830813" lon="8.93170206438405"><ele>446.0</ele><time>2026-05-03T12:51:25.982Z</time></trkpt><trkpt lat="46.111499018704905" lon="8.931740535559939"><ele>446.0</ele><time>2026-05-03T12:51:26.982Z</time></trkpt><trkpt lat="46.11134088124443" lon="8.931774783784828"><ele>445.3333333333333</ele><time>2026-05-03T12:51:27.982Z</time></trkpt><trkpt lat="46.111189029760666" lon="8.931806168276326"><ele>444.66666666666663</ele><time>2026-05-03T12:51:28.982Z</time></trkpt><trkpt lat="46.111041491888415" lon="8.931834544902369"><ele>444.0</ele><time>2026-05-03T12:51:29.982Z</time></trkpt><trkpt lat="46.1108927034168" lon="8.931863361796362"><ele>444.0</ele><time>2026-05-03T12:51:30.982Z</time></trkpt><trkpt lat="46.11074297376961" lon="8.931891542222397"><ele>444.0</ele><time>2026-05-03T12:51:31.982Z</time></trkpt><trkpt lat="46.110592414136846" lon="8.931917395895637"><ele>444.0</ele><time>2026-05-03T12:51:32.982Z</time></trkpt><trkpt lat="46.110440594417554" lon="8.931936881284098"><ele>443.66666666666663</ele><time>2026-05-03T12:51:33.982Z</time></trkpt><trkpt lat="46.110284182659946" lon="8.931956854424806"><ele>443.3333333333333</ele><time>2026-05-03T12:51:34.982Z</time></trkpt><trkpt lat="46.11012255722867" lon="8.931977006053716"><ele>443.0</ele><time>2026-05-03T12:51:35.982Z</time></trkpt><trkpt lat="46.10995136543166" lon="8.93199512360966"><ele>444.0</ele><time>2026-05-03T12:51:36.982Z</time></trkpt><trkpt lat="46.10977869894443" lon="8.932005514668319"><ele>445.0</ele><time>2026-05-03T12:51:37.982Z</time></trkpt><trkpt lat="46.1096152167625" lon="8.932010612068698"><ele>446.0</ele><time>2026-05-03T12:51:38.982Z</time></trkpt><trkpt lat="46.109458636721406" lon="8.932006941188888"><ele>446.0</ele><time>2026-05-03T12:51:39.982Z</time></trkpt><trkpt lat="46.10929535849867" lon="8.932003915273274"><ele>446.0</ele><time>2026-05-03T12:51:40.982Z</time></trkpt><trkpt lat="46.10913309706398" lon="8.931987002163781"><ele>446.0</ele><time>2026-05-03T12:51:41.982Z</time></trkpt><trkpt lat="46.10897730548012" lon="8.931963918491281"><ele>445.25</ele><time>2026-05-03T12:51:42.982Z</time></trkpt><trkpt lat="46.1088343249063" lon="8.931946379016031"><ele>444.5</ele><time>2026-05-03T12:51:43.982Z</time></trkpt><trkpt lat="46.10869716314174" lon="8.931922023405152"><ele>443.75</ele><time>2026-05-03T12:51:44.982Z</time></trkpt><trkpt lat="46.10854891002684" lon="8.931889712917936"><ele>443.0</ele><time>2026-05-03T12:51:45.982Z</time></trkpt><trkpt lat="46.108392469335634" lon="8.9318545524734"><ele>442.66666666666663</ele><time>2026-05-03T12:51:46.983Z</time></trkpt><trkpt lat="46.10822951437673" lon="8.931811952787813"><ele>442.33333333333337</ele><time>2026-05-03T12:51:47.983Z</time></trkpt><trkpt lat="46.10806089840834" lon="8.93173718841747"><ele>442.0</ele><time>2026-05-03T12:51:48.983Z</time></trkpt><trkpt lat="46.10790003973043" lon="8.931684112082152"><ele>442.0</ele><time>2026-05-03T12:51:49.983Z</time></trkpt><trkpt lat="46.107751685330726" lon="8.93163027353828"><ele>442.0</ele><time>2026-05-03T12:51:50.983Z</time></trkpt><trkpt lat="46.10761057037429" lon="8.931572679905285"><ele>442.0</ele><time>2026-05-03T12:51:51.983Z</time></trkpt><trkpt lat="46.10745684929167" lon="8.931506083671353"><ele>442.33333333333337</ele><time>2026-05-03T12:51:52.983Z</time></trkpt><trkpt lat="46.10731202088172" lon="8.931439694766087"><ele>442.66666666666663</ele><time>2026-05-03T12:51:53.983Z</time></trkpt><trkpt lat="46.1071704300893" lon="8.931372221386017"><ele>443.0</ele><time>2026-05-03T12:51:54.983Z</time></trkpt><trkpt lat="46.107028446515386" lon="8.931305499938853"><ele>443.0</ele><time>2026-05-03T12:51:55.983Z</time></trkpt><trkpt lat="46.10687488327472" lon="8.931235626032404"><ele>443.0</ele><time>2026-05-03T12:51:56.983Z</time></trkpt><trkpt lat="46.10668608938076" lon="8.931181046204"><ele>443.0</ele><time>2026-05-03T12:51:57.983Z</time></trkpt><trkpt lat="46.106497593231886" lon="8.931085182576085"><ele>442.66666666666663</ele><time>2026-05-03T12:51:58.983Z</time></trkpt><trkpt lat="46.10632080682868" lon="8.93105152028276"><ele>442.33333333333337</ele><time>2026-05-03T12:51:59.983Z</time></trkpt><trkpt lat="46.10614899362609" lon="8.931009221872069"><ele>442.0</ele><time>2026-05-03T12:52:00.983Z</time></trkpt><trkpt lat="46.10598617030675" lon="8.930971904429917"><ele>442.0</ele><time>2026-05-03T12:52:01.983Z</time></trkpt><trkpt lat="46.10583626123136" lon="8.930947960653343"><ele>442.0</ele><time>2026-05-03T12:52:02.983Z</time></trkpt><trkpt lat="46.105693286194295" lon="8.930925443778872"><ele>442.0</ele><time>2026-05-03T12:52:03.983Z</time></trkpt><trkpt lat="46.105546669296494" lon="8.93091009774222"><ele>442.0</ele><time>2026-05-03T12:52:04.983Z</time></trkpt><trkpt lat="46.10539405967959" lon="8.93090319673563"><ele>440.33333333333337</ele><time>2026-05-03T12:52:05.983Z</time></trkpt><trkpt lat="46.10523808518075" lon="8.9309036827814"><ele>438.66666666666663</ele><time>2026-05-03T12:52:06.983Z</time></trkpt><trkpt lat="46.10508070896718" lon="8.930912242609416"><ele>437.0</ele><time>2026-05-03T12:52:07.983Z</time></trkpt><trkpt lat="46.10491017782013" lon="8.93089717124896"><ele>435.3333333333333</ele><time>2026-05-03T12:52:08.983Z</time></trkpt><trkpt lat="46.10469926331946" lon="8.93090689683309"><ele>433.66666666666663</ele><time>2026-05-03T12:52:09.983Z</time></trkpt><trkpt lat="46.10447198321186" lon="8.9309347637366"><ele>432.0</ele><time>2026-05-03T12:52:10.983Z</time></trkpt><trkpt lat="46.10426648914754" lon="8.930912574480518"><ele>433.0</ele><time>2026-05-03T12:52:11.983Z</time></trkpt><trkpt lat="46.10407977344632" lon="8.930898292848072"><ele>434.0</ele><time>2026-05-03T12:52:12.983Z</time></trkpt><trkpt lat="46.10390209558271" lon="8.930880514545624"><ele>435.0</ele><time>2026-05-03T12:52:13.983Z</time></trkpt><trkpt lat="46.1037368898812" lon="8.930856975037793"><ele>438.0</ele><time>2026-05-03T12:52:14.983Z</time></trkpt><trkpt lat="46.10357294088886" lon="8.930828718282333"><ele>441.0</ele><time>2026-05-03T12:52:15.983Z</time></trkpt><trkpt lat="46.103425884585526" lon="8.930796169062114"><ele>444.0</ele><time>2026-05-03T12:52:16.983Z</time></trkpt><trkpt lat="46.10328283106078" lon="8.930760023081326"><ele>441.5</ele><time>2026-05-03T12:52:17.983Z</time></trkpt><trkpt lat="46.103154159631224" lon="8.93072523398906"><ele>439.0</ele><time>2026-05-03T12:52:18.983Z</time></trkpt><trkpt lat="46.103030281495734" lon="8.930685224129064"><ele>436.5</ele><time>2026-05-03T12:52:19.983Z</time></trkpt><trkpt lat="46.10291486361856" lon="8.930644274989415"><ele>434.0</ele><time>2026-05-03T12:52:20.983Z</time></trkpt><trkpt lat="46.10281150961722" lon="8.930605901772566"><ele>433.99999999999994</ele><time>2026-05-03T12:52:21.983Z</time></trkpt><trkpt lat="46.10272936995236" lon="8.930573115835294"><ele>434.0</ele><time>2026-05-03T12:52:22.983Z</time></trkpt><trkpt lat="46.10265680620634" lon="8.930554792568163"><ele>434.0</ele><time>2026-05-03T12:52:23.983Z</time></trkpt><trkpt lat="46.10260533253411" lon="8.930490053450058"><ele>434.0</ele><time>2026-05-03T12:52:24.981Z</time></trkpt><trkpt lat="46.10253799444024" lon="8.930422141746448"><ele>433.99999999999994</ele><time>2026-05-03T12:52:25.981Z</time></trkpt><trkpt lat="46.10245691741734" lon="8.93039785796648"><ele>434.0</ele><time>2026-05-03T12:52:26.981Z</time></trkpt><trkpt lat="46.102350668886004" lon="8.93040407257377"><ele>432.5</ele><time>2026-05-03T12:52:27.981Z</time></trkpt><trkpt lat="46.10225081685321" lon="8.930371918029786"><ele>431.0</ele><time>2026-05-03T12:52:28.981Z</time></trkpt><trkpt lat="46.10213829572367" lon="8.930303806128563"><ele>429.5</ele><time>2026-05-03T12:52:29.981Z</time></trkpt><trkpt lat="46.10202606270029" lon="8.930247103869075"><ele>428.0</ele><time>2026-05-03T12:52:30.981Z</time></trkpt><trkpt lat="46.10191832408425" lon="8.93017478597528"><ele>428.0</ele><time>2026-05-03T12:52:31.981Z</time></trkpt><trkpt lat="46.10181393813621" lon="8.930094913386162"><ele>428.0</ele><time>2026-05-03T12:52:32.981Z</time></trkpt><trkpt lat="46.101704599642524" lon="8.930022661345046"><ele>428.0</ele><time>2026-05-03T12:52:33.981Z</time></trkpt><trkpt lat="46.10159213575008" lon="8.929946465975155"><ele>428.0</ele><time>2026-05-03T12:52:34.981Z</time></trkpt><trkpt lat="46.10148171029673" lon="8.929880582589623"><ele>428.5</ele><time>2026-05-03T12:52:35.981Z</time></trkpt><trkpt lat="46.1013643003659" lon="8.929804211102859"><ele>429.0</ele><time>2026-05-03T12:52:36.981Z</time></trkpt><trkpt lat="46.10125214505153" lon="8.929704772058141"><ele>429.5</ele><time>2026-05-03T12:52:37.982Z</time></trkpt><trkpt lat="46.10113033530321" lon="8.929613585802125"><ele>430.0</ele><time>2026-05-03T12:52:38.982Z</time></trkpt><trkpt lat="46.101011340439634" lon="8.929525764630917"><ele>430.0</ele><time>2026-05-03T12:52:39.982Z</time></trkpt><trkpt lat="46.10088514823382" lon="8.929432625118045"><ele>430.0</ele><time>2026-05-03T12:52:40.982Z</time></trkpt><trkpt lat="46.10076373145387" lon="8.929343097005706"><ele>430.0</ele><time>2026-05-03T12:52:41.982Z</time></trkpt><trkpt lat="46.10063671007126" lon="8.92925039505923"><ele>430.0</ele><time>2026-05-03T12:52:42.982Z</time></trkpt><trkpt lat="46.10050936397533" lon="8.929157344962091"><ele>429.0</ele><time>2026-05-03T12:52:43.982Z</time></trkpt><trkpt lat="46.10038008850142" lon="8.929062884906571"><ele>428.0</ele><time>2026-05-03T12:52:44.982Z</time></trkpt><trkpt lat="46.10025307526683" lon="8.928968627369096"><ele>427.0</ele><time>2026-05-03T12:52:45.982Z</time></trkpt><trkpt lat="46.10012497196251" lon="8.92887318985918"><ele>426.0</ele><time>2026-05-03T12:52:46.982Z</time></trkpt><trkpt lat="46.09999183804247" lon="8.928774972782156"><ele>425.75</ele><time>2026-05-03T12:52:47.982Z</time></trkpt><trkpt lat="46.09986031043901" lon="8.928678116082533"><ele>425.5</ele><time>2026-05-03T12:52:48.982Z</time></trkpt><trkpt lat="46.09972831604118" lon="8.92858222010033"><ele>425.25</ele><time>2026-05-03T12:52:49.982Z</time></trkpt><trkpt lat="46.099595480701055" lon="8.928483852737864"><ele>425.0</ele><time>2026-05-03T12:52:50.982Z</time></trkpt><trkpt lat="46.099466347715136" lon="8.928387783602732"><ele>425.0</ele><time>2026-05-03T12:52:51.982Z</time></trkpt><trkpt lat="46.09933473392503" lon="8.928290784591475"><ele>425.0</ele><time>2026-05-03T12:52:52.982Z</time></trkpt><trkpt lat="46.09920384939858" lon="8.928194927743897"><ele>425.0</ele><time>2026-05-03T12:52:53.982Z</time></trkpt><trkpt lat="46.09907316923796" lon="8.928099224721683"><ele>425.0</ele><time>2026-05-03T12:52:54.982Z</time></trkpt><trkpt lat="46.09893905641325" lon="8.927999298057935"><ele>424.5</ele><time>2026-05-03T12:52:55.982Z</time></trkpt><trkpt lat="46.098805946724916" lon="8.927901919301206"><ele>424.0</ele><time>2026-05-03T12:52:56.982Z</time></trkpt><trkpt lat="46.09867193709119" lon="8.92780426110193"><ele>423.5</ele><time>2026-05-03T12:52:57.982Z</time></trkpt><trkpt lat="46.09854271763564" lon="8.927709578297913"><ele>423.0</ele><time>2026-05-03T12:52:58.982Z</time></trkpt><trkpt lat="46.09840898551263" lon="8.92761153342144"><ele>423.0</ele><time>2026-05-03T12:52:59.982Z</time></trkpt><trkpt lat="46.09827674764492" lon="8.92751460791412"><ele>423.0</ele><time>2026-05-03T12:53:00.982Z</time></trkpt><trkpt lat="46.0981492222794" lon="8.92742059766678"><ele>423.0</ele><time>2026-05-03T12:53:01.982Z</time></trkpt><trkpt lat="46.09802546948578" lon="8.927344553867162"><ele>423.0</ele><time>2026-05-03T12:53:02.982Z</time></trkpt><trkpt lat="46.097924163167185" lon="8.927261869736503"><ele>422.4</ele><time>2026-05-03T12:53:03.982Z</time></trkpt><trkpt lat="46.09782166429654" lon="8.927189110508808"><ele>421.79999999999995</ele><time>2026-05-03T12:53:04.982Z</time></trkpt><trkpt lat="46.09771969965419" lon="8.927120313833933"><ele>421.2</ele><time>2026-05-03T12:53:05.982Z</time></trkpt><trkpt lat="46.09763125302406" lon="8.92703037000108"><ele>420.6</ele><time>2026-05-03T12:53:06.982Z</time></trkpt><trkpt lat="46.097541425044135" lon="8.926955425004367"><ele>420.0</ele><time>2026-05-03T12:53:07.982Z</time></trkpt><trkpt lat="46.0974504130996" lon="8.926896721016714"><ele>420.0</ele><time>2026-05-03T12:53:08.982Z</time></trkpt><trkpt lat="46.09739362103293" lon="8.926804871185473"><ele>420.0</ele><time>2026-05-03T12:53:09.982Z</time></trkpt><trkpt lat="46.09727965867784" lon="8.92667853195429"><ele>420.0</ele><time>2026-05-03T12:53:11.982Z</time></trkpt><trkpt lat="46.09718916993162" lon="8.926664315548567"><ele>420.0</ele><time>2026-05-03T12:53:12.982Z</time></trkpt><trkpt lat="46.097094845112814" lon="8.926650036451141"><ele>420.0</ele><time>2026-05-03T12:53:13.982Z</time></trkpt><trkpt lat="46.0970076882532" lon="8.92657395794822"><ele>420.0</ele><time>2026-05-03T12:53:14.982Z</time></trkpt><trkpt lat="46.09691196466425" lon="8.9265136060186"><ele>420.0</ele><time>2026-05-03T12:53:15.982Z</time></trkpt><trkpt lat="46.096810933756764" lon="8.926434818586241"><ele>420.0</ele><time>2026-05-03T12:53:16.982Z</time></trkpt><trkpt lat="46.09670319629869" lon="8.926358794620484"><ele>420.0</ele><time>2026-05-03T12:53:17.982Z</time></trkpt><trkpt lat="46.096590348747604" lon="8.926276932104116"><ele>419.25</ele><time>2026-05-03T12:53:18.982Z</time></trkpt><trkpt lat="46.09647481490754" lon="8.926194297516764"><ele>418.5</ele><time>2026-05-03T12:53:19.982Z</time></trkpt><trkpt lat="46.09635031778136" lon="8.926113632213776"><ele>417.75</ele><time>2026-05-03T12:53:20.982Z</time></trkpt><trkpt lat="46.096227211042574" lon="8.926023564075452"><ele>417.0</ele><time>2026-05-03T12:53:21.982Z</time></trkpt><trkpt lat="46.096100976172494" lon="8.925933360244285"><ele>417.25</ele><time>2026-05-03T12:53:22.982Z</time></trkpt><trkpt lat="46.09596805730726" lon="8.925845064080491"><ele>417.5</ele><time>2026-05-03T12:53:23.982Z</time></trkpt><trkpt lat="46.09584744780374" lon="8.92572428597684"><ele>417.75</ele><time>2026-05-03T12:53:24.982Z</time></trkpt><trkpt lat="46.09571380044296" lon="8.925633053449117"><ele>418.0</ele><time>2026-05-03T12:53:25.982Z</time></trkpt><trkpt lat="46.09558345336717" lon="8.925537635323805"><ele>417.5</ele><time>2026-05-03T12:53:26.983Z</time></trkpt><trkpt lat="46.0954495199837" lon="8.92544048651489"><ele>417.0</ele><time>2026-05-03T12:53:27.983Z</time></trkpt><trkpt lat="46.095319540816035" lon="8.925344213398224"><ele>416.5</ele><time>2026-05-03T12:53:28.983Z</time></trkpt><trkpt lat="46.0951857839934" lon="8.92524266011019"><ele>416.0</ele><time>2026-05-03T12:53:29.983Z</time></trkpt><trkpt lat="46.09505367055841" lon="8.925148891435509"><ele>416.0</ele><time>2026-05-03T12:53:30.983Z</time></trkpt><trkpt lat="46.09492216812639" lon="8.925050418843313"><ele>416.0</ele><time>2026-05-03T12:53:31.983Z</time></trkpt><trkpt lat="46.09479204351744" lon="8.924952013882812"><ele>416.0</ele><time>2026-05-03T12:53:32.983Z</time></trkpt><trkpt lat="46.094661264323655" lon="8.924857285927459"><ele>416.0</ele><time>2026-05-03T12:53:33.983Z</time></trkpt><trkpt lat="46.09453244698942" lon="8.924764588685733"><ele>415.5</ele><time>2026-05-03T12:53:34.983Z</time></trkpt><trkpt lat="46.09440292384791" lon="8.92467271190386"><ele>415.0</ele><time>2026-05-03T12:53:35.983Z</time></trkpt><trkpt lat="46.09427155841336" lon="8.924579091836154"><ele>414.5</ele><time>2026-05-03T12:53:36.983Z</time></trkpt><trkpt lat="46.09414243893275" lon="8.924485230343993"><ele>414.0</ele><time>2026-05-03T12:53:37.983Z</time></trkpt><trkpt lat="46.09401502015683" lon="8.924393905494364"><ele>414.0</ele><time>2026-05-03T12:53:38.983Z</time></trkpt><trkpt lat="46.09388576942834" lon="8.924305250723846"><ele>414.0</ele><time>2026-05-03T12:53:39.983Z</time></trkpt><trkpt lat="46.09375748874557" lon="8.924218279264926"><ele>414.0</ele><time>2026-05-03T12:53:40.983Z</time></trkpt><trkpt lat="46.09363731146652" lon="8.92412769665924"><ele>414.0</ele><time>2026-05-03T12:53:41.983Z</time></trkpt><trkpt lat="46.0935295282324" lon="8.924044455720669"><ele>414.0</ele><time>2026-05-03T12:53:42.983Z</time></trkpt><trkpt lat="46.09342623540799" lon="8.923964785029185"><ele>414.0</ele><time>2026-05-03T12:53:43.983Z</time></trkpt><trkpt lat="46.0933219348292" lon="8.923887906221045"><ele>414.0</ele><time>2026-05-03T12:53:44.983Z</time></trkpt><trkpt lat="46.09321689428633" lon="8.923810582657936"><ele>414.0</ele><time>2026-05-03T12:53:45.983Z</time></trkpt><trkpt lat="46.09310829703835" lon="8.923734613620834"><ele>413.79999999999995</ele><time>2026-05-03T12:53:46.983Z</time></trkpt><trkpt lat="46.0930082363346" lon="8.923660388646493"><ele>413.59999999999997</ele><time>2026-05-03T12:53:47.983Z</time></trkpt><trkpt lat="46.092918831575" lon="8.923590545457545"><ele>413.4</ele><time>2026-05-03T12:53:48.983Z</time></trkpt><trkpt lat="46.092837127524" lon="8.923533513090927"><ele>413.2</ele><time>2026-05-03T12:53:49.983Z</time></trkpt><trkpt lat="46.09275159230504" lon="8.923476114958273"><ele>413.0</ele><time>2026-05-03T12:53:50.983Z</time></trkpt><trkpt lat="46.09268210871831" lon="8.923425078932999"><ele>412.8333333333333</ele><time>2026-05-03T12:53:51.983Z</time></trkpt><trkpt lat="46.09261850993089" lon="8.92337263859209"><ele>412.66666666666663</ele><time>2026-05-03T12:53:52.983Z</time></trkpt><trkpt lat="46.092576176484755" lon="8.923296012266428"><ele>412.5</ele><time>2026-05-03T12:53:53.983Z</time></trkpt><trkpt lat="46.09253311962891" lon="8.923214569707039"><ele>412.33333333333337</ele><time>2026-05-03T12:53:54.983Z</time></trkpt><trkpt lat="46.09246990540629" lon="8.92317140912229"><ele>412.1666666666667</ele><time>2026-05-03T12:53:55.983Z</time></trkpt><trkpt lat="46.09238816200585" lon="8.923172561895106"><ele>412.0</ele><time>2026-05-03T12:53:56.983Z</time></trkpt><trkpt lat="46.092297739351935" lon="8.923144232723454"><ele>411.6</ele><time>2026-05-03T12:53:57.983Z</time></trkpt><trkpt lat="46.09220991482058" lon="8.92308015742061"><ele>411.20000000000005</ele><time>2026-05-03T12:53:58.983Z</time></trkpt><trkpt lat="46.09211112084755" lon="8.923008514264067"><ele>410.8</ele><time>2026-05-03T12:53:59.983Z</time></trkpt><trkpt lat="46.09201322178082" lon="8.922938285698558"><ele>410.4</ele><time>2026-05-03T12:54:00.983Z</time></trkpt><trkpt lat="46.09190661551673" lon="8.922865659913654"><ele>410.0</ele><time>2026-05-03T12:54:01.983Z</time></trkpt><trkpt lat="46.09179868849666" lon="8.922784917566991"><ele>410.0</ele><time>2026-05-03T12:54:02.983Z</time></trkpt><trkpt lat="46.09169122458064" lon="8.922676488733494"><ele>410.0</ele><time>2026-05-03T12:54:03.983Z</time></trkpt><trkpt lat="46.09157253082505" lon="8.92259892614126"><ele>410.0</ele><time>2026-05-03T12:54:04.983Z</time></trkpt><trkpt lat="46.091454699092495" lon="8.922512589084288"><ele>410.0</ele><time>2026-05-03T12:54:05.983Z</time></trkpt><trkpt lat="46.09133980279356" lon="8.922430930250721"><ele>410.5</ele><time>2026-05-03T12:54:06.983Z</time></trkpt><trkpt lat="46.09121829730897" lon="8.922347300792957"><ele>411.0</ele><time>2026-05-03T12:54:07.983Z</time></trkpt><trkpt lat="46.09109865398118" lon="8.92225470401665"><ele>411.5</ele><time>2026-05-03T12:54:08.983Z</time></trkpt><trkpt lat="46.09098204377145" lon="8.92215389087177"><ele>412.0</ele><time>2026-05-03T12:54:09.983Z</time></trkpt><trkpt lat="46.09086653844998" lon="8.92205503282222"><ele>412.0</ele><time>2026-05-03T12:54:10.983Z</time></trkpt><trkpt lat="46.090750812797985" lon="8.921951789962684"><ele>412.0</ele><time>2026-05-03T12:54:11.983Z</time></trkpt><trkpt lat="46.09064265669924" lon="8.921849052029163"><ele>412.0</ele><time>2026-05-03T12:54:12.983Z</time></trkpt><trkpt lat="46.09053207819786" lon="8.921752588397863"><ele>412.0</ele><time>2026-05-03T12:54:13.983Z</time></trkpt><trkpt lat="46.09042106883695" lon="8.921648384338468"><ele>412.0</ele><time>2026-05-03T12:54:14.983Z</time></trkpt><trkpt lat="46.09031108998044" lon="8.921549689498164"><ele>412.0</ele><time>2026-05-03T12:54:15.983Z</time></trkpt><trkpt lat="46.09019951677366" lon="8.92144827711881"><ele>412.0</ele><time>2026-05-03T12:54:16.983Z</time></trkpt><trkpt lat="46.09009334650827" lon="8.921341230394747"><ele>412.0</ele><time>2026-05-03T12:54:17.984Z</time></trkpt><trkpt lat="46.08997996638504" lon="8.921240827175296"><ele>413.5</ele><time>2026-05-03T12:54:18.984Z</time></trkpt><trkpt lat="46.089866614771616" lon="8.921139948686397"><ele>415.0</ele><time>2026-05-03T12:54:19.984Z</time></trkpt><trkpt lat="46.08975232173941" lon="8.92103943416304"><ele>416.5</ele><time>2026-05-03T12:54:20.984Z</time></trkpt><trkpt lat="46.08963786527211" lon="8.92094008589532"><ele>418.0</ele><time>2026-05-03T12:54:21.984Z</time></trkpt><trkpt lat="46.08952151446885" lon="8.920837539713979"><ele>418.0</ele><time>2026-05-03T12:54:22.984Z</time></trkpt><trkpt lat="46.08940645031572" lon="8.920735846857129"><ele>418.0</ele><time>2026-05-03T12:54:23.984Z</time></trkpt><trkpt lat="46.08929342146119" lon="8.92063480758237"><ele>418.0</ele><time>2026-05-03T12:54:24.984Z</time></trkpt><trkpt lat="46.0891777223794" lon="8.920528539426911"><ele>418.0</ele><time>2026-05-03T12:54:25.984Z</time></trkpt><trkpt lat="46.089067693312884" lon="8.920424238276087"><ele>417.5</ele><time>2026-05-03T12:54:26.984Z</time></trkpt><trkpt lat="46.08895628510657" lon="8.920323068895216"><ele>417.0</ele><time>2026-05-03T12:54:27.984Z</time></trkpt><trkpt lat="46.088854580015514" lon="8.920203507828914"><ele>416.5</ele><time>2026-05-03T12:54:28.984Z</time></trkpt><trkpt lat="46.08873664306383" lon="8.920128315186107"><ele>416.0</ele><time>2026-05-03T12:54:29.984Z</time></trkpt><trkpt lat="46.088621445351" lon="8.920045235878943"><ele>414.75</ele><time>2026-05-03T12:54:30.981Z</time></trkpt><trkpt lat="46.08849786437735" lon="8.919976847259415"><ele>413.5</ele><time>2026-05-03T12:54:31.981Z</time></trkpt><trkpt lat="46.088371163258486" lon="8.919937450901287"><ele>412.25</ele><time>2026-05-03T12:54:32.981Z</time></trkpt><trkpt lat="46.08823687753503" lon="8.919908514226304"><ele>411.0</ele><time>2026-05-03T12:54:33.982Z</time></trkpt><trkpt lat="46.08810155007048" lon="8.919897359063537"><ele>411.0</ele><time>2026-05-03T12:54:34.981Z</time></trkpt><trkpt lat="46.087965037000366" lon="8.919900066764272"><ele>411.0</ele><time>2026-05-03T12:54:35.981Z</time></trkpt><trkpt lat="46.08782842318904" lon="8.919908764381056"><ele>411.0</ele><time>2026-05-03T12:54:36.981Z</time></trkpt><trkpt lat="46.087693004130564" lon="8.919917387473358"><ele>411.0</ele><time>2026-05-03T12:54:37.981Z</time></trkpt><trkpt lat="46.08755544231546" lon="8.919923413455578"><ele>411.5</ele><time>2026-05-03T12:54:38.981Z</time></trkpt><trkpt lat="46.08741975207809" lon="8.919929621393425"><ele>412.0</ele><time>2026-05-03T12:54:39.981Z</time></trkpt><trkpt lat="46.087282334909936" lon="8.919940607048076"><ele>412.5</ele><time>2026-05-03T12:54:40.982Z</time></trkpt><trkpt lat="46.087141860798376" lon="8.919925298647003"><ele>413.0</ele><time>2026-05-03T12:54:41.982Z</time></trkpt><trkpt lat="46.08700393991332" lon="8.919932032230912"><ele>413.0</ele><time>2026-05-03T12:54:42.981Z</time></trkpt><trkpt lat="46.08686840008546" lon="8.919938886912542"><ele>413.0</ele><time>2026-05-03T12:54:43.981Z</time></trkpt><trkpt lat="46.086738459741255" lon="8.919942519627503"><ele>413.0</ele><time>2026-05-03T12:54:44.981Z</time></trkpt><trkpt lat="46.08660847535793" lon="8.919945638987361"><ele>413.0</ele><time>2026-05-03T12:54:45.981Z</time></trkpt><trkpt lat="46.08647732527684" lon="8.919948786321724"><ele>412.4</ele><time>2026-05-03T12:54:46.981Z</time></trkpt><trkpt lat="46.08635337167979" lon="8.9199503203413"><ele>411.79999999999995</ele><time>2026-05-03T12:54:47.981Z</time></trkpt><trkpt lat="46.086243532635194" lon="8.919972136534692"><ele>411.2</ele><time>2026-05-03T12:54:48.981Z</time></trkpt><trkpt lat="46.08614493350521" lon="8.919972375824104"><ele>410.6</ele><time>2026-05-03T12:54:49.981Z</time></trkpt><trkpt lat="46.086051656837235" lon="8.919967024162599"><ele>410.0</ele><time>2026-05-03T12:54:50.981Z</time></trkpt><trkpt lat="46.08596228628467" lon="8.919963907801849"><ele>409.99999999999994</ele><time>2026-05-03T12:54:51.981Z</time></trkpt><trkpt lat="46.085883522921335" lon="8.91996724121899"><ele>410.0</ele><time>2026-05-03T12:54:52.981Z</time></trkpt><trkpt lat="46.08581261301673" lon="8.91993528387036"><ele>410.0</ele><time>2026-05-03T12:54:53.981Z</time></trkpt><trkpt lat="46.08573405180792" lon="8.91991184611795"><ele>410.0</ele><time>2026-05-03T12:54:54.981Z</time></trkpt><trkpt lat="46.08566666803648" lon="8.919868754630027"><ele>409.99999999999994</ele><time>2026-05-03T12:54:55.981Z</time></trkpt><trkpt lat="46.085568848257054" lon="8.919983791989281"><ele>410.0</ele><time>2026-05-03T12:54:56.981Z</time></trkpt><trkpt lat="46.085469662154416" lon="8.920019220257341"><ele>410.25</ele><time>2026-05-03T12:54:57.981Z</time></trkpt><trkpt lat="46.085357419951706" lon="8.920004349541086"><ele>410.5</ele><time>2026-05-03T12:54:58.981Z</time></trkpt><trkpt lat="46.08523888551373" lon="8.920034080263887"><ele>410.75</ele><time>2026-05-03T12:54:59.981Z</time></trkpt><trkpt lat="46.085112011734246" lon="8.920042373139529"><ele>411.0</ele><time>2026-05-03T12:55:00.981Z</time></trkpt><trkpt lat="46.084984772343816" lon="8.920051208024335"><ele>412.66666666666663</ele><time>2026-05-03T12:55:01.982Z</time></trkpt><trkpt lat="46.08484309638906" lon="8.920026045530612"><ele>414.3333333333333</ele><time>2026-05-03T12:55:02.982Z</time></trkpt><trkpt lat="46.08469308531883" lon="8.92004246209383"><ele>416.0</ele><time>2026-05-03T12:55:03.982Z</time></trkpt><trkpt lat="46.08452478238261" lon="8.920062447757692"><ele>414.3333333333333</ele><time>2026-05-03T12:55:04.982Z</time></trkpt><trkpt lat="46.084342089486235" lon="8.920083732393636"><ele>412.66666666666663</ele><time>2026-05-03T12:55:05.982Z</time></trkpt><trkpt lat="46.0841434422637" lon="8.920098649387613"><ele>411.0</ele><time>2026-05-03T12:55:06.982Z</time></trkpt><trkpt lat="46.083933970080295" lon="8.920080051171226"><ele>409.33333333333337</ele><time>2026-05-03T12:55:07.982Z</time></trkpt><trkpt lat="46.083731573955205" lon="8.920081841556245"><ele>407.6666666666667</ele><time>2026-05-03T12:55:08.982Z</time></trkpt><trkpt lat="46.0835255759698" lon="8.92008214370124"><ele>406.0</ele><time>2026-05-03T12:55:09.982Z</time></trkpt><trkpt lat="46.08332223433246" lon="8.920083895440232"><ele>406.0</ele><time>2026-05-03T12:55:10.982Z</time></trkpt><trkpt lat="46.08310839393939" lon="8.920091683738983"><ele>406.0</ele><time>2026-05-03T12:55:11.982Z</time></trkpt><trkpt lat="46.082892544227406" lon="8.92009563004305"><ele>406.0</ele><time>2026-05-03T12:55:12.982Z</time></trkpt><trkpt lat="46.082679226503615" lon="8.92010199616231"><ele>406.0</ele><time>2026-05-03T12:55:13.982Z</time></trkpt><trkpt lat="46.08245670860425" lon="8.920117685511112"><ele>406.0</ele><time>2026-05-03T12:55:14.982Z</time></trkpt><trkpt lat="46.08223455949232" lon="8.920129811773535"><ele>406.0</ele><time>2026-05-03T12:55:15.982Z</time></trkpt><trkpt lat="46.082017175679574" lon="8.920140369206031"><ele>405.33333333333337</ele><time>2026-05-03T12:55:16.982Z</time></trkpt><trkpt lat="46.08180621226869" lon="8.920158400979878"><ele>404.66666666666663</ele><time>2026-05-03T12:55:17.982Z</time></trkpt><trkpt lat="46.081589458331855" lon="8.920168805336438"><ele>404.0</ele><time>2026-05-03T12:55:18.982Z</time></trkpt><trkpt lat="46.08137153667759" lon="8.920181481729045"><ele>403.3333333333333</ele><time>2026-05-03T12:55:19.982Z</time></trkpt><trkpt lat="46.08115282968747" lon="8.920192271207135"><ele>402.66666666666663</ele><time>2026-05-03T12:55:20.982Z</time></trkpt><trkpt lat="46.08093559454714" lon="8.920201583152636"><ele>402.0</ele><time>2026-05-03T12:55:21.982Z</time></trkpt><trkpt lat="46.08071958341315" lon="8.92020668609609"><ele>401.33333333333337</ele><time>2026-05-03T12:55:22.982Z</time></trkpt><trkpt lat="46.08050837382564" lon="8.920211946205336"><ele>400.6666666666667</ele><time>2026-05-03T12:55:23.982Z</time></trkpt><trkpt lat="46.08029233620239" lon="8.920213489043565"><ele>400.0</ele><time>2026-05-03T12:55:24.982Z</time></trkpt><trkpt lat="46.08007813459712" lon="8.920234883992205"><ele>400.6666666666667</ele><time>2026-05-03T12:55:25.982Z</time></trkpt><trkpt lat="46.07985902737874" lon="8.920262413633282"><ele>401.33333333333337</ele><time>2026-05-03T12:55:26.982Z</time></trkpt><trkpt lat="46.07964489280211" lon="8.92031100136542"><ele>402.0</ele><time>2026-05-03T12:55:27.982Z</time></trkpt><trkpt lat="46.07942943385894" lon="8.920372571119437"><ele>402.0</ele><time>2026-05-03T12:55:28.982Z</time></trkpt><trkpt lat="46.07921806186192" lon="8.920446338941023"><ele>402.0</ele><time>2026-05-03T12:55:29.982Z</time></trkpt><trkpt lat="46.079008315777344" lon="8.92053617071778"><ele>402.0</ele><time>2026-05-03T12:55:30.982Z</time></trkpt><trkpt lat="46.07880458627715" lon="8.920633632722224"><ele>400.66666666666663</ele><time>2026-05-03T12:55:31.982Z</time></trkpt><trkpt lat="46.078604608712624" lon="8.92074704178839"><ele>399.3333333333333</ele><time>2026-05-03T12:55:32.982Z</time></trkpt><trkpt lat="46.078408480656215" lon="8.920907980262394"><ele>398.0</ele><time>2026-05-03T12:55:33.982Z</time></trkpt><trkpt lat="46.07821692704292" lon="8.921061231362286"><ele>397.3333333333333</ele><time>2026-05-03T12:55:34.982Z</time></trkpt><trkpt lat="46.07803163963745" lon="8.921231471917839"><ele>396.66666666666663</ele><time>2026-05-03T12:55:35.982Z</time></trkpt><trkpt lat="46.0778517958911" lon="8.92141680386709"><ele>396.0</ele><time>2026-05-03T12:55:36.982Z</time></trkpt><trkpt lat="46.077680444614046" lon="8.921617788041818"><ele>395.0</ele><time>2026-05-03T12:55:37.982Z</time></trkpt><trkpt lat="46.07751400148032" lon="8.92182922919448"><ele>394.0</ele><time>2026-05-03T12:55:38.982Z</time></trkpt><trkpt lat="46.077349265931275" lon="8.922043015900723"><ele>393.0</ele><time>2026-05-03T12:55:39.982Z</time></trkpt><trkpt lat="46.07718665109988" lon="8.92226044320303"><ele>395.33333333333337</ele><time>2026-05-03T12:55:40.982Z</time></trkpt><trkpt lat="46.07702302753244" lon="8.922472480053978"><ele>397.6666666666667</ele><time>2026-05-03T12:55:41.982Z</time></trkpt><trkpt lat="46.07685589940067" lon="8.922679221458175"><ele>400.0</ele><time>2026-05-03T12:55:42.982Z</time></trkpt><trkpt lat="46.07668903615159" lon="8.922892312080505"><ele>399.33333333333337</ele><time>2026-05-03T12:55:43.982Z</time></trkpt><trkpt lat="46.0765227983377" lon="8.92310057887329"><ele>398.66666666666663</ele><time>2026-05-03T12:55:44.982Z</time></trkpt><trkpt lat="46.076358285012866" lon="8.923305266442583"><ele>398.0</ele><time>2026-05-03T12:55:45.982Z</time></trkpt><trkpt lat="46.0761943662407" lon="8.923505145079668"><ele>398.0</ele><time>2026-05-03T12:55:46.982Z</time></trkpt><trkpt lat="46.07602757456476" lon="8.923714990890797"><ele>398.0</ele><time>2026-05-03T12:55:47.982Z</time></trkpt><trkpt lat="46.075862830889626" lon="8.92392242523857"><ele>398.0</ele><time>2026-05-03T12:55:48.982Z</time></trkpt><trkpt lat="46.075696685937096" lon="8.924137069446521"><ele>395.0</ele><time>2026-05-03T12:55:49.982Z</time></trkpt><trkpt lat="46.07552872716301" lon="8.92434570786138"><ele>392.0</ele><time>2026-05-03T12:55:50.982Z</time></trkpt><trkpt lat="46.07536212143759" lon="8.924574402840868"><ele>392.0</ele><time>2026-05-03T12:55:51.982Z</time></trkpt><trkpt lat="46.07519828810063" lon="8.92478446742741"><ele>392.0</ele><time>2026-05-03T12:55:52.983Z</time></trkpt><trkpt lat="46.07503381394959" lon="8.924998483755585"><ele>392.0</ele><time>2026-05-03T12:55:53.983Z</time></trkpt><trkpt lat="46.0748646074999" lon="8.925208162584656"><ele>393.66666666666663</ele><time>2026-05-03T12:55:54.983Z</time></trkpt><trkpt lat="46.07469433805996" lon="8.925419705624314"><ele>395.33333333333337</ele><time>2026-05-03T12:55:55.983Z</time></trkpt><trkpt lat="46.07453143767748" lon="8.925629660167532"><ele>397.0</ele><time>2026-05-03T12:55:56.983Z</time></trkpt><trkpt lat="46.07437302151998" lon="8.925838292514367"><ele>398.6666666666667</ele><time>2026-05-03T12:55:57.983Z</time></trkpt><trkpt lat="46.07421967503311" lon="8.9260468121172"><ele>400.33333333333337</ele><time>2026-05-03T12:55:58.983Z</time></trkpt><trkpt lat="46.074071320023656" lon="8.92625794390547"><ele>402.0</ele><time>2026-05-03T12:55:59.983Z</time></trkpt><trkpt lat="46.07393419586844" lon="8.926474253112938"><ele>402.0</ele><time>2026-05-03T12:56:00.983Z</time></trkpt><trkpt lat="46.07379954961118" lon="8.92669600515237"><ele>402.0</ele><time>2026-05-03T12:56:01.983Z</time></trkpt><trkpt lat="46.07366598733286" lon="8.9269200458718"><ele>402.0</ele><time>2026-05-03T12:56:02.983Z</time></trkpt><trkpt lat="46.07353404271117" lon="8.927148362194272"><ele>396.0</ele><time>2026-05-03T12:56:03.983Z</time></trkpt><trkpt lat="46.07340703199478" lon="8.92738055721545"><ele>390.0</ele><time>2026-05-03T12:56:04.983Z</time></trkpt><trkpt lat="46.07326878175371" lon="8.927617891794862"><ele>384.0</ele><time>2026-05-03T12:56:05.983Z</time></trkpt><trkpt lat="46.07314773895159" lon="8.927838501005827"><ele>382.6666666666667</ele><time>2026-05-03T12:56:06.983Z</time></trkpt><trkpt lat="46.07303525690932" lon="8.928105013434575"><ele>381.33333333333337</ele><time>2026-05-03T12:56:07.983Z</time></trkpt><trkpt lat="46.07293124544071" lon="8.928378427634582"><ele>380.0</ele><time>2026-05-03T12:56:08.983Z</time></trkpt><trkpt lat="46.072829985674886" lon="8.928656059594744"><ele>378.33333333333337</ele><time>2026-05-03T12:56:09.983Z</time></trkpt><trkpt lat="46.072742246905406" lon="8.928928628967832"><ele>376.6666666666667</ele><time>2026-05-03T12:56:10.983Z</time></trkpt><trkpt lat="46.07265938690692" lon="8.929205095241525"><ele>375.0</ele><time>2026-05-03T12:56:11.983Z</time></trkpt><trkpt lat="46.07258097054398" lon="8.929482068109495"><ele>374.3333333333333</ele><time>2026-05-03T12:56:12.983Z</time></trkpt><trkpt lat="46.07250086079846" lon="8.929760951555847"><ele>373.66666666666663</ele><time>2026-05-03T12:56:13.983Z</time></trkpt><trkpt lat="46.07243595919297" lon="8.930043054190705"><ele>373.0</ele><time>2026-05-03T12:56:14.983Z</time></trkpt><trkpt lat="46.072369345277096" lon="8.930317268465771"><ele>369.66666666666663</ele><time>2026-05-03T12:56:15.983Z</time></trkpt><trkpt lat="46.07230489371316" lon="8.930588120646485"><ele>366.3333333333333</ele><time>2026-05-03T12:56:16.983Z</time></trkpt><trkpt lat="46.07223993592847" lon="8.930849609457656"><ele>363.0</ele><time>2026-05-03T12:56:17.983Z</time></trkpt><trkpt lat="46.072181837565964" lon="8.931098101725398"><ele>363.0</ele><time>2026-05-03T12:56:18.983Z</time></trkpt><trkpt lat="46.072126314639334" lon="8.931333014466368"><ele>363.0</ele><time>2026-05-03T12:56:19.983Z</time></trkpt><trkpt lat="46.072075221558876" lon="8.931555516338404"><ele>363.0</ele><time>2026-05-03T12:56:20.983Z</time></trkpt><trkpt lat="46.072029398285856" lon="8.931762778261422"><ele>363.5</ele><time>2026-05-03T12:56:21.983Z</time></trkpt><trkpt lat="46.071986928213576" lon="8.931955431670222"><ele>364.0</ele><time>2026-05-03T12:56:22.983Z</time></trkpt><trkpt lat="46.07195326171196" lon="8.932143172180888"><ele>364.5</ele><time>2026-05-03T12:56:23.983Z</time></trkpt><trkpt lat="46.071922751305976" lon="8.932313735748918"><ele>365.0</ele><time>2026-05-03T12:56:24.983Z</time></trkpt><trkpt lat="46.07188938498627" lon="8.932466280641409"><ele>365.25</ele><time>2026-05-03T12:56:25.983Z</time></trkpt><trkpt lat="46.071845746893786" lon="8.93260788360868"><ele>365.5</ele><time>2026-05-03T12:56:26.983Z</time></trkpt><trkpt lat="46.071786569374176" lon="8.932735492252677"><ele>365.75</ele><time>2026-05-03T12:56:27.983Z</time></trkpt><trkpt lat="46.071745662880375" lon="8.932885551509283"><ele>366.0</ele><time>2026-05-03T12:56:28.983Z</time></trkpt><trkpt lat="46.071708498704524" lon="8.933064294168348"><ele>366.0</ele><time>2026-05-03T12:56:29.983Z</time></trkpt><trkpt lat="46.07166277602017" lon="8.93323132441691"><ele>366.0</ele><time>2026-05-03T12:56:30.983Z</time></trkpt><trkpt lat="46.07160926107051" lon="8.933397809027905"><ele>366.0</ele><time>2026-05-03T12:56:31.983Z</time></trkpt><trkpt lat="46.071557005662115" lon="8.933574183355839"><ele>366.0</ele><time>2026-05-03T12:56:32.983Z</time></trkpt><trkpt lat="46.071493486777364" lon="8.933797674654667"><ele>367.3333333333333</ele><time>2026-05-03T12:56:33.983Z</time></trkpt><trkpt lat="46.0714204333581" lon="8.934015067968442"><ele>368.66666666666663</ele><time>2026-05-03T12:56:34.983Z</time></trkpt><trkpt lat="46.071335149354226" lon="8.934211328422716"><ele>370.0</ele><time>2026-05-03T12:56:35.983Z</time></trkpt><trkpt lat="46.071239054009" lon="8.934392452065687"><ele>370.0</ele><time>2026-05-03T12:56:36.981Z</time></trkpt><trkpt lat="46.07113149339537" lon="8.93456410439929"><ele>370.0</ele><time>2026-05-03T12:56:37.982Z</time></trkpt><trkpt lat="46.07101853980126" lon="8.934714807871801"><ele>370.0</ele><time>2026-05-03T12:56:38.982Z</time></trkpt><trkpt lat="46.07089702573563" lon="8.934871848440801"><ele>371.66666666666663</ele><time>2026-05-03T12:56:39.982Z</time></trkpt><trkpt lat="46.07077274498774" lon="8.934994918669108"><ele>373.3333333333333</ele><time>2026-05-03T12:56:40.981Z</time></trkpt><trkpt lat="46.070635384281765" lon="8.935117483173693"><ele>375.0</ele><time>2026-05-03T12:56:41.981Z</time></trkpt><trkpt lat="46.070492568883836" lon="8.935209876185729"><ele>376.0</ele><time>2026-05-03T12:56:42.981Z</time></trkpt><trkpt lat="46.07034569569126" lon="8.935287916746681"><ele>377.0</ele><time>2026-05-03T12:56:43.981Z</time></trkpt><trkpt lat="46.07019409856908" lon="8.935351398890162"><ele>378.0</ele><time>2026-05-03T12:56:44.981Z</time></trkpt><trkpt lat="46.07003875757257" lon="8.935401142444936"><ele>375.0</ele><time>2026-05-03T12:56:45.982Z</time></trkpt><trkpt lat="46.06987729938564" lon="8.93542362433147"><ele>372.0</ele><time>2026-05-03T12:56:46.981Z</time></trkpt><trkpt lat="46.06971479825593" lon="8.935432846376932"><ele>369.0</ele><time>2026-05-03T12:56:47.981Z</time></trkpt><trkpt lat="46.06954007118463" lon="8.935444590797935"><ele>369.0</ele><time>2026-05-03T12:56:48.982Z</time></trkpt><trkpt lat="46.06936616316298" lon="8.935430439796383"><ele>369.0</ele><time>2026-05-03T12:56:49.981Z</time></trkpt><trkpt lat="46.06918248736285" lon="8.935432687284392"><ele>369.0</ele><time>2026-05-03T12:56:50.981Z</time></trkpt><trkpt lat="46.06900726019577" lon="8.93542051555474"><ele>367.75</ele><time>2026-05-03T12:56:51.981Z</time></trkpt><trkpt lat="46.068845508952734" lon="8.935417603348828"><ele>366.5</ele><time>2026-05-03T12:56:52.981Z</time></trkpt><trkpt lat="46.068703144659075" lon="8.935412186517848"><ele>365.25</ele><time>2026-05-03T12:56:53.981Z</time></trkpt><trkpt lat="46.06857508457318" lon="8.935404135036777"><ele>364.0</ele><time>2026-05-03T12:56:54.981Z</time></trkpt><trkpt lat="46.06846536045203" lon="8.935397617884119"><ele>364.0</ele><time>2026-05-03T12:56:55.981Z</time></trkpt><trkpt lat="46.06836721056056" lon="8.935388275169341"><ele>364.0</ele><time>2026-05-03T12:56:56.981Z</time></trkpt><trkpt lat="46.06827953059622" lon="8.935366156954492"><ele>364.0</ele><time>2026-05-03T12:56:57.981Z</time></trkpt><trkpt lat="46.06819096441122" lon="8.935329577112055"><ele>364.0</ele><time>2026-05-03T12:56:58.981Z</time></trkpt><trkpt lat="46.068084727955" lon="8.93533698938302"><ele>364.0</ele><time>2026-05-03T12:56:59.981Z</time></trkpt><trkpt lat="46.06798129356691" lon="8.935383823256156"><ele>362.75</ele><time>2026-05-03T12:57:00.981Z</time></trkpt><trkpt lat="46.06787062162247" lon="8.935404752982627"><ele>361.5</ele><time>2026-05-03T12:57:01.981Z</time></trkpt><trkpt lat="46.06774192573702" lon="8.935375385218325"><ele>360.25</ele><time>2026-05-03T12:57:02.981Z</time></trkpt><trkpt lat="46.06761216893466" lon="8.935349564594901"><ele>359.0</ele><time>2026-05-03T12:57:03.982Z</time></trkpt><trkpt lat="46.06748125374813" lon="8.935321853113077"><ele>357.0</ele><time>2026-05-03T12:57:04.982Z</time></trkpt><trkpt lat="46.06734901087566" lon="8.935287780402911"><ele>355.0</ele><time>2026-05-03T12:57:05.982Z</time></trkpt><trkpt lat="46.06721378516763" lon="8.935253506037041"><ele>353.0</ele><time>2026-05-03T12:57:06.982Z</time></trkpt><trkpt lat="46.06707741541768" lon="8.93521365995575"><ele>351.0</ele><time>2026-05-03T12:57:07.982Z</time></trkpt><trkpt lat="46.06694123759079" lon="8.935165461845301"><ele>351.0</ele><time>2026-05-03T12:57:08.982Z</time></trkpt><trkpt lat="46.06680387250712" lon="8.935114106751668"><ele>351.0</ele><time>2026-05-03T12:57:09.982Z</time></trkpt><trkpt lat="46.0666643625851" lon="8.93505516115591"><ele>351.0</ele><time>2026-05-03T12:57:10.982Z</time></trkpt><trkpt lat="46.06652039015343" lon="8.934993134485763"><ele>351.0</ele><time>2026-05-03T12:57:11.982Z</time></trkpt><trkpt lat="46.0663722065808" lon="8.93491666980225"><ele>351.0</ele><time>2026-05-03T12:57:12.982Z</time></trkpt><trkpt lat="46.06623019267375" lon="8.934846105083293"><ele>351.0</ele><time>2026-05-03T12:57:13.982Z</time></trkpt><trkpt lat="46.06608474201252" lon="8.934769762522345"><ele>351.0</ele><time>2026-05-03T12:57:14.982Z</time></trkpt><trkpt lat="46.06593374800192" lon="8.934692586061674"><ele>351.0</ele><time>2026-05-03T12:57:15.982Z</time></trkpt><trkpt lat="46.06579708685602" lon="8.934624458364226"><ele>351.0</ele><time>2026-05-03T12:57:16.982Z</time></trkpt><trkpt lat="46.065658867686295" lon="8.9345535953046"><ele>351.0</ele><time>2026-05-03T12:57:17.982Z</time></trkpt><trkpt lat="46.065520589393124" lon="8.934480060405408"><ele>351.0</ele><time>2026-05-03T12:57:18.982Z</time></trkpt><trkpt lat="46.06538605726001" lon="8.934409054302137"><ele>350.75</ele><time>2026-05-03T12:57:19.982Z</time></trkpt><trkpt lat="46.06525246554949" lon="8.934335844765046"><ele>350.5</ele><time>2026-05-03T12:57:20.982Z</time></trkpt><trkpt lat="46.065118919371876" lon="8.934266925439198"><ele>350.25</ele><time>2026-05-03T12:57:21.982Z</time></trkpt><trkpt lat="46.0649894901453" lon="8.934197754177047"><ele>350.0</ele><time>2026-05-03T12:57:22.982Z</time></trkpt><trkpt lat="46.064869768495214" lon="8.934135272878812"><ele>352.5</ele><time>2026-05-03T12:57:23.982Z</time></trkpt><trkpt lat="46.06476071987846" lon="8.93407909620505"><ele>355.0</ele><time>2026-05-03T12:57:24.982Z</time></trkpt><trkpt lat="46.0646532490134" lon="8.93402652806438"><ele>357.5</ele><time>2026-05-03T12:57:25.982Z</time></trkpt><trkpt lat="46.064543664505265" lon="8.933970544215194"><ele>360.0</ele><time>2026-05-03T12:57:26.982Z</time></trkpt><trkpt lat="46.06443595090938" lon="8.933915090944305"><ele>360.0</ele><time>2026-05-03T12:57:27.982Z</time></trkpt><trkpt lat="46.064330765427776" lon="8.933861445108148"><ele>360.0</ele><time>2026-05-03T12:57:28.982Z</time></trkpt><trkpt lat="46.064226319861234" lon="8.933808734096711"><ele>360.0</ele><time>2026-05-03T12:57:29.982Z</time></trkpt><trkpt lat="46.064116958601645" lon="8.9337493324034"><ele>360.0</ele><time>2026-05-03T12:57:30.982Z</time></trkpt><trkpt lat="46.064015203185164" lon="8.933697487563546"><ele>360.0</ele><time>2026-05-03T12:57:31.982Z</time></trkpt><trkpt lat="46.063910282238425" lon="8.93364484869917"><ele>362.75</ele><time>2026-05-03T12:57:32.982Z</time></trkpt><trkpt lat="46.06380137658538" lon="8.933590009439621"><ele>365.5</ele><time>2026-05-03T12:57:33.982Z</time></trkpt><trkpt lat="46.063692244349625" lon="8.93353510294425"><ele>368.25</ele><time>2026-05-03T12:57:34.982Z</time></trkpt><trkpt lat="46.06358071804044" lon="8.9334785701692"><ele>371.0</ele><time>2026-05-03T12:57:35.982Z</time></trkpt><trkpt lat="46.063464635700385" lon="8.9334206308222"><ele>369.5</ele><time>2026-05-03T12:57:36.982Z</time></trkpt><trkpt lat="46.06334711339199" lon="8.933362781600868"><ele>368.0</ele><time>2026-05-03T12:57:37.982Z</time></trkpt><trkpt lat="46.063227297626504" lon="8.933305978355774"><ele>366.5</ele><time>2026-05-03T12:57:38.982Z</time></trkpt><trkpt lat="46.06310485910071" lon="8.933250882168142"><ele>365.0</ele><time>2026-05-03T12:57:39.982Z</time></trkpt><trkpt lat="46.062984194566724" lon="8.933189083383375"><ele>365.0</ele><time>2026-05-03T12:57:40.982Z</time></trkpt><trkpt lat="46.06286348420333" lon="8.933126879285288"><ele>365.0</ele><time>2026-05-03T12:57:41.982Z</time></trkpt><trkpt lat="46.06273819617239" lon="8.933066228043199"><ele>365.0</ele><time>2026-05-03T12:57:42.982Z</time></trkpt><trkpt lat="46.06261068899132" lon="8.933004130224402"><ele>365.0</ele><time>2026-05-03T12:57:43.982Z</time></trkpt><trkpt lat="46.0624815649331" lon="8.932954886220507"><ele>367.75</ele><time>2026-05-03T12:57:44.982Z</time></trkpt><trkpt lat="46.062359026912276" lon="8.932902301052964"><ele>370.5</ele><time>2026-05-03T12:57:45.982Z</time></trkpt><trkpt lat="46.06224204413025" lon="8.932820988862707"><ele>373.25</ele><time>2026-05-03T12:57:46.982Z</time></trkpt><trkpt lat="46.06212196026029" lon="8.932761634499284"><ele>376.0</ele><time>2026-05-03T12:57:47.982Z</time></trkpt><trkpt lat="46.06199503835086" lon="8.93272336142763"><ele>376.0</ele><time>2026-05-03T12:57:48.982Z</time></trkpt><trkpt lat="46.06187342603822" lon="8.932658968656206"><ele>376.0</ele><time>2026-05-03T12:57:49.982Z</time></trkpt><trkpt lat="46.06175654820171" lon="8.932562880957795"><ele>376.0</ele><time>2026-05-03T12:57:50.982Z</time></trkpt><trkpt lat="46.061633559757844" lon="8.932513082816088"><ele>376.0</ele><time>2026-05-03T12:57:51.982Z</time></trkpt><trkpt lat="46.061509221858785" lon="8.932455369306407"><ele>374.75</ele><time>2026-05-03T12:57:52.982Z</time></trkpt><trkpt lat="46.06138676934652" lon="8.93239823905603"><ele>373.5</ele><time>2026-05-03T12:57:53.982Z</time></trkpt><trkpt lat="46.06127329494848" lon="8.932345190736198"><ele>372.25</ele><time>2026-05-03T12:57:54.983Z</time></trkpt><trkpt lat="46.06116841739141" lon="8.93229697821035"><ele>371.0</ele><time>2026-05-03T12:57:55.983Z</time></trkpt><trkpt lat="46.06106172984187" lon="8.932240703301508"><ele>371.0</ele><time>2026-05-03T12:57:56.983Z</time></trkpt><trkpt lat="46.06095899689084" lon="8.932187004723103"><ele>371.0</ele><time>2026-05-03T12:57:57.983Z</time></trkpt><trkpt lat="46.06086721106854" lon="8.932135809927797"><ele>371.0</ele><time>2026-05-03T12:57:58.983Z</time></trkpt><trkpt lat="46.06078165401241" lon="8.932084694156378"><ele>371.0</ele><time>2026-05-03T12:57:59.983Z</time></trkpt><trkpt lat="46.06069637901008" lon="8.932048083691326"><ele>371.0</ele><time>2026-05-03T12:58:00.983Z</time></trkpt><trkpt lat="46.0606159064509" lon="8.932005703427958"><ele>368.6666666666667</ele><time>2026-05-03T12:58:01.983Z</time></trkpt><trkpt lat="46.060532801297306" lon="8.931969467711115"><ele>366.33333333333337</ele><time>2026-05-03T12:58:02.983Z</time></trkpt><trkpt lat="46.06045957565732" lon="8.931930644272661"><ele>364.0</ele><time>2026-05-03T12:58:03.983Z</time></trkpt><trkpt lat="46.06039655849013" lon="8.931883319012629"><ele>361.6666666666667</ele><time>2026-05-03T12:58:04.983Z</time></trkpt><trkpt lat="46.0603407094539" lon="8.931812072711544"><ele>359.3333333333333</ele><time>2026-05-03T12:58:05.983Z</time></trkpt><trkpt lat="46.0602849091535" lon="8.93172628830202"><ele>357.0</ele><time>2026-05-03T12:58:06.983Z</time></trkpt><trkpt lat="46.06021365999285" lon="8.931685347921439"><ele>357.0</ele><time>2026-05-03T12:58:07.983Z</time></trkpt><trkpt lat="46.060110067308045" lon="8.931704785970872"><ele>357.0</ele><time>2026-05-03T12:58:08.983Z</time></trkpt><trkpt lat="46.05999142970407" lon="8.931695882512537"><ele>357.0</ele><time>2026-05-03T12:58:09.983Z</time></trkpt><trkpt lat="46.0598700998793" lon="8.93164614991377"><ele>357.0</ele><time>2026-05-03T12:58:10.983Z</time></trkpt><trkpt lat="46.05975286540429" lon="8.93158477093683"><ele>358.75</ele><time>2026-05-03T12:58:11.983Z</time></trkpt><trkpt lat="46.05963911955317" lon="8.931533176529934"><ele>360.5</ele><time>2026-05-03T12:58:12.983Z</time></trkpt><trkpt lat="46.059519267095254" lon="8.931484388998959"><ele>362.25</ele><time>2026-05-03T12:58:13.983Z</time></trkpt><trkpt lat="46.05939789292734" lon="8.931439984678914"><ele>364.0</ele><time>2026-05-03T12:58:14.983Z</time></trkpt><trkpt lat="46.05927751470776" lon="8.931394348069"><ele>364.0</ele><time>2026-05-03T12:58:15.983Z</time></trkpt><trkpt lat="46.05915542888887" lon="8.93135344242494"><ele>364.0</ele><time>2026-05-03T12:58:16.983Z</time></trkpt><trkpt lat="46.059028142674215" lon="8.93127173559473"><ele>364.0</ele><time>2026-05-03T12:58:17.983Z</time></trkpt><trkpt lat="46.058897022653134" lon="8.93123005596208"><ele>364.0</ele><time>2026-05-03T12:58:18.983Z</time></trkpt><trkpt lat="46.058771085264866" lon="8.93119381470557"><ele>366.5</ele><time>2026-05-03T12:58:19.983Z</time></trkpt><trkpt lat="46.058643536351724" lon="8.93116462218872"><ele>369.0</ele><time>2026-05-03T12:58:20.983Z</time></trkpt><trkpt lat="46.058515008760466" lon="8.931126247264165"><ele>371.5</ele><time>2026-05-03T12:58:21.983Z</time></trkpt><trkpt lat="46.05838329428945" lon="8.931079664420325"><ele>374.0</ele><time>2026-05-03T12:58:22.983Z</time></trkpt><trkpt lat="46.05825734789511" lon="8.93104006573481"><ele>374.0</ele><time>2026-05-03T12:58:23.983Z</time></trkpt><trkpt lat="46.058127772857205" lon="8.931003345926667"><ele>374.0</ele><time>2026-05-03T12:58:24.983Z</time></trkpt><trkpt lat="46.05800345141775" lon="8.930954657989922"><ele>374.0</ele><time>2026-05-03T12:58:25.983Z</time></trkpt><trkpt lat="46.05788106754694" lon="8.930911087290854"><ele>374.0</ele><time>2026-05-03T12:58:26.983Z</time></trkpt><trkpt lat="46.05775521961623" lon="8.930871127345434"><ele>367.5</ele><time>2026-05-03T12:58:27.983Z</time></trkpt><trkpt lat="46.05762974001584" lon="8.93083071144112"><ele>361.0</ele><time>2026-05-03T12:58:28.983Z</time></trkpt><trkpt lat="46.05750205186745" lon="8.930797233860421"><ele>354.5</ele><time>2026-05-03T12:58:29.983Z</time></trkpt><trkpt lat="46.05737721871403" lon="8.930767523024619"><ele>348.0</ele><time>2026-05-03T12:58:30.983Z</time></trkpt><trkpt lat="46.05725379102925" lon="8.930732621942369"><ele>348.0</ele><time>2026-05-03T12:58:31.983Z</time></trkpt><trkpt lat="46.05713532479747" lon="8.930696460160064"><ele>348.0</ele><time>2026-05-03T12:58:32.983Z</time></trkpt><trkpt lat="46.057020369494836" lon="8.93066388575194"><ele>348.0</ele><time>2026-05-03T12:58:33.983Z</time></trkpt><trkpt lat="46.056908496731644" lon="8.93062930618242"><ele>348.0</ele><time>2026-05-03T12:58:34.983Z</time></trkpt><trkpt lat="46.05679057937304" lon="8.930594160669289"><ele>348.0</ele><time>2026-05-03T12:58:35.983Z</time></trkpt><trkpt lat="46.0566701814059" lon="8.930555255878744"><ele>348.0</ele><time>2026-05-03T12:58:36.982Z</time></trkpt><trkpt lat="46.05654801084426" lon="8.930520419071945"><ele>348.0</ele><time>2026-05-03T12:58:37.982Z</time></trkpt><trkpt lat="46.056421941436376" lon="8.930489115269657"><ele>348.0</ele><time>2026-05-03T12:58:38.981Z</time></trkpt><trkpt lat="46.056295094884916" lon="8.930455397646234"><ele>349.5</ele><time>2026-05-03T12:58:39.981Z</time></trkpt><trkpt lat="46.05616173741277" lon="8.930418654740794"><ele>351.0</ele><time>2026-05-03T12:58:40.98Z</time></trkpt><trkpt lat="46.05602785920208" lon="8.930370317764602"><ele>352.5</ele><time>2026-05-03T12:58:41.98Z</time></trkpt><trkpt lat="46.05589322096752" lon="8.930324139908743"><ele>354.0</ele><time>2026-05-03T12:58:42.977Z</time></trkpt><trkpt lat="46.0557593181115" lon="8.930276993732063"><ele>355.25</ele><time>2026-05-03T12:58:43.978Z</time></trkpt><trkpt lat="46.0556210726809" lon="8.930228712500071"><ele>356.5</ele><time>2026-05-03T12:58:44.977Z</time></trkpt><trkpt lat="46.05547981939188" lon="8.930180317407208"><ele>357.75</ele><time>2026-05-03T12:58:45.977Z</time></trkpt><trkpt lat="46.05533808528388" lon="8.930135424078918"><ele>359.0</ele><time>2026-05-03T12:58:46.976Z</time></trkpt><trkpt lat="46.05519516145123" lon="8.93008720819353"><ele>355.0</ele><time>2026-05-03T12:58:47.976Z</time></trkpt><trkpt lat="46.055050699124436" lon="8.93004173052494"><ele>351.0</ele><time>2026-05-03T12:58:48.976Z</time></trkpt><trkpt lat="46.05490556040548" lon="8.929995048667392"><ele>347.0</ele><time>2026-05-03T12:58:49.976Z</time></trkpt><trkpt lat="46.054757997887535" lon="8.929946976421562"><ele>343.0</ele><time>2026-05-03T12:58:50.975Z</time></trkpt><trkpt lat="46.05461157282272" lon="8.929897453905316"><ele>343.0</ele><time>2026-05-03T12:58:51.975Z</time></trkpt><trkpt lat="46.05446457068055" lon="8.929844215674468"><ele>343.0</ele><time>2026-05-03T12:58:52.975Z</time></trkpt><trkpt lat="46.05431524598084" lon="8.929786377785419"><ele>343.0</ele><time>2026-05-03T12:58:53.975Z</time></trkpt><trkpt lat="46.054165710000305" lon="8.929719240371137"><ele>344.75</ele><time>2026-05-03T12:58:54.974Z</time></trkpt><trkpt lat="46.05402833776947" lon="8.929652748439809"><ele>346.5</ele><time>2026-05-03T12:58:55.974Z</time></trkpt><trkpt lat="46.05388846817291" lon="8.929573988357303"><ele>348.25</ele><time>2026-05-03T12:58:56.974Z</time></trkpt><trkpt lat="46.05375132301043" lon="8.929493303742397"><ele>350.0</ele><time>2026-05-03T12:58:57.974Z</time></trkpt><trkpt lat="46.05360954625944" lon="8.929407571749955"><ele>350.0</ele><time>2026-05-03T12:58:58.974Z</time></trkpt><trkpt lat="46.05346981757433" lon="8.92932070055854"><ele>350.0</ele><time>2026-05-03T12:58:59.974Z</time></trkpt><trkpt lat="46.05332579432049" lon="8.929229310327958"><ele>350.0</ele><time>2026-05-03T12:59:00.973Z</time></trkpt><trkpt lat="46.053179826520356" lon="8.92914061014215"><ele>347.33333333333337</ele><time>2026-05-03T12:59:01.973Z</time></trkpt><trkpt lat="46.05303316057274" lon="8.929051375056808"><ele>344.6666666666667</ele><time>2026-05-03T12:59:02.973Z</time></trkpt><trkpt lat="46.05288716569901" lon="8.92896246080682"><ele>342.0</ele><time>2026-05-03T12:59:03.973Z</time></trkpt><trkpt lat="46.05273949937424" lon="8.928865968632937"><ele>342.0</ele><time>2026-05-03T12:59:04.973Z</time></trkpt><trkpt lat="46.052588624270726" lon="8.928773375765841"><ele>342.0</ele><time>2026-05-03T12:59:05.973Z</time></trkpt><trkpt lat="46.052439758842965" lon="8.928679215848375"><ele>342.0</ele><time>2026-05-03T12:59:06.973Z</time></trkpt><trkpt lat="46.052291702700394" lon="8.928586313000084"><ele>339.6666666666667</ele><time>2026-05-03T12:59:07.973Z</time></trkpt><trkpt lat="46.05214462903401" lon="8.928497312258331"><ele>337.33333333333337</ele><time>2026-05-03T12:59:08.973Z</time></trkpt><trkpt lat="46.051998406894334" lon="8.928406077746883"><ele>335.0</ele><time>2026-05-03T12:59:09.973Z</time></trkpt><trkpt lat="46.051854508193955" lon="8.928314876462125"><ele>335.0</ele><time>2026-05-03T12:59:10.973Z</time></trkpt><trkpt lat="46.051711124838086" lon="8.928221143954934"><ele>335.0</ele><time>2026-05-03T12:59:11.973Z</time></trkpt><trkpt lat="46.05156250721286" lon="8.928131438518419"><ele>335.0</ele><time>2026-05-03T12:59:12.973Z</time></trkpt><trkpt lat="46.051424494563264" lon="8.928043194083081"><ele>338.0</ele><time>2026-05-03T12:59:13.973Z</time></trkpt><trkpt lat="46.051295691092946" lon="8.927962972185059"><ele>341.0</ele><time>2026-05-03T12:59:14.973Z</time></trkpt><trkpt lat="46.051170859984914" lon="8.927887623218176"><ele>344.0</ele><time>2026-05-03T12:59:15.973Z</time></trkpt><trkpt lat="46.05105932240277" lon="8.927790123578722"><ele>347.0</ele><time>2026-05-03T12:59:16.973Z</time></trkpt><trkpt lat="46.0509415679544" lon="8.927724911182873"><ele>347.0</ele><time>2026-05-03T12:59:17.973Z</time></trkpt><trkpt lat="46.050830599284716" lon="8.927662821732111"><ele>347.0</ele><time>2026-05-03T12:59:18.972Z</time></trkpt><trkpt lat="46.05071419079692" lon="8.927596917897919"><ele>347.0</ele><time>2026-05-03T12:59:19.972Z</time></trkpt><trkpt lat="46.05059277642677" lon="8.92752654855926"><ele>347.0</ele><time>2026-05-03T12:59:20.972Z</time></trkpt><trkpt lat="46.05046859487425" lon="8.927449976949468"><ele>344.75</ele><time>2026-05-03T12:59:21.972Z</time></trkpt><trkpt lat="46.05033936367594" lon="8.927368679698514"><ele>342.5</ele><time>2026-05-03T12:59:22.972Z</time></trkpt><trkpt lat="46.05020436129614" lon="8.927280781950817"><ele>340.25</ele><time>2026-05-03T12:59:23.972Z</time></trkpt><trkpt lat="46.050066405868954" lon="8.927199739734753"><ele>338.0</ele><time>2026-05-03T12:59:24.972Z</time></trkpt><trkpt lat="46.04992505066246" lon="8.927108560497556"><ele>344.6666666666667</ele><time>2026-05-03T12:59:25.972Z</time></trkpt><trkpt lat="46.049776728908405" lon="8.927020291947796"><ele>351.3333333333333</ele><time>2026-05-03T12:59:26.972Z</time></trkpt><trkpt lat="46.04963483023058" lon="8.926895577540797"><ele>358.0</ele><time>2026-05-03T12:59:27.972Z</time></trkpt><trkpt lat="46.04947100002047" lon="8.926835156366195"><ele>358.0</ele><time>2026-05-03T12:59:28.972Z</time></trkpt><trkpt lat="46.04931406264773" lon="8.926740040284319"><ele>358.0</ele><time>2026-05-03T12:59:29.972Z</time></trkpt><trkpt lat="46.04915626305149" lon="8.92664959476958"><ele>358.0</ele><time>2026-05-03T12:59:30.972Z</time></trkpt><trkpt lat="46.04900579660218" lon="8.926554821987116"><ele>356.0</ele><time>2026-05-03T12:59:31.972Z</time></trkpt><trkpt lat="46.04887020683778" lon="8.926413264466625"><ele>354.0</ele><time>2026-05-03T12:59:32.972Z</time></trkpt><trkpt lat="46.048721541563154" lon="8.9263175541959"><ele>352.0</ele><time>2026-05-03T12:59:33.972Z</time></trkpt><trkpt lat="46.04857113284264" lon="8.926222166171833"><ele>352.0</ele><time>2026-05-03T12:59:34.972Z</time></trkpt><trkpt lat="46.04842051006353" lon="8.92613073692517"><ele>352.0</ele><time>2026-05-03T12:59:35.972Z</time></trkpt><trkpt lat="46.04825767413867" lon="8.926047503428101"><ele>352.0</ele><time>2026-05-03T12:59:36.972Z</time></trkpt><trkpt lat="46.04808793803024" lon="8.926011719953653"><ele>354.66666666666663</ele><time>2026-05-03T12:59:37.972Z</time></trkpt><trkpt lat="46.04792185690297" lon="8.925972253989162"><ele>357.3333333333333</ele><time>2026-05-03T12:59:38.972Z</time></trkpt><trkpt lat="46.04775533067741" lon="8.925971939664702"><ele>360.0</ele><time>2026-05-03T12:59:39.972Z</time></trkpt><trkpt lat="46.047586114897825" lon="8.925935091076564"><ele>358.75</ele><time>2026-05-03T12:59:40.972Z</time></trkpt><trkpt lat="46.0474243812216" lon="8.925938477554766"><ele>357.5</ele><time>2026-05-03T12:59:41.972Z</time></trkpt><trkpt lat="46.04728972581786" lon="8.925946475962188"><ele>356.25</ele><time>2026-05-03T12:59:42.972Z</time></trkpt><trkpt lat="46.047158915701495" lon="8.925924917411121"><ele>355.0</ele><time>2026-05-03T12:59:43.972Z</time></trkpt><trkpt lat="46.047053017726505" lon="8.92592965459802"><ele>347.0</ele><time>2026-05-03T12:59:44.972Z</time></trkpt><trkpt lat="46.047005026994114" lon="8.925621518493719"><ele>339.0</ele><time>2026-05-03T12:59:45.972Z</time></trkpt><trkpt lat="46.04689334750325" lon="8.925468075514832"><ele>331.0</ele><time>2026-05-03T12:59:46.972Z</time></trkpt><trkpt lat="46.046751240974785" lon="8.92534802771286"><ele>329.66666666666663</ele><time>2026-05-03T12:59:47.972Z</time></trkpt><trkpt lat="46.046590164212596" lon="8.925325465220206"><ele>328.3333333333333</ele><time>2026-05-03T12:59:48.973Z</time></trkpt><trkpt lat="46.046437950911475" lon="8.925336911828325"><ele>327.0</ele><time>2026-05-03T12:59:49.973Z</time></trkpt><trkpt lat="46.046289526644706" lon="8.925405727228723"><ele>327.0</ele><time>2026-05-03T12:59:50.973Z</time></trkpt><trkpt lat="46.046136268357394" lon="8.925494132555146"><ele>327.0</ele><time>2026-05-03T12:59:51.973Z</time></trkpt><trkpt lat="46.04598237109373" lon="8.92556058134435"><ele>327.0</ele><time>2026-05-03T12:59:52.973Z</time></trkpt><trkpt lat="46.045838631330746" lon="8.925629094068212"><ele>326.75</ele><time>2026-05-03T12:59:53.973Z</time></trkpt><trkpt lat="46.045709392282475" lon="8.9256972485394"><ele>326.5</ele><time>2026-05-03T12:59:54.973Z</time></trkpt><trkpt lat="46.04558995941968" lon="8.925772708400892"><ele>326.25</ele><time>2026-05-03T12:59:55.973Z</time></trkpt><trkpt lat="46.04546729864662" lon="8.92584867065246"><ele>326.0</ele><time>2026-05-03T12:59:56.973Z</time></trkpt><trkpt lat="46.04535123378409" lon="8.925926407195028"><ele>326.0</ele><time>2026-05-03T12:59:57.973Z</time></trkpt><trkpt lat="46.04523913980818" lon="8.926008432798175"><ele>326.0</ele><time>2026-05-03T12:59:58.973Z</time></trkpt><trkpt lat="46.04512743888495" lon="8.926092614927759"><ele>326.0</ele><time>2026-05-03T12:59:59.973Z</time></trkpt><trkpt lat="46.04501627162236" lon="8.92618656370366"><ele>326.0</ele><time>2026-05-03T13:00:00.973Z</time></trkpt><trkpt lat="46.044910256483384" lon="8.926271967723245"><ele>325.5</ele><time>2026-05-03T13:00:01.973Z</time></trkpt><trkpt lat="46.044796595632" lon="8.926347864599887"><ele>325.0</ele><time>2026-05-03T13:00:02.973Z</time></trkpt><trkpt lat="46.04468702162459" lon="8.926430860725555"><ele>324.5</ele><time>2026-05-03T13:00:03.973Z</time></trkpt><trkpt lat="46.04458397825334" lon="8.926511644120197"><ele>324.0</ele><time>2026-05-03T13:00:04.973Z</time></trkpt><trkpt lat="46.04447497337121" lon="8.926592563830381"><ele>324.0</ele><time>2026-05-03T13:00:05.973Z</time></trkpt><trkpt lat="46.04436195756405" lon="8.926669146015827"><ele>324.0</ele><time>2026-05-03T13:00:06.973Z</time></trkpt><trkpt lat="46.04427721225311" lon="8.926735503083824"><ele>324.0</ele><time>2026-05-03T13:00:07.973Z</time></trkpt><trkpt lat="46.04420860121335" lon="8.926786146658143"><ele>324.0</ele><time>2026-05-03T13:00:08.973Z</time></trkpt><trkpt lat="46.04415438435971" lon="8.926837321524594"><ele>324.0</ele><time>2026-05-03T13:00:09.973Z</time></trkpt><trkpt lat="46.04406029470378" lon="8.926836544833535"><ele>322.8</ele><time>2026-05-03T13:00:11.973Z</time></trkpt><trkpt lat="46.04396544095133" lon="8.926792383978906"><ele>321.59999999999997</ele><time>2026-05-03T13:00:13.973Z</time></trkpt><trkpt lat="46.04391523563663" lon="8.926941015380319"><ele>320.4</ele><time>2026-05-03T13:00:14.973Z</time></trkpt><trkpt lat="46.04389922494879" lon="8.927050037070366"><ele>319.2</ele><time>2026-05-03T13:00:15.973Z</time></trkpt><trkpt lat="46.04387091871416" lon="8.927163061903343"><ele>318.0</ele><time>2026-05-03T13:00:16.973Z</time></trkpt><trkpt lat="46.04382333636157" lon="8.92727970787144"><ele>318.0</ele><time>2026-05-03T13:00:17.973Z</time></trkpt><trkpt lat="46.04375875349414" lon="8.92740759997092"><ele>318.0</ele><time>2026-05-03T13:00:18.973Z</time></trkpt><trkpt lat="46.04369480898577" lon="8.927549721261714"><ele>318.0</ele><time>2026-05-03T13:00:19.973Z</time></trkpt><trkpt lat="46.0436399226542" lon="8.927705153755866"><ele>318.0</ele><time>2026-05-03T13:00:20.973Z</time></trkpt><trkpt lat="46.043583960823504" lon="8.927854896512907"><ele>318.25</ele><time>2026-05-03T13:00:21.973Z</time></trkpt><trkpt lat="46.043525222902524" lon="8.928007704367289"><ele>318.5</ele><time>2026-05-03T13:00:22.973Z</time></trkpt><trkpt lat="46.043453329730895" lon="8.928148484183255"><ele>318.75</ele><time>2026-05-03T13:00:23.973Z</time></trkpt><trkpt lat="46.043391800575854" lon="8.928301638792757"><ele>319.0</ele><time>2026-05-03T13:00:24.973Z</time></trkpt><trkpt lat="46.0433483503751" lon="8.928464261139105"><ele>318.8</ele><time>2026-05-03T13:00:25.973Z</time></trkpt><trkpt lat="46.04328900105891" lon="8.928598159607304"><ele>318.59999999999997</ele><time>2026-05-03T13:00:26.973Z</time></trkpt><trkpt lat="46.043235834423086" lon="8.928724831720611"><ele>318.4</ele><time>2026-05-03T13:00:27.973Z</time></trkpt><trkpt lat="46.04318394323694" lon="8.9288496040574"><ele>318.2</ele><time>2026-05-03T13:00:28.973Z</time></trkpt><trkpt lat="46.04313305795091" lon="8.928974680527121"><ele>318.0</ele><time>2026-05-03T13:00:29.973Z</time></trkpt><trkpt lat="46.04307725258198" lon="8.929094868709408"><ele>318.0</ele><time>2026-05-03T13:00:30.973Z</time></trkpt><trkpt lat="46.0430135719594" lon="8.92922027856617"><ele>318.0</ele><time>2026-05-03T13:00:31.973Z</time></trkpt><trkpt lat="46.04291725271013" lon="8.92933569281641"><ele>318.0</ele><time>2026-05-03T13:00:32.973Z</time></trkpt><trkpt lat="46.042823306949906" lon="8.929466880012544"><ele>318.0</ele><time>2026-05-03T13:00:33.973Z</time></trkpt><trkpt lat="46.042742588572125" lon="8.92959751203228"><ele>318.2</ele><time>2026-05-03T13:00:34.973Z</time></trkpt><trkpt lat="46.04265359202529" lon="8.9296866081721"><ele>318.4</ele><time>2026-05-03T13:00:35.973Z</time></trkpt><trkpt lat="46.04257019890476" lon="8.929759717094814"><ele>318.59999999999997</ele><time>2026-05-03T13:00:36.973Z</time></trkpt><trkpt lat="46.04248945337132" lon="8.929822377749424"><ele>318.8</ele><time>2026-05-03T13:00:37.973Z</time></trkpt><trkpt lat="46.04240614217802" lon="8.929877708542016"><ele>319.0</ele><time>2026-05-03T13:00:38.973Z</time></trkpt><trkpt lat="46.042326472393306" lon="8.929931648514847"><ele>319.0</ele><time>2026-05-03T13:00:39.973Z</time></trkpt><trkpt lat="46.04224374684773" lon="8.929983660775461"><ele>319.0</ele><time>2026-05-03T13:00:40.973Z</time></trkpt><trkpt lat="46.042161418265856" lon="8.93005054880497"><ele>319.0</ele><time>2026-05-03T13:00:41.973Z</time></trkpt><trkpt lat="46.04206620901181" lon="8.93008993226528"><ele>319.0</ele><time>2026-05-03T13:00:42.973Z</time></trkpt><trkpt lat="46.04198034480005" lon="8.93014799782018"><ele>319.0</ele><time>2026-05-03T13:00:43.973Z</time></trkpt><trkpt lat="46.04189494783226" lon="8.930204134649713"><ele>319.0</ele><time>2026-05-03T13:00:44.973Z</time></trkpt><trkpt lat="46.04181200388866" lon="8.930264392106604"><ele>319.0</ele><time>2026-05-03T13:00:45.973Z</time></trkpt><trkpt lat="46.04172693216667" lon="8.930326266185753"><ele>319.0</ele><time>2026-05-03T13:00:46.973Z</time></trkpt><trkpt lat="46.04164377754416" lon="8.930382892210645"><ele>319.0</ele><time>2026-05-03T13:00:47.973Z</time></trkpt><trkpt lat="46.0415609085429" lon="8.930442040962543"><ele>319.0</ele><time>2026-05-03T13:00:48.971Z</time></trkpt><trkpt lat="46.04147461921936" lon="8.93050615037342"><ele>318.8</ele><time>2026-05-03T13:00:49.971Z</time></trkpt><trkpt lat="46.0413886269743" lon="8.930569274845437"><ele>318.59999999999997</ele><time>2026-05-03T13:00:50.971Z</time></trkpt><trkpt lat="46.04130023946591" lon="8.930630844919312"><ele>318.4</ele><time>2026-05-03T13:00:51.972Z</time></trkpt><trkpt lat="46.04121243291909" lon="8.930695222527012"><ele>318.2</ele><time>2026-05-03T13:00:52.971Z</time></trkpt><trkpt lat="46.04111892063295" lon="8.930755064406641"><ele>318.0</ele><time>2026-05-03T13:00:53.971Z</time></trkpt><trkpt lat="46.041030120504246" lon="8.930813562979687"><ele>318.0</ele><time>2026-05-03T13:00:54.971Z</time></trkpt><trkpt lat="46.040941652698216" lon="8.930873846875564"><ele>318.0</ele><time>2026-05-03T13:00:55.972Z</time></trkpt><trkpt lat="46.04085126376491" lon="8.930933535107245"><ele>318.0</ele><time>2026-05-03T13:00:56.972Z</time></trkpt><trkpt lat="46.04076121721887" lon="8.930992741187639"><ele>318.0</ele><time>2026-05-03T13:00:57.972Z</time></trkpt><trkpt lat="46.04067033297921" lon="8.931052658694615"><ele>318.0</ele><time>2026-05-03T13:00:58.972Z</time></trkpt><trkpt lat="46.040580161009366" lon="8.931113339867768"><ele>318.2</ele><time>2026-05-03T13:00:59.972Z</time></trkpt><trkpt lat="46.04048884002677" lon="8.931173023855392"><ele>318.4</ele><time>2026-05-03T13:01:00.972Z</time></trkpt><trkpt lat="46.04039703460029" lon="8.931237902822875"><ele>318.59999999999997</ele><time>2026-05-03T13:01:01.971Z</time></trkpt><trkpt lat="46.040304982344466" lon="8.931302902015133"><ele>318.8</ele><time>2026-05-03T13:01:02.971Z</time></trkpt><trkpt lat="46.04021056381671" lon="8.93136448564426"><ele>319.0</ele><time>2026-05-03T13:01:03.971Z</time></trkpt><trkpt lat="46.04011646425649" lon="8.931427842009292"><ele>319.0</ele><time>2026-05-03T13:01:04.971Z</time></trkpt><trkpt lat="46.040026891144954" lon="8.93148870005198"><ele>319.0</ele><time>2026-05-03T13:01:05.971Z</time></trkpt><trkpt lat="46.03993463729083" lon="8.931551252319215"><ele>319.0</ele><time>2026-05-03T13:01:06.971Z</time></trkpt><trkpt lat="46.03984366760447" lon="8.931613196357075"><ele>319.0</ele><time>2026-05-03T13:01:07.971Z</time></trkpt><trkpt lat="46.03975406599922" lon="8.931666782652824"><ele>319.0</ele><time>2026-05-03T13:01:08.971Z</time></trkpt><trkpt lat="46.039671226825014" lon="8.931716071136004"><ele>318.8333333333333</ele><time>2026-05-03T13:01:09.971Z</time></trkpt><trkpt lat="46.039597590107945" lon="8.931752877176946"><ele>318.66666666666663</ele><time>2026-05-03T13:01:10.971Z</time></trkpt><trkpt lat="46.03952446344677" lon="8.931782800502875"><ele>318.5</ele><time>2026-05-03T13:01:11.971Z</time></trkpt><trkpt lat="46.03942457614919" lon="8.931835964297084"><ele>318.3333333333333</ele><time>2026-05-03T13:01:13.971Z</time></trkpt><trkpt lat="46.03933952064009" lon="8.9318892875636"><ele>318.1666666666667</ele><time>2026-05-03T13:01:15.972Z</time></trkpt><trkpt lat="46.039264371996175" lon="8.931924096386966"><ele>318.0</ele><time>2026-05-03T13:01:18.972Z</time></trkpt><trkpt lat="46.03917011386009" lon="8.931899118014892"><ele>317.8333333333333</ele><time>2026-05-03T13:01:21.972Z</time></trkpt><trkpt lat="46.03907464861007" lon="8.931786538052268"><ele>317.6666666666667</ele><time>2026-05-03T13:01:23.972Z</time></trkpt><trkpt lat="46.039030933764536" lon="8.931680320925436"><ele>317.5</ele><time>2026-05-03T13:01:24.972Z</time></trkpt><trkpt lat="46.03899068945528" lon="8.93158393777361"><ele>317.33333333333337</ele><time>2026-05-03T13:01:25.972Z</time></trkpt><trkpt lat="46.03894264816115" lon="8.93151738486062"><ele>317.1666666666667</ele><time>2026-05-03T13:01:26.972Z</time></trkpt><trkpt lat="46.03892378906155" lon="8.9314019117385"><ele>317.0</ele><time>2026-05-03T13:01:27.972Z</time></trkpt><trkpt lat="46.038888540223326" lon="8.93129647154028"><ele>316.83333333333337</ele><time>2026-05-03T13:01:28.972Z</time></trkpt><trkpt lat="46.0388604105295" lon="8.931191980692226"><ele>316.6666666666667</ele><time>2026-05-03T13:01:29.972Z</time></trkpt><trkpt lat="46.03883106016504" lon="8.931086779628465"><ele>316.5</ele><time>2026-05-03T13:01:30.972Z</time></trkpt><trkpt lat="46.03879500671366" lon="8.93098766586828"><ele>316.3333333333333</ele><time>2026-05-03T13:01:31.972Z</time></trkpt><trkpt lat="46.03875853808012" lon="8.930884562294134"><ele>316.16666666666663</ele><time>2026-05-03T13:01:32.972Z</time></trkpt><trkpt lat="46.03872156852952" lon="8.930777461597035"><ele>316.0</ele><time>2026-05-03T13:01:33.972Z</time></trkpt><trkpt lat="46.03868878324425" lon="8.93066835703304"><ele>315.8333333333333</ele><time>2026-05-03T13:01:34.972Z</time></trkpt><trkpt lat="46.03865426317172" lon="8.930558581595305"><ele>315.66666666666663</ele><time>2026-05-03T13:01:35.972Z</time></trkpt><trkpt lat="46.038623370395285" lon="8.930449304689565"><ele>315.5</ele><time>2026-05-03T13:01:36.972Z</time></trkpt><trkpt lat="46.03858560589959" lon="8.930334602226282"><ele>315.3333333333333</ele><time>2026-05-03T13:01:37.972Z</time></trkpt><trkpt lat="46.03854612784575" lon="8.9302197159837"><ele>315.1666666666667</ele><time>2026-05-03T13:01:38.972Z</time></trkpt><trkpt lat="46.03850669842632" lon="8.930099137150117"><ele>315.0</ele><time>2026-05-03T13:01:39.972Z</time></trkpt><trkpt lat="46.03846850783783" lon="8.929979504169502"><ele>314.8</ele><time>2026-05-03T13:01:40.972Z</time></trkpt><trkpt lat="46.038427457727884" lon="8.929845494623637"><ele>314.6</ele><time>2026-05-03T13:01:41.972Z</time></trkpt><trkpt lat="46.03838723374106" lon="8.929711912715472"><ele>314.4</ele><time>2026-05-03T13:01:42.972Z</time></trkpt><trkpt lat="46.03834896413573" lon="8.929581825831399"><ele>314.2</ele><time>2026-05-03T13:01:43.972Z</time></trkpt><trkpt lat="46.038304765336925" lon="8.929453727367024"><ele>314.0</ele><time>2026-05-03T13:01:44.972Z</time></trkpt><trkpt lat="46.03826404646306" lon="8.929324960667014"><ele>313.4</ele><time>2026-05-03T13:01:45.972Z</time></trkpt><trkpt lat="46.038222395831134" lon="8.92918381919862"><ele>312.79999999999995</ele><time>2026-05-03T13:01:46.972Z</time></trkpt><trkpt lat="46.03817743972847" lon="8.92904128725285"><ele>312.20000000000005</ele><time>2026-05-03T13:01:47.972Z</time></trkpt><trkpt lat="46.03813408685488" lon="8.928896083819863"><ele>311.6</ele><time>2026-05-03T13:01:48.972Z</time></trkpt><trkpt lat="46.03808627254198" lon="8.928750452570721"><ele>311.0</ele><time>2026-05-03T13:01:49.972Z</time></trkpt><trkpt lat="46.03804233750534" lon="8.92861146527093"><ele>311.0</ele><time>2026-05-03T13:01:50.972Z</time></trkpt><trkpt lat="46.03799744642566" lon="8.928467870628566"><ele>311.0</ele><time>2026-05-03T13:01:51.972Z</time></trkpt><trkpt lat="46.03795019726169" lon="8.928325081295693"><ele>311.0</ele><time>2026-05-03T13:01:52.972Z</time></trkpt><trkpt lat="46.03790580360571" lon="8.928172063407283"><ele>311.0</ele><time>2026-05-03T13:01:53.972Z</time></trkpt><trkpt lat="46.03785826801879" lon="8.92802570077306"><ele>311.0</ele><time>2026-05-03T13:01:54.972Z</time></trkpt><trkpt lat="46.037814782335005" lon="8.927873561632088"><ele>310.5</ele><time>2026-05-03T13:01:55.972Z</time></trkpt><trkpt lat="46.03777655656816" lon="8.927712443147696"><ele>310.0</ele><time>2026-05-03T13:01:56.972Z</time></trkpt><trkpt lat="46.03773444251903" lon="8.927542661771827"><ele>309.5</ele><time>2026-05-03T13:01:57.972Z</time></trkpt><trkpt lat="46.03768117148832" lon="8.927370884895785"><ele>309.0</ele><time>2026-05-03T13:01:58.972Z</time></trkpt><trkpt lat="46.037624687664135" lon="8.927197403459322"><ele>309.0</ele><time>2026-05-03T13:01:59.972Z</time></trkpt><trkpt lat="46.03757312098698" lon="8.927028110486894"><ele>309.0</ele><time>2026-05-03T13:02:00.972Z</time></trkpt><trkpt lat="46.03752261616393" lon="8.926850975870407"><ele>309.0</ele><time>2026-05-03T13:02:01.972Z</time></trkpt><trkpt lat="46.03747059483773" lon="8.92670081305638"><ele>309.0</ele><time>2026-05-03T13:02:02.972Z</time></trkpt><trkpt lat="46.0374282561291" lon="8.926542396706125"><ele>308.75</ele><time>2026-05-03T13:02:03.972Z</time></trkpt><trkpt lat="46.037380592981" lon="8.926387346777428"><ele>308.5</ele><time>2026-05-03T13:02:04.972Z</time></trkpt><trkpt lat="46.03733454979372" lon="8.926230460259678"><ele>308.25</ele><time>2026-05-03T13:02:05.972Z</time></trkpt><trkpt lat="46.03727992717386" lon="8.926076263185013"><ele>308.0</ele><time>2026-05-03T13:02:06.972Z</time></trkpt><trkpt lat="46.037220691593994" lon="8.925927053101969"><ele>308.5</ele><time>2026-05-03T13:02:07.972Z</time></trkpt><trkpt lat="46.03715960550183" lon="8.925777303524274"><ele>309.0</ele><time>2026-05-03T13:02:08.972Z</time></trkpt><trkpt lat="46.037095929181646" lon="8.925630333361232"><ele>309.5</ele><time>2026-05-03T13:02:09.972Z</time></trkpt><trkpt lat="46.03702270362607" lon="8.925488142555327"><ele>310.0</ele><time>2026-05-03T13:02:10.972Z</time></trkpt><trkpt lat="46.03693899273645" lon="8.925346717001865"><ele>310.0</ele><time>2026-05-03T13:02:11.972Z</time></trkpt><trkpt lat="46.03685765068452" lon="8.925204719609196"><ele>310.0</ele><time>2026-05-03T13:02:12.972Z</time></trkpt><trkpt lat="46.0367780876235" lon="8.925074307297397"><ele>310.0</ele><time>2026-05-03T13:02:13.972Z</time></trkpt><trkpt lat="46.036696373107844" lon="8.924971570009237"><ele>310.0</ele><time>2026-05-03T13:02:14.972Z</time></trkpt><trkpt lat="46.03660447641404" lon="8.924878357359677"><ele>310.0</ele><time>2026-05-03T13:02:15.973Z</time></trkpt><trkpt lat="46.036502928949574" lon="8.924788556906261"><ele>310.0</ele><time>2026-05-03T13:02:16.973Z</time></trkpt><trkpt lat="46.03639781623123" lon="8.92470359199638"><ele>310.0</ele><time>2026-05-03T13:02:17.973Z</time></trkpt><trkpt lat="46.03629598326885" lon="8.924617559107999"><ele>310.0</ele><time>2026-05-03T13:02:18.973Z</time></trkpt><trkpt lat="46.03619257675495" lon="8.924567932652613"><ele>310.0</ele><time>2026-05-03T13:02:19.973Z</time></trkpt><trkpt lat="46.036109745805255" lon="8.924508334184694"><ele>310.0</ele><time>2026-05-03T13:02:20.973Z</time></trkpt><trkpt lat="46.036019801223794" lon="8.924475638528152"><ele>310.0</ele><time>2026-05-03T13:02:21.973Z</time></trkpt><trkpt lat="46.035942611012835" lon="8.924441303266459"><ele>310.0</ele><time>2026-05-03T13:02:22.973Z</time></trkpt><trkpt lat="46.03589379510385" lon="8.924365978047465"><ele>310.0</ele><time>2026-05-03T13:02:23.973Z</time></trkpt><trkpt lat="46.03583744778464" lon="8.92429255568756"><ele>310.0</ele><time>2026-05-03T13:02:24.973Z</time></trkpt><trkpt lat="46.03574924857502" lon="8.92412262780456"><ele>309.0</ele><time>2026-05-03T13:02:26.973Z</time></trkpt><trkpt lat="46.03564323301622" lon="8.924132474957345"><ele>308.0</ele><time>2026-05-03T13:02:27.973Z</time></trkpt><trkpt lat="46.03554351164627" lon="8.924138434012056"><ele>307.0</ele><time>2026-05-03T13:02:28.973Z</time></trkpt><trkpt lat="46.03544255963912" lon="8.924132723440287"><ele>306.0</ele><time>2026-05-03T13:02:29.973Z</time></trkpt><trkpt lat="46.035338664962765" lon="8.92409089770543"><ele>305.0</ele><time>2026-05-03T13:02:30.973Z</time></trkpt><trkpt lat="46.03522830301632" lon="8.924048370847371"><ele>305.0</ele><time>2026-05-03T13:02:31.973Z</time></trkpt><trkpt lat="46.03512761716485" lon="8.924011096327511"><ele>305.0</ele><time>2026-05-03T13:02:32.973Z</time></trkpt><trkpt lat="46.03503020440035" lon="8.923983821123942"><ele>305.0</ele><time>2026-05-03T13:02:33.973Z</time></trkpt><trkpt lat="46.03493618902052" lon="8.923959812477653"><ele>305.0</ele><time>2026-05-03T13:02:34.973Z</time></trkpt><trkpt lat="46.034850878275506" lon="8.923911841126355"><ele>305.0</ele><time>2026-05-03T13:02:35.973Z</time></trkpt><trkpt lat="46.03476114269316" lon="8.923881510550775"><ele>304.6</ele><time>2026-05-03T13:02:36.973Z</time></trkpt><trkpt lat="46.034672764115605" lon="8.923854186351488"><ele>304.2</ele><time>2026-05-03T13:02:37.973Z</time></trkpt><trkpt lat="46.034584717099186" lon="8.923828919233442"><ele>303.8</ele><time>2026-05-03T13:02:38.973Z</time></trkpt><trkpt lat="46.03449554818616" lon="8.923804801450986"><ele>303.4</ele><time>2026-05-03T13:02:39.973Z</time></trkpt><trkpt lat="46.034406710141546" lon="8.923777187365427"><ele>303.0</ele><time>2026-05-03T13:02:40.973Z</time></trkpt><trkpt lat="46.03431588366364" lon="8.923752243031098"><ele>303.0</ele><time>2026-05-03T13:02:41.973Z</time></trkpt><trkpt lat="46.03422429920228" lon="8.92373547415824"><ele>303.0</ele><time>2026-05-03T13:02:42.973Z</time></trkpt><trkpt lat="46.034135400066056" lon="8.923704641873043"><ele>303.0</ele><time>2026-05-03T13:02:43.973Z</time></trkpt><trkpt lat="46.03405067770922" lon="8.923683677128842"><ele>303.0</ele><time>2026-05-03T13:02:44.973Z</time></trkpt><trkpt lat="46.03396413451889" lon="8.923666184003448"><ele>303.0</ele><time>2026-05-03T13:02:45.973Z</time></trkpt><trkpt lat="46.03387512226537" lon="8.923648899791601"><ele>303.0</ele><time>2026-05-03T13:02:46.973Z</time></trkpt><trkpt lat="46.033784452719864" lon="8.923629115661235"><ele>302.8</ele><time>2026-05-03T13:02:47.973Z</time></trkpt><trkpt lat="46.033693664047455" lon="8.923610248229062"><ele>302.6</ele><time>2026-05-03T13:02:48.973Z</time></trkpt><trkpt lat="46.0336031475065" lon="8.923589586512652"><ele>302.4</ele><time>2026-05-03T13:02:49.973Z</time></trkpt><trkpt lat="46.03351242288785" lon="8.923569663811664"><ele>302.2</ele><time>2026-05-03T13:02:50.973Z</time></trkpt><trkpt lat="46.033420710266924" lon="8.923541672196182"><ele>302.0</ele><time>2026-05-03T13:02:51.973Z</time></trkpt><trkpt lat="46.03332732377042" lon="8.92351454844626"><ele>302.0</ele><time>2026-05-03T13:02:52.973Z</time></trkpt><trkpt lat="46.033236861521985" lon="8.92347619575843"><ele>302.0</ele><time>2026-05-03T13:02:53.971Z</time></trkpt><trkpt lat="46.03314504453575" lon="8.923437395356022"><ele>302.0</ele><time>2026-05-03T13:02:54.971Z</time></trkpt><trkpt lat="46.033053821069835" lon="8.923399332463845"><ele>302.0</ele><time>2026-05-03T13:02:55.971Z</time></trkpt><trkpt lat="46.03296354485854" lon="8.923357518096633"><ele>302.0</ele><time>2026-05-03T13:02:56.971Z</time></trkpt><trkpt lat="46.03287884798076" lon="8.923305619085118"><ele>302.0</ele><time>2026-05-03T13:02:57.971Z</time></trkpt><trkpt lat="46.03280033338377" lon="8.923249943744535"><ele>302.0</ele><time>2026-05-03T13:02:58.971Z</time></trkpt><trkpt lat="46.0327168111434" lon="8.92319872316651"><ele>302.0</ele><time>2026-05-03T13:02:59.97Z</time></trkpt><trkpt lat="46.03263099973871" lon="8.923149065662189"><ele>302.0</ele><time>2026-05-03T13:03:00.971Z</time></trkpt><trkpt lat="46.03255953361814" lon="8.92307183470117"><ele>302.0</ele><time>2026-05-03T13:03:01.971Z</time></trkpt><trkpt lat="46.03247842541344" lon="8.92302379746358"><ele>302.0</ele><time>2026-05-03T13:03:02.971Z</time></trkpt><trkpt lat="46.03240531275725" lon="8.92296058656122"><ele>301.83333333333337</ele><time>2026-05-03T13:03:03.97Z</time></trkpt><trkpt lat="46.03232586347078" lon="8.922893605945172"><ele>301.6666666666667</ele><time>2026-05-03T13:03:04.97Z</time></trkpt><trkpt lat="46.03226331681642" lon="8.92284464688923"><ele>301.5</ele><time>2026-05-03T13:03:05.971Z</time></trkpt><trkpt lat="46.03220142818026" lon="8.922764185844873"><ele>301.3333333333333</ele><time>2026-05-03T13:03:07.971Z</time></trkpt><trkpt lat="46.03220831634802" lon="8.922649358543916"><ele>301.16666666666663</ele><time>2026-05-03T13:03:09.971Z</time></trkpt><trkpt lat="46.03225276568522" lon="8.922510922598372"><ele>301.0</ele><time>2026-05-03T13:03:11.971Z</time></trkpt><trkpt lat="46.03231115820168" lon="8.922422115939503"><ele>301.0</ele><time>2026-05-03T13:03:13.971Z</time></trkpt><trkpt lat="46.03233143507028" lon="8.922323779790704"><ele>301.0</ele><time>2026-05-03T13:03:16.971Z</time></trkpt><trkpt lat="46.03237278157815" lon="8.922246598930855"><ele>301.0</ele><time>2026-05-03T13:03:23.971Z</time></trkpt><trkpt lat="46.03239417908238" lon="8.92216045311956"><ele>301.0</ele><time>2026-05-03T13:03:25.971Z</time></trkpt><trkpt lat="46.03241363819387" lon="8.922051329577602"><ele>301.0</ele><time>2026-05-03T13:03:28.972Z</time></trkpt><trkpt lat="46.032460929909476" lon="8.921962985786609"><ele>301.0</ele><time>2026-05-03T13:03:30.972Z</time></trkpt><trkpt lat="46.03255093753538" lon="8.922109891389173"><ele>301.0</ele><time>2026-05-03T13:03:31.972Z</time></trkpt><trkpt lat="46.03254684480615" lon="8.922209456892842"><ele>301.0</ele><time>2026-05-03T13:03:35.972Z</time></trkpt><trkpt lat="46.0325036595266" lon="8.922125252198022"><ele>301.0</ele><time>2026-05-03T13:03:36.972Z</time></trkpt><trkpt lat="46.03246149878648" lon="8.921878014825568"><ele>301.0</ele><time>2026-05-03T13:03:37.972Z</time></trkpt><trkpt lat="46.03238548716404" lon="8.921885719689612"><ele>301.0</ele><time>2026-05-03T13:08:47.972Z</time></trkpt><trkpt lat="46.032359170467124" lon="8.922240495424768"><ele>301.5</ele><time>2026-05-03T13:09:02.972Z</time></trkpt><trkpt lat="46.03230882604896" lon="8.922298342514841"><ele>302.0</ele><time>2026-05-03T13:09:19.972Z</time></trkpt><trkpt lat="46.032296140885116" lon="8.922200258820505"><ele>302.5</ele><time>2026-05-03T13:09:50.972Z</time></trkpt><trkpt lat="46.03237244408978" lon="8.922195941137394"><ele>303.0</ele><time>2026-05-03T13:11:50.972Z</time></trkpt><trkpt lat="46.032326952725825" lon="8.922330805687436"><ele>303.5</ele><time>2026-05-03T13:30:41.974Z</time></trkpt><trkpt lat="46.03230888801534" lon="8.922425224007137"><ele>304.0</ele><time>2026-05-03T13:30:43.974Z</time></trkpt><trkpt lat="46.03225438007595" lon="8.922513292155738"><ele>304.0</ele><time>2026-05-03T13:30:47.973Z</time></trkpt><trkpt lat="46.03218933401543" lon="8.92262512269137"><ele>304.0</ele><time>2026-05-03T13:30:49.973Z</time></trkpt><trkpt lat="46.03213995006428" lon="8.922684116184902"><ele>304.0</ele><time>2026-05-03T13:30:52.973Z</time></trkpt><trkpt lat="46.03202828543706" lon="8.922669555451101"><ele>304.0</ele><time>2026-05-03T13:30:54.972Z</time></trkpt><trkpt lat="46.03196276040999" lon="8.922612956919354"><ele>304.0</ele><time>2026-05-03T13:30:55.972Z</time></trkpt><trkpt lat="46.0319022850965" lon="8.922542264593659"><ele>304.0</ele><time>2026-05-03T13:30:56.972Z</time></trkpt><trkpt lat="46.0318528486966" lon="8.922483957971542"><ele>304.0</ele><time>2026-05-03T13:30:57.972Z</time></trkpt><trkpt lat="46.03175769759026" lon="8.922398762532554"><ele>304.0</ele><time>2026-05-03T13:30:59.972Z</time></trkpt><trkpt lat="46.03170567164793" lon="8.922346773813114"><ele>304.0</ele><time>2026-05-03T13:31:00.972Z</time></trkpt><trkpt lat="46.03164687153392" lon="8.922274135476504"><ele>304.0</ele><time>2026-05-03T13:31:01.972Z</time></trkpt><trkpt lat="46.03159593922071" lon="8.92217237807482"><ele>304.0</ele><time>2026-05-03T13:31:02.972Z</time></trkpt><trkpt lat="46.031518268347554" lon="8.922067876961384"><ele>304.0</ele><time>2026-05-03T13:31:03.972Z</time></trkpt><trkpt lat="46.0314302588988" lon="8.922000343116332"><ele>303.59999999999997</ele><time>2026-05-03T13:31:04.972Z</time></trkpt><trkpt lat="46.03134062254594" lon="8.92190231979367"><ele>303.2</ele><time>2026-05-03T13:31:05.972Z</time></trkpt><trkpt lat="46.03125726710298" lon="8.921794543153515"><ele>302.79999999999995</ele><time>2026-05-03T13:31:06.972Z</time></trkpt><trkpt lat="46.03118049799072" lon="8.921695567962876"><ele>302.4</ele><time>2026-05-03T13:31:07.972Z</time></trkpt><trkpt lat="46.03110948020452" lon="8.921589550244017"><ele>302.0</ele><time>2026-05-03T13:31:08.972Z</time></trkpt><trkpt lat="46.031031817508236" lon="8.921488140192823"><ele>301.75</ele><time>2026-05-03T13:31:09.972Z</time></trkpt><trkpt lat="46.030944961970015" lon="8.921379046035103"><ele>301.5</ele><time>2026-05-03T13:31:10.972Z</time></trkpt><trkpt lat="46.03085325636398" lon="8.921265282750346"><ele>301.25</ele><time>2026-05-03T13:31:11.972Z</time></trkpt><trkpt lat="46.030759519374314" lon="8.921144030520011"><ele>301.0</ele><time>2026-05-03T13:31:12.972Z</time></trkpt><trkpt lat="46.03066079760666" lon="8.92102501824468"><ele>301.0</ele><time>2026-05-03T13:31:13.972Z</time></trkpt><trkpt lat="46.030565087078166" lon="8.920899667628893"><ele>301.0</ele><time>2026-05-03T13:31:14.972Z</time></trkpt><trkpt lat="46.03046836939277" lon="8.9207739748986"><ele>301.0</ele><time>2026-05-03T13:31:15.972Z</time></trkpt><trkpt lat="46.03037651263284" lon="8.920644772416814"><ele>301.0</ele><time>2026-05-03T13:31:16.972Z</time></trkpt><trkpt lat="46.030284094994485" lon="8.920523759715"><ele>300.8</ele><time>2026-05-03T13:31:17.972Z</time></trkpt><trkpt lat="46.0302035677377" lon="8.920395489883088"><ele>300.6</ele><time>2026-05-03T13:31:18.971Z</time></trkpt><trkpt lat="46.030113362338206" lon="8.920303151676544"><ele>300.4</ele><time>2026-05-03T13:31:19.971Z</time></trkpt><trkpt lat="46.0300244074974" lon="8.920229395405507"><ele>300.2</ele><time>2026-05-03T13:31:20.971Z</time></trkpt><trkpt lat="46.02994419711114" lon="8.920170273214515"><ele>300.0</ele><time>2026-05-03T13:31:21.971Z</time></trkpt><trkpt lat="46.02987343001192" lon="8.920116666696943"><ele>299.6</ele><time>2026-05-03T13:31:22.971Z</time></trkpt><trkpt lat="46.02981689723086" lon="8.920074660595256"><ele>299.2</ele><time>2026-05-03T13:31:23.971Z</time></trkpt><trkpt lat="46.02973347174644" lon="8.91999774817037"><ele>298.8</ele><time>2026-05-03T13:31:25.971Z</time></trkpt><trkpt lat="46.02966391677427" lon="8.919921830027864"><ele>298.4</ele><time>2026-05-03T13:31:31.971Z</time></trkpt><trkpt lat="46.029545916074035" lon="8.919846167695363"><ele>298.0</ele><time>2026-05-03T13:31:33.971Z</time></trkpt><trkpt lat="46.0294656388334" lon="8.919830715252502"><ele>298.0</ele><time>2026-05-03T13:31:34.972Z</time></trkpt><trkpt lat="46.02938801384636" lon="8.919877005290108"><ele>298.0</ele><time>2026-05-03T13:31:35.972Z</time></trkpt><trkpt lat="46.02932235067965" lon="8.919962911509117"><ele>298.0</ele><time>2026-05-03T13:31:36.972Z</time></trkpt><trkpt lat="46.0292797600933" lon="8.920114881946072"><ele>298.0</ele><time>2026-05-03T13:31:37.972Z</time></trkpt><trkpt lat="46.02924239529968" lon="8.920316053404488"><ele>298.0</ele><time>2026-05-03T13:31:38.972Z</time></trkpt><trkpt lat="46.029215955930624" lon="8.920490739451644"><ele>298.0</ele><time>2026-05-03T13:31:39.972Z</time></trkpt><trkpt lat="46.029187014463645" lon="8.920634392420073"><ele>298.0</ele><time>2026-05-03T13:31:40.972Z</time></trkpt><trkpt lat="46.029158166682734" lon="8.920770562538175"><ele>298.0</ele><time>2026-05-03T13:31:41.972Z</time></trkpt><trkpt lat="46.029132227681316" lon="8.920925626600187"><ele>298.0</ele><time>2026-05-03T13:31:42.972Z</time></trkpt><trkpt lat="46.02910228444164" lon="8.921082595002988"><ele>298.0</ele><time>2026-05-03T13:31:43.972Z</time></trkpt><trkpt lat="46.0290652192758" lon="8.921248962630912"><ele>298.0</ele><time>2026-05-03T13:31:44.972Z</time></trkpt><trkpt lat="46.029026266648806" lon="8.921429518920334"><ele>298.0</ele><time>2026-05-03T13:31:45.972Z</time></trkpt><trkpt lat="46.02896260007509" lon="8.921617727074013"><ele>298.0</ele><time>2026-05-03T13:31:46.972Z</time></trkpt><trkpt lat="46.02892065897222" lon="8.92181818606768"><ele>298.0</ele><time>2026-05-03T13:31:47.972Z</time></trkpt><trkpt lat="46.02887505821439" lon="8.922026686348387"><ele>298.0</ele><time>2026-05-03T13:31:48.972Z</time></trkpt><trkpt lat="46.02882908472447" lon="8.922228006743818"><ele>298.0</ele><time>2026-05-03T13:31:49.972Z</time></trkpt><trkpt lat="46.028783855523656" lon="8.922431420721434"><ele>298.0</ele><time>2026-05-03T13:31:50.972Z</time></trkpt><trkpt lat="46.028735762116945" lon="8.922639907575553"><ele>298.0</ele><time>2026-05-03T13:31:51.972Z</time></trkpt><trkpt lat="46.02868911737532" lon="8.922849429031555"><ele>299.0</ele><time>2026-05-03T13:31:52.972Z</time></trkpt><trkpt lat="46.028640859791885" lon="8.923060613985585"><ele>300.0</ele><time>2026-05-03T13:31:53.972Z</time></trkpt><trkpt lat="46.02859593896036" lon="8.923273586261061"><ele>301.0</ele><time>2026-05-03T13:31:54.972Z</time></trkpt><trkpt lat="46.02854703512258" lon="8.923483177102604"><ele>301.0</ele><time>2026-05-03T13:31:55.972Z</time></trkpt><trkpt lat="46.02850011294939" lon="8.923694047412534"><ele>301.0</ele><time>2026-05-03T13:31:56.972Z</time></trkpt><trkpt lat="46.02845604552095" lon="8.923889003551043"><ele>301.0</ele><time>2026-05-03T13:31:57.972Z</time></trkpt><trkpt lat="46.028415051243556" lon="8.92406906779433"><ele>301.0</ele><time>2026-05-03T13:31:58.972Z</time></trkpt><trkpt lat="46.02836227301782" lon="8.92421701729083"><ele>300.0</ele><time>2026-05-03T13:31:59.972Z</time></trkpt><trkpt lat="46.02828603371363" lon="8.92431118127672"><ele>299.0</ele><time>2026-05-03T13:32:00.972Z</time></trkpt><trkpt lat="46.02817634195903" lon="8.9243464564251"><ele>298.0</ele><time>2026-05-03T13:32:01.972Z</time></trkpt><trkpt lat="46.02804765910554" lon="8.92432261265093"><ele>297.0</ele><time>2026-05-03T13:32:02.972Z</time></trkpt><trkpt lat="46.0279116019824" lon="8.924245002135232"><ele>297.0</ele><time>2026-05-03T13:32:03.972Z</time></trkpt><trkpt lat="46.02775987983301" lon="8.924174320356828"><ele>297.0</ele><time>2026-05-03T13:32:04.972Z</time></trkpt><trkpt lat="46.027601205648864" lon="8.924104799516178"><ele>297.0</ele><time>2026-05-03T13:32:05.972Z</time></trkpt><trkpt lat="46.02743786925726" lon="8.924037015656953"><ele>297.0</ele><time>2026-05-03T13:32:06.972Z</time></trkpt><trkpt lat="46.027265908450666" lon="8.923967105413421"><ele>297.0</ele><time>2026-05-03T13:32:07.972Z</time></trkpt><trkpt lat="46.02709704934019" lon="8.923885117089476"><ele>297.0</ele><time>2026-05-03T13:32:08.972Z</time></trkpt><trkpt lat="46.026922077848006" lon="8.92380946764972"><ele>297.0</ele><time>2026-05-03T13:32:09.972Z</time></trkpt><trkpt lat="46.02674220128177" lon="8.92372299156153"><ele>297.0</ele><time>2026-05-03T13:32:10.972Z</time></trkpt><trkpt lat="46.026558139594115" lon="8.923629242494485"><ele>297.0</ele><time>2026-05-03T13:32:11.972Z</time></trkpt><trkpt lat="46.02636259036656" lon="8.923565808582651"><ele>296.6666666666667</ele><time>2026-05-03T13:32:12.972Z</time></trkpt><trkpt lat="46.0261789651458" lon="8.923493359354863"><ele>296.33333333333337</ele><time>2026-05-03T13:32:13.972Z</time></trkpt><trkpt lat="46.025996843218245" lon="8.923430374601741"><ele>296.0</ele><time>2026-05-03T13:32:14.972Z</time></trkpt><trkpt lat="46.02581720406693" lon="8.92326055153395"><ele>295.0</ele><time>2026-05-03T13:32:15.972Z</time></trkpt><trkpt lat="46.02563697351875" lon="8.923152037735086"><ele>294.0</ele><time>2026-05-03T13:32:16.972Z</time></trkpt><trkpt lat="46.025463234934094" lon="8.92303068041131"><ele>293.0</ele><time>2026-05-03T13:32:17.971Z</time></trkpt><trkpt lat="46.025290690726926" lon="8.922929381364906"><ele>293.0</ele><time>2026-05-03T13:32:18.97Z</time></trkpt><trkpt lat="46.025111398096186" lon="8.92283041848896"><ele>293.0</ele><time>2026-05-03T13:32:19.97Z</time></trkpt><trkpt lat="46.02493390266573" lon="8.922734772258906"><ele>293.0</ele><time>2026-05-03T13:32:20.971Z</time></trkpt><trkpt lat="46.02475874562649" lon="8.922640037670295"><ele>293.0</ele><time>2026-05-03T13:32:21.97Z</time></trkpt><trkpt lat="46.02457880657923" lon="8.92254534635025"><ele>293.0</ele><time>2026-05-03T13:32:22.97Z</time></trkpt><trkpt lat="46.024404648821" lon="8.922451520614308"><ele>293.0</ele><time>2026-05-03T13:32:23.97Z</time></trkpt><trkpt lat="46.024224834028075" lon="8.922352557680183"><ele>292.33333333333337</ele><time>2026-05-03T13:32:24.97Z</time></trkpt><trkpt lat="46.02404885330544" lon="8.922252767730688"><ele>291.6666666666667</ele><time>2026-05-03T13:32:25.97Z</time></trkpt><trkpt lat="46.02387112572822" lon="8.922154857339708"><ele>291.0</ele><time>2026-05-03T13:32:26.971Z</time></trkpt><trkpt lat="46.023692865946394" lon="8.922055452905362"><ele>291.0</ele><time>2026-05-03T13:32:27.971Z</time></trkpt><trkpt lat="46.023513008908004" lon="8.921954801365427"><ele>291.0</ele><time>2026-05-03T13:32:28.971Z</time></trkpt><trkpt lat="46.02333112486002" lon="8.921855543756195"><ele>291.0</ele><time>2026-05-03T13:32:29.97Z</time></trkpt><trkpt lat="46.02314514859915" lon="8.921755550700983"><ele>291.6666666666667</ele><time>2026-05-03T13:32:30.97Z</time></trkpt><trkpt lat="46.02295703609934" lon="8.921653114638426"><ele>292.33333333333337</ele><time>2026-05-03T13:32:31.97Z</time></trkpt><trkpt lat="46.02276741431893" lon="8.921551838485438"><ele>293.0</ele><time>2026-05-03T13:32:32.97Z</time></trkpt><trkpt lat="46.02257701898346" lon="8.921453286369395"><ele>292.0</ele><time>2026-05-03T13:32:33.97Z</time></trkpt><trkpt lat="46.0223852016012" lon="8.921351393504493"><ele>291.0</ele><time>2026-05-03T13:32:34.97Z</time></trkpt><trkpt lat="46.022197601789514" lon="8.921249709954003"><ele>290.0</ele><time>2026-05-03T13:32:35.97Z</time></trkpt><trkpt lat="46.02201295603676" lon="8.921148764547858"><ele>290.0</ele><time>2026-05-03T13:32:36.97Z</time></trkpt><trkpt lat="46.02183113375211" lon="8.921049736426877"><ele>290.0</ele><time>2026-05-03T13:32:37.97Z</time></trkpt><trkpt lat="46.021647061850636" lon="8.920958285931556"><ele>290.0</ele><time>2026-05-03T13:32:38.97Z</time></trkpt><trkpt lat="46.021468917638934" lon="8.920867623474184"><ele>290.6666666666667</ele><time>2026-05-03T13:32:39.97Z</time></trkpt><trkpt lat="46.02128815824344" lon="8.92077610415639"><ele>291.3333333333333</ele><time>2026-05-03T13:32:40.97Z</time></trkpt><trkpt lat="46.02111023049725" lon="8.920685359317904"><ele>292.0</ele><time>2026-05-03T13:32:41.97Z</time></trkpt><trkpt lat="46.020934663970706" lon="8.92059300054071"><ele>291.3333333333333</ele><time>2026-05-03T13:32:42.97Z</time></trkpt><trkpt lat="46.02075545103737" lon="8.92050350198212"><ele>290.6666666666667</ele><time>2026-05-03T13:32:43.97Z</time></trkpt><trkpt lat="46.0205772766915" lon="8.920412446127074"><ele>290.0</ele><time>2026-05-03T13:32:44.97Z</time></trkpt><trkpt lat="46.02040131422178" lon="8.920325056106792"><ele>290.0</ele><time>2026-05-03T13:32:45.97Z</time></trkpt><trkpt lat="46.02022376740803" lon="8.920236561063806"><ele>290.0</ele><time>2026-05-03T13:32:46.97Z</time></trkpt><trkpt lat="46.02004469546549" lon="8.92014896130145"><ele>290.0</ele><time>2026-05-03T13:32:47.97Z</time></trkpt><trkpt lat="46.0198650119146" lon="8.920061069092938"><ele>289.6666666666667</ele><time>2026-05-03T13:32:48.97Z</time></trkpt><trkpt lat="46.01968574341566" lon="8.919972037697237"><ele>289.3333333333333</ele><time>2026-05-03T13:32:49.97Z</time></trkpt><trkpt lat="46.01950352289979" lon="8.919882225943388"><ele>289.0</ele><time>2026-05-03T13:32:50.97Z</time></trkpt><trkpt lat="46.019321361536086" lon="8.919792087438008"><ele>288.0</ele><time>2026-05-03T13:32:51.97Z</time></trkpt><trkpt lat="46.019136507919235" lon="8.919702605150537"><ele>287.0</ele><time>2026-05-03T13:32:52.97Z</time></trkpt><trkpt lat="46.01895308044397" lon="8.919613791223906"><ele>286.0</ele><time>2026-05-03T13:32:53.97Z</time></trkpt><trkpt lat="46.01876701759467" lon="8.919524713602303"><ele>286.0</ele><time>2026-05-03T13:32:54.97Z</time></trkpt><trkpt lat="46.018581012219514" lon="8.91943356269322"><ele>286.0</ele><time>2026-05-03T13:32:55.97Z</time></trkpt><trkpt lat="46.01839639681499" lon="8.919342937717479"><ele>286.0</ele><time>2026-05-03T13:32:56.97Z</time></trkpt><trkpt lat="46.01821011887527" lon="8.919255834796315"><ele>286.0</ele><time>2026-05-03T13:32:57.97Z</time></trkpt><trkpt lat="46.01801975146389" lon="8.919165500002135"><ele>286.0</ele><time>2026-05-03T13:32:58.97Z</time></trkpt><trkpt lat="46.017833062708334" lon="8.919073572046996"><ele>286.0</ele><time>2026-05-03T13:32:59.97Z</time></trkpt><trkpt lat="46.01763995635377" lon="8.918983382859528"><ele>287.0</ele><time>2026-05-03T13:33:00.97Z</time></trkpt><trkpt lat="46.01744587512011" lon="8.918896915999417"><ele>288.0</ele><time>2026-05-03T13:33:01.97Z</time></trkpt><trkpt lat="46.01724900333053" lon="8.918810946217496"><ele>289.0</ele><time>2026-05-03T13:33:02.97Z</time></trkpt><trkpt lat="46.01705231294535" lon="8.918731070971678"><ele>289.0</ele><time>2026-05-03T13:33:03.97Z</time></trkpt><trkpt lat="46.01685284294688" lon="8.918653484476852"><ele>289.0</ele><time>2026-05-03T13:33:04.97Z</time></trkpt><trkpt lat="46.01665653660802" lon="8.918578114611835"><ele>289.0</ele><time>2026-05-03T13:33:05.97Z</time></trkpt><trkpt lat="46.01646010180058" lon="8.918504421898913"><ele>288.3333333333333</ele><time>2026-05-03T13:33:06.97Z</time></trkpt><trkpt lat="46.016262920133485" lon="8.918430754039157"><ele>287.6666666666667</ele><time>2026-05-03T13:33:07.97Z</time></trkpt><trkpt lat="46.01606316814733" lon="8.918358261696534"><ele>287.0</ele><time>2026-05-03T13:33:08.97Z</time></trkpt><trkpt lat="46.01586790004098" lon="8.91827708257779"><ele>286.0</ele><time>2026-05-03T13:33:09.97Z</time></trkpt><trkpt lat="46.01567441402033" lon="8.918187554764412"><ele>285.0</ele><time>2026-05-03T13:33:10.97Z</time></trkpt><trkpt lat="46.01548021924777" lon="8.918093400259867"><ele>284.0</ele><time>2026-05-03T13:33:11.971Z</time></trkpt><trkpt lat="46.01528696706335" lon="8.91800131193759"><ele>284.0</ele><time>2026-05-03T13:33:12.971Z</time></trkpt><trkpt lat="46.01509147274102" lon="8.917906849875422"><ele>284.0</ele><time>2026-05-03T13:33:13.971Z</time></trkpt><trkpt lat="46.014895656419995" lon="8.917816116553986"><ele>284.0</ele><time>2026-05-03T13:33:14.971Z</time></trkpt><trkpt lat="46.014700573366994" lon="8.917725138488441"><ele>284.0</ele><time>2026-05-03T13:33:15.971Z</time></trkpt><trkpt lat="46.01450620796828" lon="8.917632635172783"><ele>284.0</ele><time>2026-05-03T13:33:16.971Z</time></trkpt><trkpt lat="46.01431509760459" lon="8.917536449428978"><ele>284.0</ele><time>2026-05-03T13:33:17.971Z</time></trkpt><trkpt lat="46.01412647779953" lon="8.917445285641477"><ele>283.6666666666667</ele><time>2026-05-03T13:33:18.971Z</time></trkpt><trkpt lat="46.01393856767058" lon="8.917358419555079"><ele>283.3333333333333</ele><time>2026-05-03T13:33:19.971Z</time></trkpt><trkpt lat="46.01375621286821" lon="8.917267450095085"><ele>283.0</ele><time>2026-05-03T13:33:20.971Z</time></trkpt><trkpt lat="46.01357454243451" lon="8.917181048550592"><ele>283.0</ele><time>2026-05-03T13:33:21.971Z</time></trkpt><trkpt lat="46.01339793161103" lon="8.917095592390757"><ele>283.0</ele><time>2026-05-03T13:33:22.971Z</time></trkpt><trkpt lat="46.01322153643874" lon="8.9170106591892"><ele>283.0</ele><time>2026-05-03T13:33:23.971Z</time></trkpt><trkpt lat="46.01304421353911" lon="8.916929214673086"><ele>283.0</ele><time>2026-05-03T13:33:24.971Z</time></trkpt><trkpt lat="46.012866262636905" lon="8.916842101735527"><ele>283.0</ele><time>2026-05-03T13:33:25.971Z</time></trkpt><trkpt lat="46.01268781000724" lon="8.916759823218209"><ele>283.0</ele><time>2026-05-03T13:33:26.971Z</time></trkpt><trkpt lat="46.01250289226537" lon="8.916679445843151"><ele>282.66666666666663</ele><time>2026-05-03T13:33:27.971Z</time></trkpt><trkpt lat="46.012318884341326" lon="8.916602196125424"><ele>282.3333333333333</ele><time>2026-05-03T13:33:28.971Z</time></trkpt><trkpt lat="46.01214467690895" lon="8.916492421425238"><ele>282.0</ele><time>2026-05-03T13:33:29.971Z</time></trkpt><trkpt lat="46.01195822483328" lon="8.916406939430233"><ele>282.0</ele><time>2026-05-03T13:33:30.971Z</time></trkpt><trkpt lat="46.011772684999016" lon="8.916323295154914"><ele>282.0</ele><time>2026-05-03T13:33:31.971Z</time></trkpt><trkpt lat="46.01158407715495" lon="8.916241856921596"><ele>282.0</ele><time>2026-05-03T13:33:32.971Z</time></trkpt><trkpt lat="46.01139359334075" lon="8.916160049365299"><ele>282.3333333333333</ele><time>2026-05-03T13:33:33.971Z</time></trkpt><trkpt lat="46.01120495793465" lon="8.916081640979993"><ele>282.66666666666663</ele><time>2026-05-03T13:33:34.971Z</time></trkpt><trkpt lat="46.01101180278207" lon="8.916005459937594"><ele>283.0</ele><time>2026-05-03T13:33:35.971Z</time></trkpt><trkpt lat="46.010814580985425" lon="8.915929472362741"><ele>282.3333333333333</ele><time>2026-05-03T13:33:36.971Z</time></trkpt><trkpt lat="46.010619100736434" lon="8.915857903516708"><ele>281.6666666666667</ele><time>2026-05-03T13:33:37.971Z</time></trkpt><trkpt lat="46.01042336328258" lon="8.915788592687985"><ele>281.0</ele><time>2026-05-03T13:33:38.971Z</time></trkpt><trkpt lat="46.01022515080248" lon="8.915719084625524"><ele>281.0</ele><time>2026-05-03T13:33:39.971Z</time></trkpt><trkpt lat="46.010024956648905" lon="8.915655449342085"><ele>281.0</ele><time>2026-05-03T13:33:40.971Z</time></trkpt><trkpt lat="46.00982742309224" lon="8.915593068437966"><ele>281.0</ele><time>2026-05-03T13:33:41.971Z</time></trkpt><trkpt lat="46.00962466311701" lon="8.915531753479351"><ele>281.0</ele><time>2026-05-03T13:33:42.971Z</time></trkpt><trkpt lat="46.009422741744395" lon="8.915474019818312"><ele>281.0</ele><time>2026-05-03T13:33:43.971Z</time></trkpt><trkpt lat="46.00922175138135" lon="8.915418715524096"><ele>281.0</ele><time>2026-05-03T13:33:44.971Z</time></trkpt><trkpt lat="46.00902206932225" lon="8.915364676223867"><ele>281.0</ele><time>2026-05-03T13:33:45.971Z</time></trkpt><trkpt lat="46.00882017894148" lon="8.91531479206176"><ele>281.0</ele><time>2026-05-03T13:33:46.971Z</time></trkpt><trkpt lat="46.008619951898964" lon="8.915268168407225"><ele>281.0</ele><time>2026-05-03T13:33:47.971Z</time></trkpt><trkpt lat="46.008418491857235" lon="8.91522259769956"><ele>281.0</ele><time>2026-05-03T13:33:48.971Z</time></trkpt><trkpt lat="46.008214052662844" lon="8.915180230127733"><ele>281.0</ele><time>2026-05-03T13:33:49.971Z</time></trkpt><trkpt lat="46.00800960524612" lon="8.915139523713925"><ele>281.0</ele><time>2026-05-03T13:33:50.971Z</time></trkpt><trkpt lat="46.00780783269951" lon="8.91510413095774"><ele>281.0</ele><time>2026-05-03T13:33:51.971Z</time></trkpt><trkpt lat="46.00760349115049" lon="8.915072588641515"><ele>281.0</ele><time>2026-05-03T13:33:52.971Z</time></trkpt><trkpt lat="46.00739938038229" lon="8.915042056427607"><ele>281.0</ele><time>2026-05-03T13:33:53.971Z</time></trkpt><trkpt lat="46.007194775202706" lon="8.915011662220746"><ele>282.6666666666667</ele><time>2026-05-03T13:33:54.971Z</time></trkpt><trkpt lat="46.00699171943306" lon="8.91498822955474"><ele>284.3333333333333</ele><time>2026-05-03T13:33:55.971Z</time></trkpt><trkpt lat="46.00678712004344" lon="8.914968652344793"><ele>286.0</ele><time>2026-05-03T13:33:56.971Z</time></trkpt><trkpt lat="46.00658295315924" lon="8.914949751603656"><ele>286.3333333333333</ele><time>2026-05-03T13:33:57.971Z</time></trkpt><trkpt lat="46.00638174445308" lon="8.914934293535058"><ele>286.6666666666667</ele><time>2026-05-03T13:33:58.971Z</time></trkpt><trkpt lat="46.006181282057035" lon="8.914931770741143"><ele>287.0</ele><time>2026-05-03T13:33:59.971Z</time></trkpt><trkpt lat="46.005981501547375" lon="8.914927788623098"><ele>289.0</ele><time>2026-05-03T13:34:00.971Z</time></trkpt><trkpt lat="46.00578194990105" lon="8.914928702929448"><ele>291.0</ele><time>2026-05-03T13:34:01.971Z</time></trkpt><trkpt lat="46.00558401734846" lon="8.914937452065942"><ele>293.0</ele><time>2026-05-03T13:34:02.971Z</time></trkpt><trkpt lat="46.00538673518154" lon="8.914948857289927"><ele>293.0</ele><time>2026-05-03T13:34:03.971Z</time></trkpt><trkpt lat="46.005191247010266" lon="8.91496225021414"><ele>293.0</ele><time>2026-05-03T13:34:04.971Z</time></trkpt><trkpt lat="46.00499862505552" lon="8.914977038934179"><ele>293.0</ele><time>2026-05-03T13:34:05.971Z</time></trkpt><trkpt lat="46.00480122652638" lon="8.915003604738208"><ele>292.6666666666667</ele><time>2026-05-03T13:34:06.971Z</time></trkpt><trkpt lat="46.004607391743576" lon="8.915030529030595"><ele>292.3333333333333</ele><time>2026-05-03T13:34:07.971Z</time></trkpt><trkpt lat="46.004411694034246" lon="8.915061999006586"><ele>292.0</ele><time>2026-05-03T13:34:08.971Z</time></trkpt><trkpt lat="46.00421915597272" lon="8.915097574443239"><ele>303.3333333333333</ele><time>2026-05-03T13:34:09.971Z</time></trkpt><trkpt lat="46.004025299801334" lon="8.91513647222175"><ele>314.6666666666667</ele><time>2026-05-03T13:34:10.971Z</time></trkpt><trkpt lat="46.00383738709648" lon="8.915181062249221"><ele>326.0</ele><time>2026-05-03T13:34:11.971Z</time></trkpt><trkpt lat="46.00364887957578" lon="8.915226262245332"><ele>326.0</ele><time>2026-05-03T13:34:12.971Z</time></trkpt><trkpt lat="46.00346132497105" lon="8.915273626287519"><ele>326.0</ele><time>2026-05-03T13:34:13.971Z</time></trkpt><trkpt lat="46.00326755262851" lon="8.915322560421057"><ele>326.0</ele><time>2026-05-03T13:34:14.971Z</time></trkpt><trkpt lat="46.00307277066613" lon="8.915371199520862"><ele>324.33333333333337</ele><time>2026-05-03T13:34:15.971Z</time></trkpt><trkpt lat="46.00287756866601" lon="8.91541665053838"><ele>322.6666666666667</ele><time>2026-05-03T13:34:16.971Z</time></trkpt><trkpt lat="46.0026778725641" lon="8.915456159145858"><ele>321.0</ele><time>2026-05-03T13:34:17.971Z</time></trkpt><trkpt lat="46.002482053283664" lon="8.915489555626772"><ele>321.0</ele><time>2026-05-03T13:34:18.971Z</time></trkpt><trkpt lat="46.00228318360631" lon="8.915513317237322"><ele>321.0</ele><time>2026-05-03T13:34:19.971Z</time></trkpt><trkpt lat="46.00208474506514" lon="8.915529774837402"><ele>321.0</ele><time>2026-05-03T13:34:20.971Z</time></trkpt><trkpt lat="46.001886686847776" lon="8.915534693985176"><ele>321.0</ele><time>2026-05-03T13:34:21.971Z</time></trkpt><trkpt lat="46.001686790704255" lon="8.91552992309632"><ele>321.0</ele><time>2026-05-03T13:34:22.972Z</time></trkpt><trkpt lat="46.00149008159862" lon="8.915519276450109"><ele>321.0</ele><time>2026-05-03T13:34:23.97Z</time></trkpt><trkpt lat="46.001293603399446" lon="8.915501380333083"><ele>324.0</ele><time>2026-05-03T13:34:24.97Z</time></trkpt><trkpt lat="46.0010984894988" lon="8.915482350869476"><ele>327.0</ele><time>2026-05-03T13:34:25.97Z</time></trkpt><trkpt lat="46.000901064102194" lon="8.915462366568658"><ele>330.0</ele><time>2026-05-03T13:34:26.97Z</time></trkpt><trkpt lat="46.00070022934436" lon="8.915442363196496"><ele>330.0</ele><time>2026-05-03T13:34:27.969Z</time></trkpt><trkpt lat="46.00049744439684" lon="8.915427026202513"><ele>330.0</ele><time>2026-05-03T13:34:28.969Z</time></trkpt><trkpt lat="46.00029667263912" lon="8.915416758904916"><ele>330.0</ele><time>2026-05-03T13:34:29.969Z</time></trkpt><trkpt lat="46.00010322017975" lon="8.915415631379364"><ele>330.0</ele><time>2026-05-03T13:34:30.97Z</time></trkpt><trkpt lat="45.99990705112156" lon="8.915420223059478"><ele>330.0</ele><time>2026-05-03T13:34:31.97Z</time></trkpt><trkpt lat="45.99971160785744" lon="8.91543325537715"><ele>330.0</ele><time>2026-05-03T13:34:32.969Z</time></trkpt><trkpt lat="45.99951472250239" lon="8.915459935404257"><ele>330.0</ele><time>2026-05-03T13:34:33.97Z</time></trkpt><trkpt lat="45.99932187748889" lon="8.915489978964809"><ele>330.0</ele><time>2026-05-03T13:34:34.97Z</time></trkpt><trkpt lat="45.99913170240446" lon="8.915527228319167"><ele>330.0</ele><time>2026-05-03T13:34:35.97Z</time></trkpt><trkpt lat="45.998936780433894" lon="8.915577479329132"><ele>328.0</ele><time>2026-05-03T13:34:36.97Z</time></trkpt><trkpt lat="45.99874981271249" lon="8.915631297941239"><ele>326.0</ele><time>2026-05-03T13:34:37.97Z</time></trkpt><trkpt lat="45.9985557552438" lon="8.915694552550036"><ele>324.0</ele><time>2026-05-03T13:34:38.97Z</time></trkpt><trkpt lat="45.998361331936465" lon="8.91576820016257"><ele>321.0</ele><time>2026-05-03T13:34:39.97Z</time></trkpt><trkpt lat="45.99816480010652" lon="8.91584945691304"><ele>318.0</ele><time>2026-05-03T13:34:40.97Z</time></trkpt><trkpt lat="45.997971676437814" lon="8.915947394673955"><ele>315.0</ele><time>2026-05-03T13:34:41.97Z</time></trkpt><trkpt lat="45.997779253593194" lon="8.916047184075156"><ele>318.6666666666667</ele><time>2026-05-03T13:34:42.97Z</time></trkpt><trkpt lat="45.997587987563215" lon="8.916157096717383"><ele>322.33333333333337</ele><time>2026-05-03T13:34:43.97Z</time></trkpt><trkpt lat="45.99739600349316" lon="8.916272271414112"><ele>326.0</ele><time>2026-05-03T13:34:44.97Z</time></trkpt><trkpt lat="45.9972156638416" lon="8.916397306183308"><ele>326.0</ele><time>2026-05-03T13:34:45.97Z</time></trkpt><trkpt lat="45.997033706738094" lon="8.916518595367195"><ele>326.0</ele><time>2026-05-03T13:34:46.97Z</time></trkpt><trkpt lat="45.99685610007261" lon="8.916637416352195"><ele>326.0</ele><time>2026-05-03T13:34:47.97Z</time></trkpt><trkpt lat="45.99667615291064" lon="8.916763701835182"><ele>328.33333333333337</ele><time>2026-05-03T13:34:48.97Z</time></trkpt><trkpt lat="45.99649446985886" lon="8.9168887880073"><ele>330.6666666666667</ele><time>2026-05-03T13:34:49.97Z</time></trkpt><trkpt lat="45.996314581956646" lon="8.917009052244925"><ele>333.0</ele><time>2026-05-03T13:34:50.97Z</time></trkpt><trkpt lat="45.996132090200284" lon="8.917132928674729"><ele>333.0</ele><time>2026-05-03T13:34:51.97Z</time></trkpt><trkpt lat="45.995949440983054" lon="8.917257225752643"><ele>333.0</ele><time>2026-05-03T13:34:52.97Z</time></trkpt><trkpt lat="45.99577025553162" lon="8.917385532154162"><ele>333.0</ele><time>2026-05-03T13:34:53.97Z</time></trkpt><trkpt lat="45.99559228110615" lon="8.917510799659224"><ele>334.3333333333333</ele><time>2026-05-03T13:34:54.97Z</time></trkpt><trkpt lat="45.9954147945898" lon="8.917639293268024"><ele>335.66666666666663</ele><time>2026-05-03T13:34:55.97Z</time></trkpt><trkpt lat="45.99523937436573" lon="8.917767686744282"><ele>337.0</ele><time>2026-05-03T13:34:56.97Z</time></trkpt><trkpt lat="45.995063961413685" lon="8.917895145275223"><ele>335.66666666666663</ele><time>2026-05-03T13:34:57.97Z</time></trkpt><trkpt lat="45.9948744506243" lon="8.91799583512828"><ele>334.3333333333333</ele><time>2026-05-03T13:34:58.97Z</time></trkpt><trkpt lat="45.994698015468444" lon="8.918130313163317"><ele>333.0</ele><time>2026-05-03T13:34:59.97Z</time></trkpt><trkpt lat="45.99452007251612" lon="8.918265940406789"><ele>333.6666666666667</ele><time>2026-05-03T13:35:00.97Z</time></trkpt><trkpt lat="45.99434496198158" lon="8.91840799185994"><ele>334.33333333333337</ele><time>2026-05-03T13:35:01.97Z</time></trkpt><trkpt lat="45.99417279098691" lon="8.918560015157066"><ele>335.0</ele><time>2026-05-03T13:35:02.97Z</time></trkpt><trkpt lat="45.99400348006917" lon="8.918717089471016"><ele>335.0</ele><time>2026-05-03T13:35:03.97Z</time></trkpt><trkpt lat="45.993833094115814" lon="8.91888402215372"><ele>335.0</ele><time>2026-05-03T13:35:04.97Z</time></trkpt><trkpt lat="45.99366947258892" lon="8.919058493416422"><ele>335.0</ele><time>2026-05-03T13:35:05.97Z</time></trkpt><trkpt lat="45.99350753916966" lon="8.91924392847488"><ele>335.6666666666667</ele><time>2026-05-03T13:35:06.97Z</time></trkpt><trkpt lat="45.99335149807843" lon="8.919434739728404"><ele>336.3333333333333</ele><time>2026-05-03T13:35:07.97Z</time></trkpt><trkpt lat="45.993197396697816" lon="8.919631615159911"><ele>337.0</ele><time>2026-05-03T13:35:08.97Z</time></trkpt><trkpt lat="45.99304743793125" lon="8.91983440798647"><ele>337.0</ele><time>2026-05-03T13:35:09.97Z</time></trkpt><trkpt lat="45.99290519657498" lon="8.920041964430501"><ele>337.0</ele><time>2026-05-03T13:35:10.97Z</time></trkpt><trkpt lat="45.99276839488231" lon="8.920252237648993"><ele>337.0</ele><time>2026-05-03T13:35:11.97Z</time></trkpt><trkpt lat="45.99263426552326" lon="8.920471625795173"><ele>337.3333333333333</ele><time>2026-05-03T13:35:12.97Z</time></trkpt><trkpt lat="45.99250623182089" lon="8.920690962545258"><ele>337.6666666666667</ele><time>2026-05-03T13:35:13.97Z</time></trkpt><trkpt lat="45.992380574294195" lon="8.92092221150318"><ele>338.0</ele><time>2026-05-03T13:35:14.97Z</time></trkpt><trkpt lat="45.992263960276276" lon="8.921156601539359"><ele>339.33333333333337</ele><time>2026-05-03T13:35:15.97Z</time></trkpt><trkpt lat="45.9921493304242" lon="8.921390139780485"><ele>340.6666666666667</ele><time>2026-05-03T13:35:16.97Z</time></trkpt><trkpt lat="45.99203810964048" lon="8.9216355756052"><ele>342.0</ele><time>2026-05-03T13:35:17.97Z</time></trkpt><trkpt lat="45.991934693839866" lon="8.921877518842287"><ele>343.3333333333333</ele><time>2026-05-03T13:35:18.971Z</time></trkpt><trkpt lat="45.99183589960308" lon="8.922125974529076"><ele>344.66666666666663</ele><time>2026-05-03T13:35:19.971Z</time></trkpt><trkpt lat="45.9917447460089" lon="8.922378414651716"><ele>346.0</ele><time>2026-05-03T13:35:20.971Z</time></trkpt><trkpt lat="45.99165600856531" lon="8.922631797693095"><ele>347.3333333333333</ele><time>2026-05-03T13:35:21.971Z</time></trkpt><trkpt lat="45.99157219670231" lon="8.922877612071137"><ele>348.6666666666667</ele><time>2026-05-03T13:35:22.971Z</time></trkpt><trkpt lat="45.99149494679649" lon="8.923134653589571"><ele>350.0</ele><time>2026-05-03T13:35:23.971Z</time></trkpt><trkpt lat="45.991388869308295" lon="8.923360874547365"><ele>352.0</ele><time>2026-05-03T13:35:24.971Z</time></trkpt><trkpt lat="45.99128746442442" lon="8.923591835998707"><ele>354.0</ele><time>2026-05-03T13:35:25.971Z</time></trkpt><trkpt lat="45.991195309812056" lon="8.923839251841438"><ele>356.0</ele><time>2026-05-03T13:35:26.971Z</time></trkpt><trkpt lat="45.991103487161034" lon="8.924097721392485"><ele>358.6666666666667</ele><time>2026-05-03T13:35:27.971Z</time></trkpt><trkpt lat="45.991009782899646" lon="8.92435254320342"><ele>361.3333333333333</ele><time>2026-05-03T13:35:28.971Z</time></trkpt><trkpt lat="45.99091771888812" lon="8.924605681208009"><ele>364.0</ele><time>2026-05-03T13:35:29.971Z</time></trkpt><trkpt lat="45.9908298577999" lon="8.924856165371484"><ele>375.66666666666663</ele><time>2026-05-03T13:35:30.971Z</time></trkpt><trkpt lat="45.99073715602801" lon="8.925107562412963"><ele>387.3333333333333</ele><time>2026-05-03T13:35:31.971Z</time></trkpt><trkpt lat="45.99064364533763" lon="8.92535719051782"><ele>399.0</ele><time>2026-05-03T13:35:32.971Z</time></trkpt><trkpt lat="45.99055063255111" lon="8.925611479447069"><ele>399.0</ele><time>2026-05-03T13:35:33.971Z</time></trkpt><trkpt lat="45.99046064295195" lon="8.9258724951378"><ele>399.0</ele><time>2026-05-03T13:35:34.971Z</time></trkpt><trkpt lat="45.99037130066579" lon="8.926122339850616"><ele>399.0</ele><time>2026-05-03T13:35:35.971Z</time></trkpt><trkpt lat="45.99026748333954" lon="8.926407040215144"><ele>401.5</ele><time>2026-05-03T13:35:37.108Z</time></trkpt><trkpt lat="45.99017499713508" lon="8.926657196956185"><ele>404.0</ele><time>2026-05-03T13:35:38.108Z</time></trkpt><trkpt lat="45.98808122029316" lon="8.930872322231881"><ele>377.5</ele><time>2026-05-03T13:35:53.971Z</time></trkpt><trkpt lat="45.9878334605993" lon="8.93096672955537"><ele>351.0</ele><time>2026-05-03T13:35:54.971Z</time></trkpt><trkpt lat="45.987717342240614" lon="8.931254586723057"><ele>351.0</ele><time>2026-05-03T13:35:55.971Z</time></trkpt><trkpt lat="45.987532961744186" lon="8.931534502379336"><ele>351.0</ele><time>2026-05-03T13:35:56.971Z</time></trkpt><trkpt lat="45.98735627702426" lon="8.931700787126566"><ele>345.5</ele><time>2026-05-03T13:35:57.971Z</time></trkpt><trkpt lat="45.98716198422769" lon="8.931873973982627"><ele>340.0</ele><time>2026-05-03T13:35:58.971Z</time></trkpt><trkpt lat="45.9869519142202" lon="8.932028798562607"><ele>340.0</ele><time>2026-05-03T13:35:59.971Z</time></trkpt><trkpt lat="45.986728726196475" lon="8.932183834315564"><ele>340.0</ele><time>2026-05-03T13:36:00.971Z</time></trkpt><trkpt lat="45.986485687553355" lon="8.932334526479805"><ele>336.0</ele><time>2026-05-03T13:36:01.971Z</time></trkpt><trkpt lat="45.98624077473756" lon="8.932475983662327"><ele>332.0</ele><time>2026-05-03T13:36:02.971Z</time></trkpt><trkpt lat="45.98599356692653" lon="8.932603519141386"><ele>325.5</ele><time>2026-05-03T13:36:03.971Z</time></trkpt><trkpt lat="45.985741993607235" lon="8.932716724853703"><ele>319.0</ele><time>2026-05-03T13:36:04.971Z</time></trkpt><trkpt lat="45.98548523982353" lon="8.932814647994418"><ele>319.0</ele><time>2026-05-03T13:36:05.971Z</time></trkpt><trkpt lat="45.985220811474754" lon="8.932898325597595"><ele>319.0</ele><time>2026-05-03T13:36:06.971Z</time></trkpt><trkpt lat="45.984958047324604" lon="8.932973019591277"><ele>317.5</ele><time>2026-05-03T13:36:07.971Z</time></trkpt><trkpt lat="45.984689145322626" lon="8.933041144392435"><ele>316.0</ele><time>2026-05-03T13:36:08.971Z</time></trkpt><trkpt lat="45.984420393470444" lon="8.933079223294595"><ele>315.0</ele><time>2026-05-03T13:36:09.971Z</time></trkpt><trkpt lat="45.98414718027678" lon="8.93310898701101"><ele>314.0</ele><time>2026-05-03T13:36:10.971Z</time></trkpt><trkpt lat="45.9838806251507" lon="8.933115727150195"><ele>314.0</ele><time>2026-05-03T13:36:11.971Z</time></trkpt><trkpt lat="45.983617145009006" lon="8.933113345061532"><ele>314.0</ele><time>2026-05-03T13:36:12.971Z</time></trkpt><trkpt lat="45.98335219657809" lon="8.933096368307424"><ele>319.5</ele><time>2026-05-03T13:36:13.971Z</time></trkpt><trkpt lat="45.9830914195948" lon="8.9330580814418"><ele>325.0</ele><time>2026-05-03T13:36:14.971Z</time></trkpt><trkpt lat="45.982840503702434" lon="8.933014103428526"><ele>325.0</ele><time>2026-05-03T13:36:15.971Z</time></trkpt><trkpt lat="45.98259497959078" lon="8.932951402642535"><ele>325.0</ele><time>2026-05-03T13:36:16.971Z</time></trkpt><trkpt lat="45.98234493305916" lon="8.932875266366548"><ele>327.5</ele><time>2026-05-03T13:36:17.971Z</time></trkpt><trkpt lat="45.982101272364055" lon="8.932786803955038"><ele>330.0</ele><time>2026-05-03T13:36:18.971Z</time></trkpt><trkpt lat="45.981860471694354" lon="8.93268104802339"><ele>333.5</ele><time>2026-05-03T13:36:19.971Z</time></trkpt><trkpt lat="45.98162112668723" lon="8.932568995816123"><ele>337.0</ele><time>2026-05-03T13:36:20.971Z</time></trkpt><trkpt lat="45.9813866970899" lon="8.932442869781335"><ele>329.5</ele><time>2026-05-03T13:36:21.971Z</time></trkpt><trkpt lat="45.981157221133266" lon="8.932302529492175"><ele>322.0</ele><time>2026-05-03T13:36:22.971Z</time></trkpt><trkpt lat="45.980932261116315" lon="8.932152744364224"><ele>325.0</ele><time>2026-05-03T13:36:23.971Z</time></trkpt><trkpt lat="45.98070997556478" lon="8.931998655403014"><ele>328.0</ele><time>2026-05-03T13:36:24.971Z</time></trkpt><trkpt lat="45.98048837877015" lon="8.931842316747938"><ele>323.0</ele><time>2026-05-03T13:36:25.971Z</time></trkpt><trkpt lat="45.98026831531932" lon="8.931683443652707"><ele>318.0</ele><time>2026-05-03T13:36:26.971Z</time></trkpt><trkpt lat="45.98004965004929" lon="8.931527255707994"><ele>320.5</ele><time>2026-05-03T13:36:27.971Z</time></trkpt><trkpt lat="45.979828434781716" lon="8.93136967991462"><ele>323.0</ele><time>2026-05-03T13:36:28.971Z</time></trkpt><trkpt lat="45.979609757917615" lon="8.931214091351784"><ele>323.0</ele><time>2026-05-03T13:36:29.97Z</time></trkpt><trkpt lat="45.979392046765795" lon="8.93105564793068"><ele>323.0</ele><time>2026-05-03T13:36:30.97Z</time></trkpt><trkpt lat="45.979173209200596" lon="8.930901511595627"><ele>322.0</ele><time>2026-05-03T13:36:31.97Z</time></trkpt><trkpt lat="45.97895129308381" lon="8.930755553660244"><ele>321.0</ele><time>2026-05-03T13:36:32.969Z</time></trkpt><trkpt lat="45.978725581891815" lon="8.930620844660101"><ele>321.0</ele><time>2026-05-03T13:36:33.97Z</time></trkpt><trkpt lat="45.9784993549699" lon="8.93048872663279"><ele>321.0</ele><time>2026-05-03T13:36:34.97Z</time></trkpt><trkpt lat="45.9782711905087" lon="8.930365495881048"><ele>326.0</ele><time>2026-05-03T13:36:35.97Z</time></trkpt><trkpt lat="45.978042535142215" lon="8.930244662111651"><ele>331.0</ele><time>2026-05-03T13:36:36.969Z</time></trkpt><trkpt lat="45.97780999223774" lon="8.930127497946716"><ele>325.5</ele><time>2026-05-03T13:36:37.969Z</time></trkpt><trkpt lat="45.97757537681271" lon="8.930016688028955"><ele>320.0</ele><time>2026-05-03T13:36:38.969Z</time></trkpt><trkpt lat="45.97734534249671" lon="8.9299139649625"><ele>320.0</ele><time>2026-05-03T13:36:39.97Z</time></trkpt><trkpt lat="45.97710799294407" lon="8.929818772449043"><ele>320.0</ele><time>2026-05-03T13:36:40.97Z</time></trkpt><trkpt lat="45.97687007392426" lon="8.92972616122921"><ele>323.5</ele><time>2026-05-03T13:36:41.97Z</time></trkpt><trkpt lat="45.976632628252936" lon="8.929637708533749"><ele>327.0</ele><time>2026-05-03T13:36:42.97Z</time></trkpt><trkpt lat="45.97639330676163" lon="8.929546803490362"><ele>327.0</ele><time>2026-05-03T13:36:43.97Z</time></trkpt><trkpt lat="45.976152010648995" lon="8.929478901805851"><ele>327.0</ele><time>2026-05-03T13:36:44.97Z</time></trkpt><trkpt lat="45.97591351687664" lon="8.929413044943471"><ele>330.5</ele><time>2026-05-03T13:36:45.97Z</time></trkpt><trkpt lat="45.97567453944421" lon="8.92935193884427"><ele>334.0</ele><time>2026-05-03T13:36:46.97Z</time></trkpt><trkpt lat="45.9754368047523" lon="8.92929747545969"><ele>334.0</ele><time>2026-05-03T13:36:47.97Z</time></trkpt><trkpt lat="45.97520104900596" lon="8.929235457918724"><ele>334.0</ele><time>2026-05-03T13:36:48.97Z</time></trkpt><trkpt lat="45.97496843795508" lon="8.929187864891857"><ele>321.0</ele><time>2026-05-03T13:36:49.97Z</time></trkpt><trkpt lat="45.974735266163854" lon="8.929127756739133"><ele>308.0</ele><time>2026-05-03T13:36:50.97Z</time></trkpt><trkpt lat="45.97450252559278" lon="8.929065401145218"><ele>308.0</ele><time>2026-05-03T13:36:51.97Z</time></trkpt><trkpt lat="45.97427271040215" lon="8.928995052658486"><ele>308.0</ele><time>2026-05-03T13:36:52.97Z</time></trkpt><trkpt lat="45.97404218104778" lon="8.928915212909336"><ele>313.0</ele><time>2026-05-03T13:36:53.97Z</time></trkpt><trkpt lat="45.97381140166303" lon="8.92883152072151"><ele>318.0</ele><time>2026-05-03T13:36:54.97Z</time></trkpt><trkpt lat="45.973581325516776" lon="8.928740438025912"><ele>319.5</ele><time>2026-05-03T13:36:55.97Z</time></trkpt><trkpt lat="45.973352134768355" lon="8.928646881898901"><ele>321.0</ele><time>2026-05-03T13:36:56.97Z</time></trkpt><trkpt lat="45.97312770161349" lon="8.92854682354365"><ele>321.0</ele><time>2026-05-03T13:36:57.97Z</time></trkpt><trkpt lat="45.97290334563597" lon="8.928440621502965"><ele>321.0</ele><time>2026-05-03T13:36:58.97Z</time></trkpt><trkpt lat="45.97268108172782" lon="8.92832626849441"><ele>311.0</ele><time>2026-05-03T13:36:59.97Z</time></trkpt><trkpt lat="45.97246430904344" lon="8.928213480167408"><ele>301.0</ele><time>2026-05-03T13:37:00.97Z</time></trkpt><trkpt lat="45.97224520271374" lon="8.928092177629283"><ele>301.0</ele><time>2026-05-03T13:37:01.97Z</time></trkpt><trkpt lat="45.97202803862644" lon="8.927959312801805"><ele>301.0</ele><time>2026-05-03T13:37:02.97Z</time></trkpt><trkpt lat="45.971811195769014" lon="8.927825862667659"><ele>302.0</ele><time>2026-05-03T13:37:03.97Z</time></trkpt><trkpt lat="45.97159766346636" lon="8.92768134224071"><ele>303.0</ele><time>2026-05-03T13:37:04.97Z</time></trkpt><trkpt lat="45.971384051485025" lon="8.92753467640697"><ele>301.0</ele><time>2026-05-03T13:37:05.97Z</time></trkpt><trkpt lat="45.97117641584894" lon="8.92737956316317"><ele>299.0</ele><time>2026-05-03T13:37:06.97Z</time></trkpt><trkpt lat="45.9709645150414" lon="8.927223028596861"><ele>300.0</ele><time>2026-05-03T13:37:07.97Z</time></trkpt><trkpt lat="45.970755541165786" lon="8.927059659147472"><ele>301.0</ele><time>2026-05-03T13:37:08.97Z</time></trkpt><trkpt lat="45.97054713848033" lon="8.926892181426682"><ele>301.0</ele><time>2026-05-03T13:37:09.97Z</time></trkpt><trkpt lat="45.97013208738603" lon="8.926555286942929"><ele>301.0</ele><time>2026-05-03T13:37:11.97Z</time></trkpt><trkpt lat="45.96992613993747" lon="8.92638802015439"><ele>301.0</ele><time>2026-05-03T13:37:12.97Z</time></trkpt><trkpt lat="45.969719096584676" lon="8.926226755578066"><ele>301.0</ele><time>2026-05-03T13:37:13.97Z</time></trkpt><trkpt lat="45.969508084424135" lon="8.926076414057547"><ele>301.0</ele><time>2026-05-03T13:37:14.97Z</time></trkpt><trkpt lat="45.96929358163152" lon="8.92593924928898"><ele>298.5</ele><time>2026-05-03T13:37:15.97Z</time></trkpt><trkpt lat="45.96907466441513" lon="8.925815216881379"><ele>296.0</ele><time>2026-05-03T13:37:16.97Z</time></trkpt><trkpt lat="45.96885156612489" lon="8.925706299171939"><ele>296.0</ele><time>2026-05-03T13:37:17.97Z</time></trkpt><trkpt lat="45.96862502137498" lon="8.925609777630799"><ele>296.0</ele><time>2026-05-03T13:37:18.97Z</time></trkpt><trkpt lat="45.96839260834412" lon="8.925531763392332"><ele>299.5</ele><time>2026-05-03T13:37:19.97Z</time></trkpt><trkpt lat="45.968160690330734" lon="8.925466280834657"><ele>303.0</ele><time>2026-05-03T13:37:20.97Z</time></trkpt><trkpt lat="45.96792493775871" lon="8.925418675130029"><ele>303.0</ele><time>2026-05-03T13:37:21.97Z</time></trkpt><trkpt lat="45.967685592416004" lon="8.925388246315872"><ele>303.0</ele><time>2026-05-03T13:37:22.97Z</time></trkpt><trkpt lat="45.96745628584239" lon="8.925369246852142"><ele>304.0</ele><time>2026-05-03T13:37:23.97Z</time></trkpt><trkpt lat="45.96722263070541" lon="8.925360053781858"><ele>305.0</ele><time>2026-05-03T13:37:24.97Z</time></trkpt><trkpt lat="45.96698934105993" lon="8.925372873856334"><ele>305.0</ele><time>2026-05-03T13:37:25.97Z</time></trkpt><trkpt lat="45.96675656515879" lon="8.925394382372714"><ele>305.0</ele><time>2026-05-03T13:37:26.97Z</time></trkpt><trkpt lat="45.966525182187475" lon="8.925427983789385"><ele>304.0</ele><time>2026-05-03T13:37:27.97Z</time></trkpt><trkpt lat="45.96629367175254" lon="8.925476360876086"><ele>303.0</ele><time>2026-05-03T13:37:28.97Z</time></trkpt><trkpt lat="45.96606384661086" lon="8.925544734575634"><ele>303.0</ele><time>2026-05-03T13:37:29.97Z</time></trkpt><trkpt lat="45.96583522269325" lon="8.925627162788235"><ele>303.0</ele><time>2026-05-03T13:37:30.97Z</time></trkpt><trkpt lat="45.96561129680102" lon="8.925719448213517"><ele>303.0</ele><time>2026-05-03T13:37:31.97Z</time></trkpt><trkpt lat="45.965387085273946" lon="8.925825514213537"><ele>303.0</ele><time>2026-05-03T13:37:32.97Z</time></trkpt><trkpt lat="45.96516750835049" lon="8.925942863112388"><ele>306.5</ele><time>2026-05-03T13:37:33.97Z</time></trkpt><trkpt lat="45.96495488565323" lon="8.926075574122962"><ele>310.0</ele><time>2026-05-03T13:37:34.97Z</time></trkpt><trkpt lat="45.964743807322456" lon="8.926222335603283"><ele>310.0</ele><time>2026-05-03T13:37:35.97Z</time></trkpt><trkpt lat="45.964537253820815" lon="8.926393424492371"><ele>310.0</ele><time>2026-05-03T13:37:36.97Z</time></trkpt><trkpt lat="45.964334321684746" lon="8.926559089691946"><ele>321.5</ele><time>2026-05-03T13:37:37.97Z</time></trkpt><trkpt lat="45.96413707371026" lon="8.926739651630863"><ele>333.0</ele><time>2026-05-03T13:37:38.97Z</time></trkpt><trkpt lat="45.963948452950675" lon="8.926933708378542"><ele>333.0</ele><time>2026-05-03T13:37:39.97Z</time></trkpt><trkpt lat="45.9637624508438" lon="8.92713350499219"><ele>333.0</ele><time>2026-05-03T13:37:40.97Z</time></trkpt><trkpt lat="45.96357787952406" lon="8.927337639188703"><ele>333.0</ele><time>2026-05-03T13:37:41.97Z</time></trkpt><trkpt lat="45.96339023393555" lon="8.927529831534132"><ele>333.0</ele><time>2026-05-03T13:37:42.97Z</time></trkpt><trkpt lat="45.963202196104696" lon="8.927726350107923"><ele>358.0</ele><time>2026-05-03T13:37:43.97Z</time></trkpt><trkpt lat="45.963014576478095" lon="8.92792442503547"><ele>383.0</ele><time>2026-05-03T13:37:44.97Z</time></trkpt><trkpt lat="45.96282968041809" lon="8.92812569025951"><ele>383.0</ele><time>2026-05-03T13:37:45.97Z</time></trkpt><trkpt lat="45.962646547165086" lon="8.92833117228094"><ele>383.0</ele><time>2026-05-03T13:37:46.971Z</time></trkpt><trkpt lat="45.95749466031073" lon="8.947144533470341"><ele>348.6666666666667</ele><time>2026-05-03T13:38:48.971Z</time></trkpt><trkpt lat="45.95727917522572" lon="8.947196352078508"><ele>314.3333333333333</ele><time>2026-05-03T13:38:49.971Z</time></trkpt><trkpt lat="45.95716784917201" lon="8.947465493494853"><ele>280.0</ele><time>2026-05-03T13:38:50.971Z</time></trkpt><trkpt lat="45.95698992507077" lon="8.947682862601674"><ele>280.0</ele><time>2026-05-03T13:38:51.971Z</time></trkpt><trkpt lat="45.95680046471063" lon="8.947905998992969"><ele>280.0</ele><time>2026-05-03T13:38:52.971Z</time></trkpt><trkpt lat="45.956617271356514" lon="8.94813319061102"><ele>278.5</ele><time>2026-05-03T13:38:53.971Z</time></trkpt><trkpt lat="45.956433291471235" lon="8.94837960805985"><ele>277.0</ele><time>2026-05-03T13:38:54.969Z</time></trkpt><trkpt lat="45.95625590751436" lon="8.948637043333267"><ele>277.0</ele><time>2026-05-03T13:38:55.97Z</time></trkpt><trkpt lat="45.956079984093286" lon="8.948891675665251"><ele>277.0</ele><time>2026-05-03T13:38:56.97Z</time></trkpt><trkpt lat="45.95590982175977" lon="8.949149140882396"><ele>276.5</ele><time>2026-05-03T13:38:57.97Z</time></trkpt><trkpt lat="45.955746413827235" lon="8.94942168293885"><ele>276.0</ele><time>2026-05-03T13:38:58.97Z</time></trkpt><trkpt lat="45.95559241048779" lon="8.949697020086562"><ele>276.0</ele><time>2026-05-03T13:38:59.97Z</time></trkpt><trkpt lat="45.955444814455795" lon="8.949976363014805"><ele>276.0</ele><time>2026-05-03T13:39:00.97Z</time></trkpt><trkpt lat="45.9553038131587" lon="8.950268227910305"><ele>277.5</ele><time>2026-05-03T13:39:01.97Z</time></trkpt><trkpt lat="45.95517466053473" lon="8.950567298534374"><ele>279.0</ele><time>2026-05-03T13:39:02.97Z</time></trkpt><trkpt lat="45.955055269486856" lon="8.950876438238966"><ele>276.5</ele><time>2026-05-03T13:39:03.97Z</time></trkpt><trkpt lat="45.95494358971969" lon="8.951191208391663"><ele>274.0</ele><time>2026-05-03T13:39:04.969Z</time></trkpt><trkpt lat="45.954841194946965" lon="8.95151033187774"><ele>273.5</ele><time>2026-05-03T13:39:05.969Z</time></trkpt><trkpt lat="45.95474728803506" lon="8.951838510596986"><ele>273.0</ele><time>2026-05-03T13:39:06.97Z</time></trkpt><trkpt lat="45.95465935061496" lon="8.952164050751847"><ele>273.0</ele><time>2026-05-03T13:39:07.97Z</time></trkpt><trkpt lat="45.95457855793979" lon="8.952493698730605"><ele>273.0</ele><time>2026-05-03T13:39:08.97Z</time></trkpt><trkpt lat="45.95450197054866" lon="8.952827354265018"><ele>272.5</ele><time>2026-05-03T13:39:09.97Z</time></trkpt><trkpt lat="45.95442746475011" lon="8.953163720793855"><ele>272.0</ele><time>2026-05-03T13:39:10.97Z</time></trkpt><trkpt lat="45.95435276922" lon="8.953498886948857"><ele>272.0</ele><time>2026-05-03T13:39:11.97Z</time></trkpt><trkpt lat="45.95428021882489" lon="8.95382842878028"><ele>272.0</ele><time>2026-05-03T13:39:12.97Z</time></trkpt><trkpt lat="45.954211854428934" lon="8.954163142916936"><ele>273.0</ele><time>2026-05-03T13:39:13.97Z</time></trkpt><trkpt lat="45.95414825048306" lon="8.954493361036999"><ele>274.0</ele><time>2026-05-03T13:39:14.97Z</time></trkpt><trkpt lat="45.95408558970183" lon="8.954827275750057"><ele>273.5</ele><time>2026-05-03T13:39:15.97Z</time></trkpt><trkpt lat="45.95402384396692" lon="8.955161840373565"><ele>273.0</ele><time>2026-05-03T13:39:16.97Z</time></trkpt><trkpt lat="45.953967605290906" lon="8.955495098999139"><ele>273.0</ele><time>2026-05-03T13:39:17.97Z</time></trkpt><trkpt lat="45.953914397546775" lon="8.955830567004297"><ele>273.0</ele><time>2026-05-03T13:39:18.97Z</time></trkpt><trkpt lat="45.95385847252742" lon="8.956164777963636"><ele>273.0</ele><time>2026-05-03T13:39:19.97Z</time></trkpt><trkpt lat="45.953820786749105" lon="8.956500264258873"><ele>273.0</ele><time>2026-05-03T13:39:20.97Z</time></trkpt><trkpt lat="45.953777176581134" lon="8.956838045992496"><ele>273.0</ele><time>2026-05-03T13:39:21.97Z</time></trkpt><trkpt lat="45.95373419279114" lon="8.957171779445574"><ele>273.0</ele><time>2026-05-03T13:39:22.97Z</time></trkpt><trkpt lat="45.95369188890451" lon="8.95750403210861"><ele>272.5</ele><time>2026-05-03T13:39:23.97Z</time></trkpt><trkpt lat="45.9536554441664" lon="8.957837347039929"><ele>272.0</ele><time>2026-05-03T13:39:24.97Z</time></trkpt><trkpt lat="45.9536182181312" lon="8.958162644165718"><ele>272.5</ele><time>2026-05-03T13:39:25.97Z</time></trkpt><trkpt lat="45.95358128919888" lon="8.958488088889103"><ele>273.0</ele><time>2026-05-03T13:39:26.97Z</time></trkpt><trkpt lat="45.95355287120493" lon="8.958815362850904"><ele>273.0</ele><time>2026-05-03T13:39:27.97Z</time></trkpt><trkpt lat="45.95351727467396" lon="8.959141640119295"><ele>273.0</ele><time>2026-05-03T13:39:28.97Z</time></trkpt><trkpt lat="45.953498231236374" lon="8.959474074112181"><ele>273.0</ele><time>2026-05-03T13:39:29.97Z</time></trkpt><trkpt lat="45.953473090927034" lon="8.959803449627088"><ele>273.0</ele><time>2026-05-03T13:39:30.97Z</time></trkpt><trkpt lat="45.953450645753946" lon="8.960135664296198"><ele>273.0</ele><time>2026-05-03T13:39:31.97Z</time></trkpt><trkpt lat="45.95342407277706" lon="8.96047531973622"><ele>273.0</ele><time>2026-05-03T13:39:32.97Z</time></trkpt><trkpt lat="45.95339810236761" lon="8.96081172168154"><ele>274.0</ele><time>2026-05-03T13:39:33.97Z</time></trkpt><trkpt lat="45.953362480138836" lon="8.961147578141015"><ele>275.0</ele><time>2026-05-03T13:39:34.97Z</time></trkpt><trkpt lat="45.953320819934575" lon="8.961480632006369"><ele>275.5</ele><time>2026-05-03T13:39:35.97Z</time></trkpt><trkpt lat="45.95326934592536" lon="8.961812472264386"><ele>276.0</ele><time>2026-05-03T13:39:36.97Z</time></trkpt><trkpt lat="45.95320507276935" lon="8.962138445980425"><ele>276.0</ele><time>2026-05-03T13:39:37.97Z</time></trkpt><trkpt lat="45.95312778838384" lon="8.962447530548866"><ele>276.0</ele><time>2026-05-03T13:39:38.97Z</time></trkpt><trkpt lat="45.95303861306397" lon="8.962760280780383"><ele>274.5</ele><time>2026-05-03T13:39:39.97Z</time></trkpt><trkpt lat="45.95293885957757" lon="8.96306427984537"><ele>273.0</ele><time>2026-05-03T13:39:40.97Z</time></trkpt><trkpt lat="45.952836151692644" lon="8.963363887967299"><ele>274.0</ele><time>2026-05-03T13:39:41.97Z</time></trkpt><trkpt lat="45.95271762339558" lon="8.963649005823227"><ele>275.0</ele><time>2026-05-03T13:39:42.97Z</time></trkpt><trkpt lat="45.95258916883761" lon="8.963932152450747"><ele>278.0</ele><time>2026-05-03T13:39:43.97Z</time></trkpt><trkpt lat="45.952452130733604" lon="8.964204700271505"><ele>281.0</ele><time>2026-05-03T13:39:44.97Z</time></trkpt><trkpt lat="45.95229878636038" lon="8.964476725428819"><ele>281.0</ele><time>2026-05-03T13:39:45.97Z</time></trkpt><trkpt lat="45.952128075525515" lon="8.964728936480526"><ele>281.0</ele><time>2026-05-03T13:39:46.97Z</time></trkpt><trkpt lat="45.951959093879545" lon="8.964983432251097"><ele>286.5</ele><time>2026-05-03T13:39:47.97Z</time></trkpt><trkpt lat="45.951756910307736" lon="8.965198224223244"><ele>292.0</ele><time>2026-05-03T13:39:48.97Z</time></trkpt><trkpt lat="45.95156810527839" lon="8.965413151381808"><ele>292.0</ele><time>2026-05-03T13:39:49.97Z</time></trkpt><trkpt lat="45.95136915038244" lon="8.965610562136288"><ele>292.0</ele><time>2026-05-03T13:39:50.97Z</time></trkpt><trkpt lat="45.951153597657836" lon="8.965789193676777"><ele>295.5</ele><time>2026-05-03T13:39:51.97Z</time></trkpt><trkpt lat="45.950939372542365" lon="8.965957745564197"><ele>299.0</ele><time>2026-05-03T13:39:52.97Z</time></trkpt><trkpt lat="45.950729091669864" lon="8.966112479250762"><ele>299.0</ele><time>2026-05-03T13:39:53.97Z</time></trkpt><trkpt lat="45.95051108990394" lon="8.966255941396179"><ele>299.0</ele><time>2026-05-03T13:39:54.97Z</time></trkpt><trkpt lat="45.95028803152475" lon="8.966374253522254"><ele>299.0</ele><time>2026-05-03T13:39:55.97Z</time></trkpt><trkpt lat="45.95006636857054" lon="8.966482807485898"><ele>299.0</ele><time>2026-05-03T13:39:56.97Z</time></trkpt><trkpt lat="45.949838772787174" lon="8.966577738181984"><ele>294.0</ele><time>2026-05-03T13:39:57.97Z</time></trkpt><trkpt lat="45.949611581194496" lon="8.966654002066994"><ele>289.0</ele><time>2026-05-03T13:39:58.97Z</time></trkpt><trkpt lat="45.949378452056045" lon="8.966720780451126"><ele>301.5</ele><time>2026-05-03T13:39:59.97Z</time></trkpt><trkpt lat="45.94914148694775" lon="8.966770314305732"><ele>314.0</ele><time>2026-05-03T13:40:00.97Z</time></trkpt><trkpt lat="45.94890380164132" lon="8.966822394743287"><ele>314.0</ele><time>2026-05-03T13:40:01.97Z</time></trkpt><trkpt lat="45.94865172911639" lon="8.966783717635941"><ele>314.0</ele><time>2026-05-03T13:40:02.97Z</time></trkpt><trkpt lat="45.94840154555329" lon="8.96677748115696"><ele>314.0</ele><time>2026-05-03T13:40:03.97Z</time></trkpt><trkpt lat="45.94815698234488" lon="8.966780305103166"><ele>314.0</ele><time>2026-05-03T13:40:04.97Z</time></trkpt><trkpt lat="45.947909414285284" lon="8.966766827144493"><ele>314.0</ele><time>2026-05-03T13:40:05.97Z</time></trkpt><trkpt lat="45.94765720439584" lon="8.96673693665389"><ele>314.0</ele><time>2026-05-03T13:40:06.97Z</time></trkpt><trkpt lat="45.94740899583378" lon="8.966683565692268"><ele>302.5</ele><time>2026-05-03T13:40:07.97Z</time></trkpt><trkpt lat="45.94715437047309" lon="8.96662473315363"><ele>291.0</ele><time>2026-05-03T13:40:08.97Z</time></trkpt><trkpt lat="45.9469115495189" lon="8.966566043536181"><ele>296.0</ele><time>2026-05-03T13:40:09.97Z</time></trkpt><trkpt lat="45.94665685978993" lon="8.966504274485416"><ele>301.0</ele><time>2026-05-03T13:40:10.97Z</time></trkpt><trkpt lat="45.94641134543574" lon="8.966422013296903"><ele>301.0</ele><time>2026-05-03T13:40:11.97Z</time></trkpt><trkpt lat="45.94617032240524" lon="8.966342149349032"><ele>301.0</ele><time>2026-05-03T13:40:12.97Z</time></trkpt><trkpt lat="45.945933640190304" lon="8.966279997250268"><ele>312.5</ele><time>2026-05-03T13:40:13.97Z</time></trkpt><trkpt lat="45.94569200284127" lon="8.966213711121"><ele>324.0</ele><time>2026-05-03T13:40:14.97Z</time></trkpt><trkpt lat="45.945451404943654" lon="8.966133819529626"><ele>324.0</ele><time>2026-05-03T13:40:15.97Z</time></trkpt><trkpt lat="45.94521645649657" lon="8.966057816971354"><ele>324.0</ele><time>2026-05-03T13:40:16.97Z</time></trkpt><trkpt lat="45.9449835543326" lon="8.965985708106063"><ele>329.5</ele><time>2026-05-03T13:40:17.971Z</time></trkpt><trkpt lat="45.944751121584815" lon="8.965903365801184"><ele>335.0</ele><time>2026-05-03T13:40:18.971Z</time></trkpt><trkpt lat="45.9445130386625" lon="8.965845469066322"><ele>318.5</ele><time>2026-05-03T13:40:19.971Z</time></trkpt><trkpt lat="45.94428213041225" lon="8.965784084175278"><ele>302.0</ele><time>2026-05-03T13:40:20.971Z</time></trkpt><trkpt lat="45.94404843985923" lon="8.965744415236973"><ele>302.0</ele><time>2026-05-03T13:40:21.971Z</time></trkpt><trkpt lat="45.9438153145069" lon="8.965712423743236"><ele>302.0</ele><time>2026-05-03T13:40:22.971Z</time></trkpt><trkpt lat="45.94358212541438" lon="8.96569226873287"><ele>316.0</ele><time>2026-05-03T13:40:23.971Z</time></trkpt><trkpt lat="45.943349581067444" lon="8.965683168943517"><ele>330.0</ele><time>2026-05-03T13:40:24.971Z</time></trkpt><trkpt lat="45.94311585767826" lon="8.965674333524383"><ele>330.0</ele><time>2026-05-03T13:40:25.971Z</time></trkpt><trkpt lat="45.94287927419939" lon="8.965666437220529"><ele>330.0</ele><time>2026-05-03T13:40:26.971Z</time></trkpt><trkpt lat="45.94264843414923" lon="8.965644796019038"><ele>348.0</ele><time>2026-05-03T13:40:27.971Z</time></trkpt><trkpt lat="45.94241229432386" lon="8.965637128920964"><ele>366.0</ele><time>2026-05-03T13:40:28.971Z</time></trkpt><trkpt lat="45.94216929437936" lon="8.965630688647149"><ele>366.0</ele><time>2026-05-03T13:40:29.971Z</time></trkpt><trkpt lat="45.941915274586485" lon="8.96562629901725"><ele>366.0</ele><time>2026-05-03T13:40:30.971Z</time></trkpt><trkpt lat="45.941678493314974" lon="8.96561509962987"><ele>289.0</ele><time>2026-05-03T13:40:31.971Z</time></trkpt><trkpt lat="45.93837450647478" lon="8.96901162997641"><ele>297.5</ele><time>2026-05-03T13:40:51.971Z</time></trkpt><trkpt lat="45.93830966543975" lon="8.969395327562987"><ele>306.0</ele><time>2026-05-03T13:40:52.971Z</time></trkpt><trkpt lat="45.93825169048833" lon="8.969782009154937"><ele>317.0</ele><time>2026-05-03T13:40:53.971Z</time></trkpt><trkpt lat="45.93816097234662" lon="8.970133181828638"><ele>328.0</ele><time>2026-05-03T13:40:54.971Z</time></trkpt><trkpt lat="45.9380462326769" lon="8.970445417781463"><ele>328.0</ele><time>2026-05-03T13:40:55.971Z</time></trkpt><trkpt lat="45.9379226841071" lon="8.970739833256072"><ele>328.0</ele><time>2026-05-03T13:40:56.971Z</time></trkpt><trkpt lat="45.93778311615425" lon="8.97101506720787"><ele>325.66666666666663</ele><time>2026-05-03T13:40:57.971Z</time></trkpt><trkpt lat="45.93764213858814" lon="8.971257350579792"><ele>323.3333333333333</ele><time>2026-05-03T13:40:58.971Z</time></trkpt><trkpt lat="45.93750436231154" lon="8.971498262233013"><ele>321.0</ele><time>2026-05-03T13:40:59.971Z</time></trkpt><trkpt lat="45.937353872095" lon="8.971739525576172"><ele>321.0</ele><time>2026-05-03T13:41:00.97Z</time></trkpt><trkpt lat="45.937208121365686" lon="8.971978477851204"><ele>321.0</ele><time>2026-05-03T13:41:01.969Z</time></trkpt><trkpt lat="45.93705636469571" lon="8.972220942626896"><ele>321.0</ele><time>2026-05-03T13:41:02.969Z</time></trkpt><trkpt lat="45.936889063855915" lon="8.97244539726464"><ele>316.5</ele><time>2026-05-03T13:41:03.97Z</time></trkpt><trkpt lat="45.93670671215301" lon="8.972669384620628"><ele>312.0</ele><time>2026-05-03T13:41:04.969Z</time></trkpt><trkpt lat="45.93651098679326" lon="8.97289258008489"><ele>312.0</ele><time>2026-05-03T13:41:05.969Z</time></trkpt><trkpt lat="45.93630460779783" lon="8.97311800290277"><ele>312.0</ele><time>2026-05-03T13:41:06.97Z</time></trkpt><trkpt lat="45.936093691868216" lon="8.973333270177859"><ele>312.5</ele><time>2026-05-03T13:41:07.97Z</time></trkpt><trkpt lat="45.93587265256842" lon="8.97354649691271"><ele>313.0</ele><time>2026-05-03T13:41:08.97Z</time></trkpt><trkpt lat="45.935644074810206" lon="8.973748097754424"><ele>313.0</ele><time>2026-05-03T13:41:09.97Z</time></trkpt><trkpt lat="45.93541475060321" lon="8.973928462272422"><ele>313.0</ele><time>2026-05-03T13:41:10.969Z</time></trkpt><trkpt lat="45.93518085602548" lon="8.974086523063983"><ele>308.0</ele><time>2026-05-03T13:41:11.969Z</time></trkpt><trkpt lat="45.9349457569625" lon="8.97424408350588"><ele>303.0</ele><time>2026-05-03T13:41:12.97Z</time></trkpt><trkpt lat="45.93469534215612" lon="8.974396363140139"><ele>303.0</ele><time>2026-05-03T13:41:13.97Z</time></trkpt><trkpt lat="45.93444177777318" lon="8.974551368308683"><ele>303.0</ele><time>2026-05-03T13:41:14.97Z</time></trkpt><trkpt lat="45.93418159412987" lon="8.974703520886539"><ele>298.0</ele><time>2026-05-03T13:41:15.97Z</time></trkpt><trkpt lat="45.933916837329946" lon="8.974859827995333"><ele>293.0</ele><time>2026-05-03T13:41:16.97Z</time></trkpt><trkpt lat="45.93365051814845" lon="8.975024346130336"><ele>295.5</ele><time>2026-05-03T13:41:17.97Z</time></trkpt><trkpt lat="45.93338106090732" lon="8.975188500461186"><ele>298.0</ele><time>2026-05-03T13:41:18.97Z</time></trkpt><trkpt lat="45.933108421460446" lon="8.97534908855501"><ele>298.0</ele><time>2026-05-03T13:41:19.97Z</time></trkpt><trkpt lat="45.93283828791177" lon="8.975507643463017"><ele>298.0</ele><time>2026-05-03T13:41:20.97Z</time></trkpt><trkpt lat="45.93256822826093" lon="8.975671969486346"><ele>300.0</ele><time>2026-05-03T13:41:21.97Z</time></trkpt><trkpt lat="45.93229792644857" lon="8.975836708393961"><ele>302.0</ele><time>2026-05-03T13:41:22.97Z</time></trkpt><trkpt lat="45.93203004680996" lon="8.976002998256696"><ele>302.0</ele><time>2026-05-03T13:41:23.97Z</time></trkpt><trkpt lat="45.931760780807934" lon="8.976168193617767"><ele>302.0</ele><time>2026-05-03T13:41:24.97Z</time></trkpt><trkpt lat="45.93149159195589" lon="8.976324640245148"><ele>295.0</ele><time>2026-05-03T13:41:25.97Z</time></trkpt><trkpt lat="45.93122556147633" lon="8.97648233596092"><ele>288.0</ele><time>2026-05-03T13:41:26.97Z</time></trkpt><trkpt lat="45.93095950400481" lon="8.976638455942632"><ele>294.0</ele><time>2026-05-03T13:41:27.97Z</time></trkpt><trkpt lat="45.93070047513993" lon="8.976792770083248"><ele>300.0</ele><time>2026-05-03T13:41:28.97Z</time></trkpt><trkpt lat="45.93044284279179" lon="8.976935914709633"><ele>300.0</ele><time>2026-05-03T13:41:29.97Z</time></trkpt><trkpt lat="45.930181047845636" lon="8.977079796060252"><ele>300.0</ele><time>2026-05-03T13:41:30.97Z</time></trkpt><trkpt lat="45.92992052130211" lon="8.977220596586285"><ele>292.0</ele><time>2026-05-03T13:41:31.97Z</time></trkpt><trkpt lat="45.92965595111784" lon="8.9773596732026"><ele>284.0</ele><time>2026-05-03T13:41:32.97Z</time></trkpt><trkpt lat="45.92938567553243" lon="8.977500018098421"><ele>284.5</ele><time>2026-05-03T13:41:33.97Z</time></trkpt><trkpt lat="45.92911374663758" lon="8.97764457811379"><ele>285.0</ele><time>2026-05-03T13:41:34.97Z</time></trkpt><trkpt lat="45.92884130834627" lon="8.97777942260159"><ele>285.0</ele><time>2026-05-03T13:41:35.97Z</time></trkpt><trkpt lat="45.928565780525034" lon="8.977911932844954"><ele>285.0</ele><time>2026-05-03T13:41:36.97Z</time></trkpt><trkpt lat="45.92828617495202" lon="8.978040943182686"><ele>283.5</ele><time>2026-05-03T13:41:37.97Z</time></trkpt><trkpt lat="45.928009492756026" lon="8.978174077545157"><ele>282.0</ele><time>2026-05-03T13:41:38.97Z</time></trkpt><trkpt lat="45.927733414543326" lon="8.978314694736527"><ele>281.5</ele><time>2026-05-03T13:41:39.97Z</time></trkpt><trkpt lat="45.92745883256972" lon="8.97845896074731"><ele>281.0</ele><time>2026-05-03T13:41:40.97Z</time></trkpt><trkpt lat="45.92718440230241" lon="8.978601363501953"><ele>281.0</ele><time>2026-05-03T13:41:41.97Z</time></trkpt><trkpt lat="45.926909313087286" lon="8.97874797541639"><ele>281.0</ele><time>2026-05-03T13:41:42.97Z</time></trkpt><trkpt lat="45.926637211082685" lon="8.978896257448982"><ele>281.5</ele><time>2026-05-03T13:41:43.97Z</time></trkpt><trkpt lat="45.92636890429736" lon="8.97905184031598"><ele>282.0</ele><time>2026-05-03T13:41:44.97Z</time></trkpt><trkpt lat="45.92610711956284" lon="8.97920846644323"><ele>283.5</ele><time>2026-05-03T13:41:45.97Z</time></trkpt><trkpt lat="45.925859479887436" lon="8.979361985622042"><ele>285.0</ele><time>2026-05-03T13:41:46.97Z</time></trkpt><trkpt lat="45.92560571335243" lon="8.979512171073113"><ele>285.0</ele><time>2026-05-03T13:41:47.97Z</time></trkpt><trkpt lat="45.925358576985786" lon="8.979667381581052"><ele>285.0</ele><time>2026-05-03T13:41:48.97Z</time></trkpt><trkpt lat="45.92511664066888" lon="8.979821010165121"><ele>284.0</ele><time>2026-05-03T13:41:49.97Z</time></trkpt><trkpt lat="45.92487360186141" lon="8.979984436429529"><ele>283.0</ele><time>2026-05-03T13:41:50.97Z</time></trkpt><trkpt lat="45.92463203570892" lon="8.98014395199324"><ele>283.0</ele><time>2026-05-03T13:41:51.97Z</time></trkpt><trkpt lat="45.92438976638643" lon="8.980308900362035"><ele>283.0</ele><time>2026-05-03T13:41:52.97Z</time></trkpt><trkpt lat="45.92413871067697" lon="8.980476792407044"><ele>281.5</ele><time>2026-05-03T13:41:53.97Z</time></trkpt><trkpt lat="45.92388418914644" lon="8.980659502541915"><ele>280.0</ele><time>2026-05-03T13:41:54.971Z</time></trkpt><trkpt lat="45.92362715138174" lon="8.980843961397571"><ele>279.0</ele><time>2026-05-03T13:41:55.971Z</time></trkpt><trkpt lat="45.92336632439471" lon="8.981030214806115"><ele>278.0</ele><time>2026-05-03T13:41:56.971Z</time></trkpt><trkpt lat="45.92310155602645" lon="8.981216873447806"><ele>278.0</ele><time>2026-05-03T13:41:57.971Z</time></trkpt><trkpt lat="45.922837175914715" lon="8.981398248469043"><ele>278.0</ele><time>2026-05-03T13:41:58.971Z</time></trkpt><trkpt lat="45.92257257464868" lon="8.981579593406206"><ele>279.0</ele><time>2026-05-03T13:41:59.971Z</time></trkpt><trkpt lat="45.922309960958344" lon="8.981763542929892"><ele>280.0</ele><time>2026-05-03T13:42:00.971Z</time></trkpt><trkpt lat="45.92204979798218" lon="8.981947129169367"><ele>280.0</ele><time>2026-05-03T13:42:01.971Z</time></trkpt><trkpt lat="45.921790576743795" lon="8.98213080681882"><ele>280.0</ele><time>2026-05-03T13:42:02.971Z</time></trkpt><trkpt lat="45.92153226524805" lon="8.982314198448538"><ele>279.5</ele><time>2026-05-03T13:42:03.971Z</time></trkpt><trkpt lat="45.921272819509355" lon="8.98249630699849"><ele>279.0</ele><time>2026-05-03T13:42:04.971Z</time></trkpt><trkpt lat="45.92101504551007" lon="8.982678107885933"><ele>279.0</ele><time>2026-05-03T13:42:05.971Z</time></trkpt><trkpt lat="45.920758651098446" lon="8.982856836125295"><ele>279.0</ele><time>2026-05-03T13:42:06.971Z</time></trkpt><trkpt lat="45.920506973581894" lon="8.98303206888112"><ele>279.0</ele><time>2026-05-03T13:42:07.971Z</time></trkpt><trkpt lat="45.92024962156984" lon="8.983207572981573"><ele>279.0</ele><time>2026-05-03T13:42:08.971Z</time></trkpt><trkpt lat="45.91999171735288" lon="8.983389694547723"><ele>279.0</ele><time>2026-05-03T13:42:09.971Z</time></trkpt><trkpt lat="45.91973282838498" lon="8.983571370447612"><ele>279.0</ele><time>2026-05-03T13:42:10.971Z</time></trkpt><trkpt lat="45.919470310831116" lon="8.983750727068141"><ele>278.5</ele><time>2026-05-03T13:42:11.971Z</time></trkpt><trkpt lat="45.9192018251461" lon="8.983924882856995"><ele>278.0</ele><time>2026-05-03T13:42:12.971Z</time></trkpt><trkpt lat="45.91893082238734" lon="8.984093850127492"><ele>279.5</ele><time>2026-05-03T13:42:13.971Z</time></trkpt><trkpt lat="45.918652718094485" lon="8.984251199303841"><ele>281.0</ele><time>2026-05-03T13:42:14.971Z</time></trkpt><trkpt lat="45.9183757274652" lon="8.98440102696104"><ele>282.5</ele><time>2026-05-03T13:42:15.971Z</time></trkpt><trkpt lat="45.91809372640803" lon="8.98454181815055"><ele>284.0</ele><time>2026-05-03T13:42:16.971Z</time></trkpt><trkpt lat="45.917807734815625" lon="8.984671745075003"><ele>283.0</ele><time>2026-05-03T13:42:17.971Z</time></trkpt><trkpt lat="45.91752565695503" lon="8.984780640738018"><ele>282.0</ele><time>2026-05-03T13:42:18.971Z</time></trkpt><trkpt lat="45.917235729892774" lon="8.984884081699578"><ele>282.0</ele><time>2026-05-03T13:42:19.971Z</time></trkpt><trkpt lat="45.91694500863344" lon="8.984962326672587"><ele>282.0</ele><time>2026-05-03T13:42:20.971Z</time></trkpt><trkpt lat="45.91665465048778" lon="8.98503754644355"><ele>288.0</ele><time>2026-05-03T13:42:21.971Z</time></trkpt><trkpt lat="45.916353257070625" lon="8.985094334747048"><ele>294.0</ele><time>2026-05-03T13:42:22.971Z</time></trkpt><trkpt lat="45.91605656209737" lon="8.985124308388604"><ele>303.0</ele><time>2026-05-03T13:42:23.971Z</time></trkpt><trkpt lat="45.915762354225556" lon="8.985143368610668"><ele>312.0</ele><time>2026-05-03T13:42:24.971Z</time></trkpt><trkpt lat="45.915461088299786" lon="8.985142234077097"><ele>312.0</ele><time>2026-05-03T13:42:25.971Z</time></trkpt><trkpt lat="45.915165786031054" lon="8.985124334813067"><ele>312.0</ele><time>2026-05-03T13:42:26.971Z</time></trkpt><trkpt lat="45.9148644161744" lon="8.985093792680981"><ele>317.5</ele><time>2026-05-03T13:42:27.971Z</time></trkpt><trkpt lat="45.914577317407144" lon="8.98504675985127"><ele>323.0</ele><time>2026-05-03T13:42:28.971Z</time></trkpt><trkpt lat="45.91427596743592" lon="8.984989830846375"><ele>313.0</ele><time>2026-05-03T13:42:29.971Z</time></trkpt><trkpt lat="45.91397741652225" lon="8.984906591067261"><ele>303.0</ele><time>2026-05-03T13:42:30.971Z</time></trkpt><trkpt lat="45.913685360462566" lon="8.984818440490104"><ele>309.0</ele><time>2026-05-03T13:42:31.971Z</time></trkpt><trkpt lat="45.91339233200605" lon="8.984712466685536"><ele>315.0</ele><time>2026-05-03T13:42:32.971Z</time></trkpt><trkpt lat="45.91310200467376" lon="8.984598379561236"><ele>315.0</ele><time>2026-05-03T13:42:33.971Z</time></trkpt><trkpt lat="45.91281192247377" lon="8.98448828771892"><ele>315.0</ele><time>2026-05-03T13:42:34.971Z</time></trkpt><trkpt lat="45.912520256202875" lon="8.984378900612507"><ele>326.0</ele><time>2026-05-03T13:42:35.971Z</time></trkpt><trkpt lat="45.91222395236719" lon="8.984283208201045"><ele>337.0</ele><time>2026-05-03T13:42:36.971Z</time></trkpt><trkpt lat="45.911929240775365" lon="8.984197966043507"><ele>325.0</ele><time>2026-05-03T13:42:37.971Z</time></trkpt><trkpt lat="45.91163313683157" lon="8.984122144566983"><ele>313.0</ele><time>2026-05-03T13:42:38.971Z</time></trkpt><trkpt lat="45.911333913720526" lon="8.984071586193139"><ele>313.0</ele><time>2026-05-03T13:42:39.971Z</time></trkpt><trkpt lat="45.911033865834305" lon="8.984030798677578"><ele>313.0</ele><time>2026-05-03T13:42:40.971Z</time></trkpt><trkpt lat="45.91073221326788" lon="8.984003357715602"><ele>316.0</ele><time>2026-05-03T13:42:41.971Z</time></trkpt><trkpt lat="45.910427719423545" lon="8.983990687564237"><ele>319.0</ele><time>2026-05-03T13:42:42.971Z</time></trkpt><trkpt lat="45.91012441378705" lon="8.983984539542956"><ele>319.0</ele><time>2026-05-03T13:42:43.971Z</time></trkpt><trkpt lat="45.90981905411178" lon="8.983973371917644"><ele>319.0</ele><time>2026-05-03T13:42:44.971Z</time></trkpt><trkpt lat="45.909513552008036" lon="8.98396882180355"><ele>320.0</ele><time>2026-05-03T13:42:45.971Z</time></trkpt><trkpt lat="45.909209398488464" lon="8.98394777001048"><ele>321.0</ele><time>2026-05-03T13:42:46.971Z</time></trkpt><trkpt lat="45.90890044012056" lon="8.983923590486002"><ele>321.0</ele><time>2026-05-03T13:42:47.971Z</time></trkpt><trkpt lat="45.90859818722799" lon="8.983874624540725"><ele>321.0</ele><time>2026-05-03T13:42:48.971Z</time></trkpt><trkpt lat="45.90829851892821" lon="8.98380890348821"><ele>324.0</ele><time>2026-05-03T13:42:49.971Z</time></trkpt><trkpt lat="45.90799959693207" lon="8.983722973254244"><ele>327.0</ele><time>2026-05-03T13:42:50.971Z</time></trkpt><trkpt lat="45.907706430176376" lon="8.983612960227072"><ele>332.5</ele><time>2026-05-03T13:42:51.971Z</time></trkpt><trkpt lat="45.90741114973674" lon="8.983486688430972"><ele>338.0</ele><time>2026-05-03T13:42:52.971Z</time></trkpt><trkpt lat="45.90712324554489" lon="8.983345475000883"><ele>331.0</ele><time>2026-05-03T13:42:53.971Z</time></trkpt><trkpt lat="45.90683810303788" lon="8.983189816575026"><ele>324.0</ele><time>2026-05-03T13:42:54.971Z</time></trkpt><trkpt lat="45.90655714445909" lon="8.98301971432975"><ele>324.0</ele><time>2026-05-03T13:42:55.971Z</time></trkpt><trkpt lat="45.906279498038835" lon="8.98285389429983"><ele>324.0</ele><time>2026-05-03T13:42:56.971Z</time></trkpt><trkpt lat="45.90599761246509" lon="8.982691385743646"><ele>318.5</ele><time>2026-05-03T13:42:57.971Z</time></trkpt><trkpt lat="45.9057152883837" lon="8.982522716815442"><ele>313.0</ele><time>2026-05-03T13:42:58.971Z</time></trkpt><trkpt lat="45.905427350623505" lon="8.982361577888994"><ele>313.0</ele><time>2026-05-03T13:42:59.971Z</time></trkpt><trkpt lat="45.90513684308069" lon="8.9821967037522"><ele>313.0</ele><time>2026-05-03T13:43:00.971Z</time></trkpt><trkpt lat="45.904843484052364" lon="8.982049316475111"><ele>324.5</ele><time>2026-05-03T13:43:01.971Z</time></trkpt><trkpt lat="45.90455544595106" lon="8.98189624481871"><ele>336.0</ele><time>2026-05-03T13:43:02.971Z</time></trkpt><trkpt lat="45.90426423174866" lon="8.981746532965568"><ele>328.0</ele><time>2026-05-03T13:43:03.971Z</time></trkpt><trkpt lat="45.90397029363502" lon="8.981606591933987"><ele>320.0</ele><time>2026-05-03T13:43:04.971Z</time></trkpt><trkpt lat="45.903678995580286" lon="8.981469483415017"><ele>327.5</ele><time>2026-05-03T13:43:05.971Z</time></trkpt><trkpt lat="45.90338745813305" lon="8.981332453318446"><ele>335.0</ele><time>2026-05-03T13:43:06.97Z</time></trkpt><trkpt lat="45.903096935427776" lon="8.981200549664443"><ele>335.0</ele><time>2026-05-03T13:43:07.97Z</time></trkpt><trkpt lat="45.90280751590433" lon="8.981054824433958"><ele>335.0</ele><time>2026-05-03T13:43:08.97Z</time></trkpt><trkpt lat="45.902522147561186" lon="8.980915695520983"><ele>328.0</ele><time>2026-05-03T13:43:09.97Z</time></trkpt><trkpt lat="45.90223466221927" lon="8.980761287700933"><ele>321.0</ele><time>2026-05-03T13:43:10.97Z</time></trkpt><trkpt lat="45.90195170595172" lon="8.980583150262436"><ele>333.0</ele><time>2026-05-03T13:43:11.97Z</time></trkpt><trkpt lat="45.9016814039015" lon="8.980413985566633"><ele>345.0</ele><time>2026-05-03T13:43:12.97Z</time></trkpt><trkpt lat="45.90140194181816" lon="8.980233771595886"><ele>345.0</ele><time>2026-05-03T13:43:13.97Z</time></trkpt><trkpt lat="45.90112783488822" lon="8.980046722362628"><ele>345.0</ele><time>2026-05-03T13:43:14.97Z</time></trkpt><trkpt lat="45.90085328162658" lon="8.979848922256668"><ele>338.0</ele><time>2026-05-03T13:43:15.97Z</time></trkpt><trkpt lat="45.900583437503464" lon="8.979637479945472"><ele>331.0</ele><time>2026-05-03T13:43:16.97Z</time></trkpt><trkpt lat="45.90032031279773" lon="8.979422367008574"><ele>327.5</ele><time>2026-05-03T13:43:17.97Z</time></trkpt><trkpt lat="45.90005509895636" lon="8.979200069475725"><ele>324.0</ele><time>2026-05-03T13:43:18.97Z</time></trkpt><trkpt lat="45.899791839385664" lon="8.978965792325337"><ele>324.0</ele><time>2026-05-03T13:43:19.97Z</time></trkpt><trkpt lat="45.89953017038378" lon="8.978736248291192"><ele>324.0</ele><time>2026-05-03T13:43:20.97Z</time></trkpt><trkpt lat="45.89926479377474" lon="8.978508282092879"><ele>319.0</ele><time>2026-05-03T13:43:21.97Z</time></trkpt><trkpt lat="45.899011133310914" lon="8.978276543166213"><ele>314.0</ele><time>2026-05-03T13:43:22.97Z</time></trkpt><trkpt lat="45.898735957960646" lon="8.978064662414758"><ele>314.0</ele><time>2026-05-03T13:43:23.97Z</time></trkpt><trkpt lat="45.89845942553173" lon="8.977865479889369"><ele>314.0</ele><time>2026-05-03T13:43:24.97Z</time></trkpt><trkpt lat="45.8981793302113" lon="8.977685489006843"><ele>308.5</ele><time>2026-05-03T13:43:25.97Z</time></trkpt><trkpt lat="45.89790446845789" lon="8.977496252701064"><ele>303.0</ele><time>2026-05-03T13:43:26.97Z</time></trkpt><trkpt lat="45.89763275196397" lon="8.97730273033613"><ele>316.0</ele><time>2026-05-03T13:43:27.97Z</time></trkpt><trkpt lat="45.89732318350737" lon="8.977215978591039"><ele>329.0</ele><time>2026-05-03T13:43:28.97Z</time></trkpt><trkpt lat="45.897028888663876" lon="8.977098291854785"><ele>335.5</ele><time>2026-05-03T13:43:29.97Z</time></trkpt><trkpt lat="45.89673673801432" lon="8.97698332403344"><ele>342.0</ele><time>2026-05-03T13:43:30.97Z</time></trkpt><trkpt lat="45.8964413209599" lon="8.976879773300821"><ele>342.0</ele><time>2026-05-03T13:43:31.97Z</time></trkpt><trkpt lat="45.89614376154256" lon="8.976775159939313"><ele>342.0</ele><time>2026-05-03T13:43:32.97Z</time></trkpt><trkpt lat="45.895845083891324" lon="8.976668431351467"><ele>331.5</ele><time>2026-05-03T13:43:33.97Z</time></trkpt><trkpt lat="45.89554922075602" lon="8.976558023180159"><ele>321.0</ele><time>2026-05-03T13:43:34.97Z</time></trkpt><trkpt lat="45.89524657536012" lon="8.97645677170902"><ele>325.0</ele><time>2026-05-03T13:43:35.97Z</time></trkpt><trkpt lat="45.894946199397005" lon="8.97634497346725"><ele>329.0</ele><time>2026-05-03T13:43:36.97Z</time></trkpt><trkpt lat="45.8946503163419" lon="8.97624046829641"><ele>329.0</ele><time>2026-05-03T13:43:37.97Z</time></trkpt><trkpt lat="45.89435186617339" lon="8.9761375613767"><ele>329.0</ele><time>2026-05-03T13:43:38.97Z</time></trkpt><trkpt lat="45.89404726195368" lon="8.9760528624152"><ele>325.5</ele><time>2026-05-03T13:43:39.97Z</time></trkpt><trkpt lat="45.89373921320621" lon="8.975983833857049"><ele>322.0</ele><time>2026-05-03T13:43:40.97Z</time></trkpt><trkpt lat="45.89343185944887" lon="8.975939843605525"><ele>323.5</ele><time>2026-05-03T13:43:41.97Z</time></trkpt><trkpt lat="45.89313218361135" lon="8.975914759701105"><ele>325.0</ele><time>2026-05-03T13:43:42.97Z</time></trkpt><trkpt lat="45.89282981938304" lon="8.975905786952508"><ele>326.5</ele><time>2026-05-03T13:43:43.97Z</time></trkpt><trkpt lat="45.89252921981337" lon="8.975904728037182"><ele>328.0</ele><time>2026-05-03T13:43:44.97Z</time></trkpt><trkpt lat="45.892227746976644" lon="8.975909815677777"><ele>328.0</ele><time>2026-05-03T13:43:45.97Z</time></trkpt><trkpt lat="45.89192567991791" lon="8.975936575578514"><ele>328.0</ele><time>2026-05-03T13:43:46.97Z</time></trkpt><trkpt lat="45.89162555377256" lon="8.975982698134585"><ele>326.5</ele><time>2026-05-03T13:43:47.97Z</time></trkpt><trkpt lat="45.891325853241916" lon="8.976043527747718"><ele>325.0</ele><time>2026-05-03T13:43:48.97Z</time></trkpt><trkpt lat="45.891030473130115" lon="8.976114468417537"><ele>318.5</ele><time>2026-05-03T13:43:49.97Z</time></trkpt><trkpt lat="45.89073792884859" lon="8.976206180351717"><ele>312.0</ele><time>2026-05-03T13:43:50.97Z</time></trkpt><trkpt lat="45.89044321765512" lon="8.976306727282948"><ele>312.0</ele><time>2026-05-03T13:43:51.97Z</time></trkpt><trkpt lat="45.89015310873049" lon="8.976423988331167"><ele>312.0</ele><time>2026-05-03T13:43:52.97Z</time></trkpt><trkpt lat="45.88986873792083" lon="8.976554665792998"><ele>309.5</ele><time>2026-05-03T13:43:53.97Z</time></trkpt><trkpt lat="45.8895847749379" lon="8.976693895372431"><ele>307.0</ele><time>2026-05-03T13:43:54.97Z</time></trkpt><trkpt lat="45.88930337538146" lon="8.976845204050724"><ele>303.0</ele><time>2026-05-03T13:43:55.971Z</time></trkpt><trkpt lat="45.88902824502551" lon="8.97702050848895"><ele>299.0</ele><time>2026-05-03T13:43:56.971Z</time></trkpt><trkpt lat="45.88875430928601" lon="8.977207366227317"><ele>299.0</ele><time>2026-05-03T13:43:57.971Z</time></trkpt><trkpt lat="45.88848760151038" lon="8.977403820562296"><ele>299.0</ele><time>2026-05-03T13:43:58.971Z</time></trkpt><trkpt lat="45.888228335894176" lon="8.977617304173243"><ele>300.0</ele><time>2026-05-03T13:43:59.971Z</time></trkpt><trkpt lat="45.8879646153429" lon="8.977834140068378"><ele>301.0</ele><time>2026-05-03T13:44:00.971Z</time></trkpt><trkpt lat="45.887706960078965" lon="8.978060239098628"><ele>302.0</ele><time>2026-05-03T13:44:01.971Z</time></trkpt><trkpt lat="45.88745073851824" lon="8.978290463766866"><ele>303.0</ele><time>2026-05-03T13:44:02.971Z</time></trkpt><trkpt lat="45.88719453879525" lon="8.978520098307364"><ele>303.0</ele><time>2026-05-03T13:44:03.971Z</time></trkpt><trkpt lat="45.886931392696084" lon="8.97873735265996"><ele>303.0</ele><time>2026-05-03T13:44:04.971Z</time></trkpt><trkpt lat="45.88666489985239" lon="8.978949616648054"><ele>303.0</ele><time>2026-05-03T13:44:05.971Z</time></trkpt><trkpt lat="45.88639373839549" lon="8.979153374597528"><ele>303.0</ele><time>2026-05-03T13:44:06.971Z</time></trkpt><trkpt lat="45.88611651373064" lon="8.979344035841416"><ele>302.5</ele><time>2026-05-03T13:44:07.971Z</time></trkpt><trkpt lat="45.88584216196297" lon="8.979525167657588"><ele>302.0</ele><time>2026-05-03T13:44:08.971Z</time></trkpt><trkpt lat="45.88555480682165" lon="8.9796866526921"><ele>302.0</ele><time>2026-05-03T13:44:09.971Z</time></trkpt><trkpt lat="45.885274135112184" lon="8.979844514978147"><ele>302.0</ele><time>2026-05-03T13:44:10.971Z</time></trkpt><trkpt lat="45.884987846470125" lon="8.979992765567212"><ele>306.5</ele><time>2026-05-03T13:44:11.971Z</time></trkpt><trkpt lat="45.88469589251654" lon="8.980118230117725"><ele>311.0</ele><time>2026-05-03T13:44:12.971Z</time></trkpt><trkpt lat="45.88440831748458" lon="8.98023860138875"><ele>309.0</ele><time>2026-05-03T13:44:13.971Z</time></trkpt><trkpt lat="45.884113612708354" lon="8.980344518868536"><ele>307.0</ele><time>2026-05-03T13:44:14.971Z</time></trkpt><trkpt lat="45.883819559069224" lon="8.980443639014855"><ele>307.0</ele><time>2026-05-03T13:44:15.971Z</time></trkpt><trkpt lat="45.883529738645464" lon="8.980533769245598"><ele>307.0</ele><time>2026-05-03T13:44:16.971Z</time></trkpt><trkpt lat="45.883233788200954" lon="8.980613010134158"><ele>303.5</ele><time>2026-05-03T13:44:17.971Z</time></trkpt><trkpt lat="45.88294454490953" lon="8.980680095527637"><ele>300.0</ele><time>2026-05-03T13:44:18.971Z</time></trkpt><trkpt lat="45.88265103292915" lon="8.980730682480267"><ele>298.0</ele><time>2026-05-03T13:44:19.971Z</time></trkpt><trkpt lat="45.88235507529579" lon="8.980768391983519"><ele>296.0</ele><time>2026-05-03T13:44:20.971Z</time></trkpt><trkpt lat="45.88206262307074" lon="8.980797434954567"><ele>296.0</ele><time>2026-05-03T13:44:21.971Z</time></trkpt><trkpt lat="45.88176807295286" lon="8.980810315777315"><ele>296.0</ele><time>2026-05-03T13:44:22.971Z</time></trkpt><trkpt lat="45.88147123117195" lon="8.980809287693084"><ele>296.5</ele><time>2026-05-03T13:44:23.971Z</time></trkpt><trkpt lat="45.881176614880076" lon="8.980800287744298"><ele>297.0</ele><time>2026-05-03T13:44:24.971Z</time></trkpt><trkpt lat="45.88088373733178" lon="8.980779763440065"><ele>298.0</ele><time>2026-05-03T13:44:25.971Z</time></trkpt><trkpt lat="45.88059151365706" lon="8.980742064439767"><ele>299.0</ele><time>2026-05-03T13:44:26.971Z</time></trkpt><trkpt lat="45.880297187779" lon="8.98069223292447"><ele>299.5</ele><time>2026-05-03T13:44:27.971Z</time></trkpt><trkpt lat="45.88001131731315" lon="8.980642180473048"><ele>300.0</ele><time>2026-05-03T13:44:28.971Z</time></trkpt><trkpt lat="45.87973723223863" lon="8.980579066712721"><ele>300.0</ele><time>2026-05-03T13:44:29.971Z</time></trkpt><trkpt lat="45.87947508961931" lon="8.980508373254326"><ele>300.0</ele><time>2026-05-03T13:44:30.971Z</time></trkpt><trkpt lat="45.879218449077634" lon="8.980429990214288"><ele>301.5</ele><time>2026-05-03T13:44:31.971Z</time></trkpt><trkpt lat="45.87897137718282" lon="8.980347798340006"><ele>303.0</ele><time>2026-05-03T13:44:32.971Z</time></trkpt><trkpt lat="45.87872856701463" lon="8.980253041108424"><ele>303.0</ele><time>2026-05-03T13:44:33.971Z</time></trkpt><trkpt lat="45.878490432894864" lon="8.98015233275182"><ele>303.0</ele><time>2026-05-03T13:44:34.971Z</time></trkpt><trkpt lat="45.878259255859284" lon="8.980037025452562"><ele>303.0</ele><time>2026-05-03T13:44:35.971Z</time></trkpt><trkpt lat="45.87802901254063" lon="8.979920736955913"><ele>303.0</ele><time>2026-05-03T13:44:36.971Z</time></trkpt><trkpt lat="45.877803480212286" lon="8.979801072899292"><ele>305.5</ele><time>2026-05-03T13:44:37.971Z</time></trkpt><trkpt lat="45.87757587142476" lon="8.979674626062335"><ele>308.0</ele><time>2026-05-03T13:44:38.971Z</time></trkpt><trkpt lat="45.87734529094266" lon="8.979544748710627"><ele>308.0</ele><time>2026-05-03T13:44:39.971Z</time></trkpt><trkpt lat="45.87711692290042" lon="8.979401899030558"><ele>308.0</ele><time>2026-05-03T13:44:40.971Z</time></trkpt><trkpt lat="45.87689690608306" lon="8.979247807559558"><ele>307.0</ele><time>2026-05-03T13:44:41.971Z</time></trkpt><trkpt lat="45.87666545514841" lon="8.979095434573894"><ele>306.0</ele><time>2026-05-03T13:44:42.971Z</time></trkpt><trkpt lat="45.87643838798763" lon="8.978920356313806"><ele>306.0</ele><time>2026-05-03T13:44:43.971Z</time></trkpt><trkpt lat="45.876216911315126" lon="8.978739184521977"><ele>306.0</ele><time>2026-05-03T13:44:44.971Z</time></trkpt><trkpt lat="45.875997109703654" lon="8.978543950314561"><ele>307.0</ele><time>2026-05-03T13:44:45.971Z</time></trkpt><trkpt lat="45.875780973398285" lon="8.97834720643432"><ele>308.0</ele><time>2026-05-03T13:44:46.971Z</time></trkpt><trkpt lat="45.875561570301265" lon="8.97814449415363"><ele>308.0</ele><time>2026-05-03T13:44:47.971Z</time></trkpt><trkpt lat="45.87534680662984" lon="8.977950124389329"><ele>308.0</ele><time>2026-05-03T13:44:48.971Z</time></trkpt><trkpt lat="45.875131452765686" lon="8.977758194694383"><ele>307.5</ele><time>2026-05-03T13:44:49.971Z</time></trkpt><trkpt lat="45.874916264318756" lon="8.977565607281262"><ele>307.0</ele><time>2026-05-03T13:44:50.971Z</time></trkpt><trkpt lat="45.87470284125973" lon="8.977372738003336"><ele>307.0</ele><time>2026-05-03T13:44:51.971Z</time></trkpt><trkpt lat="45.874487811659584" lon="8.977181070708665"><ele>307.0</ele><time>2026-05-03T13:44:52.971Z</time></trkpt><trkpt lat="45.87427277626967" lon="8.976990377417103"><ele>307.5</ele><time>2026-05-03T13:44:53.971Z</time></trkpt><trkpt lat="45.87405709481659" lon="8.97680190856036"><ele>308.0</ele><time>2026-05-03T13:44:54.971Z</time></trkpt><trkpt lat="45.87384587287388" lon="8.976609546282218"><ele>308.0</ele><time>2026-05-03T13:44:55.971Z</time></trkpt><trkpt lat="45.873634626079415" lon="8.976416520483323"><ele>308.0</ele><time>2026-05-03T13:44:56.971Z</time></trkpt><trkpt lat="45.8734224783349" lon="8.976227057904586"><ele>309.0</ele><time>2026-05-03T13:44:57.971Z</time></trkpt><trkpt lat="45.87321076617361" lon="8.976041751387816"><ele>310.0</ele><time>2026-05-03T13:44:58.971Z</time></trkpt><trkpt lat="45.87299656251037" lon="8.975852846645779"><ele>310.0</ele><time>2026-05-03T13:44:59.971Z</time></trkpt><trkpt lat="45.872783731566756" lon="8.975657575288631"><ele>310.0</ele><time>2026-05-03T13:45:00.971Z</time></trkpt><trkpt lat="45.87256693020912" lon="8.975471976633896"><ele>315.0</ele><time>2026-05-03T13:45:01.971Z</time></trkpt><trkpt lat="45.87234969323753" lon="8.97527969897993"><ele>320.0</ele><time>2026-05-03T13:45:02.971Z</time></trkpt><trkpt lat="45.87213930078781" lon="8.975081727860317"><ele>318.5</ele><time>2026-05-03T13:45:03.971Z</time></trkpt><trkpt lat="45.87192627098001" lon="8.974891827098235"><ele>317.0</ele><time>2026-05-03T13:45:04.971Z</time></trkpt><trkpt lat="45.87170817219298" lon="8.974705266906629"><ele>317.0</ele><time>2026-05-03T13:45:05.971Z</time></trkpt><trkpt lat="45.871493700954346" lon="8.974515134846662"><ele>317.0</ele><time>2026-05-03T13:45:06.971Z</time></trkpt><trkpt lat="45.87127380181987" lon="8.97432326831631"><ele>317.5</ele><time>2026-05-03T13:45:07.972Z</time></trkpt><trkpt lat="45.87106282773327" lon="8.974127243832713"><ele>318.0</ele><time>2026-05-03T13:45:08.972Z</time></trkpt><trkpt lat="45.87084727566496" lon="8.97393047336818"><ele>318.0</ele><time>2026-05-03T13:45:09.972Z</time></trkpt><trkpt lat="45.87063239084337" lon="8.973729141434989"><ele>318.0</ele><time>2026-05-03T13:45:10.972Z</time></trkpt><trkpt lat="45.87041764531148" lon="8.973530388200349"><ele>318.0</ele><time>2026-05-03T13:45:11.972Z</time></trkpt><trkpt lat="45.87020097701517" lon="8.973332616964619"><ele>318.0</ele><time>2026-05-03T13:45:12.97Z</time></trkpt><trkpt lat="45.86998706935521" lon="8.97313806730105"><ele>315.5</ele><time>2026-05-03T13:45:13.97Z</time></trkpt><trkpt lat="45.86976848844417" lon="8.972943342219931"><ele>313.0</ele><time>2026-05-03T13:45:14.97Z</time></trkpt><trkpt lat="45.86955645369633" lon="8.97274935642335"><ele>313.0</ele><time>2026-05-03T13:45:15.969Z</time></trkpt><trkpt lat="45.86933879473635" lon="8.97255740504689"><ele>313.0</ele><time>2026-05-03T13:45:16.969Z</time></trkpt><trkpt lat="45.869117614044534" lon="8.972374633151855"><ele>314.0</ele><time>2026-05-03T13:45:17.969Z</time></trkpt><trkpt lat="45.86889528865029" lon="8.972195577960392"><ele>315.0</ele><time>2026-05-03T13:45:18.969Z</time></trkpt><trkpt lat="45.868669821651814" lon="8.972023918615157"><ele>315.0</ele><time>2026-05-03T13:45:19.97Z</time></trkpt><trkpt lat="45.86844320334063" lon="8.97186352959896"><ele>315.0</ele><time>2026-05-03T13:45:20.97Z</time></trkpt><trkpt lat="45.86821576456245" lon="8.97170606204292"><ele>321.0</ele><time>2026-05-03T13:45:21.97Z</time></trkpt><trkpt lat="45.86798537634747" lon="8.971560778760136"><ele>327.0</ele><time>2026-05-03T13:45:22.969Z</time></trkpt><trkpt lat="45.86775210401264" lon="8.97142730516108"><ele>326.5</ele><time>2026-05-03T13:45:23.969Z</time></trkpt><trkpt lat="45.867515354253726" lon="8.971293087005769"><ele>326.0</ele><time>2026-05-03T13:45:24.969Z</time></trkpt><trkpt lat="45.8672843516708" lon="8.97117563189717"><ele>326.0</ele><time>2026-05-03T13:45:25.969Z</time></trkpt><trkpt lat="45.86704263963433" lon="8.971071886672016"><ele>326.0</ele><time>2026-05-03T13:45:26.969Z</time></trkpt><trkpt lat="45.86680104298861" lon="8.97096988319948"><ele>326.5</ele><time>2026-05-03T13:45:27.969Z</time></trkpt><trkpt lat="45.86655918407305" lon="8.970876173429476"><ele>327.0</ele><time>2026-05-03T13:45:28.969Z</time></trkpt><trkpt lat="45.86631140938547" lon="8.970793131150463"><ele>327.0</ele><time>2026-05-03T13:45:29.969Z</time></trkpt><trkpt lat="45.8660645679329" lon="8.970722664597934"><ele>327.0</ele><time>2026-05-03T13:45:30.969Z</time></trkpt><trkpt lat="45.86581723796022" lon="8.970660198614967"><ele>328.5</ele><time>2026-05-03T13:45:31.969Z</time></trkpt><trkpt lat="45.86556750757118" lon="8.970605922409938"><ele>330.0</ele><time>2026-05-03T13:45:32.969Z</time></trkpt><trkpt lat="45.86531762971829" lon="8.970560064009959"><ele>331.0</ele><time>2026-05-03T13:45:33.969Z</time></trkpt><trkpt lat="45.86506792008607" lon="8.970525233952626"><ele>332.0</ele><time>2026-05-03T13:45:34.969Z</time></trkpt><trkpt lat="45.864819936687105" lon="8.970499613025963"><ele>332.0</ele><time>2026-05-03T13:45:35.969Z</time></trkpt><trkpt lat="45.86457269578144" lon="8.970482779110062"><ele>332.0</ele><time>2026-05-03T13:45:36.969Z</time></trkpt><trkpt lat="45.86432578215217" lon="8.970476244489625"><ele>330.5</ele><time>2026-05-03T13:45:37.969Z</time></trkpt><trkpt lat="45.86407697112252" lon="8.970478915128554"><ele>329.0</ele><time>2026-05-03T13:45:38.969Z</time></trkpt><trkpt lat="45.8638275711045" lon="8.970488087975959"><ele>329.0</ele><time>2026-05-03T13:45:39.969Z</time></trkpt><trkpt lat="45.863577027218824" lon="8.970504185739024"><ele>329.0</ele><time>2026-05-03T13:45:40.969Z</time></trkpt><trkpt lat="45.86332489558169" lon="8.97053398913664"><ele>330.0</ele><time>2026-05-03T13:45:41.969Z</time></trkpt><trkpt lat="45.863069889938494" lon="8.970575255193614"><ele>331.0</ele><time>2026-05-03T13:45:42.969Z</time></trkpt><trkpt lat="45.8628143284861" lon="8.970625037193315"><ele>332.5</ele><time>2026-05-03T13:45:43.969Z</time></trkpt><trkpt lat="45.862560605807786" lon="8.970685816185462"><ele>334.0</ele><time>2026-05-03T13:45:44.969Z</time></trkpt><trkpt lat="45.86230806142012" lon="8.9707574922943"><ele>334.0</ele><time>2026-05-03T13:45:45.969Z</time></trkpt><trkpt lat="45.86204526168998" lon="8.970839737283198"><ele>334.0</ele><time>2026-05-03T13:45:46.969Z</time></trkpt><trkpt lat="45.861765474467" lon="8.970936354482985"><ele>336.0</ele><time>2026-05-03T13:45:47.969Z</time></trkpt><trkpt lat="45.86147880994333" lon="8.971046675466948"><ele>338.0</ele><time>2026-05-03T13:45:48.969Z</time></trkpt><trkpt lat="45.86119125097253" lon="8.97117372093793"><ele>338.5</ele><time>2026-05-03T13:45:49.969Z</time></trkpt><trkpt lat="45.8609050399755" lon="8.971313462668498"><ele>339.0</ele><time>2026-05-03T13:45:50.969Z</time></trkpt><trkpt lat="45.86062230542804" lon="8.97147045198549"><ele>339.0</ele><time>2026-05-03T13:45:51.969Z</time></trkpt><trkpt lat="45.8603472625975" lon="8.97164114503507"><ele>339.0</ele><time>2026-05-03T13:45:52.969Z</time></trkpt><trkpt lat="45.86007083240905" lon="8.971820890816163"><ele>337.5</ele><time>2026-05-03T13:45:53.97Z</time></trkpt><trkpt lat="45.85979646757642" lon="8.972012136960876"><ele>336.0</ele><time>2026-05-03T13:45:54.97Z</time></trkpt><trkpt lat="45.85952895129839" lon="8.972216005450496"><ele>335.5</ele><time>2026-05-03T13:45:55.97Z</time></trkpt><trkpt lat="45.85926534269018" lon="8.972428409838331"><ele>335.0</ele><time>2026-05-03T13:45:56.97Z</time></trkpt><trkpt lat="45.85900415352496" lon="8.972650899731148"><ele>335.0</ele><time>2026-05-03T13:45:57.97Z</time></trkpt><trkpt lat="45.85874930615975" lon="8.972889940427839"><ele>335.0</ele><time>2026-05-03T13:45:58.97Z</time></trkpt><trkpt lat="45.85850018482043" lon="8.973139303437964"><ele>337.0</ele><time>2026-05-03T13:45:59.97Z</time></trkpt><trkpt lat="45.85825575379797" lon="8.973400524661713"><ele>339.0</ele><time>2026-05-03T13:46:00.97Z</time></trkpt><trkpt lat="45.85802091565472" lon="8.973675079699287"><ele>339.0</ele><time>2026-05-03T13:46:01.97Z</time></trkpt><trkpt lat="45.85779003155095" lon="8.973962100770269"><ele>339.0</ele><time>2026-05-03T13:46:02.97Z</time></trkpt><trkpt lat="45.85756621384873" lon="8.974249334263794"><ele>339.0</ele><time>2026-05-03T13:46:03.97Z</time></trkpt><trkpt lat="45.85734965913061" lon="8.974547208358159"><ele>339.0</ele><time>2026-05-03T13:46:04.97Z</time></trkpt><trkpt lat="45.85713900260651" lon="8.974858871081066"><ele>339.0</ele><time>2026-05-03T13:46:05.97Z</time></trkpt><trkpt lat="45.856937727720954" lon="8.975189956201445"><ele>339.0</ele><time>2026-05-03T13:46:06.97Z</time></trkpt><trkpt lat="45.85674430985649" lon="8.975513595375592"><ele>335.0</ele><time>2026-05-03T13:46:07.97Z</time></trkpt><trkpt lat="45.85654990638964" lon="8.975853837049732"><ele>331.0</ele><time>2026-05-03T13:46:08.97Z</time></trkpt><trkpt lat="45.856359347826846" lon="8.97619317817796"><ele>331.0</ele><time>2026-05-03T13:46:09.97Z</time></trkpt><trkpt lat="45.85617590917287" lon="8.976538537417435"><ele>331.0</ele><time>2026-05-03T13:46:10.97Z</time></trkpt><trkpt lat="45.85599040416716" lon="8.976878429332533"><ele>332.5</ele><time>2026-05-03T13:46:11.97Z</time></trkpt><trkpt lat="45.85580616739982" lon="8.977216854943755"><ele>334.0</ele><time>2026-05-03T13:46:12.97Z</time></trkpt><trkpt lat="45.85562224484436" lon="8.977557256656567"><ele>336.0</ele><time>2026-05-03T13:46:13.97Z</time></trkpt><trkpt lat="45.855432699518175" lon="8.977893848689844"><ele>338.0</ele><time>2026-05-03T13:46:14.97Z</time></trkpt><trkpt lat="45.85523525863004" lon="8.978218356709638"><ele>337.0</ele><time>2026-05-03T13:46:15.97Z</time></trkpt><trkpt lat="45.85502952126771" lon="8.978533668887557"><ele>336.0</ele><time>2026-05-03T13:46:16.97Z</time></trkpt><trkpt lat="45.85481801311627" lon="8.978832057161377"><ele>336.0</ele><time>2026-05-03T13:46:17.97Z</time></trkpt><trkpt lat="45.85459125874599" lon="8.979122513569182"><ele>336.0</ele><time>2026-05-03T13:46:18.97Z</time></trkpt><trkpt lat="45.85437134890848" lon="8.979413572808571"><ele>336.0</ele><time>2026-05-03T13:46:19.97Z</time></trkpt><trkpt lat="45.854143259747055" lon="8.979695348302032"><ele>336.0</ele><time>2026-05-03T13:46:20.97Z</time></trkpt><trkpt lat="45.8539079033172" lon="8.979969255107308"><ele>335.5</ele><time>2026-05-03T13:46:21.97Z</time></trkpt><trkpt lat="45.853677049701915" lon="8.980238273963872"><ele>335.0</ele><time>2026-05-03T13:46:22.97Z</time></trkpt><trkpt lat="45.85343858219134" lon="8.980509887718071"><ele>335.0</ele><time>2026-05-03T13:46:23.97Z</time></trkpt><trkpt lat="45.853199647499984" lon="8.980761252394315"><ele>335.0</ele><time>2026-05-03T13:46:24.97Z</time></trkpt><trkpt lat="45.85295860391234" lon="8.981014166305483"><ele>338.0</ele><time>2026-05-03T13:46:25.97Z</time></trkpt><trkpt lat="45.85272835766833" lon="8.981275622334689"><ele>341.0</ele><time>2026-05-03T13:46:26.97Z</time></trkpt><trkpt lat="45.852492084817754" lon="8.981530044635715"><ele>337.0</ele><time>2026-05-03T13:46:27.97Z</time></trkpt><trkpt lat="45.8522592195478" lon="8.981785880752671"><ele>333.0</ele><time>2026-05-03T13:46:28.97Z</time></trkpt><trkpt lat="45.8520255317826" lon="8.982041308727272"><ele>333.0</ele><time>2026-05-03T13:46:29.97Z</time></trkpt><trkpt lat="45.8517940288931" lon="8.982291802599336"><ele>333.0</ele><time>2026-05-03T13:46:30.97Z</time></trkpt><trkpt lat="45.85155897641559" lon="8.982544882392494"><ele>329.5</ele><time>2026-05-03T13:46:31.97Z</time></trkpt><trkpt lat="45.85132448263164" lon="8.982799629940885"><ele>326.0</ele><time>2026-05-03T13:46:32.97Z</time></trkpt><trkpt lat="45.851088170310526" lon="8.983046768768233"><ele>324.5</ele><time>2026-05-03T13:46:33.97Z</time></trkpt><trkpt lat="45.850855377281114" lon="8.9833005241737"><ele>323.0</ele><time>2026-05-03T13:46:34.97Z</time></trkpt><trkpt lat="45.85062059538296" lon="8.983555050377051"><ele>323.0</ele><time>2026-05-03T13:46:35.97Z</time></trkpt><trkpt lat="45.850389288521086" lon="8.983818498852473"><ele>323.0</ele><time>2026-05-03T13:46:36.97Z</time></trkpt><trkpt lat="45.85015796671698" lon="8.984087144278424"><ele>319.0</ele><time>2026-05-03T13:46:37.97Z</time></trkpt><trkpt lat="45.84993262360138" lon="8.98435601467924"><ele>315.0</ele><time>2026-05-03T13:46:38.969Z</time></trkpt><trkpt lat="45.849707954847595" lon="8.984633973544016"><ele>315.0</ele><time>2026-05-03T13:46:39.969Z</time></trkpt><trkpt lat="45.849487327071934" lon="8.984927712115573"><ele>315.0</ele><time>2026-05-03T13:46:40.969Z</time></trkpt><trkpt lat="45.8492754630919" lon="8.985231235988637"><ele>316.0</ele><time>2026-05-03T13:46:41.969Z</time></trkpt><trkpt lat="45.84906909419232" lon="8.985542728283445"><ele>317.0</ele><time>2026-05-03T13:46:42.969Z</time></trkpt><trkpt lat="45.84886928647648" lon="8.985862694926261"><ele>317.0</ele><time>2026-05-03T13:46:43.969Z</time></trkpt><trkpt lat="45.848676671422886" lon="8.98619818158721"><ele>317.0</ele><time>2026-05-03T13:46:44.969Z</time></trkpt><trkpt lat="45.84849354225641" lon="8.986538855791123"><ele>313.5</ele><time>2026-05-03T13:46:45.969Z</time></trkpt><trkpt lat="45.848324685805984" lon="8.986896358135409"><ele>310.0</ele><time>2026-05-03T13:46:46.969Z</time></trkpt><trkpt lat="45.84816659101526" lon="8.98726170939468"><ele>311.0</ele><time>2026-05-03T13:46:47.969Z</time></trkpt><trkpt lat="45.84801355715161" lon="8.98763915881517"><ele>312.0</ele><time>2026-05-03T13:46:48.968Z</time></trkpt><trkpt lat="45.84787599000454" lon="8.988027054984881"><ele>314.5</ele><time>2026-05-03T13:46:49.968Z</time></trkpt><trkpt lat="45.847749688610236" lon="8.988415925267029"><ele>317.0</ele><time>2026-05-03T13:46:50.968Z</time></trkpt><trkpt lat="45.84763290645971" lon="8.988818280755925"><ele>312.0</ele><time>2026-05-03T13:46:51.968Z</time></trkpt><trkpt lat="45.84752853978648" lon="8.989225747997677"><ele>307.0</ele><time>2026-05-03T13:46:52.968Z</time></trkpt><trkpt lat="45.84743836206257" lon="8.989637602805455"><ele>307.5</ele><time>2026-05-03T13:46:53.968Z</time></trkpt><trkpt lat="45.847359244015" lon="8.990055913763518"><ele>308.0</ele><time>2026-05-03T13:46:54.968Z</time></trkpt><trkpt lat="45.847292167140886" lon="8.990484803803497"><ele>306.5</ele><time>2026-05-03T13:46:55.968Z</time></trkpt><trkpt lat="45.84723197803814" lon="8.990916770652285"><ele>305.0</ele><time>2026-05-03T13:46:56.968Z</time></trkpt><trkpt lat="45.84716428983658" lon="8.991347168047577"><ele>304.0</ele><time>2026-05-03T13:46:57.968Z</time></trkpt><trkpt lat="45.8470932450172" lon="8.991776683992798"><ele>303.0</ele><time>2026-05-03T13:46:58.968Z</time></trkpt><trkpt lat="45.84701440316344" lon="8.992205721146748"><ele>301.5</ele><time>2026-05-03T13:46:59.968Z</time></trkpt><trkpt lat="45.84692645087487" lon="8.992633908377217"><ele>300.0</ele><time>2026-05-03T13:47:00.968Z</time></trkpt><trkpt lat="45.84681736990772" lon="8.993057350493189"><ele>292.5</ele><time>2026-05-03T13:47:01.968Z</time></trkpt><trkpt lat="45.84669659251977" lon="8.993472287469979"><ele>285.0</ele><time>2026-05-03T13:47:02.968Z</time></trkpt><trkpt lat="45.84656148284859" lon="8.993879514159548"><ele>283.5</ele><time>2026-05-03T13:47:03.968Z</time></trkpt><trkpt lat="45.846417098261924" lon="8.994278847290492"><ele>282.0</ele><time>2026-05-03T13:47:04.968Z</time></trkpt><trkpt lat="45.84625374285424" lon="8.994670164602413"><ele>281.5</ele><time>2026-05-03T13:47:05.968Z</time></trkpt><trkpt lat="45.84607861170602" lon="8.995049944681858"><ele>281.0</ele><time>2026-05-03T13:47:06.968Z</time></trkpt><trkpt lat="45.84589152843024" lon="8.995416625911172"><ele>282.0</ele><time>2026-05-03T13:47:07.968Z</time></trkpt><trkpt lat="45.845696904710735" lon="8.99577545218802"><ele>283.0</ele><time>2026-05-03T13:47:08.968Z</time></trkpt><trkpt lat="45.84549387125737" lon="8.996121332720861"><ele>283.5</ele><time>2026-05-03T13:47:09.968Z</time></trkpt><trkpt lat="45.845286854761056" lon="8.996456425721462"><ele>284.0</ele><time>2026-05-03T13:47:10.968Z</time></trkpt><trkpt lat="45.84507517754536" lon="8.996780874376162"><ele>282.0</ele><time>2026-05-03T13:47:11.968Z</time></trkpt><trkpt lat="45.84486547992887" lon="8.997106604699173"><ele>280.0</ele><time>2026-05-03T13:47:12.968Z</time></trkpt><trkpt lat="45.844662550684966" lon="8.997434604981402"><ele>279.0</ele><time>2026-05-03T13:47:13.968Z</time></trkpt><trkpt lat="45.84446428520946" lon="8.997769719081344"><ele>278.0</ele><time>2026-05-03T13:47:14.968Z</time></trkpt><trkpt lat="45.844273860132226" lon="8.998109897917415"><ele>276.5</ele><time>2026-05-03T13:47:15.968Z</time></trkpt><trkpt lat="45.84409865574367" lon="8.998458590595137"><ele>275.0</ele><time>2026-05-03T13:47:16.968Z</time></trkpt><trkpt lat="45.8439372270411" lon="8.998822243884696"><ele>273.5</ele><time>2026-05-03T13:47:17.968Z</time></trkpt><trkpt lat="45.84378577917743" lon="8.99919027439527"><ele>272.0</ele><time>2026-05-03T13:47:18.966Z</time></trkpt><trkpt lat="45.843649872505544" lon="8.999578360989888"><ele>272.0</ele><time>2026-05-03T13:47:19.967Z</time></trkpt><trkpt lat="45.84352648061401" lon="8.999961631583702"><ele>272.0</ele><time>2026-05-03T13:47:20.967Z</time></trkpt><trkpt lat="45.84341192860357" lon="9.000355440396975"><ele>271.5</ele><time>2026-05-03T13:47:21.966Z</time></trkpt><trkpt lat="45.84331316665865" lon="9.000757472663919"><ele>271.0</ele><time>2026-05-03T13:47:22.966Z</time></trkpt><trkpt lat="45.8432253327675" lon="9.00115943698412"><ele>272.5</ele><time>2026-05-03T13:47:23.966Z</time></trkpt><trkpt lat="45.84315250367854" lon="9.001565350398103"><ele>274.0</ele><time>2026-05-03T13:47:24.966Z</time></trkpt><trkpt lat="45.84309263195706" lon="9.001985129096923"><ele>274.5</ele><time>2026-05-03T13:47:25.966Z</time></trkpt><trkpt lat="45.84304066954426" lon="9.002403048691297"><ele>275.0</ele><time>2026-05-03T13:47:26.966Z</time></trkpt><trkpt lat="45.843004818130424" lon="9.002821261016745"><ele>275.5</ele><time>2026-05-03T13:47:27.966Z</time></trkpt><trkpt lat="45.842977450045275" lon="9.003220791522228"><ele>276.0</ele><time>2026-05-03T13:47:28.966Z</time></trkpt><trkpt lat="45.8429693139285" lon="9.00359892098206"><ele>274.0</ele><time>2026-05-03T13:47:29.966Z</time></trkpt><trkpt lat="45.842973874949266" lon="9.003970290824338"><ele>272.0</ele><time>2026-05-03T13:47:30.966Z</time></trkpt><trkpt lat="45.84298618952398" lon="9.004339643112896"><ele>266.5</ele><time>2026-05-03T13:47:31.967Z</time></trkpt><trkpt lat="45.84300167471419" lon="9.00471222702831"><ele>261.0</ele><time>2026-05-03T13:47:32.967Z</time></trkpt><trkpt lat="45.84302940645387" lon="9.00508369174555"><ele>259.5</ele><time>2026-05-03T13:47:33.967Z</time></trkpt><trkpt lat="45.84306451553108" lon="9.0054503795745"><ele>258.0</ele><time>2026-05-03T13:47:34.967Z</time></trkpt><trkpt lat="45.84310855019147" lon="9.005812300048396"><ele>257.0</ele><time>2026-05-03T13:47:35.967Z</time></trkpt><trkpt lat="45.843159780108344" lon="9.006174537547802"><ele>256.0</ele><time>2026-05-03T13:47:36.967Z</time></trkpt><trkpt lat="45.843215748942605" lon="9.006532877283941"><ele>254.0</ele><time>2026-05-03T13:47:37.967Z</time></trkpt><trkpt lat="45.84327471870258" lon="9.006895863587767"><ele>252.0</ele><time>2026-05-03T13:47:38.967Z</time></trkpt><trkpt lat="45.84333191846786" lon="9.007250111484522"><ele>252.0</ele><time>2026-05-03T13:47:39.967Z</time></trkpt><trkpt lat="45.84338967268056" lon="9.007590883499278"><ele>252.0</ele><time>2026-05-03T13:47:40.967Z</time></trkpt><trkpt lat="45.84344682596664" lon="9.007925953038654"><ele>255.5</ele><time>2026-05-03T13:47:41.967Z</time></trkpt><trkpt lat="45.84350855636953" lon="9.008269575869083"><ele>259.0</ele><time>2026-05-03T13:47:42.967Z</time></trkpt><trkpt lat="45.84356893015862" lon="9.00861304113465"><ele>260.0</ele><time>2026-05-03T13:47:43.967Z</time></trkpt><trkpt lat="45.843625923199376" lon="9.008954879264008"><ele>261.0</ele><time>2026-05-03T13:47:44.967Z</time></trkpt><trkpt lat="45.843684911975046" lon="9.009297287032378"><ele>261.5</ele><time>2026-05-03T13:47:45.967Z</time></trkpt><trkpt lat="45.843736963869326" lon="9.009626510229248"><ele>262.0</ele><time>2026-05-03T13:47:46.967Z</time></trkpt><trkpt lat="45.843790038017055" lon="9.009956757562705"><ele>263.5</ele><time>2026-05-03T13:47:47.967Z</time></trkpt><trkpt lat="45.843845533663796" lon="9.010285421866541"><ele>265.0</ele><time>2026-05-03T13:47:48.967Z</time></trkpt><trkpt lat="45.843896742748015" lon="9.010617641691363"><ele>265.0</ele><time>2026-05-03T13:47:49.967Z</time></trkpt><trkpt lat="45.84394506477793" lon="9.010942808360483"><ele>265.0</ele><time>2026-05-03T13:47:50.967Z</time></trkpt><trkpt lat="45.84400076921041" lon="9.011262021882782"><ele>265.0</ele><time>2026-05-03T13:47:51.967Z</time></trkpt><trkpt lat="45.84404335450482" lon="9.011586580601193"><ele>265.0</ele><time>2026-05-03T13:47:52.967Z</time></trkpt><trkpt lat="45.84407714727101" lon="9.011913994163306"><ele>260.5</ele><time>2026-05-03T13:47:53.967Z</time></trkpt><trkpt lat="45.84410417016175" lon="9.012248542524128"><ele>256.0</ele><time>2026-05-03T13:47:54.967Z</time></trkpt><trkpt lat="45.844117514748376" lon="9.012579146228598"><ele>254.0</ele><time>2026-05-03T13:47:55.967Z</time></trkpt><trkpt lat="45.84411598395837" lon="9.012913370904206"><ele>252.0</ele><time>2026-05-03T13:47:56.967Z</time></trkpt><trkpt lat="45.844105306508744" lon="9.013249693352783"><ele>252.0</ele><time>2026-05-03T13:47:57.967Z</time></trkpt><trkpt lat="45.84408280042028" lon="9.013585358206718"><ele>252.0</ele><time>2026-05-03T13:47:58.967Z</time></trkpt><trkpt lat="45.84405227104492" lon="9.013925444870745"><ele>252.0</ele><time>2026-05-03T13:47:59.967Z</time></trkpt><trkpt lat="45.844008976072956" lon="9.014264810275233"><ele>252.0</ele><time>2026-05-03T13:48:00.967Z</time></trkpt><trkpt lat="45.84395420304457" lon="9.014601146936252"><ele>252.0</ele><time>2026-05-03T13:48:01.967Z</time></trkpt><trkpt lat="45.84388658698314" lon="9.01493602950258"><ele>252.0</ele><time>2026-05-03T13:48:02.967Z</time></trkpt><trkpt lat="45.843808219676156" lon="9.015265836262849"><ele>254.0</ele><time>2026-05-03T13:48:03.967Z</time></trkpt><trkpt lat="45.84371123662836" lon="9.015588995130239"><ele>256.0</ele><time>2026-05-03T13:48:04.967Z</time></trkpt><trkpt lat="45.84361340776214" lon="9.015901723815496"><ele>256.5</ele><time>2026-05-03T13:48:05.967Z</time></trkpt><trkpt lat="45.84347910647177" lon="9.016195924291893"><ele>257.0</ele><time>2026-05-03T13:48:06.967Z</time></trkpt><trkpt lat="45.84334388007869" lon="9.016492925932539"><ele>257.0</ele><time>2026-05-03T13:48:07.967Z</time></trkpt><trkpt lat="45.8431961547544" lon="9.016782588903304"><ele>257.0</ele><time>2026-05-03T13:48:08.967Z</time></trkpt><trkpt lat="45.84303428217598" lon="9.017058568526714"><ele>257.0</ele><time>2026-05-03T13:48:09.967Z</time></trkpt><trkpt lat="45.84285990273546" lon="9.01731838783966"><ele>257.0</ele><time>2026-05-03T13:48:10.967Z</time></trkpt><trkpt lat="45.84268098060738" lon="9.017567078605712"><ele>258.5</ele><time>2026-05-03T13:48:11.967Z</time></trkpt><trkpt lat="45.84249393661929" lon="9.017808747879265"><ele>260.0</ele><time>2026-05-03T13:48:12.967Z</time></trkpt><trkpt lat="45.842303742855385" lon="9.018041969111211"><ele>260.0</ele><time>2026-05-03T13:48:13.967Z</time></trkpt><trkpt lat="45.84211684936965" lon="9.018264381701613"><ele>260.0</ele><time>2026-05-03T13:48:14.967Z</time></trkpt><trkpt lat="45.84191834003565" lon="9.018485342647674"><ele>255.5</ele><time>2026-05-03T13:48:15.967Z</time></trkpt><trkpt lat="45.84170586799949" lon="9.01869435546947"><ele>251.0</ele><time>2026-05-03T13:48:16.967Z</time></trkpt><trkpt lat="45.8414922596309" lon="9.018904365682708"><ele>251.0</ele><time>2026-05-03T13:48:17.967Z</time></trkpt><trkpt lat="45.84128309115067" lon="9.019115863466187"><ele>251.0</ele><time>2026-05-03T13:48:18.967Z</time></trkpt><trkpt lat="45.84108264280047" lon="9.019330980992281"><ele>248.5</ele><time>2026-05-03T13:48:19.967Z</time></trkpt><trkpt lat="45.84089671433119" lon="9.01955680133958"><ele>246.0</ele><time>2026-05-03T13:48:20.967Z</time></trkpt><trkpt lat="45.84072474018862" lon="9.019788071260923"><ele>245.5</ele><time>2026-05-03T13:48:21.967Z</time></trkpt><trkpt lat="45.8405670610843" lon="9.020024777289379"><ele>245.0</ele><time>2026-05-03T13:48:22.967Z</time></trkpt><trkpt lat="45.840414914806466" lon="9.02027111885557"><ele>245.0</ele><time>2026-05-03T13:48:23.967Z</time></trkpt><trkpt lat="45.84027416892236" lon="9.020521602617263"><ele>245.0</ele><time>2026-05-03T13:48:24.967Z</time></trkpt><trkpt lat="45.84014186683154" lon="9.020774655075032"><ele>245.0</ele><time>2026-05-03T13:48:25.967Z</time></trkpt><trkpt lat="45.8400125263866" lon="9.021031627060891"><ele>244.66666666666669</ele><time>2026-05-03T13:48:26.967Z</time></trkpt><trkpt lat="45.839894831410405" lon="9.02129313975091"><ele>244.33333333333331</ele><time>2026-05-03T13:48:27.967Z</time></trkpt><trkpt lat="45.83978936043554" lon="9.021561676336018"><ele>244.0</ele><time>2026-05-03T13:48:28.967Z</time></trkpt><trkpt lat="45.839683990705446" lon="9.021844786334524"><ele>244.33333333333331</ele><time>2026-05-03T13:48:29.967Z</time></trkpt><trkpt lat="45.83958673451426" lon="9.022117798529797"><ele>244.66666666666669</ele><time>2026-05-03T13:48:30.967Z</time></trkpt><trkpt lat="45.8394988481997" lon="9.022407117273163"><ele>245.0</ele><time>2026-05-03T13:48:31.967Z</time></trkpt><trkpt lat="45.83942502831746" lon="9.022704372293587"><ele>245.0</ele><time>2026-05-03T13:48:32.967Z</time></trkpt><trkpt lat="45.83934880169236" lon="9.022999243940353"><ele>245.0</ele><time>2026-05-03T13:48:33.967Z</time></trkpt><trkpt lat="45.83929187248408" lon="9.023298582329465"><ele>245.0</ele><time>2026-05-03T13:48:34.967Z</time></trkpt><trkpt lat="45.83924156344656" lon="9.023593768338252"><ele>244.0</ele><time>2026-05-03T13:48:35.967Z</time></trkpt><trkpt lat="45.83919991395459" lon="9.023884540927007"><ele>243.0</ele><time>2026-05-03T13:48:36.967Z</time></trkpt><trkpt lat="45.83915929243509" lon="9.024155814050626"><ele>242.0</ele><time>2026-05-03T13:48:37.967Z</time></trkpt><trkpt lat="45.8391362764287" lon="9.024409196124076"><ele>241.0</ele><time>2026-05-03T13:48:38.967Z</time></trkpt><trkpt lat="45.83911437707294" lon="9.024651340973527"><ele>240.0</ele><time>2026-05-03T13:48:39.967Z</time></trkpt><trkpt lat="45.83909760818814" lon="9.024885941615919"><ele>239.0</ele><time>2026-05-03T13:48:40.967Z</time></trkpt><trkpt lat="45.83908388378157" lon="9.025109465032251"><ele>239.0</ele><time>2026-05-03T13:48:41.967Z</time></trkpt><trkpt lat="45.839075391712186" lon="9.02532041873531"><ele>239.0</ele><time>2026-05-03T13:48:42.967Z</time></trkpt><trkpt lat="45.83906344080419" lon="9.025509437030719"><ele>239.0</ele><time>2026-05-03T13:48:43.967Z</time></trkpt><trkpt lat="45.8390661902742" lon="9.025678583559225"><ele>239.0</ele><time>2026-05-03T13:48:44.968Z</time></trkpt><trkpt lat="45.83905646826293" lon="9.025841772464258"><ele>239.0</ele><time>2026-05-03T13:48:45.968Z</time></trkpt><trkpt lat="45.83905213198154" lon="9.026000587334044"><ele>238.99999999999997</ele><time>2026-05-03T13:48:46.968Z</time></trkpt><trkpt lat="45.83904421086777" lon="9.026154041245885"><ele>238.99999999999997</ele><time>2026-05-03T13:48:47.968Z</time></trkpt><trkpt lat="45.83903809363955" lon="9.026304145421806"><ele>239.0</ele><time>2026-05-03T13:48:48.968Z</time></trkpt><trkpt lat="45.839034199442196" lon="9.026452828578805"><ele>239.0</ele><time>2026-05-03T13:48:49.968Z</time></trkpt><trkpt lat="45.83903299411194" lon="9.026604075881911"><ele>238.39999999999998</ele><time>2026-05-03T13:48:50.968Z</time></trkpt><trkpt lat="45.83902354023069" lon="9.026759978481262"><ele>237.79999999999998</ele><time>2026-05-03T13:48:51.968Z</time></trkpt><trkpt lat="45.83901720066242" lon="9.026911445369608"><ele>237.20000000000002</ele><time>2026-05-03T13:48:52.968Z</time></trkpt><trkpt lat="45.83901014725733" lon="9.027045904576593"><ele>236.60000000000002</ele><time>2026-05-03T13:48:53.968Z</time></trkpt><trkpt lat="45.839003782209915" lon="9.027178677773088"><ele>236.0</ele><time>2026-05-03T13:48:54.968Z</time></trkpt><trkpt lat="45.838999613409214" lon="9.027307243050714"><ele>236.00000000000003</ele><time>2026-05-03T13:48:55.968Z</time></trkpt><trkpt lat="45.8389963323793" lon="9.027421342235852"><ele>236.0</ele><time>2026-05-03T13:48:56.968Z</time></trkpt><trkpt lat="45.83899064502825" lon="9.027533682885949"><ele>236.0</ele><time>2026-05-03T13:48:57.968Z</time></trkpt><trkpt lat="45.838985638272575" lon="9.02764038497717"><ele>236.0</ele><time>2026-05-03T13:48:58.968Z</time></trkpt><trkpt lat="45.83898197773589" lon="9.02775067711559"><ele>236.00000000000003</ele><time>2026-05-03T13:48:59.968Z</time></trkpt><trkpt lat="45.83897817179625" lon="9.02786890875852"><ele>236.0</ele><time>2026-05-03T13:49:00.968Z</time></trkpt><trkpt lat="45.838972007385514" lon="9.027989572109863"><ele>235.66666666666669</ele><time>2026-05-03T13:49:01.968Z</time></trkpt><trkpt lat="45.838964134002715" lon="9.028113146973926"><ele>235.33333333333334</ele><time>2026-05-03T13:49:02.968Z</time></trkpt><trkpt lat="45.83895865378579" lon="9.028239851217792"><ele>235.0</ele><time>2026-05-03T13:49:03.968Z</time></trkpt><trkpt lat="45.83895372583938" lon="9.028375517456384"><ele>234.66666666666669</ele><time>2026-05-03T13:49:04.968Z</time></trkpt><trkpt lat="45.83894464952487" lon="9.028506502223426"><ele>234.33333333333334</ele><time>2026-05-03T13:49:05.968Z</time></trkpt><trkpt lat="45.83893752412404" lon="9.028632518157572"><ele>234.0</ele><time>2026-05-03T13:49:06.968Z</time></trkpt><trkpt lat="45.83893432356259" lon="9.028757399913074"><ele>234.0</ele><time>2026-05-03T13:49:07.968Z</time></trkpt><trkpt lat="45.83892718003168" lon="9.028882343898992"><ele>234.0</ele><time>2026-05-03T13:49:08.968Z</time></trkpt><trkpt lat="45.8389222346641" lon="9.029004812162617"><ele>234.0</ele><time>2026-05-03T13:49:09.968Z</time></trkpt><trkpt lat="45.8389132063648" lon="9.02913100944586"><ele>234.0</ele><time>2026-05-03T13:49:10.968Z</time></trkpt><trkpt lat="45.838908264241894" lon="9.029259589813968"><ele>234.0</ele><time>2026-05-03T13:49:11.968Z</time></trkpt><trkpt lat="45.838898526134955" lon="9.029392412469727"><ele>234.0</ele><time>2026-05-03T13:49:12.968Z</time></trkpt><trkpt lat="45.83889265677463" lon="9.02951981083662"><ele>234.33333333333334</ele><time>2026-05-03T13:49:13.968Z</time></trkpt><trkpt lat="45.83888355568813" lon="9.029646845615176"><ele>234.66666666666669</ele><time>2026-05-03T13:49:14.968Z</time></trkpt><trkpt lat="45.838874058475916" lon="9.029779111035584"><ele>235.0</ele><time>2026-05-03T13:49:15.968Z</time></trkpt><trkpt lat="45.83887217751261" lon="9.029907346750218"><ele>235.33333333333334</ele><time>2026-05-03T13:49:16.968Z</time></trkpt><trkpt lat="45.8388662737934" lon="9.030033580979525"><ele>235.66666666666669</ele><time>2026-05-03T13:49:17.968Z</time></trkpt><trkpt lat="45.838863479738094" lon="9.030162121408942"><ele>236.0</ele><time>2026-05-03T13:49:18.968Z</time></trkpt><trkpt lat="45.83885933101093" lon="9.030291494382707"><ele>236.20000000000002</ele><time>2026-05-03T13:49:19.968Z</time></trkpt><trkpt lat="45.83885351765854" lon="9.030423278889561"><ele>236.40000000000003</ele><time>2026-05-03T13:49:20.968Z</time></trkpt><trkpt lat="45.83884923571825" lon="9.030554928205815"><ele>236.6</ele><time>2026-05-03T13:49:21.968Z</time></trkpt><trkpt lat="45.83883998234776" lon="9.030687410815673"><ele>236.8</ele><time>2026-05-03T13:49:22.968Z</time></trkpt><trkpt lat="45.83883367013614" lon="9.03082161637527"><ele>237.0</ele><time>2026-05-03T13:49:23.968Z</time></trkpt><trkpt lat="45.838832609791154" lon="9.030944706054349"><ele>237.0</ele><time>2026-05-03T13:49:24.966Z</time></trkpt><trkpt lat="45.838824323605415" lon="9.031073314830547"><ele>237.0</ele><time>2026-05-03T13:49:25.965Z</time></trkpt><trkpt lat="45.83880490295082" lon="9.031209673953478"><ele>237.0</ele><time>2026-05-03T13:49:26.965Z</time></trkpt><trkpt lat="45.83879326751995" lon="9.03134212406314"><ele>237.0</ele><time>2026-05-03T13:49:27.965Z</time></trkpt><trkpt lat="45.838780857795925" lon="9.031471892342676"><ele>237.0</ele><time>2026-05-03T13:49:28.965Z</time></trkpt><trkpt lat="45.838771130793354" lon="9.03160029418616"><ele>237.0</ele><time>2026-05-03T13:49:29.965Z</time></trkpt><trkpt lat="45.838761320958874" lon="9.031729273757675"><ele>237.0</ele><time>2026-05-03T13:49:30.966Z</time></trkpt><trkpt lat="45.83875658900051" lon="9.031851721761893"><ele>237.0</ele><time>2026-05-03T13:49:31.965Z</time></trkpt><trkpt lat="45.83875357810158" lon="9.031973048652695"><ele>237.0</ele><time>2026-05-03T13:49:32.965Z</time></trkpt><trkpt lat="45.838755035970344" lon="9.032093787101203"><ele>237.0</ele><time>2026-05-03T13:49:33.965Z</time></trkpt><trkpt lat="45.83875256924507" lon="9.032217635746331"><ele>237.0</ele><time>2026-05-03T13:49:34.965Z</time></trkpt><trkpt lat="45.838751729952605" lon="9.032349473442626"><ele>237.0</ele><time>2026-05-03T13:49:35.965Z</time></trkpt><trkpt lat="45.83874824322076" lon="9.03247781212757"><ele>237.0</ele><time>2026-05-03T13:49:36.965Z</time></trkpt><trkpt lat="45.83874841964378" lon="9.032607960376192"><ele>237.0</ele><time>2026-05-03T13:49:37.965Z</time></trkpt><trkpt lat="45.83874842951017" lon="9.032736900110747"><ele>237.0</ele><time>2026-05-03T13:49:38.965Z</time></trkpt><trkpt lat="45.83874901727437" lon="9.032862550527348"><ele>237.0</ele><time>2026-05-03T13:49:39.965Z</time></trkpt><trkpt lat="45.838750928295305" lon="9.032989526816623"><ele>237.0</ele><time>2026-05-03T13:49:40.965Z</time></trkpt><trkpt lat="45.838754045179385" lon="9.033113557378842"><ele>237.0</ele><time>2026-05-03T13:49:41.965Z</time></trkpt><trkpt lat="45.83875739154829" lon="9.033236721143545"><ele>237.0</ele><time>2026-05-03T13:49:42.965Z</time></trkpt><trkpt lat="45.838762046483986" lon="9.03335988470999"><ele>237.0</ele><time>2026-05-03T13:49:43.965Z</time></trkpt><trkpt lat="45.83876783840296" lon="9.03348061705329"><ele>237.0</ele><time>2026-05-03T13:49:44.965Z</time></trkpt><trkpt lat="45.838775832513186" lon="9.033599647977681"><ele>237.0</ele><time>2026-05-03T13:49:45.965Z</time></trkpt><trkpt lat="45.83877963705786" lon="9.033707034723438"><ele>237.0</ele><time>2026-05-03T13:49:46.965Z</time></trkpt><trkpt lat="45.83878547340861" lon="9.033802141010003"><ele>236.99999999999997</ele><time>2026-05-03T13:49:47.965Z</time></trkpt><trkpt lat="45.838794420363605" lon="9.033895424305701"><ele>237.0</ele><time>2026-05-03T13:49:48.965Z</time></trkpt><trkpt lat="45.83881451402866" lon="9.034063480356682"><ele>236.99999999999997</ele><time>2026-05-03T13:49:50.965Z</time></trkpt><trkpt lat="45.83882704742035" lon="9.0341523394364"><ele>236.99999999999997</ele><time>2026-05-03T13:49:51.966Z</time></trkpt><trkpt lat="45.83884013193258" lon="9.034242567483897"><ele>237.0</ele><time>2026-05-03T13:49:52.966Z</time></trkpt><trkpt lat="45.83885497932438" lon="9.034335206052932"><ele>236.99999999999997</ele><time>2026-05-03T13:49:53.966Z</time></trkpt><trkpt lat="45.83887474864168" lon="9.034431766775787"><ele>236.99999999999997</ele><time>2026-05-03T13:49:54.966Z</time></trkpt><trkpt lat="45.838898478261214" lon="9.03452978828373"><ele>236.99999999999997</ele><time>2026-05-03T13:49:55.966Z</time></trkpt><trkpt lat="45.83892217770831" lon="9.034628433292866"><ele>237.0</ele><time>2026-05-03T13:49:56.966Z</time></trkpt><trkpt lat="45.83895230876714" lon="9.034726374647079"><ele>236.99999999999997</ele><time>2026-05-03T13:49:57.966Z</time></trkpt><trkpt lat="45.83897886456071" lon="9.034820144982758"><ele>236.99999999999997</ele><time>2026-05-03T13:49:58.966Z</time></trkpt><trkpt lat="45.839009207227754" lon="9.03491217857817"><ele>237.0</ele><time>2026-05-03T13:49:59.966Z</time></trkpt><trkpt lat="45.839042716732955" lon="9.035000266020418"><ele>236.99999999999997</ele><time>2026-05-03T13:50:00.966Z</time></trkpt><trkpt lat="45.83907847351703" lon="9.035085231350482"><ele>236.99999999999997</ele><time>2026-05-03T13:50:01.966Z</time></trkpt><trkpt lat="45.839115383231395" lon="9.035171149670827"><ele>237.0</ele><time>2026-05-03T13:50:02.966Z</time></trkpt><trkpt lat="45.839151987073734" lon="9.035246981056874"><ele>237.0</ele><time>2026-05-03T13:50:03.966Z</time></trkpt><trkpt lat="45.83919274914774" lon="9.035329061284134"><ele>237.0</ele><time>2026-05-03T13:50:04.966Z</time></trkpt><trkpt lat="45.83923346056135" lon="9.035402976522887"><ele>237.0</ele><time>2026-05-03T13:50:05.966Z</time></trkpt><trkpt lat="45.83931441712797" lon="9.03554073232086"><ele>237.0</ele><time>2026-05-03T13:50:07.966Z</time></trkpt><trkpt lat="45.83939668241587" lon="9.035662240605713"><ele>237.0</ele><time>2026-05-03T13:50:09.966Z</time></trkpt><trkpt lat="45.83946226680665" lon="9.035753344719556"><ele>236.66666666666666</ele><time>2026-05-03T13:50:11.966Z</time></trkpt><trkpt lat="45.83952495175361" lon="9.035834215401804"><ele>236.33333333333331</ele><time>2026-05-03T13:50:13.966Z</time></trkpt><trkpt lat="45.83959136921444" lon="9.035877228513398"><ele>236.0</ele><time>2026-05-03T13:50:17.966Z</time></trkpt><trkpt lat="45.839668124614526" lon="9.035932306545924"><ele>235.66666666666666</ele><time>2026-05-03T13:50:23.966Z</time></trkpt><trkpt lat="45.83973011659418" lon="9.03601620592355"><ele>235.33333333333331</ele><time>2026-05-03T13:50:32.966Z</time></trkpt><trkpt lat="45.83978645934333" lon="9.036064694708946"><ele>235.0</ele><time>2026-05-03T13:50:34.966Z</time></trkpt><trkpt lat="45.839822430869354" lon="9.036142087386331"><ele>235.0</ele><time>2026-05-03T13:50:36.966Z</time></trkpt><trkpt lat="45.83988250283247" lon="9.03622133451423"><ele>234.99999999999997</ele><time>2026-05-03T13:50:39.966Z</time></trkpt><trkpt lat="45.839929790474315" lon="9.036281050049128"><ele>235.0</ele><time>2026-05-03T13:50:42.966Z</time></trkpt><trkpt lat="45.839984462084374" lon="9.0363471364276"><ele>235.0</ele><time>2026-05-03T13:50:47.966Z</time></trkpt><trkpt lat="45.84001660605719" lon="9.036428469524417"><ele>234.99999999999997</ele><time>2026-05-03T13:50:52.966Z</time></trkpt><trkpt lat="45.840074740973115" lon="9.03652656095458"><ele>235.0</ele><time>2026-05-03T13:50:56.966Z</time></trkpt><trkpt lat="45.840115213264134" lon="9.036604225753429"><ele>235.0</ele><time>2026-05-03T13:50:59.966Z</time></trkpt><trkpt lat="45.8401465963721" lon="9.036703184372586"><ele>236.0</ele><time>2026-05-03T13:51:03.966Z</time></trkpt><trkpt lat="45.84019069193561" lon="9.036776281647438"><ele>236.99999999999997</ele><time>2026-05-03T13:51:07.967Z</time></trkpt><trkpt lat="45.8402162163243" lon="9.03685978747025"><ele>238.0</ele><time>2026-05-03T13:51:10.967Z</time></trkpt><trkpt lat="45.840270897087166" lon="9.03695828499588"><ele>239.0</ele><time>2026-05-03T13:51:13.967Z</time></trkpt><trkpt lat="45.840316477351166" lon="9.037052266373617"><ele>239.99999999999997</ele><time>2026-05-03T13:51:16.967Z</time></trkpt><trkpt lat="45.840330926054065" lon="9.037144133712804"><ele>241.0</ele><time>2026-05-03T13:51:19.967Z</time></trkpt><trkpt lat="45.840309083583534" lon="9.03725032938326"><ele>242.0</ele><time>2026-05-03T13:51:23.967Z</time></trkpt><trkpt lat="45.840357626060005" lon="9.037365854666684"><ele>242.39999999999998</ele><time>2026-05-03T13:51:25.967Z</time></trkpt><trkpt lat="45.84043717440741" lon="9.03752432117761"><ele>242.79999999999998</ele><time>2026-05-03T13:51:27.967Z</time></trkpt><trkpt lat="45.84048031500153" lon="9.037616253606721"><ele>243.2</ele><time>2026-05-03T13:51:28.967Z</time></trkpt><trkpt lat="45.84051898281208" lon="9.037708108416348"><ele>243.6</ele><time>2026-05-03T13:51:29.967Z</time></trkpt><trkpt lat="45.84055619457677" lon="9.03780114338406"><ele>244.0</ele><time>2026-05-03T13:51:30.965Z</time></trkpt><trkpt lat="45.84062454271733" lon="9.03794399950138"><ele>244.0</ele><time>2026-05-03T13:51:32.965Z</time></trkpt><trkpt lat="45.840698189637706" lon="9.03807948616935"><ele>243.99999999999997</ele><time>2026-05-03T13:51:34.965Z</time></trkpt><trkpt lat="45.84076278766709" lon="9.038232085487229"><ele>243.99999999999997</ele><time>2026-05-03T13:51:36.965Z</time></trkpt><trkpt lat="45.84080686803402" lon="9.038320989903477"><ele>244.0</ele><time>2026-05-03T13:51:37.965Z</time></trkpt><trkpt lat="45.840859183966046" lon="9.038422648489506"><ele>244.0</ele><time>2026-05-03T13:51:38.965Z</time></trkpt><trkpt lat="45.840903790229234" lon="9.038525174000275"><ele>244.6</ele><time>2026-05-03T13:51:39.965Z</time></trkpt><trkpt lat="45.84095170904352" lon="9.038631354789347"><ele>245.2</ele><time>2026-05-03T13:51:40.965Z</time></trkpt><trkpt lat="45.840995900475626" lon="9.038745862743674"><ele>245.79999999999998</ele><time>2026-05-03T13:51:41.965Z</time></trkpt><trkpt lat="45.84105435257907" lon="9.038875498661524"><ele>246.39999999999998</ele><time>2026-05-03T13:51:42.964Z</time></trkpt><trkpt lat="45.84110772391297" lon="9.039020274018743"><ele>247.0</ele><time>2026-05-03T13:51:43.965Z</time></trkpt><trkpt lat="45.84116315168313" lon="9.03919000935425"><ele>243.75</ele><time>2026-05-03T13:51:44.965Z</time></trkpt><trkpt lat="45.84122319396043" lon="9.03936717655487"><ele>240.5</ele><time>2026-05-03T13:51:45.965Z</time></trkpt><trkpt lat="45.84127090920365" lon="9.03954830237766"><ele>237.25</ele><time>2026-05-03T13:51:46.965Z</time></trkpt><trkpt lat="45.84130850946351" lon="9.039723129165747"><ele>234.0</ele><time>2026-05-03T13:51:47.965Z</time></trkpt><trkpt lat="45.84131612680785" lon="9.039899572942668"><ele>233.75</ele><time>2026-05-03T13:51:48.965Z</time></trkpt><trkpt lat="45.84128910875668" lon="9.040072401066176"><ele>233.5</ele><time>2026-05-03T13:51:49.965Z</time></trkpt><trkpt lat="45.841236884605806" lon="9.040234445994571"><ele>233.25</ele><time>2026-05-03T13:51:50.965Z</time></trkpt><trkpt lat="45.841180667511516" lon="9.04040851596434"><ele>233.0</ele><time>2026-05-03T13:51:51.965Z</time></trkpt><trkpt lat="45.84114138625966" lon="9.040605462443052"><ele>233.0</ele><time>2026-05-03T13:51:52.965Z</time></trkpt><trkpt lat="45.84113387122857" lon="9.040797395528669"><ele>233.0</ele><time>2026-05-03T13:51:53.965Z</time></trkpt><trkpt lat="45.84114105672804" lon="9.040981771707372"><ele>233.0</ele><time>2026-05-03T13:51:54.965Z</time></trkpt><trkpt lat="45.84115251627506" lon="9.041162643307763"><ele>233.0</ele><time>2026-05-03T13:51:55.965Z</time></trkpt><trkpt lat="45.84114698997273" lon="9.041340214021153"><ele>233.4</ele><time>2026-05-03T13:51:56.965Z</time></trkpt><trkpt lat="45.8411333138361" lon="9.041500199970407"><ele>233.8</ele><time>2026-05-03T13:51:57.965Z</time></trkpt><trkpt lat="45.84110490928413" lon="9.04165278569572"><ele>234.2</ele><time>2026-05-03T13:51:58.965Z</time></trkpt><trkpt lat="45.84107306819769" lon="9.041801459541636"><ele>234.6</ele><time>2026-05-03T13:51:59.965Z</time></trkpt><trkpt lat="45.841037244930654" lon="9.041961228291715"><ele>235.0</ele><time>2026-05-03T13:52:00.965Z</time></trkpt><trkpt lat="45.84099906650294" lon="9.042120411423682"><ele>240.5</ele><time>2026-05-03T13:52:01.965Z</time></trkpt><trkpt lat="45.84095788079718" lon="9.042285144543353"><ele>246.0</ele><time>2026-05-03T13:52:02.965Z</time></trkpt><trkpt lat="45.84090498735463" lon="9.042449527132371"><ele>251.5</ele><time>2026-05-03T13:52:03.965Z</time></trkpt><trkpt lat="45.84084271661741" lon="9.042632779297625"><ele>257.0</ele><time>2026-05-03T13:52:04.965Z</time></trkpt><trkpt lat="45.84075940549321" lon="9.042857463390215"><ele>257.0</ele><time>2026-05-03T13:52:05.965Z</time></trkpt><trkpt lat="45.8406763793259" lon="9.043079602415514"><ele>257.0</ele><time>2026-05-03T13:52:06.965Z</time></trkpt><trkpt lat="45.84056811125006" lon="9.043245728457855"><ele>257.0</ele><time>2026-05-03T13:52:07.965Z</time></trkpt><trkpt lat="45.8405061066368" lon="9.043429485680035"><ele>254.75</ele><time>2026-05-03T13:52:08.965Z</time></trkpt><trkpt lat="45.84041739196798" lon="9.043583445233159"><ele>252.5</ele><time>2026-05-03T13:52:09.965Z</time></trkpt><trkpt lat="45.84031747505458" lon="9.043719496175946"><ele>250.25</ele><time>2026-05-03T13:52:10.965Z</time></trkpt><trkpt lat="45.84021800488578" lon="9.043841168908466"><ele>248.0</ele><time>2026-05-03T13:52:11.965Z</time></trkpt><trkpt lat="45.84011891412716" lon="9.043946033855278"><ele>251.75</ele><time>2026-05-03T13:52:12.965Z</time></trkpt><trkpt lat="45.840018697524954" lon="9.044047726279809"><ele>255.5</ele><time>2026-05-03T13:52:13.965Z</time></trkpt><trkpt lat="45.839922542976595" lon="9.044138702215363"><ele>259.25</ele><time>2026-05-03T13:52:14.965Z</time></trkpt><trkpt lat="45.839831503239026" lon="9.044237515252272"><ele>263.0</ele><time>2026-05-03T13:52:15.965Z</time></trkpt><trkpt lat="45.83974489486591" lon="9.044355738023846"><ele>263.0</ele><time>2026-05-03T13:52:16.965Z</time></trkpt><trkpt lat="45.83966577826468" lon="9.04449533189217"><ele>263.0</ele><time>2026-05-03T13:52:17.965Z</time></trkpt><trkpt lat="45.8395893644294" lon="9.044635126494661"><ele>263.0</ele><time>2026-05-03T13:52:18.965Z</time></trkpt><trkpt lat="45.83951292001115" lon="9.044768767111687"><ele>263.0</ele><time>2026-05-03T13:52:19.965Z</time></trkpt><trkpt lat="45.83945406873421" lon="9.044921620014879"><ele>260.0</ele><time>2026-05-03T13:52:20.965Z</time></trkpt><trkpt lat="45.83939020701882" lon="9.045070543029803"><ele>257.0</ele><time>2026-05-03T13:52:21.965Z</time></trkpt><trkpt lat="45.83931460204707" lon="9.045231228794057"><ele>254.0</ele><time>2026-05-03T13:52:22.965Z</time></trkpt><trkpt lat="45.839218909803286" lon="9.045395528531119"><ele>251.0</ele><time>2026-05-03T13:52:23.965Z</time></trkpt><trkpt lat="45.83914827697323" lon="9.04558788581929"><ele>253.0</ele><time>2026-05-03T13:52:24.965Z</time></trkpt><trkpt lat="45.8390617218209" lon="9.045801762124844"><ele>255.0</ele><time>2026-05-03T13:52:25.965Z</time></trkpt><trkpt lat="45.838998026902104" lon="9.045998455573164"><ele>257.0</ele><time>2026-05-03T13:52:26.965Z</time></trkpt><trkpt lat="45.83895757411199" lon="9.046191376365806"><ele>257.0</ele><time>2026-05-03T13:52:27.965Z</time></trkpt><trkpt lat="45.83892625801575" lon="9.046400672921942"><ele>257.0</ele><time>2026-05-03T13:52:28.965Z</time></trkpt><trkpt lat="45.83890256814298" lon="9.046636282833804"><ele>257.0</ele><time>2026-05-03T13:52:29.965Z</time></trkpt><trkpt lat="45.838886891926094" lon="9.046899481955876"><ele>252.33333333333334</ele><time>2026-05-03T13:52:30.965Z</time></trkpt><trkpt lat="45.838873539150306" lon="9.047147614281622"><ele>247.66666666666669</ele><time>2026-05-03T13:52:31.965Z</time></trkpt><trkpt lat="45.83886120962555" lon="9.047396494552602"><ele>243.0</ele><time>2026-05-03T13:52:32.965Z</time></trkpt><trkpt lat="45.83884695594179" lon="9.047654784783962"><ele>240.33333333333331</ele><time>2026-05-03T13:52:33.965Z</time></trkpt><trkpt lat="45.83883081167453" lon="9.047905100663272"><ele>237.66666666666666</ele><time>2026-05-03T13:52:34.965Z</time></trkpt><trkpt lat="45.83881190252788" lon="9.048148010348084"><ele>235.0</ele><time>2026-05-03T13:52:35.965Z</time></trkpt><trkpt lat="45.83879809116536" lon="9.04838578295395"><ele>232.33333333333331</ele><time>2026-05-03T13:52:36.965Z</time></trkpt><trkpt lat="45.838781971104936" lon="9.048615531530112"><ele>229.66666666666669</ele><time>2026-05-03T13:52:37.965Z</time></trkpt><trkpt lat="45.83876444160005" lon="9.048841950448788"><ele>227.0</ele><time>2026-05-03T13:52:38.965Z</time></trkpt><trkpt lat="45.838726520587365" lon="9.049058472801626"><ele>225.0</ele><time>2026-05-03T13:52:39.965Z</time></trkpt><trkpt lat="45.83867824825898" lon="9.049272057477255"><ele>223.0</ele><time>2026-05-03T13:52:40.965Z</time></trkpt><trkpt lat="45.83860893960761" lon="9.049498000715408"><ele>221.0</ele><time>2026-05-03T13:52:41.965Z</time></trkpt><trkpt lat="45.83851822291645" lon="9.04974142228867"><ele>226.0</ele><time>2026-05-03T13:52:42.965Z</time></trkpt><trkpt lat="45.838424916076534" lon="9.049990884465032"><ele>231.0</ele><time>2026-05-03T13:52:43.965Z</time></trkpt><trkpt lat="45.83832293809034" lon="9.050243705227448"><ele>236.0</ele><time>2026-05-03T13:52:44.965Z</time></trkpt><trkpt lat="45.83822241439054" lon="9.050495499947282"><ele>236.0</ele><time>2026-05-03T13:52:45.965Z</time></trkpt><trkpt lat="45.83813029351481" lon="9.050731827551225"><ele>236.0</ele><time>2026-05-03T13:52:46.965Z</time></trkpt><trkpt lat="45.83804800799778" lon="9.050959372095697"><ele>236.0</ele><time>2026-05-03T13:52:47.965Z</time></trkpt><trkpt lat="45.83798340125308" lon="9.051196146382507"><ele>231.66666666666669</ele><time>2026-05-03T13:52:48.965Z</time></trkpt><trkpt lat="45.83794500092011" lon="9.051463370833709"><ele>227.33333333333331</ele><time>2026-05-03T13:52:49.965Z</time></trkpt><trkpt lat="45.83792424427446" lon="9.051738429009891"><ele>223.0</ele><time>2026-05-03T13:52:50.966Z</time></trkpt><trkpt lat="45.83791502862218" lon="9.052008313592436"><ele>222.66666666666666</ele><time>2026-05-03T13:52:51.966Z</time></trkpt><trkpt lat="45.83790650064251" lon="9.05227540994127"><ele>222.33333333333331</ele><time>2026-05-03T13:52:52.966Z</time></trkpt><trkpt lat="45.837900103484735" lon="9.052546398320706"><ele>222.0</ele><time>2026-05-03T13:52:53.966Z</time></trkpt><trkpt lat="45.8378888091336" lon="9.052812235718449"><ele>221.0</ele><time>2026-05-03T13:52:54.966Z</time></trkpt><trkpt lat="45.83787495093833" lon="9.053075903633015"><ele>220.0</ele><time>2026-05-03T13:52:55.966Z</time></trkpt><trkpt lat="45.83786369916922" lon="9.053335278330405"><ele>219.0</ele><time>2026-05-03T13:52:56.966Z</time></trkpt><trkpt lat="45.83785270544258" lon="9.05359788488274"><ele>218.33333333333331</ele><time>2026-05-03T13:52:57.966Z</time></trkpt><trkpt lat="45.83784101184182" lon="9.05386166444612"><ele>217.66666666666666</ele><time>2026-05-03T13:52:58.966Z</time></trkpt><trkpt lat="45.837833035677875" lon="9.054118083885424"><ele>217.0</ele><time>2026-05-03T13:52:59.966Z</time></trkpt><trkpt lat="45.83782204973334" lon="9.054379647429904"><ele>216.66666666666666</ele><time>2026-05-03T13:53:00.966Z</time></trkpt><trkpt lat="45.83780799876821" lon="9.054644271152148"><ele>216.33333333333331</ele><time>2026-05-03T13:53:01.966Z</time></trkpt><trkpt lat="45.83779544770709" lon="9.0549074061995"><ele>216.0</ele><time>2026-05-03T13:53:02.966Z</time></trkpt><trkpt lat="45.83778401037881" lon="9.055170982629134"><ele>215.33333333333331</ele><time>2026-05-03T13:53:03.966Z</time></trkpt><trkpt lat="45.83776914367506" lon="9.055435182550719"><ele>214.66666666666666</ele><time>2026-05-03T13:53:04.966Z</time></trkpt><trkpt lat="45.83775127360414" lon="9.055703317509774"><ele>214.0</ele><time>2026-05-03T13:53:05.966Z</time></trkpt><trkpt lat="45.83772302092327" lon="9.055970806857323"><ele>214.0</ele><time>2026-05-03T13:53:06.966Z</time></trkpt><trkpt lat="45.83768664570014" lon="9.056235043029151"><ele>214.0</ele><time>2026-05-03T13:53:07.966Z</time></trkpt><trkpt lat="45.837648015301305" lon="9.056494665288167"><ele>214.0</ele><time>2026-05-03T13:53:08.966Z</time></trkpt><trkpt lat="45.83760654499012" lon="9.056750221697833"><ele>214.33333333333331</ele><time>2026-05-03T13:53:09.966Z</time></trkpt><trkpt lat="45.83756914651426" lon="9.057000287081477"><ele>214.66666666666669</ele><time>2026-05-03T13:53:10.966Z</time></trkpt><trkpt lat="45.837531958792326" lon="9.057248208854162"><ele>215.0</ele><time>2026-05-03T13:53:11.966Z</time></trkpt><trkpt lat="45.83749689631995" lon="9.057494273660414"><ele>214.0</ele><time>2026-05-03T13:53:12.966Z</time></trkpt><trkpt lat="45.837461458061206" lon="9.057740008341838"><ele>213.0</ele><time>2026-05-03T13:53:13.966Z</time></trkpt><trkpt lat="45.83742997863008" lon="9.057981315232064"><ele>212.0</ele><time>2026-05-03T13:53:14.966Z</time></trkpt><trkpt lat="45.83738903902021" lon="9.058224085764358"><ele>212.33333333333334</ele><time>2026-05-03T13:53:15.966Z</time></trkpt><trkpt lat="45.83735414077306" lon="9.058461345382758"><ele>212.66666666666669</ele><time>2026-05-03T13:53:16.966Z</time></trkpt><trkpt lat="45.83732371989724" lon="9.058706383513648"><ele>213.0</ele><time>2026-05-03T13:53:17.966Z</time></trkpt><trkpt lat="45.83729413451673" lon="9.058949639749377"><ele>213.0</ele><time>2026-05-03T13:53:18.966Z</time></trkpt><trkpt lat="45.837270126363606" lon="9.059199104420427"><ele>213.0</ele><time>2026-05-03T13:53:19.966Z</time></trkpt><trkpt lat="45.83724613711031" lon="9.059443470340735"><ele>213.0</ele><time>2026-05-03T13:53:20.966Z</time></trkpt><trkpt lat="45.83722804920817" lon="9.05969175256538"><ele>213.0</ele><time>2026-05-03T13:53:21.966Z</time></trkpt><trkpt lat="45.837211964693495" lon="9.05994319297799"><ele>213.0</ele><time>2026-05-03T13:53:22.966Z</time></trkpt><trkpt lat="45.83719600117386" lon="9.06019138286146"><ele>213.0</ele><time>2026-05-03T13:53:23.966Z</time></trkpt><trkpt lat="45.837181416073534" lon="9.060435577366485"><ele>213.0</ele><time>2026-05-03T13:53:24.966Z</time></trkpt><trkpt lat="45.83716380517789" lon="9.060680760415977"><ele>213.0</ele><time>2026-05-03T13:53:25.966Z</time></trkpt><trkpt lat="45.83714654094018" lon="9.060929165510649"><ele>213.0</ele><time>2026-05-03T13:53:26.966Z</time></trkpt><trkpt lat="45.83712688090018" lon="9.06117821317715"><ele>212.33333333333331</ele><time>2026-05-03T13:53:27.966Z</time></trkpt><trkpt lat="45.837110213647236" lon="9.061422709560969"><ele>211.66666666666666</ele><time>2026-05-03T13:53:28.966Z</time></trkpt><trkpt lat="45.83709344572141" lon="9.061666421667136"><ele>211.0</ele><time>2026-05-03T13:53:29.966Z</time></trkpt><trkpt lat="45.8370778374023" lon="9.061911148508376"><ele>211.0</ele><time>2026-05-03T13:53:30.966Z</time></trkpt><trkpt lat="45.837062899989576" lon="9.06214596540051"><ele>211.0</ele><time>2026-05-03T13:53:31.966Z</time></trkpt><trkpt lat="45.83704658054791" lon="9.0623663702655"><ele>211.0</ele><time>2026-05-03T13:53:32.966Z</time></trkpt><trkpt lat="45.837023166955184" lon="9.062569443444827"><ele>210.5</ele><time>2026-05-03T13:53:33.966Z</time></trkpt><trkpt lat="45.83699014071701" lon="9.0627771917582"><ele>210.0</ele><time>2026-05-03T13:53:34.966Z</time></trkpt><trkpt lat="45.836954863295766" lon="9.06298975457578"><ele>209.5</ele><time>2026-05-03T13:53:35.966Z</time></trkpt><trkpt lat="45.83691237822976" lon="9.063193763456779"><ele>209.0</ele><time>2026-05-03T13:53:36.963Z</time></trkpt><trkpt lat="45.83686982947112" lon="9.063380971675665"><ele>209.79999999999998</ele><time>2026-05-03T13:53:37.964Z</time></trkpt><trkpt lat="45.836837336083164" lon="9.063549444280005"><ele>210.6</ele><time>2026-05-03T13:53:38.964Z</time></trkpt><trkpt lat="45.836807641205255" lon="9.063689074130613"><ele>211.4</ele><time>2026-05-03T13:53:39.963Z</time></trkpt><trkpt lat="45.836778555494995" lon="9.063818607371854"><ele>212.2</ele><time>2026-05-03T13:53:40.963Z</time></trkpt><trkpt lat="45.836751555961754" lon="9.06394198786829"><ele>213.0</ele><time>2026-05-03T13:53:41.963Z</time></trkpt><trkpt lat="45.83672333794858" lon="9.064083626294977"><ele>213.2</ele><time>2026-05-03T13:53:42.964Z</time></trkpt><trkpt lat="45.83669539014098" lon="9.064233254307661"><ele>213.4</ele><time>2026-05-03T13:53:43.964Z</time></trkpt><trkpt lat="45.83667016090866" lon="9.06438492208827"><ele>213.59999999999997</ele><time>2026-05-03T13:53:44.964Z</time></trkpt><trkpt lat="45.83665130966697" lon="9.06453661420389"><ele>213.79999999999998</ele><time>2026-05-03T13:53:45.964Z</time></trkpt><trkpt lat="45.83663666702352" lon="9.0646823201274"><ele>214.0</ele><time>2026-05-03T13:53:46.964Z</time></trkpt><trkpt lat="45.83662381217896" lon="9.064835450576032"><ele>213.79999999999998</ele><time>2026-05-03T13:53:47.964Z</time></trkpt><trkpt lat="45.836611937944234" lon="9.064988945264256"><ele>213.59999999999997</ele><time>2026-05-03T13:53:48.963Z</time></trkpt><trkpt lat="45.83658007556016" lon="9.065145605968613"><ele>213.4</ele><time>2026-05-03T13:53:49.964Z</time></trkpt><trkpt lat="45.836575565694076" lon="9.065301799978402"><ele>213.2</ele><time>2026-05-03T13:53:50.964Z</time></trkpt><trkpt lat="45.83656844752347" lon="9.065439131615694"><ele>213.0</ele><time>2026-05-03T13:53:51.964Z</time></trkpt><trkpt lat="45.836553142080106" lon="9.065556383519624"><ele>213.0</ele><time>2026-05-03T13:53:52.964Z</time></trkpt><trkpt lat="45.83653197534898" lon="9.065655690786068"><ele>213.0</ele><time>2026-05-03T13:53:53.964Z</time></trkpt><trkpt lat="45.83650461680337" lon="9.065781207248104"><ele>209.0</ele><time>2026-05-03T13:53:55.964Z</time></trkpt><trkpt lat="45.836496110704154" lon="9.06587081523229"><ele>209.0</ele><time>2026-05-03T13:54:03.964Z</time></trkpt></trkseg></trk></gpx>